<?xml version='1.0' encoding='UTF-8'?><gpx version="1.1" creator="JPX - https://github.com/jenetics/jpx" xmlns="http://www.topografix.com/GPX/1/1"><trk><trkseg><trkpt lat="43.45825551801187" lon="11.901430334202848"><ele>269.0</ele><time>2026-04-11T06:35:16.735Z</time></trkpt><trkpt lat="43.458247533575076" lon="11.901602464334813"><ele>269.0</ele><time>2026-04-11T06:35:18.741Z</time></trkpt><trkpt lat="43.458216697556814" lon="11.90172141234422"><ele>269.0</ele><time>2026-04-11T06:35:20.739Z</time></trkpt><trkpt lat="43.45815583752088" lon="11.901904748127299"><ele>269.0</ele><time>2026-04-11T06:35:22.739Z</time></trkpt><trkpt lat="43.45816212170161" lon="11.902002485489204"><ele>269.0</ele><time>2026-04-11T06:35:23.738Z</time></trkpt><trkpt lat="43.4581205034973" lon="11.902107518980483"><ele>269.33333333333337</ele><time>2026-04-11T06:35:24.738Z</time></trkpt><trkpt lat="43.458104995206604" lon="11.902212465771393"><ele>269.6666666666667</ele><time>2026-04-11T06:35:25.739Z</time></trkpt><trkpt lat="43.458077459625564" lon="11.90232378092439"><ele>270.0</ele><time>2026-04-11T06:35:26.739Z</time></trkpt><trkpt lat="43.45803601045558" lon="11.902412212532898"><ele>270.3333333333333</ele><time>2026-04-11T06:35:27.737Z</time></trkpt><trkpt lat="43.45800658549009" lon="11.90251321951431"><ele>270.66666666666663</ele><time>2026-04-11T06:35:28.741Z</time></trkpt><trkpt lat="43.457962094113" lon="11.902611966888722"><ele>271.0</ele><time>2026-04-11T06:35:29.74Z</time></trkpt><trkpt lat="43.45793324896535" lon="11.902727964666127"><ele>271.16666666666663</ele><time>2026-04-11T06:35:30.741Z</time></trkpt><trkpt lat="43.457894503688564" lon="11.902839384515877"><ele>271.3333333333333</ele><time>2026-04-11T06:35:31.739Z</time></trkpt><trkpt lat="43.4578653173303" lon="11.902953450371607"><ele>271.5</ele><time>2026-04-11T06:35:32.741Z</time></trkpt><trkpt lat="43.457842978162496" lon="11.903068675886379"><ele>271.6666666666667</ele><time>2026-04-11T06:35:33.738Z</time></trkpt><trkpt lat="43.45780948289446" lon="11.903169237937172"><ele>271.83333333333337</ele><time>2026-04-11T06:35:34.74Z</time></trkpt><trkpt lat="43.45777667539007" lon="11.903256769899526"><ele>272.0</ele><time>2026-04-11T06:35:35.739Z</time></trkpt><trkpt lat="43.45774374150874" lon="11.903360145762056"><ele>272.0</ele><time>2026-04-11T06:35:36.739Z</time></trkpt><trkpt lat="43.45770792191867" lon="11.903456562822216"><ele>272.0</ele><time>2026-04-11T06:35:37.739Z</time></trkpt><trkpt lat="43.457651342015275" lon="11.903535812751617"><ele>272.0</ele><time>2026-04-11T06:35:38.739Z</time></trkpt><trkpt lat="43.45756833681892" lon="11.903581118476733"><ele>272.0</ele><time>2026-04-11T06:35:39.738Z</time></trkpt><trkpt lat="43.45748527270961" lon="11.90359044644365"><ele>272.0</ele><time>2026-04-11T06:35:40.739Z</time></trkpt><trkpt lat="43.457392639819496" lon="11.903535678272211"><ele>272.0</ele><time>2026-04-11T06:35:41.74Z</time></trkpt><trkpt lat="43.45723538798088" lon="11.903508948867215"><ele>272.0</ele><time>2026-04-11T06:35:43.738Z</time></trkpt><trkpt lat="43.45712471412486" lon="11.90354001214146"><ele>272.0</ele><time>2026-04-11T06:35:44.742Z</time></trkpt><trkpt lat="43.4570484014006" lon="11.903535433108495"><ele>272.0</ele><time>2026-04-11T06:35:45.74Z</time></trkpt><trkpt lat="43.45697670366683" lon="11.903508314668917"><ele>272.0</ele><time>2026-04-11T06:35:46.74Z</time></trkpt><trkpt lat="43.456928184103596" lon="11.903406103126844"><ele>272.0</ele><time>2026-04-11T06:35:47.74Z</time></trkpt><trkpt lat="43.456792084022005" lon="11.903454164818646"><ele>271.4</ele><time>2026-04-11T06:35:48.74Z</time></trkpt><trkpt lat="43.45665317127167" lon="11.903493749328456"><ele>270.79999999999995</ele><time>2026-04-11T06:35:50.74Z</time></trkpt><trkpt lat="43.45658498036358" lon="11.903552080857686"><ele>270.2</ele><time>2026-04-11T06:35:51.739Z</time></trkpt><trkpt lat="43.45649491809797" lon="11.903583182066843"><ele>269.59999999999997</ele><time>2026-04-11T06:35:52.74Z</time></trkpt><trkpt lat="43.45640988072327" lon="11.903563796594792"><ele>269.0</ele><time>2026-04-11T06:35:53.738Z</time></trkpt><trkpt lat="43.456335322928155" lon="11.903787934796688"><ele>268.6666666666667</ele><time>2026-04-11T06:35:54.739Z</time></trkpt><trkpt lat="43.45618708130702" lon="11.903664751671245"><ele>268.3333333333333</ele><time>2026-04-11T06:35:56.739Z</time></trkpt><trkpt lat="43.45608917982189" lon="11.903582908900159"><ele>268.0</ele><time>2026-04-11T06:35:57.739Z</time></trkpt><trkpt lat="43.455932486162496" lon="11.90350375147377"><ele>268.0</ele><time>2026-04-11T06:35:58.74Z</time></trkpt><trkpt lat="43.455823295499904" lon="11.903539900978622"><ele>268.0</ele><time>2026-04-11T06:35:59.738Z</time></trkpt><trkpt lat="43.455703778652286" lon="11.903571632903189"><ele>268.0</ele><time>2026-04-11T06:36:00.742Z</time></trkpt><trkpt lat="43.455592593602006" lon="11.903618728338904"><ele>268.0</ele><time>2026-04-11T06:36:01.738Z</time></trkpt><trkpt lat="43.45549205244768" lon="11.903717237418007"><ele>269.0</ele><time>2026-04-11T06:36:02.738Z</time></trkpt><trkpt lat="43.45540894483496" lon="11.903945224717937"><ele>270.0</ele><time>2026-04-11T06:36:04.739Z</time></trkpt><trkpt lat="43.455365980374204" lon="11.90405301355604"><ele>271.0</ele><time>2026-04-11T06:36:05.74Z</time></trkpt><trkpt lat="43.45532645385223" lon="11.904178785346495"><ele>272.0</ele><time>2026-04-11T06:36:06.741Z</time></trkpt><trkpt lat="43.455294318195016" lon="11.90431594323706"><ele>272.4</ele><time>2026-04-11T06:36:07.74Z</time></trkpt><trkpt lat="43.455256020033396" lon="11.90442866705733"><ele>272.79999999999995</ele><time>2026-04-11T06:36:08.741Z</time></trkpt><trkpt lat="43.45521766651905" lon="11.904563072198089"><ele>273.2</ele><time>2026-04-11T06:36:09.741Z</time></trkpt><trkpt lat="43.455176500486445" lon="11.90468824687007"><ele>273.59999999999997</ele><time>2026-04-11T06:36:10.74Z</time></trkpt><trkpt lat="43.45515404951684" lon="11.904853257858395"><ele>274.0</ele><time>2026-04-11T06:36:11.739Z</time></trkpt><trkpt lat="43.45511883053578" lon="11.904996459674502"><ele>273.75</ele><time>2026-04-11T06:36:12.74Z</time></trkpt><trkpt lat="43.455077753324254" lon="11.905135664864941"><ele>273.5</ele><time>2026-04-11T06:36:13.739Z</time></trkpt><trkpt lat="43.45503783358177" lon="11.905307345053007"><ele>273.25</ele><time>2026-04-11T06:36:14.74Z</time></trkpt><trkpt lat="43.454980702733735" lon="11.905476810405416"><ele>273.0</ele><time>2026-04-11T06:36:15.739Z</time></trkpt><trkpt lat="43.45489172660523" lon="11.905638976043594"><ele>273.0</ele><time>2026-04-11T06:36:16.74Z</time></trkpt><trkpt lat="43.454798002855135" lon="11.905785247245179"><ele>273.0</ele><time>2026-04-11T06:36:17.74Z</time></trkpt><trkpt lat="43.45471295034857" lon="11.905959241727038"><ele>273.0</ele><time>2026-04-11T06:36:18.739Z</time></trkpt><trkpt lat="43.45462215328406" lon="11.906116837568298"><ele>273.0</ele><time>2026-04-11T06:36:19.735Z</time></trkpt><trkpt lat="43.45453168462685" lon="11.906256237197377"><ele>273.0</ele><time>2026-04-11T06:36:20.74Z</time></trkpt><trkpt lat="43.45442967157666" lon="11.9063814588979"><ele>273.0</ele><time>2026-04-11T06:36:21.739Z</time></trkpt><trkpt lat="43.454348600020445" lon="11.906536079661343"><ele>273.0</ele><time>2026-04-11T06:36:22.74Z</time></trkpt><trkpt lat="43.454273601784905" lon="11.90667749616682"><ele>273.0</ele><time>2026-04-11T06:36:23.738Z</time></trkpt><trkpt lat="43.45411644295509" lon="11.906962534352854"><ele>273.0</ele><time>2026-04-11T06:36:25.739Z</time></trkpt><trkpt lat="43.45403269598446" lon="11.907104264323431"><ele>273.0</ele><time>2026-04-11T06:36:26.74Z</time></trkpt><trkpt lat="43.45395467645088" lon="11.907255439673175"><ele>273.0</ele><time>2026-04-11T06:36:27.739Z</time></trkpt><trkpt lat="43.45388067416771" lon="11.907405731631757"><ele>273.0</ele><time>2026-04-11T06:36:28.738Z</time></trkpt><trkpt lat="43.453806923964464" lon="11.90755400783977"><ele>273.25</ele><time>2026-04-11T06:36:29.738Z</time></trkpt><trkpt lat="43.453729989143106" lon="11.907701045729523"><ele>273.5</ele><time>2026-04-11T06:36:30.739Z</time></trkpt><trkpt lat="43.45364901411502" lon="11.907841648724162"><ele>273.75</ele><time>2026-04-11T06:36:31.738Z</time></trkpt><trkpt lat="43.45357100046225" lon="11.907985379958218"><ele>274.0</ele><time>2026-04-11T06:36:32.74Z</time></trkpt><trkpt lat="43.453496339086776" lon="11.908129589094028"><ele>274.0</ele><time>2026-04-11T06:36:33.741Z</time></trkpt><trkpt lat="43.45342263064686" lon="11.908268925271749"><ele>274.0</ele><time>2026-04-11T06:36:34.74Z</time></trkpt><trkpt lat="43.453345134172906" lon="11.90840775535022"><ele>274.0</ele><time>2026-04-11T06:36:35.739Z</time></trkpt><trkpt lat="43.453274650361784" lon="11.908556147805541"><ele>274.0</ele><time>2026-04-11T06:36:36.739Z</time></trkpt><trkpt lat="43.45319873050535" lon="11.908688905097952"><ele>274.25</ele><time>2026-04-11T06:36:37.739Z</time></trkpt><trkpt lat="43.453133984496404" lon="11.90881567294876"><ele>274.5</ele><time>2026-04-11T06:36:38.742Z</time></trkpt><trkpt lat="43.45305582669325" lon="11.908975876814882"><ele>274.75</ele><time>2026-04-11T06:36:39.738Z</time></trkpt><trkpt lat="43.45298540889771" lon="11.909114894011969"><ele>275.0</ele><time>2026-04-11T06:36:40.74Z</time></trkpt><trkpt lat="43.4529062786788" lon="11.909253535180937"><ele>275.25</ele><time>2026-04-11T06:36:41.737Z</time></trkpt><trkpt lat="43.452827612766015" lon="11.909394683233069"><ele>275.5</ele><time>2026-04-11T06:36:42.739Z</time></trkpt><trkpt lat="43.452750749144926" lon="11.90953975071255"><ele>275.75</ele><time>2026-04-11T06:36:43.738Z</time></trkpt><trkpt lat="43.45267478458022" lon="11.909688803389013"><ele>276.0</ele><time>2026-04-11T06:36:44.74Z</time></trkpt><trkpt lat="43.45251957534859" lon="11.909998020253653"><ele>276.0</ele><time>2026-04-11T06:36:46.74Z</time></trkpt><trkpt lat="43.452439215766724" lon="11.910147143967777"><ele>276.0</ele><time>2026-04-11T06:36:47.739Z</time></trkpt><trkpt lat="43.45234840290877" lon="11.910299708953247"><ele>276.0</ele><time>2026-04-11T06:36:48.741Z</time></trkpt><trkpt lat="43.45225260221458" lon="11.910444719374842"><ele>276.0</ele><time>2026-04-11T06:36:49.739Z</time></trkpt><trkpt lat="43.45216012646478" lon="11.910587702696489"><ele>276.75</ele><time>2026-04-11T06:36:50.739Z</time></trkpt><trkpt lat="43.45206820808023" lon="11.910735994587933"><ele>277.5</ele><time>2026-04-11T06:36:51.738Z</time></trkpt><trkpt lat="43.451980499603074" lon="11.910888684451983"><ele>278.25</ele><time>2026-04-11T06:36:52.739Z</time></trkpt><trkpt lat="43.45189508467228" lon="11.91103797667965"><ele>279.0</ele><time>2026-04-11T06:36:53.739Z</time></trkpt><trkpt lat="43.45180071980919" lon="11.911170204734663"><ele>279.0</ele><time>2026-04-11T06:36:54.74Z</time></trkpt><trkpt lat="43.451713342313916" lon="11.911308869730048"><ele>279.0</ele><time>2026-04-11T06:36:55.738Z</time></trkpt><trkpt lat="43.45162486955028" lon="11.911459254523479"><ele>279.0</ele><time>2026-04-11T06:36:56.739Z</time></trkpt><trkpt lat="43.45153714793452" lon="11.911616767491964"><ele>279.0</ele><time>2026-04-11T06:36:57.739Z</time></trkpt><trkpt lat="43.451456674244454" lon="11.911773952142978"><ele>279.0</ele><time>2026-04-11T06:36:58.739Z</time></trkpt><trkpt lat="43.4513735281606" lon="11.91194903618023"><ele>279.0</ele><time>2026-04-11T06:36:59.74Z</time></trkpt><trkpt lat="43.451295331381864" lon="11.91212167515107"><ele>279.0</ele><time>2026-04-11T06:37:00.738Z</time></trkpt><trkpt lat="43.45122123575432" lon="11.912281419246575"><ele>279.0</ele><time>2026-04-11T06:37:01.739Z</time></trkpt><trkpt lat="43.45114980135505" lon="11.912445762218418"><ele>279.25</ele><time>2026-04-11T06:37:02.739Z</time></trkpt><trkpt lat="43.45107952914612" lon="11.912599289863739"><ele>279.5</ele><time>2026-04-11T06:37:03.739Z</time></trkpt><trkpt lat="43.45100200396134" lon="11.91275000567038"><ele>279.75</ele><time>2026-04-11T06:37:04.74Z</time></trkpt><trkpt lat="43.450930171105135" lon="11.912904098431948"><ele>280.0</ele><time>2026-04-11T06:37:05.739Z</time></trkpt><trkpt lat="43.45078764860293" lon="11.913204642523091"><ele>280.0</ele><time>2026-04-11T06:37:07.738Z</time></trkpt><trkpt lat="43.4507249535733" lon="11.913332176462038"><ele>280.0</ele><time>2026-04-11T06:37:08.738Z</time></trkpt><trkpt lat="43.45066552473543" lon="11.913446197828662"><ele>280.0</ele><time>2026-04-11T06:37:09.737Z</time></trkpt><trkpt lat="43.45060454741154" lon="11.913538878542704"><ele>280.0</ele><time>2026-04-11T06:37:10.738Z</time></trkpt><trkpt lat="43.45054276016229" lon="11.913616691280387"><ele>280.0</ele><time>2026-04-11T06:37:11.738Z</time></trkpt><trkpt lat="43.450486912602635" lon="11.913690909068091"><ele>280.3333333333333</ele><time>2026-04-11T06:37:12.739Z</time></trkpt><trkpt lat="43.450427066509654" lon="11.913753550127762"><ele>280.66666666666663</ele><time>2026-04-11T06:37:13.739Z</time></trkpt><trkpt lat="43.450329369256806" lon="11.913798166448279"><ele>281.0</ele><time>2026-04-11T06:37:15.738Z</time></trkpt><trkpt lat="43.450250667801456" lon="11.913802604204605"><ele>281.3333333333333</ele><time>2026-04-11T06:37:17.74Z</time></trkpt><trkpt lat="43.450191338277214" lon="11.913698023305553"><ele>281.6666666666667</ele><time>2026-04-11T06:37:20.742Z</time></trkpt><trkpt lat="43.45017590935049" lon="11.913598748568845"><ele>282.0</ele><time>2026-04-11T06:37:22.74Z</time></trkpt><trkpt lat="43.45016252949895" lon="11.913421527584466"><ele>283.0</ele><time>2026-04-11T06:37:24.739Z</time></trkpt><trkpt lat="43.45017354326427" lon="11.913333984517596"><ele>284.0</ele><time>2026-04-11T06:37:25.738Z</time></trkpt><trkpt lat="43.450205592402945" lon="11.91322169736742"><ele>285.0</ele><time>2026-04-11T06:37:26.739Z</time></trkpt><trkpt lat="43.45024409065087" lon="11.913011806015456"><ele>286.0</ele><time>2026-04-11T06:37:28.74Z</time></trkpt><trkpt lat="43.450251110696065" lon="11.912897288141206"><ele>287.0</ele><time>2026-04-11T06:37:29.738Z</time></trkpt><trkpt lat="43.450266248534284" lon="11.912756130899984"><ele>287.0</ele><time>2026-04-11T06:37:30.739Z</time></trkpt><trkpt lat="43.450305020222444" lon="11.912625501875056"><ele>287.0</ele><time>2026-04-11T06:37:31.739Z</time></trkpt><trkpt lat="43.45033733824348" lon="11.91248303388229"><ele>287.0</ele><time>2026-04-11T06:37:32.738Z</time></trkpt><trkpt lat="43.45037306483889" lon="11.91234737783136"><ele>287.0</ele><time>2026-04-11T06:37:33.739Z</time></trkpt><trkpt lat="43.45039266107951" lon="11.91219937084691"><ele>287.0</ele><time>2026-04-11T06:37:34.739Z</time></trkpt><trkpt lat="43.45041787892369" lon="11.912073173632422"><ele>288.8</ele><time>2026-04-11T06:37:35.738Z</time></trkpt><trkpt lat="43.45043447890565" lon="11.911961288862937"><ele>290.6</ele><time>2026-04-11T06:37:36.738Z</time></trkpt><trkpt lat="43.45044786893389" lon="11.91186757547835"><ele>292.40000000000003</ele><time>2026-04-11T06:37:37.738Z</time></trkpt><trkpt lat="43.45042119358139" lon="11.911752419176954"><ele>294.2</ele><time>2026-04-11T06:37:39.742Z</time></trkpt><trkpt lat="43.45030014271886" lon="11.911699552225237"><ele>296.0</ele><time>2026-04-11T06:37:41.74Z</time></trkpt><trkpt lat="43.45020950420484" lon="11.911696209612264"><ele>296.75</ele><time>2026-04-11T06:37:42.738Z</time></trkpt><trkpt lat="43.45010329554816" lon="11.91168392094444"><ele>297.5</ele><time>2026-04-11T06:37:43.743Z</time></trkpt><trkpt lat="43.449980538825976" lon="11.911681528727312"><ele>298.25</ele><time>2026-04-11T06:37:44.739Z</time></trkpt><trkpt lat="43.449867711149636" lon="11.911631379164195"><ele>299.0</ele><time>2026-04-11T06:37:45.739Z</time></trkpt><trkpt lat="43.44974081068572" lon="11.911635136616612"><ele>303.25</ele><time>2026-04-11T06:37:46.739Z</time></trkpt><trkpt lat="43.449624131221995" lon="11.911631558158932"><ele>307.5</ele><time>2026-04-11T06:37:47.738Z</time></trkpt><trkpt lat="43.44942018950643" lon="11.911630138292287"><ele>311.75</ele><time>2026-04-11T06:37:49.738Z</time></trkpt><trkpt lat="43.449315764626796" lon="11.911642071863923"><ele>316.0</ele><time>2026-04-11T06:37:51.738Z</time></trkpt><trkpt lat="43.44925225539504" lon="11.911640232910603"><ele>316.0</ele><time>2026-04-11T06:37:53.738Z</time></trkpt><trkpt lat="43.44916895034333" lon="11.911569663325636"><ele>316.0</ele><time>2026-04-11T06:37:56.74Z</time></trkpt><trkpt lat="43.44909629384678" lon="11.911511390273706"><ele>316.0</ele><time>2026-04-11T06:37:57.739Z</time></trkpt><trkpt lat="43.449006074981945" lon="11.911428297676679"><ele>316.0</ele><time>2026-04-11T06:37:58.738Z</time></trkpt><trkpt lat="43.44892186599148" lon="11.911368681973046"><ele>316.0</ele><time>2026-04-11T06:37:59.734Z</time></trkpt><trkpt lat="43.44884960215355" lon="11.9113119240827"><ele>318.6</ele><time>2026-04-11T06:38:00.74Z</time></trkpt><trkpt lat="43.44876859116222" lon="11.911254533993965"><ele>321.20000000000005</ele><time>2026-04-11T06:38:01.739Z</time></trkpt><trkpt lat="43.44869331361357" lon="11.911200548532596"><ele>323.79999999999995</ele><time>2026-04-11T06:38:02.74Z</time></trkpt><trkpt lat="43.44861210981688" lon="11.91115181548763"><ele>326.4</ele><time>2026-04-11T06:38:03.738Z</time></trkpt><trkpt lat="43.448524362376325" lon="11.911087914736086"><ele>329.0</ele><time>2026-04-11T06:38:04.741Z</time></trkpt><trkpt lat="43.448443694590694" lon="11.911021040935475"><ele>329.0</ele><time>2026-04-11T06:38:05.739Z</time></trkpt><trkpt lat="43.44836369788296" lon="11.910950354556215"><ele>329.0</ele><time>2026-04-11T06:38:06.741Z</time></trkpt><trkpt lat="43.44827355155022" lon="11.910884398941834"><ele>329.0</ele><time>2026-04-11T06:38:07.739Z</time></trkpt><trkpt lat="43.44817778514835" lon="11.910819715807088"><ele>329.0</ele><time>2026-04-11T06:38:08.74Z</time></trkpt><trkpt lat="43.448014161004956" lon="11.910697883965595"><ele>329.1666666666667</ele><time>2026-04-11T06:38:10.739Z</time></trkpt><trkpt lat="43.447934831982344" lon="11.910641310806062"><ele>329.33333333333337</ele><time>2026-04-11T06:38:11.738Z</time></trkpt><trkpt lat="43.44786756286441" lon="11.910571875257302"><ele>329.5</ele><time>2026-04-11T06:38:12.739Z</time></trkpt><trkpt lat="43.44782324725666" lon="11.910477961844373"><ele>329.6666666666667</ele><time>2026-04-11T06:38:13.741Z</time></trkpt><trkpt lat="43.4477887367505" lon="11.910371761429165"><ele>329.8333333333333</ele><time>2026-04-11T06:38:14.74Z</time></trkpt><trkpt lat="43.44772603989249" lon="11.910278609304076"><ele>330.0</ele><time>2026-04-11T06:38:15.738Z</time></trkpt><trkpt lat="43.447666602417456" lon="11.910182379994543"><ele>330.0</ele><time>2026-04-11T06:38:16.739Z</time></trkpt><trkpt lat="43.447619697480825" lon="11.910089110637903"><ele>330.0</ele><time>2026-04-11T06:38:17.738Z</time></trkpt><trkpt lat="43.44756074271125" lon="11.909997076914191"><ele>330.0</ele><time>2026-04-11T06:38:18.734Z</time></trkpt><trkpt lat="43.44752832226504" lon="11.909888641100467"><ele>330.0</ele><time>2026-04-11T06:38:19.739Z</time></trkpt><trkpt lat="43.44744185775072" lon="11.909760383394923"><ele>330.0</ele><time>2026-04-11T06:38:21.738Z</time></trkpt><trkpt lat="43.4473756223899" lon="11.909728448375118"><ele>330.6</ele><time>2026-04-11T06:38:22.739Z</time></trkpt><trkpt lat="43.44728002688868" lon="11.90970019112373"><ele>331.2</ele><time>2026-04-11T06:38:23.738Z</time></trkpt><trkpt lat="43.44716909822872" lon="11.909669625056704"><ele>331.79999999999995</ele><time>2026-04-11T06:38:24.739Z</time></trkpt><trkpt lat="43.44709814674864" lon="11.909655324562715"><ele>332.4</ele><time>2026-04-11T06:38:25.737Z</time></trkpt><trkpt lat="43.44703898259074" lon="11.909540694228859"><ele>333.0</ele><time>2026-04-11T06:38:28.739Z</time></trkpt><trkpt lat="43.446986952598266" lon="11.909483394009891"><ele>333.0</ele><time>2026-04-11T06:38:29.738Z</time></trkpt><trkpt lat="43.446849032038635" lon="11.909338699770828"><ele>333.0</ele><time>2026-04-11T06:38:31.738Z</time></trkpt><trkpt lat="43.44680051658067" lon="11.909276070642557"><ele>333.0</ele><time>2026-04-11T06:38:32.741Z</time></trkpt><trkpt lat="43.4467360795304" lon="11.909199167674405"><ele>333.0</ele><time>2026-04-11T06:38:33.737Z</time></trkpt><trkpt lat="43.44667758302726" lon="11.909129205744819"><ele>333.0</ele><time>2026-04-11T06:38:34.739Z</time></trkpt><trkpt lat="43.44658765814907" lon="11.909106084901635"><ele>334.0</ele><time>2026-04-11T06:38:35.738Z</time></trkpt><trkpt lat="43.44650207584638" lon="11.909089185674546"><ele>335.0</ele><time>2026-04-11T06:38:36.737Z</time></trkpt><trkpt lat="43.446427021917124" lon="11.909090648671095"><ele>336.0</ele><time>2026-04-11T06:38:37.738Z</time></trkpt><trkpt lat="43.4463084109027" lon="11.909040413333027"><ele>337.0</ele><time>2026-04-11T06:38:39.737Z</time></trkpt><trkpt lat="43.446260399560735" lon="11.908959591586997"><ele>338.0</ele><time>2026-04-11T06:38:40.737Z</time></trkpt><trkpt lat="43.44620995598927" lon="11.908810942375824"><ele>338.0</ele><time>2026-04-11T06:38:42.738Z</time></trkpt><trkpt lat="43.44618720904704" lon="11.908696426766275"><ele>338.0</ele><time>2026-04-11T06:38:43.737Z</time></trkpt><trkpt lat="43.446111056122874" lon="11.908635882271406"><ele>338.0</ele><time>2026-04-11T06:38:44.738Z</time></trkpt><trkpt lat="43.44603306943884" lon="11.908563034701077"><ele>338.0</ele><time>2026-04-11T06:38:45.736Z</time></trkpt><trkpt lat="43.44596069336365" lon="11.90852267388646"><ele>338.0</ele><time>2026-04-11T06:38:46.738Z</time></trkpt><trkpt lat="43.445865443197484" lon="11.908430583525936"><ele>336.2</ele><time>2026-04-11T06:38:47.737Z</time></trkpt><trkpt lat="43.445779336658035" lon="11.908372135223535"><ele>334.4</ele><time>2026-04-11T06:38:48.736Z</time></trkpt><trkpt lat="43.44569608025983" lon="11.908329771305352"><ele>332.59999999999997</ele><time>2026-04-11T06:38:49.737Z</time></trkpt><trkpt lat="43.445607506693165" lon="11.908299286747768"><ele>330.79999999999995</ele><time>2026-04-11T06:38:50.741Z</time></trkpt><trkpt lat="43.44548067362968" lon="11.908254138119597"><ele>329.0</ele><time>2026-04-11T06:38:52.739Z</time></trkpt><trkpt lat="43.4454729199966" lon="11.908084800966437"><ele>329.0</ele><time>2026-04-11T06:38:54.739Z</time></trkpt><trkpt lat="43.445510437836255" lon="11.907961125646453"><ele>329.0</ele><time>2026-04-11T06:38:55.738Z</time></trkpt><trkpt lat="43.445540352858345" lon="11.9078757705352"><ele>329.0</ele><time>2026-04-11T06:38:56.737Z</time></trkpt><trkpt lat="43.445584821904035" lon="11.907779698275377"><ele>329.0</ele><time>2026-04-11T06:38:57.736Z</time></trkpt><trkpt lat="43.44563675981662" lon="11.90771463595047"><ele>329.0</ele><time>2026-04-11T06:38:58.738Z</time></trkpt><trkpt lat="43.445697762158986" lon="11.907674307339317"><ele>329.0</ele><time>2026-04-11T06:38:59.738Z</time></trkpt><trkpt lat="43.44577095860131" lon="11.907645984265665"><ele>329.0</ele><time>2026-04-11T06:39:00.737Z</time></trkpt><trkpt lat="43.44585612281571" lon="11.907620132600394"><ele>329.0</ele><time>2026-04-11T06:39:01.738Z</time></trkpt><trkpt lat="43.44594206531879" lon="11.907620338208467"><ele>329.0</ele><time>2026-04-11T06:39:02.739Z</time></trkpt><trkpt lat="43.44604003716659" lon="11.907601945554413"><ele>329.0</ele><time>2026-04-11T06:39:03.737Z</time></trkpt><trkpt lat="43.44613693319297" lon="11.90758108314745"><ele>329.0</ele><time>2026-04-11T06:39:04.739Z</time></trkpt><trkpt lat="43.446238210082214" lon="11.90756260454913"><ele>331.4</ele><time>2026-04-11T06:39:05.736Z</time></trkpt><trkpt lat="43.446342100109234" lon="11.907540608353916"><ele>333.79999999999995</ele><time>2026-04-11T06:39:06.739Z</time></trkpt><trkpt lat="43.446441557956994" lon="11.907518037714768"><ele>336.20000000000005</ele><time>2026-04-11T06:39:07.737Z</time></trkpt><trkpt lat="43.44653436554463" lon="11.907488350770768"><ele>338.6</ele><time>2026-04-11T06:39:08.733Z</time></trkpt><trkpt lat="43.44662793552629" lon="11.907480509335068"><ele>341.0</ele><time>2026-04-11T06:39:09.738Z</time></trkpt><trkpt lat="43.44673123568115" lon="11.907467754425367"><ele>341.0</ele><time>2026-04-11T06:39:10.738Z</time></trkpt><trkpt lat="43.446823221910975" lon="11.907446268308183"><ele>341.0</ele><time>2026-04-11T06:39:11.737Z</time></trkpt><trkpt lat="43.44699654481512" lon="11.907419601948126"><ele>341.0</ele><time>2026-04-11T06:39:13.737Z</time></trkpt><trkpt lat="43.44706375374769" lon="11.907399118262289"><ele>341.0</ele><time>2026-04-11T06:39:14.738Z</time></trkpt><trkpt lat="43.447109246701025" lon="11.90722907052998"><ele>341.0</ele><time>2026-04-11T06:39:16.738Z</time></trkpt><trkpt lat="43.44712127626271" lon="11.907089979532056"><ele>341.0</ele><time>2026-04-11T06:39:17.737Z</time></trkpt><trkpt lat="43.44714053232166" lon="11.90696239334127"><ele>341.0</ele><time>2026-04-11T06:39:18.737Z</time></trkpt><trkpt lat="43.44717107598692" lon="11.906829844247833"><ele>341.0</ele><time>2026-04-11T06:39:19.731Z</time></trkpt><trkpt lat="43.44720959439931" lon="11.906675852281467"><ele>341.0</ele><time>2026-04-11T06:39:20.737Z</time></trkpt><trkpt lat="43.44723213559379" lon="11.906558257901743"><ele>341.6666666666667</ele><time>2026-04-11T06:39:21.736Z</time></trkpt><trkpt lat="43.44722765619102" lon="11.906429100318167"><ele>342.33333333333337</ele><time>2026-04-11T06:39:23.736Z</time></trkpt><trkpt lat="43.44721217118565" lon="11.906269916632468"><ele>343.0</ele><time>2026-04-11T06:39:26.734Z</time></trkpt><trkpt lat="43.44720237853306" lon="11.906178949240399"><ele>343.6666666666667</ele><time>2026-04-11T06:39:27.737Z</time></trkpt><trkpt lat="43.44717819290933" lon="11.906085048379582"><ele>344.3333333333333</ele><time>2026-04-11T06:39:28.739Z</time></trkpt><trkpt lat="43.44717976530562" lon="11.905959883803458"><ele>345.0</ele><time>2026-04-11T06:39:29.737Z</time></trkpt><trkpt lat="43.44715791154917" lon="11.905833404659932"><ele>346.5</ele><time>2026-04-11T06:39:30.738Z</time></trkpt><trkpt lat="43.44715284994945" lon="11.905703638511033"><ele>348.0</ele><time>2026-04-11T06:39:31.737Z</time></trkpt><trkpt lat="43.44714430456669" lon="11.90556240919199"><ele>349.5</ele><time>2026-04-11T06:39:32.74Z</time></trkpt><trkpt lat="43.447122969181315" lon="11.90528752120883"><ele>351.0</ele><time>2026-04-11T06:39:34.738Z</time></trkpt><trkpt lat="43.4471143983498" lon="11.905155649187236"><ele>353.8333333333333</ele><time>2026-04-11T06:39:35.738Z</time></trkpt><trkpt lat="43.44710070158393" lon="11.90502563075148"><ele>356.6666666666667</ele><time>2026-04-11T06:39:36.739Z</time></trkpt><trkpt lat="43.44708946074613" lon="11.904904583895963"><ele>359.5</ele><time>2026-04-11T06:39:37.739Z</time></trkpt><trkpt lat="43.4470352334293" lon="11.90478384526227"><ele>362.33333333333337</ele><time>2026-04-11T06:39:39.734Z</time></trkpt><trkpt lat="43.4469711663255" lon="11.904750874851487"><ele>365.1666666666667</ele><time>2026-04-11T06:39:40.739Z</time></trkpt><trkpt lat="43.44689504021136" lon="11.904754456115983"><ele>368.0</ele><time>2026-04-11T06:39:41.738Z</time></trkpt><trkpt lat="43.44680610872534" lon="11.904782801451512"><ele>368.0</ele><time>2026-04-11T06:39:42.739Z</time></trkpt><trkpt lat="43.44671667508207" lon="11.904806259592972"><ele>368.0</ele><time>2026-04-11T06:39:43.738Z</time></trkpt><trkpt lat="43.4466422919645" lon="11.904791036655354"><ele>368.0</ele><time>2026-04-11T06:39:44.731Z</time></trkpt><trkpt lat="43.44664566566557" lon="11.904648645276191"><ele>368.0</ele><time>2026-04-11T06:39:46.739Z</time></trkpt><trkpt lat="43.446689163727314" lon="11.904571223658024"><ele>368.0</ele><time>2026-04-11T06:39:47.738Z</time></trkpt><trkpt lat="43.446760359147284" lon="11.904498272194198"><ele>368.0</ele><time>2026-04-11T06:39:48.738Z</time></trkpt><trkpt lat="43.44685444500705" lon="11.904428876848453"><ele>368.0</ele><time>2026-04-11T06:39:49.738Z</time></trkpt><trkpt lat="43.44695468039648" lon="11.904331374519721"><ele>368.0</ele><time>2026-04-11T06:39:50.738Z</time></trkpt><trkpt lat="43.44705751312651" lon="11.904225964169624"><ele>368.0</ele><time>2026-04-11T06:39:51.739Z</time></trkpt><trkpt lat="43.44716211788137" lon="11.904124555423838"><ele>368.0</ele><time>2026-04-11T06:39:52.739Z</time></trkpt><trkpt lat="43.447258675766705" lon="11.90402633058507"><ele>369.6666666666667</ele><time>2026-04-11T06:39:53.74Z</time></trkpt><trkpt lat="43.44747323620099" lon="11.90381421944017"><ele>371.3333333333333</ele><time>2026-04-11T06:39:55.738Z</time></trkpt><trkpt lat="43.44757336412092" lon="11.903712354579147"><ele>373.0</ele><time>2026-04-11T06:39:56.738Z</time></trkpt><trkpt lat="43.447679378027594" lon="11.903619234967943"><ele>373.0</ele><time>2026-04-11T06:39:57.74Z</time></trkpt><trkpt lat="43.44777042196178" lon="11.903569180033623"><ele>373.0</ele><time>2026-04-11T06:39:58.734Z</time></trkpt><trkpt lat="43.447870618223476" lon="11.90353765822652"><ele>373.0</ele><time>2026-04-11T06:39:59.738Z</time></trkpt><trkpt lat="43.44797367049217" lon="11.903499110790557"><ele>373.0</ele><time>2026-04-11T06:40:00.739Z</time></trkpt><trkpt lat="43.448074024132715" lon="11.903425739182108"><ele>373.0</ele><time>2026-04-11T06:40:01.739Z</time></trkpt><trkpt lat="43.44816332483773" lon="11.903321940504414"><ele>374.75</ele><time>2026-04-11T06:40:02.741Z</time></trkpt><trkpt lat="43.44825749008616" lon="11.903212146274292"><ele>376.5</ele><time>2026-04-11T06:40:03.738Z</time></trkpt><trkpt lat="43.4483548779759" lon="11.903096498323054"><ele>378.25</ele><time>2026-04-11T06:40:04.739Z</time></trkpt><trkpt lat="43.448458670246694" lon="11.902992851592817"><ele>380.0</ele><time>2026-04-11T06:40:05.737Z</time></trkpt><trkpt lat="43.448565693146925" lon="11.902910482259818"><ele>380.0</ele><time>2026-04-11T06:40:06.74Z</time></trkpt><trkpt lat="43.44865977410383" lon="11.902860600815142"><ele>380.0</ele><time>2026-04-11T06:40:07.739Z</time></trkpt><trkpt lat="43.44874303151011" lon="11.90280285524921"><ele>380.0</ele><time>2026-04-11T06:40:08.739Z</time></trkpt><trkpt lat="43.44880153106121" lon="11.902740619235235"><ele>380.0</ele><time>2026-04-11T06:40:09.739Z</time></trkpt><trkpt lat="43.448823307889036" lon="11.9025783060872"><ele>380.0</ele><time>2026-04-11T06:40:11.739Z</time></trkpt><trkpt lat="43.44878367360184" lon="11.902497516984798"><ele>380.0</ele><time>2026-04-11T06:40:12.74Z</time></trkpt><trkpt lat="43.44864454713497" lon="11.902488639164062"><ele>380.0</ele><time>2026-04-11T06:40:14.738Z</time></trkpt><trkpt lat="43.448499109278835" lon="11.90266738511251"><ele>380.0</ele><time>2026-04-11T06:40:16.74Z</time></trkpt><trkpt lat="43.448424469414434" lon="11.902768807707227"><ele>380.0</ele><time>2026-04-11T06:40:17.737Z</time></trkpt><trkpt lat="43.44833638334201" lon="11.902840621278875"><ele>380.0</ele><time>2026-04-11T06:40:18.739Z</time></trkpt><trkpt lat="43.44824576044876" lon="11.90286723444722"><ele>380.0</ele><time>2026-04-11T06:40:19.738Z</time></trkpt><trkpt lat="43.448147219226776" lon="11.90285771260886"><ele>380.0</ele><time>2026-04-11T06:40:20.742Z</time></trkpt><trkpt lat="43.44805219905425" lon="11.90282200958984"><ele>380.0</ele><time>2026-04-11T06:40:21.74Z</time></trkpt><trkpt lat="43.447966536764284" lon="11.902749454513025"><ele>380.0</ele><time>2026-04-11T06:40:22.74Z</time></trkpt><trkpt lat="43.44786183075963" lon="11.902678492705789"><ele>381.6</ele><time>2026-04-11T06:40:23.739Z</time></trkpt><trkpt lat="43.44777233975681" lon="11.902589518675212"><ele>383.2</ele><time>2026-04-11T06:40:24.74Z</time></trkpt><trkpt lat="43.44768473403031" lon="11.90249993471812"><ele>384.79999999999995</ele><time>2026-04-11T06:40:25.738Z</time></trkpt><trkpt lat="43.44759578619048" lon="11.902441412556353"><ele>386.4</ele><time>2026-04-11T06:40:26.74Z</time></trkpt><trkpt lat="43.44750186080799" lon="11.902393768798113"><ele>388.0</ele><time>2026-04-11T06:40:27.738Z</time></trkpt><trkpt lat="43.447408523682135" lon="11.902334332645239"><ele>390.33333333333337</ele><time>2026-04-11T06:40:28.738Z</time></trkpt><trkpt lat="43.44732514658981" lon="11.902266493988737"><ele>392.6666666666667</ele><time>2026-04-11T06:40:29.738Z</time></trkpt><trkpt lat="43.44726274214606" lon="11.902197016730838"><ele>395.0</ele><time>2026-04-11T06:40:30.74Z</time></trkpt><trkpt lat="43.447154930991054" lon="11.902119955181362"><ele>397.33333333333337</ele><time>2026-04-11T06:40:32.739Z</time></trkpt><trkpt lat="43.447082200444605" lon="11.90212484860785"><ele>399.6666666666667</ele><time>2026-04-11T06:40:33.739Z</time></trkpt><trkpt lat="43.44701172806925" lon="11.902155267005115"><ele>402.0</ele><time>2026-04-11T06:40:34.739Z</time></trkpt><trkpt lat="43.44693157849379" lon="11.902195726138322"><ele>402.0</ele><time>2026-04-11T06:40:35.738Z</time></trkpt><trkpt lat="43.446747979623275" lon="11.902289703720953"><ele>402.0</ele><time>2026-04-11T06:40:37.738Z</time></trkpt><trkpt lat="43.44666653067153" lon="11.902338295262677"><ele>402.0</ele><time>2026-04-11T06:40:38.739Z</time></trkpt><trkpt lat="43.44658017192461" lon="11.902379009752812"><ele>402.0</ele><time>2026-04-11T06:40:39.737Z</time></trkpt><trkpt lat="43.446490967034954" lon="11.902428946704507"><ele>402.0</ele><time>2026-04-11T06:40:40.739Z</time></trkpt><trkpt lat="43.4463970390944" lon="11.902479290653648"><ele>402.0</ele><time>2026-04-11T06:40:41.738Z</time></trkpt><trkpt lat="43.44628737926975" lon="11.902513819040623"><ele>402.0</ele><time>2026-04-11T06:40:42.738Z</time></trkpt><trkpt lat="43.446180667055" lon="11.902540087547946"><ele>402.0</ele><time>2026-04-11T06:40:43.738Z</time></trkpt><trkpt lat="43.4460686198821" lon="11.902571417432622"><ele>402.0</ele><time>2026-04-11T06:40:44.739Z</time></trkpt><trkpt lat="43.445955472336586" lon="11.902596838351378"><ele>401.40000000000003</ele><time>2026-04-11T06:40:45.738Z</time></trkpt><trkpt lat="43.44584845341549" lon="11.902628093250733"><ele>400.8</ele><time>2026-04-11T06:40:46.737Z</time></trkpt><trkpt lat="43.4457358603821" lon="11.902655911112252"><ele>400.2</ele><time>2026-04-11T06:40:47.738Z</time></trkpt><trkpt lat="43.445637242044654" lon="11.902687484801985"><ele>399.6</ele><time>2026-04-11T06:40:48.738Z</time></trkpt><trkpt lat="43.44553628775545" lon="11.902713513880796"><ele>399.0</ele><time>2026-04-11T06:40:49.738Z</time></trkpt><trkpt lat="43.44543277710973" lon="11.90273645576195"><ele>401.0</ele><time>2026-04-11T06:40:50.738Z</time></trkpt><trkpt lat="43.445322771360146" lon="11.902741484241815"><ele>403.0</ele><time>2026-04-11T06:40:51.74Z</time></trkpt><trkpt lat="43.445221560434256" lon="11.902725308365346"><ele>405.0</ele><time>2026-04-11T06:40:52.74Z</time></trkpt><trkpt lat="43.44513166422037" lon="11.902697834734315"><ele>407.0</ele><time>2026-04-11T06:40:53.739Z</time></trkpt><trkpt lat="43.445045057911706" lon="11.902694676068965"><ele>409.0</ele><time>2026-04-11T06:40:54.74Z</time></trkpt><trkpt lat="43.444978798949535" lon="11.902677599830502"><ele>409.0</ele><time>2026-04-11T06:40:55.739Z</time></trkpt><trkpt lat="43.44491513295659" lon="11.902608119186322"><ele>409.0</ele><time>2026-04-11T06:40:56.74Z</time></trkpt><trkpt lat="43.44481481950143" lon="11.902415623253422"><ele>409.0</ele><time>2026-04-11T06:40:58.74Z</time></trkpt><trkpt lat="43.44472952737344" lon="11.902397837756157"><ele>409.0</ele><time>2026-04-11T06:40:59.743Z</time></trkpt><trkpt lat="43.44461240725147" lon="11.902452243470723"><ele>408.25</ele><time>2026-04-11T06:41:00.74Z</time></trkpt><trkpt lat="43.4444976034646" lon="11.902493419201186"><ele>407.5</ele><time>2026-04-11T06:41:01.738Z</time></trkpt><trkpt lat="43.44438720328559" lon="11.902487935410726"><ele>406.75</ele><time>2026-04-11T06:41:02.738Z</time></trkpt><trkpt lat="43.44426492458683" lon="11.902430211711954"><ele>406.0</ele><time>2026-04-11T06:41:03.738Z</time></trkpt><trkpt lat="43.444156581078005" lon="11.902342599738985"><ele>406.0</ele><time>2026-04-11T06:41:04.738Z</time></trkpt><trkpt lat="43.44408147250863" lon="11.902246458099315"><ele>406.0</ele><time>2026-04-11T06:41:05.737Z</time></trkpt><trkpt lat="43.443985749829245" lon="11.902155636267173"><ele>406.0</ele><time>2026-04-11T06:41:06.737Z</time></trkpt><trkpt lat="43.44389160170174" lon="11.902038412230727"><ele>406.0</ele><time>2026-04-11T06:41:07.736Z</time></trkpt><trkpt lat="43.44380459153634" lon="11.90194065106837"><ele>407.0</ele><time>2026-04-11T06:41:08.738Z</time></trkpt><trkpt lat="43.44371981058905" lon="11.901834979438396"><ele>408.0</ele><time>2026-04-11T06:41:09.74Z</time></trkpt><trkpt lat="43.44363159041043" lon="11.901740350053243"><ele>409.0</ele><time>2026-04-11T06:41:10.738Z</time></trkpt><trkpt lat="43.44354283583341" lon="11.901650157637476"><ele>410.0</ele><time>2026-04-11T06:41:11.736Z</time></trkpt><trkpt lat="43.44346200445511" lon="11.901560318774264"><ele>411.0</ele><time>2026-04-11T06:41:12.738Z</time></trkpt><trkpt lat="43.443370745914066" lon="11.901458065269573"><ele>406.25</ele><time>2026-04-11T06:41:13.737Z</time></trkpt><trkpt lat="43.44328252911433" lon="11.90136232626134"><ele>401.5</ele><time>2026-04-11T06:41:14.738Z</time></trkpt><trkpt lat="43.443186773095775" lon="11.901277362429965"><ele>396.75</ele><time>2026-04-11T06:41:15.737Z</time></trkpt><trkpt lat="43.443083411502926" lon="11.901224415474616"><ele>392.0</ele><time>2026-04-11T06:41:16.738Z</time></trkpt><trkpt lat="43.44295430889004" lon="11.901202687840005"><ele>392.0</ele><time>2026-04-11T06:41:17.737Z</time></trkpt><trkpt lat="43.44270042655244" lon="11.90118851837725"><ele>392.0</ele><time>2026-04-11T06:41:19.733Z</time></trkpt><trkpt lat="43.44259141322784" lon="11.90116620736858"><ele>392.0</ele><time>2026-04-11T06:41:20.738Z</time></trkpt><trkpt lat="43.442479880799006" lon="11.901153645399898"><ele>392.0</ele><time>2026-04-11T06:41:21.737Z</time></trkpt><trkpt lat="43.442373965660224" lon="11.901165382812549"><ele>392.0</ele><time>2026-04-11T06:41:22.739Z</time></trkpt><trkpt lat="43.44227456654307" lon="11.901187213948486"><ele>392.0</ele><time>2026-04-11T06:41:23.737Z</time></trkpt><trkpt lat="43.442171974449174" lon="11.901183273296613"><ele>392.0</ele><time>2026-04-11T06:41:24.738Z</time></trkpt><trkpt lat="43.44207454818488" lon="11.901132613890509"><ele>392.0</ele><time>2026-04-11T06:41:25.738Z</time></trkpt><trkpt lat="43.44197815646765" lon="11.901052777741764"><ele>390.40000000000003</ele><time>2026-04-11T06:41:26.738Z</time></trkpt><trkpt lat="43.44191055170181" lon="11.900933992498596"><ele>388.8</ele><time>2026-04-11T06:41:27.731Z</time></trkpt><trkpt lat="43.44186073493961" lon="11.900837804900162"><ele>387.2</ele><time>2026-04-11T06:41:28.737Z</time></trkpt><trkpt lat="43.44178727139075" lon="11.90076760828367"><ele>385.6</ele><time>2026-04-11T06:41:29.736Z</time></trkpt><trkpt lat="43.44170198890918" lon="11.900721456226108"><ele>384.0</ele><time>2026-04-11T06:41:30.739Z</time></trkpt><trkpt lat="43.44161761174052" lon="11.90074550521144"><ele>384.0</ele><time>2026-04-11T06:41:31.738Z</time></trkpt><trkpt lat="43.44153738499201" lon="11.900829333335825"><ele>384.0</ele><time>2026-04-11T06:41:32.738Z</time></trkpt><trkpt lat="43.44147544986788" lon="11.900946071413731"><ele>384.0</ele><time>2026-04-11T06:41:33.74Z</time></trkpt><trkpt lat="43.44141620128296" lon="11.901049983614701"><ele>384.0</ele><time>2026-04-11T06:41:34.738Z</time></trkpt><trkpt lat="43.44133756347189" lon="11.901102378085822"><ele>384.0</ele><time>2026-04-11T06:41:35.737Z</time></trkpt><trkpt lat="43.44123630417349" lon="11.901100189417773"><ele>383.25</ele><time>2026-04-11T06:41:36.739Z</time></trkpt><trkpt lat="43.441147922019454" lon="11.901029637273703"><ele>382.5</ele><time>2026-04-11T06:41:37.737Z</time></trkpt><trkpt lat="43.44110290880361" lon="11.900930257319414"><ele>381.75</ele><time>2026-04-11T06:41:38.734Z</time></trkpt><trkpt lat="43.44112598788949" lon="11.900633264605807"><ele>381.0</ele><time>2026-04-11T06:41:40.738Z</time></trkpt><trkpt lat="43.441168166517215" lon="11.900487587666904"><ele>376.8</ele><time>2026-04-11T06:41:41.737Z</time></trkpt><trkpt lat="43.44121174218948" lon="11.900357352331477"><ele>372.6</ele><time>2026-04-11T06:41:42.738Z</time></trkpt><trkpt lat="43.441230508878064" lon="11.900215916169468"><ele>368.4</ele><time>2026-04-11T06:41:43.738Z</time></trkpt><trkpt lat="43.44124063190618" lon="11.900082058122225"><ele>364.2</ele><time>2026-04-11T06:41:44.738Z</time></trkpt><trkpt lat="43.441259296808155" lon="11.899946760105044"><ele>360.0</ele><time>2026-04-11T06:41:45.734Z</time></trkpt><trkpt lat="43.441293350459404" lon="11.899819146181063"><ele>356.8</ele><time>2026-04-11T06:41:46.739Z</time></trkpt><trkpt lat="43.44137115122008" lon="11.899714032587056"><ele>353.6</ele><time>2026-04-11T06:41:47.737Z</time></trkpt><trkpt lat="43.44146464502596" lon="11.899658423770543"><ele>350.4</ele><time>2026-04-11T06:41:48.738Z</time></trkpt><trkpt lat="43.44156774180792" lon="11.899655158261314"><ele>347.2</ele><time>2026-04-11T06:41:49.738Z</time></trkpt><trkpt lat="43.4416642976167" lon="11.899708048962204"><ele>344.0</ele><time>2026-04-11T06:41:50.739Z</time></trkpt><trkpt lat="43.44174103590076" lon="11.899790385134002"><ele>344.0</ele><time>2026-04-11T06:41:51.737Z</time></trkpt><trkpt lat="43.441849060530714" lon="11.899905752174162"><ele>344.0</ele><time>2026-04-11T06:41:52.739Z</time></trkpt><trkpt lat="43.44193879103078" lon="11.899982733625588"><ele>344.0</ele><time>2026-04-11T06:41:53.737Z</time></trkpt><trkpt lat="43.44202650310332" lon="11.90004016733762"><ele>344.0</ele><time>2026-04-11T06:41:54.738Z</time></trkpt><trkpt lat="43.442121461357466" lon="11.900041645757318"><ele>344.0</ele><time>2026-04-11T06:41:55.737Z</time></trkpt><trkpt lat="43.44221504824104" lon="11.900004779792154"><ele>343.5</ele><time>2026-04-11T06:41:56.739Z</time></trkpt><trkpt lat="43.442291382724854" lon="11.899912089809009"><ele>343.0</ele><time>2026-04-11T06:41:57.737Z</time></trkpt><trkpt lat="43.442344285732915" lon="11.899777781847833"><ele>342.5</ele><time>2026-04-11T06:41:58.737Z</time></trkpt><trkpt lat="43.44236906799913" lon="11.899632168044086"><ele>342.0</ele><time>2026-04-11T06:41:59.738Z</time></trkpt><trkpt lat="43.44231879032041" lon="11.899357425689624"><ele>339.40000000000003</ele><time>2026-04-11T06:42:01.737Z</time></trkpt><trkpt lat="43.44225272847719" lon="11.899238086042057"><ele>336.8</ele><time>2026-04-11T06:42:02.737Z</time></trkpt><trkpt lat="43.44219961547613" lon="11.899112913829528"><ele>334.2</ele><time>2026-04-11T06:42:03.732Z</time></trkpt><trkpt lat="43.4421587216367" lon="11.898991855624798"><ele>331.6</ele><time>2026-04-11T06:42:04.738Z</time></trkpt><trkpt lat="43.44211938539772" lon="11.898878045052635"><ele>329.0</ele><time>2026-04-11T06:42:05.738Z</time></trkpt><trkpt lat="43.44207611426704" lon="11.89876343731519"><ele>328.33333333333337</ele><time>2026-04-11T06:42:06.738Z</time></trkpt><trkpt lat="43.44204473949552" lon="11.898668158072596"><ele>327.6666666666667</ele><time>2026-04-11T06:42:07.737Z</time></trkpt><trkpt lat="43.44201269030323" lon="11.898585090097178"><ele>327.0</ele><time>2026-04-11T06:42:08.739Z</time></trkpt><trkpt lat="43.441961019168005" lon="11.898457390597384"><ele>326.3333333333333</ele><time>2026-04-11T06:42:10.74Z</time></trkpt><trkpt lat="43.44193227497716" lon="11.898365950953169"><ele>325.66666666666663</ele><time>2026-04-11T06:42:12.739Z</time></trkpt><trkpt lat="43.441861838703645" lon="11.898309582180008"><ele>325.0</ele><time>2026-04-11T06:42:19.738Z</time></trkpt><trkpt lat="43.441760536581405" lon="11.898413302101899"><ele>325.0</ele><time>2026-04-11T06:42:21.731Z</time></trkpt><trkpt lat="43.44163874274033" lon="11.898542310162409"><ele>325.0</ele><time>2026-04-11T06:42:23.738Z</time></trkpt><trkpt lat="43.44154685726059" lon="11.898623137185352"><ele>325.0</ele><time>2026-04-11T06:42:25.738Z</time></trkpt><trkpt lat="43.44142505608791" lon="11.898604751849252"><ele>325.0</ele><time>2026-04-11T06:42:27.738Z</time></trkpt><trkpt lat="43.44134080762427" lon="11.898544861651489"><ele>325.0</ele><time>2026-04-11T06:42:28.738Z</time></trkpt><trkpt lat="43.44126073639748" lon="11.898505933845101"><ele>325.0</ele><time>2026-04-11T06:42:29.738Z</time></trkpt><trkpt lat="43.441159082797725" lon="11.898481172910591"><ele>325.0</ele><time>2026-04-11T06:42:30.737Z</time></trkpt><trkpt lat="43.44107738185412" lon="11.898458336656844"><ele>325.0</ele><time>2026-04-11T06:42:31.736Z</time></trkpt><trkpt lat="43.44099418948526" lon="11.898434509957262"><ele>325.0</ele><time>2026-04-11T06:42:32.737Z</time></trkpt><trkpt lat="43.44090878345006" lon="11.89840597275618"><ele>325.0</ele><time>2026-04-11T06:42:33.737Z</time></trkpt><trkpt lat="43.44083400492767" lon="11.898382843830566"><ele>322.16666666666663</ele><time>2026-04-11T06:42:34.742Z</time></trkpt><trkpt lat="43.44076695237269" lon="11.898329450817709"><ele>319.3333333333333</ele><time>2026-04-11T06:42:35.737Z</time></trkpt><trkpt lat="43.44071355284383" lon="11.898254477313401"><ele>316.5</ele><time>2026-04-11T06:42:36.738Z</time></trkpt><trkpt lat="43.44068759542384" lon="11.898168217542882"><ele>313.6666666666667</ele><time>2026-04-11T06:42:37.737Z</time></trkpt><trkpt lat="43.44069042396822" lon="11.89805136631788"><ele>310.83333333333337</ele><time>2026-04-11T06:42:38.739Z</time></trkpt><trkpt lat="43.44070640913128" lon="11.89789523350913"><ele>308.0</ele><time>2026-04-11T06:42:39.731Z</time></trkpt><trkpt lat="43.440730600229614" lon="11.897766551495316"><ele>308.0</ele><time>2026-04-11T06:42:40.737Z</time></trkpt><trkpt lat="43.44074788805742" lon="11.897631050639195"><ele>308.0</ele><time>2026-04-11T06:42:41.736Z</time></trkpt><trkpt lat="43.4407440478285" lon="11.897496818017105"><ele>308.0</ele><time>2026-04-11T06:42:42.738Z</time></trkpt><trkpt lat="43.44071997713097" lon="11.897231231903877"><ele>308.0</ele><time>2026-04-11T06:42:44.739Z</time></trkpt><trkpt lat="43.44071236406358" lon="11.89711013161339"><ele>305.8</ele><time>2026-04-11T06:42:45.737Z</time></trkpt><trkpt lat="43.44070603040517" lon="11.896961705069735"><ele>303.6</ele><time>2026-04-11T06:42:46.739Z</time></trkpt><trkpt lat="43.440693961288225" lon="11.89679783816039"><ele>301.4</ele><time>2026-04-11T06:42:47.737Z</time></trkpt><trkpt lat="43.4406896722346" lon="11.896649751275577"><ele>299.2</ele><time>2026-04-11T06:42:48.738Z</time></trkpt><trkpt lat="43.44066448299798" lon="11.896515734150185"><ele>297.0</ele><time>2026-04-11T06:42:49.737Z</time></trkpt><trkpt lat="43.44061483551135" lon="11.896376609489634"><ele>295.75</ele><time>2026-04-11T06:42:50.738Z</time></trkpt><trkpt lat="43.440557401593175" lon="11.896219178078201"><ele>294.5</ele><time>2026-04-11T06:42:51.737Z</time></trkpt><trkpt lat="43.44049741630532" lon="11.896048607311903"><ele>293.25</ele><time>2026-04-11T06:42:52.74Z</time></trkpt><trkpt lat="43.44043729591831" lon="11.895875175377446"><ele>292.0</ele><time>2026-04-11T06:42:53.737Z</time></trkpt><trkpt lat="43.440380558675685" lon="11.895702367649989"><ele>290.25</ele><time>2026-04-11T06:42:54.737Z</time></trkpt><trkpt lat="43.44032480153688" lon="11.895536001566725"><ele>288.5</ele><time>2026-04-11T06:42:55.737Z</time></trkpt><trkpt lat="43.44027333341912" lon="11.895388970859436"><ele>286.75</ele><time>2026-04-11T06:42:56.739Z</time></trkpt><trkpt lat="43.44022976206815" lon="11.89525512040853"><ele>285.0</ele><time>2026-04-11T06:42:57.738Z</time></trkpt><trkpt lat="43.440184576828955" lon="11.895121643790773"><ele>284.2</ele><time>2026-04-11T06:42:58.738Z</time></trkpt><trkpt lat="43.44014062326497" lon="11.894989089142362"><ele>283.4</ele><time>2026-04-11T06:42:59.733Z</time></trkpt><trkpt lat="43.44009107903795" lon="11.894847197719443"><ele>282.6</ele><time>2026-04-11T06:43:00.739Z</time></trkpt><trkpt lat="43.440042082603746" lon="11.894709983346447"><ele>281.8</ele><time>2026-04-11T06:43:01.738Z</time></trkpt><trkpt lat="43.43999709756892" lon="11.894559393825645"><ele>281.0</ele><time>2026-04-11T06:43:02.74Z</time></trkpt><trkpt lat="43.43995477544307" lon="11.894411540575371"><ele>280.5</ele><time>2026-04-11T06:43:03.737Z</time></trkpt><trkpt lat="43.43985638209666" lon="11.894145013455566"><ele>280.0</ele><time>2026-04-11T06:43:05.738Z</time></trkpt><trkpt lat="43.439820981113996" lon="11.894021649665886"><ele>279.5</ele><time>2026-04-11T06:43:06.738Z</time></trkpt><trkpt lat="43.43978891641979" lon="11.89391827862718"><ele>279.0</ele><time>2026-04-11T06:43:07.738Z</time></trkpt><trkpt lat="43.4397581428701" lon="11.89382440219034"><ele>279.0</ele><time>2026-04-11T06:43:08.739Z</time></trkpt><trkpt lat="43.439734293928616" lon="11.893740844915147"><ele>279.0</ele><time>2026-04-11T06:43:09.739Z</time></trkpt><trkpt lat="43.43969800148232" lon="11.89361516227915"><ele>279.0</ele><time>2026-04-11T06:43:11.738Z</time></trkpt><trkpt lat="43.43967560453106" lon="11.89351724170036"><ele>279.0</ele><time>2026-04-11T06:43:14.739Z</time></trkpt><trkpt lat="43.439609194864225" lon="11.893456036148802"><ele>279.0</ele><time>2026-04-11T06:43:16.739Z</time></trkpt><trkpt lat="43.43951253277028" lon="11.893474400791577"><ele>279.0</ele><time>2026-04-11T06:43:17.737Z</time></trkpt><trkpt lat="43.43941563572862" lon="11.893512631691214"><ele>278.59999999999997</ele><time>2026-04-11T06:43:18.735Z</time></trkpt><trkpt lat="43.43932001905492" lon="11.89355455779064"><ele>278.2</ele><time>2026-04-11T06:43:19.737Z</time></trkpt><trkpt lat="43.43921179288479" lon="11.893580942306977"><ele>277.79999999999995</ele><time>2026-04-11T06:43:20.739Z</time></trkpt><trkpt lat="43.43909186730075" lon="11.893584517984252"><ele>277.4</ele><time>2026-04-11T06:43:21.738Z</time></trkpt><trkpt lat="43.43897393981493" lon="11.893583427574839"><ele>277.0</ele><time>2026-04-11T06:43:22.739Z</time></trkpt><trkpt lat="43.43884903261265" lon="11.893580617211024"><ele>276.66666666666663</ele><time>2026-04-11T06:43:23.738Z</time></trkpt><trkpt lat="43.43872622321481" lon="11.893582927573018"><ele>276.3333333333333</ele><time>2026-04-11T06:43:24.739Z</time></trkpt><trkpt lat="43.43847497531541" lon="11.893622122608011"><ele>276.0</ele><time>2026-04-11T06:43:26.739Z</time></trkpt><trkpt lat="43.43834868561954" lon="11.893640200962365"><ele>276.0</ele><time>2026-04-11T06:43:27.738Z</time></trkpt><trkpt lat="43.438211935714314" lon="11.893653971062362"><ele>276.0</ele><time>2026-04-11T06:43:28.741Z</time></trkpt><trkpt lat="43.43807379209889" lon="11.89365703704669"><ele>276.0</ele><time>2026-04-11T06:43:29.738Z</time></trkpt><trkpt lat="43.43793666321971" lon="11.893646154485577"><ele>276.0</ele><time>2026-04-11T06:43:30.739Z</time></trkpt><trkpt lat="43.43779470424143" lon="11.893612898008803"><ele>275.25</ele><time>2026-04-11T06:43:31.738Z</time></trkpt><trkpt lat="43.437652036991025" lon="11.893559723842731"><ele>274.5</ele><time>2026-04-11T06:43:32.739Z</time></trkpt><trkpt lat="43.437518272436776" lon="11.893488953676973"><ele>273.75</ele><time>2026-04-11T06:43:33.738Z</time></trkpt><trkpt lat="43.437384521728674" lon="11.893420165908603"><ele>273.0</ele><time>2026-04-11T06:43:34.739Z</time></trkpt><trkpt lat="43.43724363937816" lon="11.89336091218449"><ele>273.6666666666667</ele><time>2026-04-11T06:43:35.738Z</time></trkpt><trkpt lat="43.43710359296401" lon="11.89331530701841"><ele>274.33333333333337</ele><time>2026-04-11T06:43:36.74Z</time></trkpt><trkpt lat="43.43695297805184" lon="11.893283269069856"><ele>275.0</ele><time>2026-04-11T06:43:37.739Z</time></trkpt><trkpt lat="43.436799218794285" lon="11.893263864686025"><ele>275.0</ele><time>2026-04-11T06:43:38.739Z</time></trkpt><trkpt lat="43.436639862960014" lon="11.89325468633286"><ele>275.0</ele><time>2026-04-11T06:43:39.739Z</time></trkpt><trkpt lat="43.43647995126342" lon="11.893223873042679"><ele>275.0</ele><time>2026-04-11T06:43:40.739Z</time></trkpt><trkpt lat="43.43631756052353" lon="11.893189558382891"><ele>274.6666666666667</ele><time>2026-04-11T06:43:41.738Z</time></trkpt><trkpt lat="43.43616069713601" lon="11.893136316019934"><ele>274.3333333333333</ele><time>2026-04-11T06:43:42.739Z</time></trkpt><trkpt lat="43.436011341807905" lon="11.893070143577416"><ele>274.0</ele><time>2026-04-11T06:43:43.738Z</time></trkpt><trkpt lat="43.43586742013864" lon="11.893012011160312"><ele>274.0</ele><time>2026-04-11T06:43:44.74Z</time></trkpt><trkpt lat="43.435733004094104" lon="11.892959858975088"><ele>274.0</ele><time>2026-04-11T06:43:45.739Z</time></trkpt><trkpt lat="43.435453665363156" lon="11.892858965880627"><ele>274.0</ele><time>2026-04-11T06:43:47.739Z</time></trkpt><trkpt lat="43.435312527109986" lon="11.892807022342195"><ele>274.25</ele><time>2026-04-11T06:43:48.737Z</time></trkpt><trkpt lat="43.43517711333735" lon="11.892758475788561"><ele>274.5</ele><time>2026-04-11T06:43:49.739Z</time></trkpt><trkpt lat="43.435064049474086" lon="11.89271786307551"><ele>274.75</ele><time>2026-04-11T06:43:50.74Z</time></trkpt><trkpt lat="43.43495800885432" lon="11.89267815486686"><ele>275.0</ele><time>2026-04-11T06:43:51.739Z</time></trkpt><trkpt lat="43.43486011317149" lon="11.892643370843045"><ele>275.0</ele><time>2026-04-11T06:43:52.738Z</time></trkpt><trkpt lat="43.43477024436585" lon="11.892613991735779"><ele>275.0</ele><time>2026-04-11T06:43:53.738Z</time></trkpt><trkpt lat="43.43470173994724" lon="11.892597783096642"><ele>275.0</ele><time>2026-04-11T06:43:54.739Z</time></trkpt><trkpt lat="43.43464769236696" lon="11.892550783802474"><ele>275.0</ele><time>2026-04-11T06:43:55.737Z</time></trkpt><trkpt lat="43.434651522894434" lon="11.892458468084778"><ele>275.0</ele><time>2026-04-11T06:43:58.739Z</time></trkpt><trkpt lat="43.434729096259446" lon="11.892375128524614"><ele>275.0</ele><time>2026-04-11T06:44:00.74Z</time></trkpt><trkpt lat="43.43473590994685" lon="11.892235755094598"><ele>274.75</ele><time>2026-04-11T06:44:02.739Z</time></trkpt><trkpt lat="43.43467291501175" lon="11.892163859955286"><ele>274.5</ele><time>2026-04-11T06:44:03.738Z</time></trkpt><trkpt lat="43.43456907662608" lon="11.89209109355553"><ele>274.25</ele><time>2026-04-11T06:44:04.742Z</time></trkpt><trkpt lat="43.43445162901743" lon="11.891990163525923"><ele>274.0</ele><time>2026-04-11T06:44:05.739Z</time></trkpt><trkpt lat="43.43432071573046" lon="11.891875113624872"><ele>274.66666666666663</ele><time>2026-04-11T06:44:06.74Z</time></trkpt><trkpt lat="43.43406953816482" lon="11.891678980020535"><ele>275.3333333333333</ele><time>2026-04-11T06:44:08.741Z</time></trkpt><trkpt lat="43.43395389017216" lon="11.891601934885797"><ele>276.0</ele><time>2026-04-11T06:44:09.739Z</time></trkpt><trkpt lat="43.43385652574988" lon="11.89151343999921"><ele>276.1666666666667</ele><time>2026-04-11T06:44:10.74Z</time></trkpt><trkpt lat="43.43377726213841" lon="11.891441015865903"><ele>276.3333333333333</ele><time>2026-04-11T06:44:11.739Z</time></trkpt><trkpt lat="43.43370202207248" lon="11.891369068200778"><ele>276.5</ele><time>2026-04-11T06:44:12.74Z</time></trkpt><trkpt lat="43.433631447742464" lon="11.891305087587655"><ele>276.66666666666663</ele><time>2026-04-11T06:44:13.739Z</time></trkpt><trkpt lat="43.433561314665305" lon="11.891235032426488"><ele>276.8333333333333</ele><time>2026-04-11T06:44:14.739Z</time></trkpt><trkpt lat="43.43349987763332" lon="11.891161862644157"><ele>277.0</ele><time>2026-04-11T06:44:15.739Z</time></trkpt><trkpt lat="43.43343505039605" lon="11.891086044157381"><ele>277.0</ele><time>2026-04-11T06:44:16.741Z</time></trkpt><trkpt lat="43.433360753425774" lon="11.891003358495032"><ele>277.0</ele><time>2026-04-11T06:44:17.74Z</time></trkpt><trkpt lat="43.43327703480057" lon="11.890912225880164"><ele>277.0</ele><time>2026-04-11T06:44:18.74Z</time></trkpt><trkpt lat="43.43318744804628" lon="11.890806984951652"><ele>277.0</ele><time>2026-04-11T06:44:19.734Z</time></trkpt><trkpt lat="43.43308630546388" lon="11.890692338526488"><ele>277.5</ele><time>2026-04-11T06:44:20.741Z</time></trkpt><trkpt lat="43.43298000455514" lon="11.890590815875106"><ele>278.0</ele><time>2026-04-11T06:44:21.739Z</time></trkpt><trkpt lat="43.43287519647118" lon="11.890486032055573"><ele>278.5</ele><time>2026-04-11T06:44:22.735Z</time></trkpt><trkpt lat="43.432761830583054" lon="11.890387861318333"><ele>279.0</ele><time>2026-04-11T06:44:23.739Z</time></trkpt><trkpt lat="43.4326392835917" lon="11.890301276514483"><ele>279.25</ele><time>2026-04-11T06:44:24.74Z</time></trkpt><trkpt lat="43.43252117874767" lon="11.890209800663705"><ele>279.5</ele><time>2026-04-11T06:44:25.739Z</time></trkpt><trkpt lat="43.43239927271747" lon="11.890115997121928"><ele>279.75</ele><time>2026-04-11T06:44:26.74Z</time></trkpt><trkpt lat="43.432284677426125" lon="11.890019946006463"><ele>280.0</ele><time>2026-04-11T06:44:27.739Z</time></trkpt><trkpt lat="43.43210051835845" lon="11.889838552728538"><ele>279.8333333333333</ele><time>2026-04-11T06:44:29.739Z</time></trkpt><trkpt lat="43.43201991471186" lon="11.889757767085992"><ele>279.66666666666663</ele><time>2026-04-11T06:44:30.738Z</time></trkpt><trkpt lat="43.431950537591746" lon="11.889703450887254"><ele>279.5</ele><time>2026-04-11T06:44:31.738Z</time></trkpt><trkpt lat="43.43189662866143" lon="11.889641268264718"><ele>279.3333333333333</ele><time>2026-04-11T06:44:32.739Z</time></trkpt><trkpt lat="43.43187589326324" lon="11.889543143729863"><ele>279.1666666666667</ele><time>2026-04-11T06:44:33.738Z</time></trkpt><trkpt lat="43.4318964666459" lon="11.8893986499306"><ele>279.0</ele><time>2026-04-11T06:44:34.739Z</time></trkpt><trkpt lat="43.43193972195088" lon="11.889244818405684"><ele>279.0</ele><time>2026-04-11T06:44:35.737Z</time></trkpt><trkpt lat="43.43196583256198" lon="11.8890894919166"><ele>279.0</ele><time>2026-04-11T06:44:36.738Z</time></trkpt><trkpt lat="43.432001660294226" lon="11.888908388688549"><ele>279.0</ele><time>2026-04-11T06:44:37.738Z</time></trkpt><trkpt lat="43.4320378051736" lon="11.888717885206528"><ele>279.0</ele><time>2026-04-11T06:44:38.739Z</time></trkpt><trkpt lat="43.43208458651602" lon="11.88852534534555"><ele>278.5</ele><time>2026-04-11T06:44:39.736Z</time></trkpt><trkpt lat="43.43212863854607" lon="11.888336471661567"><ele>278.0</ele><time>2026-04-11T06:44:40.734Z</time></trkpt><trkpt lat="43.43217204907276" lon="11.888152742360022"><ele>277.5</ele><time>2026-04-11T06:44:41.738Z</time></trkpt><trkpt lat="43.43220753018569" lon="11.887981597662584"><ele>277.0</ele><time>2026-04-11T06:44:42.738Z</time></trkpt><trkpt lat="43.432236784499636" lon="11.887828698621904"><ele>276.6</ele><time>2026-04-11T06:44:43.739Z</time></trkpt><trkpt lat="43.43225774990939" lon="11.88768749056602"><ele>276.2</ele><time>2026-04-11T06:44:44.741Z</time></trkpt><trkpt lat="43.43226766372604" lon="11.887557666095152"><ele>275.8</ele><time>2026-04-11T06:44:45.739Z</time></trkpt><trkpt lat="43.43227549015417" lon="11.887438032545962"><ele>275.4</ele><time>2026-04-11T06:44:46.74Z</time></trkpt><trkpt lat="43.43228537375001" lon="11.887329584991459"><ele>275.0</ele><time>2026-04-11T06:44:47.739Z</time></trkpt><trkpt lat="43.43229102403829" lon="11.887213203139796"><ele>275.0</ele><time>2026-04-11T06:44:48.741Z</time></trkpt><trkpt lat="43.432299005828696" lon="11.886931300048314"><ele>275.0</ele><time>2026-04-11T06:44:50.74Z</time></trkpt><trkpt lat="43.432308964013046" lon="11.886785884467347"><ele>275.0</ele><time>2026-04-11T06:44:51.739Z</time></trkpt><trkpt lat="43.432326981518656" lon="11.886629934346116"><ele>275.0</ele><time>2026-04-11T06:44:52.74Z</time></trkpt><trkpt lat="43.43237456062948" lon="11.886485168571342"><ele>275.0</ele><time>2026-04-11T06:44:53.741Z</time></trkpt><trkpt lat="43.43244331567785" lon="11.886350972227962"><ele>275.0</ele><time>2026-04-11T06:44:54.739Z</time></trkpt><trkpt lat="43.43252048880347" lon="11.886224583688977"><ele>275.0</ele><time>2026-04-11T06:44:55.739Z</time></trkpt><trkpt lat="43.43258820044005" lon="11.886112483875788"><ele>275.0</ele><time>2026-04-11T06:44:56.74Z</time></trkpt><trkpt lat="43.432648970824246" lon="11.886006713022862"><ele>275.0</ele><time>2026-04-11T06:44:57.739Z</time></trkpt><trkpt lat="43.43270318482072" lon="11.885906582144687"><ele>275.2</ele><time>2026-04-11T06:44:58.734Z</time></trkpt><trkpt lat="43.43275828271688" lon="11.885805439419524"><ele>275.4</ele><time>2026-04-11T06:44:59.739Z</time></trkpt><trkpt lat="43.43281357708128" lon="11.885694977048267"><ele>275.6</ele><time>2026-04-11T06:45:00.739Z</time></trkpt><trkpt lat="43.43287428644566" lon="11.885569507304007"><ele>275.8</ele><time>2026-04-11T06:45:01.739Z</time></trkpt><trkpt lat="43.43293868128088" lon="11.885450124861952"><ele>276.0</ele><time>2026-04-11T06:45:02.739Z</time></trkpt><trkpt lat="43.43300589989014" lon="11.885337980862063"><ele>275.5</ele><time>2026-04-11T06:45:03.739Z</time></trkpt><trkpt lat="43.433074182111234" lon="11.885206116391808"><ele>275.0</ele><time>2026-04-11T06:45:04.74Z</time></trkpt><trkpt lat="43.433123241753776" lon="11.885058949528265"><ele>274.5</ele><time>2026-04-11T06:45:05.739Z</time></trkpt><trkpt lat="43.43314296980476" lon="11.884883096692944"><ele>274.0</ele><time>2026-04-11T06:45:06.742Z</time></trkpt><trkpt lat="43.43316151989982" lon="11.884705699511152"><ele>274.0</ele><time>2026-04-11T06:45:07.739Z</time></trkpt><trkpt lat="43.43320222894504" lon="11.884526652371722"><ele>274.0</ele><time>2026-04-11T06:45:08.739Z</time></trkpt><trkpt lat="43.43326371185062" lon="11.884352229160601"><ele>274.0</ele><time>2026-04-11T06:45:09.738Z</time></trkpt><trkpt lat="43.433367327669316" lon="11.88403254511997"><ele>273.8</ele><time>2026-04-11T06:45:11.738Z</time></trkpt><trkpt lat="43.4334070906243" lon="11.883890847628313"><ele>273.59999999999997</ele><time>2026-04-11T06:45:12.74Z</time></trkpt><trkpt lat="43.433444429088816" lon="11.883762774543214"><ele>273.4</ele><time>2026-04-11T06:45:13.739Z</time></trkpt><trkpt lat="43.43347647962918" lon="11.883630508439616"><ele>273.2</ele><time>2026-04-11T06:45:14.739Z</time></trkpt><trkpt lat="43.43351228433534" lon="11.883497210866059"><ele>273.0</ele><time>2026-04-11T06:45:15.739Z</time></trkpt><trkpt lat="43.43354070362404" lon="11.883380209776371"><ele>272.8</ele><time>2026-04-11T06:45:16.733Z</time></trkpt><trkpt lat="43.43357643627242" lon="11.88327056791627"><ele>272.6</ele><time>2026-04-11T06:45:17.739Z</time></trkpt><trkpt lat="43.433624086460625" lon="11.88317779917878"><ele>272.4</ele><time>2026-04-11T06:45:18.739Z</time></trkpt><trkpt lat="43.43367816898889" lon="11.883090201237216"><ele>272.2</ele><time>2026-04-11T06:45:19.738Z</time></trkpt><trkpt lat="43.43374013954916" lon="11.882966918844728"><ele>272.0</ele><time>2026-04-11T06:45:20.74Z</time></trkpt><trkpt lat="43.43379388216937" lon="11.882820990030995"><ele>271.6</ele><time>2026-04-11T06:45:21.74Z</time></trkpt><trkpt lat="43.433841652975055" lon="11.882686421763953"><ele>271.2</ele><time>2026-04-11T06:45:22.739Z</time></trkpt><trkpt lat="43.433886380061125" lon="11.882561783143448"><ele>270.8</ele><time>2026-04-11T06:45:23.738Z</time></trkpt><trkpt lat="43.43391488800412" lon="11.882422880983867"><ele>270.4</ele><time>2026-04-11T06:45:24.74Z</time></trkpt><trkpt lat="43.4339313136445" lon="11.88227936024239"><ele>270.0</ele><time>2026-04-11T06:45:25.738Z</time></trkpt><trkpt lat="43.43393461143159" lon="11.882147884972126"><ele>269.8</ele><time>2026-04-11T06:45:26.739Z</time></trkpt><trkpt lat="43.4339431858077" lon="11.882016583052657"><ele>269.6</ele><time>2026-04-11T06:45:27.738Z</time></trkpt><trkpt lat="43.43395053514802" lon="11.881886219385128"><ele>269.4</ele><time>2026-04-11T06:45:28.739Z</time></trkpt><trkpt lat="43.43396312892833" lon="11.8817529347659"><ele>269.2</ele><time>2026-04-11T06:45:29.746Z</time></trkpt><trkpt lat="43.433991203782156" lon="11.881612359541688"><ele>269.0</ele><time>2026-04-11T06:45:30.739Z</time></trkpt><trkpt lat="43.43404362485418" lon="11.881356934832159"><ele>269.0</ele><time>2026-04-11T06:45:32.74Z</time></trkpt><trkpt lat="43.434075456259755" lon="11.88122101981965"><ele>269.0</ele><time>2026-04-11T06:45:33.739Z</time></trkpt><trkpt lat="43.4341063069136" lon="11.881107981575745"><ele>269.0</ele><time>2026-04-11T06:45:34.741Z</time></trkpt><trkpt lat="43.43414016491113" lon="11.88100613059911"><ele>269.0</ele><time>2026-04-11T06:45:35.739Z</time></trkpt><trkpt lat="43.434165152078045" lon="11.8809223881532"><ele>269.0</ele><time>2026-04-11T06:45:36.738Z</time></trkpt><trkpt lat="43.434202442730125" lon="11.880778357412431"><ele>269.0</ele><time>2026-04-11T06:45:38.739Z</time></trkpt><trkpt lat="43.43424936330735" lon="11.880679635849331"><ele>269.0</ele><time>2026-04-11T06:45:40.739Z</time></trkpt><trkpt lat="43.43432789390812" lon="11.880559903351768"><ele>269.0</ele><time>2026-04-11T06:45:42.739Z</time></trkpt><trkpt lat="43.43438882586546" lon="11.880476235788512"><ele>269.0</ele><time>2026-04-11T06:45:43.738Z</time></trkpt><trkpt lat="43.434449215246296" lon="11.880370765220563"><ele>269.0</ele><time>2026-04-11T06:45:44.739Z</time></trkpt><trkpt lat="43.434502927712145" lon="11.880255152407013"><ele>269.0</ele><time>2026-04-11T06:45:45.739Z</time></trkpt><trkpt lat="43.43453349774571" lon="11.880115287866436"><ele>269.8</ele><time>2026-04-11T06:45:46.739Z</time></trkpt><trkpt lat="43.434547007099994" lon="11.879968323582577"><ele>270.59999999999997</ele><time>2026-04-11T06:45:47.74Z</time></trkpt><trkpt lat="43.43455064455779" lon="11.87981422314864"><ele>271.4</ele><time>2026-04-11T06:45:48.738Z</time></trkpt><trkpt lat="43.43455388390359" lon="11.879665302506885"><ele>272.2</ele><time>2026-04-11T06:45:49.74Z</time></trkpt><trkpt lat="43.43455516640045" lon="11.879524978826161"><ele>273.0</ele><time>2026-04-11T06:45:50.739Z</time></trkpt><trkpt lat="43.434543136716265" lon="11.879375325518158"><ele>275.25</ele><time>2026-04-11T06:45:51.738Z</time></trkpt><trkpt lat="43.43449887392249" lon="11.879081799321677"><ele>277.5</ele><time>2026-04-11T06:45:53.737Z</time></trkpt><trkpt lat="43.434483597449095" lon="11.878943644493724"><ele>279.75</ele><time>2026-04-11T06:45:54.738Z</time></trkpt><trkpt lat="43.43447149054052" lon="11.878819362573806"><ele>282.0</ele><time>2026-04-11T06:45:55.737Z</time></trkpt><trkpt lat="43.4344645601276" lon="11.878702354040787"><ele>282.0</ele><time>2026-04-11T06:45:56.739Z</time></trkpt><trkpt lat="43.434473742664494" lon="11.878564876047234"><ele>282.0</ele><time>2026-04-11T06:45:57.738Z</time></trkpt><trkpt lat="43.43448075811196" lon="11.878446487544739"><ele>282.0</ele><time>2026-04-11T06:45:58.738Z</time></trkpt><trkpt lat="43.43448869436946" lon="11.878317051586446"><ele>282.0</ele><time>2026-04-11T06:45:59.733Z</time></trkpt><trkpt lat="43.43449907925602" lon="11.878180020436638"><ele>282.0</ele><time>2026-04-11T06:46:00.74Z</time></trkpt><trkpt lat="43.43448792553516" lon="11.878039522070809"><ele>282.8</ele><time>2026-04-11T06:46:01.739Z</time></trkpt><trkpt lat="43.43447984695693" lon="11.877899322715448"><ele>283.6</ele><time>2026-04-11T06:46:02.739Z</time></trkpt><trkpt lat="43.434456555654194" lon="11.87775549447972"><ele>284.40000000000003</ele><time>2026-04-11T06:46:03.738Z</time></trkpt><trkpt lat="43.43443127017096" lon="11.877619872075442"><ele>285.2</ele><time>2026-04-11T06:46:04.738Z</time></trkpt><trkpt lat="43.434409419592285" lon="11.877474467601036"><ele>286.0</ele><time>2026-04-11T06:46:05.739Z</time></trkpt><trkpt lat="43.43438920006274" lon="11.877350148364638"><ele>286.6</ele><time>2026-04-11T06:46:06.737Z</time></trkpt><trkpt lat="43.434371360931806" lon="11.877234469727783"><ele>287.20000000000005</ele><time>2026-04-11T06:46:07.738Z</time></trkpt><trkpt lat="43.4343722223975" lon="11.877093229256614"><ele>287.79999999999995</ele><time>2026-04-11T06:46:08.739Z</time></trkpt><trkpt lat="43.43439176883678" lon="11.876963637374013"><ele>288.4</ele><time>2026-04-11T06:46:09.737Z</time></trkpt><trkpt lat="43.43445152680437" lon="11.876845371642766"><ele>289.0</ele><time>2026-04-11T06:46:10.738Z</time></trkpt><trkpt lat="43.4344993287551" lon="11.876720234979745"><ele>290.0</ele><time>2026-04-11T06:46:11.738Z</time></trkpt><trkpt lat="43.43454485857583" lon="11.876609536437979"><ele>291.0</ele><time>2026-04-11T06:46:12.739Z</time></trkpt><trkpt lat="43.43458255619233" lon="11.876404943803673"><ele>292.0</ele><time>2026-04-11T06:46:15.738Z</time></trkpt><trkpt lat="43.43447444630794" lon="11.876296770677898"><ele>293.0</ele><time>2026-04-11T06:46:17.737Z</time></trkpt><trkpt lat="43.43438027711605" lon="11.876256574320447"><ele>293.0</ele><time>2026-04-11T06:46:18.738Z</time></trkpt><trkpt lat="43.43430475250675" lon="11.876202376261835"><ele>293.0</ele><time>2026-04-11T06:46:19.734Z</time></trkpt><trkpt lat="43.434256315359015" lon="11.876114422820107"><ele>293.0</ele><time>2026-04-11T06:46:20.739Z</time></trkpt><trkpt lat="43.434204635843706" lon="11.876002095785141"><ele>293.0</ele><time>2026-04-11T06:46:21.737Z</time></trkpt><trkpt lat="43.434151430791005" lon="11.875877672377086"><ele>293.0</ele><time>2026-04-11T06:46:22.737Z</time></trkpt><trkpt lat="43.43408270224467" lon="11.875747615476074"><ele>293.5</ele><time>2026-04-11T06:46:23.737Z</time></trkpt><trkpt lat="43.43399259670791" lon="11.875619805347933"><ele>294.0</ele><time>2026-04-11T06:46:24.738Z</time></trkpt><trkpt lat="43.43389634883145" lon="11.875495919822074"><ele>294.5</ele><time>2026-04-11T06:46:25.737Z</time></trkpt><trkpt lat="43.433803347689356" lon="11.87537423421493"><ele>295.0</ele><time>2026-04-11T06:46:26.738Z</time></trkpt><trkpt lat="43.43371006313555" lon="11.875261431494225"><ele>293.25</ele><time>2026-04-11T06:46:27.737Z</time></trkpt><trkpt lat="43.43362176213923" lon="11.875152470083927"><ele>291.5</ele><time>2026-04-11T06:46:28.739Z</time></trkpt><trkpt lat="43.433532503800514" lon="11.875054561651291"><ele>289.75</ele><time>2026-04-11T06:46:29.738Z</time></trkpt><trkpt lat="43.4334129015073" lon="11.874982416339488"><ele>288.0</ele><time>2026-04-11T06:46:30.739Z</time></trkpt><trkpt lat="43.43326782047676" lon="11.87491973433484"><ele>288.0</ele><time>2026-04-11T06:46:31.738Z</time></trkpt><trkpt lat="43.433142096096205" lon="11.874856579908341"><ele>288.0</ele><time>2026-04-11T06:46:32.739Z</time></trkpt><trkpt lat="43.43303231995535" lon="11.874794265994325"><ele>288.0</ele><time>2026-04-11T06:46:33.742Z</time></trkpt><trkpt lat="43.43282632914233" lon="11.874653524360891"><ele>287.8</ele><time>2026-04-11T06:46:35.739Z</time></trkpt><trkpt lat="43.432751279171825" lon="11.87455263219377"><ele>287.6</ele><time>2026-04-11T06:46:36.74Z</time></trkpt><trkpt lat="43.432691419019946" lon="11.87445145272884"><ele>287.4</ele><time>2026-04-11T06:46:37.738Z</time></trkpt><trkpt lat="43.43264103757858" lon="11.874372278041427"><ele>287.2</ele><time>2026-04-11T06:46:38.735Z</time></trkpt><trkpt lat="43.43255571544757" lon="11.874269842083852"><ele>287.0</ele><time>2026-04-11T06:46:40.74Z</time></trkpt><trkpt lat="43.4324705298234" lon="11.874130042721799"><ele>286.0</ele><time>2026-04-11T06:46:42.74Z</time></trkpt><trkpt lat="43.432423618334056" lon="11.874042920490988"><ele>285.0</ele><time>2026-04-11T06:46:43.738Z</time></trkpt><trkpt lat="43.43237339907811" lon="11.873959660999608"><ele>284.0</ele><time>2026-04-11T06:46:44.739Z</time></trkpt><trkpt lat="43.43232340003885" lon="11.873864027173077"><ele>283.0</ele><time>2026-04-11T06:46:45.738Z</time></trkpt><trkpt lat="43.43227777868558" lon="11.87376589516005"><ele>282.0</ele><time>2026-04-11T06:46:46.739Z</time></trkpt><trkpt lat="43.432233317616586" lon="11.87366907562726"><ele>281.0</ele><time>2026-04-11T06:46:47.738Z</time></trkpt><trkpt lat="43.432187264367435" lon="11.87356308745868"><ele>281.2</ele><time>2026-04-11T06:46:48.739Z</time></trkpt><trkpt lat="43.432138905347344" lon="11.873459274894728"><ele>281.40000000000003</ele><time>2026-04-11T06:46:49.739Z</time></trkpt><trkpt lat="43.43209589759349" lon="11.873351063105703"><ele>281.6</ele><time>2026-04-11T06:46:50.739Z</time></trkpt><trkpt lat="43.43206453676494" lon="11.873233731987655"><ele>281.8</ele><time>2026-04-11T06:46:51.738Z</time></trkpt><trkpt lat="43.432047476171476" lon="11.873107845392708"><ele>282.0</ele><time>2026-04-11T06:46:52.739Z</time></trkpt><trkpt lat="43.432036775198675" lon="11.872961826157804"><ele>283.0</ele><time>2026-04-11T06:46:53.739Z</time></trkpt><trkpt lat="43.432039213128306" lon="11.872810484269234"><ele>284.0</ele><time>2026-04-11T06:46:54.739Z</time></trkpt><trkpt lat="43.43207913293935" lon="11.872497292748841"><ele>285.0</ele><time>2026-04-11T06:46:56.738Z</time></trkpt><trkpt lat="43.43211443254991" lon="11.872339172480704"><ele>285.0</ele><time>2026-04-11T06:46:57.738Z</time></trkpt><trkpt lat="43.43214174629359" lon="11.872183398777977"><ele>285.0</ele><time>2026-04-11T06:46:58.738Z</time></trkpt><trkpt lat="43.432168540907405" lon="11.872025867178554"><ele>285.0</ele><time>2026-04-11T06:46:59.739Z</time></trkpt><trkpt lat="43.43219088429391" lon="11.871864723407587"><ele>285.0</ele><time>2026-04-11T06:47:00.738Z</time></trkpt><trkpt lat="43.432210083560136" lon="11.871706576724051"><ele>285.0</ele><time>2026-04-11T06:47:01.738Z</time></trkpt><trkpt lat="43.43223011349846" lon="11.871549742115485"><ele>285.0</ele><time>2026-04-11T06:47:02.739Z</time></trkpt><trkpt lat="43.43227682756014" lon="11.871407064777594"><ele>285.0</ele><time>2026-04-11T06:47:03.739Z</time></trkpt><trkpt lat="43.43235773858806" lon="11.871275272527892"><ele>285.0</ele><time>2026-04-11T06:47:04.738Z</time></trkpt><trkpt lat="43.432461600576424" lon="11.87117332158529"><ele>285.0</ele><time>2026-04-11T06:47:05.738Z</time></trkpt><trkpt lat="43.43257425063585" lon="11.871090667544868"><ele>285.0</ele><time>2026-04-11T06:47:06.739Z</time></trkpt><trkpt lat="43.43268283257776" lon="11.871004820378607"><ele>285.0</ele><time>2026-04-11T06:47:07.738Z</time></trkpt><trkpt lat="43.43277513076971" lon="11.870907766619196"><ele>285.0</ele><time>2026-04-11T06:47:08.739Z</time></trkpt><trkpt lat="43.432866366931606" lon="11.870818293179623"><ele>285.1666666666667</ele><time>2026-04-11T06:47:09.738Z</time></trkpt><trkpt lat="43.4329356069285" lon="11.87073735894043"><ele>285.3333333333333</ele><time>2026-04-11T06:47:10.738Z</time></trkpt><trkpt lat="43.432983148567736" lon="11.870645236214557"><ele>285.5</ele><time>2026-04-11T06:47:11.738Z</time></trkpt><trkpt lat="43.43302407502889" lon="11.870550233695733"><ele>285.66666666666663</ele><time>2026-04-11T06:47:12.739Z</time></trkpt><trkpt lat="43.43299742002773" lon="11.870424370005692"><ele>285.8333333333333</ele><time>2026-04-11T06:47:14.738Z</time></trkpt><trkpt lat="43.43292216401652" lon="11.870390251160945"><ele>286.0</ele><time>2026-04-11T06:47:15.738Z</time></trkpt><trkpt lat="43.43274735948352" lon="11.870306926711246"><ele>287.40000000000003</ele><time>2026-04-11T06:47:17.732Z</time></trkpt><trkpt lat="43.432648634680824" lon="11.87025520551712"><ele>288.8</ele><time>2026-04-11T06:47:18.739Z</time></trkpt><trkpt lat="43.432549845976126" lon="11.870194943413093"><ele>290.20000000000005</ele><time>2026-04-11T06:47:19.738Z</time></trkpt><trkpt lat="43.43245855540536" lon="11.870135055857922"><ele>291.6</ele><time>2026-04-11T06:47:20.739Z</time></trkpt><trkpt lat="43.43237370966579" lon="11.87006200048239"><ele>293.0</ele><time>2026-04-11T06:47:21.739Z</time></trkpt><trkpt lat="43.432295677742715" lon="11.869961961623732"><ele>294.0</ele><time>2026-04-11T06:47:22.739Z</time></trkpt><trkpt lat="43.4322164536428" lon="11.86986654164182"><ele>295.0</ele><time>2026-04-11T06:47:23.739Z</time></trkpt><trkpt lat="43.43215288142366" lon="11.86978933705316"><ele>296.0</ele><time>2026-04-11T06:47:24.738Z</time></trkpt><trkpt lat="43.43211073858604" lon="11.869707891855075"><ele>297.0</ele><time>2026-04-11T06:47:25.738Z</time></trkpt><trkpt lat="43.432117630990824" lon="11.86961236541614"><ele>298.0</ele><time>2026-04-11T06:47:26.738Z</time></trkpt><trkpt lat="43.43215873497412" lon="11.869498604155792"><ele>299.0</ele><time>2026-04-11T06:47:27.738Z</time></trkpt><trkpt lat="43.43221161405095" lon="11.869356065856477"><ele>298.25</ele><time>2026-04-11T06:47:28.74Z</time></trkpt><trkpt lat="43.4322588370245" lon="11.869203938791431"><ele>297.5</ele><time>2026-04-11T06:47:29.74Z</time></trkpt><trkpt lat="43.432298014007884" lon="11.869046060732762"><ele>296.75</ele><time>2026-04-11T06:47:30.74Z</time></trkpt><trkpt lat="43.432338892252154" lon="11.868874280587411"><ele>296.0</ele><time>2026-04-11T06:47:31.74Z</time></trkpt><trkpt lat="43.432385769750915" lon="11.868696564818132"><ele>296.0</ele><time>2026-04-11T06:47:32.739Z</time></trkpt><trkpt lat="43.43244087275087" lon="11.868527687296197"><ele>296.0</ele><time>2026-04-11T06:47:33.738Z</time></trkpt><trkpt lat="43.43252004967327" lon="11.868351754151723"><ele>296.0</ele><time>2026-04-11T06:47:34.739Z</time></trkpt><trkpt lat="43.43259581545194" lon="11.868195935502495"><ele>296.0</ele><time>2026-04-11T06:47:35.735Z</time></trkpt><trkpt lat="43.43264965272119" lon="11.868050105305425"><ele>297.33333333333337</ele><time>2026-04-11T06:47:36.739Z</time></trkpt><trkpt lat="43.43269771475623" lon="11.867730043852005"><ele>298.6666666666667</ele><time>2026-04-11T06:47:38.739Z</time></trkpt><trkpt lat="43.432697954515234" lon="11.867563190498496"><ele>300.0</ele><time>2026-04-11T06:47:39.736Z</time></trkpt><trkpt lat="43.432675685750105" lon="11.867413075005164"><ele>300.8</ele><time>2026-04-11T06:47:40.739Z</time></trkpt><trkpt lat="43.43263702632553" lon="11.86726262243699"><ele>301.6</ele><time>2026-04-11T06:47:41.738Z</time></trkpt><trkpt lat="43.43258766895628" lon="11.867126560629488"><ele>302.4</ele><time>2026-04-11T06:47:42.739Z</time></trkpt><trkpt lat="43.43252617687465" lon="11.867003998280262"><ele>303.2</ele><time>2026-04-11T06:47:43.738Z</time></trkpt><trkpt lat="43.432474545157646" lon="11.866887765394477"><ele>304.0</ele><time>2026-04-11T06:47:44.739Z</time></trkpt><trkpt lat="43.432447484357645" lon="11.86676098410984"><ele>304.0</ele><time>2026-04-11T06:47:45.738Z</time></trkpt><trkpt lat="43.432449787668666" lon="11.86660734144355"><ele>304.0</ele><time>2026-04-11T06:47:46.739Z</time></trkpt><trkpt lat="43.43248132848073" lon="11.866465503449733"><ele>304.0</ele><time>2026-04-11T06:47:47.738Z</time></trkpt><trkpt lat="43.43254898001969" lon="11.866359225560434"><ele>304.0</ele><time>2026-04-11T06:47:48.738Z</time></trkpt><trkpt lat="43.43264480720645" lon="11.866262480927956"><ele>304.0</ele><time>2026-04-11T06:47:49.738Z</time></trkpt><trkpt lat="43.432755483036104" lon="11.866151879645312"><ele>304.0</ele><time>2026-04-11T06:47:50.739Z</time></trkpt><trkpt lat="43.43286543249927" lon="11.866028874017266"><ele>304.0</ele><time>2026-04-11T06:47:51.738Z</time></trkpt><trkpt lat="43.43296298834791" lon="11.865915043058777"><ele>304.0</ele><time>2026-04-11T06:47:52.739Z</time></trkpt><trkpt lat="43.43303527603525" lon="11.865794033110985"><ele>304.0</ele><time>2026-04-11T06:47:53.733Z</time></trkpt><trkpt lat="43.43308396708598" lon="11.865655408921915"><ele>304.0</ele><time>2026-04-11T06:47:54.738Z</time></trkpt><trkpt lat="43.43311963116026" lon="11.8654952259444"><ele>304.0</ele><time>2026-04-11T06:47:55.739Z</time></trkpt><trkpt lat="43.43317027705329" lon="11.865340481728108"><ele>304.0</ele><time>2026-04-11T06:47:56.739Z</time></trkpt><trkpt lat="43.43322469020116" lon="11.865214098210048"><ele>304.0</ele><time>2026-04-11T06:47:57.738Z</time></trkpt><trkpt lat="43.43335506300583" lon="11.865052504614834"><ele>304.0</ele><time>2026-04-11T06:47:59.735Z</time></trkpt><trkpt lat="43.43341370025475" lon="11.865005268310494"><ele>304.0</ele><time>2026-04-11T06:48:00.739Z</time></trkpt><trkpt lat="43.433513029839894" lon="11.864951366055216"><ele>304.0</ele><time>2026-04-11T06:48:02.739Z</time></trkpt><trkpt lat="43.433560740287376" lon="11.864891269411572"><ele>304.0</ele><time>2026-04-11T06:48:13.741Z</time></trkpt><trkpt lat="43.433513567324205" lon="11.86475050288259"><ele>304.0</ele><time>2026-04-11T06:48:17.738Z</time></trkpt><trkpt lat="43.43344102775817" lon="11.864655292316248"><ele>304.0</ele><time>2026-04-11T06:48:19.739Z</time></trkpt><trkpt lat="43.43342184245601" lon="11.864510418276778"><ele>304.0</ele><time>2026-04-11T06:48:25.738Z</time></trkpt><trkpt lat="43.43341498097255" lon="11.86441203068989"><ele>304.0</ele><time>2026-04-11T06:48:28.74Z</time></trkpt><trkpt lat="43.43337183385564" lon="11.864310251587982"><ele>304.0</ele><time>2026-04-11T06:48:30.738Z</time></trkpt><trkpt lat="43.43343749864227" lon="11.864194121532856"><ele>304.0</ele><time>2026-04-11T06:48:35.739Z</time></trkpt><trkpt lat="43.43345733336334" lon="11.864088408395904"><ele>306.16666666666663</ele><time>2026-04-11T06:48:37.738Z</time></trkpt><trkpt lat="43.43339424432597" lon="11.864045524065535"><ele>308.3333333333333</ele><time>2026-04-11T06:48:39.741Z</time></trkpt><trkpt lat="43.43330103772167" lon="11.86400211987574"><ele>310.5</ele><time>2026-04-11T06:48:41.74Z</time></trkpt><trkpt lat="43.43338628215717" lon="11.863846306353171"><ele>312.6666666666667</ele><time>2026-04-11T06:48:46.74Z</time></trkpt><trkpt lat="43.43340993295833" lon="11.863758343757192"><ele>314.83333333333337</ele><time>2026-04-11T06:48:49.738Z</time></trkpt><trkpt lat="43.43339350827067" lon="11.863666595530999"><ele>317.0</ele><time>2026-04-11T06:48:52.741Z</time></trkpt><trkpt lat="43.43337839510792" lon="11.863544276518642"><ele>317.0</ele><time>2026-04-11T06:48:54.738Z</time></trkpt><trkpt lat="43.43333374536414" lon="11.86347546511632"><ele>317.0</ele><time>2026-04-11T06:48:57.739Z</time></trkpt><trkpt lat="43.433286793726545" lon="11.863337635448277"><ele>317.0</ele><time>2026-04-11T06:49:00.738Z</time></trkpt><trkpt lat="43.43324660079877" lon="11.863181940565902"><ele>317.0</ele><time>2026-04-11T06:49:02.739Z</time></trkpt><trkpt lat="43.433270991201965" lon="11.862924438606544"><ele>320.2</ele><time>2026-04-11T06:49:15.738Z</time></trkpt><trkpt lat="43.43325500995795" lon="11.862776445670823"><ele>323.4</ele><time>2026-04-11T06:49:17.737Z</time></trkpt><trkpt lat="43.43324486324459" lon="11.862668463215071"><ele>326.59999999999997</ele><time>2026-04-11T06:49:18.738Z</time></trkpt><trkpt lat="43.433226733144295" lon="11.862519963833737"><ele>329.79999999999995</ele><time>2026-04-11T06:49:20.737Z</time></trkpt><trkpt lat="43.43323723342486" lon="11.862400226870045"><ele>333.0</ele><time>2026-04-11T06:49:22.739Z</time></trkpt><trkpt lat="43.433231021098564" lon="11.862305551159238"><ele>335.0</ele><time>2026-04-11T06:49:24.738Z</time></trkpt><trkpt lat="43.43322166592251" lon="11.86205191978998"><ele>337.0</ele><time>2026-04-11T06:49:31.736Z</time></trkpt><trkpt lat="43.433232582998855" lon="11.86192801319424"><ele>339.0</ele><time>2026-04-11T06:49:33.738Z</time></trkpt><trkpt lat="43.43322785148981" lon="11.861836396515326"><ele>341.0</ele><time>2026-04-11T06:49:35.738Z</time></trkpt><trkpt lat="43.43323442238366" lon="11.861733702051017"><ele>343.0</ele><time>2026-04-11T06:49:37.738Z</time></trkpt><trkpt lat="43.433241124871614" lon="11.861603498734128"><ele>344.79999999999995</ele><time>2026-04-11T06:49:40.738Z</time></trkpt><trkpt lat="43.43324026097004" lon="11.861485442994296"><ele>346.6</ele><time>2026-04-11T06:49:42.738Z</time></trkpt><trkpt lat="43.43323191487535" lon="11.861393079610982"><ele>348.4</ele><time>2026-04-11T06:49:45.739Z</time></trkpt><trkpt lat="43.43321883291012" lon="11.861174231780527"><ele>350.20000000000005</ele><time>2026-04-11T06:49:48.738Z</time></trkpt><trkpt lat="43.433183356350305" lon="11.8610291214335"><ele>352.0</ele><time>2026-04-11T06:49:50.738Z</time></trkpt><trkpt lat="43.433142357911514" lon="11.86092029701222"><ele>353.20000000000005</ele><time>2026-04-11T06:49:52.739Z</time></trkpt><trkpt lat="43.43307681164259" lon="11.8608028570341"><ele>354.4</ele><time>2026-04-11T06:49:54.742Z</time></trkpt><trkpt lat="43.43302537209276" lon="11.860703191677297"><ele>355.6</ele><time>2026-04-11T06:49:56.739Z</time></trkpt><trkpt lat="43.43296350338357" lon="11.860577339932249"><ele>356.79999999999995</ele><time>2026-04-11T06:49:58.735Z</time></trkpt><trkpt lat="43.43293292635627" lon="11.860475127159539"><ele>358.0</ele><time>2026-04-11T06:50:00.739Z</time></trkpt><trkpt lat="43.43296699471043" lon="11.860369347276098"><ele>363.5</ele><time>2026-04-11T06:50:02.739Z</time></trkpt><trkpt lat="43.43285890334565" lon="11.860300146582981"><ele>369.0</ele><time>2026-04-11T06:50:38.739Z</time></trkpt><trkpt lat="43.43270475206269" lon="11.860250354433235"><ele>374.5</ele><time>2026-04-11T06:50:40.738Z</time></trkpt><trkpt lat="43.43260086193175" lon="11.860211780427088"><ele>380.0</ele><time>2026-04-11T06:50:41.737Z</time></trkpt><trkpt lat="43.43251201950949" lon="11.860194258574527"><ele>380.0</ele><time>2026-04-11T06:50:42.738Z</time></trkpt><trkpt lat="43.432410229894" lon="11.860163340365158"><ele>380.0</ele><time>2026-04-11T06:50:43.737Z</time></trkpt><trkpt lat="43.432310010815286" lon="11.860141256849117"><ele>380.0</ele><time>2026-04-11T06:50:44.737Z</time></trkpt><trkpt lat="43.432202894972384" lon="11.860099578488308"><ele>380.0</ele><time>2026-04-11T06:50:45.739Z</time></trkpt><trkpt lat="43.43208431637509" lon="11.860061216853483"><ele>380.0</ele><time>2026-04-11T06:50:46.737Z</time></trkpt><trkpt lat="43.431978144714094" lon="11.860020009422565"><ele>380.25</ele><time>2026-04-11T06:50:47.736Z</time></trkpt><trkpt lat="43.43187804130459" lon="11.85996025779678"><ele>380.5</ele><time>2026-04-11T06:50:48.738Z</time></trkpt><trkpt lat="43.43177897416177" lon="11.85988167177798"><ele>380.75</ele><time>2026-04-11T06:50:49.737Z</time></trkpt><trkpt lat="43.43167640628525" lon="11.85980093862928"><ele>381.0</ele><time>2026-04-11T06:50:50.737Z</time></trkpt><trkpt lat="43.43157694246142" lon="11.859715056888783"><ele>381.0</ele><time>2026-04-11T06:50:51.737Z</time></trkpt><trkpt lat="43.43146338240246" lon="11.859651700610597"><ele>381.0</ele><time>2026-04-11T06:50:52.737Z</time></trkpt><trkpt lat="43.43135289010446" lon="11.859603999825204"><ele>381.0</ele><time>2026-04-11T06:50:53.737Z</time></trkpt><trkpt lat="43.43124154510963" lon="11.859579545259178"><ele>381.0</ele><time>2026-04-11T06:50:54.737Z</time></trkpt><trkpt lat="43.431131044069154" lon="11.85956277035768"><ele>383.8</ele><time>2026-04-11T06:50:55.736Z</time></trkpt><trkpt lat="43.431006390815156" lon="11.859546553306892"><ele>386.6</ele><time>2026-04-11T06:50:56.738Z</time></trkpt><trkpt lat="43.43091605301934" lon="11.859493562975882"><ele>389.4</ele><time>2026-04-11T06:50:57.737Z</time></trkpt><trkpt lat="43.43085640802675" lon="11.859416243209093"><ele>392.2</ele><time>2026-04-11T06:50:58.738Z</time></trkpt><trkpt lat="43.430803666613635" lon="11.859368898277694"><ele>395.0</ele><time>2026-04-11T06:50:59.734Z</time></trkpt><trkpt lat="43.430711430672346" lon="11.859509732117196"><ele>395.0</ele><time>2026-04-11T06:51:03.737Z</time></trkpt><trkpt lat="43.430777594241846" lon="11.859608195837989"><ele>395.0</ele><time>2026-04-11T06:51:04.736Z</time></trkpt><trkpt lat="43.43085709150151" lon="11.859701574910885"><ele>395.0</ele><time>2026-04-11T06:51:05.737Z</time></trkpt><trkpt lat="43.430935833512464" lon="11.859818325328709"><ele>395.0</ele><time>2026-04-11T06:51:06.738Z</time></trkpt><trkpt lat="43.43101471938118" lon="11.85994206160672"><ele>395.0</ele><time>2026-04-11T06:51:07.738Z</time></trkpt><trkpt lat="43.431083987875624" lon="11.860062659801088"><ele>395.5</ele><time>2026-04-11T06:51:08.739Z</time></trkpt><trkpt lat="43.43115490852393" lon="11.8601817239127"><ele>396.0</ele><time>2026-04-11T06:51:09.737Z</time></trkpt><trkpt lat="43.43124128399527" lon="11.860312760135526"><ele>396.5</ele><time>2026-04-11T06:51:10.736Z</time></trkpt><trkpt lat="43.43132611608168" lon="11.86045313413783"><ele>397.0</ele><time>2026-04-11T06:51:11.737Z</time></trkpt><trkpt lat="43.43142094218009" lon="11.860579104034922"><ele>397.0</ele><time>2026-04-11T06:51:12.737Z</time></trkpt><trkpt lat="43.431530630172084" lon="11.86067712381535"><ele>397.0</ele><time>2026-04-11T06:51:13.736Z</time></trkpt><trkpt lat="43.43164961086446" lon="11.860775713745232"><ele>397.0</ele><time>2026-04-11T06:51:14.738Z</time></trkpt><trkpt lat="43.431747209500934" lon="11.860853509915902"><ele>397.0</ele><time>2026-04-11T06:51:15.736Z</time></trkpt><trkpt lat="43.4318549689205" lon="11.860906819019936"><ele>398.40000000000003</ele><time>2026-04-11T06:51:16.738Z</time></trkpt><trkpt lat="43.43193507665808" lon="11.860966062462143"><ele>399.8</ele><time>2026-04-11T06:51:17.737Z</time></trkpt><trkpt lat="43.431986859884454" lon="11.861047496550619"><ele>401.2</ele><time>2026-04-11T06:51:18.737Z</time></trkpt><trkpt lat="43.43201139632555" lon="11.861153972757393"><ele>402.6</ele><time>2026-04-11T06:51:19.733Z</time></trkpt><trkpt lat="43.43199238438139" lon="11.861264876288343"><ele>404.0</ele><time>2026-04-11T06:51:20.737Z</time></trkpt><trkpt lat="43.43187169998088" lon="11.861326814072592"><ele>404.0</ele><time>2026-04-11T06:51:22.738Z</time></trkpt><trkpt lat="43.431793036476016" lon="11.861312004182473"><ele>404.0</ele><time>2026-04-11T06:51:23.737Z</time></trkpt><trkpt lat="43.431714876640456" lon="11.861317976180194"><ele>404.0</ele><time>2026-04-11T06:51:24.74Z</time></trkpt><trkpt lat="43.431643593579246" lon="11.861383375761031"><ele>404.0</ele><time>2026-04-11T06:51:25.738Z</time></trkpt><trkpt lat="43.43157345501604" lon="11.861493874691002"><ele>404.0</ele><time>2026-04-11T06:51:26.738Z</time></trkpt><trkpt lat="43.43150049440956" lon="11.86160762737731"><ele>404.0</ele><time>2026-04-11T06:51:27.738Z</time></trkpt><trkpt lat="43.43141448110465" lon="11.861731913566452"><ele>404.0</ele><time>2026-04-11T06:51:28.739Z</time></trkpt><trkpt lat="43.43133721826006" lon="11.86185715362583"><ele>404.0</ele><time>2026-04-11T06:51:29.738Z</time></trkpt><trkpt lat="43.43126025433649" lon="11.86197151027455"><ele>404.0</ele><time>2026-04-11T06:51:30.737Z</time></trkpt><trkpt lat="43.431176854625946" lon="11.862060697547468"><ele>405.75</ele><time>2026-04-11T06:51:31.738Z</time></trkpt><trkpt lat="43.43108217256222" lon="11.862132343990332"><ele>407.5</ele><time>2026-04-11T06:51:32.738Z</time></trkpt><trkpt lat="43.43098570349961" lon="11.862191630954896"><ele>409.25</ele><time>2026-04-11T06:51:33.742Z</time></trkpt><trkpt lat="43.43086565462967" lon="11.862234228427724"><ele>411.0</ele><time>2026-04-11T06:51:34.739Z</time></trkpt><trkpt lat="43.43074799572896" lon="11.86228716865429"><ele>411.0</ele><time>2026-04-11T06:51:35.739Z</time></trkpt><trkpt lat="43.43062833897852" lon="11.862337869710085"><ele>411.0</ele><time>2026-04-11T06:51:36.737Z</time></trkpt><trkpt lat="43.43050362525467" lon="11.862368857024375"><ele>411.0</ele><time>2026-04-11T06:51:37.739Z</time></trkpt><trkpt lat="43.430378042408364" lon="11.862373257369416"><ele>411.0</ele><time>2026-04-11T06:51:38.733Z</time></trkpt><trkpt lat="43.43024383654127" lon="11.862383986659605"><ele>416.33333333333337</ele><time>2026-04-11T06:51:39.736Z</time></trkpt><trkpt lat="43.430116220340985" lon="11.862412781055165"><ele>421.6666666666667</ele><time>2026-04-11T06:51:40.737Z</time></trkpt><trkpt lat="43.42999140395769" lon="11.862453188173028"><ele>427.0</ele><time>2026-04-11T06:51:41.737Z</time></trkpt><trkpt lat="43.42976664409891" lon="11.862594172023318"><ele>425.8</ele><time>2026-04-11T06:51:43.737Z</time></trkpt><trkpt lat="43.4296395538551" lon="11.862652595345471"><ele>424.6</ele><time>2026-04-11T06:51:44.739Z</time></trkpt><trkpt lat="43.42953899602206" lon="11.862678061412103"><ele>423.40000000000003</ele><time>2026-04-11T06:51:45.736Z</time></trkpt><trkpt lat="43.4294339027339" lon="11.86265821363193"><ele>422.20000000000005</ele><time>2026-04-11T06:51:46.738Z</time></trkpt><trkpt lat="43.42933755248363" lon="11.862594998426495"><ele>421.0</ele><time>2026-04-11T06:51:47.737Z</time></trkpt><trkpt lat="43.42922649189569" lon="11.862531349692807"><ele>425.0</ele><time>2026-04-11T06:51:48.738Z</time></trkpt><trkpt lat="43.42910882471687" lon="11.862496717582884"><ele>429.0</ele><time>2026-04-11T06:51:49.738Z</time></trkpt><trkpt lat="43.42897846128302" lon="11.862476698890998"><ele>433.0</ele><time>2026-04-11T06:51:50.737Z</time></trkpt><trkpt lat="43.4288506826315" lon="11.862452538723462"><ele>437.0</ele><time>2026-04-11T06:51:51.738Z</time></trkpt><trkpt lat="43.428714609948194" lon="11.862428259619678"><ele>439.0</ele><time>2026-04-11T06:51:52.738Z</time></trkpt><trkpt lat="43.428577825362794" lon="11.86240955518473"><ele>441.0</ele><time>2026-04-11T06:51:53.738Z</time></trkpt><trkpt lat="43.42844952800556" lon="11.8624054840941"><ele>443.0</ele><time>2026-04-11T06:51:54.737Z</time></trkpt><trkpt lat="43.42833446916395" lon="11.862418855010672"><ele>445.0</ele><time>2026-04-11T06:51:55.742Z</time></trkpt><trkpt lat="43.42821166052073" lon="11.862456857184526"><ele>445.0</ele><time>2026-04-11T06:51:56.738Z</time></trkpt><trkpt lat="43.42810261795873" lon="11.862531245789816"><ele>445.0</ele><time>2026-04-11T06:51:57.738Z</time></trkpt><trkpt lat="43.42801053359327" lon="11.862631315618788"><ele>445.0</ele><time>2026-04-11T06:51:58.739Z</time></trkpt><trkpt lat="43.42791671082932" lon="11.862754552487196"><ele>445.0</ele><time>2026-04-11T06:51:59.74Z</time></trkpt><trkpt lat="43.427842983184846" lon="11.862873579019466"><ele>448.33333333333337</ele><time>2026-04-11T06:52:00.738Z</time></trkpt><trkpt lat="43.42772757717098" lon="11.862975980940469"><ele>451.66666666666663</ele><time>2026-04-11T06:52:01.739Z</time></trkpt><trkpt lat="43.42760389419401" lon="11.863041323308922"><ele>455.0</ele><time>2026-04-11T06:52:02.739Z</time></trkpt><trkpt lat="43.42738619319806" lon="11.863280784711618"><ele>455.0</ele><time>2026-04-11T06:52:04.738Z</time></trkpt><trkpt lat="43.427293057685" lon="11.863435032593229"><ele>455.0</ele><time>2026-04-11T06:52:05.739Z</time></trkpt><trkpt lat="43.42720138535821" lon="11.863577939742132"><ele>455.0</ele><time>2026-04-11T06:52:06.738Z</time></trkpt><trkpt lat="43.42710065281109" lon="11.86370706899047"><ele>455.0</ele><time>2026-04-11T06:52:07.737Z</time></trkpt><trkpt lat="43.42700522142356" lon="11.863808873064142"><ele>456.6</ele><time>2026-04-11T06:52:08.737Z</time></trkpt><trkpt lat="43.42692283864106" lon="11.863849522618766"><ele>458.2</ele><time>2026-04-11T06:52:09.737Z</time></trkpt><trkpt lat="43.426835702087956" lon="11.863820615038458"><ele>459.79999999999995</ele><time>2026-04-11T06:52:10.738Z</time></trkpt><trkpt lat="43.42673963173778" lon="11.86380379394147"><ele>461.4</ele><time>2026-04-11T06:52:11.738Z</time></trkpt><trkpt lat="43.42660958339222" lon="11.863845128879275"><ele>463.0</ele><time>2026-04-11T06:52:12.737Z</time></trkpt><trkpt lat="43.42654132046265" lon="11.863905349518378"><ele>463.0</ele><time>2026-04-11T06:52:13.739Z</time></trkpt><trkpt lat="43.42650691762941" lon="11.864012249477147"><ele>462.99999999999994</ele><time>2026-04-11T06:52:14.738Z</time></trkpt><trkpt lat="43.42648602074566" lon="11.864134747277697"><ele>462.99999999999994</ele><time>2026-04-11T06:52:15.738Z</time></trkpt><trkpt lat="43.42646970759665" lon="11.864274947238995"><ele>463.0</ele><time>2026-04-11T06:52:16.738Z</time></trkpt><trkpt lat="43.4264504453157" lon="11.864413459719982"><ele>463.0</ele><time>2026-04-11T06:52:17.739Z</time></trkpt><trkpt lat="43.42642587648664" lon="11.864531813704229"><ele>464.0</ele><time>2026-04-11T06:52:18.739Z</time></trkpt><trkpt lat="43.426400658704274" lon="11.864642088863107"><ele>464.99999999999994</ele><time>2026-04-11T06:52:19.737Z</time></trkpt><trkpt lat="43.42635083717574" lon="11.86474434210683"><ele>465.99999999999994</ele><time>2026-04-11T06:52:20.738Z</time></trkpt><trkpt lat="43.42628474591792" lon="11.864834883004518"><ele>467.0</ele><time>2026-04-11T06:52:21.737Z</time></trkpt><trkpt lat="43.426202468375145" lon="11.864928393753326"><ele>468.0</ele><time>2026-04-11T06:52:22.737Z</time></trkpt><trkpt lat="43.426112511230166" lon="11.864987557294745"><ele>468.0</ele><time>2026-04-11T06:52:23.737Z</time></trkpt><trkpt lat="43.425913231286344" lon="11.865087752109137"><ele>468.0</ele><time>2026-04-11T06:52:25.737Z</time></trkpt><trkpt lat="43.425816063913395" lon="11.865134744369684"><ele>468.0</ele><time>2026-04-11T06:52:26.738Z</time></trkpt><trkpt lat="43.425718161793824" lon="11.865205149819003"><ele>468.0</ele><time>2026-04-11T06:52:27.737Z</time></trkpt><trkpt lat="43.42563643816683" lon="11.865308698960556"><ele>469.79999999999995</ele><time>2026-04-11T06:52:28.738Z</time></trkpt><trkpt lat="43.425592778858736" lon="11.865466198063361"><ele>471.59999999999997</ele><time>2026-04-11T06:52:30.736Z</time></trkpt><trkpt lat="43.425602084228835" lon="11.865573833850656"><ele>473.40000000000003</ele><time>2026-04-11T06:52:31.739Z</time></trkpt><trkpt lat="43.42562589603274" lon="11.865682204299018"><ele>475.20000000000005</ele><time>2026-04-11T06:52:32.737Z</time></trkpt><trkpt lat="43.4256508068924" lon="11.865776014738847"><ele>477.0</ele><time>2026-04-11T06:52:33.737Z</time></trkpt><trkpt lat="43.425558242877386" lon="11.865907741263644"><ele>477.8</ele><time>2026-04-11T06:52:35.738Z</time></trkpt><trkpt lat="43.425457373290115" lon="11.865955380497285"><ele>478.6</ele><time>2026-04-11T06:52:36.738Z</time></trkpt><trkpt lat="43.425349290201645" lon="11.866025123056403"><ele>479.40000000000003</ele><time>2026-04-11T06:52:37.738Z</time></trkpt><trkpt lat="43.42524108845052" lon="11.866085615777768"><ele>480.20000000000005</ele><time>2026-04-11T06:52:38.739Z</time></trkpt><trkpt lat="43.42515815891777" lon="11.866144598986395"><ele>481.0</ele><time>2026-04-11T06:52:39.734Z</time></trkpt><trkpt lat="43.42512816877194" lon="11.866239421899062"><ele>481.0</ele><time>2026-04-11T06:52:40.738Z</time></trkpt><trkpt lat="43.4251137411875" lon="11.866344785995759"><ele>481.0</ele><time>2026-04-11T06:52:41.738Z</time></trkpt><trkpt lat="43.425104761083844" lon="11.866481385685372"><ele>481.0</ele><time>2026-04-11T06:52:42.739Z</time></trkpt><trkpt lat="43.42506384243585" lon="11.866611903537562"><ele>481.0</ele><time>2026-04-11T06:52:43.739Z</time></trkpt><trkpt lat="43.42501375623522" lon="11.866717141012328"><ele>481.0</ele><time>2026-04-11T06:52:44.739Z</time></trkpt><trkpt lat="43.42487742698419" lon="11.866889147776272"><ele>482.25</ele><time>2026-04-11T06:52:46.739Z</time></trkpt><trkpt lat="43.42479512601758" lon="11.866961488450613"><ele>483.5</ele><time>2026-04-11T06:52:47.737Z</time></trkpt><trkpt lat="43.424686707830645" lon="11.866997592880043"><ele>484.75</ele><time>2026-04-11T06:52:48.738Z</time></trkpt><trkpt lat="43.42457709356998" lon="11.867013243585623"><ele>486.0</ele><time>2026-04-11T06:52:49.731Z</time></trkpt><trkpt lat="43.424441567630105" lon="11.86704669856491"><ele>486.0</ele><time>2026-04-11T06:52:50.736Z</time></trkpt><trkpt lat="43.42431106720038" lon="11.867108181107938"><ele>486.0</ele><time>2026-04-11T06:52:51.738Z</time></trkpt><trkpt lat="43.42417812880035" lon="11.867189617319408"><ele>486.0</ele><time>2026-04-11T06:52:52.736Z</time></trkpt><trkpt lat="43.42404254276881" lon="11.867291721667316"><ele>486.0</ele><time>2026-04-11T06:52:53.736Z</time></trkpt><trkpt lat="43.42391817308778" lon="11.867388771539916"><ele>486.5</ele><time>2026-04-11T06:52:54.738Z</time></trkpt><trkpt lat="43.42380866350546" lon="11.867496425737338"><ele>487.0</ele><time>2026-04-11T06:52:55.738Z</time></trkpt><trkpt lat="43.423713890254874" lon="11.867604614237212"><ele>487.5</ele><time>2026-04-11T06:52:56.738Z</time></trkpt><trkpt lat="43.42362309761845" lon="11.867697111091546"><ele>488.0</ele><time>2026-04-11T06:52:57.737Z</time></trkpt><trkpt lat="43.423512446892154" lon="11.867797510656226"><ele>488.0</ele><time>2026-04-11T06:52:58.737Z</time></trkpt><trkpt lat="43.42339968249189" lon="11.86790544812491"><ele>487.99999999999994</ele><time>2026-04-11T06:52:59.734Z</time></trkpt><trkpt lat="43.423299698057235" lon="11.867988740545272"><ele>487.99999999999994</ele><time>2026-04-11T06:53:00.739Z</time></trkpt><trkpt lat="43.42320882037211" lon="11.86800371034083"><ele>488.0</ele><time>2026-04-11T06:53:01.738Z</time></trkpt><trkpt lat="43.42313460889726" lon="11.867975331514474"><ele>488.0</ele><time>2026-04-11T06:53:02.737Z</time></trkpt><trkpt lat="43.42307594305176" lon="11.867939711002549"><ele>488.0</ele><time>2026-04-11T06:53:03.737Z</time></trkpt><trkpt lat="43.42300266198634" lon="11.86789372671667"><ele>488.0</ele><time>2026-04-11T06:53:05.737Z</time></trkpt><trkpt lat="43.42289099366818" lon="11.868223502287128"><ele>488.0</ele><time>2026-04-11T06:53:24.739Z</time></trkpt><trkpt lat="43.42285055647938" lon="11.868297351110556"><ele>488.0</ele><time>2026-04-11T06:53:25.734Z</time></trkpt><trkpt lat="43.42282742646273" lon="11.868392408784988"><ele>492.4</ele><time>2026-04-11T06:53:26.739Z</time></trkpt><trkpt lat="43.42280826442621" lon="11.868584579523132"><ele>496.79999999999995</ele><time>2026-04-11T06:53:28.738Z</time></trkpt><trkpt lat="43.42279283853274" lon="11.868684834634035"><ele>501.2</ele><time>2026-04-11T06:53:29.736Z</time></trkpt><trkpt lat="43.42277125720138" lon="11.868789947064185"><ele>505.6</ele><time>2026-04-11T06:53:30.738Z</time></trkpt><trkpt lat="43.4227252640352" lon="11.868906470110486"><ele>510.0</ele><time>2026-04-11T06:53:31.739Z</time></trkpt><trkpt lat="43.42268975544433" lon="11.868983123884307"><ele>510.0</ele><time>2026-04-11T06:53:32.737Z</time></trkpt><trkpt lat="43.42264851267958" lon="11.86910036332116"><ele>510.0</ele><time>2026-04-11T06:53:33.737Z</time></trkpt><trkpt lat="43.42261459692754" lon="11.869221939308659"><ele>510.0</ele><time>2026-04-11T06:53:34.737Z</time></trkpt><trkpt lat="43.4225944426707" lon="11.869339025401258"><ele>510.0</ele><time>2026-04-11T06:53:35.737Z</time></trkpt><trkpt lat="43.42256949937569" lon="11.869435469794105"><ele>510.0</ele><time>2026-04-11T06:53:36.737Z</time></trkpt><trkpt lat="43.42254557340839" lon="11.869547411005627"><ele>510.0</ele><time>2026-04-11T06:53:37.737Z</time></trkpt><trkpt lat="43.42251400840913" lon="11.8696227862831"><ele>510.1666666666667</ele><time>2026-04-11T06:53:38.733Z</time></trkpt><trkpt lat="43.42246860757088" lon="11.869716147996758"><ele>510.33333333333337</ele><time>2026-04-11T06:53:39.738Z</time></trkpt><trkpt lat="43.422421955345435" lon="11.86981153384421"><ele>510.5</ele><time>2026-04-11T06:53:40.738Z</time></trkpt><trkpt lat="43.42238724011478" lon="11.8699147934803"><ele>510.6666666666667</ele><time>2026-04-11T06:53:41.737Z</time></trkpt><trkpt lat="43.42236077176988" lon="11.870040051324287"><ele>510.83333333333337</ele><time>2026-04-11T06:53:42.737Z</time></trkpt><trkpt lat="43.422319383775914" lon="11.870136154088474"><ele>511.0</ele><time>2026-04-11T06:53:43.731Z</time></trkpt><trkpt lat="43.42225082845287" lon="11.870221390319243"><ele>508.0</ele><time>2026-04-11T06:53:44.737Z</time></trkpt><trkpt lat="43.42219100464889" lon="11.870249449332142"><ele>505.0</ele><time>2026-04-11T06:53:45.737Z</time></trkpt><trkpt lat="43.42206634033682" lon="11.870300851261119"><ele>502.0</ele><time>2026-04-11T06:53:47.737Z</time></trkpt><trkpt lat="43.421910193298906" lon="11.870316505276286"><ele>499.0</ele><time>2026-04-11T06:53:49.736Z</time></trkpt><trkpt lat="43.42183269683199" lon="11.87033916356017"><ele>496.0</ele><time>2026-04-11T06:53:50.737Z</time></trkpt><trkpt lat="43.421784001383514" lon="11.870436839061297"><ele>502.6</ele><time>2026-04-11T06:53:52.737Z</time></trkpt><trkpt lat="43.421783078261385" lon="11.870534880586517"><ele>509.20000000000005</ele><time>2026-04-11T06:53:53.738Z</time></trkpt><trkpt lat="43.421782440955816" lon="11.870651120077353"><ele>515.8</ele><time>2026-04-11T06:53:54.738Z</time></trkpt><trkpt lat="43.42181313471044" lon="11.870767097322453"><ele>522.4</ele><time>2026-04-11T06:53:55.739Z</time></trkpt><trkpt lat="43.421867114684424" lon="11.870869566014727"><ele>529.0</ele><time>2026-04-11T06:53:56.74Z</time></trkpt><trkpt lat="43.421915656686664" lon="11.871018539337046"><ele>529.0</ele><time>2026-04-11T06:53:57.738Z</time></trkpt><trkpt lat="43.42196252254605" lon="11.871152318069278"><ele>529.0</ele><time>2026-04-11T06:53:58.737Z</time></trkpt><trkpt lat="43.42198663622502" lon="11.871300986456097"><ele>529.0</ele><time>2026-04-11T06:53:59.737Z</time></trkpt><trkpt lat="43.42201154935502" lon="11.87143105838882"><ele>529.0</ele><time>2026-04-11T06:54:00.738Z</time></trkpt><trkpt lat="43.42201849195023" lon="11.871549989413706"><ele>529.0</ele><time>2026-04-11T06:54:01.738Z</time></trkpt><trkpt lat="43.42203635567821" lon="11.87166088326573"><ele>529.0</ele><time>2026-04-11T06:54:02.738Z</time></trkpt><trkpt lat="43.422022727441394" lon="11.871766609052989"><ele>529.0</ele><time>2026-04-11T06:54:03.737Z</time></trkpt><trkpt lat="43.42200401260089" lon="11.87189030876697"><ele>529.0</ele><time>2026-04-11T06:54:04.738Z</time></trkpt><trkpt lat="43.42199857435396" lon="11.871994059889706"><ele>529.0</ele><time>2026-04-11T06:54:05.737Z</time></trkpt><trkpt lat="43.422010530927416" lon="11.872113993618658"><ele>529.0</ele><time>2026-04-11T06:54:06.738Z</time></trkpt><trkpt lat="43.42197282231615" lon="11.872276004024133"><ele>525.75</ele><time>2026-04-11T06:54:08.738Z</time></trkpt><trkpt lat="43.42183110128848" lon="11.872414217245563"><ele>522.5</ele><time>2026-04-11T06:54:10.738Z</time></trkpt><trkpt lat="43.421739159296095" lon="11.872470153630205"><ele>519.25</ele><time>2026-04-11T06:54:11.737Z</time></trkpt><trkpt lat="43.42160336243487" lon="11.872532580425618"><ele>516.0</ele><time>2026-04-11T06:54:12.737Z</time></trkpt><trkpt lat="43.42150921258272" lon="11.872573046013533"><ele>514.2</ele><time>2026-04-11T06:54:13.736Z</time></trkpt><trkpt lat="43.42143114575865" lon="11.87263195216382"><ele>512.4000000000001</ele><time>2026-04-11T06:54:14.739Z</time></trkpt><trkpt lat="43.42134655554143" lon="11.872691628439178"><ele>510.6</ele><time>2026-04-11T06:54:15.736Z</time></trkpt><trkpt lat="43.421253046746074" lon="11.872653694491797"><ele>508.8</ele><time>2026-04-11T06:54:17.737Z</time></trkpt><trkpt lat="43.421139152753376" lon="11.872747997939834"><ele>507.0</ele><time>2026-04-11T06:54:19.734Z</time></trkpt><trkpt lat="43.42106200837726" lon="11.872787667613592"><ele>507.0</ele><time>2026-04-11T06:54:20.737Z</time></trkpt><trkpt lat="43.42100006805668" lon="11.872824872608602"><ele>507.0</ele><time>2026-04-11T06:54:21.738Z</time></trkpt><trkpt lat="43.42093281127836" lon="11.872847172292508"><ele>507.0</ele><time>2026-04-11T06:54:22.737Z</time></trkpt><trkpt lat="43.42084967793013" lon="11.87286675935168"><ele>507.0</ele><time>2026-04-11T06:54:23.737Z</time></trkpt><trkpt lat="43.42076534747672" lon="11.872876253558195"><ele>507.0</ele><time>2026-04-11T06:54:24.738Z</time></trkpt><trkpt lat="43.4206756631175" lon="11.872853859674413"><ele>507.0</ele><time>2026-04-11T06:54:25.736Z</time></trkpt><trkpt lat="43.420585794914736" lon="11.872879917309028"><ele>507.0</ele><time>2026-04-11T06:54:27.736Z</time></trkpt><trkpt lat="43.42052006044883" lon="11.87293369929045"><ele>507.00000000000006</ele><time>2026-04-11T06:54:31.737Z</time></trkpt><trkpt lat="43.42045762809391" lon="11.872945514094006"><ele>507.00000000000006</ele><time>2026-04-11T06:54:37.737Z</time></trkpt><trkpt lat="43.42038165436032" lon="11.87296412563236"><ele>507.0</ele><time>2026-04-11T06:54:40.737Z</time></trkpt><trkpt lat="43.4202370484329" lon="11.873077767538934"><ele>507.0</ele><time>2026-04-11T06:54:43.735Z</time></trkpt><trkpt lat="43.42010645079779" lon="11.873126671061902"><ele>507.3333333333333</ele><time>2026-04-11T06:54:45.736Z</time></trkpt><trkpt lat="43.42004486781944" lon="11.87315599067547"><ele>507.66666666666663</ele><time>2026-04-11T06:54:46.737Z</time></trkpt><trkpt lat="43.419959673731185" lon="11.873199085193173"><ele>508.0</ele><time>2026-04-11T06:54:47.735Z</time></trkpt><trkpt lat="43.419872515333225" lon="11.873235985597312"><ele>508.3333333333333</ele><time>2026-04-11T06:54:48.737Z</time></trkpt><trkpt lat="43.419805706007786" lon="11.87324224462548"><ele>508.66666666666663</ele><time>2026-04-11T06:54:49.736Z</time></trkpt><trkpt lat="43.41972919184056" lon="11.87322525525177"><ele>509.0</ele><time>2026-04-11T06:54:50.738Z</time></trkpt><trkpt lat="43.41965477228821" lon="11.873203734531483"><ele>509.79999999999995</ele><time>2026-04-11T06:54:51.736Z</time></trkpt><trkpt lat="43.419581800008096" lon="11.873176008868526"><ele>510.59999999999997</ele><time>2026-04-11T06:54:52.736Z</time></trkpt><trkpt lat="43.41950056525534" lon="11.87311395205058"><ele>511.4</ele><time>2026-04-11T06:54:53.738Z</time></trkpt><trkpt lat="43.41938317431182" lon="11.873208107891177"><ele>512.1999999999999</ele><time>2026-04-11T06:54:55.734Z</time></trkpt><trkpt lat="43.419325205457085" lon="11.873292358146776"><ele>513.0</ele><time>2026-04-11T06:54:56.736Z</time></trkpt><trkpt lat="43.41926273128708" lon="11.873382291106452"><ele>508.25</ele><time>2026-04-11T06:54:57.736Z</time></trkpt><trkpt lat="43.41918334196231" lon="11.873470755941403"><ele>503.5</ele><time>2026-04-11T06:54:59.737Z</time></trkpt><trkpt lat="43.419103370909994" lon="11.873495829498076"><ele>498.75</ele><time>2026-04-11T06:55:00.737Z</time></trkpt><trkpt lat="43.418969217010805" lon="11.873486410065645"><ele>494.0</ele><time>2026-04-11T06:55:02.738Z</time></trkpt><trkpt lat="43.41883380910633" lon="11.873582485299602"><ele>495.99999999999994</ele><time>2026-04-11T06:55:04.738Z</time></trkpt><trkpt lat="43.4187701640246" lon="11.873611809447167"><ele>498.0</ele><time>2026-04-11T06:55:05.737Z</time></trkpt><trkpt lat="43.41868864113816" lon="11.87362223432282"><ele>500.0</ele><time>2026-04-11T06:55:06.737Z</time></trkpt><trkpt lat="43.418610470285806" lon="11.873596877897835"><ele>502.0</ele><time>2026-04-11T06:55:07.736Z</time></trkpt><trkpt lat="43.41853481680093" lon="11.873543953873902"><ele>503.99999999999994</ele><time>2026-04-11T06:55:08.737Z</time></trkpt><trkpt lat="43.41842189375482" lon="11.87352639927409"><ele>506.0</ele><time>2026-04-11T06:55:09.737Z</time></trkpt><trkpt lat="43.41833432989926" lon="11.87351947273831"><ele>505.99999999999994</ele><time>2026-04-11T06:55:10.737Z</time></trkpt><trkpt lat="43.418268938487834" lon="11.873494484075724"><ele>506.0</ele><time>2026-04-11T06:55:11.736Z</time></trkpt><trkpt lat="43.4182233547868" lon="11.873590637834479"><ele>506.0</ele><time>2026-04-11T06:55:14.737Z</time></trkpt><trkpt lat="43.41821171467424" lon="11.873688675484193"><ele>506.0</ele><time>2026-04-11T06:55:15.736Z</time></trkpt><trkpt lat="43.41817668952122" lon="11.873772186671534"><ele>505.99999999999994</ele><time>2026-04-11T06:55:16.738Z</time></trkpt><trkpt lat="43.418147798484505" lon="11.87388137701351"><ele>506.0</ele><time>2026-04-11T06:55:17.737Z</time></trkpt><trkpt lat="43.41814096216403" lon="11.874007060142416"><ele>505.99999999999994</ele><time>2026-04-11T06:55:18.737Z</time></trkpt><trkpt lat="43.41813469562031" lon="11.874116602220237"><ele>506.0</ele><time>2026-04-11T06:55:19.736Z</time></trkpt><trkpt lat="43.418139971957" lon="11.874210188254501"><ele>506.0</ele><time>2026-04-11T06:55:20.737Z</time></trkpt><trkpt lat="43.418120835438124" lon="11.87431641602329"><ele>506.0</ele><time>2026-04-11T06:55:21.737Z</time></trkpt><trkpt lat="43.41809776375054" lon="11.874422801526839"><ele>505.99999999999994</ele><time>2026-04-11T06:55:22.738Z</time></trkpt><trkpt lat="43.41803564547881" lon="11.874545789462237"><ele>506.0</ele><time>2026-04-11T06:55:24.738Z</time></trkpt><trkpt lat="43.41784983168307" lon="11.874627249023764"><ele>507.20000000000005</ele><time>2026-04-11T06:55:26.737Z</time></trkpt><trkpt lat="43.41772913780418" lon="11.874725533492029"><ele>508.40000000000003</ele><time>2026-04-11T06:55:27.736Z</time></trkpt><trkpt lat="43.41763899366644" lon="11.874781226149342"><ele>509.6</ele><time>2026-04-11T06:55:28.738Z</time></trkpt><trkpt lat="43.41757816683993" lon="11.874804015763187"><ele>510.8</ele><time>2026-04-11T06:55:29.737Z</time></trkpt><trkpt lat="43.41749930673844" lon="11.87477977828787"><ele>512.0</ele><time>2026-04-11T06:55:32.737Z</time></trkpt><trkpt lat="43.41738411344409" lon="11.874749002697321"><ele>511.99999999999994</ele><time>2026-04-11T06:55:35.736Z</time></trkpt><trkpt lat="43.41727512072084" lon="11.874794626637946"><ele>512.0</ele><time>2026-04-11T06:55:37.736Z</time></trkpt><trkpt lat="43.41721672806112" lon="11.874848515308114"><ele>512.0</ele><time>2026-04-11T06:55:38.737Z</time></trkpt><trkpt lat="43.41714309328002" lon="11.874820496600737"><ele>512.0</ele><time>2026-04-11T06:55:40.738Z</time></trkpt><trkpt lat="43.41707876910065" lon="11.874789111216733"><ele>511.99999999999994</ele><time>2026-04-11T06:55:41.737Z</time></trkpt><trkpt lat="43.416963192974386" lon="11.874762998626808"><ele>512.0</ele><time>2026-04-11T06:55:43.737Z</time></trkpt><trkpt lat="43.41687402312529" lon="11.874768956310772"><ele>516.5</ele><time>2026-04-11T06:55:44.735Z</time></trkpt><trkpt lat="43.416791478129" lon="11.874793793485027"><ele>521.0</ele><time>2026-04-11T06:55:45.736Z</time></trkpt><trkpt lat="43.41664671095396" lon="11.874731854051653"><ele>525.5</ele><time>2026-04-11T06:55:48.737Z</time></trkpt><trkpt lat="43.41658249630988" lon="11.874843868969604"><ele>530.0</ele><time>2026-04-11T06:55:51.737Z</time></trkpt><trkpt lat="43.4165274410589" lon="11.875007973418452"><ele>530.0</ele><time>2026-04-11T06:55:53.736Z</time></trkpt><trkpt lat="43.416467664517455" lon="11.875058016194583"><ele>530.0</ele><time>2026-04-11T06:55:54.738Z</time></trkpt><trkpt lat="43.41638901043453" lon="11.875080021177556"><ele>530.0</ele><time>2026-04-11T06:55:55.737Z</time></trkpt><trkpt lat="43.416315651053296" lon="11.875056135654155"><ele>530.0</ele><time>2026-04-11T06:55:56.737Z</time></trkpt><trkpt lat="43.41623188164744" lon="11.875021951513734"><ele>530.0</ele><time>2026-04-11T06:55:57.737Z</time></trkpt><trkpt lat="43.41613268313016" lon="11.875016846725519"><ele>530.0</ele><time>2026-04-11T06:55:58.737Z</time></trkpt><trkpt lat="43.416063118064656" lon="11.87502111685214"><ele>530.0</ele><time>2026-04-11T06:55:59.732Z</time></trkpt><trkpt lat="43.41596469113" lon="11.875130266649471"><ele>530.0</ele><time>2026-04-11T06:56:01.736Z</time></trkpt><trkpt lat="43.41594959286902" lon="11.875235939241389"><ele>530.0</ele><time>2026-04-11T06:56:02.733Z</time></trkpt><trkpt lat="43.41591569096118" lon="11.875321399091389"><ele>530.0</ele><time>2026-04-11T06:56:03.737Z</time></trkpt><trkpt lat="43.41586689141703" lon="11.875415537468275"><ele>530.0</ele><time>2026-04-11T06:56:04.737Z</time></trkpt><trkpt lat="43.41583513338963" lon="11.875508643923919"><ele>530.0</ele><time>2026-04-11T06:56:05.737Z</time></trkpt><trkpt lat="43.415796123796824" lon="11.875584536252527"><ele>530.0</ele><time>2026-04-11T06:56:06.737Z</time></trkpt><trkpt lat="43.41570964265917" lon="11.875730261200262"><ele>530.0</ele><time>2026-04-11T06:56:08.737Z</time></trkpt><trkpt lat="43.41567495603373" lon="11.87581969955545"><ele>530.0</ele><time>2026-04-11T06:56:10.738Z</time></trkpt><trkpt lat="43.4156495692582" lon="11.875901378623942"><ele>530.0</ele><time>2026-04-11T06:56:11.737Z</time></trkpt><trkpt lat="43.41557532156043" lon="11.87599303119623"><ele>530.0</ele><time>2026-04-11T06:56:13.737Z</time></trkpt><trkpt lat="43.415506751550915" lon="11.876026195510052"><ele>530.0</ele><time>2026-04-11T06:56:14.736Z</time></trkpt><trkpt lat="43.4154178954881" lon="11.876051051590716"><ele>533.6666666666666</ele><time>2026-04-11T06:56:15.735Z</time></trkpt><trkpt lat="43.41536034693738" lon="11.876109554404415"><ele>537.3333333333333</ele><time>2026-04-11T06:56:16.737Z</time></trkpt><trkpt lat="43.41525631597113" lon="11.876122186036294"><ele>541.0</ele><time>2026-04-11T06:56:18.737Z</time></trkpt><trkpt lat="43.415175548720654" lon="11.876089013646377"><ele>544.6666666666666</ele><time>2026-04-11T06:56:19.732Z</time></trkpt><trkpt lat="43.415103699202696" lon="11.876065266840248"><ele>548.3333333333334</ele><time>2026-04-11T06:56:20.732Z</time></trkpt><trkpt lat="43.41501754896719" lon="11.87603925804364"><ele>552.0</ele><time>2026-04-11T06:56:22.736Z</time></trkpt><trkpt lat="43.414979523335816" lon="11.8761394587078"><ele>552.0</ele><time>2026-04-11T06:56:25.736Z</time></trkpt><trkpt lat="43.415057492194435" lon="11.876217362322345"><ele>552.0</ele><time>2026-04-11T06:56:27.737Z</time></trkpt><trkpt lat="43.415147443747244" lon="11.876512339050539"><ele>552.0</ele><time>2026-04-11T06:56:30.737Z</time></trkpt><trkpt lat="43.415178349037454" lon="11.876611359582466"><ele>552.0</ele><time>2026-04-11T06:56:31.737Z</time></trkpt><trkpt lat="43.41523159746478" lon="11.876691557262715"><ele>552.0</ele><time>2026-04-11T06:56:32.737Z</time></trkpt><trkpt lat="43.415273869786056" lon="11.87676812958276"><ele>552.0</ele><time>2026-04-11T06:56:33.739Z</time></trkpt><trkpt lat="43.41534749792681" lon="11.876785168369016"><ele>552.0</ele><time>2026-04-11T06:56:34.739Z</time></trkpt><trkpt lat="43.41542639960468" lon="11.876804325090026"><ele>552.0</ele><time>2026-04-11T06:56:35.736Z</time></trkpt><trkpt lat="43.415507213468175" lon="11.876862611676659"><ele>552.0</ele><time>2026-04-11T06:56:36.737Z</time></trkpt><trkpt lat="43.41557801962604" lon="11.876932299677566"><ele>552.0</ele><time>2026-04-11T06:56:37.736Z</time></trkpt><trkpt lat="43.415655927638774" lon="11.877038067716919"><ele>551.8333333333334</ele><time>2026-04-11T06:56:39.737Z</time></trkpt><trkpt lat="43.41568045503646" lon="11.877134324720862"><ele>551.6666666666666</ele><time>2026-04-11T06:56:40.737Z</time></trkpt><trkpt lat="43.415696239767115" lon="11.877242374875419"><ele>551.5</ele><time>2026-04-11T06:56:41.736Z</time></trkpt><trkpt lat="43.4157146457987" lon="11.877352979754297"><ele>551.3333333333333</ele><time>2026-04-11T06:56:42.737Z</time></trkpt><trkpt lat="43.41574672496348" lon="11.877450804837483"><ele>551.1666666666666</ele><time>2026-04-11T06:56:43.737Z</time></trkpt><trkpt lat="43.41578142737223" lon="11.87759623892393"><ele>551.0</ele><time>2026-04-11T06:56:45.736Z</time></trkpt><trkpt lat="43.41583607774045" lon="11.877645817384868"><ele>551.0</ele><time>2026-04-11T06:56:46.738Z</time></trkpt><trkpt lat="43.41590172496687" lon="11.877734355624542"><ele>551.0</ele><time>2026-04-11T06:56:47.737Z</time></trkpt><trkpt lat="43.415995308898395" lon="11.877859679191337"><ele>551.0</ele><time>2026-04-11T06:56:48.737Z</time></trkpt><trkpt lat="43.41618065243658" lon="11.878108540281284"><ele>551.0</ele><time>2026-04-11T06:56:50.737Z</time></trkpt><trkpt lat="43.416256780526176" lon="11.878203977355065"><ele>551.0</ele><time>2026-04-11T06:56:51.738Z</time></trkpt><trkpt lat="43.416345939647876" lon="11.87833791640121"><ele>551.0</ele><time>2026-04-11T06:56:53.737Z</time></trkpt><trkpt lat="43.41641569662604" lon="11.878390611017997"><ele>551.0</ele><time>2026-04-11T06:56:54.738Z</time></trkpt><trkpt lat="43.41648709709173" lon="11.878449048828783"><ele>551.0</ele><time>2026-04-11T06:56:55.736Z</time></trkpt><trkpt lat="43.416499548249064" lon="11.878609802217042"><ele>551.3333333333333</ele><time>2026-04-11T06:56:57.737Z</time></trkpt><trkpt lat="43.41646981249658" lon="11.87870188479729"><ele>551.6666666666666</ele><time>2026-04-11T06:56:58.739Z</time></trkpt><trkpt lat="43.416412564581826" lon="11.878812934030446"><ele>552.0</ele><time>2026-04-11T06:56:59.738Z</time></trkpt><trkpt lat="43.41637698161142" lon="11.878925379170624"><ele>552.3333333333334</ele><time>2026-04-11T06:57:00.738Z</time></trkpt><trkpt lat="43.41632546401969" lon="11.879010983739208"><ele>552.6666666666667</ele><time>2026-04-11T06:57:01.736Z</time></trkpt><trkpt lat="43.41626463332195" lon="11.879080542957297"><ele>553.0</ele><time>2026-04-11T06:57:03.737Z</time></trkpt><trkpt lat="43.41619362846364" lon="11.879059873288242"><ele>553.0</ele><time>2026-04-11T06:57:05.737Z</time></trkpt><trkpt lat="43.416188095074276" lon="11.879156525267526"><ele>553.0</ele><time>2026-04-11T06:57:07.737Z</time></trkpt><trkpt lat="43.41625513430122" lon="11.879215694415608"><ele>553.0</ele><time>2026-04-11T06:57:08.737Z</time></trkpt><trkpt lat="43.41632335445647" lon="11.879274478583003"><ele>553.0</ele><time>2026-04-11T06:57:09.738Z</time></trkpt><trkpt lat="43.41635375873212" lon="11.879495381771582"><ele>553.0</ele><time>2026-04-11T06:57:12.738Z</time></trkpt><trkpt lat="43.416352823805425" lon="11.879600039797342"><ele>548.8</ele><time>2026-04-11T06:57:13.738Z</time></trkpt><trkpt lat="43.41639043348424" lon="11.879723039726757"><ele>544.5999999999999</ele><time>2026-04-11T06:57:14.738Z</time></trkpt><trkpt lat="43.41642838724506" lon="11.879806790693708"><ele>540.4000000000001</ele><time>2026-04-11T06:57:15.737Z</time></trkpt><trkpt lat="43.41656856670264" lon="11.879881445832964"><ele>536.2</ele><time>2026-04-11T06:57:17.737Z</time></trkpt><trkpt lat="43.41666331985892" lon="11.879904196799657"><ele>532.0</ele><time>2026-04-11T06:57:18.736Z</time></trkpt><trkpt lat="43.41674820022363" lon="11.879943336180892"><ele>532.0</ele><time>2026-04-11T06:57:19.739Z</time></trkpt><trkpt lat="43.41683739315315" lon="11.880005548039206"><ele>532.0</ele><time>2026-04-11T06:57:20.737Z</time></trkpt><trkpt lat="43.416904499378724" lon="11.880090611278636"><ele>532.0</ele><time>2026-04-11T06:57:21.737Z</time></trkpt><trkpt lat="43.41694969944066" lon="11.880250527772445"><ele>532.0</ele><time>2026-04-11T06:57:23.737Z</time></trkpt><trkpt lat="43.417023621817656" lon="11.880324423813196"><ele>532.0</ele><time>2026-04-11T06:57:24.737Z</time></trkpt><trkpt lat="43.417076314856324" lon="11.880418283313887"><ele>530.6</ele><time>2026-04-11T06:57:25.738Z</time></trkpt><trkpt lat="43.41709840191355" lon="11.8805154837262"><ele>529.2</ele><time>2026-04-11T06:57:26.737Z</time></trkpt><trkpt lat="43.41712249252557" lon="11.880675413046504"><ele>527.8</ele><time>2026-04-11T06:57:28.738Z</time></trkpt><trkpt lat="43.417104855840115" lon="11.880763190013871"><ele>526.4</ele><time>2026-04-11T06:57:29.737Z</time></trkpt><trkpt lat="43.41710906347827" lon="11.88091811558379"><ele>525.0</ele><time>2026-04-11T06:57:31.739Z</time></trkpt><trkpt lat="43.41722148258854" lon="11.88107864205445"><ele>525.0</ele><time>2026-04-11T06:57:33.738Z</time></trkpt><trkpt lat="43.417236273931366" lon="11.881197046895798"><ele>525.0</ele><time>2026-04-11T06:57:34.737Z</time></trkpt><trkpt lat="43.41727812020751" lon="11.88129589670183"><ele>525.0</ele><time>2026-04-11T06:57:35.737Z</time></trkpt><trkpt lat="43.41727395826691" lon="11.881386201620277"><ele>525.0</ele><time>2026-04-11T06:57:36.737Z</time></trkpt><trkpt lat="43.41736209630772" lon="11.881447764693789"><ele>525.0</ele><time>2026-04-11T06:57:38.738Z</time></trkpt><trkpt lat="43.41743190261451" lon="11.881505851320533"><ele>525.0</ele><time>2026-04-11T06:57:39.735Z</time></trkpt><trkpt lat="43.41749710730026" lon="11.881610621819112"><ele>525.0</ele><time>2026-04-11T06:57:40.738Z</time></trkpt><trkpt lat="43.41757048830736" lon="11.881749231080674"><ele>525.0</ele><time>2026-04-11T06:57:41.737Z</time></trkpt><trkpt lat="43.41766494186366" lon="11.881883346206632"><ele>525.0</ele><time>2026-04-11T06:57:42.736Z</time></trkpt><trkpt lat="43.41772725298481" lon="11.88200299067204"><ele>525.0</ele><time>2026-04-11T06:57:43.737Z</time></trkpt><trkpt lat="43.41778028086235" lon="11.882090569415208"><ele>525.4</ele><time>2026-04-11T06:57:44.737Z</time></trkpt><trkpt lat="43.41784391339347" lon="11.88215047016776"><ele>525.8</ele><time>2026-04-11T06:57:45.733Z</time></trkpt><trkpt lat="43.41786653518939" lon="11.88223476869072"><ele>526.2</ele><time>2026-04-11T06:57:54.738Z</time></trkpt><trkpt lat="43.41797629638581" lon="11.88241158730481"><ele>526.6</ele><time>2026-04-11T06:57:59.732Z</time></trkpt><trkpt lat="43.4179461952119" lon="11.882487872758903"><ele>527.0</ele><time>2026-04-11T07:03:48.737Z</time></trkpt><trkpt lat="43.41796693968123" lon="11.88261052605342"><ele>521.5</ele><time>2026-04-11T07:03:50.737Z</time></trkpt><trkpt lat="43.41806955119397" lon="11.882827395599502"><ele>516.0</ele><time>2026-04-11T07:03:54.736Z</time></trkpt><trkpt lat="43.41810672803803" lon="11.88291500296264"><ele>510.5</ele><time>2026-04-11T07:03:56.737Z</time></trkpt><trkpt lat="43.418129454568586" lon="11.883031756000829"><ele>505.0</ele><time>2026-04-11T07:03:58.736Z</time></trkpt><trkpt lat="43.41810350693048" lon="11.883170016022016"><ele>505.0</ele><time>2026-04-11T07:04:00.738Z</time></trkpt><trkpt lat="43.41799365242542" lon="11.883262534376511"><ele>505.0</ele><time>2026-04-11T07:04:02.736Z</time></trkpt><trkpt lat="43.41790082301204" lon="11.88330748122496"><ele>505.0</ele><time>2026-04-11T07:04:03.737Z</time></trkpt><trkpt lat="43.41782281285463" lon="11.883337453066963"><ele>505.0</ele><time>2026-04-11T07:04:04.736Z</time></trkpt><trkpt lat="43.417739871745596" lon="11.883350196574007"><ele>505.0</ele><time>2026-04-11T07:04:05.736Z</time></trkpt><trkpt lat="43.41765852500284" lon="11.883339369803805"><ele>505.6</ele><time>2026-04-11T07:04:06.745Z</time></trkpt><trkpt lat="43.417588684312086" lon="11.883353772784913"><ele>506.2</ele><time>2026-04-11T07:04:07.735Z</time></trkpt><trkpt lat="43.41752416345385" lon="11.883374499388301"><ele>506.79999999999995</ele><time>2026-04-11T07:04:08.736Z</time></trkpt><trkpt lat="43.41742589867503" lon="11.883482927561946"><ele>507.4</ele><time>2026-04-11T07:04:10.735Z</time></trkpt><trkpt lat="43.417332906820064" lon="11.88356288796765"><ele>508.0</ele><time>2026-04-11T07:04:12.736Z</time></trkpt><trkpt lat="43.417217986257306" lon="11.883769986309813"><ele>503.79999999999995</ele><time>2026-04-11T07:04:17.736Z</time></trkpt><trkpt lat="43.41712642017534" lon="11.883766859683725"><ele>499.59999999999997</ele><time>2026-04-11T07:04:24.736Z</time></trkpt><trkpt lat="43.41704325493954" lon="11.883738826422661"><ele>495.40000000000003</ele><time>2026-04-11T07:04:25.736Z</time></trkpt><trkpt lat="43.416957050871694" lon="11.883710700825828"><ele>491.20000000000005</ele><time>2026-04-11T07:04:26.737Z</time></trkpt><trkpt lat="43.41687013694757" lon="11.883684178857404"><ele>487.0</ele><time>2026-04-11T07:04:27.735Z</time></trkpt><trkpt lat="43.41677742682024" lon="11.883656147879314"><ele>487.00000000000006</ele><time>2026-04-11T07:04:28.736Z</time></trkpt><trkpt lat="43.41668712620251" lon="11.883637041763103"><ele>487.0</ele><time>2026-04-11T07:04:29.738Z</time></trkpt><trkpt lat="43.416597750815036" lon="11.883617837709378"><ele>487.0</ele><time>2026-04-11T07:04:30.737Z</time></trkpt><trkpt lat="43.41651871296654" lon="11.883600012331202"><ele>487.0</ele><time>2026-04-11T07:04:31.736Z</time></trkpt><trkpt lat="43.41642820593592" lon="11.883594134542763"><ele>487.00000000000006</ele><time>2026-04-11T07:04:32.735Z</time></trkpt><trkpt lat="43.416339580565875" lon="11.883606101237675"><ele>487.0</ele><time>2026-04-11T07:04:33.736Z</time></trkpt><trkpt lat="43.416132638316704" lon="11.883615796412283"><ele>489.8</ele><time>2026-04-11T07:04:35.736Z</time></trkpt><trkpt lat="43.416032185459095" lon="11.883618345611938"><ele>492.6</ele><time>2026-04-11T07:04:36.738Z</time></trkpt><trkpt lat="43.415938231450006" lon="11.883615807319718"><ele>495.40000000000003</ele><time>2026-04-11T07:04:37.736Z</time></trkpt><trkpt lat="43.415842899258024" lon="11.883619498057076"><ele>498.20000000000005</ele><time>2026-04-11T07:04:38.737Z</time></trkpt><trkpt lat="43.41574654339441" lon="11.883618639660519"><ele>501.0</ele><time>2026-04-11T07:04:39.73Z</time></trkpt><trkpt lat="43.41565095951775" lon="11.8836303238978"><ele>501.0</ele><time>2026-04-11T07:04:40.737Z</time></trkpt><trkpt lat="43.41555447299525" lon="11.883656742156427"><ele>501.0</ele><time>2026-04-11T07:04:41.737Z</time></trkpt><trkpt lat="43.415488313773814" lon="11.883701732834016"><ele>501.0</ele><time>2026-04-11T07:04:42.737Z</time></trkpt><trkpt lat="43.41543645597981" lon="11.883761478753252"><ele>501.0</ele><time>2026-04-11T07:04:43.736Z</time></trkpt><trkpt lat="43.415398172619255" lon="11.883837713053184"><ele>501.0</ele><time>2026-04-11T07:04:44.737Z</time></trkpt><trkpt lat="43.41538042241383" lon="11.883946303127754"><ele>501.0</ele><time>2026-04-11T07:04:45.736Z</time></trkpt><trkpt lat="43.415399119250054" lon="11.884040430522774"><ele>501.0</ele><time>2026-04-11T07:04:46.737Z</time></trkpt><trkpt lat="43.415445440584186" lon="11.884141988227189"><ele>501.0</ele><time>2026-04-11T07:04:47.736Z</time></trkpt><trkpt lat="43.41550588722953" lon="11.88423864489868"><ele>501.0</ele><time>2026-04-11T07:04:48.736Z</time></trkpt><trkpt lat="43.41554687251371" lon="11.884337210458094"><ele>501.0</ele><time>2026-04-11T07:04:49.736Z</time></trkpt><trkpt lat="43.4155391724543" lon="11.884426438868049"><ele>501.0</ele><time>2026-04-11T07:04:50.738Z</time></trkpt><trkpt lat="43.41548692374737" lon="11.884509209764952"><ele>501.0</ele><time>2026-04-11T07:04:51.737Z</time></trkpt><trkpt lat="43.41541408274061" lon="11.884551724299067"><ele>503.25</ele><time>2026-04-11T07:04:52.738Z</time></trkpt><trkpt lat="43.41533077338175" lon="11.884570308111991"><ele>505.5</ele><time>2026-04-11T07:04:53.743Z</time></trkpt><trkpt lat="43.41523496919229" lon="11.884589355007176"><ele>507.75</ele><time>2026-04-11T07:04:54.737Z</time></trkpt><trkpt lat="43.41502748688403" lon="11.884614753537928"><ele>510.0</ele><time>2026-04-11T07:04:56.736Z</time></trkpt><trkpt lat="43.4149265044448" lon="11.884578479251756"><ele>510.0</ele><time>2026-04-11T07:04:57.736Z</time></trkpt><trkpt lat="43.41484142125468" lon="11.884517045623827"><ele>510.0</ele><time>2026-04-11T07:04:58.734Z</time></trkpt><trkpt lat="43.414776720569385" lon="11.88445814010945"><ele>510.0</ele><time>2026-04-11T07:04:59.737Z</time></trkpt><trkpt lat="43.414680503730054" lon="11.88442307217124"><ele>510.0</ele><time>2026-04-11T07:05:01.736Z</time></trkpt><trkpt lat="43.41464638535775" lon="11.884512230674826"><ele>510.0</ele><time>2026-04-11T07:05:03.736Z</time></trkpt><trkpt lat="43.4146794544182" lon="11.884670560390566"><ele>510.0</ele><time>2026-04-11T07:05:05.736Z</time></trkpt><trkpt lat="43.41472400165598" lon="11.884797410756224"><ele>510.0</ele><time>2026-04-11T07:05:06.737Z</time></trkpt><trkpt lat="43.414744109261264" lon="11.884901252596697"><ele>510.0</ele><time>2026-04-11T07:05:07.736Z</time></trkpt><trkpt lat="43.414744345276304" lon="11.884996205313772"><ele>510.0</ele><time>2026-04-11T07:05:08.737Z</time></trkpt><trkpt lat="43.414709974484595" lon="11.88509603326531"><ele>510.0</ele><time>2026-04-11T07:05:09.737Z</time></trkpt><trkpt lat="43.41466958636456" lon="11.885182487683348"><ele>510.0</ele><time>2026-04-11T07:05:10.738Z</time></trkpt><trkpt lat="43.41459958832603" lon="11.885243492258045"><ele>512.0</ele><time>2026-04-11T07:05:11.737Z</time></trkpt><trkpt lat="43.414511889879634" lon="11.885286801050995"><ele>514.0</ele><time>2026-04-11T07:05:12.737Z</time></trkpt><trkpt lat="43.41443106710292" lon="11.885326538532087"><ele>516.0</ele><time>2026-04-11T07:05:13.736Z</time></trkpt><trkpt lat="43.41435410784579" lon="11.885382718201505"><ele>518.0</ele><time>2026-04-11T07:05:14.736Z</time></trkpt><trkpt lat="43.41425846345338" lon="11.885442602452924"><ele>520.0</ele><time>2026-04-11T07:05:15.736Z</time></trkpt><trkpt lat="43.41407781587507" lon="11.885599520296818"><ele>520.0</ele><time>2026-04-11T07:05:17.736Z</time></trkpt><trkpt lat="43.414000140519555" lon="11.885686592368558"><ele>520.0</ele><time>2026-04-11T07:05:18.737Z</time></trkpt><trkpt lat="43.41390944849291" lon="11.885751099861814"><ele>520.0</ele><time>2026-04-11T07:05:19.736Z</time></trkpt><trkpt lat="43.41380939443718" lon="11.885793892786312"><ele>520.0</ele><time>2026-04-11T07:05:20.737Z</time></trkpt><trkpt lat="43.413727508114775" lon="11.885831790906224"><ele>520.0</ele><time>2026-04-11T07:05:21.735Z</time></trkpt><trkpt lat="43.41361959738074" lon="11.885874669849912"><ele>522.8</ele><time>2026-04-11T07:05:22.736Z</time></trkpt><trkpt lat="43.41351545240022" lon="11.885928759723098"><ele>525.6</ele><time>2026-04-11T07:05:23.736Z</time></trkpt><trkpt lat="43.41342298947018" lon="11.885986383669731"><ele>528.4</ele><time>2026-04-11T07:05:24.737Z</time></trkpt><trkpt lat="43.41332780149087" lon="11.886009031155636"><ele>531.2</ele><time>2026-04-11T07:05:25.737Z</time></trkpt><trkpt lat="43.41323855548867" lon="11.885996319609033"><ele>534.0</ele><time>2026-04-11T07:05:26.737Z</time></trkpt><trkpt lat="43.41314168902668" lon="11.885974804725924"><ele>534.0</ele><time>2026-04-11T07:05:27.737Z</time></trkpt><trkpt lat="43.41304204615707" lon="11.88598864082988"><ele>534.0</ele><time>2026-04-11T07:05:28.736Z</time></trkpt><trkpt lat="43.41295031105665" lon="11.886029284621454"><ele>534.0</ele><time>2026-04-11T07:05:29.737Z</time></trkpt><trkpt lat="43.4128655515961" lon="11.88607026314436"><ele>534.0</ele><time>2026-04-11T07:05:30.737Z</time></trkpt><trkpt lat="43.41280151870176" lon="11.88610445084856"><ele>534.0</ele><time>2026-04-11T07:05:31.736Z</time></trkpt><trkpt lat="43.412720707864516" lon="11.886105242092404"><ele>534.0</ele><time>2026-04-11T07:05:32.736Z</time></trkpt><trkpt lat="43.4126213265037" lon="11.886072935573129"><ele>539.75</ele><time>2026-04-11T07:05:33.736Z</time></trkpt><trkpt lat="43.412522187468696" lon="11.886037239380071"><ele>545.5</ele><time>2026-04-11T07:05:34.737Z</time></trkpt><trkpt lat="43.41244041543293" lon="11.886019601234825"><ele>551.25</ele><time>2026-04-11T07:05:35.738Z</time></trkpt><trkpt lat="43.41234297528105" lon="11.886011271246034"><ele>557.0</ele><time>2026-04-11T07:05:36.74Z</time></trkpt><trkpt lat="43.41215781171104" lon="11.885986746332103"><ele>560.4</ele><time>2026-04-11T07:05:38.738Z</time></trkpt><trkpt lat="43.41207292706189" lon="11.886018639263893"><ele>563.8000000000001</ele><time>2026-04-11T07:05:39.737Z</time></trkpt><trkpt lat="43.41199323688178" lon="11.886088060161065"><ele>567.2</ele><time>2026-04-11T07:05:40.736Z</time></trkpt><trkpt lat="43.41190468799158" lon="11.886183743939256"><ele>570.6</ele><time>2026-04-11T07:05:41.735Z</time></trkpt><trkpt lat="43.41181347757546" lon="11.886277411832106"><ele>574.0</ele><time>2026-04-11T07:05:42.737Z</time></trkpt><trkpt lat="43.41172109964185" lon="11.886362139012123"><ele>574.0</ele><time>2026-04-11T07:05:43.737Z</time></trkpt><trkpt lat="43.411651254564966" lon="11.886431597456802"><ele>574.0</ele><time>2026-04-11T07:05:44.737Z</time></trkpt><trkpt lat="43.411565697753936" lon="11.886465644726794"><ele>574.0</ele><time>2026-04-11T07:05:45.738Z</time></trkpt><trkpt lat="43.411475973901794" lon="11.886462506432826"><ele>574.0</ele><time>2026-04-11T07:05:46.738Z</time></trkpt><trkpt lat="43.4113751846804" lon="11.886442470805875"><ele>574.0</ele><time>2026-04-11T07:05:47.737Z</time></trkpt><trkpt lat="43.41127531901259" lon="11.886428015287711"><ele>577.3333333333334</ele><time>2026-04-11T07:05:48.737Z</time></trkpt><trkpt lat="43.41118531054613" lon="11.886445639549647"><ele>580.6666666666667</ele><time>2026-04-11T07:05:49.737Z</time></trkpt><trkpt lat="43.41109409713374" lon="11.886484339834189"><ele>584.0</ele><time>2026-04-11T07:05:50.738Z</time></trkpt><trkpt lat="43.41103452216116" lon="11.88654891145186"><ele>587.3333333333334</ele><time>2026-04-11T07:05:51.736Z</time></trkpt><trkpt lat="43.41097630216134" lon="11.886633314936798"><ele>590.6666666666666</ele><time>2026-04-11T07:05:52.737Z</time></trkpt><trkpt lat="43.4109297940078" lon="11.886738571876402"><ele>594.0</ele><time>2026-04-11T07:05:53.737Z</time></trkpt><trkpt lat="43.41087856136061" lon="11.886854367799089"><ele>594.0</ele><time>2026-04-11T07:05:54.735Z</time></trkpt><trkpt lat="43.41082208780526" lon="11.886967341089054"><ele>594.0</ele><time>2026-04-11T07:05:55.736Z</time></trkpt><trkpt lat="43.410758407397054" lon="11.887075324911297"><ele>594.0</ele><time>2026-04-11T07:05:56.738Z</time></trkpt><trkpt lat="43.41069843973794" lon="11.88718613669193"><ele>594.0</ele><time>2026-04-11T07:05:57.737Z</time></trkpt><trkpt lat="43.41055792595849" lon="11.88740969473152"><ele>598.4</ele><time>2026-04-11T07:05:59.735Z</time></trkpt><trkpt lat="43.410469936338934" lon="11.887500425963896"><ele>602.8</ele><time>2026-04-11T07:06:00.737Z</time></trkpt><trkpt lat="43.41038233716547" lon="11.887555196926082"><ele>607.2</ele><time>2026-04-11T07:06:01.736Z</time></trkpt><trkpt lat="43.41030997508958" lon="11.887614678752616"><ele>611.6</ele><time>2026-04-11T07:06:02.737Z</time></trkpt><trkpt lat="43.41025238148913" lon="11.887694218921563"><ele>616.0</ele><time>2026-04-11T07:06:03.737Z</time></trkpt><trkpt lat="43.41021214336858" lon="11.887796659176795"><ele>616.0</ele><time>2026-04-11T07:06:04.738Z</time></trkpt><trkpt lat="43.41020472556039" lon="11.887934016737256"><ele>616.0</ele><time>2026-04-11T07:06:05.737Z</time></trkpt><trkpt lat="43.41018666028277" lon="11.888061699546391"><ele>616.0</ele><time>2026-04-11T07:06:06.738Z</time></trkpt><trkpt lat="43.410153508634636" lon="11.888179949845446"><ele>616.0</ele><time>2026-04-11T07:06:07.737Z</time></trkpt><trkpt lat="43.4100948769306" lon="11.888279507005015"><ele>616.0</ele><time>2026-04-11T07:06:08.738Z</time></trkpt><trkpt lat="43.41001171787677" lon="11.8883596101253"><ele>616.0</ele><time>2026-04-11T07:06:09.74Z</time></trkpt><trkpt lat="43.40992036714211" lon="11.88840781353364"><ele>616.0</ele><time>2026-04-11T07:06:10.738Z</time></trkpt><trkpt lat="43.40982280930377" lon="11.888427383011253"><ele>616.0</ele><time>2026-04-11T07:06:11.736Z</time></trkpt><trkpt lat="43.40972770884269" lon="11.888442857945877"><ele>616.0</ele><time>2026-04-11T07:06:12.733Z</time></trkpt><trkpt lat="43.40962875108995" lon="11.888454363135471"><ele>616.0</ele><time>2026-04-11T07:06:13.736Z</time></trkpt><trkpt lat="43.40953707225917" lon="11.88846802071464"><ele>620.2</ele><time>2026-04-11T07:06:14.736Z</time></trkpt><trkpt lat="43.409448230649296" lon="11.888482884647253"><ele>624.4000000000001</ele><time>2026-04-11T07:06:15.736Z</time></trkpt><trkpt lat="43.40935634308653" lon="11.888493021985441"><ele>628.6</ele><time>2026-04-11T07:06:16.737Z</time></trkpt><trkpt lat="43.4092761782561" lon="11.888488558401743"><ele>632.8000000000001</ele><time>2026-04-11T07:06:17.735Z</time></trkpt><trkpt lat="43.40921848505246" lon="11.888539650245317"><ele>637.0</ele><time>2026-04-11T07:06:19.734Z</time></trkpt><trkpt lat="43.4093418724406" lon="11.888775611145345"><ele>637.0</ele><time>2026-04-11T07:06:22.738Z</time></trkpt><trkpt lat="43.40939739827949" lon="11.888862425146279"><ele>637.0</ele><time>2026-04-11T07:06:23.737Z</time></trkpt><trkpt lat="43.4094238170162" lon="11.888945522877798"><ele>637.0</ele><time>2026-04-11T07:06:24.737Z</time></trkpt><trkpt lat="43.40939163417588" lon="11.88910737556325"><ele>637.0</ele><time>2026-04-11T07:06:26.738Z</time></trkpt><trkpt lat="43.40933695667927" lon="11.889182563719785"><ele>637.0</ele><time>2026-04-11T07:06:27.737Z</time></trkpt><trkpt lat="43.409312069743294" lon="11.889281629450041"><ele>637.0</ele><time>2026-04-11T07:06:28.737Z</time></trkpt><trkpt lat="43.40933296225334" lon="11.889384720828515"><ele>637.3333333333334</ele><time>2026-04-11T07:06:29.737Z</time></trkpt><trkpt lat="43.40938388518132" lon="11.88947552011951"><ele>637.6666666666667</ele><time>2026-04-11T07:06:30.734Z</time></trkpt><trkpt lat="43.409440837122034" lon="11.889571572469148"><ele>638.0</ele><time>2026-04-11T07:06:31.737Z</time></trkpt><trkpt lat="43.40949056123429" lon="11.889653769855643"><ele>638.3333333333334</ele><time>2026-04-11T07:06:32.737Z</time></trkpt><trkpt lat="43.40953137114075" lon="11.889742051285664"><ele>638.6666666666666</ele><time>2026-04-11T07:06:33.742Z</time></trkpt><trkpt lat="43.40955816094361" lon="11.889842436095693"><ele>639.0</ele><time>2026-04-11T07:06:34.738Z</time></trkpt><trkpt lat="43.40956764870743" lon="11.889950640099494"><ele>639.0</ele><time>2026-04-11T07:06:35.737Z</time></trkpt><trkpt lat="43.40955086392203" lon="11.890059551442958"><ele>639.0</ele><time>2026-04-11T07:06:36.737Z</time></trkpt><trkpt lat="43.40953189345197" lon="11.890152934773083"><ele>639.0</ele><time>2026-04-11T07:06:37.737Z</time></trkpt><trkpt lat="43.409480925352995" lon="11.89022604140873"><ele>639.0</ele><time>2026-04-11T07:06:38.733Z</time></trkpt><trkpt lat="43.40941215905332" lon="11.890294528956108"><ele>639.0</ele><time>2026-04-11T07:06:39.736Z</time></trkpt><trkpt lat="43.40934061811698" lon="11.890367507335487"><ele>639.0</ele><time>2026-04-11T07:06:40.737Z</time></trkpt><trkpt lat="43.40922613250066" lon="11.890524840268426"><ele>637.6</ele><time>2026-04-11T07:06:42.738Z</time></trkpt><trkpt lat="43.40918188046753" lon="11.890625261498297"><ele>636.2</ele><time>2026-04-11T07:06:43.739Z</time></trkpt><trkpt lat="43.409145372723266" lon="11.890755386087461"><ele>634.8000000000001</ele><time>2026-04-11T07:06:44.737Z</time></trkpt><trkpt lat="43.40912112957378" lon="11.890895287708906"><ele>633.4</ele><time>2026-04-11T07:06:45.736Z</time></trkpt><trkpt lat="43.409109615871635" lon="11.891030857514117"><ele>632.0</ele><time>2026-04-11T07:06:46.738Z</time></trkpt><trkpt lat="43.40912093043005" lon="11.891168858493876"><ele>632.0</ele><time>2026-04-11T07:06:47.737Z</time></trkpt><trkpt lat="43.409143660513344" lon="11.891314128867952"><ele>632.0</ele><time>2026-04-11T07:06:48.737Z</time></trkpt><trkpt lat="43.40916069654148" lon="11.891450635594294"><ele>632.0</ele><time>2026-04-11T07:06:49.736Z</time></trkpt><trkpt lat="43.409173785016975" lon="11.891588265988068"><ele>632.0</ele><time>2026-04-11T07:06:50.736Z</time></trkpt><trkpt lat="43.40917855256526" lon="11.891721082199593"><ele>632.0</ele><time>2026-04-11T07:06:51.735Z</time></trkpt><trkpt lat="43.40920181354279" lon="11.89183193655132"><ele>634.1666666666666</ele><time>2026-04-11T07:06:52.736Z</time></trkpt><trkpt lat="43.40921433774562" lon="11.891936064360369"><ele>636.3333333333333</ele><time>2026-04-11T07:06:53.736Z</time></trkpt><trkpt lat="43.409252201574546" lon="11.892033192182678"><ele>638.5</ele><time>2026-04-11T07:06:54.736Z</time></trkpt><trkpt lat="43.40930802088962" lon="11.892116100883955"><ele>640.6666666666666</ele><time>2026-04-11T07:06:55.736Z</time></trkpt><trkpt lat="43.40937146724552" lon="11.892169738970349"><ele>642.8333333333334</ele><time>2026-04-11T07:06:56.737Z</time></trkpt><trkpt lat="43.40943284010417" lon="11.892220182196091"><ele>645.0</ele><time>2026-04-11T07:06:57.737Z</time></trkpt><trkpt lat="43.40951661132292" lon="11.892268379996377"><ele>645.0</ele><time>2026-04-11T07:06:58.738Z</time></trkpt><trkpt lat="43.40961234443897" lon="11.892307856703319"><ele>645.0</ele><time>2026-04-11T07:07:00.737Z</time></trkpt><trkpt lat="43.40963562472638" lon="11.892445604122821"><ele>645.0</ele><time>2026-04-11T07:07:03.737Z</time></trkpt><trkpt lat="43.40949150220447" lon="11.892577126861822"><ele>645.0</ele><time>2026-04-11T07:07:06.737Z</time></trkpt><trkpt lat="43.409421108127255" lon="11.892571993795551"><ele>645.0</ele><time>2026-04-11T07:07:07.737Z</time></trkpt><trkpt lat="43.40940078615037" lon="11.892657782405323"><ele>643.6666666666666</ele><time>2026-04-11T07:07:10.738Z</time></trkpt><trkpt lat="43.40944513733803" lon="11.892720908156084"><ele>642.3333333333334</ele><time>2026-04-11T07:07:11.735Z</time></trkpt><trkpt lat="43.409522693425636" lon="11.892715498108082"><ele>641.0</ele><time>2026-04-11T07:07:12.736Z</time></trkpt><trkpt lat="43.40961185329145" lon="11.89270881741364"><ele>639.6666666666667</ele><time>2026-04-11T07:07:13.736Z</time></trkpt><trkpt lat="43.40968460453139" lon="11.892734163856113"><ele>638.3333333333334</ele><time>2026-04-11T07:07:14.738Z</time></trkpt><trkpt lat="43.409736390305795" lon="11.892817988988432"><ele>637.0</ele><time>2026-04-11T07:07:15.737Z</time></trkpt><trkpt lat="43.40978003822138" lon="11.892919986940573"><ele>637.0</ele><time>2026-04-11T07:07:16.738Z</time></trkpt><trkpt lat="43.40984133441139" lon="11.893065694419336"><ele>637.0</ele><time>2026-04-11T07:07:17.735Z</time></trkpt><trkpt lat="43.40990195734091" lon="11.893211765453398"><ele>637.0</ele><time>2026-04-11T07:07:18.738Z</time></trkpt><trkpt lat="43.409954844932095" lon="11.893351792262555"><ele>637.0</ele><time>2026-04-11T07:07:19.739Z</time></trkpt><trkpt lat="43.410001678540844" lon="11.893454973261806"><ele>637.0</ele><time>2026-04-11T07:07:20.737Z</time></trkpt><trkpt lat="43.4100565466794" lon="11.893543226217675"><ele>638.2</ele><time>2026-04-11T07:07:21.735Z</time></trkpt><trkpt lat="43.41013405005559" lon="11.89362032637329"><ele>639.4000000000001</ele><time>2026-04-11T07:07:22.737Z</time></trkpt><trkpt lat="43.410213815154954" lon="11.893695413881622"><ele>640.5999999999999</ele><time>2026-04-11T07:07:23.736Z</time></trkpt><trkpt lat="43.41028268217484" lon="11.893763457082752"><ele>641.8</ele><time>2026-04-11T07:07:24.737Z</time></trkpt><trkpt lat="43.410338461323" lon="11.893927120458821"><ele>643.0</ele><time>2026-04-11T07:07:26.738Z</time></trkpt><trkpt lat="43.41034469198687" lon="11.894032119571897"><ele>643.0</ele><time>2026-04-11T07:07:27.738Z</time></trkpt><trkpt lat="43.41035229076928" lon="11.894148213564383"><ele>643.0</ele><time>2026-04-11T07:07:28.738Z</time></trkpt><trkpt lat="43.41035028347564" lon="11.894242768701341"><ele>643.0</ele><time>2026-04-11T07:07:29.737Z</time></trkpt><trkpt lat="43.41026320870929" lon="11.894321045737117"><ele>643.0</ele><time>2026-04-11T07:07:31.737Z</time></trkpt><trkpt lat="43.41021465730485" lon="11.894405434300873"><ele>643.0</ele><time>2026-04-11T07:07:32.737Z</time></trkpt><trkpt lat="43.41015912787123" lon="11.894542195143366"><ele>643.0</ele><time>2026-04-11T07:07:34.738Z</time></trkpt><trkpt lat="43.41009992291787" lon="11.894630686788359"><ele>642.4</ele><time>2026-04-11T07:07:36.737Z</time></trkpt><trkpt lat="43.41016273701908" lon="11.894707506062904"><ele>641.8</ele><time>2026-04-11T07:07:38.738Z</time></trkpt><trkpt lat="43.41024313044252" lon="11.894867925060483"><ele>641.2</ele><time>2026-04-11T07:07:40.737Z</time></trkpt><trkpt lat="43.41028302504734" lon="11.89496080860838"><ele>640.6</ele><time>2026-04-11T07:07:41.737Z</time></trkpt><trkpt lat="43.41029713467461" lon="11.895051687532916"><ele>640.0</ele><time>2026-04-11T07:07:42.738Z</time></trkpt><trkpt lat="43.410294108185056" lon="11.895164837086373"><ele>638.25</ele><time>2026-04-11T07:07:44.737Z</time></trkpt><trkpt lat="43.410317006996195" lon="11.895278922067659"><ele>636.5</ele><time>2026-04-11T07:07:46.737Z</time></trkpt><trkpt lat="43.410174863825034" lon="11.895444933487717"><ele>634.75</ele><time>2026-04-11T07:07:50.738Z</time></trkpt><trkpt lat="43.41008640697756" lon="11.89542498965206"><ele>633.0</ele><time>2026-04-11T07:07:51.737Z</time></trkpt><trkpt lat="43.40999300493676" lon="11.895453119256436"><ele>633.0</ele><time>2026-04-11T07:07:52.738Z</time></trkpt><trkpt lat="43.40989653090811" lon="11.895500971538365"><ele>633.0</ele><time>2026-04-11T07:07:53.737Z</time></trkpt><trkpt lat="43.40982486762591" lon="11.895518890364269"><ele>633.0</ele><time>2026-04-11T07:07:54.737Z</time></trkpt><trkpt lat="43.409753908034915" lon="11.895504122808966"><ele>633.0</ele><time>2026-04-11T07:07:55.738Z</time></trkpt><trkpt lat="43.40966932922299" lon="11.895426635127777"><ele>633.0</ele><time>2026-04-11T07:07:57.736Z</time></trkpt><trkpt lat="43.40958542149772" lon="11.895502022362935"><ele>633.0</ele><time>2026-04-11T07:07:59.732Z</time></trkpt><trkpt lat="43.40953728847724" lon="11.895630548961462"><ele>633.6</ele><time>2026-04-11T07:08:00.737Z</time></trkpt><trkpt lat="43.409491915150035" lon="11.895760904388233"><ele>634.1999999999999</ele><time>2026-04-11T07:08:01.735Z</time></trkpt><trkpt lat="43.409425106698656" lon="11.895833964804828"><ele>634.8</ele><time>2026-04-11T07:08:02.737Z</time></trkpt><trkpt lat="43.40934719184778" lon="11.895918401284918"><ele>635.4</ele><time>2026-04-11T07:08:03.736Z</time></trkpt><trkpt lat="43.409295271082904" lon="11.896019878834663"><ele>636.0</ele><time>2026-04-11T07:08:04.736Z</time></trkpt><trkpt lat="43.409263894146186" lon="11.896140958585347"><ele>636.0</ele><time>2026-04-11T07:08:05.735Z</time></trkpt><trkpt lat="43.40924919403609" lon="11.896255689268674"><ele>636.0</ele><time>2026-04-11T07:08:06.737Z</time></trkpt><trkpt lat="43.409218657627626" lon="11.896346532712585"><ele>636.0</ele><time>2026-04-11T07:08:07.736Z</time></trkpt><trkpt lat="43.4090871785583" lon="11.896536034951156"><ele>636.0</ele><time>2026-04-11T07:08:09.736Z</time></trkpt><trkpt lat="43.40901732409252" lon="11.89658249920331"><ele>636.0</ele><time>2026-04-11T07:08:10.737Z</time></trkpt><trkpt lat="43.40892808551352" lon="11.8967196791299"><ele>634.6666666666666</ele><time>2026-04-11T07:08:12.738Z</time></trkpt><trkpt lat="43.408875914607805" lon="11.896818924566128"><ele>633.3333333333334</ele><time>2026-04-11T07:08:13.733Z</time></trkpt><trkpt lat="43.40882175224137" lon="11.896887274534285"><ele>632.0</ele><time>2026-04-11T07:08:14.738Z</time></trkpt><trkpt lat="43.40876887570994" lon="11.896952599054481"><ele>630.6666666666667</ele><time>2026-04-11T07:08:15.738Z</time></trkpt><trkpt lat="43.40872030058864" lon="11.89703295738722"><ele>629.3333333333334</ele><time>2026-04-11T07:08:16.739Z</time></trkpt><trkpt lat="43.40866941504739" lon="11.8971266163681"><ele>628.0</ele><time>2026-04-11T07:08:17.735Z</time></trkpt><trkpt lat="43.40859690417361" lon="11.8971868705615"><ele>628.0</ele><time>2026-04-11T07:08:18.733Z</time></trkpt><trkpt lat="43.408510341301046" lon="11.89720785239696"><ele>628.0</ele><time>2026-04-11T07:08:19.737Z</time></trkpt><trkpt lat="43.4084468296792" lon="11.897250530285062"><ele>628.0</ele><time>2026-04-11T07:08:20.738Z</time></trkpt><trkpt lat="43.40838979527566" lon="11.897294198537761"><ele>628.0</ele><time>2026-04-11T07:08:21.736Z</time></trkpt><trkpt lat="43.40827920620989" lon="11.89724942067005"><ele>628.0</ele><time>2026-04-11T07:08:23.737Z</time></trkpt><trkpt lat="43.40818635804322" lon="11.897257117239713"><ele>628.0</ele><time>2026-04-11T07:08:25.735Z</time></trkpt><trkpt lat="43.4081408885183" lon="11.897327592893337"><ele>628.0</ele><time>2026-04-11T07:08:26.736Z</time></trkpt><trkpt lat="43.408072792391636" lon="11.897391447515979"><ele>628.0</ele><time>2026-04-11T07:08:27.735Z</time></trkpt><trkpt lat="43.40800195658513" lon="11.897426398971191"><ele>628.0</ele><time>2026-04-11T07:08:28.737Z</time></trkpt><trkpt lat="43.40784988459239" lon="11.89745586828001"><ele>628.0</ele><time>2026-04-11T07:08:30.737Z</time></trkpt><trkpt lat="43.40776789773643" lon="11.897459553464952"><ele>628.0</ele><time>2026-04-11T07:08:31.732Z</time></trkpt><trkpt lat="43.407684665792" lon="11.897442382940033"><ele>627.0</ele><time>2026-04-11T07:08:32.737Z</time></trkpt><trkpt lat="43.407616166720715" lon="11.89742235033805"><ele>626.0</ele><time>2026-04-11T07:08:33.735Z</time></trkpt><trkpt lat="43.40754725050726" lon="11.897399936165357"><ele>625.0</ele><time>2026-04-11T07:08:34.737Z</time></trkpt><trkpt lat="43.40746407440533" lon="11.897399501479237"><ele>624.0</ele><time>2026-04-11T07:08:36.736Z</time></trkpt><trkpt lat="43.407452483218634" lon="11.897597669697936"><ele>623.0</ele><time>2026-04-11T07:08:38.738Z</time></trkpt><trkpt lat="43.40747275686903" lon="11.897723906870237"><ele>623.0</ele><time>2026-04-11T07:08:39.735Z</time></trkpt><trkpt lat="43.40746811662651" lon="11.897882564579756"><ele>623.0</ele><time>2026-04-11T07:08:40.737Z</time></trkpt><trkpt lat="43.40746573923185" lon="11.898020974221755"><ele>623.0</ele><time>2026-04-11T07:08:41.735Z</time></trkpt><trkpt lat="43.40746556030871" lon="11.89815904010022"><ele>623.0</ele><time>2026-04-11T07:08:42.736Z</time></trkpt><trkpt lat="43.40743819632761" lon="11.89826614434385"><ele>623.0</ele><time>2026-04-11T07:08:43.735Z</time></trkpt><trkpt lat="43.40734553160522" lon="11.89833634993594"><ele>623.0</ele><time>2026-04-11T07:08:45.736Z</time></trkpt><trkpt lat="43.40725669984442" lon="11.898355222353024"><ele>623.0</ele><time>2026-04-11T07:08:46.736Z</time></trkpt><trkpt lat="43.407147445304346" lon="11.898368360200314"><ele>623.0</ele><time>2026-04-11T07:08:47.735Z</time></trkpt><trkpt lat="43.407017848357896" lon="11.898379381787036"><ele>623.0</ele><time>2026-04-11T07:08:48.736Z</time></trkpt><trkpt lat="43.406921625837796" lon="11.898400900468642"><ele>623.0</ele><time>2026-04-11T07:08:49.733Z</time></trkpt><trkpt lat="43.406779444412486" lon="11.89843162357031"><ele>622.3333333333333</ele><time>2026-04-11T07:08:51.737Z</time></trkpt><trkpt lat="43.40666651708691" lon="11.898431758068142"><ele>621.6666666666666</ele><time>2026-04-11T07:08:53.736Z</time></trkpt><trkpt lat="43.40661570874308" lon="11.898503877278008"><ele>621.0</ele><time>2026-04-11T07:08:54.736Z</time></trkpt><trkpt lat="43.40656347868413" lon="11.898553037859516"><ele>620.3333333333334</ele><time>2026-04-11T07:08:55.737Z</time></trkpt><trkpt lat="43.40650145649196" lon="11.898571391741664"><ele>619.6666666666667</ele><time>2026-04-11T07:08:56.736Z</time></trkpt><trkpt lat="43.40643028558921" lon="11.898609885457493"><ele>619.0</ele><time>2026-04-11T07:08:57.738Z</time></trkpt><trkpt lat="43.40635967160445" lon="11.898661444786706"><ele>619.2</ele><time>2026-04-11T07:08:58.736Z</time></trkpt><trkpt lat="43.40630066908168" lon="11.898717716347926"><ele>619.4</ele><time>2026-04-11T07:08:59.735Z</time></trkpt><trkpt lat="43.40623575722491" lon="11.898751265858671"><ele>619.6</ele><time>2026-04-11T07:09:00.736Z</time></trkpt><trkpt lat="43.406087302902385" lon="11.898763120870237"><ele>619.8</ele><time>2026-04-11T07:09:02.742Z</time></trkpt><trkpt lat="43.40598450471668" lon="11.898759422523318"><ele>620.0</ele><time>2026-04-11T07:09:03.736Z</time></trkpt><trkpt lat="43.40587904321724" lon="11.89873339661467"><ele>620.0</ele><time>2026-04-11T07:09:04.736Z</time></trkpt><trkpt lat="43.40579555767281" lon="11.898677603582279"><ele>620.0</ele><time>2026-04-11T07:09:05.737Z</time></trkpt><trkpt lat="43.40572831112314" lon="11.898630705415306"><ele>620.0</ele><time>2026-04-11T07:09:06.737Z</time></trkpt><trkpt lat="43.405608818067265" lon="11.898553370851632"><ele>620.0</ele><time>2026-04-11T07:09:08.736Z</time></trkpt><trkpt lat="43.405561800638544" lon="11.898493544999752"><ele>620.0</ele><time>2026-04-11T07:09:09.736Z</time></trkpt><trkpt lat="43.40548738528809" lon="11.898382667370837"><ele>622.0</ele><time>2026-04-11T07:09:11.735Z</time></trkpt><trkpt lat="43.40538596663573" lon="11.898127681205557"><ele>624.0</ele><time>2026-04-11T07:09:14.737Z</time></trkpt><trkpt lat="43.40536026873547" lon="11.89803523753996"><ele>626.0</ele><time>2026-04-11T07:09:15.735Z</time></trkpt><trkpt lat="43.40532027211867" lon="11.897966304551954"><ele>628.0</ele><time>2026-04-11T07:09:16.736Z</time></trkpt><trkpt lat="43.4052774576812" lon="11.897892892612603"><ele>630.0</ele><time>2026-04-11T07:09:17.734Z</time></trkpt><trkpt lat="43.405183696064924" lon="11.897853873477935"><ele>630.0</ele><time>2026-04-11T07:09:20.739Z</time></trkpt><trkpt lat="43.40504247227683" lon="11.897952104720643"><ele>630.0</ele><time>2026-04-11T07:09:22.737Z</time></trkpt><trkpt lat="43.40495966206649" lon="11.897972469207968"><ele>630.0</ele><time>2026-04-11T07:09:23.735Z</time></trkpt><trkpt lat="43.40484829837908" lon="11.897969044742641"><ele>630.0</ele><time>2026-04-11T07:09:24.736Z</time></trkpt><trkpt lat="43.40473536662823" lon="11.897916285638708"><ele>630.0</ele><time>2026-04-11T07:09:26.736Z</time></trkpt><trkpt lat="43.4047067359677" lon="11.898090386036023"><ele>630.0</ele><time>2026-04-11T07:09:29.736Z</time></trkpt><trkpt lat="43.4046765309506" lon="11.898171612481427"><ele>630.0</ele><time>2026-04-11T07:09:30.736Z</time></trkpt><trkpt lat="43.40463643587704" lon="11.89826958164674"><ele>630.0</ele><time>2026-04-11T07:09:31.736Z</time></trkpt><trkpt lat="43.404598913623474" lon="11.898391666068564"><ele>630.0</ele><time>2026-04-11T07:09:32.737Z</time></trkpt><trkpt lat="43.40454173609044" lon="11.898579737683248"><ele>631.6666666666666</ele><time>2026-04-11T07:09:34.737Z</time></trkpt><trkpt lat="43.4044862365159" lon="11.898640645083281"><ele>633.3333333333334</ele><time>2026-04-11T07:09:35.735Z</time></trkpt><trkpt lat="43.40442695182585" lon="11.898705600464417"><ele>635.0</ele><time>2026-04-11T07:09:36.737Z</time></trkpt><trkpt lat="43.40433560401555" lon="11.89875787246346"><ele>636.6666666666667</ele><time>2026-04-11T07:09:38.738Z</time></trkpt><trkpt lat="43.40426249907582" lon="11.898737314051468"><ele>638.3333333333334</ele><time>2026-04-11T07:09:39.733Z</time></trkpt><trkpt lat="43.404180662648145" lon="11.89870699594835"><ele>640.0</ele><time>2026-04-11T07:09:40.736Z</time></trkpt><trkpt lat="43.40409770625697" lon="11.898643871778319"><ele>640.0</ele><time>2026-04-11T07:09:41.735Z</time></trkpt><trkpt lat="43.404022159553996" lon="11.898573967544987"><ele>640.0</ele><time>2026-04-11T07:09:42.736Z</time></trkpt><trkpt lat="43.4039613250388" lon="11.898600039078294"><ele>640.0</ele><time>2026-04-11T07:09:44.736Z</time></trkpt><trkpt lat="43.40397781093768" lon="11.898762209329748"><ele>640.0</ele><time>2026-04-11T07:09:46.736Z</time></trkpt><trkpt lat="43.40393886814661" lon="11.89886115562414"><ele>640.0</ele><time>2026-04-11T07:09:48.736Z</time></trkpt><trkpt lat="43.40382797900957" lon="11.89887966830786"><ele>641.4</ele><time>2026-04-11T07:09:50.736Z</time></trkpt><trkpt lat="43.4037855746922" lon="11.89896262661701"><ele>642.8</ele><time>2026-04-11T07:09:51.736Z</time></trkpt><trkpt lat="43.403730414431045" lon="11.899082484457182"><ele>644.2</ele><time>2026-04-11T07:09:52.736Z</time></trkpt><trkpt lat="43.40368274324246" lon="11.8991497802035"><ele>645.6</ele><time>2026-04-11T07:09:53.741Z</time></trkpt><trkpt lat="43.40355423649054" lon="11.899139598953036"><ele>647.0</ele><time>2026-04-11T07:09:55.736Z</time></trkpt><trkpt lat="43.403477545643256" lon="11.899161525655906"><ele>647.0</ele><time>2026-04-11T07:09:56.739Z</time></trkpt><trkpt lat="43.403393764930904" lon="11.899197696165484"><ele>647.0</ele><time>2026-04-11T07:09:57.737Z</time></trkpt><trkpt lat="43.40332108297292" lon="11.89922635190597"><ele>647.0</ele><time>2026-04-11T07:09:58.733Z</time></trkpt><trkpt lat="43.40325206413112" lon="11.899223180384077"><ele>647.0</ele><time>2026-04-11T07:09:59.736Z</time></trkpt><trkpt lat="43.40318620362739" lon="11.899196237393229"><ele>647.0</ele><time>2026-04-11T07:10:00.736Z</time></trkpt><trkpt lat="43.40311865981985" lon="11.899142624110029"><ele>647.0</ele><time>2026-04-11T07:10:01.735Z</time></trkpt><trkpt lat="43.40306058306451" lon="11.89910512266603"><ele>647.0</ele><time>2026-04-11T07:10:02.737Z</time></trkpt><trkpt lat="43.40294614535609" lon="11.899183638671731"><ele>647.5</ele><time>2026-04-11T07:10:04.737Z</time></trkpt><trkpt lat="43.402875081288" lon="11.899205316747237"><ele>648.0</ele><time>2026-04-11T07:10:05.736Z</time></trkpt><trkpt lat="43.40280464597358" lon="11.899247393423918"><ele>648.5</ele><time>2026-04-11T07:10:06.736Z</time></trkpt><trkpt lat="43.402735739472966" lon="11.899295420595292"><ele>649.0</ele><time>2026-04-11T07:10:07.736Z</time></trkpt><trkpt lat="43.4026331436125" lon="11.899393258659186"><ele>649.5</ele><time>2026-04-11T07:10:09.736Z</time></trkpt><trkpt lat="43.40256822160113" lon="11.899448479037655"><ele>650.0</ele><time>2026-04-11T07:10:10.737Z</time></trkpt><trkpt lat="43.40244247994025" lon="11.899437158261875"><ele>648.25</ele><time>2026-04-11T07:10:12.737Z</time></trkpt><trkpt lat="43.40234604507918" lon="11.899398795905556"><ele>646.5</ele><time>2026-04-11T07:10:13.736Z</time></trkpt><trkpt lat="43.40224887964292" lon="11.89943909535558"><ele>644.75</ele><time>2026-04-11T07:10:15.736Z</time></trkpt><trkpt lat="43.40220880930477" lon="11.899659438751598"><ele>643.0</ele><time>2026-04-11T07:10:28.736Z</time></trkpt><trkpt lat="43.402295046283164" lon="11.899845861994786"><ele>643.0</ele><time>2026-04-11T07:10:35.735Z</time></trkpt><trkpt lat="43.40234647430144" lon="11.899945251097286"><ele>643.0</ele><time>2026-04-11T07:10:36.738Z</time></trkpt><trkpt lat="43.40241408168373" lon="11.900179740026188"><ele>643.0</ele><time>2026-04-11T07:10:39.736Z</time></trkpt><trkpt lat="43.40241494455634" lon="11.900274709369857"><ele>643.0</ele><time>2026-04-11T07:10:42.737Z</time></trkpt><trkpt lat="43.40237667538181" lon="11.900351453000932"><ele>643.0</ele><time>2026-04-11T07:11:15.737Z</time></trkpt><trkpt lat="43.40214153507695" lon="11.900262765715615"><ele>646.8</ele><time>2026-04-11T07:11:53.736Z</time></trkpt><trkpt lat="43.4020857622901" lon="11.900317880944268"><ele>650.5999999999999</ele><time>2026-04-11T07:11:54.737Z</time></trkpt><trkpt lat="43.40203061637523" lon="11.900449985975689"><ele>654.4000000000001</ele><time>2026-04-11T07:11:56.736Z</time></trkpt><trkpt lat="43.40192911997752" lon="11.900581625793034"><ele>658.2</ele><time>2026-04-11T07:11:58.737Z</time></trkpt><trkpt lat="43.401829462780995" lon="11.900620873846446"><ele>662.0</ele><time>2026-04-11T07:12:00.737Z</time></trkpt><trkpt lat="43.40163986641642" lon="11.900678451979715"><ele>662.0</ele><time>2026-04-11T07:12:03.735Z</time></trkpt><trkpt lat="43.401541875379095" lon="11.900787726259768"><ele>662.0</ele><time>2026-04-11T07:12:05.735Z</time></trkpt><trkpt lat="43.40147658498332" lon="11.90086013776114"><ele>662.0</ele><time>2026-04-11T07:12:06.736Z</time></trkpt><trkpt lat="43.40139473972327" lon="11.90097696345121"><ele>662.0</ele><time>2026-04-11T07:12:08.737Z</time></trkpt><trkpt lat="43.40133658054526" lon="11.901053471681413"><ele>662.0</ele><time>2026-04-11T07:12:09.744Z</time></trkpt><trkpt lat="43.401290678731456" lon="11.901123304207958"><ele>667.2</ele><time>2026-04-11T07:12:10.736Z</time></trkpt><trkpt lat="43.40125937245983" lon="11.901276874810186"><ele>672.4000000000001</ele><time>2026-04-11T07:12:12.736Z</time></trkpt><trkpt lat="43.40126104901705" lon="11.901379746633468"><ele>677.5999999999999</ele><time>2026-04-11T07:12:13.737Z</time></trkpt><trkpt lat="43.40125998883261" lon="11.901572973283734"><ele>682.8</ele><time>2026-04-11T07:12:15.742Z</time></trkpt><trkpt lat="43.40125480218451" lon="11.901683656804911"><ele>688.0</ele><time>2026-04-11T07:12:16.738Z</time></trkpt><trkpt lat="43.40126661963084" lon="11.901802833807455"><ele>688.0</ele><time>2026-04-11T07:12:19.739Z</time></trkpt><trkpt lat="43.40129855881669" lon="11.901892961430141"><ele>688.0</ele><time>2026-04-11T07:12:20.737Z</time></trkpt><trkpt lat="43.40134512759875" lon="11.901971014656588"><ele>688.0</ele><time>2026-04-11T07:12:21.737Z</time></trkpt><trkpt lat="43.401468546034316" lon="11.902160473995037"><ele>688.0</ele><time>2026-04-11T07:12:23.737Z</time></trkpt><trkpt lat="43.401535835041216" lon="11.902283383048609"><ele>688.0</ele><time>2026-04-11T07:12:25.736Z</time></trkpt><trkpt lat="43.40160716109338" lon="11.902330571688998"><ele>683.4</ele><time>2026-04-11T07:12:26.738Z</time></trkpt><trkpt lat="43.401688392578976" lon="11.902371482546377"><ele>678.8</ele><time>2026-04-11T07:12:27.737Z</time></trkpt><trkpt lat="43.4017570666033" lon="11.902403174142282"><ele>674.2</ele><time>2026-04-11T07:12:28.738Z</time></trkpt><trkpt lat="43.4018155822877" lon="11.902527629092146"><ele>669.6</ele><time>2026-04-11T07:12:30.738Z</time></trkpt><trkpt lat="43.40175102714348" lon="11.902606027669085"><ele>665.0</ele><time>2026-04-11T07:12:32.737Z</time></trkpt><trkpt lat="43.401632362873634" lon="11.902620318253412"><ele>666.0</ele><time>2026-04-11T07:12:34.736Z</time></trkpt><trkpt lat="43.401570020130535" lon="11.902659281823983"><ele>667.0</ele><time>2026-04-11T07:12:35.735Z</time></trkpt><trkpt lat="43.40151675680841" lon="11.902714718976954"><ele>668.0</ele><time>2026-04-11T07:12:36.736Z</time></trkpt><trkpt lat="43.4014586613058" lon="11.902750555965135"><ele>669.0</ele><time>2026-04-11T07:12:37.736Z</time></trkpt><trkpt lat="43.40138067222584" lon="11.902777255774168"><ele>670.0</ele><time>2026-04-11T07:12:38.736Z</time></trkpt><trkpt lat="43.401306745194" lon="11.902799136883814"><ele>671.0</ele><time>2026-04-11T07:12:39.732Z</time></trkpt><trkpt lat="43.40121019326902" lon="11.90285219863907"><ele>671.0</ele><time>2026-04-11T07:12:40.736Z</time></trkpt><trkpt lat="43.40110384188848" lon="11.902915775831186"><ele>671.0</ele><time>2026-04-11T07:12:41.736Z</time></trkpt><trkpt lat="43.40097792767293" lon="11.902991490856788"><ele>671.0</ele><time>2026-04-11T07:12:42.736Z</time></trkpt><trkpt lat="43.40075188365565" lon="11.903211020182232"><ele>671.0</ele><time>2026-04-11T07:12:44.736Z</time></trkpt><trkpt lat="43.40065884452869" lon="11.903338969643729"><ele>671.0</ele><time>2026-04-11T07:12:45.735Z</time></trkpt><trkpt lat="43.400581547880776" lon="11.903452610060624"><ele>671.0</ele><time>2026-04-11T07:12:46.737Z</time></trkpt><trkpt lat="43.40052222638126" lon="11.903521405368908"><ele>671.0</ele><time>2026-04-11T07:12:47.737Z</time></trkpt><trkpt lat="43.40046022286499" lon="11.90354075745786"><ele>671.0</ele><time>2026-04-11T07:12:48.737Z</time></trkpt><trkpt lat="43.40035653066402" lon="11.903475282790401"><ele>673.2857142857142</ele><time>2026-04-11T07:12:50.736Z</time></trkpt><trkpt lat="43.40029842627954" lon="11.903413822853723"><ele>675.5714285714287</ele><time>2026-04-11T07:12:51.739Z</time></trkpt><trkpt lat="43.40022530691189" lon="11.903365975180064"><ele>677.8571428571429</ele><time>2026-04-11T07:12:52.735Z</time></trkpt><trkpt lat="43.40016806440722" lon="11.903305036497342"><ele>680.1428571428571</ele><time>2026-04-11T07:12:53.735Z</time></trkpt><trkpt lat="43.400110765536745" lon="11.903245279391355"><ele>682.4285714285713</ele><time>2026-04-11T07:12:54.736Z</time></trkpt><trkpt lat="43.40006168612163" lon="11.903190163772566"><ele>684.7142857142858</ele><time>2026-04-11T07:12:55.736Z</time></trkpt><trkpt lat="43.39999553722078" lon="11.903122163067538"><ele>687.0</ele><time>2026-04-11T07:12:56.737Z</time></trkpt><trkpt lat="43.399920386826494" lon="11.903063823699135"><ele>687.0</ele><time>2026-04-11T07:12:57.736Z</time></trkpt><trkpt lat="43.39983679941716" lon="11.903028547881588"><ele>687.0</ele><time>2026-04-11T07:12:58.736Z</time></trkpt><trkpt lat="43.39975925959663" lon="11.903018190266046"><ele>687.0</ele><time>2026-04-11T07:12:59.734Z</time></trkpt><trkpt lat="43.399692503079706" lon="11.903023793090343"><ele>687.0</ele><time>2026-04-11T07:13:00.736Z</time></trkpt><trkpt lat="43.399587166575564" lon="11.903081085433204"><ele>687.0</ele><time>2026-04-11T07:13:02.736Z</time></trkpt><trkpt lat="43.39951040186593" lon="11.903214866519752"><ele>689.75</ele><time>2026-04-11T07:13:04.735Z</time></trkpt><trkpt lat="43.39930660950004" lon="11.903436303698788"><ele>692.5</ele><time>2026-04-11T07:13:08.735Z</time></trkpt><trkpt lat="43.39923991955459" lon="11.903473438194538"><ele>695.25</ele><time>2026-04-11T07:13:09.732Z</time></trkpt><trkpt lat="43.3991597028939" lon="11.903495284754808"><ele>698.0</ele><time>2026-04-11T07:13:10.736Z</time></trkpt><trkpt lat="43.399089423911725" lon="11.90353176517211"><ele>698.0</ele><time>2026-04-11T07:13:11.736Z</time></trkpt><trkpt lat="43.39902138518742" lon="11.903596596839407"><ele>698.0</ele><time>2026-04-11T07:13:12.736Z</time></trkpt><trkpt lat="43.398985377257866" lon="11.903690424534492"><ele>698.0</ele><time>2026-04-11T07:13:13.743Z</time></trkpt><trkpt lat="43.39898297357088" lon="11.903783079638993"><ele>698.0</ele><time>2026-04-11T07:13:14.738Z</time></trkpt><trkpt lat="43.39899818698215" lon="11.903883366574536"><ele>698.0</ele><time>2026-04-11T07:13:15.737Z</time></trkpt><trkpt lat="43.39891420051929" lon="11.903955091356428"><ele>698.0</ele><time>2026-04-11T07:13:17.736Z</time></trkpt><trkpt lat="43.39885180573089" lon="11.903905489870809"><ele>702.2</ele><time>2026-04-11T07:13:18.735Z</time></trkpt><trkpt lat="43.39881103730929" lon="11.90382534463177"><ele>706.4</ele><time>2026-04-11T07:13:19.736Z</time></trkpt><trkpt lat="43.39879738456904" lon="11.90371247634716"><ele>710.6</ele><time>2026-04-11T07:13:20.736Z</time></trkpt><trkpt lat="43.398791831521955" lon="11.90361145199376"><ele>714.8000000000001</ele><time>2026-04-11T07:13:21.735Z</time></trkpt><trkpt lat="43.398717076926424" lon="11.903440915149199"><ele>719.0</ele><time>2026-04-11T07:13:23.737Z</time></trkpt><trkpt lat="43.39863991591534" lon="11.903396615258329"><ele>720.25</ele><time>2026-04-11T07:13:24.737Z</time></trkpt><trkpt lat="43.398558873062704" lon="11.903368268850233"><ele>721.5</ele><time>2026-04-11T07:13:25.737Z</time></trkpt><trkpt lat="43.39837176537671" lon="11.90330040973687"><ele>722.75</ele><time>2026-04-11T07:13:27.735Z</time></trkpt><trkpt lat="43.39827013511562" lon="11.903247153876222"><ele>724.0</ele><time>2026-04-11T07:13:28.738Z</time></trkpt><trkpt lat="43.398170750054256" lon="11.903194265938092"><ele>724.0</ele><time>2026-04-11T07:13:29.736Z</time></trkpt><trkpt lat="43.398089154092766" lon="11.903156392502343"><ele>724.0</ele><time>2026-04-11T07:13:30.738Z</time></trkpt><trkpt lat="43.39801892399116" lon="11.903147238966408"><ele>724.0</ele><time>2026-04-11T07:13:31.736Z</time></trkpt><trkpt lat="43.397947585825776" lon="11.903184900616772"><ele>724.0</ele><time>2026-04-11T07:13:32.737Z</time></trkpt><trkpt lat="43.39789053408339" lon="11.903265510899217"><ele>724.0</ele><time>2026-04-11T07:13:33.737Z</time></trkpt><trkpt lat="43.39785384863255" lon="11.903367057152025"><ele>724.0</ele><time>2026-04-11T07:13:34.737Z</time></trkpt><trkpt lat="43.39781562673614" lon="11.903484229691136"><ele>724.5</ele><time>2026-04-11T07:13:35.736Z</time></trkpt><trkpt lat="43.39777837935499" lon="11.903603867512926"><ele>725.0</ele><time>2026-04-11T07:13:36.737Z</time></trkpt><trkpt lat="43.39773729313895" lon="11.903727235825883"><ele>725.5</ele><time>2026-04-11T07:13:37.737Z</time></trkpt><trkpt lat="43.397693627680766" lon="11.90382706343159"><ele>726.0</ele><time>2026-04-11T07:13:38.737Z</time></trkpt><trkpt lat="43.39767852719543" lon="11.90393049442737"><ele>726.5</ele><time>2026-04-11T07:13:39.737Z</time></trkpt><trkpt lat="43.39764639845426" lon="11.904010254300514"><ele>727.0</ele><time>2026-04-11T07:13:40.737Z</time></trkpt><trkpt lat="43.397552531347586" lon="11.904077273399398"><ele>727.0</ele><time>2026-04-11T07:13:42.737Z</time></trkpt><trkpt lat="43.397539758769476" lon="11.904166109786788"><ele>727.0</ele><time>2026-04-11T07:13:45.736Z</time></trkpt><trkpt lat="43.397534520250154" lon="11.904265308028853"><ele>727.0</ele><time>2026-04-11T07:13:51.737Z</time></trkpt><trkpt lat="43.39753893838478" lon="11.904514225960817"><ele>727.0</ele><time>2026-04-11T07:13:55.737Z</time></trkpt><trkpt lat="43.3975692901317" lon="11.904606385471133"><ele>727.0</ele><time>2026-04-11T07:13:57.737Z</time></trkpt><trkpt lat="43.39758526949988" lon="11.904707857986566"><ele>726.6</ele><time>2026-04-11T07:13:59.737Z</time></trkpt><trkpt lat="43.397608075965465" lon="11.904801457170178"><ele>726.2</ele><time>2026-04-11T07:14:06.737Z</time></trkpt><trkpt lat="43.397613236101456" lon="11.904927509014469"><ele>725.8</ele><time>2026-04-11T07:14:08.738Z</time></trkpt><trkpt lat="43.397600035153815" lon="11.905061788528222"><ele>725.4</ele><time>2026-04-11T07:14:10.738Z</time></trkpt><trkpt lat="43.39755880207415" lon="11.905146303487593"><ele>725.0</ele><time>2026-04-11T07:14:12.737Z</time></trkpt><trkpt lat="43.397354523233375" lon="11.905307193646422"><ele>725.8333333333333</ele><time>2026-04-11T07:14:15.737Z</time></trkpt><trkpt lat="43.3972619013629" lon="11.905340830064237"><ele>726.6666666666666</ele><time>2026-04-11T07:14:16.742Z</time></trkpt><trkpt lat="43.39718586625835" lon="11.905378290774342"><ele>727.5</ele><time>2026-04-11T07:14:17.735Z</time></trkpt><trkpt lat="43.39709950101141" lon="11.905411592642675"><ele>728.3333333333334</ele><time>2026-04-11T07:14:18.736Z</time></trkpt><trkpt lat="43.39702767374875" lon="11.905444225841244"><ele>729.1666666666667</ele><time>2026-04-11T07:14:19.732Z</time></trkpt><trkpt lat="43.39694478722678" lon="11.905473163499602"><ele>730.0</ele><time>2026-04-11T07:14:20.736Z</time></trkpt><trkpt lat="43.39685429993067" lon="11.905510033121804"><ele>730.0</ele><time>2026-04-11T07:14:21.739Z</time></trkpt><trkpt lat="43.3967531478075" lon="11.905545866151284"><ele>730.0</ele><time>2026-04-11T07:14:22.737Z</time></trkpt><trkpt lat="43.3966601807662" lon="11.905586658518107"><ele>730.0</ele><time>2026-04-11T07:14:23.735Z</time></trkpt><trkpt lat="43.39656508530411" lon="11.905627432583849"><ele>730.0</ele><time>2026-04-11T07:14:24.736Z</time></trkpt><trkpt lat="43.39647929762711" lon="11.90565977614253"><ele>730.0</ele><time>2026-04-11T07:14:25.735Z</time></trkpt><trkpt lat="43.39640791174205" lon="11.905687810155863"><ele>730.3333333333334</ele><time>2026-04-11T07:14:26.736Z</time></trkpt><trkpt lat="43.39632405598589" lon="11.90578096176733"><ele>730.6666666666667</ele><time>2026-04-11T07:14:28.737Z</time></trkpt><trkpt lat="43.39633631144113" lon="11.905868228706167"><ele>731.0</ele><time>2026-04-11T07:14:29.737Z</time></trkpt><trkpt lat="43.3963781378537" lon="11.905952388734743"><ele>731.3333333333334</ele><time>2026-04-11T07:14:30.738Z</time></trkpt><trkpt lat="43.39644119439927" lon="11.90604074027309"><ele>731.6666666666666</ele><time>2026-04-11T07:14:31.737Z</time></trkpt><trkpt lat="43.39650177013404" lon="11.906126481497067"><ele>732.0</ele><time>2026-04-11T07:14:32.737Z</time></trkpt><trkpt lat="43.39654955197651" lon="11.906209708575437"><ele>732.0</ele><time>2026-04-11T07:14:33.738Z</time></trkpt><trkpt lat="43.39664618065005" lon="11.906364494347592"><ele>732.0</ele><time>2026-04-11T07:14:35.738Z</time></trkpt><trkpt lat="43.39668259105305" lon="11.906453676491962"><ele>732.0</ele><time>2026-04-11T07:14:36.737Z</time></trkpt><trkpt lat="43.396688679746354" lon="11.906541664920779"><ele>732.0</ele><time>2026-04-11T07:14:37.738Z</time></trkpt><trkpt lat="43.39663888353983" lon="11.906703716617221"><ele>732.0</ele><time>2026-04-11T07:14:39.736Z</time></trkpt><trkpt lat="43.39660682026605" lon="11.90680237424692"><ele>731.1666666666666</ele><time>2026-04-11T07:14:40.738Z</time></trkpt><trkpt lat="43.39657727244256" lon="11.906893914682257"><ele>730.3333333333334</ele><time>2026-04-11T07:14:41.738Z</time></trkpt><trkpt lat="43.39657162979876" lon="11.90699334693251"><ele>729.5</ele><time>2026-04-11T07:14:42.738Z</time></trkpt><trkpt lat="43.396571420068774" lon="11.907097746247006"><ele>728.6666666666667</ele><time>2026-04-11T07:14:43.738Z</time></trkpt><trkpt lat="43.396556334487336" lon="11.907191100363297"><ele>727.8333333333334</ele><time>2026-04-11T07:14:44.738Z</time></trkpt><trkpt lat="43.39653329147703" lon="11.907357084624703"><ele>727.0</ele><time>2026-04-11T07:14:46.738Z</time></trkpt><trkpt lat="43.396453998251566" lon="11.907491313971576"><ele>727.0</ele><time>2026-04-11T07:14:48.745Z</time></trkpt><trkpt lat="43.39638875340996" lon="11.907534977697598"><ele>727.0</ele><time>2026-04-11T07:14:49.745Z</time></trkpt><trkpt lat="43.39632150788084" lon="11.907541141428004"><ele>727.0</ele><time>2026-04-11T07:14:50.735Z</time></trkpt><trkpt lat="43.39622988444293" lon="11.907646239791601"><ele>727.0</ele><time>2026-04-11T07:14:52.739Z</time></trkpt><trkpt lat="43.396206839101204" lon="11.907752633195475"><ele>727.0</ele><time>2026-04-11T07:14:53.742Z</time></trkpt><trkpt lat="43.39614286757161" lon="11.907814522412012"><ele>727.0</ele><time>2026-04-11T07:14:54.736Z</time></trkpt><trkpt lat="43.395931982446854" lon="11.907950157036018"><ele>728.3333333333334</ele><time>2026-04-11T07:14:58.733Z</time></trkpt><trkpt lat="43.395869710539586" lon="11.908063362857193"><ele>729.6666666666667</ele><time>2026-04-11T07:15:00.735Z</time></trkpt><trkpt lat="43.39582613838946" lon="11.908136539494048"><ele>731.0</ele><time>2026-04-11T07:15:01.735Z</time></trkpt><trkpt lat="43.39577816038174" lon="11.908208662028498"><ele>732.3333333333334</ele><time>2026-04-11T07:15:02.737Z</time></trkpt><trkpt lat="43.395722061613455" lon="11.908301344716808"><ele>733.6666666666666</ele><time>2026-04-11T07:15:03.736Z</time></trkpt><trkpt lat="43.39567267113896" lon="11.90842355914991"><ele>735.0</ele><time>2026-04-11T07:15:04.736Z</time></trkpt><trkpt lat="43.39561213958573" lon="11.90849871310992"><ele>731.0</ele><time>2026-04-11T07:15:05.736Z</time></trkpt><trkpt lat="43.39552077925916" lon="11.908578323754767"><ele>727.0</ele><time>2026-04-11T07:15:07.735Z</time></trkpt><trkpt lat="43.39544399096364" lon="11.908616698075006"><ele>723.0</ele><time>2026-04-11T07:15:08.736Z</time></trkpt><trkpt lat="43.39536704451607" lon="11.90865192339806"><ele>719.0</ele><time>2026-04-11T07:15:09.736Z</time></trkpt><trkpt lat="43.39526104279282" lon="11.908656893388475"><ele>715.0</ele><time>2026-04-11T07:15:10.742Z</time></trkpt><trkpt lat="43.39515091637349" lon="11.908645065808404"><ele>715.0</ele><time>2026-04-11T07:15:11.736Z</time></trkpt><trkpt lat="43.39505136761406" lon="11.90862241773664"><ele>715.0</ele><time>2026-04-11T07:15:12.737Z</time></trkpt><trkpt lat="43.394969994203315" lon="11.908624726464664"><ele>715.0</ele><time>2026-04-11T07:15:13.735Z</time></trkpt><trkpt lat="43.3948828083278" lon="11.908630090371735"><ele>715.0</ele><time>2026-04-11T07:15:14.736Z</time></trkpt><trkpt lat="43.39477645241147" lon="11.908639235180617"><ele>715.0</ele><time>2026-04-11T07:15:15.736Z</time></trkpt><trkpt lat="43.394584564809335" lon="11.90866391097355"><ele>715.1666666666667</ele><time>2026-04-11T07:15:17.736Z</time></trkpt><trkpt lat="43.39449266533739" lon="11.908654711239706"><ele>715.3333333333334</ele><time>2026-04-11T07:15:18.736Z</time></trkpt><trkpt lat="43.39441896957114" lon="11.90866143500903"><ele>715.5</ele><time>2026-04-11T07:15:19.737Z</time></trkpt><trkpt lat="43.39431217443036" lon="11.908665624398392"><ele>715.6666666666666</ele><time>2026-04-11T07:15:21.736Z</time></trkpt><trkpt lat="43.39424134644261" lon="11.908610817084476"><ele>715.8333333333333</ele><time>2026-04-11T07:15:22.736Z</time></trkpt><trkpt lat="43.3941964093465" lon="11.908533356662549"><ele>716.0</ele><time>2026-04-11T07:15:23.735Z</time></trkpt><trkpt lat="43.39415477093234" lon="11.908429721630837"><ele>720.4</ele><time>2026-04-11T07:15:24.737Z</time></trkpt><trkpt lat="43.3941149821587" lon="11.908325843453543"><ele>724.8</ele><time>2026-04-11T07:15:25.736Z</time></trkpt><trkpt lat="43.39405086206597" lon="11.908169770164875"><ele>729.1999999999999</ele><time>2026-04-11T07:15:27.735Z</time></trkpt><trkpt lat="43.3940446112981" lon="11.908021659695535"><ele>733.5999999999999</ele><time>2026-04-11T07:15:29.736Z</time></trkpt><trkpt lat="43.39393687092523" lon="11.907991598047513"><ele>738.0</ele><time>2026-04-11T07:15:31.736Z</time></trkpt><trkpt lat="43.39386811650096" lon="11.907998970271187"><ele>739.2</ele><time>2026-04-11T07:15:32.736Z</time></trkpt><trkpt lat="43.393760549893315" lon="11.90799975243687"><ele>740.4</ele><time>2026-04-11T07:15:33.735Z</time></trkpt><trkpt lat="43.39366807782563" lon="11.907997353393517"><ele>741.6</ele><time>2026-04-11T07:15:34.736Z</time></trkpt><trkpt lat="43.39356837595691" lon="11.907983821763038"><ele>742.8000000000001</ele><time>2026-04-11T07:15:35.735Z</time></trkpt><trkpt lat="43.393495648512996" lon="11.907927407476821"><ele>744.0</ele><time>2026-04-11T07:15:37.736Z</time></trkpt><trkpt lat="43.393450312024726" lon="11.908218639434487"><ele>744.0</ele><time>2026-04-11T07:15:41.737Z</time></trkpt><trkpt lat="43.393514399963465" lon="11.908324049865112"><ele>744.0</ele><time>2026-04-11T07:15:42.736Z</time></trkpt><trkpt lat="43.39354349044972" lon="11.908436759669343"><ele>744.0</ele><time>2026-04-11T07:15:43.736Z</time></trkpt><trkpt lat="43.393515646294446" lon="11.908614119632755"><ele>744.0</ele><time>2026-04-11T07:15:45.736Z</time></trkpt><trkpt lat="43.3934983783359" lon="11.90871141085726"><ele>744.0</ele><time>2026-04-11T07:15:46.734Z</time></trkpt><trkpt lat="43.39348458493467" lon="11.908800972300854"><ele>743.1666666666666</ele><time>2026-04-11T07:15:47.735Z</time></trkpt><trkpt lat="43.39343671588897" lon="11.908891423367079"><ele>742.3333333333334</ele><time>2026-04-11T07:15:48.737Z</time></trkpt><trkpt lat="43.39338802826527" lon="11.90900272200021"><ele>741.5</ele><time>2026-04-11T07:15:49.736Z</time></trkpt><trkpt lat="43.39335319301316" lon="11.909102512141219"><ele>740.6666666666667</ele><time>2026-04-11T07:15:50.736Z</time></trkpt><trkpt lat="43.39331540904809" lon="11.909189977967898"><ele>739.8333333333334</ele><time>2026-04-11T07:15:51.736Z</time></trkpt><trkpt lat="43.3932553887573" lon="11.909218707338173"><ele>739.0</ele><time>2026-04-11T07:15:52.736Z</time></trkpt><trkpt lat="43.393190301715705" lon="11.90929521788403"><ele>739.6666666666667</ele><time>2026-04-11T07:15:53.735Z</time></trkpt><trkpt lat="43.39313187048727" lon="11.909363218516562"><ele>740.3333333333334</ele><time>2026-04-11T07:15:54.737Z</time></trkpt><trkpt lat="43.393075268684264" lon="11.909450155676627"><ele>741.0</ele><time>2026-04-11T07:15:55.736Z</time></trkpt><trkpt lat="43.39303036795148" lon="11.909561789938973"><ele>741.6666666666666</ele><time>2026-04-11T07:15:56.736Z</time></trkpt><trkpt lat="43.392986918876026" lon="11.909628970504091"><ele>742.3333333333333</ele><time>2026-04-11T07:15:57.736Z</time></trkpt><trkpt lat="43.392913519571245" lon="11.909684255131687"><ele>743.0</ele><time>2026-04-11T07:15:58.736Z</time></trkpt><trkpt lat="43.392768290880134" lon="11.90974592557158"><ele>743.0</ele><time>2026-04-11T07:16:01.736Z</time></trkpt><trkpt lat="43.39268312256345" lon="11.909769785129136"><ele>743.0</ele><time>2026-04-11T07:16:02.736Z</time></trkpt><trkpt lat="43.39260705304681" lon="11.909822986646496"><ele>743.0</ele><time>2026-04-11T07:16:03.736Z</time></trkpt><trkpt lat="43.39252885970768" lon="11.909893477742125"><ele>743.0</ele><time>2026-04-11T07:16:05.736Z</time></trkpt><trkpt lat="43.39252365972887" lon="11.910041646216493"><ele>743.0</ele><time>2026-04-11T07:16:07.737Z</time></trkpt><trkpt lat="43.39259073877152" lon="11.910048867700702"><ele>743.0</ele><time>2026-04-11T07:16:09.735Z</time></trkpt><trkpt lat="43.39274719754125" lon="11.910033205850043"><ele>743.6666666666666</ele><time>2026-04-11T07:16:11.735Z</time></trkpt><trkpt lat="43.392824653736156" lon="11.910086715392769"><ele>744.3333333333333</ele><time>2026-04-11T07:16:12.737Z</time></trkpt><trkpt lat="43.392908746106194" lon="11.910141476932255"><ele>745.0</ele><time>2026-04-11T07:16:13.737Z</time></trkpt><trkpt lat="43.39297197234561" lon="11.910157741280235"><ele>745.6666666666666</ele><time>2026-04-11T07:16:14.737Z</time></trkpt><trkpt lat="43.393042641059104" lon="11.91018434472926"><ele>746.3333333333334</ele><time>2026-04-11T07:16:15.735Z</time></trkpt><trkpt lat="43.39309861627794" lon="11.910234553160851"><ele>747.0</ele><time>2026-04-11T07:16:16.736Z</time></trkpt><trkpt lat="43.39317118716952" lon="11.910274137863981"><ele>743.5</ele><time>2026-04-11T07:16:17.735Z</time></trkpt><trkpt lat="43.393279930305965" lon="11.910381859221589"><ele>740.0</ele><time>2026-04-11T07:16:19.733Z</time></trkpt><trkpt lat="43.393310301145846" lon="11.910626274311706"><ele>736.5</ele><time>2026-04-11T07:16:21.739Z</time></trkpt><trkpt lat="43.39330132147628" lon="11.91079739213371"><ele>733.0</ele><time>2026-04-11T07:16:22.732Z</time></trkpt><trkpt lat="43.39328669241349" lon="11.910927835692991"><ele>733.0</ele><time>2026-04-11T07:16:23.737Z</time></trkpt><trkpt lat="43.393308636577814" lon="11.911099864083175"><ele>733.0</ele><time>2026-04-11T07:16:24.736Z</time></trkpt><trkpt lat="43.393285706555375" lon="11.911213003164638"><ele>733.0</ele><time>2026-04-11T07:16:25.737Z</time></trkpt><trkpt lat="43.39324636521276" lon="11.911367731575528"><ele>733.0</ele><time>2026-04-11T07:16:27.737Z</time></trkpt><trkpt lat="43.39333113922459" lon="11.911457856381949"><ele>733.0</ele><time>2026-04-11T07:16:29.736Z</time></trkpt><trkpt lat="43.3934582319477" lon="11.911387405694299"><ele>733.0</ele><time>2026-04-11T07:16:31.736Z</time></trkpt><trkpt lat="43.39352475797575" lon="11.911302354781544"><ele>733.0</ele><time>2026-04-11T07:16:32.738Z</time></trkpt><trkpt lat="43.393604062746476" lon="11.911266638814238"><ele>733.0</ele><time>2026-04-11T07:16:33.741Z</time></trkpt><trkpt lat="43.39369512770607" lon="11.911345602435421"><ele>733.0</ele><time>2026-04-11T07:16:35.74Z</time></trkpt><trkpt lat="43.39371422644806" lon="11.911451677502445"><ele>733.0</ele><time>2026-04-11T07:16:36.737Z</time></trkpt><trkpt lat="43.393717927463655" lon="11.911600213637577"><ele>733.0</ele><time>2026-04-11T07:16:37.736Z</time></trkpt><trkpt lat="43.39369522083371" lon="11.911701909038829"><ele>733.0</ele><time>2026-04-11T07:16:38.733Z</time></trkpt><trkpt lat="43.39369742204118" lon="11.91182491367873"><ele>733.0</ele><time>2026-04-11T07:16:39.737Z</time></trkpt><trkpt lat="43.39374777469379" lon="11.911987556761227"><ele>733.0</ele><time>2026-04-11T07:16:41.736Z</time></trkpt><trkpt lat="43.39384861848251" lon="11.912170198777714"><ele>734.3333333333334</ele><time>2026-04-11T07:16:43.737Z</time></trkpt><trkpt lat="43.39388700077274" lon="11.912239927963817"><ele>735.6666666666667</ele><time>2026-04-11T07:16:44.737Z</time></trkpt><trkpt lat="43.39390701304322" lon="11.912352844110012"><ele>737.0</ele><time>2026-04-11T07:16:46.738Z</time></trkpt><trkpt lat="43.39391014787012" lon="11.91245091091065"><ele>738.3333333333334</ele><time>2026-04-11T07:16:48.738Z</time></trkpt><trkpt lat="43.39397491253435" lon="11.912503023576793"><ele>739.6666666666666</ele><time>2026-04-11T07:16:51.737Z</time></trkpt><trkpt lat="43.39400631170457" lon="11.912590879231601"><ele>741.0</ele><time>2026-04-11T07:16:53.737Z</time></trkpt><trkpt lat="43.39402973715031" lon="11.912708501606154"><ele>742.0</ele><time>2026-04-11T07:17:04.738Z</time></trkpt><trkpt lat="43.393808697912" lon="11.912646776744618"><ele>743.0</ele><time>2026-04-11T07:17:08.738Z</time></trkpt><trkpt lat="43.393671585747036" lon="11.91252474219403"><ele>744.0</ele><time>2026-04-11T07:17:10.737Z</time></trkpt><trkpt lat="43.393566004193154" lon="11.912491910951966"><ele>744.0</ele><time>2026-04-11T07:17:11.739Z</time></trkpt><trkpt lat="43.393471654052675" lon="11.912501831226324"><ele>744.0</ele><time>2026-04-11T07:17:12.738Z</time></trkpt><trkpt lat="43.393364362380844" lon="11.912485155584548"><ele>744.0</ele><time>2026-04-11T07:17:13.736Z</time></trkpt><trkpt lat="43.393266947212034" lon="11.912488827574782"><ele>744.0</ele><time>2026-04-11T07:17:14.738Z</time></trkpt><trkpt lat="43.39320498835785" lon="11.912463551626416"><ele>744.0</ele><time>2026-04-11T07:17:15.737Z</time></trkpt><trkpt lat="43.39311990632315" lon="11.91247465536318"><ele>744.0</ele><time>2026-04-11T07:17:17.736Z</time></trkpt><trkpt lat="43.39305963716539" lon="11.912507276006158"><ele>744.0</ele><time>2026-04-11T07:17:18.737Z</time></trkpt><trkpt lat="43.393013220368054" lon="11.9124122116693"><ele>744.0</ele><time>2026-04-11T07:17:20.736Z</time></trkpt><trkpt lat="43.39299024266807" lon="11.912290890170878"><ele>744.0</ele><time>2026-04-11T07:17:21.736Z</time></trkpt><trkpt lat="43.392941725262446" lon="11.912179903477297"><ele>744.0</ele><time>2026-04-11T07:17:22.737Z</time></trkpt><trkpt lat="43.392843921403795" lon="11.912151858363641"><ele>744.0</ele><time>2026-04-11T07:17:24.738Z</time></trkpt><trkpt lat="43.39270102490016" lon="11.912227779677249"><ele>749.4000000000001</ele><time>2026-04-11T07:17:26.739Z</time></trkpt><trkpt lat="43.39258904548437" lon="11.912128617745843"><ele>754.8</ele><time>2026-04-11T07:17:28.738Z</time></trkpt><trkpt lat="43.392513826900505" lon="11.912006792235793"><ele>760.2</ele><time>2026-04-11T07:17:29.738Z</time></trkpt><trkpt lat="43.39243970463324" lon="11.911932470281585"><ele>765.5999999999999</ele><time>2026-04-11T07:17:30.737Z</time></trkpt><trkpt lat="43.39236195846966" lon="11.911889459095484"><ele>771.0</ele><time>2026-04-11T07:17:31.738Z</time></trkpt><trkpt lat="43.392267747889306" lon="11.9118406986373"><ele>774.1999999999999</ele><time>2026-04-11T07:17:32.737Z</time></trkpt><trkpt lat="43.392158186772846" lon="11.911774753628224"><ele>777.4</ele><time>2026-04-11T07:17:33.737Z</time></trkpt><trkpt lat="43.39207766669655" lon="11.911736488497477"><ele>780.6</ele><time>2026-04-11T07:17:34.738Z</time></trkpt><trkpt lat="43.39202114304934" lon="11.911653566181894"><ele>783.8</ele><time>2026-04-11T07:17:36.737Z</time></trkpt><trkpt lat="43.3920565879472" lon="11.911474078851441"><ele>787.0</ele><time>2026-04-11T07:17:38.737Z</time></trkpt><trkpt lat="43.39209926989471" lon="11.911383991580042"><ele>787.0</ele><time>2026-04-11T07:17:39.734Z</time></trkpt><trkpt lat="43.39212151682099" lon="11.911238523162483"><ele>787.0</ele><time>2026-04-11T07:17:41.735Z</time></trkpt><trkpt lat="43.392047126812415" lon="11.911157997678039"><ele>787.0</ele><time>2026-04-11T07:17:43.736Z</time></trkpt><trkpt lat="43.391967886692726" lon="11.911107843599334"><ele>787.0</ele><time>2026-04-11T07:17:44.738Z</time></trkpt><trkpt lat="43.391872261210985" lon="11.911045428046586"><ele>787.0</ele><time>2026-04-11T07:17:45.737Z</time></trkpt><trkpt lat="43.391790738505875" lon="11.911031782252193"><ele>787.0</ele><time>2026-04-11T07:17:46.737Z</time></trkpt><trkpt lat="43.39168879360321" lon="11.911047601168233"><ele>787.0</ele><time>2026-04-11T07:17:47.737Z</time></trkpt><trkpt lat="43.39148287433945" lon="11.9110441460453"><ele>787.0</ele><time>2026-04-11T07:17:49.735Z</time></trkpt><trkpt lat="43.39139077314456" lon="11.911073291069972"><ele>787.0</ele><time>2026-04-11T07:17:50.737Z</time></trkpt><trkpt lat="43.391318791570214" lon="11.911114664324561"><ele>791.25</ele><time>2026-04-11T07:17:51.736Z</time></trkpt><trkpt lat="43.39120909262752" lon="11.911093771058441"><ele>795.5</ele><time>2026-04-11T07:17:52.74Z</time></trkpt><trkpt lat="43.39110042732198" lon="11.91110135401333"><ele>799.75</ele><time>2026-04-11T07:17:53.738Z</time></trkpt><trkpt lat="43.39099039848121" lon="11.911129128848701"><ele>804.0</ele><time>2026-04-11T07:17:54.739Z</time></trkpt><trkpt lat="43.39086321573358" lon="11.911130414041327"><ele>804.0</ele><time>2026-04-11T07:17:55.737Z</time></trkpt><trkpt lat="43.39073672764683" lon="11.911155402327935"><ele>804.0</ele><time>2026-04-11T07:17:56.738Z</time></trkpt><trkpt lat="43.39062381567388" lon="11.911179503650207"><ele>804.0</ele><time>2026-04-11T07:17:57.737Z</time></trkpt><trkpt lat="43.390521633417265" lon="11.91118465849221"><ele>804.0</ele><time>2026-04-11T07:17:58.738Z</time></trkpt><trkpt lat="43.39039312057304" lon="11.911185067572141"><ele>807.4000000000001</ele><time>2026-04-11T07:17:59.733Z</time></trkpt><trkpt lat="43.39029649859159" lon="11.911237146222097"><ele>810.8</ele><time>2026-04-11T07:18:00.738Z</time></trkpt><trkpt lat="43.39018281952113" lon="11.911240034451806"><ele>814.2</ele><time>2026-04-11T07:18:01.737Z</time></trkpt><trkpt lat="43.39008666729159" lon="11.911193856913073"><ele>817.5999999999999</ele><time>2026-04-11T07:18:02.738Z</time></trkpt><trkpt lat="43.39003209126474" lon="11.911141781153034"><ele>821.0</ele><time>2026-04-11T07:18:03.738Z</time></trkpt><trkpt lat="43.38999557165866" lon="11.911062600810414"><ele>821.0</ele><time>2026-04-11T07:18:04.736Z</time></trkpt><trkpt lat="43.3899310233104" lon="11.910986354999284"><ele>821.0</ele><time>2026-04-11T07:18:05.73Z</time></trkpt><trkpt lat="43.38987667254567" lon="11.910879746776248"><ele>821.0</ele><time>2026-04-11T07:18:06.738Z</time></trkpt><trkpt lat="43.38981416022364" lon="11.910821060712076"><ele>821.0</ele><time>2026-04-11T07:18:07.736Z</time></trkpt><trkpt lat="43.389735657118145" lon="11.9107848989889"><ele>821.0</ele><time>2026-04-11T07:18:08.737Z</time></trkpt><trkpt lat="43.389606001018095" lon="11.910850382956674"><ele>821.5999999999999</ele><time>2026-04-11T07:18:24.741Z</time></trkpt><trkpt lat="43.38960751705335" lon="11.91097472574908"><ele>822.2</ele><time>2026-04-11T07:18:26.74Z</time></trkpt><trkpt lat="43.38960150476293" lon="11.91106683769829"><ele>822.8</ele><time>2026-04-11T07:18:27.736Z</time></trkpt><trkpt lat="43.38957961303845" lon="11.911212937597407"><ele>823.4000000000001</ele><time>2026-04-11T07:18:29.737Z</time></trkpt><trkpt lat="43.38951075638874" lon="11.911386732925346"><ele>824.0</ele><time>2026-04-11T07:18:31.736Z</time></trkpt><trkpt lat="43.38953639563601" lon="11.911520526402384"><ele>824.0000000000001</ele><time>2026-04-11T07:18:33.738Z</time></trkpt><trkpt lat="43.38956998837598" lon="11.911623359364189"><ele>824.0</ele><time>2026-04-11T07:18:34.738Z</time></trkpt><trkpt lat="43.38960739642418" lon="11.911720469740729"><ele>824.0</ele><time>2026-04-11T07:18:35.738Z</time></trkpt><trkpt lat="43.38964198937402" lon="11.911812582002023"><ele>824.0</ele><time>2026-04-11T07:18:36.739Z</time></trkpt><trkpt lat="43.38967699602385" lon="11.911900485608534"><ele>824.0000000000001</ele><time>2026-04-11T07:18:37.747Z</time></trkpt><trkpt lat="43.389723825832895" lon="11.911984601270861"><ele>824.0</ele><time>2026-04-11T07:18:38.738Z</time></trkpt><trkpt lat="43.38980572595178" lon="11.912116345314116"><ele>825.1666666666667</ele><time>2026-04-11T07:18:40.739Z</time></trkpt><trkpt lat="43.38988583224416" lon="11.912165854518015"><ele>826.3333333333334</ele><time>2026-04-11T07:18:41.734Z</time></trkpt><trkpt lat="43.38996919608632" lon="11.9122106531863"><ele>827.5</ele><time>2026-04-11T07:18:42.737Z</time></trkpt><trkpt lat="43.39005159835934" lon="11.91227764170086"><ele>828.6666666666667</ele><time>2026-04-11T07:18:44.737Z</time></trkpt><trkpt lat="43.39007136878065" lon="11.912375911194427"><ele>829.8333333333334</ele><time>2026-04-11T07:18:45.738Z</time></trkpt><trkpt lat="43.39007572410492" lon="11.912487179721362"><ele>831.0</ele><time>2026-04-11T07:18:46.736Z</time></trkpt><trkpt lat="43.39007703449734" lon="11.912584999354403"><ele>833.1999999999999</ele><time>2026-04-11T07:18:47.736Z</time></trkpt><trkpt lat="43.39011561249201" lon="11.912678269526056"><ele>835.4</ele><time>2026-04-11T07:18:48.736Z</time></trkpt><trkpt lat="43.390150518231" lon="11.912778941337928"><ele>837.6</ele><time>2026-04-11T07:18:49.738Z</time></trkpt><trkpt lat="43.390168880631556" lon="11.91289689129783"><ele>839.8</ele><time>2026-04-11T07:18:50.739Z</time></trkpt><trkpt lat="43.39020074547457" lon="11.913133162295047"><ele>842.0</ele><time>2026-04-11T07:18:52.745Z</time></trkpt><trkpt lat="43.390203031047086" lon="11.91322446863357"><ele>842.0</ele><time>2026-04-11T07:18:53.734Z</time></trkpt><trkpt lat="43.39020569879766" lon="11.913336471307717"><ele>842.0</ele><time>2026-04-11T07:18:54.738Z</time></trkpt><trkpt lat="43.390200854903384" lon="11.913423733563574"><ele>842.0</ele><time>2026-04-11T07:18:55.736Z</time></trkpt><trkpt lat="43.390203590947024" lon="11.91359575644776"><ele>842.0</ele><time>2026-04-11T07:18:57.736Z</time></trkpt><trkpt lat="43.39020968691566" lon="11.913690285812509"><ele>842.0</ele><time>2026-04-11T07:18:58.745Z</time></trkpt><trkpt lat="43.39021203357864" lon="11.913859316516568"><ele>842.6</ele><time>2026-04-11T07:19:00.738Z</time></trkpt><trkpt lat="43.39025652076336" lon="11.913969445269316"><ele>843.2</ele><time>2026-04-11T07:19:02.738Z</time></trkpt><trkpt lat="43.39027241069138" lon="11.914071908001262"><ele>843.8</ele><time>2026-04-11T07:19:05.748Z</time></trkpt><trkpt lat="43.39020060639008" lon="11.914169802798972"><ele>844.4</ele><time>2026-04-11T07:19:07.746Z</time></trkpt><trkpt lat="43.39015928852273" lon="11.914308063914246"><ele>845.0</ele><time>2026-04-11T07:19:09.736Z</time></trkpt><trkpt lat="43.39009607886483" lon="11.914360258404699"><ele>843.6</ele><time>2026-04-11T07:19:26.738Z</time></trkpt><trkpt lat="43.3899293905173" lon="11.914276483768521"><ele>842.2</ele><time>2026-04-11T07:19:30.738Z</time></trkpt><trkpt lat="43.389869239104314" lon="11.914307186098839"><ele>840.8</ele><time>2026-04-11T07:19:31.737Z</time></trkpt><trkpt lat="43.389827885924745" lon="11.914388599057176"><ele>839.4</ele><time>2026-04-11T07:19:32.737Z</time></trkpt><trkpt lat="43.38977691017995" lon="11.914464748919814"><ele>838.0</ele><time>2026-04-11T07:19:33.738Z</time></trkpt><trkpt lat="43.3897155739045" lon="11.914519187308231"><ele>836.9999999999999</ele><time>2026-04-11T07:19:34.739Z</time></trkpt><trkpt lat="43.389656029622486" lon="11.914563360460336"><ele>836.0</ele><time>2026-04-11T07:19:35.747Z</time></trkpt><trkpt lat="43.38960782742269" lon="11.914622341629741"><ele>835.0</ele><time>2026-04-11T07:19:36.738Z</time></trkpt><trkpt lat="43.3895363722795" lon="11.914683761838143"><ele>834.0</ele><time>2026-04-11T07:19:37.736Z</time></trkpt><trkpt lat="43.38948638312647" lon="11.914741830309637"><ele>833.0</ele><time>2026-04-11T07:19:38.736Z</time></trkpt><trkpt lat="43.38942570987034" lon="11.914799601161652"><ele>831.9999999999999</ele><time>2026-04-11T07:19:39.736Z</time></trkpt><trkpt lat="43.389377154840744" lon="11.914862562029398"><ele>831.0</ele><time>2026-04-11T07:19:40.738Z</time></trkpt><trkpt lat="43.38928779769554" lon="11.914948607697568"><ele>831.0</ele><time>2026-04-11T07:19:42.747Z</time></trkpt><trkpt lat="43.389183229772634" lon="11.914980840233396"><ele>831.0</ele><time>2026-04-11T07:19:44.738Z</time></trkpt><trkpt lat="43.389092442417684" lon="11.915088826734301"><ele>831.0</ele><time>2026-04-11T07:19:46.745Z</time></trkpt><trkpt lat="43.38899716479899" lon="11.915124567734196"><ele>831.0</ele><time>2026-04-11T07:19:48.742Z</time></trkpt><trkpt lat="43.388799890599806" lon="11.915243694639305"><ele>827.8333333333334</ele><time>2026-04-11T07:19:52.739Z</time></trkpt><trkpt lat="43.388748331484514" lon="11.915319622941915"><ele>824.6666666666667</ele><time>2026-04-11T07:19:53.744Z</time></trkpt><trkpt lat="43.38869306844849" lon="11.915364632373448"><ele>821.5</ele><time>2026-04-11T07:19:54.747Z</time></trkpt><trkpt lat="43.3886338138951" lon="11.915405962264598"><ele>818.3333333333334</ele><time>2026-04-11T07:19:55.745Z</time></trkpt><trkpt lat="43.388513261399844" lon="11.915484278788599"><ele>815.1666666666667</ele><time>2026-04-11T07:19:57.746Z</time></trkpt><trkpt lat="43.38845412291833" lon="11.915540048693325"><ele>812.0</ele><time>2026-04-11T07:19:58.744Z</time></trkpt><trkpt lat="43.3883803466748" lon="11.915595496450868"><ele>812.0000000000001</ele><time>2026-04-11T07:19:59.736Z</time></trkpt><trkpt lat="43.388306466003506" lon="11.915648117739014"><ele>812.0</ele><time>2026-04-11T07:20:00.738Z</time></trkpt><trkpt lat="43.38824329099764" lon="11.915682447768958"><ele>812.0</ele><time>2026-04-11T07:20:01.738Z</time></trkpt><trkpt lat="43.388170204250066" lon="11.91570927992526"><ele>812.0</ele><time>2026-04-11T07:20:02.738Z</time></trkpt><trkpt lat="43.3880808296015" lon="11.91574736004111"><ele>812.0000000000001</ele><time>2026-04-11T07:20:03.737Z</time></trkpt><trkpt lat="43.38802521148515" lon="11.915794930274693"><ele>812.0</ele><time>2026-04-11T07:20:04.739Z</time></trkpt><trkpt lat="43.38794658269275" lon="11.91583076466704"><ele>808.25</ele><time>2026-04-11T07:20:05.746Z</time></trkpt><trkpt lat="43.38784276382102" lon="11.915873369645318"><ele>804.5</ele><time>2026-04-11T07:20:07.738Z</time></trkpt><trkpt lat="43.387713536211606" lon="11.915923070765409"><ele>800.75</ele><time>2026-04-11T07:20:09.738Z</time></trkpt><trkpt lat="43.3875970447614" lon="11.916073926967906"><ele>797.0</ele><time>2026-04-11T07:20:11.737Z</time></trkpt><trkpt lat="43.3875422202606" lon="11.916135059948104"><ele>796.8333333333334</ele><time>2026-04-11T07:20:12.747Z</time></trkpt><trkpt lat="43.38747618586743" lon="11.916187562593887"><ele>796.6666666666667</ele><time>2026-04-11T07:20:13.748Z</time></trkpt><trkpt lat="43.3873904224525" lon="11.916248156244112"><ele>796.5</ele><time>2026-04-11T07:20:14.747Z</time></trkpt><trkpt lat="43.387312985773434" lon="11.91628168578163"><ele>796.3333333333333</ele><time>2026-04-11T07:20:15.747Z</time></trkpt><trkpt lat="43.387252728626535" lon="11.916320537970387"><ele>796.1666666666666</ele><time>2026-04-11T07:20:16.738Z</time></trkpt><trkpt lat="43.38719528133517" lon="11.916371590179821"><ele>796.0</ele><time>2026-04-11T07:20:17.738Z</time></trkpt><trkpt lat="43.387143138826424" lon="11.916432881189932"><ele>795.5999999999999</ele><time>2026-04-11T07:20:18.738Z</time></trkpt><trkpt lat="43.38705531281472" lon="11.916503132260022"><ele>795.2</ele><time>2026-04-11T07:20:19.747Z</time></trkpt><trkpt lat="43.38695747904944" lon="11.916570568401902"><ele>794.8</ele><time>2026-04-11T07:20:20.748Z</time></trkpt><trkpt lat="43.38687351915586" lon="11.916663327286582"><ele>794.4000000000001</ele><time>2026-04-11T07:20:21.746Z</time></trkpt><trkpt lat="43.38680684173604" lon="11.916783971355112"><ele>794.0</ele><time>2026-04-11T07:20:22.746Z</time></trkpt><trkpt lat="43.38674812109255" lon="11.916876580121452"><ele>794.0</ele><time>2026-04-11T07:20:23.738Z</time></trkpt><trkpt lat="43.38668764664101" lon="11.916943707736882"><ele>794.0</ele><time>2026-04-11T07:20:24.742Z</time></trkpt><trkpt lat="43.386646148255046" lon="11.917045359830826"><ele>794.0</ele><time>2026-04-11T07:20:26.737Z</time></trkpt><trkpt lat="43.38655636468422" lon="11.917078798908111"><ele>794.0</ele><time>2026-04-11T07:20:28.737Z</time></trkpt><trkpt lat="43.38647552294301" lon="11.917194025753933"><ele>794.0</ele><time>2026-04-11T07:20:30.738Z</time></trkpt><trkpt lat="43.38630941518956" lon="11.917333607532377"><ele>793.8000000000001</ele><time>2026-04-11T07:20:32.746Z</time></trkpt><trkpt lat="43.38620486243879" lon="11.917431681800156"><ele>793.6</ele><time>2026-04-11T07:20:33.739Z</time></trkpt><trkpt lat="43.38613095223926" lon="11.917534122488275"><ele>793.4</ele><time>2026-04-11T07:20:34.738Z</time></trkpt><trkpt lat="43.38606310625105" lon="11.917626622948973"><ele>793.2</ele><time>2026-04-11T07:20:35.746Z</time></trkpt><trkpt lat="43.38597521209709" lon="11.917704741728102"><ele>793.0</ele><time>2026-04-11T07:20:36.747Z</time></trkpt><trkpt lat="43.385882285344806" lon="11.917785610909023"><ele>794.1666666666666</ele><time>2026-04-11T07:20:37.746Z</time></trkpt><trkpt lat="43.38581876967152" lon="11.917857679140912"><ele>795.3333333333333</ele><time>2026-04-11T07:20:38.746Z</time></trkpt><trkpt lat="43.38575554595633" lon="11.917944092017299"><ele>796.5</ele><time>2026-04-11T07:20:39.746Z</time></trkpt><trkpt lat="43.38568766450586" lon="11.918031039454489"><ele>797.6666666666667</ele><time>2026-04-11T07:20:40.738Z</time></trkpt><trkpt lat="43.385631542173684" lon="11.918119579537523"><ele>798.8333333333334</ele><time>2026-04-11T07:20:41.738Z</time></trkpt><trkpt lat="43.385563655899965" lon="11.91820400470447"><ele>800.0</ele><time>2026-04-11T07:20:42.746Z</time></trkpt><trkpt lat="43.38549505782691" lon="11.918258995766148"><ele>800.6</ele><time>2026-04-11T07:20:43.746Z</time></trkpt><trkpt lat="43.38540849263098" lon="11.918248700433882"><ele>801.2</ele><time>2026-04-11T07:20:44.747Z</time></trkpt><trkpt lat="43.38530957459751" lon="11.918246174485795"><ele>801.8</ele><time>2026-04-11T07:20:45.737Z</time></trkpt><trkpt lat="43.385196561143374" lon="11.918266171175967"><ele>802.4</ele><time>2026-04-11T07:20:46.737Z</time></trkpt><trkpt lat="43.385071302708766" lon="11.918311045904103"><ele>803.0</ele><time>2026-04-11T07:20:47.737Z</time></trkpt><trkpt lat="43.38499194762272" lon="11.918331015489613"><ele>803.0</ele><time>2026-04-11T07:20:48.737Z</time></trkpt><trkpt lat="43.384870554011265" lon="11.918351202002029"><ele>803.0</ele><time>2026-04-11T07:20:49.738Z</time></trkpt><trkpt lat="43.384756206579326" lon="11.918388806610187"><ele>803.0</ele><time>2026-04-11T07:20:50.745Z</time></trkpt><trkpt lat="43.384643426106884" lon="11.918426475529364"><ele>803.0</ele><time>2026-04-11T07:20:51.746Z</time></trkpt><trkpt lat="43.38444261341295" lon="11.918467902075015"><ele>806.8</ele><time>2026-04-11T07:20:53.745Z</time></trkpt><trkpt lat="43.384344120576394" lon="11.918484034456016"><ele>810.5999999999999</ele><time>2026-04-11T07:20:54.748Z</time></trkpt><trkpt lat="43.38424518575827" lon="11.918477407678669"><ele>814.4000000000001</ele><time>2026-04-11T07:20:55.737Z</time></trkpt><trkpt lat="43.384144287525665" lon="11.918472105340994"><ele>818.2</ele><time>2026-04-11T07:20:56.738Z</time></trkpt><trkpt lat="43.384059855037606" lon="11.918450906177757"><ele>822.0</ele><time>2026-04-11T07:20:57.737Z</time></trkpt><trkpt lat="43.383970532344655" lon="11.918412218414192"><ele>821.3333333333334</ele><time>2026-04-11T07:20:58.738Z</time></trkpt><trkpt lat="43.38388078912771" lon="11.918369016518197"><ele>820.6666666666667</ele><time>2026-04-11T07:20:59.736Z</time></trkpt><trkpt lat="43.38379873970281" lon="11.918354787655364"><ele>820.0</ele><time>2026-04-11T07:21:00.736Z</time></trkpt><trkpt lat="43.38371810962326" lon="11.91837823792955"><ele>819.3333333333334</ele><time>2026-04-11T07:21:01.738Z</time></trkpt><trkpt lat="43.38364720727675" lon="11.918408507285251"><ele>818.6666666666667</ele><time>2026-04-11T07:21:02.738Z</time></trkpt><trkpt lat="43.38357397114392" lon="11.918488274978028"><ele>818.0</ele><time>2026-04-11T07:21:03.736Z</time></trkpt><trkpt lat="43.38349352893784" lon="11.91858063491521"><ele>818.0</ele><time>2026-04-11T07:21:04.747Z</time></trkpt><trkpt lat="43.38340551472659" lon="11.918666219375947"><ele>818.0</ele><time>2026-04-11T07:21:05.745Z</time></trkpt><trkpt lat="43.38331546800671" lon="11.918754746856436"><ele>818.0</ele><time>2026-04-11T07:21:06.746Z</time></trkpt><trkpt lat="43.38322112368593" lon="11.918837052300464"><ele>818.0</ele><time>2026-04-11T07:21:07.737Z</time></trkpt><trkpt lat="43.38313529855251" lon="11.918928392865707"><ele>818.0</ele><time>2026-04-11T07:21:08.737Z</time></trkpt><trkpt lat="43.38307686969706" lon="11.919014560898754"><ele>818.0</ele><time>2026-04-11T07:21:09.737Z</time></trkpt><trkpt lat="43.38305065756067" lon="11.919095552231118"><ele>818.0</ele><time>2026-04-11T07:21:10.738Z</time></trkpt><trkpt lat="43.3830327666097" lon="11.919286174703581"><ele>818.0</ele><time>2026-04-11T07:21:12.737Z</time></trkpt><trkpt lat="43.383020047264736" lon="11.91951271914804"><ele>818.0</ele><time>2026-04-11T07:21:14.738Z</time></trkpt><trkpt lat="43.3830106166406" lon="11.91962561216297"><ele>812.8333333333334</ele><time>2026-04-11T07:21:15.738Z</time></trkpt><trkpt lat="43.38299542709355" lon="11.919752236252634"><ele>807.6666666666667</ele><time>2026-04-11T07:21:16.738Z</time></trkpt><trkpt lat="43.3829803725498" lon="11.919879288380242"><ele>802.5</ele><time>2026-04-11T07:21:17.738Z</time></trkpt><trkpt lat="43.382963986974836" lon="11.920001118166608"><ele>797.3333333333333</ele><time>2026-04-11T07:21:18.737Z</time></trkpt><trkpt lat="43.382942532403035" lon="11.920096086521825"><ele>792.1666666666666</ele><time>2026-04-11T07:21:19.735Z</time></trkpt><trkpt lat="43.38290965770767" lon="11.920194271906034"><ele>787.0</ele><time>2026-04-11T07:21:20.738Z</time></trkpt><trkpt lat="43.382900183150156" lon="11.920281739670555"><ele>786.9999999999999</ele><time>2026-04-11T07:21:21.737Z</time></trkpt><trkpt lat="43.382895345174745" lon="11.920400621287074"><ele>787.0</ele><time>2026-04-11T07:21:22.738Z</time></trkpt><trkpt lat="43.38290372091033" lon="11.920521981915462"><ele>787.0</ele><time>2026-04-11T07:21:23.746Z</time></trkpt><trkpt lat="43.3829216528334" lon="11.920627664363167"><ele>787.0</ele><time>2026-04-11T07:21:24.737Z</time></trkpt><trkpt lat="43.3829429401848" lon="11.92075150156041"><ele>786.9999999999999</ele><time>2026-04-11T07:21:25.737Z</time></trkpt><trkpt lat="43.382933503582585" lon="11.920862331165706"><ele>787.0</ele><time>2026-04-11T07:21:26.738Z</time></trkpt><trkpt lat="43.382919523746764" lon="11.920984626608863"><ele>787.6666666666666</ele><time>2026-04-11T07:21:27.745Z</time></trkpt><trkpt lat="43.38288986787917" lon="11.921113209190159"><ele>788.3333333333333</ele><time>2026-04-11T07:21:28.738Z</time></trkpt><trkpt lat="43.38288062292387" lon="11.921245388253354"><ele>789.0</ele><time>2026-04-11T07:21:29.738Z</time></trkpt><trkpt lat="43.3828750218409" lon="11.921350648149824"><ele>789.6666666666667</ele><time>2026-04-11T07:21:30.738Z</time></trkpt><trkpt lat="43.38286598128514" lon="11.921473088700434"><ele>790.3333333333334</ele><time>2026-04-11T07:21:31.743Z</time></trkpt><trkpt lat="43.38286108194278" lon="11.921566090417025"><ele>791.0</ele><time>2026-04-11T07:21:32.738Z</time></trkpt><trkpt lat="43.38284321411808" lon="11.921665708017983"><ele>793.0</ele><time>2026-04-11T07:21:33.742Z</time></trkpt><trkpt lat="43.382800429305775" lon="11.921882790366611"><ele>795.0</ele><time>2026-04-11T07:21:35.737Z</time></trkpt><trkpt lat="43.38278142442797" lon="11.922007707811945"><ele>797.0</ele><time>2026-04-11T07:21:36.739Z</time></trkpt><trkpt lat="43.38276074730504" lon="11.922106979906808"><ele>799.0</ele><time>2026-04-11T07:21:37.736Z</time></trkpt><trkpt lat="43.3827096536286" lon="11.92217211567399"><ele>801.0</ele><time>2026-04-11T07:21:38.731Z</time></trkpt><trkpt lat="43.38262841188718" lon="11.922228367340438"><ele>801.0</ele><time>2026-04-11T07:21:39.735Z</time></trkpt><trkpt lat="43.38255124154539" lon="11.922251022449174"><ele>801.0</ele><time>2026-04-11T07:21:40.736Z</time></trkpt><trkpt lat="43.382480710437356" lon="11.922305292398883"><ele>801.0</ele><time>2026-04-11T07:21:41.745Z</time></trkpt><trkpt lat="43.38241106270454" lon="11.922345350910359"><ele>801.0</ele><time>2026-04-11T07:21:42.748Z</time></trkpt><trkpt lat="43.382313015128716" lon="11.92242200249787"><ele>801.0</ele><time>2026-04-11T07:21:44.738Z</time></trkpt><trkpt lat="43.382254577646805" lon="11.922462403823728"><ele>801.0</ele><time>2026-04-11T07:21:45.737Z</time></trkpt><trkpt lat="43.38215687453021" lon="11.922549170472427"><ele>803.1999999999999</ele><time>2026-04-11T07:21:46.738Z</time></trkpt><trkpt lat="43.382069850485706" lon="11.922606295479525"><ele>805.4</ele><time>2026-04-11T07:21:47.737Z</time></trkpt><trkpt lat="43.38198937843834" lon="11.922658168542142"><ele>807.6</ele><time>2026-04-11T07:21:48.738Z</time></trkpt><trkpt lat="43.38191814329224" lon="11.922728566611793"><ele>809.8</ele><time>2026-04-11T07:21:49.74Z</time></trkpt><trkpt lat="43.38183749419317" lon="11.922815227255434"><ele>812.0</ele><time>2026-04-11T07:21:50.737Z</time></trkpt><trkpt lat="43.38175310931781" lon="11.92291348284033"><ele>812.0</ele><time>2026-04-11T07:21:52.737Z</time></trkpt><trkpt lat="43.381702031679986" lon="11.923010391056852"><ele>812.0</ele><time>2026-04-11T07:21:53.738Z</time></trkpt><trkpt lat="43.381639903820115" lon="11.92310466504557"><ele>812.0</ele><time>2026-04-11T07:21:54.739Z</time></trkpt><trkpt lat="43.38153444953811" lon="11.923259274540769"><ele>812.0</ele><time>2026-04-11T07:21:56.738Z</time></trkpt><trkpt lat="43.38148535156596" lon="11.923340463164845"><ele>812.0</ele><time>2026-04-11T07:21:57.737Z</time></trkpt><trkpt lat="43.3814172553824" lon="11.923445624381706"><ele>813.0000000000001</ele><time>2026-04-11T07:21:58.737Z</time></trkpt><trkpt lat="43.381367215780344" lon="11.923541939348796"><ele>814.0</ele><time>2026-04-11T07:21:59.737Z</time></trkpt><trkpt lat="43.381336997258785" lon="11.923648406445754"><ele>815.0</ele><time>2026-04-11T07:22:00.739Z</time></trkpt><trkpt lat="43.381282430641924" lon="11.923731920140181"><ele>816.0</ele><time>2026-04-11T07:22:01.745Z</time></trkpt><trkpt lat="43.381195615307114" lon="11.92380863718383"><ele>817.0000000000001</ele><time>2026-04-11T07:22:02.737Z</time></trkpt><trkpt lat="43.381132419682565" lon="11.9238949472437"><ele>818.0</ele><time>2026-04-11T07:22:03.737Z</time></trkpt><trkpt lat="43.38106150664672" lon="11.92407292188226"><ele>818.0</ele><time>2026-04-11T07:22:05.737Z</time></trkpt><trkpt lat="43.38101479191757" lon="11.92417169148472"><ele>818.0</ele><time>2026-04-11T07:22:06.738Z</time></trkpt><trkpt lat="43.38095539110913" lon="11.92426799731235"><ele>818.0</ele><time>2026-04-11T07:22:07.741Z</time></trkpt><trkpt lat="43.380893579205065" lon="11.924369705240489"><ele>818.0</ele><time>2026-04-11T07:22:08.746Z</time></trkpt><trkpt lat="43.38082423136222" lon="11.924472007312014"><ele>818.0</ele><time>2026-04-11T07:22:09.745Z</time></trkpt><trkpt lat="43.380770246374105" lon="11.924588462524824"><ele>820.4</ele><time>2026-04-11T07:22:10.746Z</time></trkpt><trkpt lat="43.38069322354203" lon="11.92468860794279"><ele>822.8</ele><time>2026-04-11T07:22:11.749Z</time></trkpt><trkpt lat="43.380608007095915" lon="11.924763240520969"><ele>825.2</ele><time>2026-04-11T07:22:12.747Z</time></trkpt><trkpt lat="43.38053042368254" lon="11.92481726986473"><ele>827.6</ele><time>2026-04-11T07:22:13.746Z</time></trkpt><trkpt lat="43.38043843200174" lon="11.924888141351172"><ele>830.0</ele><time>2026-04-11T07:22:14.745Z</time></trkpt><trkpt lat="43.38034043999936" lon="11.924948020333483"><ele>830.0</ele><time>2026-04-11T07:22:15.749Z</time></trkpt><trkpt lat="43.380166161302135" lon="11.925054942634606"><ele>830.0</ele><time>2026-04-11T07:22:17.738Z</time></trkpt><trkpt lat="43.38007772195167" lon="11.925105741991956"><ele>830.0</ele><time>2026-04-11T07:22:18.739Z</time></trkpt><trkpt lat="43.37998702320045" lon="11.925145782442868"><ele>830.0</ele><time>2026-04-11T07:22:19.746Z</time></trkpt><trkpt lat="43.37990406914386" lon="11.92515224419621"><ele>830.1666666666667</ele><time>2026-04-11T07:22:20.746Z</time></trkpt><trkpt lat="43.37982032040731" lon="11.925172757640059"><ele>830.3333333333334</ele><time>2026-04-11T07:22:21.738Z</time></trkpt><trkpt lat="43.3797336061041" lon="11.925223505697895"><ele>830.5</ele><time>2026-04-11T07:22:22.738Z</time></trkpt><trkpt lat="43.37965889424205" lon="11.925269327884298"><ele>830.6666666666667</ele><time>2026-04-11T07:22:23.738Z</time></trkpt><trkpt lat="43.379587245474845" lon="11.925284334304578"><ele>830.8333333333334</ele><time>2026-04-11T07:22:24.747Z</time></trkpt><trkpt lat="43.37950226298523" lon="11.925306756486195"><ele>831.0</ele><time>2026-04-11T07:22:25.744Z</time></trkpt><trkpt lat="43.37940454789351" lon="11.925316723559549"><ele>831.0</ele><time>2026-04-11T07:22:26.748Z</time></trkpt><trkpt lat="43.37931984893808" lon="11.925317259562776"><ele>831.0</ele><time>2026-04-11T07:22:27.746Z</time></trkpt><trkpt lat="43.379242217460195" lon="11.92533091025633"><ele>831.0</ele><time>2026-04-11T07:22:28.739Z</time></trkpt><trkpt lat="43.379176702364816" lon="11.92539792042562"><ele>831.0</ele><time>2026-04-11T07:22:30.739Z</time></trkpt><trkpt lat="43.379153602797416" lon="11.925492673230162"><ele>831.0</ele><time>2026-04-11T07:22:50.739Z</time></trkpt><trkpt lat="43.37908671534262" lon="11.92576243427698"><ele>831.0</ele><time>2026-04-11T07:22:54.737Z</time></trkpt><trkpt lat="43.3790493461996" lon="11.92588067348175"><ele>831.0</ele><time>2026-04-11T07:22:56.738Z</time></trkpt><trkpt lat="43.379007469198356" lon="11.926057149377895"><ele>831.0</ele><time>2026-04-11T07:22:58.738Z</time></trkpt><trkpt lat="43.37898808763227" lon="11.92615466912388"><ele>831.0</ele><time>2026-04-11T07:22:59.736Z</time></trkpt><trkpt lat="43.378982389503044" lon="11.926243653008163"><ele>831.0</ele><time>2026-04-11T07:23:00.739Z</time></trkpt><trkpt lat="43.37899376921686" lon="11.926343870121316"><ele>831.0</ele><time>2026-04-11T07:23:01.739Z</time></trkpt><trkpt lat="43.37900314664719" lon="11.926431831871875"><ele>830.4</ele><time>2026-04-11T07:23:02.737Z</time></trkpt><trkpt lat="43.37902067586389" lon="11.926575925227093"><ele>829.8</ele><time>2026-04-11T07:23:04.737Z</time></trkpt><trkpt lat="43.3790385960354" lon="11.926665438236295"><ele>829.1999999999999</ele><time>2026-04-11T07:23:05.746Z</time></trkpt><trkpt lat="43.379032708893526" lon="11.926823079620021"><ele>828.5999999999999</ele><time>2026-04-11T07:23:07.745Z</time></trkpt><trkpt lat="43.37903704051106" lon="11.926972434030414"><ele>828.0</ele><time>2026-04-11T07:23:09.738Z</time></trkpt><trkpt lat="43.379026784994934" lon="11.927101205480673"><ele>825.2</ele><time>2026-04-11T07:23:11.737Z</time></trkpt><trkpt lat="43.37902483056393" lon="11.92731413151835"><ele>822.4</ele><time>2026-04-11T07:23:16.747Z</time></trkpt><trkpt lat="43.37903219613739" lon="11.927433489792637"><ele>819.6</ele><time>2026-04-11T07:23:20.738Z</time></trkpt><trkpt lat="43.37902049577169" lon="11.927537126040821"><ele>816.8000000000001</ele><time>2026-04-11T07:23:23.738Z</time></trkpt><trkpt lat="43.378989208181466" lon="11.927631496612161"><ele>814.0</ele><time>2026-04-11T07:23:27.737Z</time></trkpt><trkpt lat="43.37894492817588" lon="11.927726852949254"><ele>810.6</ele><time>2026-04-11T07:23:30.739Z</time></trkpt><trkpt lat="43.37892250558785" lon="11.927813269998945"><ele>807.2</ele><time>2026-04-11T07:23:33.738Z</time></trkpt><trkpt lat="43.37885289437655" lon="11.927975177549786"><ele>803.8000000000001</ele><time>2026-04-11T07:23:38.738Z</time></trkpt><trkpt lat="43.3788278590876" lon="11.928081711884138"><ele>800.4000000000001</ele><time>2026-04-11T07:23:42.739Z</time></trkpt><trkpt lat="43.37883103363189" lon="11.928176050466423"><ele>797.0</ele><time>2026-04-11T07:23:45.746Z</time></trkpt><trkpt lat="43.37875630824301" lon="11.928259907941406"><ele>793.8</ele><time>2026-04-11T07:23:48.739Z</time></trkpt><trkpt lat="43.37865214899657" lon="11.928333703897973"><ele>790.6</ele><time>2026-04-11T07:23:50.738Z</time></trkpt><trkpt lat="43.37859164189511" lon="11.928359651225422"><ele>787.4</ele><time>2026-04-11T07:23:51.737Z</time></trkpt><trkpt lat="43.378473326016355" lon="11.928376121009643"><ele>784.1999999999999</ele><time>2026-04-11T07:23:53.738Z</time></trkpt><trkpt lat="43.378396216583766" lon="11.928456365977633"><ele>781.0</ele><time>2026-04-11T07:23:55.737Z</time></trkpt><trkpt lat="43.378399151700116" lon="11.928677408011534"><ele>779.4999999999999</ele><time>2026-04-11T07:23:58.738Z</time></trkpt><trkpt lat="43.37839086040078" lon="11.928765739452038"><ele>778.0</ele><time>2026-04-11T07:23:59.742Z</time></trkpt><trkpt lat="43.37839327333509" lon="11.928906686140683"><ele>776.5</ele><time>2026-04-11T07:24:01.738Z</time></trkpt><trkpt lat="43.37837532697141" lon="11.929045642257838"><ele>775.0</ele><time>2026-04-11T07:24:03.738Z</time></trkpt><trkpt lat="43.37837738749337" lon="11.929134843128447"><ele>773.4999999999999</ele><time>2026-04-11T07:24:04.739Z</time></trkpt><trkpt lat="43.37839180081301" lon="11.929255892180903"><ele>772.0</ele><time>2026-04-11T07:24:05.737Z</time></trkpt><trkpt lat="43.378388912299144" lon="11.929381351520297"><ele>770.9999999999999</ele><time>2026-04-11T07:24:06.738Z</time></trkpt><trkpt lat="43.378388821685206" lon="11.929532420088456"><ele>770.0</ele><time>2026-04-11T07:24:07.738Z</time></trkpt><trkpt lat="43.37839323311852" lon="11.929655338578522"><ele>769.0</ele><time>2026-04-11T07:24:08.747Z</time></trkpt><trkpt lat="43.37841373415054" lon="11.929740875893204"><ele>768.0</ele><time>2026-04-11T07:24:09.739Z</time></trkpt><trkpt lat="43.37843151401826" lon="11.929841578849004"><ele>767.0</ele><time>2026-04-11T07:24:11.748Z</time></trkpt><trkpt lat="43.378382613661124" lon="11.929923905170549"><ele>766.0</ele><time>2026-04-11T07:24:12.747Z</time></trkpt><trkpt lat="43.37837346987915" lon="11.930024784625877"><ele>764.5</ele><time>2026-04-11T07:24:13.739Z</time></trkpt><trkpt lat="43.378402340037454" lon="11.930154208296317"><ele>763.0</ele><time>2026-04-11T07:24:15.742Z</time></trkpt><trkpt lat="43.378415765340996" lon="11.930263571306531"><ele>761.5</ele><time>2026-04-11T07:24:33.738Z</time></trkpt><trkpt lat="43.37843346147314" lon="11.930500301058636"><ele>760.0</ele><time>2026-04-11T07:24:37.738Z</time></trkpt><trkpt lat="43.37845027469979" lon="11.930643597475523"><ele>760.0</ele><time>2026-04-11T07:24:40.748Z</time></trkpt><trkpt lat="43.378464992446915" lon="11.930741780849106"><ele>760.0</ele><time>2026-04-11T07:24:41.739Z</time></trkpt><trkpt lat="43.378497609243595" lon="11.930823886515098"><ele>760.0</ele><time>2026-04-11T07:24:42.742Z</time></trkpt><trkpt lat="43.37853918947506" lon="11.93089792565868"><ele>760.0</ele><time>2026-04-11T07:24:43.738Z</time></trkpt><trkpt lat="43.37856143347474" lon="11.930982620660592"><ele>760.0</ele><time>2026-04-11T07:24:44.744Z</time></trkpt><trkpt lat="43.37859166075194" lon="11.93112866455316"><ele>760.0</ele><time>2026-04-11T07:24:46.739Z</time></trkpt><trkpt lat="43.37866727469642" lon="11.93123670784379"><ele>756.0</ele><time>2026-04-11T07:24:48.737Z</time></trkpt><trkpt lat="43.37871816237716" lon="11.93129932381287"><ele>752.0</ele><time>2026-04-11T07:24:50.739Z</time></trkpt><trkpt lat="43.37874756138488" lon="11.931415568768898"><ele>748.0</ele><time>2026-04-11T07:24:53.745Z</time></trkpt><trkpt lat="43.378722148104956" lon="11.931520555343472"><ele>744.0</ele><time>2026-04-11T07:24:55.737Z</time></trkpt><trkpt lat="43.37880813432257" lon="11.93170600074783"><ele>740.0</ele><time>2026-04-11T07:24:59.737Z</time></trkpt><trkpt lat="43.37884792026566" lon="11.931846958397701"><ele>741.8</ele><time>2026-04-11T07:25:01.746Z</time></trkpt><trkpt lat="43.37893107156765" lon="11.932023310425663"><ele>743.6</ele><time>2026-04-11T07:25:03.746Z</time></trkpt><trkpt lat="43.37897355965096" lon="11.932139642412654"><ele>745.4000000000001</ele><time>2026-04-11T07:25:04.747Z</time></trkpt><trkpt lat="43.378979843167556" lon="11.93224720068526"><ele>747.2</ele><time>2026-04-11T07:25:05.745Z</time></trkpt><trkpt lat="43.37901478002733" lon="11.932358397507219"><ele>749.0</ele><time>2026-04-11T07:25:06.737Z</time></trkpt><trkpt lat="43.37905133111651" lon="11.932494615954623"><ele>750.5</ele><time>2026-04-11T07:25:07.737Z</time></trkpt><trkpt lat="43.379052104661874" lon="11.932616173272557"><ele>752.0</ele><time>2026-04-11T07:25:08.737Z</time></trkpt><trkpt lat="43.37903595938634" lon="11.9327236766818"><ele>753.5</ele><time>2026-04-11T07:25:09.737Z</time></trkpt><trkpt lat="43.37901816099434" lon="11.9328302340653"><ele>755.0</ele><time>2026-04-11T07:25:11.738Z</time></trkpt><trkpt lat="43.37901558873599" lon="11.932944299337029"><ele>756.5</ele><time>2026-04-11T07:25:13.738Z</time></trkpt><trkpt lat="43.37902136794275" lon="11.93308637878398"><ele>758.0</ele><time>2026-04-11T07:25:16.747Z</time></trkpt><trkpt lat="43.37906196457067" lon="11.933322594259769"><ele>759.2857142857143</ele><time>2026-04-11T07:25:19.747Z</time></trkpt><trkpt lat="43.37906884407229" lon="11.933425226207058"><ele>760.5714285714286</ele><time>2026-04-11T07:25:20.741Z</time></trkpt><trkpt lat="43.37908510254112" lon="11.93351056747453"><ele>761.8571428571429</ele><time>2026-04-11T07:25:21.747Z</time></trkpt><trkpt lat="43.37911809234605" lon="11.933605096222777"><ele>763.1428571428571</ele><time>2026-04-11T07:25:22.747Z</time></trkpt><trkpt lat="43.37913051840743" lon="11.933694670602174"><ele>764.4285714285714</ele><time>2026-04-11T07:25:23.747Z</time></trkpt><trkpt lat="43.37913680304639" lon="11.933804707292053"><ele>765.7142857142858</ele><time>2026-04-11T07:25:24.748Z</time></trkpt><trkpt lat="43.37914068516719" lon="11.933908224021332"><ele>767.0</ele><time>2026-04-11T07:25:25.747Z</time></trkpt><trkpt lat="43.379157471092924" lon="11.934010713027462"><ele>767.0</ele><time>2026-04-11T07:25:26.747Z</time></trkpt><trkpt lat="43.37916155673637" lon="11.934146251743192"><ele>767.0</ele><time>2026-04-11T07:25:27.746Z</time></trkpt><trkpt lat="43.37913485906093" lon="11.934285812526692"><ele>767.0</ele><time>2026-04-11T07:25:28.746Z</time></trkpt><trkpt lat="43.379124089887334" lon="11.934390161339635"><ele>767.0</ele><time>2026-04-11T07:25:29.747Z</time></trkpt><trkpt lat="43.379109109410436" lon="11.934478720044206"><ele>767.0</ele><time>2026-04-11T07:25:30.738Z</time></trkpt><trkpt lat="43.379168613363426" lon="11.934597411682569"><ele>767.6</ele><time>2026-04-11T07:25:32.746Z</time></trkpt><trkpt lat="43.37923214812172" lon="11.93467189550155"><ele>768.2</ele><time>2026-04-11T07:25:33.746Z</time></trkpt><trkpt lat="43.379304201390454" lon="11.934808936665691"><ele>768.8</ele><time>2026-04-11T07:25:35.746Z</time></trkpt><trkpt lat="43.37931188316546" lon="11.934913986477948"><ele>769.4</ele><time>2026-04-11T07:25:36.746Z</time></trkpt><trkpt lat="43.379300849350564" lon="11.935023157409152"><ele>770.0</ele><time>2026-04-11T07:25:37.747Z</time></trkpt><trkpt lat="43.3793311903134" lon="11.935371626935567"><ele>770.4</ele><time>2026-04-11T07:25:41.745Z</time></trkpt><trkpt lat="43.37937817393211" lon="11.935490363710048"><ele>770.8</ele><time>2026-04-11T07:25:42.746Z</time></trkpt><trkpt lat="43.379426444930345" lon="11.935625231589315"><ele>771.2</ele><time>2026-04-11T07:25:44.739Z</time></trkpt><trkpt lat="43.379423155345656" lon="11.935826136877894"><ele>771.6</ele><time>2026-04-11T07:25:46.747Z</time></trkpt><trkpt lat="43.379427957940706" lon="11.935932679373517"><ele>772.0</ele><time>2026-04-11T07:25:47.737Z</time></trkpt><trkpt lat="43.379471168267536" lon="11.936043298568173"><ele>774.2</ele><time>2026-04-11T07:25:49.737Z</time></trkpt><trkpt lat="43.37949392038906" lon="11.93612658800617"><ele>776.4000000000001</ele><time>2026-04-11T07:25:51.738Z</time></trkpt><trkpt lat="43.37952046728444" lon="11.936259101486684"><ele>778.5999999999999</ele><time>2026-04-11T07:26:18.737Z</time></trkpt><trkpt lat="43.37955624009321" lon="11.936470847006344"><ele>780.8</ele><time>2026-04-11T07:26:22.736Z</time></trkpt><trkpt lat="43.37956816303397" lon="11.936562473814195"><ele>783.0</ele><time>2026-04-11T07:26:24.737Z</time></trkpt><trkpt lat="43.37949152398959" lon="11.93662941157326"><ele>783.0</ele><time>2026-04-11T07:26:26.735Z</time></trkpt><trkpt lat="43.37941011310922" lon="11.936661830350078"><ele>783.0</ele><time>2026-04-11T07:26:27.736Z</time></trkpt><trkpt lat="43.37933754448777" lon="11.936690222334926"><ele>783.0</ele><time>2026-04-11T07:26:28.747Z</time></trkpt><trkpt lat="43.37928064460337" lon="11.936736707701854"><ele>783.0</ele><time>2026-04-11T07:26:29.746Z</time></trkpt><trkpt lat="43.379220337386094" lon="11.936777176537223"><ele>783.0</ele><time>2026-04-11T07:26:30.746Z</time></trkpt><trkpt lat="43.3791390445624" lon="11.936816725475612"><ele>783.0</ele><time>2026-04-11T07:26:31.745Z</time></trkpt><trkpt lat="43.37906298163816" lon="11.936845461011398"><ele>784.2</ele><time>2026-04-11T07:26:32.739Z</time></trkpt><trkpt lat="43.379001982955344" lon="11.936884101924269"><ele>785.4</ele><time>2026-04-11T07:26:33.744Z</time></trkpt><trkpt lat="43.37896586038275" lon="11.93695551440687"><ele>786.6</ele><time>2026-04-11T07:26:35.746Z</time></trkpt><trkpt lat="43.378905189991904" lon="11.937031890036476"><ele>787.8000000000001</ele><time>2026-04-11T07:26:37.737Z</time></trkpt><trkpt lat="43.37887162465782" lon="11.937146739269155"><ele>789.0</ele><time>2026-04-11T07:26:39.747Z</time></trkpt><trkpt lat="43.37881280073103" lon="11.937387384373867"><ele>788.9999999999999</ele><time>2026-04-11T07:26:42.747Z</time></trkpt><trkpt lat="43.37883505179123" lon="11.93747859001054"><ele>789.0</ele><time>2026-04-11T07:26:43.747Z</time></trkpt><trkpt lat="43.37885178660524" lon="11.937567148597623"><ele>789.0</ele><time>2026-04-11T07:26:45.745Z</time></trkpt><trkpt lat="43.37877480145252" lon="11.937554589711898"><ele>789.0</ele><time>2026-04-11T07:26:47.747Z</time></trkpt><trkpt lat="43.37870978154262" lon="11.937573627462191"><ele>789.0</ele><time>2026-04-11T07:26:49.746Z</time></trkpt><trkpt lat="43.378630611940395" lon="11.93755605132643"><ele>788.9999999999999</ele><time>2026-04-11T07:26:51.747Z</time></trkpt><trkpt lat="43.378555030875255" lon="11.93751798322472"><ele>789.0</ele><time>2026-04-11T07:26:53.746Z</time></trkpt><trkpt lat="43.378474521067005" lon="11.937487515009481"><ele>789.0</ele><time>2026-04-11T07:26:55.747Z</time></trkpt><trkpt lat="43.37837420236521" lon="11.937504185882895"><ele>789.0</ele><time>2026-04-11T07:26:58.748Z</time></trkpt><trkpt lat="43.3782962897157" lon="11.9375360321143"><ele>789.0</ele><time>2026-04-11T07:27:00.748Z</time></trkpt><trkpt lat="43.378083196189635" lon="11.937556263921785"><ele>789.0</ele><time>2026-04-11T07:27:04.747Z</time></trkpt><trkpt lat="43.37798391037886" lon="11.937620872689898"><ele>786.3333333333334</ele><time>2026-04-11T07:27:06.747Z</time></trkpt><trkpt lat="43.37788460843019" lon="11.937695009564383"><ele>783.6666666666667</ele><time>2026-04-11T07:27:08.749Z</time></trkpt><trkpt lat="43.377825747097326" lon="11.93774953391194"><ele>781.0</ele><time>2026-04-11T07:27:09.749Z</time></trkpt><trkpt lat="43.37774475909674" lon="11.937786596172037"><ele>778.3333333333334</ele><time>2026-04-11T07:27:10.747Z</time></trkpt><trkpt lat="43.377667352157474" lon="11.937856598716712"><ele>775.6666666666667</ele><time>2026-04-11T07:27:11.746Z</time></trkpt><trkpt lat="43.37760786802962" lon="11.937926789430053"><ele>773.0</ele><time>2026-04-11T07:27:12.747Z</time></trkpt><trkpt lat="43.37754336974105" lon="11.937972059491134"><ele>773.0000000000001</ele><time>2026-04-11T07:27:13.746Z</time></trkpt><trkpt lat="43.377452065036856" lon="11.937966926199124"><ele>773.0</ele><time>2026-04-11T07:27:14.738Z</time></trkpt><trkpt lat="43.37736289526623" lon="11.937981004171213"><ele>773.0</ele><time>2026-04-11T07:27:15.738Z</time></trkpt><trkpt lat="43.377293042284926" lon="11.938027078527885"><ele>773.0</ele><time>2026-04-11T07:27:16.738Z</time></trkpt><trkpt lat="43.37723546868726" lon="11.938080584443336"><ele>773.0000000000001</ele><time>2026-04-11T07:27:17.747Z</time></trkpt><trkpt lat="43.37718822625307" lon="11.938145638250019"><ele>773.0</ele><time>2026-04-11T07:27:18.748Z</time></trkpt><trkpt lat="43.3770866173807" lon="11.938233892913914"><ele>771.8</ele><time>2026-04-11T07:27:20.748Z</time></trkpt><trkpt lat="43.377021680438546" lon="11.938254756697125"><ele>770.5999999999999</ele><time>2026-04-11T07:27:21.744Z</time></trkpt><trkpt lat="43.376813323372645" lon="11.938332790971154"><ele>769.4000000000001</ele><time>2026-04-11T07:27:23.749Z</time></trkpt><trkpt lat="43.37672882766104" lon="11.938378406769836"><ele>768.2</ele><time>2026-04-11T07:27:24.738Z</time></trkpt><trkpt lat="43.37666205268336" lon="11.938406561930428"><ele>767.0</ele><time>2026-04-11T07:27:25.746Z</time></trkpt><trkpt lat="43.37660138770536" lon="11.938432738439886"><ele>765.8</ele><time>2026-04-11T07:27:26.746Z</time></trkpt><trkpt lat="43.37650704956287" lon="11.93849880502753"><ele>764.6</ele><time>2026-04-11T07:27:28.747Z</time></trkpt><trkpt lat="43.376352279146786" lon="11.93850178730285"><ele>763.4</ele><time>2026-04-11T07:27:30.747Z</time></trkpt><trkpt lat="43.37627634488639" lon="11.938545388406093"><ele>762.1999999999999</ele><time>2026-04-11T07:27:31.747Z</time></trkpt><trkpt lat="43.37620822894516" lon="11.93859248966572"><ele>761.0</ele><time>2026-04-11T07:27:32.747Z</time></trkpt><trkpt lat="43.37613201774555" lon="11.938612762102851"><ele>759.8333333333333</ele><time>2026-04-11T07:27:33.748Z</time></trkpt><trkpt lat="43.37607083721293" lon="11.93865320221077"><ele>758.6666666666666</ele><time>2026-04-11T07:27:34.748Z</time></trkpt><trkpt lat="43.375997010479644" lon="11.938710475476478"><ele>757.5</ele><time>2026-04-11T07:27:35.746Z</time></trkpt><trkpt lat="43.37591043700513" lon="11.93876414518072"><ele>756.3333333333334</ele><time>2026-04-11T07:27:36.747Z</time></trkpt><trkpt lat="43.37581998183263" lon="11.938818808827204"><ele>755.1666666666667</ele><time>2026-04-11T07:27:37.748Z</time></trkpt><trkpt lat="43.375724440983" lon="11.938871196676912"><ele>754.0</ele><time>2026-04-11T07:27:38.747Z</time></trkpt><trkpt lat="43.37564199512712" lon="11.938912857858385"><ele>754.0</ele><time>2026-04-11T07:27:39.738Z</time></trkpt><trkpt lat="43.375556911059284" lon="11.93896609869511"><ele>754.0</ele><time>2026-04-11T07:27:40.739Z</time></trkpt><trkpt lat="43.375485113944166" lon="11.93902738874769"><ele>754.0</ele><time>2026-04-11T07:27:41.738Z</time></trkpt><trkpt lat="43.375416949684364" lon="11.939049240556326"><ele>754.0</ele><time>2026-04-11T07:27:42.747Z</time></trkpt><trkpt lat="43.37528178310087" lon="11.939071254502249"><ele>754.0</ele><time>2026-04-11T07:27:44.746Z</time></trkpt><trkpt lat="43.375254882227075" lon="11.939158320214277"><ele>755.8333333333334</ele><time>2026-04-11T07:27:45.746Z</time></trkpt><trkpt lat="43.375247076748956" lon="11.939264808299628"><ele>757.6666666666667</ele><time>2026-04-11T07:27:46.747Z</time></trkpt><trkpt lat="43.375231948709626" lon="11.939353998615669"><ele>759.5</ele><time>2026-04-11T07:27:47.746Z</time></trkpt><trkpt lat="43.37517176127322" lon="11.939417702280833"><ele>761.3333333333334</ele><time>2026-04-11T07:27:48.747Z</time></trkpt><trkpt lat="43.375103330946125" lon="11.939484615112502"><ele>763.1666666666666</ele><time>2026-04-11T07:27:49.747Z</time></trkpt><trkpt lat="43.37504296959505" lon="11.939557511976737"><ele>765.0</ele><time>2026-04-11T07:27:50.738Z</time></trkpt><trkpt lat="43.37498024336759" lon="11.93958765611383"><ele>765.0</ele><time>2026-04-11T07:27:51.745Z</time></trkpt><trkpt lat="43.374878867017905" lon="11.939581062386186"><ele>765.0</ele><time>2026-04-11T07:27:52.746Z</time></trkpt><trkpt lat="43.37479186421224" lon="11.939554513174954"><ele>765.0</ele><time>2026-04-11T07:27:53.738Z</time></trkpt><trkpt lat="43.374722649289524" lon="11.939579222680376"><ele>765.0</ele><time>2026-04-11T07:27:54.739Z</time></trkpt><trkpt lat="43.374662809288665" lon="11.939658591889675"><ele>765.0</ele><time>2026-04-11T07:27:55.739Z</time></trkpt><trkpt lat="43.37460132714972" lon="11.939755590477466"><ele>765.0</ele><time>2026-04-11T07:27:57.74Z</time></trkpt><trkpt lat="43.374534564018504" lon="11.939725491347756"><ele>764.2</ele><time>2026-04-11T07:27:58.738Z</time></trkpt><trkpt lat="43.37445719784105" lon="11.939644005697755"><ele>763.4</ele><time>2026-04-11T07:27:59.736Z</time></trkpt><trkpt lat="43.374386301132674" lon="11.939575111577637"><ele>762.5999999999999</ele><time>2026-04-11T07:28:00.739Z</time></trkpt><trkpt lat="43.374310333319634" lon="11.939570877614486"><ele>761.8</ele><time>2026-04-11T07:28:01.738Z</time></trkpt><trkpt lat="43.37426958908284" lon="11.93945730566176"><ele>761.0</ele><time>2026-04-11T07:28:04.747Z</time></trkpt><trkpt lat="43.3741418098983" lon="11.939324625836369"><ele>761.0</ele><time>2026-04-11T07:28:07.745Z</time></trkpt><trkpt lat="43.374036684144805" lon="11.93931126712121"><ele>761.0</ele><time>2026-04-11T07:28:09.741Z</time></trkpt><trkpt lat="43.37392593994286" lon="11.939293763206553"><ele>761.0</ele><time>2026-04-11T07:28:11.745Z</time></trkpt><trkpt lat="43.37384524213154" lon="11.939256511357403"><ele>761.0</ele><time>2026-04-11T07:28:12.747Z</time></trkpt><trkpt lat="43.37376057244629" lon="11.939192111464212"><ele>761.0</ele><time>2026-04-11T07:28:13.744Z</time></trkpt><trkpt lat="43.373677548586386" lon="11.939163016058986"><ele>759.6666666666666</ele><time>2026-04-11T07:28:14.737Z</time></trkpt><trkpt lat="43.37359592035258" lon="11.939170124638839"><ele>758.3333333333333</ele><time>2026-04-11T07:28:15.736Z</time></trkpt><trkpt lat="43.3735015977496" lon="11.93916467149844"><ele>757.0</ele><time>2026-04-11T07:28:16.747Z</time></trkpt><trkpt lat="43.37341988243179" lon="11.93915855544209"><ele>755.6666666666666</ele><time>2026-04-11T07:28:17.746Z</time></trkpt><trkpt lat="43.37333970862993" lon="11.939157433073731"><ele>754.3333333333334</ele><time>2026-04-11T07:28:18.736Z</time></trkpt><trkpt lat="43.37327049061464" lon="11.93913078315795"><ele>753.0</ele><time>2026-04-11T07:28:19.737Z</time></trkpt><trkpt lat="43.37321558467098" lon="11.939079763758386"><ele>753.0</ele><time>2026-04-11T07:28:20.739Z</time></trkpt><trkpt lat="43.373179847790624" lon="11.938911224201396"><ele>753.0</ele><time>2026-04-11T07:28:22.739Z</time></trkpt><trkpt lat="43.373169237676834" lon="11.938794367529619"><ele>753.0</ele><time>2026-04-11T07:28:23.738Z</time></trkpt><trkpt lat="43.373142608130834" lon="11.93869785169666"><ele>753.0</ele><time>2026-04-11T07:28:24.739Z</time></trkpt><trkpt lat="43.37312417625267" lon="11.938608502175786"><ele>753.0</ele><time>2026-04-11T07:28:25.739Z</time></trkpt><trkpt lat="43.373031976232326" lon="11.938461092820651"><ele>750.0</ele><time>2026-04-11T07:28:27.738Z</time></trkpt><trkpt lat="43.372974210838215" lon="11.938409294454262"><ele>747.0</ele><time>2026-04-11T07:28:28.738Z</time></trkpt><trkpt lat="43.37291498801601" lon="11.938290068899551"><ele>744.0</ele><time>2026-04-11T07:28:30.739Z</time></trkpt><trkpt lat="43.37281805081373" lon="11.938251424679647"><ele>741.0</ele><time>2026-04-11T07:28:32.739Z</time></trkpt><trkpt lat="43.3726978747896" lon="11.93823618751312"><ele>738.0</ele><time>2026-04-11T07:28:34.747Z</time></trkpt><trkpt lat="43.37262273943211" lon="11.938165113824464"><ele>738.0</ele><time>2026-04-11T07:28:35.747Z</time></trkpt><trkpt lat="43.37257032986066" lon="11.938105620169608"><ele>738.0</ele><time>2026-04-11T07:28:36.738Z</time></trkpt><trkpt lat="43.37247784465078" lon="11.93802638493256"><ele>738.0</ele><time>2026-04-11T07:28:38.738Z</time></trkpt><trkpt lat="43.37240028606966" lon="11.937994570956082"><ele>738.0</ele><time>2026-04-11T07:28:40.747Z</time></trkpt><trkpt lat="43.37231821501127" lon="11.937978018703449"><ele>738.0</ele><time>2026-04-11T07:28:42.747Z</time></trkpt><trkpt lat="43.3722159450122" lon="11.938001089573186"><ele>738.0</ele><time>2026-04-11T07:28:44.738Z</time></trkpt><trkpt lat="43.37210276484395" lon="11.938058620470796"><ele>734.5999999999999</ele><time>2026-04-11T07:28:46.741Z</time></trkpt><trkpt lat="43.37195897282581" lon="11.938054399950257"><ele>731.1999999999999</ele><time>2026-04-11T07:28:48.739Z</time></trkpt><trkpt lat="43.371897168083436" lon="11.93803708973218"><ele>727.8</ele><time>2026-04-11T07:28:49.738Z</time></trkpt><trkpt lat="43.37179801921802" lon="11.938111981931918"><ele>724.4</ele><time>2026-04-11T07:28:51.736Z</time></trkpt><trkpt lat="43.37172177828856" lon="11.938164440670548"><ele>721.0</ele><time>2026-04-11T07:28:53.738Z</time></trkpt><trkpt lat="43.371653146095916" lon="11.938193080017689"><ele>721.0</ele><time>2026-04-11T07:28:55.739Z</time></trkpt><trkpt lat="43.37162592045785" lon="11.938287188669214"><ele>721.0</ele><time>2026-04-11T07:28:58.739Z</time></trkpt><trkpt lat="43.371567008538825" lon="11.938323931998278"><ele>721.0</ele><time>2026-04-11T07:44:23.739Z</time></trkpt><trkpt lat="43.371476337836114" lon="11.938186651652115"><ele>721.0</ele><time>2026-04-11T07:44:39.738Z</time></trkpt><trkpt lat="43.37146293488969" lon="11.938086010408737"><ele>721.0</ele><time>2026-04-11T07:44:41.748Z</time></trkpt><trkpt lat="43.37144225137771" lon="11.938003251141415"><ele>721.0</ele><time>2026-04-11T07:44:43.738Z</time></trkpt><trkpt lat="43.37139146935699" lon="11.937909256226602"><ele>721.8</ele><time>2026-04-11T07:44:45.748Z</time></trkpt><trkpt lat="43.3712815366339" lon="11.937813913643685"><ele>722.5999999999999</ele><time>2026-04-11T07:44:47.737Z</time></trkpt><trkpt lat="43.371199378040245" lon="11.937721820186601"><ele>723.4</ele><time>2026-04-11T07:44:49.738Z</time></trkpt><trkpt lat="43.37114970354345" lon="11.937650463269955"><ele>724.2</ele><time>2026-04-11T07:44:50.738Z</time></trkpt><trkpt lat="43.37106393286456" lon="11.937537945020756"><ele>725.0</ele><time>2026-04-11T07:44:52.739Z</time></trkpt><trkpt lat="43.37099682953822" lon="11.937434701534231"><ele>723.8571428571429</ele><time>2026-04-11T07:44:54.738Z</time></trkpt><trkpt lat="43.37093558568119" lon="11.93731515103752"><ele>722.7142857142858</ele><time>2026-04-11T07:44:56.739Z</time></trkpt><trkpt lat="43.37090025237763" lon="11.937239427707306"><ele>721.5714285714286</ele><time>2026-04-11T07:44:57.748Z</time></trkpt><trkpt lat="43.37085877740167" lon="11.937169039659763"><ele>720.4285714285714</ele><time>2026-04-11T07:44:58.735Z</time></trkpt><trkpt lat="43.37080921463967" lon="11.937114400050376"><ele>719.2857142857142</ele><time>2026-04-11T07:44:59.738Z</time></trkpt><trkpt lat="43.37074649183115" lon="11.93706398566848"><ele>718.1428571428571</ele><time>2026-04-11T07:45:00.739Z</time></trkpt><trkpt lat="43.37068174169812" lon="11.93701243619487"><ele>717.0</ele><time>2026-04-11T07:45:01.738Z</time></trkpt><trkpt lat="43.37061244828224" lon="11.936977163904245"><ele>717.0</ele><time>2026-04-11T07:45:02.739Z</time></trkpt><trkpt lat="43.37054386377693" lon="11.936955517882259"><ele>717.0</ele><time>2026-04-11T07:45:03.738Z</time></trkpt><trkpt lat="43.37048192852044" lon="11.936924719628475"><ele>717.0</ele><time>2026-04-11T07:45:04.738Z</time></trkpt><trkpt lat="43.370417333169684" lon="11.936892605930774"><ele>717.0</ele><time>2026-04-11T07:45:05.737Z</time></trkpt><trkpt lat="43.37033557473623" lon="11.936876285682404"><ele>717.0</ele><time>2026-04-11T07:45:06.738Z</time></trkpt><trkpt lat="43.37015189434077" lon="11.93681368379173"><ele>717.8333333333334</ele><time>2026-04-11T07:45:08.739Z</time></trkpt><trkpt lat="43.37006818222123" lon="11.936770510599542"><ele>718.6666666666666</ele><time>2026-04-11T07:45:09.738Z</time></trkpt><trkpt lat="43.36999658236251" lon="11.936725044762438"><ele>719.5</ele><time>2026-04-11T07:45:10.738Z</time></trkpt><trkpt lat="43.36991852008165" lon="11.936675360813007"><ele>720.3333333333333</ele><time>2026-04-11T07:45:11.748Z</time></trkpt><trkpt lat="43.36983348407128" lon="11.936659960678247"><ele>721.1666666666666</ele><time>2026-04-11T07:45:12.738Z</time></trkpt><trkpt lat="43.36974533443003" lon="11.936653101964664"><ele>722.0</ele><time>2026-04-11T07:45:13.737Z</time></trkpt><trkpt lat="43.36967793516243" lon="11.936648535049256"><ele>721.0</ele><time>2026-04-11T07:45:14.741Z</time></trkpt><trkpt lat="43.36956114651997" lon="11.936658793193168"><ele>720.0</ele><time>2026-04-11T07:45:16.747Z</time></trkpt><trkpt lat="43.36949805885883" lon="11.936676159977864"><ele>719.0</ele><time>2026-04-11T07:45:17.738Z</time></trkpt><trkpt lat="43.36942470527024" lon="11.936712993891428"><ele>718.0</ele><time>2026-04-11T07:45:19.746Z</time></trkpt><trkpt lat="43.36935736748734" lon="11.936714660068708"><ele>717.0</ele><time>2026-04-11T07:45:21.738Z</time></trkpt><trkpt lat="43.369296468194264" lon="11.936744958346903"><ele>716.0</ele><time>2026-04-11T07:45:22.74Z</time></trkpt><trkpt lat="43.36923386061669" lon="11.936790686018533"><ele>716.0</ele><time>2026-04-11T07:45:23.737Z</time></trkpt><trkpt lat="43.3691724474004" lon="11.93684166700842"><ele>716.0</ele><time>2026-04-11T07:45:24.737Z</time></trkpt><trkpt lat="43.369109910171666" lon="11.936900697420016"><ele>716.0</ele><time>2026-04-11T07:45:25.737Z</time></trkpt><trkpt lat="43.369036897939985" lon="11.93696049284375"><ele>716.0</ele><time>2026-04-11T07:45:26.737Z</time></trkpt><trkpt lat="43.368964774592996" lon="11.936993176128485"><ele>716.0</ele><time>2026-04-11T07:45:27.737Z</time></trkpt><trkpt lat="43.36884074300301" lon="11.937194673366662"><ele>715.0</ele><time>2026-04-11T07:45:31.738Z</time></trkpt><trkpt lat="43.36875184878427" lon="11.937283495210245"><ele>714.0</ele><time>2026-04-11T07:45:34.738Z</time></trkpt><trkpt lat="43.3686903679036" lon="11.937356858275022"><ele>713.0</ele><time>2026-04-11T07:45:36.737Z</time></trkpt><trkpt lat="43.368592509562426" lon="11.937326319283299"><ele>712.0</ele><time>2026-04-11T07:45:38.736Z</time></trkpt><trkpt lat="43.368551458410224" lon="11.937156671416696"><ele>711.0</ele><time>2026-04-11T07:45:40.741Z</time></trkpt><trkpt lat="43.36852503072643" lon="11.937059815464805"><ele>711.0</ele><time>2026-04-11T07:45:42.738Z</time></trkpt><trkpt lat="43.3685342391042" lon="11.936900658935812"><ele>711.0</ele><time>2026-04-11T07:45:44.736Z</time></trkpt><trkpt lat="43.36848943880914" lon="11.936755989905487"><ele>711.0</ele><time>2026-04-11T07:45:46.745Z</time></trkpt><trkpt lat="43.36847673286976" lon="11.936669466726295"><ele>711.0</ele><time>2026-04-11T07:45:47.746Z</time></trkpt><trkpt lat="43.36843887789772" lon="11.936526317801965"><ele>711.0</ele><time>2026-04-11T07:45:49.746Z</time></trkpt><trkpt lat="43.368352017832" lon="11.936314468003154"><ele>708.4</ele><time>2026-04-11T07:45:52.737Z</time></trkpt><trkpt lat="43.368277974868796" lon="11.936209925059817"><ele>705.8</ele><time>2026-04-11T07:45:54.738Z</time></trkpt><trkpt lat="43.36819159270086" lon="11.936144404380247"><ele>703.1999999999999</ele><time>2026-04-11T07:45:56.738Z</time></trkpt><trkpt lat="43.36811415079556" lon="11.936052632757454"><ele>700.5999999999999</ele><time>2026-04-11T07:45:58.735Z</time></trkpt><trkpt lat="43.36801511743491" lon="11.93597298920027"><ele>698.0</ele><time>2026-04-11T07:46:00.738Z</time></trkpt><trkpt lat="43.36794549826727" lon="11.935925682286577"><ele>698.0</ele><time>2026-04-11T07:46:01.737Z</time></trkpt><trkpt lat="43.3678779995993" lon="11.935893606229481"><ele>698.0</ele><time>2026-04-11T07:46:02.737Z</time></trkpt><trkpt lat="43.36780934991528" lon="11.93585891486172"><ele>698.0</ele><time>2026-04-11T07:46:03.737Z</time></trkpt><trkpt lat="43.367710734957456" lon="11.935782389124896"><ele>698.0</ele><time>2026-04-11T07:46:05.738Z</time></trkpt><trkpt lat="43.36763202148794" lon="11.935764264496395"><ele>698.0</ele><time>2026-04-11T07:46:06.738Z</time></trkpt><trkpt lat="43.36755131862334" lon="11.935756841717604"><ele>698.0</ele><time>2026-04-11T07:46:07.738Z</time></trkpt><trkpt lat="43.36748160253755" lon="11.935733522762474"><ele>693.0</ele><time>2026-04-11T07:46:08.738Z</time></trkpt><trkpt lat="43.36735622257515" lon="11.935707981557718"><ele>688.0</ele><time>2026-04-11T07:46:10.737Z</time></trkpt><trkpt lat="43.367122638512186" lon="11.935827089582695"><ele>683.0</ele><time>2026-04-11T07:46:14.748Z</time></trkpt><trkpt lat="43.36705042294004" lon="11.935827347779771"><ele>678.0</ele><time>2026-04-11T07:46:15.745Z</time></trkpt><trkpt lat="43.366912611549374" lon="11.93585480864896"><ele>677.3333333333334</ele><time>2026-04-11T07:46:17.737Z</time></trkpt><trkpt lat="43.36684240735955" lon="11.93585521733657"><ele>676.6666666666666</ele><time>2026-04-11T07:46:18.738Z</time></trkpt><trkpt lat="43.36677458080067" lon="11.935823458352194"><ele>676.0</ele><time>2026-04-11T07:46:19.735Z</time></trkpt><trkpt lat="43.366708019850726" lon="11.935797088693455"><ele>675.3333333333333</ele><time>2026-04-11T07:46:20.737Z</time></trkpt><trkpt lat="43.366639722076805" lon="11.935781743761021"><ele>674.6666666666666</ele><time>2026-04-11T07:46:21.737Z</time></trkpt><trkpt lat="43.36655481164702" lon="11.935795925469245"><ele>674.0</ele><time>2026-04-11T07:46:22.738Z</time></trkpt><trkpt lat="43.36646917604378" lon="11.935818919907753"><ele>674.0</ele><time>2026-04-11T07:46:23.737Z</time></trkpt><trkpt lat="43.36640403797" lon="11.9358586131693"><ele>674.0</ele><time>2026-04-11T07:46:24.738Z</time></trkpt><trkpt lat="43.36628993512535" lon="11.935868470086852"><ele>674.0</ele><time>2026-04-11T07:46:26.747Z</time></trkpt><trkpt lat="43.36618459386712" lon="11.935894516131418"><ele>674.0</ele><time>2026-04-11T07:46:28.743Z</time></trkpt><trkpt lat="43.36612071221582" lon="11.935915444390615"><ele>674.0</ele><time>2026-04-11T07:46:29.745Z</time></trkpt><trkpt lat="43.36604803351791" lon="11.936008463272094"><ele>677.2</ele><time>2026-04-11T07:46:31.745Z</time></trkpt><trkpt lat="43.36602281081328" lon="11.936193210295208"><ele>680.4000000000001</ele><time>2026-04-11T07:46:33.734Z</time></trkpt><trkpt lat="43.36590699982244" lon="11.936233697194066"><ele>683.6</ele><time>2026-04-11T07:46:35.744Z</time></trkpt><trkpt lat="43.36584318937063" lon="11.936187302666434"><ele>686.8</ele><time>2026-04-11T07:46:36.743Z</time></trkpt><trkpt lat="43.36579507319798" lon="11.936083891859028"><ele>690.0</ele><time>2026-04-11T07:46:37.737Z</time></trkpt><trkpt lat="43.36574712251588" lon="11.935999200700111"><ele>690.0</ele><time>2026-04-11T07:46:38.735Z</time></trkpt><trkpt lat="43.36564303733743" lon="11.935932236221909"><ele>690.0</ele><time>2026-04-11T07:46:40.747Z</time></trkpt><trkpt lat="43.36556315236775" lon="11.935943110165184"><ele>690.0</ele><time>2026-04-11T07:46:41.737Z</time></trkpt><trkpt lat="43.36548474790551" lon="11.936002555751651"><ele>690.0</ele><time>2026-04-11T07:46:42.745Z</time></trkpt><trkpt lat="43.36542143094701" lon="11.93605113567425"><ele>690.0</ele><time>2026-04-11T07:46:43.737Z</time></trkpt><trkpt lat="43.36530799134849" lon="11.935999438813978"><ele>691.1666666666666</ele><time>2026-04-11T07:46:45.735Z</time></trkpt><trkpt lat="43.36526031552496" lon="11.935917700344055"><ele>692.3333333333334</ele><time>2026-04-11T07:46:46.738Z</time></trkpt><trkpt lat="43.365231361375535" lon="11.935810855471772"><ele>693.5</ele><time>2026-04-11T07:46:47.741Z</time></trkpt><trkpt lat="43.36519373402527" lon="11.935702466025218"><ele>694.6666666666667</ele><time>2026-04-11T07:46:48.736Z</time></trkpt><trkpt lat="43.365152753951996" lon="11.935609240565283"><ele>695.8333333333334</ele><time>2026-04-11T07:46:49.736Z</time></trkpt><trkpt lat="43.36511897450327" lon="11.935509003927288"><ele>697.0</ele><time>2026-04-11T07:46:50.739Z</time></trkpt><trkpt lat="43.365081573469794" lon="11.935426258128059"><ele>693.0</ele><time>2026-04-11T07:46:51.737Z</time></trkpt><trkpt lat="43.36500502627851" lon="11.935357042794262"><ele>689.0</ele><time>2026-04-11T07:46:52.739Z</time></trkpt><trkpt lat="43.364874210915495" lon="11.93518344064918"><ele>685.0</ele><time>2026-04-11T07:46:54.746Z</time></trkpt><trkpt lat="43.36483463729929" lon="11.935087357796407"><ele>681.0</ele><time>2026-04-11T07:46:55.746Z</time></trkpt><trkpt lat="43.36478606057892" lon="11.935018289325575"><ele>677.0</ele><time>2026-04-11T07:46:56.747Z</time></trkpt><trkpt lat="43.36471797967046" lon="11.934957360001599"><ele>673.8333333333333</ele><time>2026-04-11T07:46:57.738Z</time></trkpt><trkpt lat="43.36464191004708" lon="11.934882816453717"><ele>670.6666666666666</ele><time>2026-04-11T07:46:58.737Z</time></trkpt><trkpt lat="43.36458161774984" lon="11.93483443745068"><ele>667.5</ele><time>2026-04-11T07:46:59.737Z</time></trkpt><trkpt lat="43.36452003379646" lon="11.934809347655758"><ele>664.3333333333334</ele><time>2026-04-11T07:47:00.746Z</time></trkpt><trkpt lat="43.364408501251766" lon="11.934761620739803"><ele>661.1666666666667</ele><time>2026-04-11T07:47:02.737Z</time></trkpt><trkpt lat="43.36431468381332" lon="11.934699843199029"><ele>658.0</ele><time>2026-04-11T07:47:04.738Z</time></trkpt><trkpt lat="43.36420921226959" lon="11.934718815898153"><ele>658.0</ele><time>2026-04-11T07:47:06.746Z</time></trkpt><trkpt lat="43.36412741430434" lon="11.934740738847053"><ele>658.0</ele><time>2026-04-11T07:47:08.738Z</time></trkpt><trkpt lat="43.36405338370558" lon="11.934775476610971"><ele>658.0</ele><time>2026-04-11T07:47:10.739Z</time></trkpt><trkpt lat="43.36393920139801" lon="11.934852126974498"><ele>658.0</ele><time>2026-04-11T07:47:12.737Z</time></trkpt><trkpt lat="43.36387054877232" lon="11.934899477789983"><ele>658.0</ele><time>2026-04-11T07:47:13.745Z</time></trkpt><trkpt lat="43.36375887257521" lon="11.935016375447027"><ele>658.3333333333334</ele><time>2026-04-11T07:47:15.736Z</time></trkpt><trkpt lat="43.36370728169983" lon="11.935109241219802"><ele>658.6666666666667</ele><time>2026-04-11T07:47:16.745Z</time></trkpt><trkpt lat="43.363613024009226" lon="11.935133277880128"><ele>659.0</ele><time>2026-04-11T07:47:18.735Z</time></trkpt><trkpt lat="43.36358131648167" lon="11.935049903948313"><ele>659.3333333333334</ele><time>2026-04-11T07:47:19.735Z</time></trkpt><trkpt lat="43.36355175906297" lon="11.934945280307256"><ele>659.6666666666666</ele><time>2026-04-11T07:47:20.736Z</time></trkpt><trkpt lat="43.36349641561933" lon="11.934852312841624"><ele>660.0</ele><time>2026-04-11T07:47:21.736Z</time></trkpt><trkpt lat="43.36341601994694" lon="11.934815216559896"><ele>656.8</ele><time>2026-04-11T07:47:22.737Z</time></trkpt><trkpt lat="43.36333206867709" lon="11.934802748916788"><ele>653.6</ele><time>2026-04-11T07:47:23.74Z</time></trkpt><trkpt lat="43.36325918354342" lon="11.934737301339466"><ele>650.4000000000001</ele><time>2026-04-11T07:47:24.738Z</time></trkpt><trkpt lat="43.363182112764235" lon="11.934688236379076"><ele>647.2</ele><time>2026-04-11T07:47:25.737Z</time></trkpt><trkpt lat="43.36306037014309" lon="11.934750071526308"><ele>644.0</ele><time>2026-04-11T07:47:27.737Z</time></trkpt><trkpt lat="43.363006299170316" lon="11.934811114819828"><ele>643.8333333333333</ele><time>2026-04-11T07:47:28.736Z</time></trkpt><trkpt lat="43.362961369472224" lon="11.934907157307798"><ele>643.6666666666666</ele><time>2026-04-11T07:47:29.735Z</time></trkpt><trkpt lat="43.36291415491086" lon="11.935024858239297"><ele>643.5</ele><time>2026-04-11T07:47:30.735Z</time></trkpt><trkpt lat="43.36285665515794" lon="11.93510340062754"><ele>643.3333333333334</ele><time>2026-04-11T07:47:31.736Z</time></trkpt><trkpt lat="43.36280285805929" lon="11.935156819520127"><ele>643.1666666666667</ele><time>2026-04-11T07:47:32.737Z</time></trkpt><trkpt lat="43.36273200723798" lon="11.935152386261496"><ele>643.0</ele><time>2026-04-11T07:47:33.736Z</time></trkpt><trkpt lat="43.3626774128173" lon="11.935036688572715"><ele>643.0</ele><time>2026-04-11T07:47:35.736Z</time></trkpt><trkpt lat="43.36256282097686" lon="11.934756152761933"><ele>643.0</ele><time>2026-04-11T07:47:38.736Z</time></trkpt><trkpt lat="43.36250784404485" lon="11.934642348407206"><ele>643.0</ele><time>2026-04-11T07:47:39.734Z</time></trkpt><trkpt lat="43.36246941323663" lon="11.934541749304495"><ele>643.0</ele><time>2026-04-11T07:47:40.737Z</time></trkpt><trkpt lat="43.36244852522457" lon="11.934452472741159"><ele>643.0</ele><time>2026-04-11T07:47:41.741Z</time></trkpt><trkpt lat="43.3623900197845" lon="11.934373942403914"><ele>643.0</ele><time>2026-04-11T07:47:42.736Z</time></trkpt><trkpt lat="43.362334827384835" lon="11.934285668100008"><ele>643.0</ele><time>2026-04-11T07:47:44.736Z</time></trkpt><trkpt lat="43.3623191045327" lon="11.934180110360051"><ele>643.0</ele><time>2026-04-11T07:47:45.735Z</time></trkpt><trkpt lat="43.362313093449345" lon="11.93407501858792"><ele>643.0</ele><time>2026-04-11T07:47:46.736Z</time></trkpt><trkpt lat="43.3622301688214" lon="11.933971224848305"><ele>643.0</ele><time>2026-04-11T07:47:48.735Z</time></trkpt><trkpt lat="43.362165092777076" lon="11.933835478496478"><ele>643.1666666666667</ele><time>2026-04-11T07:47:50.735Z</time></trkpt><trkpt lat="43.362192796344736" lon="11.933727196604721"><ele>643.3333333333334</ele><time>2026-04-11T07:47:51.735Z</time></trkpt><trkpt lat="43.36222766155477" lon="11.933632946661119"><ele>643.5</ele><time>2026-04-11T07:47:52.737Z</time></trkpt><trkpt lat="43.36223989864589" lon="11.933539939574928"><ele>643.6666666666666</ele><time>2026-04-11T07:47:53.737Z</time></trkpt><trkpt lat="43.36221744077057" lon="11.933445899123221"><ele>643.8333333333333</ele><time>2026-04-11T07:47:54.737Z</time></trkpt><trkpt lat="43.36216997109008" lon="11.933334596858991"><ele>644.0</ele><time>2026-04-11T07:47:55.747Z</time></trkpt><trkpt lat="43.36214023379081" lon="11.933242089699625"><ele>642.4000000000001</ele><time>2026-04-11T07:47:56.747Z</time></trkpt><trkpt lat="43.36209989956587" lon="11.932986510486009"><ele>640.8000000000001</ele><time>2026-04-11T07:47:59.738Z</time></trkpt><trkpt lat="43.36206924432128" lon="11.9329021228023"><ele>639.2</ele><time>2026-04-11T07:48:00.747Z</time></trkpt><trkpt lat="43.36203116819186" lon="11.932827457425509"><ele>637.6</ele><time>2026-04-11T07:48:01.746Z</time></trkpt><trkpt lat="43.36199502350472" lon="11.9327546801855"><ele>636.0</ele><time>2026-04-11T07:48:02.747Z</time></trkpt><trkpt lat="43.36193338125025" lon="11.932577940029978"><ele>634.4</ele><time>2026-04-11T07:48:04.746Z</time></trkpt><trkpt lat="43.36191322147671" lon="11.932459708698413"><ele>632.8</ele><time>2026-04-11T07:48:05.738Z</time></trkpt><trkpt lat="43.3618901774897" lon="11.93232572882691"><ele>631.1999999999999</ele><time>2026-04-11T07:48:06.746Z</time></trkpt><trkpt lat="43.361848083552196" lon="11.932227161731532"><ele>629.6</ele><time>2026-04-11T07:48:07.737Z</time></trkpt><trkpt lat="43.36178029907148" lon="11.932143251390778"><ele>628.0</ele><time>2026-04-11T07:48:08.738Z</time></trkpt><trkpt lat="43.36169188641651" lon="11.9320803529024"><ele>628.0</ele><time>2026-04-11T07:48:09.738Z</time></trkpt><trkpt lat="43.36161985160414" lon="11.932043907134027"><ele>628.0</ele><time>2026-04-11T07:48:10.738Z</time></trkpt><trkpt lat="43.361577053985165" lon="11.931908803807843"><ele>628.0</ele><time>2026-04-11T07:48:12.747Z</time></trkpt><trkpt lat="43.36155660378254" lon="11.931783601670933"><ele>628.0</ele><time>2026-04-11T07:48:14.738Z</time></trkpt><trkpt lat="43.3615653595419" lon="11.931674733419738"><ele>628.0</ele><time>2026-04-11T07:48:16.738Z</time></trkpt><trkpt lat="43.36156266454828" lon="11.93158346936232"><ele>628.0</ele><time>2026-04-11T07:48:18.736Z</time></trkpt><trkpt lat="43.36159019529342" lon="11.93137899569868"><ele>626.8333333333334</ele><time>2026-04-11T07:48:22.738Z</time></trkpt><trkpt lat="43.3615921869413" lon="11.931268260633527"><ele>625.6666666666667</ele><time>2026-04-11T07:48:24.738Z</time></trkpt><trkpt lat="43.36159244955694" lon="11.931129041358947"><ele>624.5</ele><time>2026-04-11T07:48:26.738Z</time></trkpt><trkpt lat="43.36159916091529" lon="11.931041758157566"><ele>623.3333333333334</ele><time>2026-04-11T07:48:27.737Z</time></trkpt><trkpt lat="43.36158750308722" lon="11.930873632059383"><ele>622.1666666666666</ele><time>2026-04-11T07:48:29.736Z</time></trkpt><trkpt lat="43.36155010960512" lon="11.930797697884186"><ele>621.0</ele><time>2026-04-11T07:48:30.737Z</time></trkpt><trkpt lat="43.361506649677395" lon="11.930724962677463"><ele>619.6666666666666</ele><time>2026-04-11T07:48:31.736Z</time></trkpt><trkpt lat="43.3614712421678" lon="11.93059298235325"><ele>618.3333333333334</ele><time>2026-04-11T07:48:33.736Z</time></trkpt><trkpt lat="43.36144346742615" lon="11.930487767571627"><ele>617.0</ele><time>2026-04-11T07:48:34.737Z</time></trkpt><trkpt lat="43.36140772840902" lon="11.93039733509127"><ele>615.6666666666667</ele><time>2026-04-11T07:48:35.736Z</time></trkpt><trkpt lat="43.36137193869086" lon="11.930314646962964"><ele>614.3333333333334</ele><time>2026-04-11T07:48:36.737Z</time></trkpt><trkpt lat="43.36134123185328" lon="11.930238437652338"><ele>613.0</ele><time>2026-04-11T07:48:37.738Z</time></trkpt><trkpt lat="43.36130408806695" lon="11.93016705191323"><ele>610.0</ele><time>2026-04-11T07:48:38.738Z</time></trkpt><trkpt lat="43.361263216985634" lon="11.930083828090707"><ele>607.0</ele><time>2026-04-11T07:48:39.738Z</time></trkpt><trkpt lat="43.36118698136935" lon="11.929899868894026"><ele>604.0</ele><time>2026-04-11T07:48:41.737Z</time></trkpt><trkpt lat="43.36115701284264" lon="11.929795209420126"><ele>601.0</ele><time>2026-04-11T07:48:42.738Z</time></trkpt><trkpt lat="43.36112907309565" lon="11.929704865842034"><ele>598.0</ele><time>2026-04-11T07:48:43.747Z</time></trkpt><trkpt lat="43.36109562346562" lon="11.929614662340692"><ele>597.0</ele><time>2026-04-11T07:48:44.75Z</time></trkpt><trkpt lat="43.36105868637568" lon="11.929530830525"><ele>596.0</ele><time>2026-04-11T07:48:45.746Z</time></trkpt><trkpt lat="43.36102413953027" lon="11.929450140509708"><ele>595.0</ele><time>2026-04-11T07:48:46.747Z</time></trkpt><trkpt lat="43.36096785667785" lon="11.929325647601383"><ele>594.0</ele><time>2026-04-11T07:48:48.739Z</time></trkpt><trkpt lat="43.3610111209957" lon="11.929155616950531"><ele>593.0</ele><time>2026-04-11T07:48:50.747Z</time></trkpt><trkpt lat="43.3610544772042" lon="11.929016227742313"><ele>593.0</ele><time>2026-04-11T07:48:52.748Z</time></trkpt><trkpt lat="43.360963921313775" lon="11.928928545441062"><ele>593.0</ele><time>2026-04-11T07:48:54.737Z</time></trkpt><trkpt lat="43.36087183862912" lon="11.928872745771379"><ele>593.0</ele><time>2026-04-11T07:48:56.737Z</time></trkpt><trkpt lat="43.360805964043" lon="11.928847435568667"><ele>593.0</ele><time>2026-04-11T07:48:59.738Z</time></trkpt><trkpt lat="43.3606883617031" lon="11.928813105001435"><ele>593.0</ele><time>2026-04-11T07:49:02.737Z</time></trkpt><trkpt lat="43.360535430435924" lon="11.92876901143684"><ele>587.8</ele><time>2026-04-11T07:49:05.737Z</time></trkpt><trkpt lat="43.36045899080575" lon="11.92874588883479"><ele>582.5999999999999</ele><time>2026-04-11T07:49:07.737Z</time></trkpt><trkpt lat="43.3603589933579" lon="11.928727914027839"><ele>577.4000000000001</ele><time>2026-04-11T07:49:09.737Z</time></trkpt><trkpt lat="43.360246766361556" lon="11.928714903501191"><ele>572.2</ele><time>2026-04-11T07:49:11.737Z</time></trkpt><trkpt lat="43.36018113917892" lon="11.928674148234034"><ele>567.0</ele><time>2026-04-11T07:49:12.745Z</time></trkpt><trkpt lat="43.360079460179634" lon="11.92851484200163"><ele>565.75</ele><time>2026-04-11T07:49:14.739Z</time></trkpt><trkpt lat="43.36001654985134" lon="11.928351659301006"><ele>564.5</ele><time>2026-04-11T07:49:15.738Z</time></trkpt><trkpt lat="43.35995867839999" lon="11.928186872977054"><ele>563.25</ele><time>2026-04-11T07:49:16.739Z</time></trkpt><trkpt lat="43.35990076723271" lon="11.928041818257118"><ele>562.0</ele><time>2026-04-11T07:49:17.737Z</time></trkpt><trkpt lat="43.35984601356284" lon="11.92790304127353"><ele>562.0</ele><time>2026-04-11T07:49:18.739Z</time></trkpt><trkpt lat="43.35978493721669" lon="11.92776995553221"><ele>562.0</ele><time>2026-04-11T07:49:19.736Z</time></trkpt><trkpt lat="43.35972421816011" lon="11.927665990815056"><ele>562.0</ele><time>2026-04-11T07:49:20.739Z</time></trkpt><trkpt lat="43.359669016571104" lon="11.92757182765852"><ele>562.0</ele><time>2026-04-11T07:49:21.738Z</time></trkpt><trkpt lat="43.359618620643886" lon="11.927489305832943"><ele>562.0</ele><time>2026-04-11T07:49:22.747Z</time></trkpt><trkpt lat="43.35956973078141" lon="11.927402972904673"><ele>558.6</ele><time>2026-04-11T07:49:23.747Z</time></trkpt><trkpt lat="43.35946297943698" lon="11.927291466399428"><ele>555.2</ele><time>2026-04-11T07:49:25.739Z</time></trkpt><trkpt lat="43.35939593903679" lon="11.927243123642052"><ele>551.8</ele><time>2026-04-11T07:49:26.739Z</time></trkpt><trkpt lat="43.35934069322952" lon="11.927153364419414"><ele>548.4</ele><time>2026-04-11T07:49:27.738Z</time></trkpt><trkpt lat="43.359297204822724" lon="11.927040123166101"><ele>545.0</ele><time>2026-04-11T07:49:28.738Z</time></trkpt><trkpt lat="43.3592508415164" lon="11.926926927931246"><ele>545.0</ele><time>2026-04-11T07:49:29.739Z</time></trkpt><trkpt lat="43.35919423849531" lon="11.926842951543135"><ele>545.0</ele><time>2026-04-11T07:49:30.738Z</time></trkpt><trkpt lat="43.35914039539205" lon="11.92676706156472"><ele>545.0</ele><time>2026-04-11T07:49:31.74Z</time></trkpt><trkpt lat="43.35909651294636" lon="11.926691397335716"><ele>545.0</ele><time>2026-04-11T07:49:32.738Z</time></trkpt><trkpt lat="43.359050184698084" lon="11.926613317769043"><ele>545.0</ele><time>2026-04-11T07:49:33.738Z</time></trkpt><trkpt lat="43.35899851489498" lon="11.926522648115668"><ele>545.0</ele><time>2026-04-11T07:49:34.738Z</time></trkpt><trkpt lat="43.35894628424941" lon="11.926425809191608"><ele>545.8333333333333</ele><time>2026-04-11T07:49:35.738Z</time></trkpt><trkpt lat="43.358893765427155" lon="11.926340231250686"><ele>546.6666666666666</ele><time>2026-04-11T07:49:36.739Z</time></trkpt><trkpt lat="43.35882888468142" lon="11.926251956580343"><ele>547.5</ele><time>2026-04-11T07:49:37.738Z</time></trkpt><trkpt lat="43.35876972566896" lon="11.926171664612312"><ele>548.3333333333334</ele><time>2026-04-11T07:49:38.739Z</time></trkpt><trkpt lat="43.35871876993053" lon="11.926098310860837"><ele>549.1666666666667</ele><time>2026-04-11T07:49:39.736Z</time></trkpt><trkpt lat="43.358673638789696" lon="11.926018526192303"><ele>550.0</ele><time>2026-04-11T07:49:40.738Z</time></trkpt><trkpt lat="43.35861984329193" lon="11.925955049567987"><ele>549.75</ele><time>2026-04-11T07:49:41.737Z</time></trkpt><trkpt lat="43.35855006893783" lon="11.925898973834633"><ele>549.5</ele><time>2026-04-11T07:49:42.743Z</time></trkpt><trkpt lat="43.358462274484395" lon="11.925871593033415"><ele>549.25</ele><time>2026-04-11T07:49:43.738Z</time></trkpt><trkpt lat="43.358362932352925" lon="11.925892030206347"><ele>549.0</ele><time>2026-04-11T07:49:44.738Z</time></trkpt><trkpt lat="43.35816483116748" lon="11.92591997852666"><ele>546.3333333333334</ele><time>2026-04-11T07:49:46.737Z</time></trkpt><trkpt lat="43.35808583412749" lon="11.925920415952586"><ele>543.6666666666666</ele><time>2026-04-11T07:49:47.749Z</time></trkpt><trkpt lat="43.358011023566895" lon="11.925925620827853"><ele>541.0</ele><time>2026-04-11T07:49:48.749Z</time></trkpt><trkpt lat="43.35793605165205" lon="11.925932025924734"><ele>538.3333333333333</ele><time>2026-04-11T07:49:49.747Z</time></trkpt><trkpt lat="43.357847781181455" lon="11.925942001293503"><ele>535.6666666666666</ele><time>2026-04-11T07:49:50.745Z</time></trkpt><trkpt lat="43.357741880020896" lon="11.925925650657438"><ele>533.0</ele><time>2026-04-11T07:49:51.737Z</time></trkpt><trkpt lat="43.35766547596259" lon="11.925914363711712"><ele>532.1666666666666</ele><time>2026-04-11T07:49:52.738Z</time></trkpt><trkpt lat="43.35759497985214" lon="11.925882820172417"><ele>531.3333333333333</ele><time>2026-04-11T07:49:53.736Z</time></trkpt><trkpt lat="43.35752602502223" lon="11.925843703456794"><ele>530.5</ele><time>2026-04-11T07:49:54.747Z</time></trkpt><trkpt lat="43.35745141154144" lon="11.925831267186238"><ele>529.6666666666666</ele><time>2026-04-11T07:49:55.749Z</time></trkpt><trkpt lat="43.35736362699198" lon="11.925833988934018"><ele>528.8333333333334</ele><time>2026-04-11T07:49:56.748Z</time></trkpt><trkpt lat="43.35727007723196" lon="11.925823524013538"><ele>528.0</ele><time>2026-04-11T07:49:57.749Z</time></trkpt><trkpt lat="43.35717056522227" lon="11.925788026311476"><ele>528.0</ele><time>2026-04-11T07:49:58.736Z</time></trkpt><trkpt lat="43.357068922120284" lon="11.925719855389104"><ele>528.0</ele><time>2026-04-11T07:49:59.746Z</time></trkpt><trkpt lat="43.35697487256059" lon="11.925660944734073"><ele>528.0</ele><time>2026-04-11T07:50:00.746Z</time></trkpt><trkpt lat="43.35688869942777" lon="11.925640054626944"><ele>528.0</ele><time>2026-04-11T07:50:01.749Z</time></trkpt><trkpt lat="43.3568036610936" lon="11.925632291849757"><ele>528.0</ele><time>2026-04-11T07:50:02.747Z</time></trkpt><trkpt lat="43.356706840834434" lon="11.925623353586367"><ele>528.0</ele><time>2026-04-11T07:50:03.747Z</time></trkpt><trkpt lat="43.356612022986624" lon="11.92561167747875"><ele>528.0</ele><time>2026-04-11T07:50:04.747Z</time></trkpt><trkpt lat="43.35654311973028" lon="11.92556359525259"><ele>528.0</ele><time>2026-04-11T07:50:05.75Z</time></trkpt><trkpt lat="43.35636612763205" lon="11.92547170442344"><ele>528.0</ele><time>2026-04-11T07:50:08.747Z</time></trkpt><trkpt lat="43.35624115519357" lon="11.925465262219273"><ele>524.1666666666666</ele><time>2026-04-11T07:50:10.748Z</time></trkpt><trkpt lat="43.35615711593419" lon="11.92542838548366"><ele>520.3333333333334</ele><time>2026-04-11T07:50:11.745Z</time></trkpt><trkpt lat="43.35609293259996" lon="11.925375914678238"><ele>516.5</ele><time>2026-04-11T07:50:12.747Z</time></trkpt><trkpt lat="43.35602324373977" lon="11.92533278587149"><ele>512.6666666666667</ele><time>2026-04-11T07:50:13.745Z</time></trkpt><trkpt lat="43.355958071018" lon="11.925319412360395"><ele>508.83333333333337</ele><time>2026-04-11T07:50:14.748Z</time></trkpt><trkpt lat="43.3558906261542" lon="11.925339062196752"><ele>505.0</ele><time>2026-04-11T07:50:15.746Z</time></trkpt><trkpt lat="43.3557676627936" lon="11.92532362655566"><ele>505.0</ele><time>2026-04-11T07:50:17.749Z</time></trkpt><trkpt lat="43.355677163276404" lon="11.925201711273262"><ele>505.0</ele><time>2026-04-11T07:50:19.743Z</time></trkpt><trkpt lat="43.35555437643989" lon="11.92514691071238"><ele>505.0</ele><time>2026-04-11T07:50:21.749Z</time></trkpt><trkpt lat="43.35544876093913" lon="11.925049826956803"><ele>505.0</ele><time>2026-04-11T07:50:23.751Z</time></trkpt><trkpt lat="43.355380217271" lon="11.924924464958044"><ele>501.75</ele><time>2026-04-11T07:50:25.738Z</time></trkpt><trkpt lat="43.35530121243781" lon="11.924833753968324"><ele>498.5</ele><time>2026-04-11T07:50:27.737Z</time></trkpt><trkpt lat="43.35513945324994" lon="11.924656345131094"><ele>495.25</ele><time>2026-04-11T07:50:31.747Z</time></trkpt><trkpt lat="43.355090730962154" lon="11.924538488676069"><ele>492.0</ele><time>2026-04-11T07:50:33.746Z</time></trkpt><trkpt lat="43.355069272265176" lon="11.924402757861387"><ele>492.0</ele><time>2026-04-11T07:50:35.737Z</time></trkpt><trkpt lat="43.355046915209385" lon="11.924295758523858"><ele>492.00000000000006</ele><time>2026-04-11T07:50:37.745Z</time></trkpt><trkpt lat="43.35500606279813" lon="11.924166279215406"><ele>492.00000000000006</ele><time>2026-04-11T07:50:39.737Z</time></trkpt><trkpt lat="43.35493901685927" lon="11.924038616515888"><ele>492.0</ele><time>2026-04-11T07:50:41.738Z</time></trkpt><trkpt lat="43.354884802052894" lon="11.923906894621156"><ele>492.0</ele><time>2026-04-11T07:50:43.738Z</time></trkpt><trkpt lat="43.3548436414877" lon="11.923839217251016"><ele>492.20000000000005</ele><time>2026-04-11T07:50:44.737Z</time></trkpt><trkpt lat="43.3547951660624" lon="11.923769545034155"><ele>492.40000000000003</ele><time>2026-04-11T07:50:45.736Z</time></trkpt><trkpt lat="43.35473661194155" lon="11.923686605089523"><ele>492.59999999999997</ele><time>2026-04-11T07:50:46.738Z</time></trkpt><trkpt lat="43.35467616131683" lon="11.923587999924155"><ele>492.79999999999995</ele><time>2026-04-11T07:50:47.738Z</time></trkpt><trkpt lat="43.3546339240925" lon="11.92348928085195"><ele>493.0</ele><time>2026-04-11T07:50:48.739Z</time></trkpt><trkpt lat="43.35450251577268" lon="11.923292173370108"><ele>487.2</ele><time>2026-04-11T07:50:50.737Z</time></trkpt><trkpt lat="43.3544169325867" lon="11.923211512279705"><ele>481.4</ele><time>2026-04-11T07:50:51.738Z</time></trkpt><trkpt lat="43.35432648675723" lon="11.923148689905329"><ele>475.59999999999997</ele><time>2026-04-11T07:50:52.738Z</time></trkpt><trkpt lat="43.35423509745923" lon="11.923091338705332"><ele>469.79999999999995</ele><time>2026-04-11T07:50:53.737Z</time></trkpt><trkpt lat="43.354144899689985" lon="11.92302851979179"><ele>464.0</ele><time>2026-04-11T07:50:54.745Z</time></trkpt><trkpt lat="43.354078360706104" lon="11.922967021207363"><ele>464.0</ele><time>2026-04-11T07:50:55.746Z</time></trkpt><trkpt lat="43.353999269878344" lon="11.922899419154957"><ele>464.0</ele><time>2026-04-11T07:50:56.748Z</time></trkpt><trkpt lat="43.35391345993234" lon="11.922855591053747"><ele>464.0</ele><time>2026-04-11T07:50:57.738Z</time></trkpt><trkpt lat="43.35382667890061" lon="11.922818890961608"><ele>464.0</ele><time>2026-04-11T07:50:58.738Z</time></trkpt><trkpt lat="43.35374183064142" lon="11.922776529134175"><ele>464.0</ele><time>2026-04-11T07:50:59.74Z</time></trkpt><trkpt lat="43.35365587861907" lon="11.922740848573635"><ele>462.6</ele><time>2026-04-11T07:51:00.749Z</time></trkpt><trkpt lat="43.35356473708893" lon="11.922696432989522"><ele>461.2</ele><time>2026-04-11T07:51:01.746Z</time></trkpt><trkpt lat="43.35348471514086" lon="11.922636124651847"><ele>459.80000000000007</ele><time>2026-04-11T07:51:02.739Z</time></trkpt><trkpt lat="43.35340404280072" lon="11.922545764124429"><ele>458.40000000000003</ele><time>2026-04-11T07:51:03.739Z</time></trkpt><trkpt lat="43.353319767844695" lon="11.922456387070111"><ele>457.0</ele><time>2026-04-11T07:51:04.738Z</time></trkpt><trkpt lat="43.353219302221724" lon="11.922398250516485"><ele>457.0</ele><time>2026-04-11T07:51:05.738Z</time></trkpt><trkpt lat="43.35310618383301" lon="11.922374143229069"><ele>457.00000000000006</ele><time>2026-04-11T07:51:06.739Z</time></trkpt><trkpt lat="43.35299654634243" lon="11.92235205444596"><ele>457.00000000000006</ele><time>2026-04-11T07:51:07.738Z</time></trkpt><trkpt lat="43.35289328927919" lon="11.922317183224598"><ele>457.0</ele><time>2026-04-11T07:51:08.739Z</time></trkpt><trkpt lat="43.35279431098515" lon="11.92227475204432"><ele>457.0</ele><time>2026-04-11T07:51:09.739Z</time></trkpt><trkpt lat="43.3526201364572" lon="11.92215538398615"><ele>455.0</ele><time>2026-04-11T07:51:11.738Z</time></trkpt><trkpt lat="43.35254388386482" lon="11.92207053064751"><ele>453.00000000000006</ele><time>2026-04-11T07:51:12.736Z</time></trkpt><trkpt lat="43.35245503187984" lon="11.922010798146538"><ele>451.00000000000006</ele><time>2026-04-11T07:51:13.738Z</time></trkpt><trkpt lat="43.352358806732525" lon="11.921983641900178"><ele>449.0</ele><time>2026-04-11T07:51:14.739Z</time></trkpt><trkpt lat="43.35223898471391" lon="11.921959697851864"><ele>447.0</ele><time>2026-04-11T07:51:15.747Z</time></trkpt><trkpt lat="43.35212817544895" lon="11.921949408113296"><ele>444.40000000000003</ele><time>2026-04-11T07:51:16.748Z</time></trkpt><trkpt lat="43.352019912484266" lon="11.92195304601901"><ele>441.80000000000007</ele><time>2026-04-11T07:51:17.747Z</time></trkpt><trkpt lat="43.351915201886776" lon="11.921945903029302"><ele>439.2</ele><time>2026-04-11T07:51:18.738Z</time></trkpt><trkpt lat="43.351812788301956" lon="11.921944771400964"><ele>436.6</ele><time>2026-04-11T07:51:19.735Z</time></trkpt><trkpt lat="43.3517165491219" lon="11.921959426444408"><ele>434.0</ele><time>2026-04-11T07:51:20.738Z</time></trkpt><trkpt lat="43.35162789204952" lon="11.921997849033291"><ele>433.99999999999994</ele><time>2026-04-11T07:51:21.737Z</time></trkpt><trkpt lat="43.351555581225746" lon="11.922067850673846"><ele>434.0</ele><time>2026-04-11T07:51:22.738Z</time></trkpt><trkpt lat="43.35149389308011" lon="11.922151852325554"><ele>434.0</ele><time>2026-04-11T07:51:23.737Z</time></trkpt><trkpt lat="43.351418867951935" lon="11.922210760031247"><ele>434.0</ele><time>2026-04-11T07:51:24.738Z</time></trkpt><trkpt lat="43.35133988667557" lon="11.92225535153269"><ele>433.99999999999994</ele><time>2026-04-11T07:51:25.737Z</time></trkpt><trkpt lat="43.35124681272928" lon="11.922283856176483"><ele>434.0</ele><time>2026-04-11T07:51:26.738Z</time></trkpt><trkpt lat="43.35114925927812" lon="11.922293503235043"><ele>431.5</ele><time>2026-04-11T07:51:27.739Z</time></trkpt><trkpt lat="43.35105132874159" lon="11.92228243583772"><ele>429.0</ele><time>2026-04-11T07:51:28.737Z</time></trkpt><trkpt lat="43.35095413004122" lon="11.92224580658582"><ele>426.5</ele><time>2026-04-11T07:51:29.738Z</time></trkpt><trkpt lat="43.350849961858934" lon="11.922208607436158"><ele>424.0</ele><time>2026-04-11T07:51:30.737Z</time></trkpt><trkpt lat="43.35064346223715" lon="11.922129955688332"><ele>419.25</ele><time>2026-04-11T07:51:32.738Z</time></trkpt><trkpt lat="43.35053004115675" lon="11.922124515855549"><ele>414.5</ele><time>2026-04-11T07:51:33.738Z</time></trkpt><trkpt lat="43.3504101283166" lon="11.92214995135364"><ele>409.75</ele><time>2026-04-11T07:51:34.739Z</time></trkpt><trkpt lat="43.35029235517919" lon="11.922165084518587"><ele>405.0</ele><time>2026-04-11T07:51:35.739Z</time></trkpt><trkpt lat="43.3501787662492" lon="11.922166687985197"><ele>405.0</ele><time>2026-04-11T07:51:36.738Z</time></trkpt><trkpt lat="43.35007493786777" lon="11.92217268108097"><ele>405.0</ele><time>2026-04-11T07:51:37.738Z</time></trkpt><trkpt lat="43.34997334050708" lon="11.9221704750257"><ele>405.0</ele><time>2026-04-11T07:51:38.737Z</time></trkpt><trkpt lat="43.349874736066106" lon="11.922131796701198"><ele>405.0</ele><time>2026-04-11T07:51:39.739Z</time></trkpt><trkpt lat="43.349782896972165" lon="11.922058669172515"><ele>405.0</ele><time>2026-04-11T07:51:40.739Z</time></trkpt><trkpt lat="43.34968966794138" lon="11.921979732236863"><ele>404.2</ele><time>2026-04-11T07:51:41.738Z</time></trkpt><trkpt lat="43.34960214692083" lon="11.921886003480644"><ele>403.4</ele><time>2026-04-11T07:51:42.739Z</time></trkpt><trkpt lat="43.34953040044373" lon="11.921781697672003"><ele>402.6</ele><time>2026-04-11T07:51:43.747Z</time></trkpt><trkpt lat="43.3494537451281" lon="11.92168910491571"><ele>401.8</ele><time>2026-04-11T07:51:44.748Z</time></trkpt><trkpt lat="43.34935543803291" lon="11.921634560508714"><ele>401.0</ele><time>2026-04-11T07:51:45.737Z</time></trkpt><trkpt lat="43.349249838108975" lon="11.921617771378841"><ele>401.0</ele><time>2026-04-11T07:51:46.738Z</time></trkpt><trkpt lat="43.34915113110073" lon="11.921624045080767"><ele>401.0</ele><time>2026-04-11T07:51:47.738Z</time></trkpt><trkpt lat="43.34906133935217" lon="11.921654024172984"><ele>401.0</ele><time>2026-04-11T07:51:48.736Z</time></trkpt><trkpt lat="43.348989668336365" lon="11.921731364982193"><ele>401.0</ele><time>2026-04-11T07:51:49.738Z</time></trkpt><trkpt lat="43.34893003644435" lon="11.921843190145752"><ele>401.0</ele><time>2026-04-11T07:51:50.741Z</time></trkpt><trkpt lat="43.348900162166586" lon="11.921990808586376"><ele>400.4</ele><time>2026-04-11T07:51:51.737Z</time></trkpt><trkpt lat="43.34883111738436" lon="11.922193798564045"><ele>399.8</ele><time>2026-04-11T07:51:53.746Z</time></trkpt><trkpt lat="43.348792444571075" lon="11.922284088757609"><ele>399.2</ele><time>2026-04-11T07:51:54.738Z</time></trkpt><trkpt lat="43.34875895397698" lon="11.92238076558666"><ele>398.59999999999997</ele><time>2026-04-11T07:51:55.737Z</time></trkpt><trkpt lat="43.34872139417555" lon="11.922485609110826"><ele>398.0</ele><time>2026-04-11T07:51:56.738Z</time></trkpt><trkpt lat="43.348683476745656" lon="11.922597075744452"><ele>394.0</ele><time>2026-04-11T07:51:57.737Z</time></trkpt><trkpt lat="43.34864166738677" lon="11.922714410540245"><ele>390.0</ele><time>2026-04-11T07:51:58.747Z</time></trkpt><trkpt lat="43.34860518665286" lon="11.922835297984133"><ele>386.0</ele><time>2026-04-11T07:51:59.74Z</time></trkpt><trkpt lat="43.34855468221642" lon="11.922953009326624"><ele>382.0</ele><time>2026-04-11T07:52:00.738Z</time></trkpt><trkpt lat="43.34848603913802" lon="11.923059805334614"><ele>378.0</ele><time>2026-04-11T07:52:01.741Z</time></trkpt><trkpt lat="43.34840881409803" lon="11.923144015329362"><ele>378.0</ele><time>2026-04-11T07:52:02.738Z</time></trkpt><trkpt lat="43.34831957403153" lon="11.923223817109797"><ele>378.0</ele><time>2026-04-11T07:52:03.736Z</time></trkpt><trkpt lat="43.34822757131522" lon="11.923283921493066"><ele>378.0</ele><time>2026-04-11T07:52:04.744Z</time></trkpt><trkpt lat="43.34813946365198" lon="11.9233136686798"><ele>378.0</ele><time>2026-04-11T07:52:05.737Z</time></trkpt><trkpt lat="43.34803557816138" lon="11.923327362300984"><ele>378.0</ele><time>2026-04-11T07:52:06.738Z</time></trkpt><trkpt lat="43.34793562829395" lon="11.923346483905705"><ele>377.2</ele><time>2026-04-11T07:52:07.737Z</time></trkpt><trkpt lat="43.34783617573183" lon="11.923350626108645"><ele>376.4</ele><time>2026-04-11T07:52:08.737Z</time></trkpt><trkpt lat="43.34773732701378" lon="11.923353569487658"><ele>375.59999999999997</ele><time>2026-04-11T07:52:09.736Z</time></trkpt><trkpt lat="43.347642753864285" lon="11.923342623315975"><ele>374.79999999999995</ele><time>2026-04-11T07:52:10.737Z</time></trkpt><trkpt lat="43.34754917857542" lon="11.923345143634505"><ele>374.0</ele><time>2026-04-11T07:52:11.736Z</time></trkpt><trkpt lat="43.34747216033105" lon="11.923404758170744"><ele>369.79999999999995</ele><time>2026-04-11T07:52:12.738Z</time></trkpt><trkpt lat="43.34737534026038" lon="11.923596282575152"><ele>365.59999999999997</ele><time>2026-04-11T07:52:14.737Z</time></trkpt><trkpt lat="43.347309705711695" lon="11.92367084808193"><ele>361.4</ele><time>2026-04-11T07:52:15.736Z</time></trkpt><trkpt lat="43.34723486504376" lon="11.923734474598353"><ele>357.2</ele><time>2026-04-11T07:52:16.736Z</time></trkpt><trkpt lat="43.347157220518795" lon="11.923792068594684"><ele>353.0</ele><time>2026-04-11T07:52:17.736Z</time></trkpt><trkpt lat="43.34707595549495" lon="11.923838880327184"><ele>352.0</ele><time>2026-04-11T07:52:18.737Z</time></trkpt><trkpt lat="43.34697828678752" lon="11.923881214879529"><ele>351.0</ele><time>2026-04-11T07:52:19.737Z</time></trkpt><trkpt lat="43.346877246947656" lon="11.923901674261788"><ele>350.0</ele><time>2026-04-11T07:52:20.737Z</time></trkpt><trkpt lat="43.34676688320621" lon="11.9238885222853"><ele>349.0</ele><time>2026-04-11T07:52:21.736Z</time></trkpt><trkpt lat="43.346657034684625" lon="11.923857676348945"><ele>348.0</ele><time>2026-04-11T07:52:22.738Z</time></trkpt><trkpt lat="43.346551200922924" lon="11.923819098843364"><ele>348.0</ele><time>2026-04-11T07:52:23.736Z</time></trkpt><trkpt lat="43.34647232549328" lon="11.923752788095634"><ele>348.0</ele><time>2026-04-11T07:52:24.738Z</time></trkpt><trkpt lat="43.346406000023514" lon="11.923709953753393"><ele>348.0</ele><time>2026-04-11T07:52:25.735Z</time></trkpt><trkpt lat="43.34633596217824" lon="11.923699540126224"><ele>348.0</ele><time>2026-04-11T07:52:26.734Z</time></trkpt><trkpt lat="43.34625484393226" lon="11.923730233913759"><ele>348.0</ele><time>2026-04-11T07:52:27.735Z</time></trkpt><trkpt lat="43.34617592333993" lon="11.92380603780516"><ele>348.0</ele><time>2026-04-11T07:52:28.735Z</time></trkpt><trkpt lat="43.34610635175826" lon="11.923885938780758"><ele>345.0</ele><time>2026-04-11T07:52:29.736Z</time></trkpt><trkpt lat="43.346016913222265" lon="11.923911577326445"><ele>342.0</ele><time>2026-04-11T07:52:30.736Z</time></trkpt><trkpt lat="43.34592613931373" lon="11.923884425017977"><ele>339.0</ele><time>2026-04-11T07:52:31.737Z</time></trkpt><trkpt lat="43.345841558084594" lon="11.92383953482939"><ele>336.0</ele><time>2026-04-11T07:52:32.737Z</time></trkpt><trkpt lat="43.34576767841096" lon="11.923788597421197"><ele>333.0</ele><time>2026-04-11T07:52:33.735Z</time></trkpt><trkpt lat="43.3456661233472" lon="11.923643335225966"><ele>333.0</ele><time>2026-04-11T07:52:35.736Z</time></trkpt><trkpt lat="43.34561734126267" lon="11.923571003004636"><ele>333.0</ele><time>2026-04-11T07:52:36.74Z</time></trkpt><trkpt lat="43.34554144979107" lon="11.923496808382186"><ele>333.0</ele><time>2026-04-11T07:52:37.742Z</time></trkpt><trkpt lat="43.345478521954846" lon="11.923420054156995"><ele>333.0</ele><time>2026-04-11T07:52:38.736Z</time></trkpt><trkpt lat="43.34541593929731" lon="11.923359594718935"><ele>333.0</ele><time>2026-04-11T07:52:39.733Z</time></trkpt><trkpt lat="43.34535174215669" lon="11.92330110105824"><ele>333.0</ele><time>2026-04-11T07:52:40.736Z</time></trkpt><trkpt lat="43.345277726585486" lon="11.92323564896499"><ele>332.2</ele><time>2026-04-11T07:52:41.735Z</time></trkpt><trkpt lat="43.34520584376517" lon="11.92319895757006"><ele>331.4</ele><time>2026-04-11T07:52:42.735Z</time></trkpt><trkpt lat="43.34514313763508" lon="11.923152900181782"><ele>330.59999999999997</ele><time>2026-04-11T07:52:43.735Z</time></trkpt><trkpt lat="43.3450367283425" lon="11.923131719728188"><ele>329.79999999999995</ele><time>2026-04-11T07:52:45.736Z</time></trkpt><trkpt lat="43.344975671570246" lon="11.923232366000462"><ele>329.0</ele><time>2026-04-11T07:52:47.736Z</time></trkpt><trkpt lat="43.345018473102215" lon="11.923360769975528"><ele>329.0</ele><time>2026-04-11T07:52:49.738Z</time></trkpt><trkpt lat="43.34502532332997" lon="11.923463854961966"><ele>329.0</ele><time>2026-04-11T07:52:52.737Z</time></trkpt><trkpt lat="43.34491628770823" lon="11.923458042629695"><ele>329.0</ele><time>2026-04-11T07:52:55.742Z</time></trkpt><trkpt lat="43.344823969625395" lon="11.92325807639494"><ele>329.0</ele><time>2026-04-11T07:52:58.739Z</time></trkpt><trkpt lat="43.34474853668136" lon="11.923166223618537"><ele>327.2</ele><time>2026-04-11T07:53:00.738Z</time></trkpt><trkpt lat="43.34466473268757" lon="11.923172451946918"><ele>325.4</ele><time>2026-04-11T07:53:02.738Z</time></trkpt><trkpt lat="43.344598953483334" lon="11.923190350233268"><ele>323.6</ele><time>2026-04-11T07:53:05.738Z</time></trkpt><trkpt lat="43.34453463782193" lon="11.923200497043418"><ele>321.8</ele><time>2026-04-11T07:54:02.738Z</time></trkpt><trkpt lat="43.34431996553992" lon="11.92308716802227"><ele>320.0</ele><time>2026-04-11T08:06:57.737Z</time></trkpt><trkpt lat="43.34423969930229" lon="11.923089507253506"><ele>320.0</ele><time>2026-04-11T08:07:00.737Z</time></trkpt><trkpt lat="43.344169273656355" lon="11.923131718104427"><ele>320.0</ele><time>2026-04-11T08:07:02.738Z</time></trkpt><trkpt lat="43.34407614892997" lon="11.923163174686195"><ele>320.0</ele><time>2026-04-11T08:07:05.737Z</time></trkpt><trkpt lat="43.343995455857296" lon="11.923192199104564"><ele>320.0</ele><time>2026-04-11T08:07:07.736Z</time></trkpt><trkpt lat="43.34392217695501" lon="11.92322802039997"><ele>320.0</ele><time>2026-04-11T08:07:09.737Z</time></trkpt><trkpt lat="43.34384705328705" lon="11.92328856540494"><ele>320.0</ele><time>2026-04-11T08:07:11.745Z</time></trkpt><trkpt lat="43.34382257005473" lon="11.923520022226011"><ele>318.2</ele><time>2026-04-11T08:07:15.738Z</time></trkpt><trkpt lat="43.34381880667749" lon="11.923620680236798"><ele>316.4</ele><time>2026-04-11T08:07:17.738Z</time></trkpt><trkpt lat="43.343834456742655" lon="11.923709982013131"><ele>314.6</ele><time>2026-04-11T08:07:20.746Z</time></trkpt><trkpt lat="43.34391914206581" lon="11.923733110016407"><ele>312.8</ele><time>2026-04-11T08:07:26.737Z</time></trkpt><trkpt lat="43.344009169101355" lon="11.923619603423358"><ele>311.0</ele><time>2026-04-11T08:07:28.748Z</time></trkpt><trkpt lat="43.344105693263664" lon="11.923531505429251"><ele>310.1666666666667</ele><time>2026-04-11T08:07:30.745Z</time></trkpt><trkpt lat="43.34416712360322" lon="11.923500373659824"><ele>309.33333333333337</ele><time>2026-04-11T08:07:31.747Z</time></trkpt><trkpt lat="43.34423862446617" lon="11.92348502667975"><ele>308.5</ele><time>2026-04-11T08:07:32.746Z</time></trkpt><trkpt lat="43.34438145731822" lon="11.923519702343647"><ele>307.6666666666667</ele><time>2026-04-11T08:07:34.738Z</time></trkpt><trkpt lat="43.344445229047636" lon="11.92355747014317"><ele>306.8333333333333</ele><time>2026-04-11T08:07:35.737Z</time></trkpt><trkpt lat="43.344503193192864" lon="11.923602897765976"><ele>306.0</ele><time>2026-04-11T08:07:36.737Z</time></trkpt><trkpt lat="43.34455431330855" lon="11.923666512120839"><ele>306.0</ele><time>2026-04-11T08:07:37.737Z</time></trkpt><trkpt lat="43.34460095211682" lon="11.923749085851503"><ele>306.0</ele><time>2026-04-11T08:07:38.745Z</time></trkpt><trkpt lat="43.3446253281703" lon="11.923856010724371"><ele>306.0</ele><time>2026-04-11T08:07:39.736Z</time></trkpt><trkpt lat="43.34461414983824" lon="11.923974056456828"><ele>306.0</ele><time>2026-04-11T08:07:40.737Z</time></trkpt><trkpt lat="43.34457157812684" lon="11.924080141376281"><ele>306.0</ele><time>2026-04-11T08:07:41.736Z</time></trkpt><trkpt lat="43.34447156678713" lon="11.924152955572875"><ele>306.0</ele><time>2026-04-11T08:07:42.746Z</time></trkpt><trkpt lat="43.34436943402116" lon="11.92420941270395"><ele>303.25</ele><time>2026-04-11T08:07:43.744Z</time></trkpt><trkpt lat="43.34425801900182" lon="11.924250467770698"><ele>300.5</ele><time>2026-04-11T08:07:44.738Z</time></trkpt><trkpt lat="43.34415326937032" lon="11.924292457485569"><ele>297.75</ele><time>2026-04-11T08:07:45.737Z</time></trkpt><trkpt lat="43.34404068838939" lon="11.924336300289216"><ele>295.0</ele><time>2026-04-11T08:07:46.746Z</time></trkpt><trkpt lat="43.343930410709646" lon="11.924381461662358"><ele>293.75</ele><time>2026-04-11T08:07:47.745Z</time></trkpt><trkpt lat="43.343812519703846" lon="11.92443035514774"><ele>292.5</ele><time>2026-04-11T08:07:48.742Z</time></trkpt><trkpt lat="43.34369289310116" lon="11.924472420013482"><ele>291.25</ele><time>2026-04-11T08:07:49.737Z</time></trkpt><trkpt lat="43.343577759144296" lon="11.924511422856122"><ele>290.0</ele><time>2026-04-11T08:07:50.737Z</time></trkpt><trkpt lat="43.34347158040539" lon="11.924544522326268"><ele>290.0</ele><time>2026-04-11T08:07:51.736Z</time></trkpt><trkpt lat="43.34336038045067" lon="11.924577049853896"><ele>290.0</ele><time>2026-04-11T08:07:52.737Z</time></trkpt><trkpt lat="43.34325135388082" lon="11.924610883864682"><ele>290.0</ele><time>2026-04-11T08:07:53.736Z</time></trkpt><trkpt lat="43.34303907969367" lon="11.924695315355873"><ele>290.0</ele><time>2026-04-11T08:07:55.736Z</time></trkpt><trkpt lat="43.3429312703219" lon="11.924737509771134"><ele>290.4</ele><time>2026-04-11T08:07:56.736Z</time></trkpt><trkpt lat="43.342826284243515" lon="11.924784273410621"><ele>290.8</ele><time>2026-04-11T08:07:57.736Z</time></trkpt><trkpt lat="43.3427251855319" lon="11.924836956714335"><ele>291.2</ele><time>2026-04-11T08:07:58.736Z</time></trkpt><trkpt lat="43.34263129943426" lon="11.924911736526832"><ele>291.6</ele><time>2026-04-11T08:07:59.733Z</time></trkpt><trkpt lat="43.34255088958234" lon="11.925026517028574"><ele>292.0</ele><time>2026-04-11T08:08:00.737Z</time></trkpt><trkpt lat="43.342486630290594" lon="11.925170513450293"><ele>289.0</ele><time>2026-04-11T08:08:01.736Z</time></trkpt><trkpt lat="43.342438951869845" lon="11.925336728086931"><ele>286.0</ele><time>2026-04-11T08:08:02.745Z</time></trkpt><trkpt lat="43.34239946510776" lon="11.925511531660494"><ele>283.0</ele><time>2026-04-11T08:08:03.742Z</time></trkpt><trkpt lat="43.34236128764402" lon="11.925683999475693"><ele>280.0</ele><time>2026-04-11T08:08:04.737Z</time></trkpt><trkpt lat="43.34232515861617" lon="11.925852333508367"><ele>279.25</ele><time>2026-04-11T08:08:05.737Z</time></trkpt><trkpt lat="43.34228857061986" lon="11.9260122736276"><ele>278.5</ele><time>2026-04-11T08:08:06.737Z</time></trkpt><trkpt lat="43.34225139387384" lon="11.926167834958518"><ele>277.75</ele><time>2026-04-11T08:08:07.737Z</time></trkpt><trkpt lat="43.34221643787702" lon="11.926316648446209"><ele>277.0</ele><time>2026-04-11T08:08:08.745Z</time></trkpt><trkpt lat="43.342185937859504" lon="11.926459388763544"><ele>277.0</ele><time>2026-04-11T08:08:09.737Z</time></trkpt><trkpt lat="43.3421673828514" lon="11.92660154482135"><ele>277.0</ele><time>2026-04-11T08:08:10.738Z</time></trkpt><trkpt lat="43.342177102807504" lon="11.926745069358965"><ele>277.0</ele><time>2026-04-11T08:08:11.74Z</time></trkpt><trkpt lat="43.34221053602381" lon="11.926880366350233"><ele>277.0</ele><time>2026-04-11T08:08:12.737Z</time></trkpt><trkpt lat="43.34228188508868" lon="11.9270048030087"><ele>277.0</ele><time>2026-04-11T08:08:13.735Z</time></trkpt><trkpt lat="43.34236950683364" lon="11.927130959948807"><ele>275.66666666666663</ele><time>2026-04-11T08:08:14.745Z</time></trkpt><trkpt lat="43.34254020688074" lon="11.927384159803198"><ele>274.3333333333333</ele><time>2026-04-11T08:08:16.737Z</time></trkpt><trkpt lat="43.34262606176253" lon="11.927525362419516"><ele>273.0</ele><time>2026-04-11T08:08:17.737Z</time></trkpt><trkpt lat="43.34271632023644" lon="11.927671731151847"><ele>272.5</ele><time>2026-04-11T08:08:18.745Z</time></trkpt><trkpt lat="43.342815611995015" lon="11.92781471509979"><ele>272.0</ele><time>2026-04-11T08:08:19.748Z</time></trkpt><trkpt lat="43.34290201812052" lon="11.927960030218168"><ele>271.5</ele><time>2026-04-11T08:08:20.737Z</time></trkpt><trkpt lat="43.342996401082225" lon="11.92810856090368"><ele>271.0</ele><time>2026-04-11T08:08:21.737Z</time></trkpt><trkpt lat="43.34309159520332" lon="11.928257656097324"><ele>270.5</ele><time>2026-04-11T08:08:22.738Z</time></trkpt><trkpt lat="43.34318392801945" lon="11.928405099644781"><ele>270.0</ele><time>2026-04-11T08:08:23.744Z</time></trkpt><trkpt lat="43.34327883174805" lon="11.928550469517766"><ele>269.5</ele><time>2026-04-11T08:08:24.747Z</time></trkpt><trkpt lat="43.34337143957898" lon="11.92868638376391"><ele>269.0</ele><time>2026-04-11T08:08:25.746Z</time></trkpt><trkpt lat="43.343466896969" lon="11.928817441522046"><ele>269.0</ele><time>2026-04-11T08:08:26.746Z</time></trkpt><trkpt lat="43.34355931090046" lon="11.92895782819807"><ele>269.0</ele><time>2026-04-11T08:08:27.748Z</time></trkpt><trkpt lat="43.34364384414234" lon="11.929099761087365"><ele>269.0</ele><time>2026-04-11T08:08:28.747Z</time></trkpt><trkpt lat="43.34372445169247" lon="11.929249478967199"><ele>269.0</ele><time>2026-04-11T08:08:29.739Z</time></trkpt><trkpt lat="43.3437996313801" lon="11.929397961042353"><ele>269.0</ele><time>2026-04-11T08:08:30.737Z</time></trkpt><trkpt lat="43.34387472538731" lon="11.929551783832162"><ele>269.0</ele><time>2026-04-11T08:08:31.737Z</time></trkpt><trkpt lat="43.343945624016264" lon="11.929703740378804"><ele>269.0</ele><time>2026-04-11T08:08:32.738Z</time></trkpt><trkpt lat="43.34401710095716" lon="11.929863418634373"><ele>269.0</ele><time>2026-04-11T08:08:33.744Z</time></trkpt><trkpt lat="43.34408499501248" lon="11.93002460851133"><ele>270.0</ele><time>2026-04-11T08:08:34.737Z</time></trkpt><trkpt lat="43.3441455238882" lon="11.930190255739705"><ele>271.0</ele><time>2026-04-11T08:08:35.738Z</time></trkpt><trkpt lat="43.34419826637676" lon="11.930500728807825"><ele>272.0</ele><time>2026-04-11T08:08:37.747Z</time></trkpt><trkpt lat="43.34416856266648" lon="11.930653377152122"><ele>272.0</ele><time>2026-04-11T08:08:38.745Z</time></trkpt><trkpt lat="43.34410235906406" lon="11.930791220422083"><ele>272.0</ele><time>2026-04-11T08:08:39.746Z</time></trkpt><trkpt lat="43.3440226437148" lon="11.930916465624742"><ele>272.0</ele><time>2026-04-11T08:08:40.745Z</time></trkpt><trkpt lat="43.34394741277859" lon="11.931044547137263"><ele>272.0</ele><time>2026-04-11T08:08:41.746Z</time></trkpt><trkpt lat="43.34387572490861" lon="11.931196904721205"><ele>271.0</ele><time>2026-04-11T08:08:42.746Z</time></trkpt><trkpt lat="43.343818625283326" lon="11.931374222437142"><ele>270.0</ele><time>2026-04-11T08:08:43.745Z</time></trkpt><trkpt lat="43.34378360654107" lon="11.93155103019304"><ele>269.0</ele><time>2026-04-11T08:08:44.747Z</time></trkpt><trkpt lat="43.34376950429048" lon="11.931726791522529"><ele>268.0</ele><time>2026-04-11T08:08:45.749Z</time></trkpt><trkpt lat="43.34376289208253" lon="11.931918155003435"><ele>267.75</ele><time>2026-04-11T08:08:46.747Z</time></trkpt><trkpt lat="43.34374557846429" lon="11.93210323499313"><ele>267.5</ele><time>2026-04-11T08:08:47.746Z</time></trkpt><trkpt lat="43.34372249534072" lon="11.932290085262386"><ele>267.25</ele><time>2026-04-11T08:08:48.744Z</time></trkpt><trkpt lat="43.34370464476129" lon="11.932478458842166"><ele>267.0</ele><time>2026-04-11T08:08:49.737Z</time></trkpt><trkpt lat="43.34369721829201" lon="11.932672480200651"><ele>266.75</ele><time>2026-04-11T08:08:50.746Z</time></trkpt><trkpt lat="43.34370465213406" lon="11.932858325529473"><ele>266.5</ele><time>2026-04-11T08:08:51.738Z</time></trkpt><trkpt lat="43.34372870973649" lon="11.933048117024924"><ele>266.25</ele><time>2026-04-11T08:08:52.738Z</time></trkpt><trkpt lat="43.34375919094382" lon="11.933231466811282"><ele>266.0</ele><time>2026-04-11T08:08:53.745Z</time></trkpt><trkpt lat="43.343784958736045" lon="11.933417181567453"><ele>266.0</ele><time>2026-04-11T08:08:54.738Z</time></trkpt><trkpt lat="43.34380390372227" lon="11.933604849042318"><ele>266.0</ele><time>2026-04-11T08:08:55.738Z</time></trkpt><trkpt lat="43.34381173794468" lon="11.933793008182596"><ele>266.0</ele><time>2026-04-11T08:08:56.737Z</time></trkpt><trkpt lat="43.34378752537324" lon="11.934169135771686"><ele>266.25</ele><time>2026-04-11T08:08:58.737Z</time></trkpt><trkpt lat="43.343766716047696" lon="11.934351181019595"><ele>266.5</ele><time>2026-04-11T08:08:59.738Z</time></trkpt><trkpt lat="43.34374402490938" lon="11.934536492369027"><ele>266.75</ele><time>2026-04-11T08:09:00.737Z</time></trkpt><trkpt lat="43.34371952170654" lon="11.934717156263327"><ele>267.0</ele><time>2026-04-11T08:09:01.738Z</time></trkpt><trkpt lat="43.34369311339081" lon="11.93489336387064"><ele>267.0</ele><time>2026-04-11T08:09:02.738Z</time></trkpt><trkpt lat="43.34367378200061" lon="11.935049650108676"><ele>267.0</ele><time>2026-04-11T08:09:03.744Z</time></trkpt><trkpt lat="43.343651092382736" lon="11.935192088709062"><ele>267.0</ele><time>2026-04-11T08:09:04.737Z</time></trkpt><trkpt lat="43.34363054566873" lon="11.935317523522228"><ele>267.0</ele><time>2026-04-11T08:09:05.737Z</time></trkpt><trkpt lat="43.34362081013349" lon="11.93543380781357"><ele>267.0</ele><time>2026-04-11T08:09:06.737Z</time></trkpt><trkpt lat="43.343598399627254" lon="11.935537553103464"><ele>267.6</ele><time>2026-04-11T08:09:07.745Z</time></trkpt><trkpt lat="43.343541369313655" lon="11.935629152941672"><ele>268.2</ele><time>2026-04-11T08:09:08.744Z</time></trkpt><trkpt lat="43.34345211916002" lon="11.935691060868017"><ele>268.8</ele><time>2026-04-11T08:09:09.744Z</time></trkpt><trkpt lat="43.343349976942456" lon="11.935708438119972"><ele>269.4</ele><time>2026-04-11T08:09:10.734Z</time></trkpt><trkpt lat="43.34324297222993" lon="11.935714614379886"><ele>270.0</ele><time>2026-04-11T08:09:11.735Z</time></trkpt><trkpt lat="43.34313546918204" lon="11.935735312869976"><ele>269.3333333333333</ele><time>2026-04-11T08:09:12.734Z</time></trkpt><trkpt lat="43.34304564007369" lon="11.935762561918569"><ele>268.6666666666667</ele><time>2026-04-11T08:09:13.735Z</time></trkpt><trkpt lat="43.34296793921295" lon="11.93577846348821"><ele>268.0</ele><time>2026-04-11T08:09:14.736Z</time></trkpt><trkpt lat="43.342899018047596" lon="11.93577447084737"><ele>267.33333333333337</ele><time>2026-04-11T08:09:15.737Z</time></trkpt><trkpt lat="43.342838874850635" lon="11.935721778138744"><ele>266.6666666666667</ele><time>2026-04-11T08:09:16.736Z</time></trkpt><trkpt lat="43.342805414627094" lon="11.935648149853197"><ele>266.0</ele><time>2026-04-11T08:09:17.736Z</time></trkpt><trkpt lat="43.34262580773345" lon="11.935576992213699"><ele>266.0</ele><time>2026-04-11T08:09:21.748Z</time></trkpt><trkpt lat="43.342522739252644" lon="11.935621976775023"><ele>266.0</ele><time>2026-04-11T08:09:22.746Z</time></trkpt><trkpt lat="43.3424098148254" lon="11.935657923210927"><ele>266.0</ele><time>2026-04-11T08:09:23.745Z</time></trkpt><trkpt lat="43.34228207553929" lon="11.93568892389033"><ele>266.0</ele><time>2026-04-11T08:09:24.747Z</time></trkpt><trkpt lat="43.34215334179605" lon="11.9357210207811"><ele>265.25</ele><time>2026-04-11T08:09:25.739Z</time></trkpt><trkpt lat="43.342013109231786" lon="11.93575982853982"><ele>264.5</ele><time>2026-04-11T08:09:26.746Z</time></trkpt><trkpt lat="43.34187668827947" lon="11.93579759405306"><ele>263.75</ele><time>2026-04-11T08:09:27.738Z</time></trkpt><trkpt lat="43.341743174769825" lon="11.935824274945041"><ele>263.0</ele><time>2026-04-11T08:09:28.745Z</time></trkpt><trkpt lat="43.34161544545312" lon="11.935851039004987"><ele>263.0</ele><time>2026-04-11T08:09:29.747Z</time></trkpt><trkpt lat="43.34148794258963" lon="11.935865452817598"><ele>263.0</ele><time>2026-04-11T08:09:30.746Z</time></trkpt><trkpt lat="43.34135627834722" lon="11.935876381350777"><ele>263.0</ele><time>2026-04-11T08:09:31.745Z</time></trkpt><trkpt lat="43.341227117783546" lon="11.935875445266467"><ele>263.0</ele><time>2026-04-11T08:09:32.738Z</time></trkpt><trkpt lat="43.34109130631573" lon="11.935864898495591"><ele>262.25</ele><time>2026-04-11T08:09:33.738Z</time></trkpt><trkpt lat="43.34096151190002" lon="11.93585181361857"><ele>261.5</ele><time>2026-04-11T08:09:34.739Z</time></trkpt><trkpt lat="43.34083308135283" lon="11.935848025052008"><ele>260.75</ele><time>2026-04-11T08:09:35.738Z</time></trkpt><trkpt lat="43.34070376296645" lon="11.935854531327431"><ele>260.0</ele><time>2026-04-11T08:09:36.747Z</time></trkpt><trkpt lat="43.34057966819139" lon="11.935871456738333"><ele>259.0</ele><time>2026-04-11T08:09:37.746Z</time></trkpt><trkpt lat="43.34046531459412" lon="11.93589804450321"><ele>258.0</ele><time>2026-04-11T08:09:38.747Z</time></trkpt><trkpt lat="43.34023347683071" lon="11.935955048152207"><ele>257.0</ele><time>2026-04-11T08:09:40.738Z</time></trkpt><trkpt lat="43.34011373944542" lon="11.935992584420903"><ele>257.0</ele><time>2026-04-11T08:09:41.738Z</time></trkpt><trkpt lat="43.33999487052625" lon="11.936032931915989"><ele>257.0</ele><time>2026-04-11T08:09:42.739Z</time></trkpt><trkpt lat="43.33987635850293" lon="11.936077633946448"><ele>257.0</ele><time>2026-04-11T08:09:43.739Z</time></trkpt><trkpt lat="43.339749218086226" lon="11.936121418679313"><ele>257.0</ele><time>2026-04-11T08:09:44.746Z</time></trkpt><trkpt lat="43.33962669536229" lon="11.936159837397978"><ele>257.25</ele><time>2026-04-11T08:09:45.738Z</time></trkpt><trkpt lat="43.33949960735766" lon="11.936198431009853"><ele>257.5</ele><time>2026-04-11T08:09:46.739Z</time></trkpt><trkpt lat="43.33937477785919" lon="11.936238183433812"><ele>257.75</ele><time>2026-04-11T08:09:47.746Z</time></trkpt><trkpt lat="43.33924820045961" lon="11.936280871333388"><ele>258.0</ele><time>2026-04-11T08:09:48.738Z</time></trkpt><trkpt lat="43.339122811585185" lon="11.936316622486684"><ele>258.0</ele><time>2026-04-11T08:09:49.747Z</time></trkpt><trkpt lat="43.33899600592589" lon="11.936330643147643"><ele>258.0</ele><time>2026-04-11T08:09:50.747Z</time></trkpt><trkpt lat="43.33887833301621" lon="11.936295317321134"><ele>258.0</ele><time>2026-04-11T08:09:51.745Z</time></trkpt><trkpt lat="43.33876401971682" lon="11.936224865155816"><ele>258.0</ele><time>2026-04-11T08:09:52.746Z</time></trkpt><trkpt lat="43.33865345702999" lon="11.936166362415488"><ele>258.25</ele><time>2026-04-11T08:09:53.737Z</time></trkpt><trkpt lat="43.33853226008219" lon="11.936165746586918"><ele>258.5</ele><time>2026-04-11T08:09:54.739Z</time></trkpt><trkpt lat="43.33840608049097" lon="11.936191137855"><ele>258.75</ele><time>2026-04-11T08:09:55.738Z</time></trkpt><trkpt lat="43.33828047574242" lon="11.936231056422244"><ele>259.0</ele><time>2026-04-11T08:09:56.738Z</time></trkpt><trkpt lat="43.338155559236675" lon="11.936279882502365"><ele>258.66666666666663</ele><time>2026-04-11T08:09:57.746Z</time></trkpt><trkpt lat="43.33802974267574" lon="11.936334579600778"><ele>258.3333333333333</ele><time>2026-04-11T08:09:58.738Z</time></trkpt><trkpt lat="43.33790540146465" lon="11.936393937236234"><ele>258.0</ele><time>2026-04-11T08:09:59.746Z</time></trkpt><trkpt lat="43.33767078438393" lon="11.936535224980236"><ele>258.0</ele><time>2026-04-11T08:10:01.738Z</time></trkpt><trkpt lat="43.337554193783305" lon="11.936601166459008"><ele>258.0</ele><time>2026-04-11T08:10:02.738Z</time></trkpt><trkpt lat="43.33743940439974" lon="11.936661984924735"><ele>258.0</ele><time>2026-04-11T08:10:03.738Z</time></trkpt><trkpt lat="43.337323241520984" lon="11.936718672246416"><ele>258.0</ele><time>2026-04-11T08:10:04.738Z</time></trkpt><trkpt lat="43.33720853711954" lon="11.936762321602284"><ele>258.5</ele><time>2026-04-11T08:10:05.738Z</time></trkpt><trkpt lat="43.33708559691112" lon="11.93678407630956"><ele>259.0</ele><time>2026-04-11T08:10:06.747Z</time></trkpt><trkpt lat="43.33695935728843" lon="11.936800017738715"><ele>259.5</ele><time>2026-04-11T08:10:07.748Z</time></trkpt><trkpt lat="43.336820651071164" lon="11.936819151101627"><ele>260.0</ele><time>2026-04-11T08:10:08.747Z</time></trkpt><trkpt lat="43.33668509844914" lon="11.936837533133307"><ele>260.0</ele><time>2026-04-11T08:10:09.738Z</time></trkpt><trkpt lat="43.336550291948306" lon="11.936858526002773"><ele>260.0</ele><time>2026-04-11T08:10:10.747Z</time></trkpt><trkpt lat="43.33642198297664" lon="11.93686472668325"><ele>260.0</ele><time>2026-04-11T08:10:11.746Z</time></trkpt><trkpt lat="43.336289406128515" lon="11.936882870179081"><ele>260.0</ele><time>2026-04-11T08:10:12.746Z</time></trkpt><trkpt lat="43.33616267844246" lon="11.93691499618031"><ele>259.75</ele><time>2026-04-11T08:10:13.746Z</time></trkpt><trkpt lat="43.336027695717384" lon="11.936932405281704"><ele>259.5</ele><time>2026-04-11T08:10:14.745Z</time></trkpt><trkpt lat="43.33590188874953" lon="11.936945838072397"><ele>259.25</ele><time>2026-04-11T08:10:15.744Z</time></trkpt><trkpt lat="43.33577155964571" lon="11.93695941778043"><ele>259.0</ele><time>2026-04-11T08:10:16.747Z</time></trkpt><trkpt lat="43.33564097714006" lon="11.936984148253321"><ele>258.75</ele><time>2026-04-11T08:10:17.748Z</time></trkpt><trkpt lat="43.33551959477919" lon="11.93702992312322"><ele>258.5</ele><time>2026-04-11T08:10:18.738Z</time></trkpt><trkpt lat="43.33539834351497" lon="11.937101313225392"><ele>258.25</ele><time>2026-04-11T08:10:19.746Z</time></trkpt><trkpt lat="43.33528057262937" lon="11.937182892247211"><ele>258.0</ele><time>2026-04-11T08:10:20.749Z</time></trkpt><trkpt lat="43.33504657274353" lon="11.937320446917761"><ele>258.0</ele><time>2026-04-11T08:10:22.739Z</time></trkpt><trkpt lat="43.33493072992506" lon="11.937388657079838"><ele>258.0</ele><time>2026-04-11T08:10:23.738Z</time></trkpt><trkpt lat="43.33481349894208" lon="11.937457053068602"><ele>258.0</ele><time>2026-04-11T08:10:24.738Z</time></trkpt><trkpt lat="43.33470269365139" lon="11.937521605642672"><ele>258.0</ele><time>2026-04-11T08:10:25.737Z</time></trkpt><trkpt lat="43.334588135343196" lon="11.937586749915145"><ele>258.75</ele><time>2026-04-11T08:10:26.738Z</time></trkpt><trkpt lat="43.33447957015048" lon="11.937649354419547"><ele>259.5</ele><time>2026-04-11T08:10:27.738Z</time></trkpt><trkpt lat="43.33437515385007" lon="11.937714985507974"><ele>260.25</ele><time>2026-04-11T08:10:28.747Z</time></trkpt><trkpt lat="43.33429581198719" lon="11.937810775628352"><ele>261.0</ele><time>2026-04-11T08:10:29.748Z</time></trkpt><trkpt lat="43.33422482078685" lon="11.937948430472582"><ele>261.0</ele><time>2026-04-11T08:10:30.749Z</time></trkpt><trkpt lat="43.33416318533557" lon="11.938110517962288"><ele>261.0</ele><time>2026-04-11T08:10:31.747Z</time></trkpt><trkpt lat="43.33410697717161" lon="11.938260206661562"><ele>261.0</ele><time>2026-04-11T08:10:32.745Z</time></trkpt><trkpt lat="43.33405036426889" lon="11.93838543124588"><ele>261.0</ele><time>2026-04-11T08:10:33.738Z</time></trkpt><trkpt lat="43.33398395173953" lon="11.938497165846346"><ele>261.40000000000003</ele><time>2026-04-11T08:10:34.738Z</time></trkpt><trkpt lat="43.33390364483886" lon="11.938598355688962"><ele>261.8</ele><time>2026-04-11T08:10:35.738Z</time></trkpt><trkpt lat="43.333817399227335" lon="11.938694031732838"><ele>262.20000000000005</ele><time>2026-04-11T08:10:36.736Z</time></trkpt><trkpt lat="43.33374258127013" lon="11.938775326963531"><ele>262.6</ele><time>2026-04-11T08:10:37.735Z</time></trkpt><trkpt lat="43.33366781252897" lon="11.93884516781067"><ele>263.0</ele><time>2026-04-11T08:10:38.737Z</time></trkpt><trkpt lat="43.33361556712258" lon="11.938911641798708"><ele>263.0</ele><time>2026-04-11T08:10:39.734Z</time></trkpt><trkpt lat="43.333539867460054" lon="11.939020355057396"><ele>263.0</ele><time>2026-04-11T08:10:41.737Z</time></trkpt><trkpt lat="43.33365455809752" lon="11.93925726121373"><ele>263.0</ele><time>2026-04-11T08:10:45.743Z</time></trkpt><trkpt lat="43.33372695110795" lon="11.939387760196382"><ele>263.0</ele><time>2026-04-11T08:10:47.734Z</time></trkpt><trkpt lat="43.33371615353723" lon="11.939479606432112"><ele>264.2857142857143</ele><time>2026-04-11T08:10:48.737Z</time></trkpt><trkpt lat="43.33370301674334" lon="11.93957851293629"><ele>265.57142857142856</ele><time>2026-04-11T08:10:49.736Z</time></trkpt><trkpt lat="43.333703564491266" lon="11.939689841928972"><ele>266.85714285714283</ele><time>2026-04-11T08:10:50.735Z</time></trkpt><trkpt lat="43.33372262462596" lon="11.939791891700462"><ele>268.1428571428571</ele><time>2026-04-11T08:10:51.735Z</time></trkpt><trkpt lat="43.33374976626892" lon="11.93987975065539"><ele>269.42857142857144</ele><time>2026-04-11T08:10:52.736Z</time></trkpt><trkpt lat="43.33375931154154" lon="11.939981398622116"><ele>270.71428571428567</ele><time>2026-04-11T08:10:53.735Z</time></trkpt><trkpt lat="43.333722754225384" lon="11.940062439876256"><ele>272.0</ele><time>2026-04-11T08:10:54.735Z</time></trkpt><trkpt lat="43.33366749855811" lon="11.940136454966257"><ele>273.5</ele><time>2026-04-11T08:10:55.736Z</time></trkpt><trkpt lat="43.33363828314687" lon="11.940216185111794"><ele>275.0</ele><time>2026-04-11T08:10:56.736Z</time></trkpt><trkpt lat="43.33363434617756" lon="11.940313024099234"><ele>276.5</ele><time>2026-04-11T08:10:57.735Z</time></trkpt><trkpt lat="43.33363909806513" lon="11.940410060367551"><ele>278.0</ele><time>2026-04-11T08:10:58.734Z</time></trkpt><trkpt lat="43.333632845258784" lon="11.940552762345076"><ele>279.5</ele><time>2026-04-11T08:11:00.735Z</time></trkpt><trkpt lat="43.33359984302687" lon="11.94066818106372"><ele>281.0</ele><time>2026-04-11T08:11:02.737Z</time></trkpt><trkpt lat="43.33353610990857" lon="11.94090705456758"><ele>283.8</ele><time>2026-04-11T08:11:07.737Z</time></trkpt><trkpt lat="43.333534428937085" lon="11.941030561991994"><ele>286.6</ele><time>2026-04-11T08:11:09.747Z</time></trkpt><trkpt lat="43.33353612016379" lon="11.941192836555098"><ele>289.4</ele><time>2026-04-11T08:11:11.746Z</time></trkpt><trkpt lat="43.33355266939045" lon="11.941283598516842"><ele>292.2</ele><time>2026-04-11T08:11:12.747Z</time></trkpt><trkpt lat="43.3335546945745" lon="11.941370499332255"><ele>295.0</ele><time>2026-04-11T08:11:13.746Z</time></trkpt><trkpt lat="43.33351157784907" lon="11.941522870814167"><ele>295.0</ele><time>2026-04-11T08:11:15.746Z</time></trkpt><trkpt lat="43.33348498337893" lon="11.941602945403226"><ele>295.0</ele><time>2026-04-11T08:11:16.745Z</time></trkpt><trkpt lat="43.33344840226023" lon="11.941767793521342"><ele>295.0</ele><time>2026-04-11T08:11:18.747Z</time></trkpt><trkpt lat="43.33340833233723" lon="11.941836185498161"><ele>295.0</ele><time>2026-04-11T08:11:19.736Z</time></trkpt><trkpt lat="43.33334492419231" lon="11.941892985330215"><ele>295.0</ele><time>2026-04-11T08:11:20.737Z</time></trkpt><trkpt lat="43.333284432895276" lon="11.941930065101268"><ele>295.0</ele><time>2026-04-11T08:11:21.737Z</time></trkpt><trkpt lat="43.333171953302944" lon="11.941945075428317"><ele>301.75</ele><time>2026-04-11T08:11:23.736Z</time></trkpt><trkpt lat="43.33292624633943" lon="11.941995947812691"><ele>308.5</ele><time>2026-04-11T08:11:27.739Z</time></trkpt><trkpt lat="43.33282177747746" lon="11.941983289356894"><ele>315.25</ele><time>2026-04-11T08:11:29.736Z</time></trkpt><trkpt lat="43.33280217161966" lon="11.942080901238263"><ele>322.0</ele><time>2026-04-11T08:11:32.737Z</time></trkpt><trkpt lat="43.332873162541546" lon="11.942132451265117"><ele>322.0</ele><time>2026-04-11T08:11:34.737Z</time></trkpt><trkpt lat="43.3329799033252" lon="11.942201810293128"><ele>322.0</ele><time>2026-04-11T08:11:36.743Z</time></trkpt><trkpt lat="43.333050337419806" lon="11.942327817572478"><ele>322.0</ele><time>2026-04-11T08:11:38.735Z</time></trkpt><trkpt lat="43.33308869672588" lon="11.942400647098706"><ele>322.0</ele><time>2026-04-11T08:11:39.737Z</time></trkpt><trkpt lat="43.333133542449524" lon="11.942481998021796"><ele>322.0</ele><time>2026-04-11T08:11:40.746Z</time></trkpt><trkpt lat="43.3331156263107" lon="11.942582403790361"><ele>322.0</ele><time>2026-04-11T08:11:43.747Z</time></trkpt><trkpt lat="43.333016375251226" lon="11.942556806920997"><ele>322.0</ele><time>2026-04-11T08:11:45.734Z</time></trkpt><trkpt lat="43.332867638269306" lon="11.94251644302067"><ele>322.0</ele><time>2026-04-11T08:11:47.736Z</time></trkpt><trkpt lat="43.33278155060051" lon="11.942498714809524"><ele>322.0</ele><time>2026-04-11T08:11:48.736Z</time></trkpt><trkpt lat="43.33270802562553" lon="11.942487814815419"><ele>322.0</ele><time>2026-04-11T08:11:49.737Z</time></trkpt><trkpt lat="43.332622796179656" lon="11.942468215167697"><ele>322.0</ele><time>2026-04-11T08:11:50.736Z</time></trkpt><trkpt lat="43.33255135103947" lon="11.942458200033807"><ele>322.0</ele><time>2026-04-11T08:11:51.746Z</time></trkpt><trkpt lat="43.33248762239942" lon="11.942465108047926"><ele>322.0</ele><time>2026-04-11T08:11:52.746Z</time></trkpt><trkpt lat="43.33242095436905" lon="11.942489440271675"><ele>322.0</ele><time>2026-04-11T08:11:53.747Z</time></trkpt><trkpt lat="43.33235276275987" lon="11.9426032950828"><ele>322.0</ele><time>2026-04-11T08:11:55.745Z</time></trkpt><trkpt lat="43.33234549099109" lon="11.942690011570898"><ele>322.0</ele><time>2026-04-11T08:11:56.738Z</time></trkpt><trkpt lat="43.3324055064655" lon="11.942832577819535"><ele>322.0</ele><time>2026-04-11T08:11:58.738Z</time></trkpt><trkpt lat="43.33244891186083" lon="11.942913271318837"><ele>325.20000000000005</ele><time>2026-04-11T08:11:59.743Z</time></trkpt><trkpt lat="43.33252107030805" lon="11.94305400906766"><ele>328.4</ele><time>2026-04-11T08:12:01.745Z</time></trkpt><trkpt lat="43.33256159529079" lon="11.943136463556037"><ele>331.6</ele><time>2026-04-11T08:12:02.747Z</time></trkpt><trkpt lat="43.33260458579446" lon="11.943222445439657"><ele>334.79999999999995</ele><time>2026-04-11T08:12:03.738Z</time></trkpt><trkpt lat="43.332604997628316" lon="11.943319197260111"><ele>338.0</ele><time>2026-04-11T08:12:05.749Z</time></trkpt><trkpt lat="43.33253498082467" lon="11.943463906691688"><ele>340.79999999999995</ele><time>2026-04-11T08:12:07.747Z</time></trkpt><trkpt lat="43.33245052496017" lon="11.943644981414105"><ele>343.6</ele><time>2026-04-11T08:12:09.736Z</time></trkpt><trkpt lat="43.33239671403132" lon="11.943763341542363"><ele>346.4</ele><time>2026-04-11T08:12:10.737Z</time></trkpt><trkpt lat="43.33233905761306" lon="11.94390086406562"><ele>349.20000000000005</ele><time>2026-04-11T08:12:11.735Z</time></trkpt><trkpt lat="43.332297135180454" lon="11.943986847734331"><ele>352.0</ele><time>2026-04-11T08:12:12.737Z</time></trkpt><trkpt lat="43.33224630416687" lon="11.94408570728259"><ele>350.5</ele><time>2026-04-11T08:12:16.734Z</time></trkpt><trkpt lat="43.332205573760426" lon="11.944227903410235"><ele>349.0</ele><time>2026-04-11T08:12:18.735Z</time></trkpt><trkpt lat="43.332183164941746" lon="11.944377438938218"><ele>347.5</ele><time>2026-04-11T08:12:20.736Z</time></trkpt><trkpt lat="43.33214669136877" lon="11.944503244324245"><ele>346.0</ele><time>2026-04-11T08:12:22.736Z</time></trkpt><trkpt lat="43.33210218956167" lon="11.944753173027335"><ele>346.0</ele><time>2026-04-11T08:12:25.736Z</time></trkpt><trkpt lat="43.3320883910105" lon="11.944846173056739"><ele>346.0</ele><time>2026-04-11T08:12:26.736Z</time></trkpt><trkpt lat="43.33207276781258" lon="11.945015861567114"><ele>346.0</ele><time>2026-04-11T08:12:28.736Z</time></trkpt><trkpt lat="43.332058398574425" lon="11.945351071828753"><ele>346.0</ele><time>2026-04-11T08:12:32.736Z</time></trkpt><trkpt lat="43.33205992239131" lon="11.945449270962465"><ele>347.16666666666663</ele><time>2026-04-11T08:12:33.736Z</time></trkpt><trkpt lat="43.33208195097243" lon="11.945542313962768"><ele>348.3333333333333</ele><time>2026-04-11T08:12:34.737Z</time></trkpt><trkpt lat="43.33209908521631" lon="11.945626294584018"><ele>349.5</ele><time>2026-04-11T08:12:35.736Z</time></trkpt><trkpt lat="43.332163406936736" lon="11.945560416184136"><ele>350.6666666666667</ele><time>2026-04-11T08:12:40.736Z</time></trkpt><trkpt lat="43.332226237598455" lon="11.94539517376875"><ele>351.83333333333337</ele><time>2026-04-11T08:12:42.737Z</time></trkpt><trkpt lat="43.33228520819265" lon="11.945325165056506"><ele>353.0</ele><time>2026-04-11T08:12:43.744Z</time></trkpt><trkpt lat="43.332345998291906" lon="11.945263344886577"><ele>360.25</ele><time>2026-04-11T08:12:44.737Z</time></trkpt><trkpt lat="43.33242869097557" lon="11.945261128004654"><ele>367.5</ele><time>2026-04-11T08:12:46.746Z</time></trkpt><trkpt lat="43.33244299925456" lon="11.945381632181675"><ele>374.75</ele><time>2026-04-11T08:12:48.747Z</time></trkpt><trkpt lat="43.332417618502" lon="11.94557888537641"><ele>382.0</ele><time>2026-04-11T08:12:50.737Z</time></trkpt><trkpt lat="43.33238427455151" lon="11.945810677340976"><ele>383.20000000000005</ele><time>2026-04-11T08:12:52.741Z</time></trkpt><trkpt lat="43.33237261842805" lon="11.94595505038206"><ele>384.4</ele><time>2026-04-11T08:12:53.735Z</time></trkpt><trkpt lat="43.33236337189143" lon="11.946106138951102"><ele>385.6</ele><time>2026-04-11T08:12:54.745Z</time></trkpt><trkpt lat="43.33234918469313" lon="11.946248138206442"><ele>386.79999999999995</ele><time>2026-04-11T08:12:55.736Z</time></trkpt><trkpt lat="43.33234321644724" lon="11.946357236111423"><ele>388.0</ele><time>2026-04-11T08:12:56.735Z</time></trkpt><trkpt lat="43.33234264083574" lon="11.946471647343937"><ele>388.00000000000006</ele><time>2026-04-11T08:12:57.737Z</time></trkpt><trkpt lat="43.332357704202806" lon="11.946559286743824"><ele>388.0</ele><time>2026-04-11T08:12:58.735Z</time></trkpt><trkpt lat="43.33238123939953" lon="11.946655892139267"><ele>388.0</ele><time>2026-04-11T08:12:59.737Z</time></trkpt><trkpt lat="43.33240473340298" lon="11.946767745448916"><ele>388.0</ele><time>2026-04-11T08:13:00.748Z</time></trkpt><trkpt lat="43.33241910262429" lon="11.946856181426693"><ele>388.00000000000006</ele><time>2026-04-11T08:13:01.746Z</time></trkpt><trkpt lat="43.332435722972114" lon="11.946966496717408"><ele>388.0</ele><time>2026-04-11T08:13:02.745Z</time></trkpt><trkpt lat="43.332413855714094" lon="11.947160751833282"><ele>389.4</ele><time>2026-04-11T08:13:04.747Z</time></trkpt><trkpt lat="43.332390643132996" lon="11.94729106522811"><ele>390.79999999999995</ele><time>2026-04-11T08:13:05.746Z</time></trkpt><trkpt lat="43.332369339848306" lon="11.947417156179647"><ele>392.2</ele><time>2026-04-11T08:13:06.746Z</time></trkpt><trkpt lat="43.33234574861562" lon="11.947544113753471"><ele>393.6</ele><time>2026-04-11T08:13:07.746Z</time></trkpt><trkpt lat="43.33232033673808" lon="11.947679520514718"><ele>395.0</ele><time>2026-04-11T08:13:08.747Z</time></trkpt><trkpt lat="43.33229349910208" lon="11.947822257157565"><ele>396.25</ele><time>2026-04-11T08:13:09.747Z</time></trkpt><trkpt lat="43.332263153466556" lon="11.947973505451099"><ele>397.5</ele><time>2026-04-11T08:13:10.743Z</time></trkpt><trkpt lat="43.3322326299486" lon="11.948113619754206"><ele>398.75</ele><time>2026-04-11T08:13:11.747Z</time></trkpt><trkpt lat="43.33218228873367" lon="11.948414678614073"><ele>400.0</ele><time>2026-04-11T08:13:13.737Z</time></trkpt><trkpt lat="43.33215044431427" lon="11.948541154050238"><ele>401.00000000000006</ele><time>2026-04-11T08:13:14.737Z</time></trkpt><trkpt lat="43.332115171757536" lon="11.94866112220501"><ele>402.0</ele><time>2026-04-11T08:13:15.736Z</time></trkpt><trkpt lat="43.33206664904241" lon="11.948784451987246"><ele>403.0</ele><time>2026-04-11T08:13:16.735Z</time></trkpt><trkpt lat="43.332026126703255" lon="11.948879865576854"><ele>404.0</ele><time>2026-04-11T08:13:17.747Z</time></trkpt><trkpt lat="43.33198555854734" lon="11.948961879600327"><ele>405.00000000000006</ele><time>2026-04-11T08:13:18.736Z</time></trkpt><trkpt lat="43.33193327915832" lon="11.94907159918476"><ele>406.0</ele><time>2026-04-11T08:13:19.744Z</time></trkpt><trkpt lat="43.331859731677305" lon="11.949174021040058"><ele>410.4</ele><time>2026-04-11T08:13:20.745Z</time></trkpt><trkpt lat="43.331784679113525" lon="11.94926262046253"><ele>414.8</ele><time>2026-04-11T08:13:21.735Z</time></trkpt><trkpt lat="43.33172249435565" lon="11.94937785928518"><ele>419.19999999999993</ele><time>2026-04-11T08:13:22.735Z</time></trkpt><trkpt lat="43.331674780437986" lon="11.949514156358031"><ele>423.59999999999997</ele><time>2026-04-11T08:13:23.736Z</time></trkpt><trkpt lat="43.331631695594325" lon="11.949642903388916"><ele>428.0</ele><time>2026-04-11T08:13:24.735Z</time></trkpt><trkpt lat="43.33156499143587" lon="11.949739379666449"><ele>428.0</ele><time>2026-04-11T08:13:25.735Z</time></trkpt><trkpt lat="43.33149861672408" lon="11.949828498985376"><ele>427.99999999999994</ele><time>2026-04-11T08:13:26.735Z</time></trkpt><trkpt lat="43.331398087067996" lon="11.949945028120931"><ele>427.99999999999994</ele><time>2026-04-11T08:13:28.735Z</time></trkpt><trkpt lat="43.33140988653296" lon="11.950053485753564"><ele>428.0</ele><time>2026-04-11T08:13:30.735Z</time></trkpt><trkpt lat="43.33153731211936" lon="11.950132696923866"><ele>428.0</ele><time>2026-04-11T08:13:32.734Z</time></trkpt><trkpt lat="43.33172333486906" lon="11.95010117720561"><ele>428.0</ele><time>2026-04-11T08:13:34.737Z</time></trkpt><trkpt lat="43.33183112934025" lon="11.950064312824523"><ele>427.99999999999994</ele><time>2026-04-11T08:13:35.734Z</time></trkpt><trkpt lat="43.33192278904551" lon="11.950040575073107"><ele>427.99999999999994</ele><time>2026-04-11T08:13:36.736Z</time></trkpt><trkpt lat="43.33198999322639" lon="11.950089291102524"><ele>428.0</ele><time>2026-04-11T08:13:38.745Z</time></trkpt><trkpt lat="43.33207674060975" lon="11.950216650629889"><ele>428.0</ele><time>2026-04-11T08:13:57.736Z</time></trkpt><trkpt lat="43.332119096941305" lon="11.950446978521954"><ele>431.99999999999994</ele><time>2026-04-11T08:14:01.736Z</time></trkpt><trkpt lat="43.33207906981259" lon="11.950532663535029"><ele>436.0</ele><time>2026-04-11T08:14:03.736Z</time></trkpt><trkpt lat="43.331975552167144" lon="11.950589113905666"><ele>440.0</ele><time>2026-04-11T08:14:05.736Z</time></trkpt><trkpt lat="43.33190972170407" lon="11.950612746760727"><ele>444.0</ele><time>2026-04-11T08:14:06.74Z</time></trkpt><trkpt lat="43.33182209994884" lon="11.950647909034108"><ele>447.99999999999994</ele><time>2026-04-11T08:14:07.736Z</time></trkpt><trkpt lat="43.331732598521455" lon="11.950671095132082"><ele>452.0</ele><time>2026-04-11T08:14:08.737Z</time></trkpt><trkpt lat="43.33163108285208" lon="11.95068106432454"><ele>451.99999999999994</ele><time>2026-04-11T08:14:09.737Z</time></trkpt><trkpt lat="43.33153982564281" lon="11.950683713521268"><ele>452.0</ele><time>2026-04-11T08:14:10.736Z</time></trkpt><trkpt lat="43.331438979654344" lon="11.950688053628422"><ele>452.0</ele><time>2026-04-11T08:14:11.735Z</time></trkpt><trkpt lat="43.33135709914458" lon="11.950707148853292"><ele>452.0</ele><time>2026-04-11T08:14:12.734Z</time></trkpt><trkpt lat="43.331282536068734" lon="11.950686110994718"><ele>451.99999999999994</ele><time>2026-04-11T08:14:13.735Z</time></trkpt><trkpt lat="43.331224999136936" lon="11.95063125273305"><ele>452.0</ele><time>2026-04-11T08:14:14.736Z</time></trkpt><trkpt lat="43.33114697875437" lon="11.950545020827645"><ele>457.0</ele><time>2026-04-11T08:14:15.743Z</time></trkpt><trkpt lat="43.33109222919014" lon="11.950452688752694"><ele>462.0</ele><time>2026-04-11T08:14:16.746Z</time></trkpt><trkpt lat="43.331011840879164" lon="11.950380686458827"><ele>467.0</ele><time>2026-04-11T08:14:17.742Z</time></trkpt><trkpt lat="43.330924544620295" lon="11.950312466246244"><ele>472.0</ele><time>2026-04-11T08:14:18.744Z</time></trkpt><trkpt lat="43.330755779856844" lon="11.950185007225"><ele>472.0</ele><time>2026-04-11T08:14:20.745Z</time></trkpt><trkpt lat="43.330683858796114" lon="11.95007378143143"><ele>472.0</ele><time>2026-04-11T08:14:21.745Z</time></trkpt><trkpt lat="43.33059088077635" lon="11.949966365249201"><ele>472.0</ele><time>2026-04-11T08:14:22.736Z</time></trkpt><trkpt lat="43.330498929171576" lon="11.949881879879653"><ele>472.0</ele><time>2026-04-11T08:14:23.743Z</time></trkpt><trkpt lat="43.33040342633704" lon="11.949808453177727"><ele>471.0</ele><time>2026-04-11T08:14:24.744Z</time></trkpt><trkpt lat="43.33032782935672" lon="11.949753221979162"><ele>470.00000000000006</ele><time>2026-04-11T08:14:25.745Z</time></trkpt><trkpt lat="43.33024620056868" lon="11.949679188162644"><ele>469.00000000000006</ele><time>2026-04-11T08:14:26.746Z</time></trkpt><trkpt lat="43.33017023094878" lon="11.949578829359425"><ele>468.0</ele><time>2026-04-11T08:14:27.736Z</time></trkpt><trkpt lat="43.33008960299878" lon="11.949474263367183"><ele>467.0</ele><time>2026-04-11T08:14:28.744Z</time></trkpt><trkpt lat="43.33000434719759" lon="11.949381511119173"><ele>466.99999999999994</ele><time>2026-04-11T08:14:29.745Z</time></trkpt><trkpt lat="43.32992112915462" lon="11.94929069138643"><ele>467.0</ele><time>2026-04-11T08:14:30.744Z</time></trkpt><trkpt lat="43.3298389403351" lon="11.949207596138145"><ele>467.0</ele><time>2026-04-11T08:14:31.744Z</time></trkpt><trkpt lat="43.32976051085709" lon="11.949147228665742"><ele>467.0</ele><time>2026-04-11T08:14:32.746Z</time></trkpt><trkpt lat="43.329685496287645" lon="11.949120827076479"><ele>466.99999999999994</ele><time>2026-04-11T08:14:33.746Z</time></trkpt><trkpt lat="43.32961709318701" lon="11.949137855375605"><ele>467.0</ele><time>2026-04-11T08:14:34.735Z</time></trkpt><trkpt lat="43.329543976131" lon="11.94916662601632"><ele>464.20000000000005</ele><time>2026-04-11T08:14:35.737Z</time></trkpt><trkpt lat="43.329500729423344" lon="11.949265807089098"><ele>461.40000000000003</ele><time>2026-04-11T08:14:37.738Z</time></trkpt><trkpt lat="43.329465027227144" lon="11.949340049695273"><ele>458.59999999999997</ele><time>2026-04-11T08:14:40.735Z</time></trkpt><trkpt lat="43.32945082377245" lon="11.949602562905298"><ele>455.79999999999995</ele><time>2026-04-11T08:14:52.736Z</time></trkpt><trkpt lat="43.3294557359043" lon="11.949695236497513"><ele>453.0</ele><time>2026-04-11T08:14:53.733Z</time></trkpt><trkpt lat="43.329467264536675" lon="11.94978181444484"><ele>453.0</ele><time>2026-04-11T08:14:54.735Z</time></trkpt><trkpt lat="43.32949614293321" lon="11.949862887235195"><ele>453.0</ele><time>2026-04-11T08:14:55.734Z</time></trkpt><trkpt lat="43.32953205918845" lon="11.949935751615474"><ele>453.0</ele><time>2026-04-11T08:14:56.735Z</time></trkpt><trkpt lat="43.32958162695219" lon="11.949993474771265"><ele>453.0</ele><time>2026-04-11T08:14:57.735Z</time></trkpt><trkpt lat="43.32959140624438" lon="11.95009018306383"><ele>453.0</ele><time>2026-04-11T08:14:59.735Z</time></trkpt><trkpt lat="43.329555251151525" lon="11.950267642562704"><ele>453.0</ele><time>2026-04-11T08:15:01.735Z</time></trkpt><trkpt lat="43.329565504886375" lon="11.950468885400324"><ele>454.5</ele><time>2026-04-11T08:15:04.735Z</time></trkpt><trkpt lat="43.32965174462669" lon="11.950514425580703"><ele>456.0</ele><time>2026-04-11T08:15:06.734Z</time></trkpt><trkpt lat="43.329766211972185" lon="11.950481334321823"><ele>457.5</ele><time>2026-04-11T08:15:08.743Z</time></trkpt><trkpt lat="43.32983688214006" lon="11.950489289079025"><ele>459.0</ele><time>2026-04-11T08:15:09.742Z</time></trkpt><trkpt lat="43.32983702757059" lon="11.950611369822179"><ele>460.5</ele><time>2026-04-11T08:15:11.74Z</time></trkpt><trkpt lat="43.329837657570124" lon="11.950704017504718"><ele>462.0</ele><time>2026-04-11T08:15:12.735Z</time></trkpt><trkpt lat="43.32989182656431" lon="11.950843995161126"><ele>471.75</ele><time>2026-04-11T08:15:14.745Z</time></trkpt><trkpt lat="43.3299815571018" lon="11.950911473691455"><ele>481.5</ele><time>2026-04-11T08:15:16.749Z</time></trkpt><trkpt lat="43.33003778736854" lon="11.951046062324156"><ele>491.25</ele><time>2026-04-11T08:15:18.743Z</time></trkpt><trkpt lat="43.329996922571524" lon="11.951154475509332"><ele>501.0</ele><time>2026-04-11T08:15:32.736Z</time></trkpt><trkpt lat="43.329883458315834" lon="11.951362862324192"><ele>501.0</ele><time>2026-04-11T08:15:36.736Z</time></trkpt><trkpt lat="43.32983788065217" lon="11.951502758639156"><ele>501.0</ele><time>2026-04-11T08:15:38.745Z</time></trkpt><trkpt lat="43.329788374891145" lon="11.951614377253605"><ele>501.0</ele><time>2026-04-11T08:15:40.745Z</time></trkpt><trkpt lat="43.329747962957235" lon="11.951681358710196"><ele>501.0</ele><time>2026-04-11T08:15:41.745Z</time></trkpt><trkpt lat="43.329732365709866" lon="11.951777684078587"><ele>501.0</ele><time>2026-04-11T08:15:42.745Z</time></trkpt><trkpt lat="43.32970740466957" lon="11.951959128599098"><ele>499.5</ele><time>2026-04-11T08:15:44.744Z</time></trkpt><trkpt lat="43.32967482979731" lon="11.952047317786034"><ele>498.0</ele><time>2026-04-11T08:15:45.744Z</time></trkpt><trkpt lat="43.32964187987209" lon="11.95213021219609"><ele>496.5</ele><time>2026-04-11T08:15:46.736Z</time></trkpt><trkpt lat="43.3296113452718" lon="11.952207957349996"><ele>495.0</ele><time>2026-04-11T08:15:47.737Z</time></trkpt><trkpt lat="43.32957661931479" lon="11.952342478508612"><ele>493.5</ele><time>2026-04-11T08:15:49.734Z</time></trkpt><trkpt lat="43.32965471846121" lon="11.952390786717398"><ele>492.0</ele><time>2026-04-11T08:15:52.735Z</time></trkpt><trkpt lat="43.32969614266374" lon="11.952320502510545"><ele>498.20000000000005</ele><time>2026-04-11T08:15:53.733Z</time></trkpt><trkpt lat="43.32982860272446" lon="11.952258969279349"><ele>504.40000000000003</ele><time>2026-04-11T08:15:57.744Z</time></trkpt><trkpt lat="43.32992388621004" lon="11.952213672626788"><ele>510.59999999999997</ele><time>2026-04-11T08:16:00.735Z</time></trkpt><trkpt lat="43.33000354817786" lon="11.952190975146031"><ele>516.8</ele><time>2026-04-11T08:16:02.745Z</time></trkpt><trkpt lat="43.33009611922058" lon="11.952163346199592"><ele>523.0</ele><time>2026-04-11T08:16:04.744Z</time></trkpt><trkpt lat="43.33017792592073" lon="11.952170761393953"><ele>523.0</ele><time>2026-04-11T08:16:06.745Z</time></trkpt><trkpt lat="43.33026165589488" lon="11.952189956761067"><ele>523.0</ele><time>2026-04-11T08:16:08.745Z</time></trkpt><trkpt lat="43.33033905903823" lon="11.952213431278237"><ele>523.0</ele><time>2026-04-11T08:16:10.744Z</time></trkpt><trkpt lat="43.330418387333886" lon="11.952214051459544"><ele>523.0</ele><time>2026-04-11T08:16:13.734Z</time></trkpt><trkpt lat="43.330506649866074" lon="11.95226201458027"><ele>523.0</ele><time>2026-04-11T08:16:15.744Z</time></trkpt><trkpt lat="43.33057688382981" lon="11.95242469315375"><ele>523.0</ele><time>2026-04-11T08:16:19.737Z</time></trkpt><trkpt lat="43.33049316435981" lon="11.952499817903991"><ele>523.0</ele><time>2026-04-11T08:16:21.737Z</time></trkpt><trkpt lat="43.3304279639686" lon="11.952623079874158"><ele>523.0</ele><time>2026-04-11T08:16:23.736Z</time></trkpt><trkpt lat="43.33036577388058" lon="11.952702950353128"><ele>523.0</ele><time>2026-04-11T08:16:25.746Z</time></trkpt><trkpt lat="43.33032665841386" lon="11.952773634298982"><ele>523.0</ele><time>2026-04-11T08:16:26.747Z</time></trkpt><trkpt lat="43.330270724101965" lon="11.952894509147585"><ele>525.5</ele><time>2026-04-11T08:16:28.745Z</time></trkpt><trkpt lat="43.33022301972615" lon="11.952965800991684"><ele>528.0</ele><time>2026-04-11T08:16:29.737Z</time></trkpt><trkpt lat="43.330170814407744" lon="11.95304843583328"><ele>530.5</ele><time>2026-04-11T08:16:30.738Z</time></trkpt><trkpt lat="43.33014184756724" lon="11.953129811405017"><ele>533.0</ele><time>2026-04-11T08:16:31.737Z</time></trkpt><trkpt lat="43.33011747602113" lon="11.953236465488446"><ele>535.5</ele><time>2026-04-11T08:16:32.738Z</time></trkpt><trkpt lat="43.33012287165152" lon="11.953346713465997"><ele>538.0</ele><time>2026-04-11T08:16:33.735Z</time></trkpt><trkpt lat="43.33011670613475" lon="11.953457006771504"><ele>540.25</ele><time>2026-04-11T08:16:34.744Z</time></trkpt><trkpt lat="43.33009878533714" lon="11.953640810206688"><ele>542.5</ele><time>2026-04-11T08:16:36.745Z</time></trkpt><trkpt lat="43.33008300084013" lon="11.953940544722133"><ele>544.75</ele><time>2026-04-11T08:16:39.747Z</time></trkpt><trkpt lat="43.330087881283774" lon="11.954051626180728"><ele>547.0</ele><time>2026-04-11T08:16:40.745Z</time></trkpt><trkpt lat="43.330077160396506" lon="11.95413838731763"><ele>549.3333333333334</ele><time>2026-04-11T08:16:41.734Z</time></trkpt><trkpt lat="43.330056600345095" lon="11.95423271098614"><ele>551.6666666666667</ele><time>2026-04-11T08:16:43.737Z</time></trkpt><trkpt lat="43.33010970812227" lon="11.954309696311045"><ele>554.0</ele><time>2026-04-11T08:16:47.734Z</time></trkpt><trkpt lat="43.33016023732522" lon="11.954406951308465"><ele>556.3333333333334</ele><time>2026-04-11T08:16:49.744Z</time></trkpt><trkpt lat="43.33016941402941" lon="11.95453986078375"><ele>558.6666666666666</ele><time>2026-04-11T08:16:51.745Z</time></trkpt><trkpt lat="43.33018793762735" lon="11.954682390764523"><ele>561.0</ele><time>2026-04-11T08:16:53.747Z</time></trkpt><trkpt lat="43.330184507892454" lon="11.954774528464409"><ele>561.0</ele><time>2026-04-11T08:16:54.746Z</time></trkpt><trkpt lat="43.330178265382706" lon="11.954861650121194"><ele>561.0</ele><time>2026-04-11T08:16:55.744Z</time></trkpt><trkpt lat="43.330157150545794" lon="11.955006894761961"><ele>561.0</ele><time>2026-04-11T08:16:57.744Z</time></trkpt><trkpt lat="43.33020798044268" lon="11.955236992700343"><ele>561.0</ele><time>2026-04-11T08:17:01.747Z</time></trkpt><trkpt lat="43.3301073552317" lon="11.955279208382395"><ele>561.8333333333334</ele><time>2026-04-11T08:17:03.746Z</time></trkpt><trkpt lat="43.3300409901602" lon="11.955280673458923"><ele>562.6666666666666</ele><time>2026-04-11T08:17:04.746Z</time></trkpt><trkpt lat="43.32997041573736" lon="11.955321881805048"><ele>563.5</ele><time>2026-04-11T08:17:05.746Z</time></trkpt><trkpt lat="43.329926587132" lon="11.955402417064882"><ele>564.3333333333333</ele><time>2026-04-11T08:17:06.747Z</time></trkpt><trkpt lat="43.329888000754316" lon="11.95547925481181"><ele>565.1666666666666</ele><time>2026-04-11T08:17:07.746Z</time></trkpt><trkpt lat="43.32983774024366" lon="11.955571525489868"><ele>566.0</ele><time>2026-04-11T08:17:09.746Z</time></trkpt><trkpt lat="43.329773226014375" lon="11.955664286288508"><ele>565.0</ele><time>2026-04-11T08:17:11.737Z</time></trkpt><trkpt lat="43.32971756147572" lon="11.955739934820793"><ele>564.0</ele><time>2026-04-11T08:17:12.741Z</time></trkpt><trkpt lat="43.3296454020072" lon="11.955848187792581"><ele>563.0</ele><time>2026-04-11T08:17:13.745Z</time></trkpt><trkpt lat="43.329584027115054" lon="11.955953964124877"><ele>562.0</ele><time>2026-04-11T08:17:14.745Z</time></trkpt><trkpt lat="43.32953948974431" lon="11.956055293506155"><ele>561.0</ele><time>2026-04-11T08:17:15.748Z</time></trkpt><trkpt lat="43.329493304616506" lon="11.956175088051245"><ele>561.0</ele><time>2026-04-11T08:17:16.746Z</time></trkpt><trkpt lat="43.32945751589565" lon="11.956265674961838"><ele>561.0</ele><time>2026-04-11T08:17:17.747Z</time></trkpt><trkpt lat="43.32940272581942" lon="11.956326366112119"><ele>561.0</ele><time>2026-04-11T08:17:18.745Z</time></trkpt><trkpt lat="43.32923906894043" lon="11.956446826358652"><ele>561.0</ele><time>2026-04-11T08:17:20.746Z</time></trkpt><trkpt lat="43.32918179747904" lon="11.956505552470968"><ele>561.0</ele><time>2026-04-11T08:17:21.745Z</time></trkpt><trkpt lat="43.32912907531464" lon="11.95667535815612"><ele>560.8</ele><time>2026-04-11T08:17:23.744Z</time></trkpt><trkpt lat="43.32912869378326" lon="11.956784411072697"><ele>560.6</ele><time>2026-04-11T08:17:24.745Z</time></trkpt><trkpt lat="43.329126809878964" lon="11.956924575269827"><ele>560.4</ele><time>2026-04-11T08:17:25.747Z</time></trkpt><trkpt lat="43.32912626746657" lon="11.957058737925777"><ele>560.2</ele><time>2026-04-11T08:17:26.737Z</time></trkpt><trkpt lat="43.32912413374563" lon="11.957213445156743"><ele>560.0</ele><time>2026-04-11T08:17:27.737Z</time></trkpt><trkpt lat="43.329136388964166" lon="11.9573359612904"><ele>560.0</ele><time>2026-04-11T08:17:28.738Z</time></trkpt><trkpt lat="43.32913799254983" lon="11.9574639170799"><ele>560.0</ele><time>2026-04-11T08:17:29.746Z</time></trkpt><trkpt lat="43.32911581104434" lon="11.957576894421873"><ele>560.0</ele><time>2026-04-11T08:17:30.744Z</time></trkpt><trkpt lat="43.32910935596392" lon="11.957690340745524"><ele>560.0</ele><time>2026-04-11T08:17:31.746Z</time></trkpt><trkpt lat="43.32912990011195" lon="11.957812623870433"><ele>560.0</ele><time>2026-04-11T08:17:32.747Z</time></trkpt><trkpt lat="43.329150778641896" lon="11.957919311510155"><ele>560.0</ele><time>2026-04-11T08:17:33.747Z</time></trkpt><trkpt lat="43.32914984901826" lon="11.958039962936793"><ele>558.8</ele><time>2026-04-11T08:17:34.746Z</time></trkpt><trkpt lat="43.32915626147453" lon="11.958163836277869"><ele>557.6</ele><time>2026-04-11T08:17:35.746Z</time></trkpt><trkpt lat="43.32917490705856" lon="11.958281631583793"><ele>556.4</ele><time>2026-04-11T08:17:36.744Z</time></trkpt><trkpt lat="43.329203358886225" lon="11.958366960354724"><ele>555.2</ele><time>2026-04-11T08:17:37.746Z</time></trkpt><trkpt lat="43.32923434873224" lon="11.958496265299258"><ele>554.0</ele><time>2026-04-11T08:17:38.747Z</time></trkpt><trkpt lat="43.32929102240169" lon="11.95863498711314"><ele>552.0</ele><time>2026-04-11T08:17:39.74Z</time></trkpt><trkpt lat="43.32933842789143" lon="11.958871426518444"><ele>550.0</ele><time>2026-04-11T08:17:41.737Z</time></trkpt><trkpt lat="43.32937180325682" lon="11.958967010335943"><ele>548.0</ele><time>2026-04-11T08:17:42.746Z</time></trkpt><trkpt lat="43.329434887629475" lon="11.959057333296403"><ele>546.0</ele><time>2026-04-11T08:17:43.745Z</time></trkpt><trkpt lat="43.329503126005314" lon="11.959147053976505"><ele>544.0</ele><time>2026-04-11T08:17:44.746Z</time></trkpt><trkpt lat="43.329555947657006" lon="11.959219094744405"><ele>543.0</ele><time>2026-04-11T08:17:45.746Z</time></trkpt><trkpt lat="43.32959238043589" lon="11.95929424827244"><ele>542.0</ele><time>2026-04-11T08:17:46.746Z</time></trkpt><trkpt lat="43.32955336319115" lon="11.959474066891694"><ele>541.0</ele><time>2026-04-11T08:17:48.746Z</time></trkpt><trkpt lat="43.32953311823084" lon="11.959576577618979"><ele>540.0</ele><time>2026-04-11T08:17:49.746Z</time></trkpt><trkpt lat="43.329524629814955" lon="11.959708250011694"><ele>539.0</ele><time>2026-04-11T08:17:50.746Z</time></trkpt><trkpt lat="43.32953426619124" lon="11.95980025042056"><ele>538.0</ele><time>2026-04-11T08:17:51.745Z</time></trkpt><trkpt lat="43.32954954143921" lon="11.959894281955172"><ele>538.0</ele><time>2026-04-11T08:17:52.746Z</time></trkpt><trkpt lat="43.3295444185221" lon="11.96000306950767"><ele>538.0</ele><time>2026-04-11T08:17:53.747Z</time></trkpt><trkpt lat="43.329512576581045" lon="11.96008131611623"><ele>538.0</ele><time>2026-04-11T08:17:54.746Z</time></trkpt><trkpt lat="43.32953495667207" lon="11.960220630609355"><ele>538.0</ele><time>2026-04-11T08:17:56.746Z</time></trkpt><trkpt lat="43.329548703462585" lon="11.960308432674275"><ele>538.0</ele><time>2026-04-11T08:17:57.746Z</time></trkpt><trkpt lat="43.329546143766684" lon="11.960417272374768"><ele>538.0</ele><time>2026-04-11T08:17:58.747Z</time></trkpt><trkpt lat="43.32951451628284" lon="11.96049282998033"><ele>537.6</ele><time>2026-04-11T08:17:59.741Z</time></trkpt><trkpt lat="43.32948406497237" lon="11.96057603185942"><ele>537.1999999999999</ele><time>2026-04-11T08:18:00.745Z</time></trkpt><trkpt lat="43.32946967628166" lon="11.960777953425573"><ele>536.8</ele><time>2026-04-11T08:18:02.747Z</time></trkpt><trkpt lat="43.32946434435934" lon="11.960896955783051"><ele>536.4</ele><time>2026-04-11T08:18:03.745Z</time></trkpt><trkpt lat="43.32946325813624" lon="11.961027844060828"><ele>536.0</ele><time>2026-04-11T08:18:04.747Z</time></trkpt><trkpt lat="43.32946763204047" lon="11.961148530016496"><ele>536.8</ele><time>2026-04-11T08:18:05.745Z</time></trkpt><trkpt lat="43.32946988107304" lon="11.961265683610746"><ele>537.6</ele><time>2026-04-11T08:18:06.748Z</time></trkpt><trkpt lat="43.32945165348627" lon="11.961366996942107"><ele>538.4</ele><time>2026-04-11T08:18:07.746Z</time></trkpt><trkpt lat="43.329456914693154" lon="11.961518367981752"><ele>539.2</ele><time>2026-04-11T08:18:09.745Z</time></trkpt><trkpt lat="43.329515200244415" lon="11.961658550382827"><ele>540.0</ele><time>2026-04-11T08:18:11.747Z</time></trkpt><trkpt lat="43.32954644242831" lon="11.961751550705907"><ele>542.8</ele><time>2026-04-11T08:18:12.748Z</time></trkpt><trkpt lat="43.329489818516" lon="11.961910489572317"><ele>545.6</ele><time>2026-04-11T08:18:14.745Z</time></trkpt><trkpt lat="43.32953101227861" lon="11.962080076832224"><ele>548.4</ele><time>2026-04-11T08:18:16.744Z</time></trkpt><trkpt lat="43.32957066645664" lon="11.962161324450145"><ele>551.2</ele><time>2026-04-11T08:18:17.736Z</time></trkpt><trkpt lat="43.32958034667083" lon="11.962273723500282"><ele>554.0</ele><time>2026-04-11T08:18:18.742Z</time></trkpt><trkpt lat="43.329586041443726" lon="11.962375921543641"><ele>554.0</ele><time>2026-04-11T08:18:19.742Z</time></trkpt><trkpt lat="43.329650638734925" lon="11.962490567355886"><ele>554.0</ele><time>2026-04-11T08:18:21.743Z</time></trkpt><trkpt lat="43.32963620286835" lon="11.96279828657354"><ele>554.0</ele><time>2026-04-11T08:18:25.736Z</time></trkpt><trkpt lat="43.329638733558504" lon="11.9629455949025"><ele>554.0</ele><time>2026-04-11T08:18:27.735Z</time></trkpt><trkpt lat="43.32961957255619" lon="11.96306638601401"><ele>554.8333333333333</ele><time>2026-04-11T08:18:29.736Z</time></trkpt><trkpt lat="43.3296289437213" lon="11.963203211333381"><ele>555.6666666666666</ele><time>2026-04-11T08:18:31.745Z</time></trkpt><trkpt lat="43.329666432929045" lon="11.963273702000306"><ele>556.5</ele><time>2026-04-11T08:18:32.746Z</time></trkpt><trkpt lat="43.32970593970258" lon="11.963365588612023"><ele>557.3333333333334</ele><time>2026-04-11T08:18:33.749Z</time></trkpt><trkpt lat="43.32970230593199" lon="11.963464275901673"><ele>558.1666666666667</ele><time>2026-04-11T08:18:34.747Z</time></trkpt><trkpt lat="43.3297260811858" lon="11.963606825626856"><ele>559.0</ele><time>2026-04-11T08:18:36.746Z</time></trkpt><trkpt lat="43.32984109985842" lon="11.96367589820578"><ele>562.75</ele><time>2026-04-11T08:18:38.747Z</time></trkpt><trkpt lat="43.329939603567645" lon="11.963772849335083"><ele>566.5</ele><time>2026-04-11T08:18:40.747Z</time></trkpt><trkpt lat="43.329974229804634" lon="11.963877307629897"><ele>570.25</ele><time>2026-04-11T08:18:41.748Z</time></trkpt><trkpt lat="43.33001795124734" lon="11.963963326446699"><ele>574.0</ele><time>2026-04-11T08:18:42.739Z</time></trkpt><trkpt lat="43.33018974493681" lon="11.964139576203088"><ele>574.0</ele><time>2026-04-11T08:18:45.738Z</time></trkpt><trkpt lat="43.33024765628533" lon="11.96418028781886"><ele>574.0</ele><time>2026-04-11T08:18:46.747Z</time></trkpt><trkpt lat="43.33032077204127" lon="11.964292909588748"><ele>574.0</ele><time>2026-04-11T08:18:48.748Z</time></trkpt><trkpt lat="43.33035485755678" lon="11.9644009222222"><ele>574.0</ele><time>2026-04-11T08:18:50.747Z</time></trkpt><trkpt lat="43.33039246590503" lon="11.964494483142511"><ele>574.0</ele><time>2026-04-11T08:18:52.738Z</time></trkpt><trkpt lat="43.33043938708552" lon="11.964553122332868"><ele>574.0</ele><time>2026-04-11T08:18:53.738Z</time></trkpt><trkpt lat="43.33046220291056" lon="11.964699259684558"><ele>571.8</ele><time>2026-04-11T08:18:55.745Z</time></trkpt><trkpt lat="43.330492273161504" lon="11.964807862962349"><ele>569.5999999999999</ele><time>2026-04-11T08:18:57.746Z</time></trkpt><trkpt lat="43.33044061617756" lon="11.964895289096987"><ele>567.4</ele><time>2026-04-11T08:18:59.746Z</time></trkpt><trkpt lat="43.33038891899837" lon="11.964994265459739"><ele>565.1999999999999</ele><time>2026-04-11T08:19:01.746Z</time></trkpt><trkpt lat="43.33036117834661" lon="11.965090212223675"><ele>563.0</ele><time>2026-04-11T08:19:03.744Z</time></trkpt><trkpt lat="43.33027875195795" lon="11.965266045046096"><ele>560.6666666666666</ele><time>2026-04-11T08:19:07.745Z</time></trkpt><trkpt lat="43.33023848484658" lon="11.965350330822831"><ele>558.3333333333333</ele><time>2026-04-11T08:19:09.745Z</time></trkpt><trkpt lat="43.33018718626238" lon="11.965437918037207"><ele>556.0</ele><time>2026-04-11T08:19:11.745Z</time></trkpt><trkpt lat="43.33011819239344" lon="11.965526545558891"><ele>553.6666666666666</ele><time>2026-04-11T08:19:13.744Z</time></trkpt><trkpt lat="43.33003982922974" lon="11.965606796691006"><ele>551.3333333333334</ele><time>2026-04-11T08:19:15.745Z</time></trkpt><trkpt lat="43.3299951946617" lon="11.965699163693262"><ele>549.0</ele><time>2026-04-11T08:19:17.746Z</time></trkpt><trkpt lat="43.32993421488121" lon="11.96579331365425"><ele>549.0</ele><time>2026-04-11T08:19:19.737Z</time></trkpt><trkpt lat="43.32987005160526" lon="11.9658375312447"><ele>549.0</ele><time>2026-04-11T08:19:21.745Z</time></trkpt><trkpt lat="43.32980451362104" lon="11.965905736395362"><ele>549.0</ele><time>2026-04-11T08:19:23.738Z</time></trkpt><trkpt lat="43.32975045924677" lon="11.965977525385311"><ele>549.0</ele><time>2026-04-11T08:19:25.737Z</time></trkpt><trkpt lat="43.32963500642851" lon="11.966113812789459"><ele>549.0</ele><time>2026-04-11T08:19:31.74Z</time></trkpt><trkpt lat="43.32959547055372" lon="11.966191584606081"><ele>547.4</ele><time>2026-04-11T08:22:25.74Z</time></trkpt><trkpt lat="43.32963279891415" lon="11.966047482885035"><ele>545.8</ele><time>2026-04-11T08:22:32.737Z</time></trkpt><trkpt lat="43.32972837266351" lon="11.966023196805756"><ele>544.2</ele><time>2026-04-11T08:22:34.738Z</time></trkpt><trkpt lat="43.329774361547194" lon="11.96609487996969"><ele>542.6</ele><time>2026-04-11T08:22:37.745Z</time></trkpt><trkpt lat="43.329704575735654" lon="11.966104901425265"><ele>541.0</ele><time>2026-04-11T09:24:15.736Z</time></trkpt><trkpt lat="43.329600002057994" lon="11.966226700988539"><ele>541.0</ele><time>2026-04-11T09:24:20.736Z</time></trkpt><trkpt lat="43.329560271795295" lon="11.966316845411646"><ele>541.0</ele><time>2026-04-11T09:24:22.737Z</time></trkpt><trkpt lat="43.32951658742861" lon="11.966427604724693"><ele>541.0</ele><time>2026-04-11T09:24:24.736Z</time></trkpt><trkpt lat="43.32947917105082" lon="11.966536847206493"><ele>541.0</ele><time>2026-04-11T09:24:26.736Z</time></trkpt><trkpt lat="43.32942891034707" lon="11.96665837340147"><ele>541.0</ele><time>2026-04-11T09:24:28.738Z</time></trkpt><trkpt lat="43.32938077580837" lon="11.96680246696209"><ele>542.2</ele><time>2026-04-11T09:24:30.736Z</time></trkpt><trkpt lat="43.32934102010165" lon="11.966966588654952"><ele>543.4000000000001</ele><time>2026-04-11T09:24:32.737Z</time></trkpt><trkpt lat="43.329297683983874" lon="11.96713629485159"><ele>544.6</ele><time>2026-04-11T09:24:34.735Z</time></trkpt><trkpt lat="43.329279281131036" lon="11.967227539469768"><ele>545.8000000000001</ele><time>2026-04-11T09:24:35.735Z</time></trkpt><trkpt lat="43.32926294557844" lon="11.967326212946595"><ele>547.0</ele><time>2026-04-11T09:24:36.736Z</time></trkpt><trkpt lat="43.32924722964431" lon="11.96752675237814"><ele>548.5</ele><time>2026-04-11T09:24:38.737Z</time></trkpt><trkpt lat="43.32926938067653" lon="11.967695405582452"><ele>550.0</ele><time>2026-04-11T09:24:40.737Z</time></trkpt><trkpt lat="43.329285686572675" lon="11.967781742452495"><ele>551.5</ele><time>2026-04-11T09:24:41.736Z</time></trkpt><trkpt lat="43.3293014100406" lon="11.967873308392276"><ele>553.0</ele><time>2026-04-11T09:24:42.737Z</time></trkpt><trkpt lat="43.329322831019674" lon="11.967961607445702"><ele>554.5</ele><time>2026-04-11T09:24:43.745Z</time></trkpt><trkpt lat="43.32935074020989" lon="11.968051444316188"><ele>556.0</ele><time>2026-04-11T09:24:44.743Z</time></trkpt><trkpt lat="43.32937928906532" lon="11.968140314827684"><ele>556.0</ele><time>2026-04-11T09:24:45.745Z</time></trkpt><trkpt lat="43.32940793863424" lon="11.968230883186994"><ele>556.0</ele><time>2026-04-11T09:24:46.745Z</time></trkpt><trkpt lat="43.32943408902725" lon="11.96832540614693"><ele>556.0</ele><time>2026-04-11T09:24:47.745Z</time></trkpt><trkpt lat="43.32946315348876" lon="11.968429474568788"><ele>556.0</ele><time>2026-04-11T09:24:48.746Z</time></trkpt><trkpt lat="43.3294901174541" lon="11.96852358227056"><ele>556.0</ele><time>2026-04-11T09:24:49.741Z</time></trkpt><trkpt lat="43.32951637303662" lon="11.96862047528359"><ele>556.0</ele><time>2026-04-11T09:24:50.745Z</time></trkpt><trkpt lat="43.329545354658805" lon="11.968719753944715"><ele>556.0</ele><time>2026-04-11T09:24:51.744Z</time></trkpt><trkpt lat="43.32957706145305" lon="11.968823715169894"><ele>556.0</ele><time>2026-04-11T09:24:52.737Z</time></trkpt><trkpt lat="43.32960544866919" lon="11.96892699630232"><ele>556.0</ele><time>2026-04-11T09:24:53.735Z</time></trkpt><trkpt lat="43.32963546415741" lon="11.969032345990145"><ele>556.0</ele><time>2026-04-11T09:24:54.737Z</time></trkpt><trkpt lat="43.32966999983751" lon="11.9691445059848"><ele>556.0</ele><time>2026-04-11T09:24:55.745Z</time></trkpt><trkpt lat="43.32970296493421" lon="11.969258891493249"><ele>556.0</ele><time>2026-04-11T09:24:56.737Z</time></trkpt><trkpt lat="43.329734934614486" lon="11.969373541549073"><ele>558.8</ele><time>2026-04-11T09:24:57.736Z</time></trkpt><trkpt lat="43.32979283983702" lon="11.969601086533405"><ele>561.6</ele><time>2026-04-11T09:24:59.735Z</time></trkpt><trkpt lat="43.32981565846208" lon="11.969712654718826"><ele>564.4</ele><time>2026-04-11T09:25:00.737Z</time></trkpt><trkpt lat="43.32983582695671" lon="11.969831644622074"><ele>567.2</ele><time>2026-04-11T09:25:01.746Z</time></trkpt><trkpt lat="43.32984921723505" lon="11.969942500126749"><ele>570.0</ele><time>2026-04-11T09:25:02.737Z</time></trkpt><trkpt lat="43.329859456375345" lon="11.97004820067215"><ele>571.8</ele><time>2026-04-11T09:25:03.736Z</time></trkpt><trkpt lat="43.32986078574268" lon="11.970148793288134"><ele>573.6</ele><time>2026-04-11T09:25:04.737Z</time></trkpt><trkpt lat="43.32986125667625" lon="11.970314259506397"><ele>575.4</ele><time>2026-04-11T09:25:06.736Z</time></trkpt><trkpt lat="43.32986882619187" lon="11.970480260693417"><ele>577.2</ele><time>2026-04-11T09:25:08.737Z</time></trkpt><trkpt lat="43.3298777226191" lon="11.970646888898292"><ele>579.0</ele><time>2026-04-11T09:25:10.737Z</time></trkpt><trkpt lat="43.329880226790465" lon="11.970736676082542"><ele>578.9999999999999</ele><time>2026-04-11T09:25:11.737Z</time></trkpt><trkpt lat="43.32987748298818" lon="11.97082806446088"><ele>579.0</ele><time>2026-04-11T09:25:12.738Z</time></trkpt><trkpt lat="43.32987569343218" lon="11.97092341086392"><ele>579.0</ele><time>2026-04-11T09:25:13.736Z</time></trkpt><trkpt lat="43.3298648759121" lon="11.971010694974868"><ele>579.0</ele><time>2026-04-11T09:25:14.738Z</time></trkpt><trkpt lat="43.32985480892904" lon="11.971106446916403"><ele>579.0</ele><time>2026-04-11T09:25:15.736Z</time></trkpt><trkpt lat="43.32984243440351" lon="11.971204220075816"><ele>578.9999999999999</ele><time>2026-04-11T09:25:16.737Z</time></trkpt><trkpt lat="43.32982609168183" lon="11.971300480024949"><ele>579.0</ele><time>2026-04-11T09:25:17.744Z</time></trkpt><trkpt lat="43.329811308242945" lon="11.971408701595694"><ele>578.4</ele><time>2026-04-11T09:25:18.737Z</time></trkpt><trkpt lat="43.329771745451175" lon="11.971620735920466"><ele>577.8</ele><time>2026-04-11T09:25:20.737Z</time></trkpt><trkpt lat="43.329755091951604" lon="11.971736567639303"><ele>577.2</ele><time>2026-04-11T09:25:21.736Z</time></trkpt><trkpt lat="43.329737101508556" lon="11.97184993164293"><ele>576.6</ele><time>2026-04-11T09:25:22.737Z</time></trkpt><trkpt lat="43.3297153513248" lon="11.971977875724136"><ele>576.0</ele><time>2026-04-11T09:25:23.736Z</time></trkpt><trkpt lat="43.329692326567546" lon="11.97209713735974"><ele>579.2</ele><time>2026-04-11T09:25:24.737Z</time></trkpt><trkpt lat="43.329667365097784" lon="11.972216219089187"><ele>582.4000000000001</ele><time>2026-04-11T09:25:25.736Z</time></trkpt><trkpt lat="43.329636860990995" lon="11.97232634629897"><ele>585.6</ele><time>2026-04-11T09:25:26.738Z</time></trkpt><trkpt lat="43.32959718974634" lon="11.972448508564918"><ele>588.8000000000001</ele><time>2026-04-11T09:25:27.744Z</time></trkpt><trkpt lat="43.32955742177768" lon="11.972558873777572"><ele>592.0</ele><time>2026-04-11T09:25:28.745Z</time></trkpt><trkpt lat="43.3295122456207" lon="11.972665301551622"><ele>593.0</ele><time>2026-04-11T09:25:29.738Z</time></trkpt><trkpt lat="43.32946029581423" lon="11.97277657473981"><ele>594.0</ele><time>2026-04-11T09:25:30.745Z</time></trkpt><trkpt lat="43.32940585395487" lon="11.9728883279432"><ele>595.0</ele><time>2026-04-11T09:25:31.737Z</time></trkpt><trkpt lat="43.32935229553797" lon="11.97300143294614"><ele>596.0</ele><time>2026-04-11T09:25:32.745Z</time></trkpt><trkpt lat="43.32929869813586" lon="11.9731190960328"><ele>597.0</ele><time>2026-04-11T09:25:33.745Z</time></trkpt><trkpt lat="43.3292492802619" lon="11.973243868766499"><ele>598.6</ele><time>2026-04-11T09:25:34.744Z</time></trkpt><trkpt lat="43.32919934750399" lon="11.973366467226072"><ele>600.2</ele><time>2026-04-11T09:25:35.74Z</time></trkpt><trkpt lat="43.32915156695095" lon="11.973488298231537"><ele>601.8</ele><time>2026-04-11T09:25:36.736Z</time></trkpt><trkpt lat="43.32911128106016" lon="11.973612611726892"><ele>603.4</ele><time>2026-04-11T09:25:37.737Z</time></trkpt><trkpt lat="43.32907863591733" lon="11.973731907924602"><ele>605.0</ele><time>2026-04-11T09:25:38.736Z</time></trkpt><trkpt lat="43.32904507311677" lon="11.973860778850211"><ele>605.0</ele><time>2026-04-11T09:25:39.736Z</time></trkpt><trkpt lat="43.328982181427484" lon="11.974112460685998"><ele>605.0</ele><time>2026-04-11T09:25:41.744Z</time></trkpt><trkpt lat="43.32895043226001" lon="11.974232950365897"><ele>605.0</ele><time>2026-04-11T09:25:42.736Z</time></trkpt><trkpt lat="43.32892199923842" lon="11.97436770166114"><ele>605.0</ele><time>2026-04-11T09:25:43.737Z</time></trkpt><trkpt lat="43.32889805667603" lon="11.97449818319764"><ele>605.4</ele><time>2026-04-11T09:25:44.736Z</time></trkpt><trkpt lat="43.32886621376662" lon="11.974626813635489"><ele>605.8</ele><time>2026-04-11T09:25:45.737Z</time></trkpt><trkpt lat="43.32882906736724" lon="11.974766983955833"><ele>606.2</ele><time>2026-04-11T09:25:46.736Z</time></trkpt><trkpt lat="43.32879487790034" lon="11.974898872656613"><ele>606.6</ele><time>2026-04-11T09:25:47.736Z</time></trkpt><trkpt lat="43.32875880576439" lon="11.975045118895547"><ele>607.0</ele><time>2026-04-11T09:25:48.737Z</time></trkpt><trkpt lat="43.328721881401094" lon="11.975195026228727"><ele>607.0</ele><time>2026-04-11T09:25:49.735Z</time></trkpt><trkpt lat="43.32868209656213" lon="11.97534225512693"><ele>607.0</ele><time>2026-04-11T09:25:50.737Z</time></trkpt><trkpt lat="43.328649470032865" lon="11.97548805198327"><ele>607.0</ele><time>2026-04-11T09:25:51.735Z</time></trkpt><trkpt lat="43.328620714163755" lon="11.975637125961223"><ele>607.0</ele><time>2026-04-11T09:25:52.736Z</time></trkpt><trkpt lat="43.3285955139422" lon="11.975788948741961"><ele>609.2</ele><time>2026-04-11T09:25:53.739Z</time></trkpt><trkpt lat="43.328571047735984" lon="11.975934464726969"><ele>611.4000000000001</ele><time>2026-04-11T09:25:54.736Z</time></trkpt><trkpt lat="43.328552850236136" lon="11.97606911037564"><ele>613.5999999999999</ele><time>2026-04-11T09:25:55.737Z</time></trkpt><trkpt lat="43.32854602626513" lon="11.976180592585902"><ele>615.8</ele><time>2026-04-11T09:25:56.737Z</time></trkpt><trkpt lat="43.32854046031093" lon="11.976326121244721"><ele>618.0</ele><time>2026-04-11T09:25:58.737Z</time></trkpt><trkpt lat="43.3285457711324" lon="11.976421501890274"><ele>618.0</ele><time>2026-04-11T09:26:01.737Z</time></trkpt><trkpt lat="43.32865179107768" lon="11.976554821946465"><ele>618.0</ele><time>2026-04-11T09:26:07.746Z</time></trkpt><trkpt lat="43.32871001590886" lon="11.976653270133928"><ele>618.0</ele><time>2026-04-11T09:26:09.745Z</time></trkpt><trkpt lat="43.328734192811766" lon="11.976741162225197"><ele>618.0</ele><time>2026-04-11T09:26:10.736Z</time></trkpt><trkpt lat="43.3287483088716" lon="11.976848172540416"><ele>618.0</ele><time>2026-04-11T09:26:11.744Z</time></trkpt><trkpt lat="43.3287464627676" lon="11.976961205133705"><ele>620.0</ele><time>2026-04-11T09:26:12.746Z</time></trkpt><trkpt lat="43.32874673524304" lon="11.977064162459403"><ele>622.0</ele><time>2026-04-11T09:26:13.744Z</time></trkpt><trkpt lat="43.32874137740066" lon="11.977154309854592"><ele>624.0</ele><time>2026-04-11T09:26:14.736Z</time></trkpt><trkpt lat="43.328734334181924" lon="11.97724893327742"><ele>626.0</ele><time>2026-04-11T09:26:15.741Z</time></trkpt><trkpt lat="43.328727876334554" lon="11.977350739026468"><ele>628.0</ele><time>2026-04-11T09:26:16.737Z</time></trkpt><trkpt lat="43.3287135874278" lon="11.977465300165731"><ele>630.0</ele><time>2026-04-11T09:26:17.736Z</time></trkpt><trkpt lat="43.328692721888864" lon="11.977575682228352"><ele>632.8</ele><time>2026-04-11T09:26:18.736Z</time></trkpt><trkpt lat="43.328667588450294" lon="11.977678154800174"><ele>635.6</ele><time>2026-04-11T09:26:19.735Z</time></trkpt><trkpt lat="43.32864272608629" lon="11.977767281521132"><ele>638.4000000000001</ele><time>2026-04-11T09:26:20.744Z</time></trkpt><trkpt lat="43.32861978749334" lon="11.977850810730791"><ele>641.2</ele><time>2026-04-11T09:26:21.743Z</time></trkpt><trkpt lat="43.32865408077752" lon="11.978025304629236"><ele>644.0</ele><time>2026-04-11T09:26:23.744Z</time></trkpt><trkpt lat="43.328713449797" lon="11.978225584952916"><ele>644.0</ele><time>2026-04-11T09:26:25.743Z</time></trkpt><trkpt lat="43.32877758580497" lon="11.978295275445847"><ele>644.0</ele><time>2026-04-11T09:26:26.745Z</time></trkpt><trkpt lat="43.328829480229125" lon="11.978374511070907"><ele>644.0</ele><time>2026-04-11T09:26:27.745Z</time></trkpt><trkpt lat="43.32889012163273" lon="11.978466414952617"><ele>644.0</ele><time>2026-04-11T09:26:28.744Z</time></trkpt><trkpt lat="43.32893693967702" lon="11.978564495830371"><ele>644.0</ele><time>2026-04-11T09:26:29.738Z</time></trkpt><trkpt lat="43.32896344275573" lon="11.978670781581666"><ele>644.0</ele><time>2026-04-11T09:26:30.744Z</time></trkpt><trkpt lat="43.32898029131478" lon="11.978779472651363"><ele>641.6666666666666</ele><time>2026-04-11T09:26:31.745Z</time></trkpt><trkpt lat="43.32899768406932" lon="11.97890107797686"><ele>639.3333333333333</ele><time>2026-04-11T09:26:32.746Z</time></trkpt><trkpt lat="43.32901529547712" lon="11.979012887689665"><ele>637.0</ele><time>2026-04-11T09:26:33.735Z</time></trkpt><trkpt lat="43.329009506378796" lon="11.979122273601105"><ele>634.6666666666666</ele><time>2026-04-11T09:26:34.744Z</time></trkpt><trkpt lat="43.32899921563977" lon="11.979218197715072"><ele>632.3333333333334</ele><time>2026-04-11T09:26:35.744Z</time></trkpt><trkpt lat="43.32899164296969" lon="11.979317470954422"><ele>630.0</ele><time>2026-04-11T09:26:36.745Z</time></trkpt><trkpt lat="43.328987634193616" lon="11.979418785850026"><ele>630.0</ele><time>2026-04-11T09:26:37.743Z</time></trkpt><trkpt lat="43.32898464310732" lon="11.979528728506308"><ele>630.0</ele><time>2026-04-11T09:26:38.743Z</time></trkpt><trkpt lat="43.32897405620038" lon="11.979654911778011"><ele>630.0</ele><time>2026-04-11T09:26:39.744Z</time></trkpt><trkpt lat="43.32900961003613" lon="11.979767248249827"><ele>630.0</ele><time>2026-04-11T09:26:40.742Z</time></trkpt><trkpt lat="43.329072021684105" lon="11.979860079012607"><ele>630.0</ele><time>2026-04-11T09:26:41.743Z</time></trkpt><trkpt lat="43.329139227853176" lon="11.979934575844652"><ele>630.0</ele><time>2026-04-11T09:26:42.745Z</time></trkpt><trkpt lat="43.329196338558425" lon="11.980003394657768"><ele>635.5</ele><time>2026-04-11T09:26:43.744Z</time></trkpt><trkpt lat="43.32927317381804" lon="11.980093445044334"><ele>641.0</ele><time>2026-04-11T09:26:44.744Z</time></trkpt><trkpt lat="43.32941850645795" lon="11.980295071985678"><ele>646.5</ele><time>2026-04-11T09:26:46.745Z</time></trkpt><trkpt lat="43.32948659091164" lon="11.98037808192869"><ele>652.0</ele><time>2026-04-11T09:26:47.745Z</time></trkpt><trkpt lat="43.32953782564138" lon="11.980475710405658"><ele>652.0</ele><time>2026-04-11T09:26:48.745Z</time></trkpt><trkpt lat="43.32956824381039" lon="11.980593686979292"><ele>652.0</ele><time>2026-04-11T09:26:49.745Z</time></trkpt><trkpt lat="43.32959130274757" lon="11.980716540055388"><ele>652.0</ele><time>2026-04-11T09:26:50.744Z</time></trkpt><trkpt lat="43.32961711800368" lon="11.980829231460868"><ele>652.0</ele><time>2026-04-11T09:26:51.744Z</time></trkpt><trkpt lat="43.3296394987806" lon="11.980941252861685"><ele>652.0</ele><time>2026-04-11T09:26:52.745Z</time></trkpt><trkpt lat="43.32966867602897" lon="11.98107003841361"><ele>650.2</ele><time>2026-04-11T09:26:53.744Z</time></trkpt><trkpt lat="43.32971284390146" lon="11.981169680573466"><ele>648.4000000000001</ele><time>2026-04-11T09:26:54.745Z</time></trkpt><trkpt lat="43.329776766886596" lon="11.981223106445109"><ele>646.5999999999999</ele><time>2026-04-11T09:26:55.744Z</time></trkpt><trkpt lat="43.32985895829881" lon="11.98126404093537"><ele>644.8</ele><time>2026-04-11T09:26:56.745Z</time></trkpt><trkpt lat="43.329953589048806" lon="11.981339848839871"><ele>643.0</ele><time>2026-04-11T09:26:57.743Z</time></trkpt><trkpt lat="43.33003679074723" lon="11.981418601663258"><ele>643.0</ele><time>2026-04-11T09:26:58.745Z</time></trkpt><trkpt lat="43.330099695689924" lon="11.981477364364904"><ele>643.0</ele><time>2026-04-11T09:26:59.745Z</time></trkpt><trkpt lat="43.330185688192685" lon="11.981620751481453"><ele>643.0</ele><time>2026-04-11T09:27:01.745Z</time></trkpt><trkpt lat="43.33020773113278" lon="11.98172245590168"><ele>643.0</ele><time>2026-04-11T09:27:02.746Z</time></trkpt><trkpt lat="43.33022752107809" lon="11.981816942695335"><ele>643.0</ele><time>2026-04-11T09:27:03.746Z</time></trkpt><trkpt lat="43.33024351263814" lon="11.981911089307907"><ele>643.0</ele><time>2026-04-11T09:27:04.746Z</time></trkpt><trkpt lat="43.330259332217885" lon="11.982012103247493"><ele>642.8</ele><time>2026-04-11T09:27:05.736Z</time></trkpt><trkpt lat="43.330219989139586" lon="11.982212550927043"><ele>642.5999999999999</ele><time>2026-04-11T09:27:07.745Z</time></trkpt><trkpt lat="43.33016262338076" lon="11.982291377982598"><ele>642.4000000000001</ele><time>2026-04-11T09:27:08.745Z</time></trkpt><trkpt lat="43.33008411681636" lon="11.982368535667813"><ele>642.2</ele><time>2026-04-11T09:27:09.745Z</time></trkpt><trkpt lat="43.33001367647808" lon="11.982433164755708"><ele>642.0</ele><time>2026-04-11T09:27:10.745Z</time></trkpt><trkpt lat="43.329945031698244" lon="11.982503768215452"><ele>643.6666666666666</ele><time>2026-04-11T09:27:11.744Z</time></trkpt><trkpt lat="43.32986911827154" lon="11.982570129164383"><ele>645.3333333333334</ele><time>2026-04-11T09:27:12.745Z</time></trkpt><trkpt lat="43.32979477935205" lon="11.982630802090394"><ele>647.0</ele><time>2026-04-11T09:27:13.744Z</time></trkpt><trkpt lat="43.32974253129087" lon="11.982687982788766"><ele>648.6666666666667</ele><time>2026-04-11T09:27:14.744Z</time></trkpt><trkpt lat="43.32968646250998" lon="11.982752718499023"><ele>650.3333333333334</ele><time>2026-04-11T09:27:15.745Z</time></trkpt><trkpt lat="43.32962330568582" lon="11.98280270093857"><ele>652.0</ele><time>2026-04-11T09:27:16.743Z</time></trkpt><trkpt lat="43.329511793468406" lon="11.982889180723541"><ele>652.0</ele><time>2026-04-11T09:27:18.745Z</time></trkpt><trkpt lat="43.329454525430556" lon="11.98295928262621"><ele>652.0</ele><time>2026-04-11T09:27:19.744Z</time></trkpt><trkpt lat="43.329383288377485" lon="11.983015032398404"><ele>652.0</ele><time>2026-04-11T09:27:20.745Z</time></trkpt><trkpt lat="43.3293005083772" lon="11.983072670480697"><ele>652.0</ele><time>2026-04-11T09:27:21.744Z</time></trkpt><trkpt lat="43.32926071254703" lon="11.983157271011788"><ele>652.0</ele><time>2026-04-11T09:27:22.744Z</time></trkpt><trkpt lat="43.329206054400494" lon="11.983272169292862"><ele>652.0</ele><time>2026-04-11T09:27:23.744Z</time></trkpt><trkpt lat="43.329151990783764" lon="11.983353136655582"><ele>648.75</ele><time>2026-04-11T09:27:24.745Z</time></trkpt><trkpt lat="43.329086311005064" lon="11.983402096722054"><ele>645.5</ele><time>2026-04-11T09:27:25.743Z</time></trkpt><trkpt lat="43.329005525525524" lon="11.98343480643638"><ele>642.25</ele><time>2026-04-11T09:27:26.745Z</time></trkpt><trkpt lat="43.32879607312542" lon="11.983535293481907"><ele>639.0</ele><time>2026-04-11T09:27:29.742Z</time></trkpt><trkpt lat="43.3287373575905" lon="11.983629988382269"><ele>648.4</ele><time>2026-04-11T09:27:32.735Z</time></trkpt><trkpt lat="43.32874746538388" lon="11.98380594438778"><ele>657.8</ele><time>2026-04-11T09:27:34.734Z</time></trkpt><trkpt lat="43.32875835100423" lon="11.983919111117428"><ele>667.1999999999999</ele><time>2026-04-11T09:27:35.742Z</time></trkpt><trkpt lat="43.32875381236223" lon="11.984049569316749"><ele>676.5999999999999</ele><time>2026-04-11T09:27:36.742Z</time></trkpt><trkpt lat="43.328743657861914" lon="11.98417500872918"><ele>686.0</ele><time>2026-04-11T09:27:37.742Z</time></trkpt><trkpt lat="43.32875700750196" lon="11.984276598301472"><ele>689.0</ele><time>2026-04-11T09:27:38.742Z</time></trkpt><trkpt lat="43.328755162577544" lon="11.984385468533583"><ele>692.0</ele><time>2026-04-11T09:27:39.734Z</time></trkpt><trkpt lat="43.32879879079666" lon="11.984523290358748"><ele>695.0</ele><time>2026-04-11T09:27:41.734Z</time></trkpt><trkpt lat="43.328845990983496" lon="11.984655140236006"><ele>698.0</ele><time>2026-04-11T09:27:43.743Z</time></trkpt><trkpt lat="43.328864369326865" lon="11.984841453324044"><ele>701.0</ele><time>2026-04-11T09:27:45.742Z</time></trkpt><trkpt lat="43.328866971159606" lon="11.984934465409198"><ele>704.25</ele><time>2026-04-11T09:27:46.743Z</time></trkpt><trkpt lat="43.328869028986986" lon="11.985117949204918"><ele>707.5</ele><time>2026-04-11T09:27:48.743Z</time></trkpt><trkpt lat="43.32891601048812" lon="11.985338700980856"><ele>710.75</ele><time>2026-04-11T09:27:50.743Z</time></trkpt><trkpt lat="43.32894771598116" lon="11.985441251655033"><ele>714.0</ele><time>2026-04-11T09:27:51.744Z</time></trkpt><trkpt lat="43.32897411941204" lon="11.985620354116351"><ele>709.8333333333334</ele><time>2026-04-11T09:27:53.743Z</time></trkpt><trkpt lat="43.32900982403219" lon="11.985730772663045"><ele>705.6666666666666</ele><time>2026-04-11T09:27:54.741Z</time></trkpt><trkpt lat="43.329060508494486" lon="11.985818784181214"><ele>701.5</ele><time>2026-04-11T09:27:55.743Z</time></trkpt><trkpt lat="43.32909314078776" lon="11.985907641407618"><ele>697.3333333333333</ele><time>2026-04-11T09:27:56.743Z</time></trkpt><trkpt lat="43.32909302305391" lon="11.986005574282872"><ele>693.1666666666666</ele><time>2026-04-11T09:27:57.743Z</time></trkpt><trkpt lat="43.32911043492171" lon="11.986124651848739"><ele>689.0</ele><time>2026-04-11T09:27:58.744Z</time></trkpt><trkpt lat="43.329153830591906" lon="11.986226347283255"><ele>689.0</ele><time>2026-04-11T09:27:59.737Z</time></trkpt><trkpt lat="43.32917552052707" lon="11.98632483722808"><ele>689.0</ele><time>2026-04-11T09:28:00.744Z</time></trkpt><trkpt lat="43.32916546025558" lon="11.986482411064701"><ele>689.0</ele><time>2026-04-11T09:28:02.744Z</time></trkpt><trkpt lat="43.329107747353945" lon="11.986638965109503"><ele>689.0</ele><time>2026-04-11T09:28:04.744Z</time></trkpt><trkpt lat="43.32912113858844" lon="11.986731106124903"><ele>689.0</ele><time>2026-04-11T09:28:05.744Z</time></trkpt><trkpt lat="43.32922419185019" lon="11.986842448004584"><ele>691.0</ele><time>2026-04-11T09:28:07.743Z</time></trkpt><trkpt lat="43.32930279188564" lon="11.986914125682976"><ele>693.0</ele><time>2026-04-11T09:28:08.746Z</time></trkpt><trkpt lat="43.3293846970824" lon="11.986975734481272"><ele>695.0</ele><time>2026-04-11T09:28:09.743Z</time></trkpt><trkpt lat="43.32950750888077" lon="11.987235699237065"><ele>697.0</ele><time>2026-04-11T09:28:12.744Z</time></trkpt><trkpt lat="43.329553486929356" lon="11.987352599348936"><ele>697.0</ele><time>2026-04-11T09:28:14.744Z</time></trkpt><trkpt lat="43.3296036740125" lon="11.987489590637589"><ele>697.0</ele><time>2026-04-11T09:28:16.744Z</time></trkpt><trkpt lat="43.32962454900503" lon="11.987587636307454"><ele>697.0</ele><time>2026-04-11T09:28:17.745Z</time></trkpt><trkpt lat="43.32957686725732" lon="11.987745822071895"><ele>697.0</ele><time>2026-04-11T09:28:19.744Z</time></trkpt><trkpt lat="43.32955238978644" lon="11.987831076650926"><ele>697.0</ele><time>2026-04-11T09:28:20.744Z</time></trkpt><trkpt lat="43.32950492250743" lon="11.987911502411494"><ele>695.8333333333334</ele><time>2026-04-11T09:28:21.745Z</time></trkpt><trkpt lat="43.32945187596876" lon="11.987965016294845"><ele>694.6666666666667</ele><time>2026-04-11T09:28:22.745Z</time></trkpt><trkpt lat="43.32939298845978" lon="11.98802257394208"><ele>693.5</ele><time>2026-04-11T09:28:36.736Z</time></trkpt><trkpt lat="43.32939506057987" lon="11.988221925539701"><ele>692.3333333333334</ele><time>2026-04-11T09:28:41.745Z</time></trkpt><trkpt lat="43.32940015892061" lon="11.988320141154652"><ele>691.1666666666666</ele><time>2026-04-11T09:28:43.746Z</time></trkpt><trkpt lat="43.32940604167295" lon="11.988431377575584"><ele>690.0</ele><time>2026-04-11T09:28:45.736Z</time></trkpt><trkpt lat="43.32943439523016" lon="11.98856695338101"><ele>688.6</ele><time>2026-04-11T09:28:47.745Z</time></trkpt><trkpt lat="43.329525543782225" lon="11.988636224720743"><ele>687.2</ele><time>2026-04-11T09:28:49.744Z</time></trkpt><trkpt lat="43.32961065506907" lon="11.988730984656414"><ele>685.8</ele><time>2026-04-11T09:28:51.744Z</time></trkpt><trkpt lat="43.32967097545354" lon="11.988815080742185"><ele>684.4</ele><time>2026-04-11T09:28:53.744Z</time></trkpt><trkpt lat="43.329770340744666" lon="11.988893380007534"><ele>683.0</ele><time>2026-04-11T09:28:55.745Z</time></trkpt><trkpt lat="43.329830944641756" lon="11.988945582625183"><ele>683.0</ele><time>2026-04-11T09:28:56.744Z</time></trkpt><trkpt lat="43.32994123737333" lon="11.989039935448679"><ele>683.0</ele><time>2026-04-11T09:28:58.745Z</time></trkpt><trkpt lat="43.33011359493368" lon="11.989203261875197"><ele>683.0</ele><time>2026-04-11T09:29:01.745Z</time></trkpt><trkpt lat="43.3301966526755" lon="11.989215545901732"><ele>683.0</ele><time>2026-04-11T09:29:02.747Z</time></trkpt><trkpt lat="43.33028033674782" lon="11.989200168751594"><ele>683.0</ele><time>2026-04-11T09:29:03.746Z</time></trkpt><trkpt lat="43.33035748599628" lon="11.989160148901961"><ele>683.0</ele><time>2026-04-11T09:29:04.746Z</time></trkpt><trkpt lat="43.33043033780944" lon="11.989153933616702"><ele>683.0</ele><time>2026-04-11T09:29:05.746Z</time></trkpt><trkpt lat="43.33049775041161" lon="11.989172633567955"><ele>683.0</ele><time>2026-04-11T09:29:06.747Z</time></trkpt><trkpt lat="43.33057634639979" lon="11.989204800014742"><ele>683.0</ele><time>2026-04-11T09:29:07.746Z</time></trkpt><trkpt lat="43.33066605941504" lon="11.98923777904679"><ele>683.0</ele><time>2026-04-11T09:29:08.746Z</time></trkpt><trkpt lat="43.33074835977135" lon="11.989238371406564"><ele>680.0</ele><time>2026-04-11T09:29:09.745Z</time></trkpt><trkpt lat="43.33083184741021" lon="11.989209295991472"><ele>677.0</ele><time>2026-04-11T09:29:10.746Z</time></trkpt><trkpt lat="43.330918904003624" lon="11.989216222750647"><ele>674.0</ele><time>2026-04-11T09:29:11.745Z</time></trkpt><trkpt lat="43.331012444058814" lon="11.989277794148032"><ele>671.0</ele><time>2026-04-11T09:29:12.747Z</time></trkpt><trkpt lat="43.33108512573031" lon="11.989351199073905"><ele>668.0</ele><time>2026-04-11T09:29:13.745Z</time></trkpt><trkpt lat="43.33115754651032" lon="11.989413214931231"><ele>668.0</ele><time>2026-04-11T09:29:14.746Z</time></trkpt><trkpt lat="43.33122403571103" lon="11.989506361507367"><ele>668.0</ele><time>2026-04-11T09:29:15.744Z</time></trkpt><trkpt lat="43.33130081912964" lon="11.989602565257854"><ele>668.0</ele><time>2026-04-11T09:29:16.746Z</time></trkpt><trkpt lat="43.331359825708226" lon="11.9896878531325"><ele>668.0</ele><time>2026-04-11T09:29:17.745Z</time></trkpt><trkpt lat="43.33139992002262" lon="11.989768381495765"><ele>668.0</ele><time>2026-04-11T09:29:18.745Z</time></trkpt><trkpt lat="43.3314342874869" lon="11.98986564852212"><ele>668.0</ele><time>2026-04-11T09:29:19.739Z</time></trkpt><trkpt lat="43.33145643339517" lon="11.990079445087906"><ele>665.8</ele><time>2026-04-11T09:29:21.745Z</time></trkpt><trkpt lat="43.331458619582406" lon="11.990265108550428"><ele>663.5999999999999</ele><time>2026-04-11T09:29:23.744Z</time></trkpt><trkpt lat="43.33144712168961" lon="11.990358175203182"><ele>661.4000000000001</ele><time>2026-04-11T09:29:24.738Z</time></trkpt><trkpt lat="43.331428388953434" lon="11.990450000044296"><ele>659.2</ele><time>2026-04-11T09:29:25.744Z</time></trkpt><trkpt lat="43.33142192553822" lon="11.990615070741923"><ele>657.0</ele><time>2026-04-11T09:29:27.748Z</time></trkpt><trkpt lat="43.33147854980668" lon="11.990749634840425"><ele>657.0</ele><time>2026-04-11T09:29:29.745Z</time></trkpt><trkpt lat="43.33155076416109" lon="11.990731929149113"><ele>657.0</ele><time>2026-04-11T09:29:30.746Z</time></trkpt><trkpt lat="43.33161778767086" lon="11.990653592238138"><ele>657.0</ele><time>2026-04-11T09:29:31.745Z</time></trkpt><trkpt lat="43.33167708425749" lon="11.990540268750932"><ele>657.0</ele><time>2026-04-11T09:29:32.746Z</time></trkpt><trkpt lat="43.33173518919561" lon="11.990466659097304"><ele>657.0</ele><time>2026-04-11T09:29:33.745Z</time></trkpt><trkpt lat="43.331809264162196" lon="11.990426311085523"><ele>657.0</ele><time>2026-04-11T09:29:34.746Z</time></trkpt><trkpt lat="43.331886177196246" lon="11.990393673943828"><ele>657.0</ele><time>2026-04-11T09:29:35.746Z</time></trkpt><trkpt lat="43.331948276448685" lon="11.990333376384534"><ele>657.0</ele><time>2026-04-11T09:29:36.745Z</time></trkpt><trkpt lat="43.332010610458894" lon="11.990276956740985"><ele>657.0</ele><time>2026-04-11T09:29:37.743Z</time></trkpt><trkpt lat="43.33208497823624" lon="11.990253853967879"><ele>657.0</ele><time>2026-04-11T09:29:38.744Z</time></trkpt><trkpt lat="43.33216098795058" lon="11.990229128646932"><ele>657.0</ele><time>2026-04-11T09:29:39.736Z</time></trkpt><trkpt lat="43.33229011137606" lon="11.99018500197458"><ele>657.0</ele><time>2026-04-11T09:29:41.735Z</time></trkpt><trkpt lat="43.33245803104585" lon="11.990249962321897"><ele>653.5</ele><time>2026-04-11T09:29:43.737Z</time></trkpt><trkpt lat="43.332556877812515" lon="11.990258367632455"><ele>650.0</ele><time>2026-04-11T09:29:44.744Z</time></trkpt><trkpt lat="43.33264393731934" lon="11.990270118461206"><ele>646.5</ele><time>2026-04-11T09:29:45.744Z</time></trkpt><trkpt lat="43.33276467931331" lon="11.990308834172616"><ele>643.0</ele><time>2026-04-11T09:29:47.746Z</time></trkpt><trkpt lat="43.332824540570996" lon="11.990339592262277"><ele>639.5</ele><time>2026-04-11T09:29:48.745Z</time></trkpt><trkpt lat="43.33288709367248" lon="11.990378905236156"><ele>636.0</ele><time>2026-04-11T09:29:49.745Z</time></trkpt><trkpt lat="43.332952358607336" lon="11.990420590330404"><ele>636.0</ele><time>2026-04-11T09:29:50.745Z</time></trkpt><trkpt lat="43.33301864314302" lon="11.9904473383143"><ele>636.0</ele><time>2026-04-11T09:29:51.745Z</time></trkpt><trkpt lat="43.33309227673849" lon="11.990427912814555"><ele>636.0</ele><time>2026-04-11T09:29:52.745Z</time></trkpt><trkpt lat="43.33318745740329" lon="11.9904034375092"><ele>636.0</ele><time>2026-04-11T09:29:53.739Z</time></trkpt><trkpt lat="43.33328784014423" lon="11.990397175970836"><ele>636.0</ele><time>2026-04-11T09:29:54.746Z</time></trkpt><trkpt lat="43.33339092790563" lon="11.99044425892065"><ele>635.2</ele><time>2026-04-11T09:29:55.746Z</time></trkpt><trkpt lat="43.333466935765244" lon="11.990496106807429"><ele>634.4000000000001</ele><time>2026-04-11T09:29:56.745Z</time></trkpt><trkpt lat="43.33354949382821" lon="11.990567581440349"><ele>633.6</ele><time>2026-04-11T09:29:57.745Z</time></trkpt><trkpt lat="43.333646693115384" lon="11.990668676101594"><ele>632.8000000000001</ele><time>2026-04-11T09:29:58.744Z</time></trkpt><trkpt lat="43.333734550668616" lon="11.990763932692072"><ele>632.0</ele><time>2026-04-11T09:29:59.745Z</time></trkpt><trkpt lat="43.33380611956119" lon="11.99084702150557"><ele>632.75</ele><time>2026-04-11T09:30:00.737Z</time></trkpt><trkpt lat="43.33389943194465" lon="11.990883919632045"><ele>633.5</ele><time>2026-04-11T09:30:01.744Z</time></trkpt><trkpt lat="43.333986208895155" lon="11.99093919103879"><ele>634.25</ele><time>2026-04-11T09:30:02.745Z</time></trkpt><trkpt lat="43.33413435041814" lon="11.991114754470217"><ele>635.0</ele><time>2026-04-11T09:30:04.744Z</time></trkpt><trkpt lat="43.33416891789564" lon="11.991198311231111"><ele>635.0</ele><time>2026-04-11T09:30:05.745Z</time></trkpt><trkpt lat="43.33416473885495" lon="11.991302800141643"><ele>635.0</ele><time>2026-04-11T09:30:06.745Z</time></trkpt><trkpt lat="43.33418409126923" lon="11.991433167567065"><ele>635.0</ele><time>2026-04-11T09:30:07.745Z</time></trkpt><trkpt lat="43.33420695926815" lon="11.99157178219449"><ele>635.0</ele><time>2026-04-11T09:30:08.745Z</time></trkpt><trkpt lat="43.33424491132132" lon="11.991677003378555"><ele>635.0</ele><time>2026-04-11T09:30:09.744Z</time></trkpt><trkpt lat="43.33429430514181" lon="11.991786576250014"><ele>634.5</ele><time>2026-04-11T09:30:10.746Z</time></trkpt><trkpt lat="43.3343388346452" lon="11.991867409898415"><ele>634.0</ele><time>2026-04-11T09:30:11.745Z</time></trkpt><trkpt lat="43.334370693141615" lon="11.991944714386623"><ele>633.5</ele><time>2026-04-11T09:30:12.745Z</time></trkpt><trkpt lat="43.33439906756212" lon="11.992062203582734"><ele>633.0</ele><time>2026-04-11T09:30:13.744Z</time></trkpt><trkpt lat="43.33442628457489" lon="11.99217446078902"><ele>632.5</ele><time>2026-04-11T09:30:14.746Z</time></trkpt><trkpt lat="43.33445437557484" lon="11.992266725843901"><ele>632.0</ele><time>2026-04-11T09:30:15.744Z</time></trkpt><trkpt lat="43.33452313547329" lon="11.992395933321221"><ele>632.0</ele><time>2026-04-11T09:30:17.744Z</time></trkpt><trkpt lat="43.33456391798918" lon="11.99248190275189"><ele>632.0</ele><time>2026-04-11T09:30:18.748Z</time></trkpt><trkpt lat="43.33461362268942" lon="11.992557433581382"><ele>632.0</ele><time>2026-04-11T09:30:19.744Z</time></trkpt><trkpt lat="43.334654702830996" lon="11.99262319855307"><ele>632.0</ele><time>2026-04-11T09:30:20.745Z</time></trkpt><trkpt lat="43.33470129366152" lon="11.992764185540988"><ele>632.0</ele><time>2026-04-11T09:30:22.745Z</time></trkpt><trkpt lat="43.334689684508895" lon="11.992864441841705"><ele>632.0</ele><time>2026-04-11T09:30:23.745Z</time></trkpt><trkpt lat="43.3347405569313" lon="11.993148774201504"><ele>626.5</ele><time>2026-04-11T09:30:27.745Z</time></trkpt><trkpt lat="43.33486149414679" lon="11.993119124281428"><ele>621.0</ele><time>2026-04-11T09:30:29.735Z</time></trkpt><trkpt lat="43.3349857503798" lon="11.993111527980426"><ele>615.5</ele><time>2026-04-11T09:30:31.742Z</time></trkpt><trkpt lat="43.33509345972592" lon="11.993136521977558"><ele>610.0</ele><time>2026-04-11T09:30:33.745Z</time></trkpt><trkpt lat="43.335205182384975" lon="11.993155539998797"><ele>610.0</ele><time>2026-04-11T09:30:35.745Z</time></trkpt><trkpt lat="43.33530797466056" lon="11.993187565765318"><ele>610.0</ele><time>2026-04-11T09:30:37.744Z</time></trkpt><trkpt lat="43.335364705351466" lon="11.99325849147748"><ele>610.0</ele><time>2026-04-11T09:30:38.745Z</time></trkpt><trkpt lat="43.335420328258415" lon="11.993358332651676"><ele>610.0</ele><time>2026-04-11T09:30:39.745Z</time></trkpt><trkpt lat="43.33545660906957" lon="11.993429744197808"><ele>610.0</ele><time>2026-04-11T09:30:40.745Z</time></trkpt><trkpt lat="43.335524345690736" lon="11.993470910174771"><ele>610.0</ele><time>2026-04-11T09:30:41.747Z</time></trkpt><trkpt lat="43.33560281004426" lon="11.993477699721565"><ele>606.5</ele><time>2026-04-11T09:30:42.746Z</time></trkpt><trkpt lat="43.33567495244446" lon="11.99351810469394"><ele>603.0</ele><time>2026-04-11T09:30:43.744Z</time></trkpt><trkpt lat="43.33572949961344" lon="11.99360844594524"><ele>599.5</ele><time>2026-04-11T09:30:44.745Z</time></trkpt><trkpt lat="43.33586627392581" lon="11.993790912079149"><ele>596.0</ele><time>2026-04-11T09:30:47.745Z</time></trkpt><trkpt lat="43.335956418124894" lon="11.993881692356295"><ele>596.0</ele><time>2026-04-11T09:30:49.745Z</time></trkpt><trkpt lat="43.33600761494059" lon="11.993939203388598"><ele>596.0</ele><time>2026-04-11T09:30:50.746Z</time></trkpt><trkpt lat="43.33606747811984" lon="11.994011044839125"><ele>596.0</ele><time>2026-04-11T09:30:55.746Z</time></trkpt><trkpt lat="43.336110353322965" lon="11.994100002309093"><ele>596.0</ele><time>2026-04-11T09:33:47.744Z</time></trkpt><trkpt lat="43.33624668874002" lon="11.99409805774032"><ele>596.0</ele><time>2026-04-11T09:34:22.746Z</time></trkpt><trkpt lat="43.336456377181854" lon="11.994291498340973"><ele>596.4285714285714</ele><time>2026-04-11T09:35:16.745Z</time></trkpt><trkpt lat="43.33650102956178" lon="11.994368097574139"><ele>596.8571428571428</ele><time>2026-04-11T09:35:17.74Z</time></trkpt><trkpt lat="43.33654304311533" lon="11.994441386685043"><ele>597.2857142857142</ele><time>2026-04-11T09:35:18.744Z</time></trkpt><trkpt lat="43.33658098136901" lon="11.994511489370085"><ele>597.7142857142857</ele><time>2026-04-11T09:35:19.744Z</time></trkpt><trkpt lat="43.3366014859476" lon="11.994596081496713"><ele>598.1428571428571</ele><time>2026-04-11T09:35:20.745Z</time></trkpt><trkpt lat="43.33661937445203" lon="11.994691569412241"><ele>598.5714285714286</ele><time>2026-04-11T09:35:21.744Z</time></trkpt><trkpt lat="43.336646424452375" lon="11.994776328971174"><ele>599.0</ele><time>2026-04-11T09:35:22.745Z</time></trkpt><trkpt lat="43.33670120542651" lon="11.994835056151599"><ele>599.0</ele><time>2026-04-11T09:35:23.744Z</time></trkpt><trkpt lat="43.33675483202925" lon="11.994898516328409"><ele>599.0</ele><time>2026-04-11T09:35:24.744Z</time></trkpt><trkpt lat="43.33679963609348" lon="11.994974782292216"><ele>599.0</ele><time>2026-04-11T09:35:25.744Z</time></trkpt><trkpt lat="43.33683803587329" lon="11.995049018440971"><ele>599.0</ele><time>2026-04-11T09:35:26.745Z</time></trkpt><trkpt lat="43.33688919124016" lon="11.995159023424504"><ele>599.0</ele><time>2026-04-11T09:35:28.744Z</time></trkpt><trkpt lat="43.33696161883755" lon="11.995233960333374"><ele>599.0</ele><time>2026-04-11T09:35:30.744Z</time></trkpt><trkpt lat="43.337030691154" lon="11.995323611555312"><ele>597.0</ele><time>2026-04-11T09:35:32.745Z</time></trkpt><trkpt lat="43.337108987083106" lon="11.995395678294145"><ele>595.0</ele><time>2026-04-11T09:35:34.744Z</time></trkpt><trkpt lat="43.3372278961702" lon="11.99556968606234"><ele>593.0</ele><time>2026-04-11T09:35:39.745Z</time></trkpt><trkpt lat="43.33730447512554" lon="11.995675423489821"><ele>591.0</ele><time>2026-04-11T09:35:41.744Z</time></trkpt><trkpt lat="43.33735310953305" lon="11.995741543210418"><ele>589.0</ele><time>2026-04-11T09:35:42.745Z</time></trkpt><trkpt lat="43.33740739158321" lon="11.995796554069841"><ele>586.8</ele><time>2026-04-11T09:35:43.745Z</time></trkpt><trkpt lat="43.33746177392742" lon="11.995866742176958"><ele>584.5999999999999</ele><time>2026-04-11T09:35:44.745Z</time></trkpt><trkpt lat="43.33751823642813" lon="11.995940021400774"><ele>582.4</ele><time>2026-04-11T09:35:45.741Z</time></trkpt><trkpt lat="43.337618718161416" lon="11.996045953730038"><ele>580.1999999999999</ele><time>2026-04-11T09:35:47.744Z</time></trkpt><trkpt lat="43.337716912811764" lon="11.996148513206306"><ele>578.0</ele><time>2026-04-11T09:35:49.744Z</time></trkpt><trkpt lat="43.337804857890156" lon="11.996220234804968"><ele>578.0</ele><time>2026-04-11T09:35:51.744Z</time></trkpt><trkpt lat="43.33791624328476" lon="11.996283528839498"><ele>578.0</ele><time>2026-04-11T09:35:53.744Z</time></trkpt><trkpt lat="43.337989706041775" lon="11.996311823426677"><ele>578.0</ele><time>2026-04-11T09:35:54.746Z</time></trkpt><trkpt lat="43.338070320622485" lon="11.996343336465184"><ele>578.0</ele><time>2026-04-11T09:35:55.745Z</time></trkpt><trkpt lat="43.33821648633958" lon="11.996402000790612"><ele>578.0</ele><time>2026-04-11T09:35:59.738Z</time></trkpt><trkpt lat="43.33821587148527" lon="11.99649294230518"><ele>580.8</ele><time>2026-04-11T09:36:00.745Z</time></trkpt><trkpt lat="43.33826085412018" lon="11.99665271910713"><ele>583.5999999999999</ele><time>2026-04-11T09:36:02.744Z</time></trkpt><trkpt lat="43.33829906116" lon="11.996738071965012"><ele>586.4000000000001</ele><time>2026-04-11T09:36:03.736Z</time></trkpt><trkpt lat="43.338325859353546" lon="11.996827888897261"><ele>589.2</ele><time>2026-04-11T09:36:04.745Z</time></trkpt><trkpt lat="43.338369293970075" lon="11.996988853724119"><ele>592.0</ele><time>2026-04-11T09:36:06.745Z</time></trkpt><trkpt lat="43.338457891235116" lon="11.997116504134352"><ele>592.3333333333334</ele><time>2026-04-11T09:36:08.744Z</time></trkpt><trkpt lat="43.33854093754642" lon="11.997235161448268"><ele>592.6666666666667</ele><time>2026-04-11T09:36:10.745Z</time></trkpt><trkpt lat="43.33859250032424" lon="11.997306621316481"><ele>593.0</ele><time>2026-04-11T09:36:11.743Z</time></trkpt><trkpt lat="43.33864961715444" lon="11.997398301448694"><ele>593.3333333333334</ele><time>2026-04-11T09:36:12.744Z</time></trkpt><trkpt lat="43.338703586180124" lon="11.997465383403378"><ele>593.6666666666666</ele><time>2026-04-11T09:36:13.744Z</time></trkpt><trkpt lat="43.338764905213274" lon="11.997530062493245"><ele>594.0</ele><time>2026-04-11T09:36:14.744Z</time></trkpt><trkpt lat="43.338824685291556" lon="11.997572051207642"><ele>595.6</ele><time>2026-04-11T09:36:15.744Z</time></trkpt><trkpt lat="43.33890202200126" lon="11.997625799066116"><ele>597.2</ele><time>2026-04-11T09:36:16.744Z</time></trkpt><trkpt lat="43.33892967034797" lon="11.997813972460518"><ele>598.8000000000001</ele><time>2026-04-11T09:36:18.746Z</time></trkpt><trkpt lat="43.338956431496015" lon="11.997956971032487"><ele>600.4</ele><time>2026-04-11T09:36:20.746Z</time></trkpt><trkpt lat="43.33902844281081" lon="11.998043027648281"><ele>602.0</ele><time>2026-04-11T09:36:22.746Z</time></trkpt><trkpt lat="43.33911411290801" lon="11.998174373254235"><ele>602.0</ele><time>2026-04-11T09:36:24.746Z</time></trkpt><trkpt lat="43.33920935890667" lon="11.998264676078753"><ele>602.0</ele><time>2026-04-11T09:36:26.746Z</time></trkpt><trkpt lat="43.33928237202298" lon="11.998316358805106"><ele>602.0</ele><time>2026-04-11T09:36:27.745Z</time></trkpt><trkpt lat="43.3393368054301" lon="11.998364195072082"><ele>602.0</ele><time>2026-04-11T09:36:28.746Z</time></trkpt><trkpt lat="43.339397839604736" lon="11.998426673911466"><ele>602.0</ele><time>2026-04-11T09:36:29.745Z</time></trkpt><trkpt lat="43.339469196516056" lon="11.998523179502135"><ele>602.0</ele><time>2026-04-11T09:36:30.746Z</time></trkpt><trkpt lat="43.33951050265698" lon="11.998588739956329"><ele>600.8333333333333</ele><time>2026-04-11T09:36:31.746Z</time></trkpt><trkpt lat="43.339562350159405" lon="11.998654625086774"><ele>599.6666666666666</ele><time>2026-04-11T09:36:32.747Z</time></trkpt><trkpt lat="43.33965311397111" lon="11.998670687414714"><ele>598.5</ele><time>2026-04-11T09:36:33.739Z</time></trkpt><trkpt lat="43.33973697298528" lon="11.99870014919769"><ele>597.3333333333334</ele><time>2026-04-11T09:36:34.743Z</time></trkpt><trkpt lat="43.339813292548364" lon="11.998766984103032"><ele>596.1666666666667</ele><time>2026-04-11T09:36:35.745Z</time></trkpt><trkpt lat="43.33987908213563" lon="11.998873488841031"><ele>595.0</ele><time>2026-04-11T09:36:36.746Z</time></trkpt><trkpt lat="43.33992192456992" lon="11.998999145515084"><ele>594.2</ele><time>2026-04-11T09:36:37.744Z</time></trkpt><trkpt lat="43.33993962614233" lon="11.999215543830235"><ele>593.4</ele><time>2026-04-11T09:36:39.738Z</time></trkpt><trkpt lat="43.3400008757897" lon="11.99932261317595"><ele>592.6</ele><time>2026-04-11T09:36:41.746Z</time></trkpt><trkpt lat="43.340043396057084" lon="11.99938838162163"><ele>591.8</ele><time>2026-04-11T09:36:42.745Z</time></trkpt><trkpt lat="43.34008066896695" lon="11.999492209843849"><ele>591.0</ele><time>2026-04-11T09:36:43.744Z</time></trkpt><trkpt lat="43.34009439959678" lon="11.999593844764018"><ele>591.0</ele><time>2026-04-11T09:36:44.744Z</time></trkpt><trkpt lat="43.34008746600028" lon="11.999685724776045"><ele>591.0</ele><time>2026-04-11T09:36:45.746Z</time></trkpt><trkpt lat="43.34008078320487" lon="11.99984069683076"><ele>591.0</ele><time>2026-04-11T09:36:47.744Z</time></trkpt><trkpt lat="43.3400616817423" lon="11.999925175370283"><ele>591.0</ele><time>2026-04-11T09:36:48.745Z</time></trkpt><trkpt lat="43.34003628339015" lon="12.000087076546066"><ele>591.0</ele><time>2026-04-11T09:36:50.745Z</time></trkpt><trkpt lat="43.3400207482364" lon="12.000176727330876"><ele>591.0</ele><time>2026-04-11T09:36:51.745Z</time></trkpt><trkpt lat="43.34000324275178" lon="12.000327715388265"><ele>591.0</ele><time>2026-04-11T09:36:53.745Z</time></trkpt><trkpt lat="43.34000552076014" lon="12.000496189081503"><ele>591.0</ele><time>2026-04-11T09:36:55.745Z</time></trkpt><trkpt lat="43.340028295586166" lon="12.000613806579603"><ele>591.0</ele><time>2026-04-11T09:36:56.745Z</time></trkpt><trkpt lat="43.34004561935826" lon="12.00072532579298"><ele>591.0</ele><time>2026-04-11T09:36:57.746Z</time></trkpt><trkpt lat="43.34006220969628" lon="12.000872402525058"><ele>591.0</ele><time>2026-04-11T09:36:59.744Z</time></trkpt><trkpt lat="43.340164161087834" lon="12.001004302106589"><ele>591.4</ele><time>2026-04-11T09:37:01.745Z</time></trkpt><trkpt lat="43.34020697053259" lon="12.001158320142977"><ele>591.8</ele><time>2026-04-11T09:37:03.746Z</time></trkpt><trkpt lat="43.34024516777179" lon="12.001239566684061"><ele>592.1999999999999</ele><time>2026-04-11T09:37:04.743Z</time></trkpt><trkpt lat="43.340301915716125" lon="12.001349956007148"><ele>592.6</ele><time>2026-04-11T09:37:06.743Z</time></trkpt><trkpt lat="43.34035418210188" lon="12.001520191277432"><ele>593.0</ele><time>2026-04-11T09:37:08.743Z</time></trkpt><trkpt lat="43.34037916552838" lon="12.001615969994907"><ele>593.1999999999999</ele><time>2026-04-11T09:37:09.744Z</time></trkpt><trkpt lat="43.340413700946854" lon="12.001756687847731"><ele>593.4</ele><time>2026-04-11T09:37:11.743Z</time></trkpt><trkpt lat="43.34045941677932" lon="12.001900377842277"><ele>593.5999999999999</ele><time>2026-04-11T09:37:13.745Z</time></trkpt><trkpt lat="43.34049331268518" lon="12.00201787959966"><ele>593.8</ele><time>2026-04-11T09:37:15.745Z</time></trkpt><trkpt lat="43.34051944511767" lon="12.00212006101771"><ele>594.0</ele><time>2026-04-11T09:37:17.745Z</time></trkpt><trkpt lat="43.34054678947166" lon="12.002202020114646"><ele>591.75</ele><time>2026-04-11T09:37:19.744Z</time></trkpt><trkpt lat="43.34061214663011" lon="12.002295792970434"><ele>589.5</ele><time>2026-04-11T09:37:22.744Z</time></trkpt><trkpt lat="43.340736578123135" lon="12.002508065741571"><ele>587.25</ele><time>2026-04-11T09:37:26.735Z</time></trkpt><trkpt lat="43.34076751159216" lon="12.002620436889433"><ele>585.0</ele><time>2026-04-11T09:37:28.742Z</time></trkpt><trkpt lat="43.340807785608774" lon="12.002716365934672"><ele>585.0</ele><time>2026-04-11T09:37:30.745Z</time></trkpt><trkpt lat="43.340853177256236" lon="12.002825957289437"><ele>585.0</ele><time>2026-04-11T09:37:32.745Z</time></trkpt><trkpt lat="43.340892966497925" lon="12.002902802891734"><ele>585.0</ele><time>2026-04-11T09:37:33.746Z</time></trkpt><trkpt lat="43.34092230397042" lon="12.002980437207135"><ele>585.0</ele><time>2026-04-11T09:37:34.744Z</time></trkpt><trkpt lat="43.34096592203297" lon="12.00312822862937"><ele>585.0</ele><time>2026-04-11T09:37:36.745Z</time></trkpt><trkpt lat="43.34098264176321" lon="12.003284375501048"><ele>587.0</ele><time>2026-04-11T09:37:38.745Z</time></trkpt><trkpt lat="43.34100222939967" lon="12.003423755348043"><ele>589.0</ele><time>2026-04-11T09:37:40.746Z</time></trkpt><trkpt lat="43.34104009364232" lon="12.00354304623933"><ele>591.0</ele><time>2026-04-11T09:37:42.746Z</time></trkpt><trkpt lat="43.341094772997245" lon="12.003653777717924"><ele>593.0</ele><time>2026-04-11T09:37:44.747Z</time></trkpt><trkpt lat="43.34117378889047" lon="12.003916472822466"><ele>593.0</ele><time>2026-04-11T09:37:47.745Z</time></trkpt><trkpt lat="43.34120717596139" lon="12.004018462124375"><ele>593.0</ele><time>2026-04-11T09:37:48.745Z</time></trkpt><trkpt lat="43.34124169540091" lon="12.004122292434877"><ele>593.0</ele><time>2026-04-11T09:37:49.744Z</time></trkpt><trkpt lat="43.34128095939127" lon="12.004236917647914"><ele>593.0</ele><time>2026-04-11T09:37:50.746Z</time></trkpt><trkpt lat="43.34130340239018" lon="12.004337815339051"><ele>593.0</ele><time>2026-04-11T09:37:51.745Z</time></trkpt><trkpt lat="43.341327922381694" lon="12.004441752642306"><ele>593.0</ele><time>2026-04-11T09:37:52.745Z</time></trkpt><trkpt lat="43.341373046022284" lon="12.004533289637523"><ele>593.1999999999999</ele><time>2026-04-11T09:37:53.745Z</time></trkpt><trkpt lat="43.34144990139846" lon="12.004639457634669"><ele>593.4</ele><time>2026-04-11T09:37:55.736Z</time></trkpt><trkpt lat="43.3414945201494" lon="12.004712107699362"><ele>593.5999999999999</ele><time>2026-04-11T09:37:57.736Z</time></trkpt><trkpt lat="43.34154148478633" lon="12.004780070403125"><ele>593.8</ele><time>2026-04-11T09:38:12.744Z</time></trkpt><trkpt lat="43.341693774618214" lon="12.004959409123648"><ele>594.0</ele><time>2026-04-11T09:38:15.736Z</time></trkpt><trkpt lat="43.341758551975914" lon="12.005026289369072"><ele>596.0</ele><time>2026-04-11T09:38:16.744Z</time></trkpt><trkpt lat="43.34182629118909" lon="12.005126370962088"><ele>598.0</ele><time>2026-04-11T09:38:17.744Z</time></trkpt><trkpt lat="43.34189035355226" lon="12.005221383442125"><ele>600.0</ele><time>2026-04-11T09:38:18.748Z</time></trkpt><trkpt lat="43.34196956428015" lon="12.00531883428742"><ele>602.0</ele><time>2026-04-11T09:38:19.744Z</time></trkpt><trkpt lat="43.34205583352016" lon="12.00542794284342"><ele>604.0</ele><time>2026-04-11T09:38:20.744Z</time></trkpt><trkpt lat="43.34212539956369" lon="12.005558237496349"><ele>604.0</ele><time>2026-04-11T09:38:21.744Z</time></trkpt><trkpt lat="43.34217044848684" lon="12.005656067116076"><ele>604.0</ele><time>2026-04-11T09:38:22.738Z</time></trkpt><trkpt lat="43.34216966464044" lon="12.00575751305052"><ele>604.0</ele><time>2026-04-11T09:38:23.744Z</time></trkpt><trkpt lat="43.34214873654163" lon="12.005844828747096"><ele>604.0</ele><time>2026-04-11T09:38:24.744Z</time></trkpt><trkpt lat="43.34214162906289" lon="12.005932329475932"><ele>604.0</ele><time>2026-04-11T09:38:25.745Z</time></trkpt><trkpt lat="43.342147522594836" lon="12.006043417696812"><ele>604.0</ele><time>2026-04-11T09:38:26.745Z</time></trkpt><trkpt lat="43.34216115993681" lon="12.006190701328695"><ele>604.5</ele><time>2026-04-11T09:38:27.744Z</time></trkpt><trkpt lat="43.34216900328099" lon="12.006352967202144"><ele>605.0</ele><time>2026-04-11T09:38:28.744Z</time></trkpt><trkpt lat="43.34217916788886" lon="12.00651454494807"><ele>605.5</ele><time>2026-04-11T09:38:29.744Z</time></trkpt><trkpt lat="43.34222331630198" lon="12.006658122094676"><ele>606.0</ele><time>2026-04-11T09:38:30.744Z</time></trkpt><trkpt lat="43.3422803770873" lon="12.006792981749081"><ele>608.6666666666666</ele><time>2026-04-11T09:38:31.745Z</time></trkpt><trkpt lat="43.34234136713227" lon="12.006940410236677"><ele>611.3333333333333</ele><time>2026-04-11T09:38:32.745Z</time></trkpt><trkpt lat="43.34239180746752" lon="12.00707094121696"><ele>614.0</ele><time>2026-04-11T09:38:33.744Z</time></trkpt><trkpt lat="43.342550584100685" lon="12.00736587272188"><ele>614.0</ele><time>2026-04-11T09:38:36.745Z</time></trkpt><trkpt lat="43.34258766906769" lon="12.007468791348135"><ele>614.0</ele><time>2026-04-11T09:38:37.745Z</time></trkpt><trkpt lat="43.342708355768345" lon="12.007579459450076"><ele>614.0</ele><time>2026-04-11T09:38:39.745Z</time></trkpt><trkpt lat="43.342761156923494" lon="12.007630238808712"><ele>614.0</ele><time>2026-04-11T09:38:40.744Z</time></trkpt><trkpt lat="43.342799047373596" lon="12.007815403417938"><ele>614.0</ele><time>2026-04-11T09:38:42.745Z</time></trkpt><trkpt lat="43.34284101502834" lon="12.007935443823117"><ele>616.0</ele><time>2026-04-11T09:38:43.745Z</time></trkpt><trkpt lat="43.34290039036528" lon="12.008044730721362"><ele>618.0</ele><time>2026-04-11T09:38:44.745Z</time></trkpt><trkpt lat="43.34295383409686" lon="12.008159324766899"><ele>620.0</ele><time>2026-04-11T09:38:45.745Z</time></trkpt><trkpt lat="43.34298892717312" lon="12.008284381748092"><ele>622.0</ele><time>2026-04-11T09:38:46.745Z</time></trkpt><trkpt lat="43.34303068359098" lon="12.008439473720099"><ele>624.0</ele><time>2026-04-11T09:38:47.745Z</time></trkpt><trkpt lat="43.34308341811281" lon="12.008548011364415"><ele>625.4</ele><time>2026-04-11T09:38:48.744Z</time></trkpt><trkpt lat="43.343151982504764" lon="12.00864041597654"><ele>626.8</ele><time>2026-04-11T09:38:49.744Z</time></trkpt><trkpt lat="43.34320802621367" lon="12.00875350932576"><ele>628.2</ele><time>2026-04-11T09:38:50.744Z</time></trkpt><trkpt lat="43.34323250880338" lon="12.00888388397332"><ele>629.6</ele><time>2026-04-11T09:38:51.744Z</time></trkpt><trkpt lat="43.343232546476706" lon="12.008974844166373"><ele>631.0</ele><time>2026-04-11T09:38:52.745Z</time></trkpt><trkpt lat="43.34326998081321" lon="12.009109539528103"><ele>633.4</ele><time>2026-04-11T09:39:12.744Z</time></trkpt><trkpt lat="43.34327864235088" lon="12.009378593663719"><ele>635.8</ele><time>2026-04-11T09:39:15.744Z</time></trkpt><trkpt lat="43.34328949927724" lon="12.009469332074788"><ele>638.1999999999999</ele><time>2026-04-11T09:39:16.747Z</time></trkpt><trkpt lat="43.343309373743274" lon="12.0095591663876"><ele>640.6</ele><time>2026-04-11T09:39:17.744Z</time></trkpt><trkpt lat="43.343333007069866" lon="12.009651546954068"><ele>643.0</ele><time>2026-04-11T09:39:18.744Z</time></trkpt><trkpt lat="43.3433632000637" lon="12.009753562076682"><ele>643.0</ele><time>2026-04-11T09:39:19.737Z</time></trkpt><trkpt lat="43.34338569376587" lon="12.009858855905403"><ele>643.0</ele><time>2026-04-11T09:39:20.744Z</time></trkpt><trkpt lat="43.34341818094647" lon="12.009972641232787"><ele>643.0</ele><time>2026-04-11T09:39:21.744Z</time></trkpt><trkpt lat="43.343444399894544" lon="12.010068647561205"><ele>643.0</ele><time>2026-04-11T09:39:22.744Z</time></trkpt><trkpt lat="43.34346522391061" lon="12.010182808874225"><ele>643.0</ele><time>2026-04-11T09:39:23.744Z</time></trkpt><trkpt lat="43.343473934390055" lon="12.010309198896511"><ele>643.0</ele><time>2026-04-11T09:39:24.744Z</time></trkpt><trkpt lat="43.34347473912287" lon="12.010436296552198"><ele>643.3333333333334</ele><time>2026-04-11T09:39:25.744Z</time></trkpt><trkpt lat="43.34348750090419" lon="12.010573421133921"><ele>643.6666666666667</ele><time>2026-04-11T09:39:26.745Z</time></trkpt><trkpt lat="43.34351207279982" lon="12.010704588246883"><ele>644.0</ele><time>2026-04-11T09:39:27.745Z</time></trkpt><trkpt lat="43.343534751640185" lon="12.010809057571743"><ele>644.3333333333334</ele><time>2026-04-11T09:39:28.745Z</time></trkpt><trkpt lat="43.343569864559825" lon="12.010891791899144"><ele>644.6666666666666</ele><time>2026-04-11T09:39:29.743Z</time></trkpt><trkpt lat="43.34364308047789" lon="12.010944309531428"><ele>645.0</ele><time>2026-04-11T09:39:30.746Z</time></trkpt><trkpt lat="43.343732699279464" lon="12.010959285769372"><ele>645.0</ele><time>2026-04-11T09:39:31.745Z</time></trkpt><trkpt lat="43.34381435361869" lon="12.010930138712808"><ele>645.0</ele><time>2026-04-11T09:39:32.745Z</time></trkpt><trkpt lat="43.34388298590156" lon="12.010877874900167"><ele>645.0</ele><time>2026-04-11T09:39:33.744Z</time></trkpt><trkpt lat="43.343995239712406" lon="12.010734171709393"><ele>645.0</ele><time>2026-04-11T09:39:35.745Z</time></trkpt><trkpt lat="43.344058584672" lon="12.010678211053502"><ele>645.0</ele><time>2026-04-11T09:39:36.745Z</time></trkpt><trkpt lat="43.34412719311363" lon="12.010677608837872"><ele>645.1666666666666</ele><time>2026-04-11T09:39:37.745Z</time></trkpt><trkpt lat="43.344205663705225" lon="12.010686322799902"><ele>645.3333333333334</ele><time>2026-04-11T09:39:38.746Z</time></trkpt><trkpt lat="43.344291214650596" lon="12.010704578432634"><ele>645.5</ele><time>2026-04-11T09:39:39.736Z</time></trkpt><trkpt lat="43.34435285635699" lon="12.010742225598582"><ele>645.6666666666667</ele><time>2026-04-11T09:39:40.746Z</time></trkpt><trkpt lat="43.344433409896965" lon="12.010812665608809"><ele>645.8333333333334</ele><time>2026-04-11T09:39:41.745Z</time></trkpt><trkpt lat="43.34450697409537" lon="12.010876190037544"><ele>646.0</ele><time>2026-04-11T09:39:42.745Z</time></trkpt><trkpt lat="43.34457379919878" lon="12.010923781652926"><ele>646.0</ele><time>2026-04-11T09:39:43.745Z</time></trkpt><trkpt lat="43.34463974604752" lon="12.01093413021788"><ele>646.0</ele><time>2026-04-11T09:39:44.746Z</time></trkpt><trkpt lat="43.34469110297591" lon="12.010880308201644"><ele>646.0</ele><time>2026-04-11T09:39:45.745Z</time></trkpt><trkpt lat="43.3447791991851" lon="12.010848217823524"><ele>646.0</ele><time>2026-04-11T09:39:47.74Z</time></trkpt><trkpt lat="43.344851839734986" lon="12.010972745641324"><ele>646.0</ele><time>2026-04-11T09:39:49.745Z</time></trkpt><trkpt lat="43.34488963142573" lon="12.011061667873525"><ele>646.0</ele><time>2026-04-11T09:39:50.745Z</time></trkpt><trkpt lat="43.344935617747545" lon="12.011169251991292"><ele>642.5</ele><time>2026-04-11T09:39:51.745Z</time></trkpt><trkpt lat="43.34499744603104" lon="12.011253696975674"><ele>639.0</ele><time>2026-04-11T09:39:52.745Z</time></trkpt><trkpt lat="43.3450909819574" lon="12.011331200751362"><ele>635.5</ele><time>2026-04-11T09:39:53.741Z</time></trkpt><trkpt lat="43.345198733883386" lon="12.011411264599355"><ele>632.0</ele><time>2026-04-11T09:39:54.745Z</time></trkpt><trkpt lat="43.345318679219176" lon="12.01161155372773"><ele>630.2</ele><time>2026-04-11T09:39:56.746Z</time></trkpt><trkpt lat="43.34534657273501" lon="12.011715295982684"><ele>628.4000000000001</ele><time>2026-04-11T09:39:57.746Z</time></trkpt><trkpt lat="43.34536969047463" lon="12.01181974032987"><ele>626.5999999999999</ele><time>2026-04-11T09:39:58.744Z</time></trkpt><trkpt lat="43.34541623647554" lon="12.011913656574851"><ele>624.8</ele><time>2026-04-11T09:39:59.744Z</time></trkpt><trkpt lat="43.3454901312787" lon="12.012004515041806"><ele>623.0</ele><time>2026-04-11T09:40:00.744Z</time></trkpt><trkpt lat="43.34558276695339" lon="12.012114458339195"><ele>622.6666666666666</ele><time>2026-04-11T09:40:01.745Z</time></trkpt><trkpt lat="43.34566563756615" lon="12.012191613135696"><ele>622.3333333333333</ele><time>2026-04-11T09:40:02.746Z</time></trkpt><trkpt lat="43.34574105126874" lon="12.012226969022056"><ele>622.0</ele><time>2026-04-11T09:40:03.745Z</time></trkpt><trkpt lat="43.34579604043503" lon="12.01228339936896"><ele>621.6666666666666</ele><time>2026-04-11T09:40:04.745Z</time></trkpt><trkpt lat="43.34584609528864" lon="12.012374225703622"><ele>621.3333333333334</ele><time>2026-04-11T09:40:05.745Z</time></trkpt><trkpt lat="43.345909263045364" lon="12.01248844187428"><ele>621.0</ele><time>2026-04-11T09:40:06.745Z</time></trkpt><trkpt lat="43.34599156016532" lon="12.012586312472573"><ele>621.0</ele><time>2026-04-11T09:40:07.744Z</time></trkpt><trkpt lat="43.34608100738796" lon="12.012691181011261"><ele>621.0</ele><time>2026-04-11T09:40:08.744Z</time></trkpt><trkpt lat="43.346134890700945" lon="12.01277574287749"><ele>621.0</ele><time>2026-04-11T09:40:09.744Z</time></trkpt><trkpt lat="43.34617811199815" lon="12.01284861350022"><ele>621.0</ele><time>2026-04-11T09:40:10.744Z</time></trkpt><trkpt lat="43.34624245581325" lon="12.012916219760838"><ele>621.0</ele><time>2026-04-11T09:40:11.743Z</time></trkpt><trkpt lat="43.34634016554257" lon="12.012996758308931"><ele>621.5</ele><time>2026-04-11T09:40:12.743Z</time></trkpt><trkpt lat="43.34644345893479" lon="12.013075073764156"><ele>622.0</ele><time>2026-04-11T09:40:13.745Z</time></trkpt><trkpt lat="43.34651054143236" lon="12.013181575708852"><ele>622.5</ele><time>2026-04-11T09:40:14.746Z</time></trkpt><trkpt lat="43.346550750133794" lon="12.013270233505517"><ele>623.0</ele><time>2026-04-11T09:40:15.744Z</time></trkpt><trkpt lat="43.346589547263385" lon="12.013509366806485"><ele>623.0</ele><time>2026-04-11T09:40:17.744Z</time></trkpt><trkpt lat="43.34662565529498" lon="12.013641994359597"><ele>623.0</ele><time>2026-04-11T09:40:18.744Z</time></trkpt><trkpt lat="43.346677858457845" lon="12.013763628166435"><ele>623.0</ele><time>2026-04-11T09:40:20.744Z</time></trkpt><trkpt lat="43.34674487838329" lon="12.013859260921468"><ele>623.0</ele><time>2026-04-11T09:40:22.744Z</time></trkpt><trkpt lat="43.346813999068026" lon="12.013899285227804"><ele>623.0</ele><time>2026-04-11T09:40:23.736Z</time></trkpt><trkpt lat="43.34687916670221" lon="12.013981622797598"><ele>623.0</ele><time>2026-04-11T09:40:24.744Z</time></trkpt><trkpt lat="43.34692063648896" lon="12.014078083122898"><ele>623.0</ele><time>2026-04-11T09:40:25.745Z</time></trkpt><trkpt lat="43.34693100523357" lon="12.014184289814509"><ele>623.0</ele><time>2026-04-11T09:40:26.744Z</time></trkpt><trkpt lat="43.34697792577465" lon="12.014280694139782"><ele>623.0</ele><time>2026-04-11T09:40:29.746Z</time></trkpt><trkpt lat="43.347032250329384" lon="12.014351456723523"><ele>623.0</ele><time>2026-04-11T09:40:31.744Z</time></trkpt><trkpt lat="43.347092118217724" lon="12.01440507503434"><ele>623.0</ele><time>2026-04-11T09:40:33.744Z</time></trkpt><trkpt lat="43.347157980348385" lon="12.014391361202932"><ele>628.5</ele><time>2026-04-11T09:40:35.744Z</time></trkpt><trkpt lat="43.34726279855066" lon="12.01436128563718"><ele>634.0</ele><time>2026-04-11T09:40:37.745Z</time></trkpt><trkpt lat="43.34740913791102" lon="12.014245214281772"><ele>639.5</ele><time>2026-04-11T09:40:39.744Z</time></trkpt><trkpt lat="43.34751209295154" lon="12.014235597584488"><ele>645.0</ele><time>2026-04-11T09:40:41.736Z</time></trkpt><trkpt lat="43.34758257511672" lon="12.014241092431899"><ele>645.0</ele><time>2026-04-11T09:40:43.745Z</time></trkpt><trkpt lat="43.34764659372195" lon="12.014178215460845"><ele>645.0</ele><time>2026-04-11T09:40:46.744Z</time></trkpt><trkpt lat="43.3477151447809" lon="12.01415470440825"><ele>645.0</ele><time>2026-04-11T09:40:48.744Z</time></trkpt><trkpt lat="43.34779224701992" lon="12.014041355540579"><ele>645.0</ele><time>2026-04-11T09:40:51.744Z</time></trkpt><trkpt lat="43.347866369527175" lon="12.013952095945115"><ele>645.0</ele><time>2026-04-11T09:40:53.744Z</time></trkpt><trkpt lat="43.347947669369475" lon="12.013893249505273"><ele>640.2</ele><time>2026-04-11T09:40:55.743Z</time></trkpt><trkpt lat="43.34801848415311" lon="12.013843941297289"><ele>635.4</ele><time>2026-04-11T09:40:57.744Z</time></trkpt><trkpt lat="43.34807545395505" lon="12.013795284938364"><ele>630.6</ele><time>2026-04-11T09:40:59.737Z</time></trkpt><trkpt lat="43.34823670090362" lon="12.013731181706241"><ele>625.8</ele><time>2026-04-11T09:41:03.744Z</time></trkpt><trkpt lat="43.34832939142156" lon="12.013775635822615"><ele>621.0</ele><time>2026-04-11T09:41:05.744Z</time></trkpt><trkpt lat="43.348402604710664" lon="12.013808267303451"><ele>620.8571428571428</ele><time>2026-04-11T09:41:07.743Z</time></trkpt><trkpt lat="43.34848253093427" lon="12.013809467081693"><ele>620.7142857142857</ele><time>2026-04-11T09:41:09.744Z</time></trkpt><trkpt lat="43.34855385738983" lon="12.01382347925057"><ele>620.5714285714286</ele><time>2026-04-11T09:41:11.743Z</time></trkpt><trkpt lat="43.34862975324856" lon="12.013805961197859"><ele>620.4285714285713</ele><time>2026-04-11T09:41:13.743Z</time></trkpt><trkpt lat="43.348720147477586" lon="12.013825211490813"><ele>620.2857142857142</ele><time>2026-04-11T09:41:15.743Z</time></trkpt><trkpt lat="43.34877590428609" lon="12.013867798220234"><ele>620.1428571428571</ele><time>2026-04-11T09:41:16.745Z</time></trkpt><trkpt lat="43.34882188697188" lon="12.013931390904979"><ele>620.0</ele><time>2026-04-11T09:41:17.745Z</time></trkpt><trkpt lat="43.34882089081242" lon="12.014108211167958"><ele>624.8</ele><time>2026-04-11T09:41:19.733Z</time></trkpt><trkpt lat="43.34880327836119" lon="12.01421807688623"><ele>629.6</ele><time>2026-04-11T09:41:20.743Z</time></trkpt><trkpt lat="43.34878406111949" lon="12.01443312841961"><ele>634.4000000000001</ele><time>2026-04-11T09:41:22.733Z</time></trkpt><trkpt lat="43.34877919227347" lon="12.014582810640727"><ele>639.2</ele><time>2026-04-11T09:41:23.743Z</time></trkpt><trkpt lat="43.348785715528756" lon="12.014716156876073"><ele>644.0</ele><time>2026-04-11T09:41:24.742Z</time></trkpt><trkpt lat="43.348791112376034" lon="12.01484435038731"><ele>644.0</ele><time>2026-04-11T09:41:25.743Z</time></trkpt><trkpt lat="43.34883827762382" lon="12.01493724288547"><ele>644.0</ele><time>2026-04-11T09:41:27.732Z</time></trkpt><trkpt lat="43.34890542518564" lon="12.014980766861814"><ele>644.0</ele><time>2026-04-11T09:41:28.741Z</time></trkpt><trkpt lat="43.34900735819547" lon="12.015067847183833"><ele>644.0</ele><time>2026-04-11T09:41:30.739Z</time></trkpt><trkpt lat="43.34908247568207" lon="12.015107077654825"><ele>644.0</ele><time>2026-04-11T09:41:32.734Z</time></trkpt><trkpt lat="43.34919151995943" lon="12.015154454406165"><ele>642.3333333333333</ele><time>2026-04-11T09:41:34.745Z</time></trkpt><trkpt lat="43.349261149654694" lon="12.015156974189443"><ele>640.6666666666666</ele><time>2026-04-11T09:41:36.735Z</time></trkpt><trkpt lat="43.34934270088992" lon="12.015141628336318"><ele>639.0</ele><time>2026-04-11T09:41:38.734Z</time></trkpt><trkpt lat="43.34941677845576" lon="12.015140691432705"><ele>637.3333333333334</ele><time>2026-04-11T09:41:39.743Z</time></trkpt><trkpt lat="43.349506353450735" lon="12.01514231500119"><ele>635.6666666666667</ele><time>2026-04-11T09:41:40.744Z</time></trkpt><trkpt lat="43.34958928609898" lon="12.015167382927848"><ele>634.0</ele><time>2026-04-11T09:41:41.744Z</time></trkpt><trkpt lat="43.34980094460895" lon="12.015190693794754"><ele>633.2</ele><time>2026-04-11T09:41:43.741Z</time></trkpt><trkpt lat="43.34992317686803" lon="12.015212349133296"><ele>632.4</ele><time>2026-04-11T09:41:44.742Z</time></trkpt><trkpt lat="43.35001547752109" lon="12.015253927924636"><ele>631.6</ele><time>2026-04-11T09:41:45.742Z</time></trkpt><trkpt lat="43.35009649293822" lon="12.015303800533976"><ele>630.8</ele><time>2026-04-11T09:41:46.744Z</time></trkpt><trkpt lat="43.35016304895168" lon="12.015375104301325"><ele>630.0</ele><time>2026-04-11T09:41:47.743Z</time></trkpt><trkpt lat="43.350198926166385" lon="12.015451355886507"><ele>630.0</ele><time>2026-04-11T09:41:48.74Z</time></trkpt><trkpt lat="43.350259057240635" lon="12.015526790720074"><ele>630.0</ele><time>2026-04-11T09:41:49.733Z</time></trkpt><trkpt lat="43.350345574621365" lon="12.015569449349385"><ele>630.0</ele><time>2026-04-11T09:41:50.742Z</time></trkpt><trkpt lat="43.350450429984825" lon="12.015603349233341"><ele>630.0</ele><time>2026-04-11T09:41:51.733Z</time></trkpt><trkpt lat="43.3505613985471" lon="12.015624676204117"><ele>630.0</ele><time>2026-04-11T09:41:52.734Z</time></trkpt><trkpt lat="43.35066280988046" lon="12.015620743243911"><ele>628.8333333333334</ele><time>2026-04-11T09:41:53.733Z</time></trkpt><trkpt lat="43.35074733964018" lon="12.01555146285078"><ele>627.6666666666666</ele><time>2026-04-11T09:41:54.733Z</time></trkpt><trkpt lat="43.35084080863913" lon="12.015473228388538"><ele>626.5</ele><time>2026-04-11T09:41:55.742Z</time></trkpt><trkpt lat="43.350908433637436" lon="12.015451006572967"><ele>625.3333333333333</ele><time>2026-04-11T09:41:56.742Z</time></trkpt><trkpt lat="43.35099471724542" lon="12.015474740476796"><ele>624.1666666666666</ele><time>2026-04-11T09:41:57.743Z</time></trkpt><trkpt lat="43.35107234539279" lon="12.015518484890984"><ele>623.0</ele><time>2026-04-11T09:41:58.744Z</time></trkpt><trkpt lat="43.35114634590662" lon="12.01554062787145"><ele>623.0</ele><time>2026-04-11T09:41:59.742Z</time></trkpt><trkpt lat="43.351221925180724" lon="12.01555096084856"><ele>623.0</ele><time>2026-04-11T09:42:00.744Z</time></trkpt><trkpt lat="43.351333085907534" lon="12.015537326935402"><ele>623.0</ele><time>2026-04-11T09:42:02.735Z</time></trkpt><trkpt lat="43.351539620960295" lon="12.015443409724012"><ele>623.0</ele><time>2026-04-11T09:42:06.739Z</time></trkpt><trkpt lat="43.351600015700456" lon="12.0154058746686"><ele>621.5</ele><time>2026-04-11T09:42:07.743Z</time></trkpt><trkpt lat="43.35165005810052" lon="12.015343032311103"><ele>620.0</ele><time>2026-04-11T09:42:08.744Z</time></trkpt><trkpt lat="43.35173198234905" lon="12.015269687587875"><ele>618.5</ele><time>2026-04-11T09:42:10.745Z</time></trkpt><trkpt lat="43.351808535696826" lon="12.015281207522047"><ele>617.0</ele><time>2026-04-11T09:42:13.735Z</time></trkpt><trkpt lat="43.351822454039834" lon="12.015378564660923"><ele>615.5</ele><time>2026-04-11T09:42:22.735Z</time></trkpt><trkpt lat="43.351761457560116" lon="12.015487035648533"><ele>614.0</ele><time>2026-04-11T09:42:25.743Z</time></trkpt><trkpt lat="43.35174534680045" lon="12.015749217074855"><ele>615.8</ele><time>2026-04-11T09:42:29.735Z</time></trkpt><trkpt lat="43.35175451771241" lon="12.015916377181291"><ele>617.5999999999999</ele><time>2026-04-11T09:42:31.743Z</time></trkpt><trkpt lat="43.351757079416934" lon="12.016080494506914"><ele>619.4</ele><time>2026-04-11T09:42:33.744Z</time></trkpt><trkpt lat="43.35177187000555" lon="12.016181368639003"><ele>621.1999999999999</ele><time>2026-04-11T09:42:34.744Z</time></trkpt><trkpt lat="43.351773162786195" lon="12.016315084920986"><ele>623.0</ele><time>2026-04-11T09:42:35.744Z</time></trkpt><trkpt lat="43.35177497511373" lon="12.016453075753395"><ele>623.0</ele><time>2026-04-11T09:42:36.743Z</time></trkpt><trkpt lat="43.351768853727314" lon="12.016565681288789"><ele>623.0</ele><time>2026-04-11T09:42:37.742Z</time></trkpt><trkpt lat="43.35174971090049" lon="12.0166747044777"><ele>623.0</ele><time>2026-04-11T09:42:38.744Z</time></trkpt><trkpt lat="43.35173994611254" lon="12.016800460875261"><ele>623.0</ele><time>2026-04-11T09:42:39.734Z</time></trkpt><trkpt lat="43.35176259150576" lon="12.016893782191016"><ele>623.0</ele><time>2026-04-11T09:42:40.743Z</time></trkpt><trkpt lat="43.351819082373424" lon="12.016976528979566"><ele>623.0</ele><time>2026-04-11T09:42:41.742Z</time></trkpt><trkpt lat="43.351887757478586" lon="12.017096025665936"><ele>625.0</ele><time>2026-04-11T09:42:42.737Z</time></trkpt><trkpt lat="43.35191707770577" lon="12.01721248937374"><ele>627.0</ele><time>2026-04-11T09:42:43.743Z</time></trkpt><trkpt lat="43.35193375183538" lon="12.017343828022403"><ele>629.0</ele><time>2026-04-11T09:42:44.735Z</time></trkpt><trkpt lat="43.35193574773006" lon="12.017486648946942"><ele>631.0</ele><time>2026-04-11T09:42:45.743Z</time></trkpt><trkpt lat="43.35194879939851" lon="12.017623550221007"><ele>633.0</ele><time>2026-04-11T09:42:46.734Z</time></trkpt><trkpt lat="43.35200761103315" lon="12.017857709717376"><ele>634.1999999999999</ele><time>2026-04-11T09:42:48.736Z</time></trkpt><trkpt lat="43.35206157018934" lon="12.017974368530183"><ele>635.4</ele><time>2026-04-11T09:42:50.737Z</time></trkpt><trkpt lat="43.35212996439074" lon="12.018000712203655"><ele>636.5999999999999</ele><time>2026-04-11T09:42:52.737Z</time></trkpt><trkpt lat="43.35218337352803" lon="12.018046877876861"><ele>637.8</ele><time>2026-04-11T09:43:08.736Z</time></trkpt><trkpt lat="43.35232546038989" lon="12.018158766183468"><ele>639.0</ele><time>2026-04-11T09:43:13.733Z</time></trkpt><trkpt lat="43.35244224853214" lon="12.018241501138386"><ele>638.6666666666666</ele><time>2026-04-11T09:43:15.743Z</time></trkpt><trkpt lat="43.35251970310241" lon="12.01827357255059"><ele>638.3333333333334</ele><time>2026-04-11T09:43:16.744Z</time></trkpt><trkpt lat="43.35261285579712" lon="12.018320980252092"><ele>638.0</ele><time>2026-04-11T09:43:17.743Z</time></trkpt><trkpt lat="43.352665115673695" lon="12.018400995337588"><ele>637.6666666666667</ele><time>2026-04-11T09:43:18.744Z</time></trkpt><trkpt lat="43.35272180772945" lon="12.018485886536926"><ele>637.3333333333334</ele><time>2026-04-11T09:43:19.743Z</time></trkpt><trkpt lat="43.352762198397365" lon="12.01856923460957"><ele>637.0</ele><time>2026-04-11T09:43:20.745Z</time></trkpt><trkpt lat="43.35279534603574" lon="12.01865779365704"><ele>637.0</ele><time>2026-04-11T09:43:21.743Z</time></trkpt><trkpt lat="43.35282461027691" lon="12.01876500535604"><ele>637.0</ele><time>2026-04-11T09:43:22.744Z</time></trkpt><trkpt lat="43.35285924407828" lon="12.01886778533833"><ele>637.0</ele><time>2026-04-11T09:43:23.744Z</time></trkpt><trkpt lat="43.35290599227189" lon="12.018958223644042"><ele>637.0</ele><time>2026-04-11T09:43:24.744Z</time></trkpt><trkpt lat="43.352944965463934" lon="12.019053391998781"><ele>637.0</ele><time>2026-04-11T09:43:25.743Z</time></trkpt><trkpt lat="43.35298202746755" lon="12.01915407510593"><ele>637.0</ele><time>2026-04-11T09:43:26.745Z</time></trkpt><trkpt lat="43.3530233984941" lon="12.019278483751487"><ele>632.6666666666667</ele><time>2026-04-11T09:43:27.744Z</time></trkpt><trkpt lat="43.35308512450851" lon="12.019431507237234"><ele>628.3333333333334</ele><time>2026-04-11T09:43:28.744Z</time></trkpt><trkpt lat="43.35313989740797" lon="12.019570991595964"><ele>624.0</ele><time>2026-04-11T09:43:29.744Z</time></trkpt><trkpt lat="43.35327405969886" lon="12.019877124808506"><ele>625.4</ele><time>2026-04-11T09:43:31.745Z</time></trkpt><trkpt lat="43.35333649539447" lon="12.020022098233389"><ele>626.8</ele><time>2026-04-11T09:43:32.744Z</time></trkpt><trkpt lat="43.3534030759115" lon="12.020130394572124"><ele>628.2</ele><time>2026-04-11T09:43:33.743Z</time></trkpt><trkpt lat="43.35347010279598" lon="12.020229163686054"><ele>629.6</ele><time>2026-04-11T09:43:34.745Z</time></trkpt><trkpt lat="43.35354430579037" lon="12.020348342900464"><ele>631.0</ele><time>2026-04-11T09:43:35.743Z</time></trkpt><trkpt lat="43.35361099851702" lon="12.020457416798576"><ele>631.0</ele><time>2026-04-11T09:43:36.743Z</time></trkpt><trkpt lat="43.35370218915966" lon="12.020553004831347"><ele>631.0</ele><time>2026-04-11T09:43:37.743Z</time></trkpt><trkpt lat="43.353801903148444" lon="12.020606047081639"><ele>631.0</ele><time>2026-04-11T09:43:38.744Z</time></trkpt><trkpt lat="43.353915576790975" lon="12.020638370563253"><ele>631.0</ele><time>2026-04-11T09:43:39.742Z</time></trkpt><trkpt lat="43.35400474315766" lon="12.02066058906603"><ele>631.0</ele><time>2026-04-11T09:43:40.743Z</time></trkpt><trkpt lat="43.35410947795674" lon="12.02072686098429"><ele>631.4</ele><time>2026-04-11T09:43:41.743Z</time></trkpt><trkpt lat="43.35421791854362" lon="12.020793430315615"><ele>631.8</ele><time>2026-04-11T09:43:42.745Z</time></trkpt><trkpt lat="43.354304956850086" lon="12.020852782497178"><ele>632.1999999999999</ele><time>2026-04-11T09:43:43.743Z</time></trkpt><trkpt lat="43.35437936421686" lon="12.02089774966077"><ele>632.6</ele><time>2026-04-11T09:43:44.744Z</time></trkpt><trkpt lat="43.35447077502797" lon="12.020951477658597"><ele>633.0</ele><time>2026-04-11T09:43:45.743Z</time></trkpt><trkpt lat="43.354566333357184" lon="12.02101963080595"><ele>633.0</ele><time>2026-04-11T09:43:46.745Z</time></trkpt><trkpt lat="43.35466399632788" lon="12.021078150527575"><ele>633.0</ele><time>2026-04-11T09:43:47.745Z</time></trkpt><trkpt lat="43.35476005645751" lon="12.021129036422437"><ele>633.0</ele><time>2026-04-11T09:43:48.735Z</time></trkpt><trkpt lat="43.35486092376809" lon="12.021176544025066"><ele>633.0</ele><time>2026-04-11T09:43:49.741Z</time></trkpt><trkpt lat="43.35496384560725" lon="12.021202089881522"><ele>633.0</ele><time>2026-04-11T09:43:50.745Z</time></trkpt><trkpt lat="43.355148108305094" lon="12.021165151642384"><ele>632.4</ele><time>2026-04-11T09:43:52.736Z</time></trkpt><trkpt lat="43.35523269571586" lon="12.021089100908565"><ele>631.8</ele><time>2026-04-11T09:43:53.742Z</time></trkpt><trkpt lat="43.3553092942608" lon="12.021019303080477"><ele>631.2</ele><time>2026-04-11T09:43:54.745Z</time></trkpt><trkpt lat="43.35537329520098" lon="12.020947592644417"><ele>630.6</ele><time>2026-04-11T09:43:55.744Z</time></trkpt><trkpt lat="43.35541577312562" lon="12.020856420163344"><ele>630.0</ele><time>2026-04-11T09:43:56.744Z</time></trkpt><trkpt lat="43.35546916872194" lon="12.02072405152326"><ele>632.4</ele><time>2026-04-11T09:43:57.735Z</time></trkpt><trkpt lat="43.35553064089756" lon="12.020568190653819"><ele>634.8</ele><time>2026-04-11T09:43:58.735Z</time></trkpt><trkpt lat="43.355564643138585" lon="12.020428804092381"><ele>637.2</ele><time>2026-04-11T09:43:59.743Z</time></trkpt><trkpt lat="43.355607311652655" lon="12.020303995463955"><ele>639.6</ele><time>2026-04-11T09:44:00.743Z</time></trkpt><trkpt lat="43.3556513393346" lon="12.020186295654966"><ele>642.0</ele><time>2026-04-11T09:44:01.742Z</time></trkpt><trkpt lat="43.35570585221146" lon="12.020056915716074"><ele>640.2</ele><time>2026-04-11T09:44:02.745Z</time></trkpt><trkpt lat="43.355769876750244" lon="12.01993390437939"><ele>638.4000000000001</ele><time>2026-04-11T09:44:03.734Z</time></trkpt><trkpt lat="43.355815584049445" lon="12.019791369591747"><ele>636.5999999999999</ele><time>2026-04-11T09:44:04.735Z</time></trkpt><trkpt lat="43.35584858240952" lon="12.019648733782038"><ele>634.8</ele><time>2026-04-11T09:44:05.734Z</time></trkpt><trkpt lat="43.35588225218939" lon="12.01951674096609"><ele>633.0</ele><time>2026-04-11T09:44:06.735Z</time></trkpt><trkpt lat="43.355925757398445" lon="12.019392914825776"><ele>633.0</ele><time>2026-04-11T09:44:07.74Z</time></trkpt><trkpt lat="43.355970048998266" lon="12.019274230544937"><ele>633.0</ele><time>2026-04-11T09:44:08.735Z</time></trkpt><trkpt lat="43.35602020626838" lon="12.019150998401148"><ele>633.0</ele><time>2026-04-11T09:44:09.743Z</time></trkpt><trkpt lat="43.35607792429587" lon="12.019039536641673"><ele>633.0</ele><time>2026-04-11T09:44:10.734Z</time></trkpt><trkpt lat="43.35615086295082" lon="12.01896534079972"><ele>633.0</ele><time>2026-04-11T09:44:11.734Z</time></trkpt><trkpt lat="43.356284765739154" lon="12.018876833042873"><ele>630.6666666666666</ele><time>2026-04-11T09:44:13.734Z</time></trkpt><trkpt lat="43.356363847107644" lon="12.018850710004644"><ele>628.3333333333334</ele><time>2026-04-11T09:44:14.743Z</time></trkpt><trkpt lat="43.356450389185014" lon="12.018825731094614"><ele>626.0</ele><time>2026-04-11T09:44:15.743Z</time></trkpt><trkpt lat="43.35652419807288" lon="12.018795618047996"><ele>623.6666666666667</ele><time>2026-04-11T09:44:16.743Z</time></trkpt><trkpt lat="43.35660037653146" lon="12.018783802440016"><ele>621.3333333333334</ele><time>2026-04-11T09:44:17.742Z</time></trkpt><trkpt lat="43.356679064458966" lon="12.018783919848078"><ele>619.0</ele><time>2026-04-11T09:44:18.745Z</time></trkpt><trkpt lat="43.35674337647767" lon="12.018792589101087"><ele>619.0</ele><time>2026-04-11T09:44:19.736Z</time></trkpt><trkpt lat="43.356820246053886" lon="12.018808483005138"><ele>619.0</ele><time>2026-04-11T09:44:20.743Z</time></trkpt><trkpt lat="43.356897356450226" lon="12.01881370312391"><ele>619.0</ele><time>2026-04-11T09:44:21.742Z</time></trkpt><trkpt lat="43.35696149310416" lon="12.018830618559624"><ele>619.0</ele><time>2026-04-11T09:44:22.744Z</time></trkpt><trkpt lat="43.357088256541864" lon="12.01885398468968"><ele>619.0</ele><time>2026-04-11T09:44:24.744Z</time></trkpt><trkpt lat="43.35718218630758" lon="12.018902372758662"><ele>619.0</ele><time>2026-04-11T09:44:26.735Z</time></trkpt><trkpt lat="43.35723894373705" lon="12.019062746834399"><ele>619.6</ele><time>2026-04-11T09:44:28.743Z</time></trkpt><trkpt lat="43.35725392524909" lon="12.01918915977845"><ele>620.2</ele><time>2026-04-11T09:44:29.742Z</time></trkpt><trkpt lat="43.357256832836136" lon="12.019316713920581"><ele>620.8000000000001</ele><time>2026-04-11T09:44:30.744Z</time></trkpt><trkpt lat="43.35729600690197" lon="12.019410687688586"><ele>621.4</ele><time>2026-04-11T09:44:31.742Z</time></trkpt><trkpt lat="43.357364126350625" lon="12.019534677289043"><ele>622.0</ele><time>2026-04-11T09:44:32.743Z</time></trkpt><trkpt lat="43.35753867684279" lon="12.019771133727307"><ele>622.0</ele><time>2026-04-11T09:44:34.743Z</time></trkpt><trkpt lat="43.35763643097559" lon="12.019861486902458"><ele>622.0</ele><time>2026-04-11T09:44:35.742Z</time></trkpt><trkpt lat="43.357721237356756" lon="12.019963733334205"><ele>622.0</ele><time>2026-04-11T09:44:36.743Z</time></trkpt><trkpt lat="43.35779197045469" lon="12.020070122395259"><ele>622.0</ele><time>2026-04-11T09:44:37.742Z</time></trkpt><trkpt lat="43.35787891382245" lon="12.020177934881813"><ele>623.0</ele><time>2026-04-11T09:44:38.742Z</time></trkpt><trkpt lat="43.35794726262638" lon="12.020260660719044"><ele>624.0</ele><time>2026-04-11T09:44:39.733Z</time></trkpt><trkpt lat="43.35800726745952" lon="12.02030661802884"><ele>625.0</ele><time>2026-04-11T09:44:40.743Z</time></trkpt><trkpt lat="43.35807282795431" lon="12.02030492029639"><ele>626.0</ele><time>2026-04-11T09:44:41.733Z</time></trkpt><trkpt lat="43.35816915648054" lon="12.02026670537168"><ele>627.0</ele><time>2026-04-11T09:44:42.734Z</time></trkpt><trkpt lat="43.35826065593176" lon="12.020207842024698"><ele>628.0</ele><time>2026-04-11T09:44:43.734Z</time></trkpt><trkpt lat="43.35833203070776" lon="12.020134781099594"><ele>628.0</ele><time>2026-04-11T09:44:44.743Z</time></trkpt><trkpt lat="43.35839458008658" lon="12.0200949727626"><ele>628.0</ele><time>2026-04-11T09:44:45.743Z</time></trkpt><trkpt lat="43.35844386584971" lon="12.020180158126328"><ele>628.0</ele><time>2026-04-11T09:44:47.743Z</time></trkpt><trkpt lat="43.3584664685732" lon="12.020283991379685"><ele>628.0</ele><time>2026-04-11T09:44:48.743Z</time></trkpt><trkpt lat="43.35850959281871" lon="12.020397998076849"><ele>628.0</ele><time>2026-04-11T09:44:49.743Z</time></trkpt><trkpt lat="43.35859390701013" lon="12.020446106544298"><ele>628.0</ele><time>2026-04-11T09:44:51.741Z</time></trkpt><trkpt lat="43.35866510217394" lon="12.02045079210705"><ele>628.0</ele><time>2026-04-11T09:44:53.733Z</time></trkpt><trkpt lat="43.35882392282754" lon="12.020478240844662"><ele>628.0</ele><time>2026-04-11T09:44:55.732Z</time></trkpt><trkpt lat="43.358901880372294" lon="12.020460475966129"><ele>628.0</ele><time>2026-04-11T09:44:56.737Z</time></trkpt><trkpt lat="43.35896467446954" lon="12.020429827555965"><ele>628.0</ele><time>2026-04-11T09:44:57.734Z</time></trkpt><trkpt lat="43.35901997642861" lon="12.020364359169086"><ele>628.0</ele><time>2026-04-11T09:44:58.74Z</time></trkpt><trkpt lat="43.35908495950658" lon="12.020340922665962"><ele>628.0</ele><time>2026-04-11T09:44:59.743Z</time></trkpt><trkpt lat="43.35915777896577" lon="12.020381805762248"><ele>626.0</ele><time>2026-04-11T09:45:00.742Z</time></trkpt><trkpt lat="43.35920291463746" lon="12.02046476876306"><ele>624.0</ele><time>2026-04-11T09:45:01.735Z</time></trkpt><trkpt lat="43.3592586659326" lon="12.020576927074847"><ele>622.0</ele><time>2026-04-11T09:45:02.743Z</time></trkpt><trkpt lat="43.359321143142445" lon="12.020691091505775"><ele>620.0</ele><time>2026-04-11T09:45:03.743Z</time></trkpt><trkpt lat="43.35940137182333" lon="12.020801569312393"><ele>618.0</ele><time>2026-04-11T09:45:04.742Z</time></trkpt><trkpt lat="43.359478609303316" lon="12.020911716206365"><ele>621.3333333333334</ele><time>2026-04-11T09:45:05.74Z</time></trkpt><trkpt lat="43.35953184086957" lon="12.02099105338327"><ele>624.6666666666666</ele><time>2026-04-11T09:45:06.741Z</time></trkpt><trkpt lat="43.359576141307095" lon="12.021058456540294"><ele>628.0</ele><time>2026-04-11T09:45:07.741Z</time></trkpt><trkpt lat="43.35967384533395" lon="12.021083740634152"><ele>631.3333333333333</ele><time>2026-04-11T09:45:09.733Z</time></trkpt><trkpt lat="43.35973575273299" lon="12.021060578893694"><ele>634.6666666666666</ele><time>2026-04-11T09:45:10.732Z</time></trkpt><trkpt lat="43.3597901305118" lon="12.021008043909147"><ele>638.0</ele><time>2026-04-11T09:45:11.733Z</time></trkpt><trkpt lat="43.35984693382996" lon="12.020915702374063"><ele>638.0</ele><time>2026-04-11T09:45:12.732Z</time></trkpt><trkpt lat="43.359903391305224" lon="12.020832228880302"><ele>638.0</ele><time>2026-04-11T09:45:13.741Z</time></trkpt><trkpt lat="43.35994589338888" lon="12.020754320905228"><ele>638.0</ele><time>2026-04-11T09:45:14.736Z</time></trkpt><trkpt lat="43.360046810549264" lon="12.02059238375873"><ele>638.0</ele><time>2026-04-11T09:45:16.743Z</time></trkpt><trkpt lat="43.36011636074356" lon="12.020544396903183"><ele>638.0</ele><time>2026-04-11T09:45:17.743Z</time></trkpt><trkpt lat="43.360187201109596" lon="12.020539611544887"><ele>638.0</ele><time>2026-04-11T09:45:18.735Z</time></trkpt><trkpt lat="43.36024885186792" lon="12.02059354747349"><ele>638.0</ele><time>2026-04-11T09:45:19.746Z</time></trkpt><trkpt lat="43.36027625828076" lon="12.02068336689625"><ele>638.0</ele><time>2026-04-11T09:45:20.743Z</time></trkpt><trkpt lat="43.36030935320834" lon="12.020797385391154"><ele>638.0</ele><time>2026-04-11T09:45:21.743Z</time></trkpt><trkpt lat="43.36032398451125" lon="12.020916982526035"><ele>638.0</ele><time>2026-04-11T09:45:22.745Z</time></trkpt><trkpt lat="43.36036159371543" lon="12.021032509939323"><ele>638.0</ele><time>2026-04-11T09:45:23.743Z</time></trkpt><trkpt lat="43.360414056086235" lon="12.021119490734904"><ele>638.0</ele><time>2026-04-11T09:45:24.743Z</time></trkpt><trkpt lat="43.360480012286736" lon="12.021201976874712"><ele>638.0</ele><time>2026-04-11T09:45:25.742Z</time></trkpt><trkpt lat="43.36056070266514" lon="12.021297352878134"><ele>638.0</ele><time>2026-04-11T09:45:26.744Z</time></trkpt><trkpt lat="43.36062415031395" lon="12.021409591028442"><ele>638.0</ele><time>2026-04-11T09:45:27.743Z</time></trkpt><trkpt lat="43.36068906558802" lon="12.021528657470725"><ele>638.0</ele><time>2026-04-11T09:45:28.743Z</time></trkpt><trkpt lat="43.360757310655636" lon="12.02164994990476"><ele>639.0</ele><time>2026-04-11T09:45:29.742Z</time></trkpt><trkpt lat="43.36079082690969" lon="12.02179828815857"><ele>640.0</ele><time>2026-04-11T09:45:30.744Z</time></trkpt><trkpt lat="43.36081908186602" lon="12.021925193494452"><ele>641.0</ele><time>2026-04-11T09:45:31.743Z</time></trkpt><trkpt lat="43.36086832657187" lon="12.021999900887293"><ele>642.0</ele><time>2026-04-11T09:45:32.741Z</time></trkpt><trkpt lat="43.36093581568277" lon="12.022072765764564"><ele>643.0</ele><time>2026-04-11T09:45:33.742Z</time></trkpt><trkpt lat="43.36102670579797" lon="12.022131419030476"><ele>643.0</ele><time>2026-04-11T09:45:34.744Z</time></trkpt><trkpt lat="43.36109257738675" lon="12.022210080528598"><ele>643.0</ele><time>2026-04-11T09:45:35.743Z</time></trkpt><trkpt lat="43.361226626645475" lon="12.022360839721161"><ele>643.0</ele><time>2026-04-11T09:45:37.744Z</time></trkpt><trkpt lat="43.36133371219605" lon="12.02240805294199"><ele>643.0</ele><time>2026-04-11T09:45:38.745Z</time></trkpt><trkpt lat="43.3614562582928" lon="12.022462202520435"><ele>643.2</ele><time>2026-04-11T09:45:39.743Z</time></trkpt><trkpt lat="43.361543750035445" lon="12.022538616282507"><ele>643.4</ele><time>2026-04-11T09:45:40.744Z</time></trkpt><trkpt lat="43.361609527621624" lon="12.022599618382012"><ele>643.6</ele><time>2026-04-11T09:45:41.744Z</time></trkpt><trkpt lat="43.36174771193375" lon="12.02261597091113"><ele>643.8000000000001</ele><time>2026-04-11T09:45:43.742Z</time></trkpt><trkpt lat="43.361836087317634" lon="12.0225565025622"><ele>644.0</ele><time>2026-04-11T09:45:44.743Z</time></trkpt><trkpt lat="43.361933460502556" lon="12.022498431582608"><ele>641.5</ele><time>2026-04-11T09:45:45.743Z</time></trkpt><trkpt lat="43.36205908127858" lon="12.022449372331348"><ele>639.0</ele><time>2026-04-11T09:45:46.743Z</time></trkpt><trkpt lat="43.362174258608185" lon="12.022408151166012"><ele>636.5</ele><time>2026-04-11T09:45:47.744Z</time></trkpt><trkpt lat="43.36229683012662" lon="12.022371537711198"><ele>634.0</ele><time>2026-04-11T09:45:48.743Z</time></trkpt><trkpt lat="43.36239799360023" lon="12.022342589063914"><ele>634.0</ele><time>2026-04-11T09:45:49.743Z</time></trkpt><trkpt lat="43.36247386268514" lon="12.022300137262205"><ele>634.0</ele><time>2026-04-11T09:45:50.742Z</time></trkpt><trkpt lat="43.362556305840556" lon="12.022220432551087"><ele>634.0</ele><time>2026-04-11T09:45:51.742Z</time></trkpt><trkpt lat="43.36263572044508" lon="12.022147522880841"><ele>634.0</ele><time>2026-04-11T09:45:52.743Z</time></trkpt><trkpt lat="43.36271857790711" lon="12.0220968911993"><ele>634.0</ele><time>2026-04-11T09:45:53.743Z</time></trkpt><trkpt lat="43.362794336093614" lon="12.02206237626055"><ele>634.0</ele><time>2026-04-11T09:45:54.744Z</time></trkpt><trkpt lat="43.3628838558201" lon="12.022048694577958"><ele>634.0</ele><time>2026-04-11T09:45:55.743Z</time></trkpt><trkpt lat="43.36297950889162" lon="12.022049035387475"><ele>634.0</ele><time>2026-04-11T09:45:56.743Z</time></trkpt><trkpt lat="43.36317966416276" lon="12.022046632503562"><ele>634.0</ele><time>2026-04-11T09:45:58.734Z</time></trkpt><trkpt lat="43.363259447062305" lon="12.021975997173673"><ele>634.0</ele><time>2026-04-11T09:45:59.736Z</time></trkpt><trkpt lat="43.36334750640629" lon="12.021907110505417"><ele>634.2</ele><time>2026-04-11T09:46:00.743Z</time></trkpt><trkpt lat="43.363443674711775" lon="12.021869483759765"><ele>634.4</ele><time>2026-04-11T09:46:01.743Z</time></trkpt><trkpt lat="43.363536326453136" lon="12.021872850073095"><ele>634.6</ele><time>2026-04-11T09:46:02.744Z</time></trkpt><trkpt lat="43.36365200871509" lon="12.021880022730622"><ele>634.8</ele><time>2026-04-11T09:46:03.743Z</time></trkpt><trkpt lat="43.363771858169265" lon="12.021916715635012"><ele>635.0</ele><time>2026-04-11T09:46:04.743Z</time></trkpt><trkpt lat="43.36386427708284" lon="12.021949155784808"><ele>635.0</ele><time>2026-04-11T09:46:05.741Z</time></trkpt><trkpt lat="43.363960863808295" lon="12.02199229593915"><ele>635.0</ele><time>2026-04-11T09:46:06.742Z</time></trkpt><trkpt lat="43.36406114193597" lon="12.022049204318328"><ele>635.0</ele><time>2026-04-11T09:46:07.743Z</time></trkpt><trkpt lat="43.364164642117345" lon="12.022103069647986"><ele>635.0</ele><time>2026-04-11T09:46:08.739Z</time></trkpt><trkpt lat="43.364239942001795" lon="12.022180426487258"><ele>635.0</ele><time>2026-04-11T09:46:09.743Z</time></trkpt><trkpt lat="43.364304848647215" lon="12.022245455428477"><ele>635.0</ele><time>2026-04-11T09:46:10.743Z</time></trkpt><trkpt lat="43.36436471073235" lon="12.02230003404529"><ele>635.0</ele><time>2026-04-11T09:46:11.743Z</time></trkpt><trkpt lat="43.36445129664904" lon="12.022368023687642"><ele>635.0</ele><time>2026-04-11T09:46:13.743Z</time></trkpt><trkpt lat="43.364532294397655" lon="12.02240833553746"><ele>635.0</ele><time>2026-04-11T09:46:29.742Z</time></trkpt><trkpt lat="43.36472620920949" lon="12.0224716484756"><ele>634.8</ele><time>2026-04-11T09:46:32.743Z</time></trkpt><trkpt lat="43.36482446074749" lon="12.022498228238636"><ele>634.6</ele><time>2026-04-11T09:46:33.737Z</time></trkpt><trkpt lat="43.364911258093365" lon="12.022482771086223"><ele>634.4</ele><time>2026-04-11T09:46:34.735Z</time></trkpt><trkpt lat="43.36500297631276" lon="12.022449221501441"><ele>634.2</ele><time>2026-04-11T09:46:35.743Z</time></trkpt><trkpt lat="43.36509216462027" lon="12.022435003834266"><ele>634.0</ele><time>2026-04-11T09:46:36.744Z</time></trkpt><trkpt lat="43.365187393222214" lon="12.022424045021053"><ele>634.0</ele><time>2026-04-11T09:46:37.743Z</time></trkpt><trkpt lat="43.36526709348112" lon="12.02241230821025"><ele>634.0</ele><time>2026-04-11T09:46:38.732Z</time></trkpt><trkpt lat="43.3653472664489" lon="12.022402893989232"><ele>634.0</ele><time>2026-04-11T09:46:39.742Z</time></trkpt><trkpt lat="43.36543048355753" lon="12.02240488560972"><ele>634.0</ele><time>2026-04-11T09:46:40.744Z</time></trkpt><trkpt lat="43.36550410479245" lon="12.022424185365969"><ele>634.0</ele><time>2026-04-11T09:46:41.743Z</time></trkpt><trkpt lat="43.365588313037755" lon="12.022426728106321"><ele>634.0</ele><time>2026-04-11T09:46:42.744Z</time></trkpt><trkpt lat="43.365681321403336" lon="12.022421216551573"><ele>634.6</ele><time>2026-04-11T09:46:43.743Z</time></trkpt><trkpt lat="43.36578422754427" lon="12.022401085763422"><ele>635.2</ele><time>2026-04-11T09:46:44.734Z</time></trkpt><trkpt lat="43.365875265118696" lon="12.022396924578128"><ele>635.8000000000001</ele><time>2026-04-11T09:46:45.743Z</time></trkpt><trkpt lat="43.36594489470303" lon="12.022412329323185"><ele>636.4</ele><time>2026-04-11T09:46:46.743Z</time></trkpt><trkpt lat="43.3660637124709" lon="12.022485263482924"><ele>637.0</ele><time>2026-04-11T09:46:48.743Z</time></trkpt><trkpt lat="43.366137386086635" lon="12.022545683546227"><ele>641.25</ele><time>2026-04-11T09:46:49.743Z</time></trkpt><trkpt lat="43.36622755274686" lon="12.02259301512486"><ele>645.5</ele><time>2026-04-11T09:46:50.744Z</time></trkpt><trkpt lat="43.366415872391" lon="12.022634947842615"><ele>649.75</ele><time>2026-04-11T09:46:52.744Z</time></trkpt><trkpt lat="43.366531131588694" lon="12.022602219771478"><ele>654.0</ele><time>2026-04-11T09:46:53.744Z</time></trkpt><trkpt lat="43.36664051280796" lon="12.02256108470501"><ele>653.2</ele><time>2026-04-11T09:46:54.745Z</time></trkpt><trkpt lat="43.366749635270985" lon="12.022496184749656"><ele>652.4000000000001</ele><time>2026-04-11T09:46:55.743Z</time></trkpt><trkpt lat="43.36685768352897" lon="12.022432163172827"><ele>651.6</ele><time>2026-04-11T09:46:56.745Z</time></trkpt><trkpt lat="43.36693793763266" lon="12.022384471085106"><ele>650.8</ele><time>2026-04-11T09:46:57.741Z</time></trkpt><trkpt lat="43.366989946844214" lon="12.022313708661244"><ele>650.0</ele><time>2026-04-11T09:46:58.743Z</time></trkpt><trkpt lat="43.367060365019476" lon="12.022167224312282"><ele>650.0</ele><time>2026-04-11T09:47:00.743Z</time></trkpt><trkpt lat="43.367108064644874" lon="12.022097777930364"><ele>650.0</ele><time>2026-04-11T09:47:01.742Z</time></trkpt><trkpt lat="43.367167533782215" lon="12.022012446356173"><ele>650.0</ele><time>2026-04-11T09:47:02.735Z</time></trkpt><trkpt lat="43.367223387478184" lon="12.021943953456281"><ele>650.0</ele><time>2026-04-11T09:47:03.744Z</time></trkpt><trkpt lat="43.367307157871174" lon="12.021895194962802"><ele>650.0</ele><time>2026-04-11T09:47:05.742Z</time></trkpt><trkpt lat="43.367417419345074" lon="12.021907672158973"><ele>650.0</ele><time>2026-04-11T09:47:07.741Z</time></trkpt><trkpt lat="43.36748241673558" lon="12.021898402925132"><ele>653.8333333333333</ele><time>2026-04-11T09:47:08.744Z</time></trkpt><trkpt lat="43.36755161693711" lon="12.021896609486546"><ele>657.6666666666666</ele><time>2026-04-11T09:47:09.743Z</time></trkpt><trkpt lat="43.36762761951692" lon="12.021887912241557"><ele>661.5</ele><time>2026-04-11T09:47:10.744Z</time></trkpt><trkpt lat="43.36769910543463" lon="12.021862843006982"><ele>665.3333333333334</ele><time>2026-04-11T09:47:11.743Z</time></trkpt><trkpt lat="43.367841961410896" lon="12.021846866287113"><ele>669.1666666666667</ele><time>2026-04-11T09:47:13.744Z</time></trkpt><trkpt lat="43.36792430086858" lon="12.021838992460088"><ele>673.0</ele><time>2026-04-11T09:47:14.744Z</time></trkpt><trkpt lat="43.36800590796674" lon="12.021843314668144"><ele>674.3333333333334</ele><time>2026-04-11T09:47:15.744Z</time></trkpt><trkpt lat="43.36809363357153" lon="12.021879189656365"><ele>675.6666666666667</ele><time>2026-04-11T09:47:16.745Z</time></trkpt><trkpt lat="43.36814944778671" lon="12.021920436461913"><ele>677.0</ele><time>2026-04-11T09:47:17.743Z</time></trkpt><trkpt lat="43.368261505939174" lon="12.021933249526478"><ele>678.3333333333334</ele><time>2026-04-11T09:47:19.745Z</time></trkpt><trkpt lat="43.368330385256485" lon="12.021911067827741"><ele>679.6666666666666</ele><time>2026-04-11T09:47:20.747Z</time></trkpt><trkpt lat="43.36840323430312" lon="12.0218969474128"><ele>681.0</ele><time>2026-04-11T09:47:21.745Z</time></trkpt><trkpt lat="43.36846477487131" lon="12.021870464058148"><ele>681.0</ele><time>2026-04-11T09:47:22.746Z</time></trkpt><trkpt lat="43.36856367479416" lon="12.021806962108727"><ele>681.0</ele><time>2026-04-11T09:47:23.745Z</time></trkpt><trkpt lat="43.36865655563347" lon="12.021747926499586"><ele>681.0</ele><time>2026-04-11T09:47:24.744Z</time></trkpt><trkpt lat="43.368732296532194" lon="12.021681590599155"><ele>681.0</ele><time>2026-04-11T09:47:25.744Z</time></trkpt><trkpt lat="43.368793098222646" lon="12.021647224194712"><ele>681.0</ele><time>2026-04-11T09:47:26.744Z</time></trkpt><trkpt lat="43.368873660605296" lon="12.021627630898598"><ele>681.0</ele><time>2026-04-11T09:47:28.744Z</time></trkpt><trkpt lat="43.36886487781696" lon="12.021524879460104"><ele>681.5999999999999</ele><time>2026-04-11T09:47:32.744Z</time></trkpt><trkpt lat="43.36895886307814" lon="12.02134878365544"><ele>682.2</ele><time>2026-04-11T09:47:41.743Z</time></trkpt><trkpt lat="43.369032221302795" lon="12.021242315331898"><ele>682.8</ele><time>2026-04-11T09:47:43.743Z</time></trkpt><trkpt lat="43.36907756412015" lon="12.02118212604809"><ele>683.4000000000001</ele><time>2026-04-11T09:47:44.743Z</time></trkpt><trkpt lat="43.369132085742514" lon="12.021128669228794"><ele>684.0</ele><time>2026-04-11T09:47:45.743Z</time></trkpt><trkpt lat="43.36919887074299" lon="12.021102142154646"><ele>684.0</ele><time>2026-04-11T09:47:46.744Z</time></trkpt><trkpt lat="43.36927054019329" lon="12.021084244948526"><ele>684.0</ele><time>2026-04-11T09:47:47.743Z</time></trkpt><trkpt lat="43.36934164091843" lon="12.021086129442905"><ele>684.0</ele><time>2026-04-11T09:47:48.744Z</time></trkpt><trkpt lat="43.36941655709719" lon="12.021050348539234"><ele>684.0</ele><time>2026-04-11T09:47:49.744Z</time></trkpt><trkpt lat="43.36947633304636" lon="12.020981637004494"><ele>684.0</ele><time>2026-04-11T09:47:50.745Z</time></trkpt><trkpt lat="43.36952874947913" lon="12.020894883984818"><ele>684.0</ele><time>2026-04-11T09:47:51.744Z</time></trkpt><trkpt lat="43.36959318698589" lon="12.020808646113947"><ele>685.25</ele><time>2026-04-11T09:47:52.745Z</time></trkpt><trkpt lat="43.36967132235864" lon="12.02074126811901"><ele>686.5</ele><time>2026-04-11T09:47:53.743Z</time></trkpt><trkpt lat="43.36985004179184" lon="12.020620713247922"><ele>687.75</ele><time>2026-04-11T09:47:55.743Z</time></trkpt><trkpt lat="43.36993605211683" lon="12.020566586968325"><ele>689.0</ele><time>2026-04-11T09:47:56.743Z</time></trkpt><trkpt lat="43.37000443834871" lon="12.020537137834706"><ele>689.0</ele><time>2026-04-11T09:47:57.742Z</time></trkpt><trkpt lat="43.370073948004666" lon="12.020516019485276"><ele>689.0</ele><time>2026-04-11T09:48:00.743Z</time></trkpt><trkpt lat="43.37012838122677" lon="12.020466614314572"><ele>689.0</ele><time>2026-04-11T09:48:03.742Z</time></trkpt><trkpt lat="43.37020710467794" lon="12.020392966410714"><ele>689.0</ele><time>2026-04-11T09:48:05.743Z</time></trkpt><trkpt lat="43.3702691767413" lon="12.020348728815746"><ele>689.0</ele><time>2026-04-11T09:48:06.744Z</time></trkpt><trkpt lat="43.3703328679398" lon="12.020328891578808"><ele>689.0</ele><time>2026-04-11T09:48:07.744Z</time></trkpt><trkpt lat="43.37040153454248" lon="12.02026177937982"><ele>689.0</ele><time>2026-04-11T09:48:09.736Z</time></trkpt><trkpt lat="43.37046698413467" lon="12.02021676415528"><ele>689.0</ele><time>2026-04-11T09:48:10.743Z</time></trkpt><trkpt lat="43.37054819479419" lon="12.020169316558643"><ele>689.0</ele><time>2026-04-11T09:48:11.742Z</time></trkpt><trkpt lat="43.370644965467584" lon="12.020127327228112"><ele>689.0</ele><time>2026-04-11T09:48:12.743Z</time></trkpt><trkpt lat="43.37073759911006" lon="12.020071942176703"><ele>689.0</ele><time>2026-04-11T09:48:13.736Z</time></trkpt><trkpt lat="43.37083876445865" lon="12.020001199341225"><ele>690.0</ele><time>2026-04-11T09:48:14.743Z</time></trkpt><trkpt lat="43.37104473216083" lon="12.019902700687926"><ele>691.0</ele><time>2026-04-11T09:48:16.742Z</time></trkpt><trkpt lat="43.37113921444417" lon="12.0198373335907"><ele>692.0</ele><time>2026-04-11T09:48:17.742Z</time></trkpt><trkpt lat="43.371220891456055" lon="12.019792722359274"><ele>693.0</ele><time>2026-04-11T09:48:18.741Z</time></trkpt><trkpt lat="43.37130592295964" lon="12.019716612009793"><ele>696.1666666666666</ele><time>2026-04-11T09:48:19.743Z</time></trkpt><trkpt lat="43.37138411002773" lon="12.019636906692043"><ele>699.3333333333334</ele><time>2026-04-11T09:48:20.743Z</time></trkpt><trkpt lat="43.37144535198752" lon="12.019612939338483"><ele>702.5</ele><time>2026-04-11T09:48:21.743Z</time></trkpt><trkpt lat="43.37155746423121" lon="12.019554668188997"><ele>705.6666666666667</ele><time>2026-04-11T09:48:23.743Z</time></trkpt><trkpt lat="43.37160871445338" lon="12.019492734669841"><ele>708.8333333333334</ele><time>2026-04-11T09:48:24.742Z</time></trkpt><trkpt lat="43.371653620264745" lon="12.019400749268309"><ele>712.0</ele><time>2026-04-11T09:48:25.742Z</time></trkpt><trkpt lat="43.37170532259336" lon="12.01933581665567"><ele>712.0</ele><time>2026-04-11T09:48:26.744Z</time></trkpt><trkpt lat="43.37175994042907" lon="12.01926628056652"><ele>712.0</ele><time>2026-04-11T09:48:27.742Z</time></trkpt><trkpt lat="43.37183007164478" lon="12.01920450391657"><ele>712.0</ele><time>2026-04-11T09:48:28.734Z</time></trkpt><trkpt lat="43.37194047004158" lon="12.019134804942274"><ele>712.0</ele><time>2026-04-11T09:48:29.734Z</time></trkpt><trkpt lat="43.37205978515291" lon="12.019061701002178"><ele>712.0</ele><time>2026-04-11T09:48:30.744Z</time></trkpt><trkpt lat="43.372159634924216" lon="12.019001112594234"><ele>712.25</ele><time>2026-04-11T09:48:31.742Z</time></trkpt><trkpt lat="43.372233668452346" lon="12.018954510536693"><ele>712.5</ele><time>2026-04-11T09:48:32.744Z</time></trkpt><trkpt lat="43.372292278633616" lon="12.018887644192718"><ele>712.75</ele><time>2026-04-11T09:48:34.742Z</time></trkpt><trkpt lat="43.37239044275511" lon="12.018772233857991"><ele>713.0</ele><time>2026-04-11T09:48:37.743Z</time></trkpt><trkpt lat="43.37254662234248" lon="12.018674261999102"><ele>713.0</ele><time>2026-04-11T09:48:39.743Z</time></trkpt><trkpt lat="43.372623577607335" lon="12.018614060751352"><ele>713.0</ele><time>2026-04-11T09:48:40.743Z</time></trkpt><trkpt lat="43.372706271843626" lon="12.018491453750828"><ele>713.0</ele><time>2026-04-11T09:48:41.742Z</time></trkpt><trkpt lat="43.372811986300526" lon="12.018344899028348"><ele>713.0</ele><time>2026-04-11T09:48:42.743Z</time></trkpt><trkpt lat="43.37292124561575" lon="12.018209773614835"><ele>711.5999999999999</ele><time>2026-04-11T09:48:43.735Z</time></trkpt><trkpt lat="43.373007213930684" lon="12.018099646735912"><ele>710.1999999999999</ele><time>2026-04-11T09:48:44.734Z</time></trkpt><trkpt lat="43.37306535773818" lon="12.018011650205457"><ele>708.8</ele><time>2026-04-11T09:48:45.734Z</time></trkpt><trkpt lat="43.373124369220434" lon="12.017954193932967"><ele>707.4</ele><time>2026-04-11T09:48:46.743Z</time></trkpt><trkpt lat="43.37320678022703" lon="12.017934950027808"><ele>706.0</ele><time>2026-04-11T09:48:47.743Z</time></trkpt><trkpt lat="43.373313858133415" lon="12.017922134984662"><ele>710.5999999999999</ele><time>2026-04-11T09:48:48.742Z</time></trkpt><trkpt lat="43.3734126215672" lon="12.017878754210235"><ele>715.2</ele><time>2026-04-11T09:48:49.742Z</time></trkpt><trkpt lat="43.37347862922762" lon="12.017829295646077"><ele>719.8</ele><time>2026-04-11T09:48:50.744Z</time></trkpt><trkpt lat="43.37352855330524" lon="12.017770140424325"><ele>724.4000000000001</ele><time>2026-04-11T09:48:51.742Z</time></trkpt><trkpt lat="43.37364906698805" lon="12.017725324071156"><ele>729.0</ele><time>2026-04-11T09:48:53.743Z</time></trkpt><trkpt lat="43.373760559459875" lon="12.017680341995268"><ele>729.0</ele><time>2026-04-11T09:48:55.743Z</time></trkpt><trkpt lat="43.3738361095603" lon="12.017653841280287"><ele>729.0</ele><time>2026-04-11T09:48:56.742Z</time></trkpt><trkpt lat="43.373928873317155" lon="12.017628233850752"><ele>729.0</ele><time>2026-04-11T09:48:57.743Z</time></trkpt><trkpt lat="43.37399610869196" lon="12.017603962071757"><ele>729.0</ele><time>2026-04-11T09:48:58.742Z</time></trkpt><trkpt lat="43.37413136904567" lon="12.017532934391646"><ele>729.0</ele><time>2026-04-11T09:49:00.742Z</time></trkpt><trkpt lat="43.374201724719626" lon="12.017497518059152"><ele>730.4000000000001</ele><time>2026-04-11T09:49:01.742Z</time></trkpt><trkpt lat="43.37433366015988" lon="12.017445934710574"><ele>731.8</ele><time>2026-04-11T09:49:03.734Z</time></trkpt><trkpt lat="43.37441071215413" lon="12.017393242957471"><ele>733.2</ele><time>2026-04-11T09:49:04.734Z</time></trkpt><trkpt lat="43.37449703580267" lon="12.017337795130295"><ele>734.5999999999999</ele><time>2026-04-11T09:49:05.743Z</time></trkpt><trkpt lat="43.37457277294941" lon="12.017291087059487"><ele>736.0</ele><time>2026-04-11T09:49:06.743Z</time></trkpt><trkpt lat="43.3746522705703" lon="12.01724008469272"><ele>739.25</ele><time>2026-04-11T09:49:07.742Z</time></trkpt><trkpt lat="43.37472517584443" lon="12.017219030687219"><ele>742.5</ele><time>2026-04-11T09:49:09.742Z</time></trkpt><trkpt lat="43.37478853839146" lon="12.017269742473397"><ele>745.75</ele><time>2026-04-11T09:49:36.744Z</time></trkpt><trkpt lat="43.37476797395399" lon="12.017572021778287"><ele>749.0</ele><time>2026-04-11T09:49:40.735Z</time></trkpt><trkpt lat="43.37477698085789" lon="12.017723413096235"><ele>751.1666666666666</ele><time>2026-04-11T09:49:42.735Z</time></trkpt><trkpt lat="43.37481717846234" lon="12.017819230123179"><ele>753.3333333333333</ele><time>2026-04-11T09:49:44.744Z</time></trkpt><trkpt lat="43.37494887056482" lon="12.017843529116673"><ele>755.5</ele><time>2026-04-11T09:49:46.744Z</time></trkpt><trkpt lat="43.375020239759536" lon="12.01781926383488"><ele>757.6666666666666</ele><time>2026-04-11T09:49:47.734Z</time></trkpt><trkpt lat="43.3750986160415" lon="12.017814215454534"><ele>759.8333333333334</ele><time>2026-04-11T09:49:48.735Z</time></trkpt><trkpt lat="43.37517976547331" lon="12.017823392036016"><ele>762.0</ele><time>2026-04-11T09:49:49.735Z</time></trkpt><trkpt lat="43.37525349714029" lon="12.01785137400298"><ele>762.0</ele><time>2026-04-11T09:49:50.744Z</time></trkpt><trkpt lat="43.375330210502405" lon="12.017900182674719"><ele>762.0</ele><time>2026-04-11T09:49:51.744Z</time></trkpt><trkpt lat="43.375414181106336" lon="12.017975651554952"><ele>762.0</ele><time>2026-04-11T09:49:52.743Z</time></trkpt><trkpt lat="43.3755181776957" lon="12.018052913892417"><ele>762.0</ele><time>2026-04-11T09:49:53.735Z</time></trkpt><trkpt lat="43.375630880322184" lon="12.018114822769917"><ele>762.0</ele><time>2026-04-11T09:49:54.744Z</time></trkpt><trkpt lat="43.375748769359966" lon="12.018188744640767"><ele>761.0</ele><time>2026-04-11T09:49:55.744Z</time></trkpt><trkpt lat="43.37587175644123" lon="12.018270418444004"><ele>760.0</ele><time>2026-04-11T09:49:56.743Z</time></trkpt><trkpt lat="43.375988919411704" lon="12.018337186323881"><ele>759.0</ele><time>2026-04-11T09:49:57.735Z</time></trkpt><trkpt lat="43.376228735395216" lon="12.0185188562506"><ele>764.0</ele><time>2026-04-11T09:49:59.743Z</time></trkpt><trkpt lat="43.37636141127547" lon="12.018616447242682"><ele>769.0</ele><time>2026-04-11T09:50:00.745Z</time></trkpt><trkpt lat="43.3765086692248" lon="12.0187244737685"><ele>774.0</ele><time>2026-04-11T09:50:01.743Z</time></trkpt><trkpt lat="43.37667706594498" lon="12.018845045936178"><ele>774.0</ele><time>2026-04-11T09:50:02.745Z</time></trkpt><trkpt lat="43.37683511132441" lon="12.018985568352537"><ele>774.0</ele><time>2026-04-11T09:50:03.744Z</time></trkpt><trkpt lat="43.37695089606109" lon="12.019087212212325"><ele>774.0</ele><time>2026-04-11T09:50:04.744Z</time></trkpt><trkpt lat="43.37704665020491" lon="12.01915532134657"><ele>774.0</ele><time>2026-04-11T09:50:05.743Z</time></trkpt><trkpt lat="43.37714461292075" lon="12.019176587040397"><ele>777.2</ele><time>2026-04-11T09:50:06.745Z</time></trkpt><trkpt lat="43.37725634047099" lon="12.019209006052343"><ele>780.4000000000001</ele><time>2026-04-11T09:50:07.742Z</time></trkpt><trkpt lat="43.37735741344616" lon="12.019271490544714"><ele>783.6</ele><time>2026-04-11T09:50:08.744Z</time></trkpt><trkpt lat="43.37743883437841" lon="12.019345733409537"><ele>786.8</ele><time>2026-04-11T09:50:09.743Z</time></trkpt><trkpt lat="43.37751777879485" lon="12.019451316165428"><ele>790.0</ele><time>2026-04-11T09:50:10.743Z</time></trkpt><trkpt lat="43.3776007292404" lon="12.019566898410428"><ele>790.0</ele><time>2026-04-11T09:50:11.743Z</time></trkpt><trkpt lat="43.37769223343881" lon="12.019693845202156"><ele>790.0</ele><time>2026-04-11T09:50:12.744Z</time></trkpt><trkpt lat="43.377774521892874" lon="12.019818713325787"><ele>790.0</ele><time>2026-04-11T09:50:13.742Z</time></trkpt><trkpt lat="43.37786210876495" lon="12.019961613120357"><ele>790.0</ele><time>2026-04-11T09:50:14.744Z</time></trkpt><trkpt lat="43.377935604400555" lon="12.020118617713141"><ele>792.3333333333333</ele><time>2026-04-11T09:50:15.742Z</time></trkpt><trkpt lat="43.378015981924825" lon="12.020292008644839"><ele>794.6666666666667</ele><time>2026-04-11T09:50:16.744Z</time></trkpt><trkpt lat="43.37810615352637" lon="12.020481207211047"><ele>797.0</ele><time>2026-04-11T09:50:17.743Z</time></trkpt><trkpt lat="43.37820008739179" lon="12.020659448914865"><ele>798.6666666666667</ele><time>2026-04-11T09:50:18.744Z</time></trkpt><trkpt lat="43.378336176949894" lon="12.020974781087078"><ele>800.3333333333333</ele><time>2026-04-11T09:50:20.744Z</time></trkpt><trkpt lat="43.37837388106922" lon="12.021131685444272"><ele>802.0</ele><time>2026-04-11T09:50:21.735Z</time></trkpt><trkpt lat="43.37840302593678" lon="12.021298002424716"><ele>802.0</ele><time>2026-04-11T09:50:22.744Z</time></trkpt><trkpt lat="43.37844553075148" lon="12.02147372036161"><ele>802.0</ele><time>2026-04-11T09:50:23.734Z</time></trkpt><trkpt lat="43.37851792530044" lon="12.021607172268501"><ele>802.0</ele><time>2026-04-11T09:50:24.735Z</time></trkpt><trkpt lat="43.378594435767916" lon="12.02170472094158"><ele>802.0</ele><time>2026-04-11T09:50:25.734Z</time></trkpt><trkpt lat="43.378661184583905" lon="12.02178304488173"><ele>802.0</ele><time>2026-04-11T09:50:26.735Z</time></trkpt><trkpt lat="43.37872043434297" lon="12.021855682070402"><ele>801.8</ele><time>2026-04-11T09:50:27.743Z</time></trkpt><trkpt lat="43.378771918126034" lon="12.021921303100724"><ele>801.6</ele><time>2026-04-11T09:50:28.738Z</time></trkpt><trkpt lat="43.37885142022469" lon="12.022018362507257"><ele>801.4</ele><time>2026-04-11T09:50:30.742Z</time></trkpt><trkpt lat="43.37892838177437" lon="12.022094424825998"><ele>801.1999999999999</ele><time>2026-04-11T09:50:32.743Z</time></trkpt><trkpt lat="43.37902925717686" lon="12.02219145685518"><ele>801.0</ele><time>2026-04-11T09:50:34.742Z</time></trkpt><trkpt lat="43.379091351854996" lon="12.02225141212042"><ele>802.5999999999999</ele><time>2026-04-11T09:50:35.742Z</time></trkpt><trkpt lat="43.379143622791986" lon="12.022319211474967"><ele>804.2</ele><time>2026-04-11T09:50:36.742Z</time></trkpt><trkpt lat="43.379202071829724" lon="12.022381906573827"><ele>805.8</ele><time>2026-04-11T09:50:37.743Z</time></trkpt><trkpt lat="43.37926712853167" lon="12.0224562777621"><ele>807.4000000000001</ele><time>2026-04-11T09:50:38.742Z</time></trkpt><trkpt lat="43.379325500322274" lon="12.022550837831663"><ele>809.0</ele><time>2026-04-11T09:50:39.742Z</time></trkpt><trkpt lat="43.37943969994453" lon="12.022764385366083"><ele>809.0000000000001</ele><time>2026-04-11T09:50:41.732Z</time></trkpt><trkpt lat="43.37947947275855" lon="12.022876155165978"><ele>809.0</ele><time>2026-04-11T09:50:42.734Z</time></trkpt><trkpt lat="43.379517183347374" lon="12.022979760746159"><ele>809.0</ele><time>2026-04-11T09:50:43.733Z</time></trkpt><trkpt lat="43.37955548309752" lon="12.023085033950178"><ele>809.0</ele><time>2026-04-11T09:50:44.734Z</time></trkpt><trkpt lat="43.37959861580737" lon="12.023182914315301"><ele>809.0000000000001</ele><time>2026-04-11T09:50:45.734Z</time></trkpt><trkpt lat="43.3796227753654" lon="12.023266586287116"><ele>809.0</ele><time>2026-04-11T09:50:46.732Z</time></trkpt><trkpt lat="43.379655985738395" lon="12.023369206856211"><ele>810.6666666666667</ele><time>2026-04-11T09:50:47.732Z</time></trkpt><trkpt lat="43.37968088964899" lon="12.023459421740553"><ele>812.3333333333334</ele><time>2026-04-11T09:50:48.733Z</time></trkpt><trkpt lat="43.379718950504326" lon="12.023557292913885"><ele>814.0</ele><time>2026-04-11T09:50:49.742Z</time></trkpt><trkpt lat="43.37978001892421" lon="12.02364380879684"><ele>815.6666666666667</ele><time>2026-04-11T09:50:50.742Z</time></trkpt><trkpt lat="43.37985610633736" lon="12.023711710658885"><ele>817.3333333333334</ele><time>2026-04-11T09:50:51.733Z</time></trkpt><trkpt lat="43.37995091879814" lon="12.02376975034921"><ele>819.0</ele><time>2026-04-11T09:50:52.733Z</time></trkpt><trkpt lat="43.380045244291566" lon="12.023824647151212"><ele>818.0</ele><time>2026-04-11T09:50:53.742Z</time></trkpt><trkpt lat="43.380122565551616" lon="12.02390144804371"><ele>817.0</ele><time>2026-04-11T09:50:54.734Z</time></trkpt><trkpt lat="43.38019109039281" lon="12.024001455251584"><ele>816.0</ele><time>2026-04-11T09:50:55.742Z</time></trkpt><trkpt lat="43.38025934729477" lon="12.02411701939577"><ele>815.0</ele><time>2026-04-11T09:50:56.734Z</time></trkpt><trkpt lat="43.38032895267689" lon="12.024241108076405"><ele>814.0</ele><time>2026-04-11T09:50:57.734Z</time></trkpt><trkpt lat="43.38037473090247" lon="12.024382377811941"><ele>814.0</ele><time>2026-04-11T09:50:58.733Z</time></trkpt><trkpt lat="43.38040924657268" lon="12.024529896930028"><ele>814.0</ele><time>2026-04-11T09:50:59.732Z</time></trkpt><trkpt lat="43.3804252343239" lon="12.024655588651834"><ele>814.0</ele><time>2026-04-11T09:51:00.741Z</time></trkpt><trkpt lat="43.38046945976083" lon="12.024852587293827"><ele>814.0</ele><time>2026-04-11T09:51:02.742Z</time></trkpt><trkpt lat="43.38050447965934" lon="12.02493709731414"><ele>814.0</ele><time>2026-04-11T09:51:03.742Z</time></trkpt><trkpt lat="43.380564066024" lon="12.024977794393743"><ele>811.2</ele><time>2026-04-11T09:51:04.732Z</time></trkpt><trkpt lat="43.38065865490704" lon="12.024973205331287"><ele>808.4000000000001</ele><time>2026-04-11T09:51:05.733Z</time></trkpt><trkpt lat="43.380748894710216" lon="12.024913554020367"><ele>805.6</ele><time>2026-04-11T09:51:06.732Z</time></trkpt><trkpt lat="43.38081217456699" lon="12.024812395875834"><ele>802.8</ele><time>2026-04-11T09:51:07.734Z</time></trkpt><trkpt lat="43.38085069510032" lon="12.024689292809413"><ele>800.0</ele><time>2026-04-11T09:51:08.732Z</time></trkpt><trkpt lat="43.38088103988977" lon="12.024535777069513"><ele>800.0</ele><time>2026-04-11T09:51:09.733Z</time></trkpt><trkpt lat="43.380943809684865" lon="12.024388611449174"><ele>800.0</ele><time>2026-04-11T09:51:10.734Z</time></trkpt><trkpt lat="43.3810195995302" lon="12.024223946802064"><ele>800.0</ele><time>2026-04-11T09:51:11.742Z</time></trkpt><trkpt lat="43.3811125721814" lon="12.024116314764386"><ele>800.0</ele><time>2026-04-11T09:51:12.744Z</time></trkpt><trkpt lat="43.38122679043367" lon="12.024027645918396"><ele>798.0</ele><time>2026-04-11T09:51:13.743Z</time></trkpt><trkpt lat="43.381354279742276" lon="12.023959505722882"><ele>796.0</ele><time>2026-04-11T09:51:14.734Z</time></trkpt><trkpt lat="43.38148634385114" lon="12.023915740954529"><ele>794.0</ele><time>2026-04-11T09:51:15.734Z</time></trkpt><trkpt lat="43.38161263440874" lon="12.023896861771698"><ele>792.0</ele><time>2026-04-11T09:51:16.744Z</time></trkpt><trkpt lat="43.381713662115786" lon="12.023919862302883"><ele>792.0</ele><time>2026-04-11T09:51:17.74Z</time></trkpt><trkpt lat="43.38185280063151" lon="12.023968428915547"><ele>792.0</ele><time>2026-04-11T09:51:18.744Z</time></trkpt><trkpt lat="43.38197436851654" lon="12.024035485527982"><ele>792.0</ele><time>2026-04-11T09:51:19.737Z</time></trkpt><trkpt lat="43.382091026025606" lon="12.024130608074211"><ele>792.0</ele><time>2026-04-11T09:51:20.744Z</time></trkpt><trkpt lat="43.382189977344865" lon="12.024237193684124"><ele>793.0</ele><time>2026-04-11T09:51:21.743Z</time></trkpt><trkpt lat="43.382321015208326" lon="12.024592597750495"><ele>794.0</ele><time>2026-04-11T09:51:23.743Z</time></trkpt><trkpt lat="43.38238287715628" lon="12.024792462407701"><ele>795.0</ele><time>2026-04-11T09:51:24.743Z</time></trkpt><trkpt lat="43.38245572351643" lon="12.024993659146634"><ele>801.0</ele><time>2026-04-11T09:51:25.741Z</time></trkpt><trkpt lat="43.382535045049295" lon="12.025199838228941"><ele>807.0</ele><time>2026-04-11T09:51:26.734Z</time></trkpt><trkpt lat="43.38261124918875" lon="12.02539763247747"><ele>813.0</ele><time>2026-04-11T09:51:27.732Z</time></trkpt><trkpt lat="43.38269612200142" lon="12.02560886787358"><ele>813.0</ele><time>2026-04-11T09:51:28.733Z</time></trkpt><trkpt lat="43.38278314797557" lon="12.025808369315946"><ele>813.0</ele><time>2026-04-11T09:51:29.732Z</time></trkpt><trkpt lat="43.38285052906756" lon="12.025968835605683"><ele>813.0</ele><time>2026-04-11T09:51:30.732Z</time></trkpt><trkpt lat="43.3829211626745" lon="12.026082008981113"><ele>813.0</ele><time>2026-04-11T09:51:31.731Z</time></trkpt><trkpt lat="43.383007588730756" lon="12.026159870264209"><ele>814.0</ele><time>2026-04-11T09:51:32.732Z</time></trkpt><trkpt lat="43.3831091481339" lon="12.026228909390882"><ele>815.0</ele><time>2026-04-11T09:51:33.731Z</time></trkpt><trkpt lat="43.38323362373407" lon="12.026285127167764"><ele>816.0</ele><time>2026-04-11T09:51:34.733Z</time></trkpt><trkpt lat="43.38332453345804" lon="12.02633631777442"><ele>817.0</ele><time>2026-04-11T09:51:35.736Z</time></trkpt><trkpt lat="43.38340104179024" lon="12.026375556246691"><ele>818.0</ele><time>2026-04-11T09:51:36.733Z</time></trkpt><trkpt lat="43.3834903784976" lon="12.026374843540042"><ele>818.0</ele><time>2026-04-11T09:51:37.733Z</time></trkpt><trkpt lat="43.38356222415745" lon="12.026322470489019"><ele>818.0</ele><time>2026-04-11T09:51:38.729Z</time></trkpt><trkpt lat="43.38359910040677" lon="12.026230037014551"><ele>818.0</ele><time>2026-04-11T09:51:39.734Z</time></trkpt><trkpt lat="43.38361996827992" lon="12.02609570688357"><ele>818.0</ele><time>2026-04-11T09:51:40.734Z</time></trkpt><trkpt lat="43.38362599044795" lon="12.02593126529757"><ele>818.0</ele><time>2026-04-11T09:51:41.733Z</time></trkpt><trkpt lat="43.38364657391629" lon="12.025753818762237"><ele>815.3333333333334</ele><time>2026-04-11T09:51:42.734Z</time></trkpt><trkpt lat="43.38373460600073" lon="12.025395148104607"><ele>812.6666666666667</ele><time>2026-04-11T09:51:44.734Z</time></trkpt><trkpt lat="43.38381456973015" lon="12.025195647903521"><ele>810.0</ele><time>2026-04-11T09:51:45.743Z</time></trkpt><trkpt lat="43.3838842183842" lon="12.024981229726038"><ele>810.6</ele><time>2026-04-11T09:51:46.743Z</time></trkpt><trkpt lat="43.383944419459574" lon="12.024805385168989"><ele>811.2</ele><time>2026-04-11T09:51:47.741Z</time></trkpt><trkpt lat="43.3840032973032" lon="12.024681533066168"><ele>811.8</ele><time>2026-04-11T09:51:48.743Z</time></trkpt><trkpt lat="43.38407758950298" lon="12.024599584346735"><ele>812.4</ele><time>2026-04-11T09:51:49.742Z</time></trkpt><trkpt lat="43.38416329111414" lon="12.024565631361506"><ele>813.0</ele><time>2026-04-11T09:51:50.735Z</time></trkpt><trkpt lat="43.3842557741484" lon="12.024583354644962"><ele>813.0</ele><time>2026-04-11T09:51:51.734Z</time></trkpt><trkpt lat="43.384370340042565" lon="12.024616786597205"><ele>813.0</ele><time>2026-04-11T09:51:52.734Z</time></trkpt><trkpt lat="43.384491802325684" lon="12.024659560819055"><ele>813.0</ele><time>2026-04-11T09:51:53.74Z</time></trkpt><trkpt lat="43.38463163679952" lon="12.024696943700114"><ele>813.0</ele><time>2026-04-11T09:51:54.743Z</time></trkpt><trkpt lat="43.38475389301756" lon="12.024723596103518"><ele>814.0</ele><time>2026-04-11T09:51:55.742Z</time></trkpt><trkpt lat="43.38486340930484" lon="12.02474249333357"><ele>815.0</ele><time>2026-04-11T09:51:56.734Z</time></trkpt><trkpt lat="43.38496249353367" lon="12.02474484827385"><ele>816.0</ele><time>2026-04-11T09:51:57.733Z</time></trkpt><trkpt lat="43.38504941228495" lon="12.024742796944459"><ele>817.0</ele><time>2026-04-11T09:51:58.733Z</time></trkpt><trkpt lat="43.385114022711115" lon="12.024736936028882"><ele>818.0</ele><time>2026-04-11T09:51:59.739Z</time></trkpt><trkpt lat="43.38516996390973" lon="12.024629500215836"><ele>818.0</ele><time>2026-04-11T09:52:00.742Z</time></trkpt><trkpt lat="43.38520879446523" lon="12.024511528547894"><ele>818.0</ele><time>2026-04-11T09:52:01.742Z</time></trkpt><trkpt lat="43.385225926520945" lon="12.024370052391731"><ele>818.0</ele><time>2026-04-11T09:52:02.742Z</time></trkpt><trkpt lat="43.38523396499645" lon="12.024221631529677"><ele>818.0</ele><time>2026-04-11T09:52:03.742Z</time></trkpt><trkpt lat="43.38522077090213" lon="12.023934156097058"><ele>816.0</ele><time>2026-04-11T09:52:05.733Z</time></trkpt><trkpt lat="43.38522088678505" lon="12.023784863571064"><ele>814.0</ele><time>2026-04-11T09:52:06.742Z</time></trkpt><trkpt lat="43.38522149886433" lon="12.02361861611706"><ele>812.0</ele><time>2026-04-11T09:52:07.734Z</time></trkpt><trkpt lat="43.38521349616178" lon="12.023471900537247"><ele>810.0</ele><time>2026-04-11T09:52:08.733Z</time></trkpt><trkpt lat="43.3852022785066" lon="12.023341605601077"><ele>808.0</ele><time>2026-04-11T09:52:09.733Z</time></trkpt><trkpt lat="43.385198696638064" lon="12.023220429993414"><ele>808.0</ele><time>2026-04-11T09:52:10.734Z</time></trkpt><trkpt lat="43.38521636858736" lon="12.023078379729577"><ele>808.0</ele><time>2026-04-11T09:52:11.74Z</time></trkpt><trkpt lat="43.38525040433708" lon="12.02295735865027"><ele>808.0</ele><time>2026-04-11T09:52:12.743Z</time></trkpt><trkpt lat="43.38531185491183" lon="12.022841502285482"><ele>808.0</ele><time>2026-04-11T09:52:13.734Z</time></trkpt><trkpt lat="43.38540405285339" lon="12.022750163751235"><ele>808.0</ele><time>2026-04-11T09:52:14.744Z</time></trkpt><trkpt lat="43.38551973243238" lon="12.022680395477991"><ele>808.0</ele><time>2026-04-11T09:52:15.743Z</time></trkpt><trkpt lat="43.385641288931296" lon="12.022623714370857"><ele>808.0</ele><time>2026-04-11T09:52:16.744Z</time></trkpt><trkpt lat="43.38573352324575" lon="12.02259327643447"><ele>808.0</ele><time>2026-04-11T09:52:17.742Z</time></trkpt><trkpt lat="43.38585194890656" lon="12.022615609547994"><ele>808.0</ele><time>2026-04-11T09:52:18.733Z</time></trkpt><trkpt lat="43.38596613045761" lon="12.022676704036268"><ele>808.0</ele><time>2026-04-11T09:52:19.743Z</time></trkpt><trkpt lat="43.38609675586081" lon="12.022722713942578"><ele>808.0</ele><time>2026-04-11T09:52:20.742Z</time></trkpt><trkpt lat="43.38621652068674" lon="12.022767402012514"><ele>808.0</ele><time>2026-04-11T09:52:21.742Z</time></trkpt><trkpt lat="43.38632913590661" lon="12.022816535246967"><ele>808.0</ele><time>2026-04-11T09:52:22.742Z</time></trkpt><trkpt lat="43.38643577616958" lon="12.022894402932515"><ele>806.8</ele><time>2026-04-11T09:52:23.742Z</time></trkpt><trkpt lat="43.38651854565202" lon="12.022962887208266"><ele>805.5999999999999</ele><time>2026-04-11T09:52:24.741Z</time></trkpt><trkpt lat="43.386629890850045" lon="12.023167788326461"><ele>804.4000000000001</ele><time>2026-04-11T09:52:26.741Z</time></trkpt><trkpt lat="43.38668748361465" lon="12.023240095071472"><ele>803.2</ele><time>2026-04-11T09:52:27.74Z</time></trkpt><trkpt lat="43.38675616748866" lon="12.023269825345617"><ele>802.0</ele><time>2026-04-11T09:52:28.741Z</time></trkpt><trkpt lat="43.386850594777975" lon="12.023282766178129"><ele>802.0</ele><time>2026-04-11T09:52:29.737Z</time></trkpt><trkpt lat="43.386923306295415" lon="12.0232566013181"><ele>802.0</ele><time>2026-04-11T09:52:30.742Z</time></trkpt><trkpt lat="43.38698388965738" lon="12.02317910791629"><ele>802.0</ele><time>2026-04-11T09:52:31.742Z</time></trkpt><trkpt lat="43.38702365919565" lon="12.023077729838858"><ele>802.0</ele><time>2026-04-11T09:52:32.733Z</time></trkpt><trkpt lat="43.38702682806434" lon="12.02293523627163"><ele>802.0</ele><time>2026-04-11T09:52:33.734Z</time></trkpt><trkpt lat="43.387027953976265" lon="12.022781320203526"><ele>802.0</ele><time>2026-04-11T09:52:34.733Z</time></trkpt><trkpt lat="43.387031604449696" lon="12.022621270233932"><ele>802.0</ele><time>2026-04-11T09:52:35.734Z</time></trkpt><trkpt lat="43.387037913318636" lon="12.02245734745724"><ele>802.0</ele><time>2026-04-11T09:52:36.742Z</time></trkpt><trkpt lat="43.38704882909628" lon="12.022282076054214"><ele>802.0</ele><time>2026-04-11T09:52:37.741Z</time></trkpt><trkpt lat="43.38705603198954" lon="12.022107841988854"><ele>797.75</ele><time>2026-04-11T09:52:38.734Z</time></trkpt><trkpt lat="43.38705150398998" lon="12.02192484882169"><ele>793.5</ele><time>2026-04-11T09:52:39.731Z</time></trkpt><trkpt lat="43.38704367805512" lon="12.021745194673255"><ele>789.25</ele><time>2026-04-11T09:52:40.733Z</time></trkpt><trkpt lat="43.38703316046298" lon="12.021576358178272"><ele>785.0</ele><time>2026-04-11T09:52:41.733Z</time></trkpt><trkpt lat="43.38701230536462" lon="12.021424228055952"><ele>783.0</ele><time>2026-04-11T09:52:42.742Z</time></trkpt><trkpt lat="43.38698222415734" lon="12.021282088248274"><ele>781.0</ele><time>2026-04-11T09:52:43.742Z</time></trkpt><trkpt lat="43.38696377138521" lon="12.02114713578833"><ele>779.0</ele><time>2026-04-11T09:52:44.734Z</time></trkpt><trkpt lat="43.3869644533303" lon="12.021006766743723"><ele>777.0</ele><time>2026-04-11T09:52:45.742Z</time></trkpt><trkpt lat="43.38701299557031" lon="12.020708753205227"><ele>776.0</ele><time>2026-04-11T09:52:47.734Z</time></trkpt><trkpt lat="43.38704931487691" lon="12.020584545605846"><ele>775.0</ele><time>2026-04-11T09:52:48.744Z</time></trkpt><trkpt lat="43.387102859636684" lon="12.020477334628104"><ele>774.0</ele><time>2026-04-11T09:52:49.742Z</time></trkpt><trkpt lat="43.387178929794985" lon="12.020409001384008"><ele>773.0</ele><time>2026-04-11T09:52:50.744Z</time></trkpt><trkpt lat="43.38726191733431" lon="12.02034194087675"><ele>772.0</ele><time>2026-04-11T09:52:51.742Z</time></trkpt><trkpt lat="43.387339386531565" lon="12.02028568077796"><ele>771.8333333333333</ele><time>2026-04-11T09:52:52.743Z</time></trkpt><trkpt lat="43.38741448341136" lon="12.020251055287389"><ele>771.6666666666666</ele><time>2026-04-11T09:52:53.743Z</time></trkpt><trkpt lat="43.3874835134628" lon="12.020218261397162"><ele>771.5</ele><time>2026-04-11T09:52:54.743Z</time></trkpt><trkpt lat="43.38755501286021" lon="12.020172525533221"><ele>771.3333333333333</ele><time>2026-04-11T09:52:55.742Z</time></trkpt><trkpt lat="43.38762473352908" lon="12.020092362770688"><ele>771.1666666666666</ele><time>2026-04-11T09:52:56.743Z</time></trkpt><trkpt lat="43.38769263184397" lon="12.019971913361399"><ele>771.0</ele><time>2026-04-11T09:52:57.742Z</time></trkpt><trkpt lat="43.38775906126873" lon="12.019853827327582"><ele>771.0</ele><time>2026-04-11T09:52:58.742Z</time></trkpt><trkpt lat="43.38782186576817" lon="12.019761612338742"><ele>771.0</ele><time>2026-04-11T09:52:59.73Z</time></trkpt><trkpt lat="43.38789765708866" lon="12.019690453771213"><ele>771.0</ele><time>2026-04-11T09:53:00.733Z</time></trkpt><trkpt lat="43.38797708804411" lon="12.019629907008884"><ele>771.0</ele><time>2026-04-11T09:53:01.734Z</time></trkpt><trkpt lat="43.388060412423556" lon="12.019570086024402"><ele>771.0</ele><time>2026-04-11T09:53:02.734Z</time></trkpt><trkpt lat="43.38814849021164" lon="12.0194989167131"><ele>771.5</ele><time>2026-04-11T09:53:03.734Z</time></trkpt><trkpt lat="43.38823170232519" lon="12.019461898202435"><ele>772.0</ele><time>2026-04-11T09:53:04.743Z</time></trkpt><trkpt lat="43.388320484259545" lon="12.019446219020312"><ele>772.5</ele><time>2026-04-11T09:53:05.734Z</time></trkpt><trkpt lat="43.38841752547549" lon="12.019477490881819"><ele>773.0</ele><time>2026-04-11T09:53:06.742Z</time></trkpt><trkpt lat="43.38861150211882" lon="12.019609973216113"><ele>773.0</ele><time>2026-04-11T09:53:08.742Z</time></trkpt><trkpt lat="43.38871354391361" lon="12.01966585207887"><ele>773.0</ele><time>2026-04-11T09:53:09.742Z</time></trkpt><trkpt lat="43.38879696582644" lon="12.019731652657105"><ele>773.0</ele><time>2026-04-11T09:53:10.742Z</time></trkpt><trkpt lat="43.38886826282929" lon="12.019775316717288"><ele>773.0</ele><time>2026-04-11T09:53:11.733Z</time></trkpt><trkpt lat="43.38894872761895" lon="12.019811686129835"><ele>773.0</ele><time>2026-04-11T09:53:12.742Z</time></trkpt><trkpt lat="43.38903073646763" lon="12.019817869377457"><ele>774.0</ele><time>2026-04-11T09:53:13.735Z</time></trkpt><trkpt lat="43.38911059187866" lon="12.019812732375453"><ele>775.0</ele><time>2026-04-11T09:53:14.742Z</time></trkpt><trkpt lat="43.38920288846064" lon="12.019782829134208"><ele>776.0</ele><time>2026-04-11T09:53:15.742Z</time></trkpt><trkpt lat="43.389275406838" lon="12.01970763862688"><ele>777.0</ele><time>2026-04-11T09:53:16.743Z</time></trkpt><trkpt lat="43.38933450878266" lon="12.019601736480801"><ele>778.0</ele><time>2026-04-11T09:53:17.742Z</time></trkpt><trkpt lat="43.38936574770508" lon="12.019488451861093"><ele>777.9999999999999</ele><time>2026-04-11T09:53:18.741Z</time></trkpt><trkpt lat="43.38938987508621" lon="12.019368011639779"><ele>778.0</ele><time>2026-04-11T09:53:19.733Z</time></trkpt><trkpt lat="43.38942001936692" lon="12.019265773505165"><ele>778.0</ele><time>2026-04-11T09:53:20.734Z</time></trkpt><trkpt lat="43.3894779997948" lon="12.019134244861577"><ele>778.0</ele><time>2026-04-11T09:53:22.734Z</time></trkpt><trkpt lat="43.38952728258518" lon="12.019042298289573"><ele>777.9999999999999</ele><time>2026-04-11T09:53:24.733Z</time></trkpt><trkpt lat="43.38957018681824" lon="12.0189769256748"><ele>778.0</ele><time>2026-04-11T09:53:26.742Z</time></trkpt><trkpt lat="43.389673620251266" lon="12.018975170533626"><ele>777.2</ele><time>2026-04-11T09:53:45.743Z</time></trkpt><trkpt lat="43.389862174733224" lon="12.019003109596929"><ele>776.4</ele><time>2026-04-11T09:53:48.743Z</time></trkpt><trkpt lat="43.38992950652454" lon="12.018977221299263"><ele>775.6</ele><time>2026-04-11T09:53:49.742Z</time></trkpt><trkpt lat="43.3900089005905" lon="12.018912533437277"><ele>774.8000000000001</ele><time>2026-04-11T09:53:51.742Z</time></trkpt><trkpt lat="43.39008159565549" lon="12.018981723383181"><ele>774.0</ele><time>2026-04-11T09:53:53.742Z</time></trkpt><trkpt lat="43.39010608935448" lon="12.019070807178746"><ele>777.2</ele><time>2026-04-11T09:53:55.742Z</time></trkpt><trkpt lat="43.39017034328192" lon="12.019184743028571"><ele>780.4000000000001</ele><time>2026-04-11T09:53:58.743Z</time></trkpt><trkpt lat="43.390222047558765" lon="12.019275794450799"><ele>783.6</ele><time>2026-04-11T09:54:01.742Z</time></trkpt><trkpt lat="43.39021580355895" lon="12.019396375679785"><ele>786.8</ele><time>2026-04-11T09:54:03.742Z</time></trkpt><trkpt lat="43.39015658527688" lon="12.01953425445143"><ele>790.0</ele><time>2026-04-11T09:54:05.742Z</time></trkpt><trkpt lat="43.39014399528209" lon="12.019625029962167"><ele>790.0</ele><time>2026-04-11T09:54:06.742Z</time></trkpt><trkpt lat="43.39017298987282" lon="12.01981991046154"><ele>790.0</ele><time>2026-04-11T09:54:10.743Z</time></trkpt><trkpt lat="43.3901438922324" lon="12.019947398506881"><ele>790.0</ele><time>2026-04-11T09:54:12.741Z</time></trkpt><trkpt lat="43.390112348874844" lon="12.020072952064512"><ele>790.0</ele><time>2026-04-11T09:54:14.742Z</time></trkpt><trkpt lat="43.39011546195222" lon="12.020163141402001"><ele>790.0</ele><time>2026-04-11T09:54:16.742Z</time></trkpt><trkpt lat="43.39011482660668" lon="12.020306718828582"><ele>792.1666666666666</ele><time>2026-04-11T09:54:18.741Z</time></trkpt><trkpt lat="43.39011234826368" lon="12.020397814242669"><ele>794.3333333333333</ele><time>2026-04-11T09:54:20.742Z</time></trkpt><trkpt lat="43.39013115216069" lon="12.020499112565883"><ele>796.5</ele><time>2026-04-11T09:54:22.743Z</time></trkpt><trkpt lat="43.39019482553102" lon="12.020662444942664"><ele>798.6666666666667</ele><time>2026-04-11T09:54:24.743Z</time></trkpt><trkpt lat="43.390232487096995" lon="12.020752064033607"><ele>800.8333333333334</ele><time>2026-04-11T09:54:25.741Z</time></trkpt><trkpt lat="43.39027413573668" lon="12.020833219250859"><ele>803.0</ele><time>2026-04-11T09:54:26.741Z</time></trkpt><trkpt lat="43.390343160189914" lon="12.020946146734"><ele>805.25</ele><time>2026-04-11T09:54:28.742Z</time></trkpt><trkpt lat="43.39045547961653" lon="12.021143335442064"><ele>807.5</ele><time>2026-04-11T09:54:31.742Z</time></trkpt><trkpt lat="43.39049942973819" lon="12.021216060689177"><ele>809.75</ele><time>2026-04-11T09:54:32.743Z</time></trkpt><trkpt lat="43.390532643494716" lon="12.021333595496785"><ele>812.0</ele><time>2026-04-11T09:54:34.742Z</time></trkpt><trkpt lat="43.39051712349855" lon="12.0214960603704"><ele>813.6</ele><time>2026-04-11T09:54:36.742Z</time></trkpt><trkpt lat="43.39054479251519" lon="12.021613467917433"><ele>815.2</ele><time>2026-04-11T09:54:38.743Z</time></trkpt><trkpt lat="43.39058274010991" lon="12.02173034096761"><ele>816.8</ele><time>2026-04-11T09:54:40.744Z</time></trkpt><trkpt lat="43.39058210898016" lon="12.021847753148242"><ele>818.4</ele><time>2026-04-11T09:54:42.742Z</time></trkpt><trkpt lat="43.39062842107393" lon="12.021979558065198"><ele>820.0</ele><time>2026-04-11T09:54:44.742Z</time></trkpt><trkpt lat="43.39070792198658" lon="12.022076521309895"><ele>822.4</ele><time>2026-04-11T09:54:46.743Z</time></trkpt><trkpt lat="43.39080344346222" lon="12.022197186786537"><ele>824.8</ele><time>2026-04-11T09:54:48.743Z</time></trkpt><trkpt lat="43.39085070901562" lon="12.02227095652844"><ele>827.2</ele><time>2026-04-11T09:54:49.742Z</time></trkpt><trkpt lat="43.39090159470571" lon="12.022451000678338"><ele>829.6</ele><time>2026-04-11T09:54:51.743Z</time></trkpt><trkpt lat="43.390925417292294" lon="12.022554604754378"><ele>832.0</ele><time>2026-04-11T09:54:52.743Z</time></trkpt><trkpt lat="43.39093409334515" lon="12.02270609891679"><ele>833.8333333333333</ele><time>2026-04-11T09:54:54.743Z</time></trkpt><trkpt lat="43.39093440111443" lon="12.022810727964808"><ele>835.6666666666666</ele><time>2026-04-11T09:54:55.743Z</time></trkpt><trkpt lat="43.390913015060995" lon="12.022920179327992"><ele>837.5</ele><time>2026-04-11T09:54:56.743Z</time></trkpt><trkpt lat="43.390879195012154" lon="12.023030608329199"><ele>839.3333333333333</ele><time>2026-04-11T09:54:57.742Z</time></trkpt><trkpt lat="43.39085533006736" lon="12.023156447927024"><ele>841.1666666666666</ele><time>2026-04-11T09:54:58.742Z</time></trkpt><trkpt lat="43.390831321691984" lon="12.023299967160709"><ele>843.0</ele><time>2026-04-11T09:54:59.734Z</time></trkpt><trkpt lat="43.39080200505281" lon="12.02344921815311"><ele>844.4</ele><time>2026-04-11T09:55:00.734Z</time></trkpt><trkpt lat="43.390776781290704" lon="12.02358949619505"><ele>845.8</ele><time>2026-04-11T09:55:01.734Z</time></trkpt><trkpt lat="43.39076003472466" lon="12.023694165366368"><ele>847.2</ele><time>2026-04-11T09:55:02.733Z</time></trkpt><trkpt lat="43.390732054643784" lon="12.023824043006018"><ele>848.6</ele><time>2026-04-11T09:55:04.734Z</time></trkpt><trkpt lat="43.390710474970064" lon="12.02393562813926"><ele>850.0</ele><time>2026-04-11T09:55:06.732Z</time></trkpt><trkpt lat="43.390680509383984" lon="12.024060236185196"><ele>852.0</ele><time>2026-04-11T09:55:08.734Z</time></trkpt><trkpt lat="43.3906478731864" lon="12.024228549458734"><ele>854.0</ele><time>2026-04-11T09:55:10.733Z</time></trkpt><trkpt lat="43.390615089273396" lon="12.024406110335514"><ele>856.0</ele><time>2026-04-11T09:55:12.734Z</time></trkpt><trkpt lat="43.390589004924614" lon="12.024497704134117"><ele>858.0</ele><time>2026-04-11T09:55:13.733Z</time></trkpt><trkpt lat="43.390564127706355" lon="12.024591430638923"><ele>860.0</ele><time>2026-04-11T09:55:14.733Z</time></trkpt><trkpt lat="43.39054777384035" lon="12.024697143462578"><ele>860.0000000000001</ele><time>2026-04-11T09:55:15.743Z</time></trkpt><trkpt lat="43.39053294581758" lon="12.024798375619117"><ele>860.0</ele><time>2026-04-11T09:55:16.743Z</time></trkpt><trkpt lat="43.39052292294482" lon="12.024900302963767"><ele>860.0</ele><time>2026-04-11T09:55:17.742Z</time></trkpt><trkpt lat="43.39052389782339" lon="12.02500625901011"><ele>860.0</ele><time>2026-04-11T09:55:18.733Z</time></trkpt><trkpt lat="43.390535164748165" lon="12.02511465885962"><ele>860.0000000000001</ele><time>2026-04-11T09:55:19.732Z</time></trkpt><trkpt lat="43.39056338483541" lon="12.025219734533346"><ele>860.0</ele><time>2026-04-11T09:55:20.734Z</time></trkpt><trkpt lat="43.39060517482883" lon="12.025331334965472"><ele>861.1666666666667</ele><time>2026-04-11T09:55:21.733Z</time></trkpt><trkpt lat="43.39065184787229" lon="12.025432547232285"><ele>862.3333333333334</ele><time>2026-04-11T09:55:22.734Z</time></trkpt><trkpt lat="43.39068789722721" lon="12.02551591407197"><ele>863.5</ele><time>2026-04-11T09:55:23.742Z</time></trkpt><trkpt lat="43.390746820221835" lon="12.02564157554365"><ele>864.6666666666667</ele><time>2026-04-11T09:55:25.742Z</time></trkpt><trkpt lat="43.39079232568482" lon="12.02574162586279"><ele>865.8333333333334</ele><time>2026-04-11T09:55:27.734Z</time></trkpt><trkpt lat="43.390881811565926" lon="12.025770538853333"><ele>867.0</ele><time>2026-04-11T09:55:29.743Z</time></trkpt><trkpt lat="43.39095171814033" lon="12.02574082422542"><ele>867.0</ele><time>2026-04-11T09:55:30.744Z</time></trkpt><trkpt lat="43.39101521072483" lon="12.025676670346506"><ele>867.0</ele><time>2026-04-11T09:55:31.743Z</time></trkpt><trkpt lat="43.39104351664954" lon="12.025500851416515"><ele>867.0</ele><time>2026-04-11T09:55:33.745Z</time></trkpt><trkpt lat="43.39103441342355" lon="12.025411209321785"><ele>867.0</ele><time>2026-04-11T09:55:34.744Z</time></trkpt><trkpt lat="43.39103959333125" lon="12.025250261963079"><ele>867.0</ele><time>2026-04-11T09:55:36.741Z</time></trkpt><trkpt lat="43.39107620159998" lon="12.025171643666162"><ele>867.0</ele><time>2026-04-11T09:55:37.741Z</time></trkpt><trkpt lat="43.39112932776618" lon="12.025099717307848"><ele>867.0</ele><time>2026-04-11T09:55:38.744Z</time></trkpt><trkpt lat="43.39119610262118" lon="12.025068580373746"><ele>867.0</ele><time>2026-04-11T09:55:39.744Z</time></trkpt><trkpt lat="43.391267342221944" lon="12.025047848356515"><ele>867.0</ele><time>2026-04-11T09:55:40.743Z</time></trkpt><trkpt lat="43.39133915358439" lon="12.02503761820892"><ele>867.0</ele><time>2026-04-11T09:55:41.743Z</time></trkpt><trkpt lat="43.39141260717505" lon="12.025037609472113"><ele>867.0</ele><time>2026-04-11T09:55:42.745Z</time></trkpt><trkpt lat="43.39149378688456" lon="12.025027130498128"><ele>867.0</ele><time>2026-04-11T09:55:43.742Z</time></trkpt><trkpt lat="43.3915836465288" lon="12.02501071565086"><ele>867.5</ele><time>2026-04-11T09:55:44.743Z</time></trkpt><trkpt lat="43.39166636219779" lon="12.02498898688603"><ele>868.0</ele><time>2026-04-11T09:55:45.74Z</time></trkpt><trkpt lat="43.3917504221321" lon="12.02495801052347"><ele>868.5</ele><time>2026-04-11T09:55:46.741Z</time></trkpt><trkpt lat="43.39181238503985" lon="12.024937325906942"><ele>869.0</ele><time>2026-04-11T09:55:47.733Z</time></trkpt><trkpt lat="43.391879024058326" lon="12.024915411499302"><ele>869.5</ele><time>2026-04-11T09:55:48.733Z</time></trkpt><trkpt lat="43.39195405841857" lon="12.024876698035477"><ele>870.0</ele><time>2026-04-11T09:55:49.739Z</time></trkpt><trkpt lat="43.39203089386274" lon="12.024809248318165"><ele>870.0</ele><time>2026-04-11T09:55:50.734Z</time></trkpt><trkpt lat="43.392110209560514" lon="12.02475292125043"><ele>870.0</ele><time>2026-04-11T09:55:51.742Z</time></trkpt><trkpt lat="43.39219337791937" lon="12.024665033187043"><ele>870.0</ele><time>2026-04-11T09:55:52.742Z</time></trkpt><trkpt lat="43.3923558862225" lon="12.024584319988366"><ele>870.0</ele><time>2026-04-11T09:55:54.743Z</time></trkpt><trkpt lat="43.392446759189404" lon="12.024590705905766"><ele>871.6</ele><time>2026-04-11T09:55:55.741Z</time></trkpt><trkpt lat="43.39254224778655" lon="12.024608288158118"><ele>873.2</ele><time>2026-04-11T09:55:56.744Z</time></trkpt><trkpt lat="43.39262104329152" lon="12.02461226469372"><ele>874.8</ele><time>2026-04-11T09:55:57.745Z</time></trkpt><trkpt lat="43.39271767572296" lon="12.024625009697278"><ele>876.4</ele><time>2026-04-11T09:55:58.734Z</time></trkpt><trkpt lat="43.39284419867235" lon="12.024632256484686"><ele>878.0</ele><time>2026-04-11T09:55:59.733Z</time></trkpt><trkpt lat="43.39297835150614" lon="12.024606471234385"><ele>880.0</ele><time>2026-04-11T09:56:00.735Z</time></trkpt><trkpt lat="43.39310234801479" lon="12.024565193900166"><ele>882.0</ele><time>2026-04-11T09:56:01.735Z</time></trkpt><trkpt lat="43.393199758766386" lon="12.02450077161609"><ele>884.0</ele><time>2026-04-11T09:56:02.743Z</time></trkpt><trkpt lat="43.39329079525411" lon="12.024404237974512"><ele>886.0</ele><time>2026-04-11T09:56:03.742Z</time></trkpt><trkpt lat="43.393382342545884" lon="12.024296183235762"><ele>886.0</ele><time>2026-04-11T09:56:04.742Z</time></trkpt><trkpt lat="43.39347388670879" lon="12.024221560578539"><ele>885.9999999999999</ele><time>2026-04-11T09:56:05.741Z</time></trkpt><trkpt lat="43.393553571294575" lon="12.024178811749989"><ele>885.9999999999999</ele><time>2026-04-11T09:56:06.743Z</time></trkpt><trkpt lat="43.39364865402497" lon="12.024170669169008"><ele>886.0</ele><time>2026-04-11T09:56:07.743Z</time></trkpt><trkpt lat="43.39374008767943" lon="12.024187255336463"><ele>886.0</ele><time>2026-04-11T09:56:08.743Z</time></trkpt><trkpt lat="43.39383608219244" lon="12.024222553304263"><ele>888.8</ele><time>2026-04-11T09:56:09.741Z</time></trkpt><trkpt lat="43.39391833491094" lon="12.02426985828704"><ele>891.5999999999999</ele><time>2026-04-11T09:56:10.742Z</time></trkpt><trkpt lat="43.393999536654306" lon="12.024285896999197"><ele>894.4</ele><time>2026-04-11T09:56:11.742Z</time></trkpt><trkpt lat="43.39406672043505" lon="12.024299927685206"><ele>897.2</ele><time>2026-04-11T09:56:12.743Z</time></trkpt><trkpt lat="43.394140081493454" lon="12.024267817798156"><ele>900.0</ele><time>2026-04-11T09:56:13.74Z</time></trkpt><trkpt lat="43.39430015779191" lon="12.02417607898614"><ele>900.0</ele><time>2026-04-11T09:56:15.742Z</time></trkpt><trkpt lat="43.39443722588451" lon="12.024123929007134"><ele>900.0</ele><time>2026-04-11T09:56:17.74Z</time></trkpt><trkpt lat="43.39450662809601" lon="12.0241310086667"><ele>900.0</ele><time>2026-04-11T09:56:18.742Z</time></trkpt><trkpt lat="43.39457677269832" lon="12.024146820031675"><ele>900.0</ele><time>2026-04-11T09:56:19.736Z</time></trkpt><trkpt lat="43.39467253045566" lon="12.024113167820065"><ele>900.0</ele><time>2026-04-11T09:56:20.743Z</time></trkpt><trkpt lat="43.394761754126385" lon="12.024079291024492"><ele>901.0</ele><time>2026-04-11T09:56:21.742Z</time></trkpt><trkpt lat="43.39483563576919" lon="12.024062467966834"><ele>902.0</ele><time>2026-04-11T09:56:22.744Z</time></trkpt><trkpt lat="43.394911004312924" lon="12.024044773342242"><ele>903.0</ele><time>2026-04-11T09:56:23.741Z</time></trkpt><trkpt lat="43.395039817698574" lon="12.023995314675712"><ele>904.0</ele><time>2026-04-11T09:56:25.741Z</time></trkpt><trkpt lat="43.39510905428711" lon="12.02396330319376"><ele>905.0</ele><time>2026-04-11T09:56:26.734Z</time></trkpt><trkpt lat="43.39518202309338" lon="12.023960851961215"><ele>906.0</ele><time>2026-04-11T09:56:27.733Z</time></trkpt><trkpt lat="43.395273556542584" lon="12.02396273444248"><ele>906.0</ele><time>2026-04-11T09:56:28.742Z</time></trkpt><trkpt lat="43.39538015923751" lon="12.023959625467818"><ele>905.9999999999999</ele><time>2026-04-11T09:56:29.743Z</time></trkpt><trkpt lat="43.39547728252301" lon="12.023955801598259"><ele>905.9999999999999</ele><time>2026-04-11T09:56:30.743Z</time></trkpt><trkpt lat="43.395563168659336" lon="12.023939642660768"><ele>906.0</ele><time>2026-04-11T09:56:31.743Z</time></trkpt><trkpt lat="43.395634050035504" lon="12.023927644922802"><ele>906.0</ele><time>2026-04-11T09:56:32.744Z</time></trkpt><trkpt lat="43.395733879322044" lon="12.023929294377016"><ele>906.25</ele><time>2026-04-11T09:56:34.743Z</time></trkpt><trkpt lat="43.39591457171373" lon="12.023938624116058"><ele>906.5</ele><time>2026-04-11T09:56:38.742Z</time></trkpt><trkpt lat="43.39599123171157" lon="12.02395609194732"><ele>906.75</ele><time>2026-04-11T09:56:40.742Z</time></trkpt><trkpt lat="43.39606924497653" lon="12.024045738949265"><ele>907.0</ele><time>2026-04-11T09:56:42.741Z</time></trkpt><trkpt lat="43.396182587763626" lon="12.024112629342145"><ele>907.0</ele><time>2026-04-11T09:56:44.741Z</time></trkpt><trkpt lat="43.396264557541265" lon="12.024132975308333"><ele>907.0</ele><time>2026-04-11T09:56:45.744Z</time></trkpt><trkpt lat="43.39632820477581" lon="12.024151294091354"><ele>907.0</ele><time>2026-04-11T09:56:46.742Z</time></trkpt><trkpt lat="43.39643464452947" lon="12.024117097875122"><ele>907.0</ele><time>2026-04-11T09:56:48.743Z</time></trkpt><trkpt lat="43.39656438341816" lon="12.024082480196848"><ele>907.0</ele><time>2026-04-11T09:56:50.742Z</time></trkpt><trkpt lat="43.39662801106378" lon="12.024086259958118"><ele>906.75</ele><time>2026-04-11T09:56:51.742Z</time></trkpt><trkpt lat="43.3967699663468" lon="12.024109354218197"><ele>906.5</ele><time>2026-04-11T09:56:53.741Z</time></trkpt><trkpt lat="43.39685811438681" lon="12.024123718619194"><ele>906.25</ele><time>2026-04-11T09:56:54.743Z</time></trkpt><trkpt lat="43.39694733922499" lon="12.02415556746971"><ele>906.0</ele><time>2026-04-11T09:56:55.742Z</time></trkpt><trkpt lat="43.397099881172004" lon="12.024193990795757"><ele>906.3333333333334</ele><time>2026-04-11T09:56:57.745Z</time></trkpt><trkpt lat="43.3971804637176" lon="12.024203941415694"><ele>906.6666666666667</ele><time>2026-04-11T09:56:58.742Z</time></trkpt><trkpt lat="43.39726594765045" lon="12.024168726153633"><ele>907.0</ele><time>2026-04-11T09:56:59.742Z</time></trkpt><trkpt lat="43.39734144658442" lon="12.024102063963479"><ele>907.3333333333334</ele><time>2026-04-11T09:57:00.734Z</time></trkpt><trkpt lat="43.39741165298289" lon="12.024032246449677"><ele>907.6666666666667</ele><time>2026-04-11T09:57:01.743Z</time></trkpt><trkpt lat="43.39747715312223" lon="12.02396080463925"><ele>908.0</ele><time>2026-04-11T09:57:02.743Z</time></trkpt><trkpt lat="43.397535496593214" lon="12.023898832562576"><ele>908.0000000000001</ele><time>2026-04-11T09:57:03.744Z</time></trkpt><trkpt lat="43.39758199846883" lon="12.023832027823241"><ele>908.0</ele><time>2026-04-11T09:57:04.743Z</time></trkpt><trkpt lat="43.397612998376495" lon="12.023716969322544"><ele>908.0</ele><time>2026-04-11T09:57:05.742Z</time></trkpt><trkpt lat="43.3976248793236" lon="12.02359396175128"><ele>908.0</ele><time>2026-04-11T09:57:06.742Z</time></trkpt><trkpt lat="43.3976602553285" lon="12.023467436909263"><ele>908.0000000000001</ele><time>2026-04-11T09:57:07.733Z</time></trkpt><trkpt lat="43.3977184326034" lon="12.023352492731753"><ele>908.0</ele><time>2026-04-11T09:57:08.742Z</time></trkpt><trkpt lat="43.39779625221818" lon="12.02324086321576"><ele>909.0</ele><time>2026-04-11T09:57:09.742Z</time></trkpt><trkpt lat="43.39786111560146" lon="12.0231393601888"><ele>910.0</ele><time>2026-04-11T09:57:10.743Z</time></trkpt><trkpt lat="43.39794157621671" lon="12.02303614970639"><ele>911.0</ele><time>2026-04-11T09:57:11.742Z</time></trkpt><trkpt lat="43.39800081566389" lon="12.022959488036744"><ele>912.0</ele><time>2026-04-11T09:57:12.743Z</time></trkpt><trkpt lat="43.39809150531272" lon="12.022906179609752"><ele>913.0</ele><time>2026-04-11T09:57:14.742Z</time></trkpt><trkpt lat="43.39816612402621" lon="12.022915893222539"><ele>913.0</ele><time>2026-04-11T09:57:15.741Z</time></trkpt><trkpt lat="43.39822742867307" lon="12.022971428961824"><ele>913.0</ele><time>2026-04-11T09:57:16.744Z</time></trkpt><trkpt lat="43.39835648183797" lon="12.023099655226288"><ele>913.0</ele><time>2026-04-11T09:57:18.741Z</time></trkpt><trkpt lat="43.398417485620996" lon="12.02317456848852"><ele>913.0</ele><time>2026-04-11T09:57:19.741Z</time></trkpt><trkpt lat="43.39852072468646" lon="12.023250028783716"><ele>913.0</ele><time>2026-04-11T09:57:20.742Z</time></trkpt><trkpt lat="43.398608665214" lon="12.023279173582269"><ele>913.0</ele><time>2026-04-11T09:57:21.742Z</time></trkpt><trkpt lat="43.39871161920731" lon="12.023307397160476"><ele>913.0</ele><time>2026-04-11T09:57:22.742Z</time></trkpt><trkpt lat="43.39881391010592" lon="12.023340666715125"><ele>913.0</ele><time>2026-04-11T09:57:23.742Z</time></trkpt><trkpt lat="43.39890040323585" lon="12.023381686553563"><ele>913.0</ele><time>2026-04-11T09:57:24.742Z</time></trkpt><trkpt lat="43.39896204501846" lon="12.023450638653202"><ele>913.0</ele><time>2026-04-11T09:57:25.732Z</time></trkpt><trkpt lat="43.39901498318834" lon="12.023545819898295"><ele>916.0</ele><time>2026-04-11T09:57:26.742Z</time></trkpt><trkpt lat="43.39903542805563" lon="12.023666037940538"><ele>919.0</ele><time>2026-04-11T09:57:27.742Z</time></trkpt><trkpt lat="43.39903251126492" lon="12.023767730311134"><ele>922.0</ele><time>2026-04-11T09:57:28.741Z</time></trkpt><trkpt lat="43.39904714428752" lon="12.023910140676254"><ele>925.0</ele><time>2026-04-11T09:57:29.74Z</time></trkpt><trkpt lat="43.39907227244988" lon="12.024054881146311"><ele>928.0</ele><time>2026-04-11T09:57:30.742Z</time></trkpt><trkpt lat="43.39910959750007" lon="12.024165616024844"><ele>929.4999999999999</ele><time>2026-04-11T09:57:31.742Z</time></trkpt><trkpt lat="43.3991535735364" lon="12.024270058411435"><ele>931.0</ele><time>2026-04-11T09:57:32.742Z</time></trkpt><trkpt lat="43.39920650063944" lon="12.024357029564053"><ele>932.5</ele><time>2026-04-11T09:57:33.741Z</time></trkpt><trkpt lat="43.3992525807497" lon="12.024456292226784"><ele>934.0</ele><time>2026-04-11T09:57:34.743Z</time></trkpt><trkpt lat="43.399303768188545" lon="12.024546206936263"><ele>935.4999999999999</ele><time>2026-04-11T09:57:35.743Z</time></trkpt><trkpt lat="43.39936619705793" lon="12.024649183348856"><ele>937.0</ele><time>2026-04-11T09:57:36.742Z</time></trkpt><trkpt lat="43.39944297414046" lon="12.02470717027351"><ele>937.0</ele><time>2026-04-11T09:57:37.742Z</time></trkpt><trkpt lat="43.39962541095213" lon="12.024810350300513"><ele>937.0</ele><time>2026-04-11T09:57:40.742Z</time></trkpt><trkpt lat="43.399713859033845" lon="12.024844377910632"><ele>937.0</ele><time>2026-04-11T09:57:41.741Z</time></trkpt><trkpt lat="43.39981080165184" lon="12.024889333318505"><ele>937.0</ele><time>2026-04-11T09:57:42.742Z</time></trkpt><trkpt lat="43.399911270648914" lon="12.024930059556803"><ele>937.0</ele><time>2026-04-11T09:57:43.733Z</time></trkpt><trkpt lat="43.400023185161594" lon="12.02496057789147"><ele>937.0</ele><time>2026-04-11T09:57:44.741Z</time></trkpt><trkpt lat="43.40013532341568" lon="12.025002459352967"><ele>937.0</ele><time>2026-04-11T09:57:45.74Z</time></trkpt><trkpt lat="43.4002575776754" lon="12.025044731319815"><ele>937.0</ele><time>2026-04-11T09:57:46.741Z</time></trkpt><trkpt lat="43.40036729322555" lon="12.025087645247968"><ele>938.3333333333333</ele><time>2026-04-11T09:57:47.739Z</time></trkpt><trkpt lat="43.400450826531" lon="12.025124516921492"><ele>939.6666666666666</ele><time>2026-04-11T09:57:48.742Z</time></trkpt><trkpt lat="43.40054768738982" lon="12.025157058374276"><ele>941.0</ele><time>2026-04-11T09:57:49.741Z</time></trkpt><trkpt lat="43.400641957494834" lon="12.025184856258146"><ele>942.3333333333333</ele><time>2026-04-11T09:57:50.74Z</time></trkpt><trkpt lat="43.40070622726232" lon="12.025166870767093"><ele>943.6666666666666</ele><time>2026-04-11T09:57:51.742Z</time></trkpt><trkpt lat="43.400773585643556" lon="12.025132166149927"><ele>945.0</ele><time>2026-04-11T09:57:52.741Z</time></trkpt><trkpt lat="43.40085766359048" lon="12.025057265574018"><ele>945.8</ele><time>2026-04-11T09:57:53.74Z</time></trkpt><trkpt lat="43.40092141861037" lon="12.02501607909997"><ele>946.6</ele><time>2026-04-11T09:57:54.741Z</time></trkpt><trkpt lat="43.401009262136675" lon="12.024988883641448"><ele>947.4000000000001</ele><time>2026-04-11T09:57:55.741Z</time></trkpt><trkpt lat="43.40114991074979" lon="12.024999082202498"><ele>948.2</ele><time>2026-04-11T09:57:57.74Z</time></trkpt><trkpt lat="43.40124145065588" lon="12.025038142666716"><ele>949.0</ele><time>2026-04-11T09:57:58.742Z</time></trkpt><trkpt lat="43.40142894595824" lon="12.025151375575215"><ele>949.2</ele><time>2026-04-11T09:58:00.741Z</time></trkpt><trkpt lat="43.40151327151473" lon="12.02521365197336"><ele>949.4000000000001</ele><time>2026-04-11T09:58:01.741Z</time></trkpt><trkpt lat="43.4015999753936" lon="12.025261670987522"><ele>949.6</ele><time>2026-04-11T09:58:02.741Z</time></trkpt><trkpt lat="43.4016907571873" lon="12.025304411530195"><ele>949.8</ele><time>2026-04-11T09:58:03.74Z</time></trkpt><trkpt lat="43.40179001077654" lon="12.025337102222199"><ele>950.0</ele><time>2026-04-11T09:58:04.741Z</time></trkpt><trkpt lat="43.401871798428665" lon="12.025381610997522"><ele>950.0000000000001</ele><time>2026-04-11T09:58:05.741Z</time></trkpt><trkpt lat="43.40194588603565" lon="12.025434607994624"><ele>950.0</ele><time>2026-04-11T09:58:06.738Z</time></trkpt><trkpt lat="43.402002294377404" lon="12.025479181806594"><ele>950.0</ele><time>2026-04-11T09:58:07.741Z</time></trkpt><trkpt lat="43.402064020490265" lon="12.025570656673125"><ele>950.0</ele><time>2026-04-11T09:58:09.733Z</time></trkpt><trkpt lat="43.40212504289374" lon="12.02554737787877"><ele>950.0000000000001</ele><time>2026-04-11T09:58:12.733Z</time></trkpt><trkpt lat="43.40221826913221" lon="12.025529483555948"><ele>950.0</ele><time>2026-04-11T09:58:20.741Z</time></trkpt><trkpt lat="43.4024309103293" lon="12.025606719394812"><ele>951.6666666666667</ele><time>2026-04-11T09:58:23.74Z</time></trkpt><trkpt lat="43.40250090319321" lon="12.02560820093032"><ele>953.3333333333334</ele><time>2026-04-11T09:58:24.741Z</time></trkpt><trkpt lat="43.402577143019734" lon="12.025597418844667"><ele>955.0</ele><time>2026-04-11T09:58:25.733Z</time></trkpt><trkpt lat="43.40264886679547" lon="12.02557186249391"><ele>956.6666666666667</ele><time>2026-04-11T09:58:26.734Z</time></trkpt><trkpt lat="43.40272254060952" lon="12.025560835774328"><ele>958.3333333333334</ele><time>2026-04-11T09:58:27.742Z</time></trkpt><trkpt lat="43.402812891282935" lon="12.02557404342629"><ele>960.0</ele><time>2026-04-11T09:58:28.733Z</time></trkpt><trkpt lat="43.402895359896625" lon="12.025616008336439"><ele>960.0</ele><time>2026-04-11T09:58:29.741Z</time></trkpt><trkpt lat="43.402943596528374" lon="12.025678195883591"><ele>960.0</ele><time>2026-04-11T09:58:30.742Z</time></trkpt><trkpt lat="43.40302113482952" lon="12.025713984167973"><ele>960.0</ele><time>2026-04-11T09:58:31.742Z</time></trkpt><trkpt lat="43.403111895434094" lon="12.02575829847455"><ele>960.0</ele><time>2026-04-11T09:58:32.742Z</time></trkpt><trkpt lat="43.40319725073658" lon="12.025818218283998"><ele>960.0</ele><time>2026-04-11T09:58:33.741Z</time></trkpt><trkpt lat="43.40327261611863" lon="12.025890065500239"><ele>960.0</ele><time>2026-04-11T09:58:34.743Z</time></trkpt><trkpt lat="43.403343375942605" lon="12.025971153999098"><ele>961.8</ele><time>2026-04-11T09:58:35.742Z</time></trkpt><trkpt lat="43.40342549352454" lon="12.026034961723328"><ele>963.6</ele><time>2026-04-11T09:58:36.742Z</time></trkpt><trkpt lat="43.4035103197721" lon="12.026096107402383"><ele>965.4000000000001</ele><time>2026-04-11T09:58:37.741Z</time></trkpt><trkpt lat="43.40359986573678" lon="12.026146457646675"><ele>967.2</ele><time>2026-04-11T09:58:38.742Z</time></trkpt><trkpt lat="43.40369144409768" lon="12.026176420151087"><ele>969.0</ele><time>2026-04-11T09:58:39.742Z</time></trkpt><trkpt lat="43.40378590209546" lon="12.026204476435499"><ele>967.6</ele><time>2026-04-11T09:58:40.742Z</time></trkpt><trkpt lat="43.40387079512484" lon="12.026220190659009"><ele>966.2</ele><time>2026-04-11T09:58:41.742Z</time></trkpt><trkpt lat="43.40404134043274" lon="12.02630559409554"><ele>964.8000000000001</ele><time>2026-04-11T09:58:43.733Z</time></trkpt><trkpt lat="43.4041154719045" lon="12.026339688962887"><ele>963.4000000000001</ele><time>2026-04-11T09:58:44.742Z</time></trkpt><trkpt lat="43.404181595476985" lon="12.026392406882584"><ele>962.0</ele><time>2026-04-11T09:58:45.741Z</time></trkpt><trkpt lat="43.4042439906536" lon="12.026458304922066"><ele>962.0</ele><time>2026-04-11T09:58:46.743Z</time></trkpt><trkpt lat="43.40430181172958" lon="12.026494504398578"><ele>962.0</ele><time>2026-04-11T09:58:47.742Z</time></trkpt><trkpt lat="43.40440343525296" lon="12.026431536637599"><ele>962.0</ele><time>2026-04-11T09:58:49.742Z</time></trkpt><trkpt lat="43.404403212403466" lon="12.026241924205278"><ele>962.0</ele><time>2026-04-11T09:58:51.733Z</time></trkpt><trkpt lat="43.404354112161585" lon="12.026121012327508"><ele>962.0</ele><time>2026-04-11T09:58:52.734Z</time></trkpt><trkpt lat="43.40429976609441" lon="12.025986542470788"><ele>962.0</ele><time>2026-04-11T09:58:53.741Z</time></trkpt><trkpt lat="43.40423668772796" lon="12.025870810594908"><ele>962.0</ele><time>2026-04-11T09:58:54.742Z</time></trkpt><trkpt lat="43.40418247997057" lon="12.025774827064769"><ele>962.0</ele><time>2026-04-11T09:58:55.741Z</time></trkpt><trkpt lat="43.40411162475604" lon="12.025693504228471"><ele>962.0</ele><time>2026-04-11T09:58:56.742Z</time></trkpt><trkpt lat="43.40404146858791" lon="12.025618073247342"><ele>962.0</ele><time>2026-04-11T09:58:57.741Z</time></trkpt><trkpt lat="43.4039825984208" lon="12.025554399188898"><ele>959.6</ele><time>2026-04-11T09:58:58.742Z</time></trkpt><trkpt lat="43.403963142550964" lon="12.025430073082148"><ele>957.2</ele><time>2026-04-11T09:59:00.742Z</time></trkpt><trkpt lat="43.404006503031766" lon="12.0253533399164"><ele>954.8</ele><time>2026-04-11T09:59:01.742Z</time></trkpt><trkpt lat="43.404076789301755" lon="12.025302870556901"><ele>952.4</ele><time>2026-04-11T09:59:02.741Z</time></trkpt><trkpt lat="43.40427303535373" lon="12.02524092842841"><ele>950.0</ele><time>2026-04-11T09:59:04.742Z</time></trkpt><trkpt lat="43.40436237233158" lon="12.025212660236717"><ele>950.0000000000001</ele><time>2026-04-11T09:59:05.742Z</time></trkpt><trkpt lat="43.40444189119141" lon="12.025220212691561"><ele>950.0</ele><time>2026-04-11T09:59:06.742Z</time></trkpt><trkpt lat="43.404512333316426" lon="12.025241117901285"><ele>950.0</ele><time>2026-04-11T09:59:07.741Z</time></trkpt><trkpt lat="43.40458979746588" lon="12.025276594178381"><ele>950.0</ele><time>2026-04-11T09:59:08.734Z</time></trkpt><trkpt lat="43.404677498800716" lon="12.025317035378292"><ele>950.0000000000001</ele><time>2026-04-11T09:59:09.741Z</time></trkpt><trkpt lat="43.40477686148014" lon="12.025383586500384"><ele>950.0</ele><time>2026-04-11T09:59:10.741Z</time></trkpt><trkpt lat="43.40489781393931" lon="12.02545564303464"><ele>948.8333333333334</ele><time>2026-04-11T09:59:11.741Z</time></trkpt><trkpt lat="43.404995835858415" lon="12.02551676713928"><ele>947.6666666666667</ele><time>2026-04-11T09:59:12.733Z</time></trkpt><trkpt lat="43.4050572959815" lon="12.025544455611017"><ele>946.5</ele><time>2026-04-11T09:59:13.741Z</time></trkpt><trkpt lat="43.40513461507153" lon="12.025601483414368"><ele>945.3333333333333</ele><time>2026-04-11T09:59:14.742Z</time></trkpt><trkpt lat="43.405193308543566" lon="12.02564884718868"><ele>944.1666666666666</ele><time>2026-04-11T09:59:15.742Z</time></trkpt><trkpt lat="43.405277718694826" lon="12.02571275347916"><ele>943.0</ele><time>2026-04-11T09:59:17.742Z</time></trkpt><trkpt lat="43.40535495406281" lon="12.025693711625664"><ele>943.0</ele><time>2026-04-11T09:59:53.732Z</time></trkpt><trkpt lat="43.40536091190532" lon="12.025396381576577"><ele>943.0</ele><time>2026-04-11T09:59:56.743Z</time></trkpt><trkpt lat="43.405323228918945" lon="12.02523508975934"><ele>943.0</ele><time>2026-04-11T09:59:57.741Z</time></trkpt><trkpt lat="43.405301795523926" lon="12.02508487178948"><ele>940.9999999999999</ele><time>2026-04-11T09:59:58.74Z</time></trkpt><trkpt lat="43.40526660385316" lon="12.024948569320571"><ele>939.0</ele><time>2026-04-11T09:59:59.741Z</time></trkpt><trkpt lat="43.40523723909131" lon="12.024847865639707"><ele>937.0</ele><time>2026-04-11T10:00:00.741Z</time></trkpt><trkpt lat="43.40522884894841" lon="12.02475822869798"><ele>935.0</ele><time>2026-04-11T10:00:01.741Z</time></trkpt><trkpt lat="43.40525659045159" lon="12.024673676632649"><ele>932.9999999999999</ele><time>2026-04-11T10:00:02.735Z</time></trkpt><trkpt lat="43.40532720264669" lon="12.024622491580237"><ele>931.0</ele><time>2026-04-11T10:00:03.741Z</time></trkpt><trkpt lat="43.40539594488836" lon="12.02460562144764"><ele>931.0</ele><time>2026-04-11T10:00:04.733Z</time></trkpt><trkpt lat="43.40545877498878" lon="12.024584181546533"><ele>930.9999999999999</ele><time>2026-04-11T10:00:05.733Z</time></trkpt><trkpt lat="43.405551105049646" lon="12.024554446065345"><ele>930.9999999999999</ele><time>2026-04-11T10:00:07.742Z</time></trkpt><trkpt lat="43.405619860471226" lon="12.024513418612495"><ele>931.0</ele><time>2026-04-11T10:00:10.743Z</time></trkpt><trkpt lat="43.405703890551386" lon="12.0244510711009"><ele>931.0</ele><time>2026-04-11T10:01:46.744Z</time></trkpt><trkpt lat="43.40589650855085" lon="12.024336465087593"><ele>931.5714285714286</ele><time>2026-04-11T10:01:49.743Z</time></trkpt><trkpt lat="43.40596810331488" lon="12.0243080504152"><ele>932.1428571428571</ele><time>2026-04-11T10:01:50.743Z</time></trkpt><trkpt lat="43.4060351518204" lon="12.024283250415543"><ele>932.7142857142858</ele><time>2026-04-11T10:01:51.733Z</time></trkpt><trkpt lat="43.40609750524362" lon="12.024252181392155"><ele>933.2857142857143</ele><time>2026-04-11T10:01:52.735Z</time></trkpt><trkpt lat="43.40616030143746" lon="12.024203388024652"><ele>933.8571428571429</ele><time>2026-04-11T10:01:53.734Z</time></trkpt><trkpt lat="43.40622021443917" lon="12.024162835461375"><ele>934.4285714285716</ele><time>2026-04-11T10:01:54.734Z</time></trkpt><trkpt lat="43.40627855448125" lon="12.02411656190094"><ele>935.0000000000001</ele><time>2026-04-11T10:01:55.734Z</time></trkpt><trkpt lat="43.40633549723249" lon="12.024050151052503"><ele>935.0000000000001</ele><time>2026-04-11T10:01:56.734Z</time></trkpt><trkpt lat="43.40640575656297" lon="12.023987044501974"><ele>935.0</ele><time>2026-04-11T10:01:57.742Z</time></trkpt><trkpt lat="43.40646561655352" lon="12.023929399476874"><ele>935.0</ele><time>2026-04-11T10:01:58.744Z</time></trkpt><trkpt lat="43.406528812487984" lon="12.02387234043563"><ele>935.0</ele><time>2026-04-11T10:01:59.741Z</time></trkpt><trkpt lat="43.406592466558" lon="12.023814810793123"><ele>935.0000000000001</ele><time>2026-04-11T10:02:00.744Z</time></trkpt><trkpt lat="43.40665492786144" lon="12.023763401269717"><ele>935.0</ele><time>2026-04-11T10:02:01.742Z</time></trkpt><trkpt lat="43.406726574280505" lon="12.023704207609816"><ele>935.0000000000001</ele><time>2026-04-11T10:02:02.742Z</time></trkpt><trkpt lat="43.40679661168218" lon="12.023659942095218"><ele>935.0</ele><time>2026-04-11T10:02:03.743Z</time></trkpt><trkpt lat="43.40686888708317" lon="12.023625409513489"><ele>935.0</ele><time>2026-04-11T10:02:04.743Z</time></trkpt><trkpt lat="43.40694026242612" lon="12.023591508819614"><ele>935.0</ele><time>2026-04-11T10:02:05.741Z</time></trkpt><trkpt lat="43.40701415458795" lon="12.023583244326662"><ele>935.0000000000001</ele><time>2026-04-11T10:02:06.742Z</time></trkpt><trkpt lat="43.407102075750885" lon="12.023573434793997"><ele>935.0</ele><time>2026-04-11T10:02:07.734Z</time></trkpt><trkpt lat="43.40726776274802" lon="12.023562078150405"><ele>935.8333333333334</ele><time>2026-04-11T10:02:09.742Z</time></trkpt><trkpt lat="43.407348833332314" lon="12.023537839949464"><ele>936.6666666666667</ele><time>2026-04-11T10:02:10.744Z</time></trkpt><trkpt lat="43.407426355210966" lon="12.023514338753603"><ele>937.5</ele><time>2026-04-11T10:02:11.743Z</time></trkpt><trkpt lat="43.40751359880405" lon="12.023483625259168"><ele>938.3333333333333</ele><time>2026-04-11T10:02:12.742Z</time></trkpt><trkpt lat="43.40759751091922" lon="12.023453237776382"><ele>939.1666666666666</ele><time>2026-04-11T10:02:13.742Z</time></trkpt><trkpt lat="43.4076861745251" lon="12.023408882272733"><ele>940.0</ele><time>2026-04-11T10:02:14.743Z</time></trkpt><trkpt lat="43.407762387096916" lon="12.023374712957455"><ele>939.9999999999999</ele><time>2026-04-11T10:02:15.742Z</time></trkpt><trkpt lat="43.407833491734486" lon="12.023344996311042"><ele>940.0</ele><time>2026-04-11T10:02:16.74Z</time></trkpt><trkpt lat="43.40790412625584" lon="12.023306184544984"><ele>940.0</ele><time>2026-04-11T10:02:17.743Z</time></trkpt><trkpt lat="43.407979375748866" lon="12.023264063377479"><ele>940.0</ele><time>2026-04-11T10:02:18.735Z</time></trkpt><trkpt lat="43.40807082182218" lon="12.023217670760465"><ele>939.9999999999999</ele><time>2026-04-11T10:02:19.743Z</time></trkpt><trkpt lat="43.408162075288075" lon="12.023172417625595"><ele>940.0</ele><time>2026-04-11T10:02:20.734Z</time></trkpt><trkpt lat="43.40825777149514" lon="12.02312822879502"><ele>939.0</ele><time>2026-04-11T10:02:21.735Z</time></trkpt><trkpt lat="43.408349036319834" lon="12.023081504891557"><ele>938.0</ele><time>2026-04-11T10:02:22.735Z</time></trkpt><trkpt lat="43.408433146082466" lon="12.023049569551356"><ele>937.0</ele><time>2026-04-11T10:02:23.734Z</time></trkpt><trkpt lat="43.408496564263984" lon="12.023014458956874"><ele>936.0</ele><time>2026-04-11T10:02:24.735Z</time></trkpt><trkpt lat="43.40859418234481" lon="12.022946253956253"><ele>935.0</ele><time>2026-04-11T10:02:26.743Z</time></trkpt><trkpt lat="43.4086909953369" lon="12.022912122246883"><ele>935.0</ele><time>2026-04-11T10:02:28.744Z</time></trkpt><trkpt lat="43.40884944669585" lon="12.022829339162625"><ele>935.0</ele><time>2026-04-11T10:02:30.744Z</time></trkpt><trkpt lat="43.40892630359179" lon="12.022760699315297"><ele>935.0</ele><time>2026-04-11T10:02:31.743Z</time></trkpt><trkpt lat="43.40899618292398" lon="12.022669796414199"><ele>935.0</ele><time>2026-04-11T10:02:32.743Z</time></trkpt><trkpt lat="43.409079647033515" lon="12.022582236287915"><ele>935.0000000000001</ele><time>2026-04-11T10:02:33.742Z</time></trkpt><trkpt lat="43.40912431279363" lon="12.022500645246271"><ele>935.0</ele><time>2026-04-11T10:02:34.741Z</time></trkpt><trkpt lat="43.40917048952776" lon="12.022436917159833"><ele>935.0</ele><time>2026-04-11T10:02:35.743Z</time></trkpt><trkpt lat="43.40922362676648" lon="12.022368542907776"><ele>935.0</ele><time>2026-04-11T10:02:36.743Z</time></trkpt><trkpt lat="43.409263857895084" lon="12.022267117253149"><ele>935.0000000000001</ele><time>2026-04-11T10:02:37.742Z</time></trkpt><trkpt lat="43.40932441570415" lon="12.02216067323788"><ele>935.0</ele><time>2026-04-11T10:02:38.742Z</time></trkpt><trkpt lat="43.40937885085636" lon="12.022071391768936"><ele>933.6666666666667</ele><time>2026-04-11T10:02:39.735Z</time></trkpt><trkpt lat="43.40940988308938" lon="12.02197776592107"><ele>932.3333333333334</ele><time>2026-04-11T10:02:40.743Z</time></trkpt><trkpt lat="43.40949839551262" lon="12.02186198834131"><ele>931.0</ele><time>2026-04-11T10:02:42.743Z</time></trkpt><trkpt lat="43.40956206684413" lon="12.02183847798703"><ele>929.6666666666667</ele><time>2026-04-11T10:02:43.742Z</time></trkpt><trkpt lat="43.409632759617544" lon="12.021848972882328"><ele>928.3333333333334</ele><time>2026-04-11T10:02:44.732Z</time></trkpt><trkpt lat="43.40972849224308" lon="12.021876076276792"><ele>927.0</ele><time>2026-04-11T10:02:45.732Z</time></trkpt><trkpt lat="43.40982221543564" lon="12.021909871412657"><ele>925.75</ele><time>2026-04-11T10:02:46.742Z</time></trkpt><trkpt lat="43.40994901835252" lon="12.021930337650046"><ele>924.5</ele><time>2026-04-11T10:02:48.741Z</time></trkpt><trkpt lat="43.410025206548774" lon="12.021944187714325"><ele>923.25</ele><time>2026-04-11T10:02:49.741Z</time></trkpt><trkpt lat="43.41021608085797" lon="12.021946664399142"><ele>922.0</ele><time>2026-04-11T10:02:51.742Z</time></trkpt><trkpt lat="43.41030954068261" lon="12.021934018745437"><ele>921.9999999999999</ele><time>2026-04-11T10:02:52.739Z</time></trkpt><trkpt lat="43.41039367062551" lon="12.021938473710742"><ele>922.0</ele><time>2026-04-11T10:02:53.741Z</time></trkpt><trkpt lat="43.41048410893022" lon="12.021955057426258"><ele>922.0</ele><time>2026-04-11T10:02:54.744Z</time></trkpt><trkpt lat="43.410578551866365" lon="12.021995740306602"><ele>922.0</ele><time>2026-04-11T10:02:55.741Z</time></trkpt><trkpt lat="43.410661129729995" lon="12.022025528968985"><ele>921.9999999999999</ele><time>2026-04-11T10:02:56.742Z</time></trkpt><trkpt lat="43.41073234758598" lon="12.022006465514787"><ele>922.0</ele><time>2026-04-11T10:02:57.738Z</time></trkpt><trkpt lat="43.41080035074001" lon="12.021949951460428"><ele>922.8</ele><time>2026-04-11T10:02:58.741Z</time></trkpt><trkpt lat="43.41087435638975" lon="12.021876926873027"><ele>923.6</ele><time>2026-04-11T10:02:59.734Z</time></trkpt><trkpt lat="43.41096654597551" lon="12.021836723889813"><ele>924.3999999999999</ele><time>2026-04-11T10:03:00.743Z</time></trkpt><trkpt lat="43.411058654167434" lon="12.021813822187418"><ele>925.1999999999999</ele><time>2026-04-11T10:03:01.741Z</time></trkpt><trkpt lat="43.41115734330079" lon="12.021784235074922"><ele>926.0</ele><time>2026-04-11T10:03:02.742Z</time></trkpt><trkpt lat="43.4112426317044" lon="12.021733537489894"><ele>926.0000000000001</ele><time>2026-04-11T10:03:03.742Z</time></trkpt><trkpt lat="43.41130514326377" lon="12.021674561278616"><ele>926.0</ele><time>2026-04-11T10:03:04.744Z</time></trkpt><trkpt lat="43.411385885288134" lon="12.02160910770715"><ele>926.0</ele><time>2026-04-11T10:03:05.743Z</time></trkpt><trkpt lat="43.41147270767758" lon="12.021570029814502"><ele>926.0</ele><time>2026-04-11T10:03:06.744Z</time></trkpt><trkpt lat="43.41155147202383" lon="12.021554973691021"><ele>926.0000000000001</ele><time>2026-04-11T10:03:07.744Z</time></trkpt><trkpt lat="43.41162627041524" lon="12.021544213266447"><ele>926.0</ele><time>2026-04-11T10:03:08.745Z</time></trkpt><trkpt lat="43.411704751622345" lon="12.021520076565526"><ele>927.25</ele><time>2026-04-11T10:03:09.743Z</time></trkpt><trkpt lat="43.41178860409267" lon="12.02150133775636"><ele>928.5</ele><time>2026-04-11T10:03:10.739Z</time></trkpt><trkpt lat="43.41194295795942" lon="12.021340459004335"><ele>929.75</ele><time>2026-04-11T10:03:13.737Z</time></trkpt><trkpt lat="43.41197859930963" lon="12.021235095607521"><ele>931.0</ele><time>2026-04-11T10:03:14.743Z</time></trkpt><trkpt lat="43.41201241932956" lon="12.021118566814362"><ele>931.0</ele><time>2026-04-11T10:03:15.743Z</time></trkpt><trkpt lat="43.41204640187233" lon="12.020993205687043"><ele>930.9999999999999</ele><time>2026-04-11T10:03:16.743Z</time></trkpt><trkpt lat="43.412072058444274" lon="12.02087800827814"><ele>930.9999999999999</ele><time>2026-04-11T10:03:17.742Z</time></trkpt><trkpt lat="43.41209191436157" lon="12.020756256196162"><ele>931.0</ele><time>2026-04-11T10:03:18.743Z</time></trkpt><trkpt lat="43.41209675774863" lon="12.020634648602805"><ele>931.0</ele><time>2026-04-11T10:03:19.742Z</time></trkpt><trkpt lat="43.412079774607975" lon="12.020515931452247"><ele>929.1666666666666</ele><time>2026-04-11T10:03:20.742Z</time></trkpt><trkpt lat="43.41205917754895" lon="12.02041309506923"><ele>927.3333333333333</ele><time>2026-04-11T10:03:21.743Z</time></trkpt><trkpt lat="43.41205281909684" lon="12.020311486191265"><ele>925.5</ele><time>2026-04-11T10:03:22.742Z</time></trkpt><trkpt lat="43.41203700542114" lon="12.020210309131077"><ele>923.6666666666667</ele><time>2026-04-11T10:03:23.742Z</time></trkpt><trkpt lat="43.412000889159444" lon="12.020050626700906"><ele>921.8333333333334</ele><time>2026-04-11T10:03:25.742Z</time></trkpt><trkpt lat="43.41198628184435" lon="12.019945674242281"><ele>920.0</ele><time>2026-04-11T10:03:26.742Z</time></trkpt><trkpt lat="43.41197007313341" lon="12.019830159624124"><ele>918.8</ele><time>2026-04-11T10:03:27.741Z</time></trkpt><trkpt lat="43.411951931916555" lon="12.01973799653557"><ele>917.6</ele><time>2026-04-11T10:03:28.734Z</time></trkpt><trkpt lat="43.411976900928586" lon="12.019567027233258"><ele>916.4000000000001</ele><time>2026-04-11T10:03:30.734Z</time></trkpt><trkpt lat="43.4120283527519" lon="12.019493252341437"><ele>915.2</ele><time>2026-04-11T10:03:31.743Z</time></trkpt><trkpt lat="43.41218618772849" lon="12.019469664404458"><ele>914.0</ele><time>2026-04-11T10:03:33.742Z</time></trkpt><trkpt lat="43.41228978768299" lon="12.019482896622177"><ele>914.0000000000001</ele><time>2026-04-11T10:03:34.742Z</time></trkpt><trkpt lat="43.412373630651665" lon="12.019487392933335"><ele>914.0</ele><time>2026-04-11T10:03:35.741Z</time></trkpt><trkpt lat="43.412451839561385" lon="12.019490885009082"><ele>914.0</ele><time>2026-04-11T10:03:36.742Z</time></trkpt><trkpt lat="43.41257136809236" lon="12.019524988530334"><ele>914.0</ele><time>2026-04-11T10:03:38.741Z</time></trkpt><trkpt lat="43.41261936745747" lon="12.019595333357971"><ele>914.0000000000001</ele><time>2026-04-11T10:03:39.741Z</time></trkpt><trkpt lat="43.412679738719206" lon="12.019658486841838"><ele>914.0</ele><time>2026-04-11T10:03:40.741Z</time></trkpt><trkpt lat="43.41275069884386" lon="12.01972397636995"><ele>914.0</ele><time>2026-04-11T10:03:41.741Z</time></trkpt><trkpt lat="43.4128226243951" lon="12.019762727203105"><ele>914.0000000000001</ele><time>2026-04-11T10:03:42.744Z</time></trkpt><trkpt lat="43.41289863385136" lon="12.019807737541976"><ele>914.0000000000001</ele><time>2026-04-11T10:03:43.743Z</time></trkpt><trkpt lat="43.41298467550776" lon="12.019869378618589"><ele>914.0</ele><time>2026-04-11T10:03:44.743Z</time></trkpt><trkpt lat="43.41305779643092" lon="12.019974006648571"><ele>914.0</ele><time>2026-04-11T10:03:45.741Z</time></trkpt><trkpt lat="43.41312026103109" lon="12.02007675526079"><ele>913.3333333333334</ele><time>2026-04-11T10:03:46.736Z</time></trkpt><trkpt lat="43.41317244893922" lon="12.020153270678254"><ele>912.6666666666667</ele><time>2026-04-11T10:03:47.742Z</time></trkpt><trkpt lat="43.41322773188961" lon="12.02020847222039"><ele>912.0</ele><time>2026-04-11T10:03:48.743Z</time></trkpt><trkpt lat="43.41328018168922" lon="12.020258477640208"><ele>911.3333333333333</ele><time>2026-04-11T10:03:49.743Z</time></trkpt><trkpt lat="43.41333792345926" lon="12.020311340117182"><ele>910.6666666666666</ele><time>2026-04-11T10:03:50.743Z</time></trkpt><trkpt lat="43.41339132738225" lon="12.020361381293155"><ele>910.0</ele><time>2026-04-11T10:03:51.74Z</time></trkpt><trkpt lat="43.413495811006676" lon="12.02043464981421"><ele>910.0</ele><time>2026-04-11T10:03:53.744Z</time></trkpt><trkpt lat="43.41359114932108" lon="12.020237171616007"><ele>910.0</ele><time>2026-04-11T10:03:56.743Z</time></trkpt><trkpt lat="43.41358967765088" lon="12.02013050368753"><ele>910.0</ele><time>2026-04-11T10:03:57.742Z</time></trkpt><trkpt lat="43.413597892275824" lon="12.020021401005378"><ele>910.0</ele><time>2026-04-11T10:03:58.743Z</time></trkpt><trkpt lat="43.41366922155334" lon="12.019879291758818"><ele>910.2</ele><time>2026-04-11T10:04:00.742Z</time></trkpt><trkpt lat="43.41373238953371" lon="12.019766694897367"><ele>910.4</ele><time>2026-04-11T10:04:01.732Z</time></trkpt><trkpt lat="43.4137749361837" lon="12.019660549621108"><ele>910.5999999999999</ele><time>2026-04-11T10:04:02.742Z</time></trkpt><trkpt lat="43.41383381397696" lon="12.019564205180187"><ele>910.8</ele><time>2026-04-11T10:04:03.742Z</time></trkpt><trkpt lat="43.41388647844919" lon="12.01947955501442"><ele>911.0</ele><time>2026-04-11T10:04:04.731Z</time></trkpt><trkpt lat="43.41394751009226" lon="12.0193798844857"><ele>911.0000000000001</ele><time>2026-04-11T10:04:05.733Z</time></trkpt><trkpt lat="43.41399357584667" lon="12.019287767048288"><ele>911.0</ele><time>2026-04-11T10:04:06.734Z</time></trkpt><trkpt lat="43.41405355039238" lon="12.0192258551815"><ele>911.0</ele><time>2026-04-11T10:04:07.734Z</time></trkpt><trkpt lat="43.41409724159059" lon="12.019147664466972"><ele>911.0</ele><time>2026-04-11T10:04:08.743Z</time></trkpt><trkpt lat="43.414138894614666" lon="12.018971099951164"><ele>911.0000000000001</ele><time>2026-04-11T10:04:10.742Z</time></trkpt><trkpt lat="43.41419634605559" lon="12.01891094361082"><ele>911.0</ele><time>2026-04-11T10:04:12.743Z</time></trkpt><trkpt lat="43.414283085743115" lon="12.01880831611273"><ele>907.0</ele><time>2026-04-11T10:04:14.741Z</time></trkpt><trkpt lat="43.414478466367775" lon="12.018736960453992"><ele>903.0</ele><time>2026-04-11T10:04:17.736Z</time></trkpt><trkpt lat="43.4146018271757" lon="12.018742419099873"><ele>899.0</ele><time>2026-04-11T10:04:18.742Z</time></trkpt><trkpt lat="43.414708749051066" lon="12.018756350886303"><ele>895.0</ele><time>2026-04-11T10:04:19.732Z</time></trkpt><trkpt lat="43.41482396253245" lon="12.018771455431503"><ele>894.1666666666666</ele><time>2026-04-11T10:04:20.74Z</time></trkpt><trkpt lat="43.41492461674472" lon="12.018795344412455"><ele>893.3333333333333</ele><time>2026-04-11T10:04:21.741Z</time></trkpt><trkpt lat="43.41500205943197" lon="12.018781256818427"><ele>892.5</ele><time>2026-04-11T10:04:22.743Z</time></trkpt><trkpt lat="43.41509372424418" lon="12.018765602859673"><ele>891.6666666666667</ele><time>2026-04-11T10:04:23.741Z</time></trkpt><trkpt lat="43.41517582177402" lon="12.01874782904867"><ele>890.8333333333334</ele><time>2026-04-11T10:04:24.742Z</time></trkpt><trkpt lat="43.41526020920537" lon="12.018714719657446"><ele>890.0</ele><time>2026-04-11T10:04:25.741Z</time></trkpt><trkpt lat="43.415339353578" lon="12.018727274082165"><ele>890.0000000000001</ele><time>2026-04-11T10:04:26.742Z</time></trkpt><trkpt lat="43.415435793354504" lon="12.01874020381859"><ele>890.0</ele><time>2026-04-11T10:04:27.742Z</time></trkpt><trkpt lat="43.41553393146895" lon="12.01877850245168"><ele>890.0</ele><time>2026-04-11T10:04:28.742Z</time></trkpt><trkpt lat="43.41561116678459" lon="12.018833603662847"><ele>890.0</ele><time>2026-04-11T10:04:29.743Z</time></trkpt><trkpt lat="43.41566793869539" lon="12.018904006843078"><ele>890.0000000000001</ele><time>2026-04-11T10:04:30.742Z</time></trkpt><trkpt lat="43.41572494618268" lon="12.018980715683643"><ele>890.0</ele><time>2026-04-11T10:04:31.74Z</time></trkpt><trkpt lat="43.41580239260058" lon="12.019055043036788"><ele>890.0</ele><time>2026-04-11T10:04:32.742Z</time></trkpt><trkpt lat="43.415944652820656" lon="12.019098693690713"><ele>890.0</ele><time>2026-04-11T10:04:34.742Z</time></trkpt><trkpt lat="43.416035657653225" lon="12.019118102936003"><ele>890.0</ele><time>2026-04-11T10:04:35.741Z</time></trkpt><trkpt lat="43.41627453194911" lon="12.019160986729515"><ele>890.25</ele><time>2026-04-11T10:04:37.742Z</time></trkpt><trkpt lat="43.41640760607769" lon="12.019154893929448"><ele>890.5</ele><time>2026-04-11T10:04:38.743Z</time></trkpt><trkpt lat="43.41653597790791" lon="12.019134829565553"><ele>890.75</ele><time>2026-04-11T10:04:39.735Z</time></trkpt><trkpt lat="43.4166528372017" lon="12.019101855570142"><ele>891.0</ele><time>2026-04-11T10:04:40.744Z</time></trkpt><trkpt lat="43.41672834091358" lon="12.019053768796216"><ele>891.0</ele><time>2026-04-11T10:04:41.733Z</time></trkpt><trkpt lat="43.416797956967166" lon="12.019000196095556"><ele>890.9999999999999</ele><time>2026-04-11T10:04:42.742Z</time></trkpt><trkpt lat="43.41683354225352" lon="12.018926942847012"><ele>890.9999999999999</ele><time>2026-04-11T10:04:43.742Z</time></trkpt><trkpt lat="43.41684692941233" lon="12.018713876812427"><ele>891.0</ele><time>2026-04-11T10:04:45.742Z</time></trkpt><trkpt lat="43.4168559383604" lon="12.018600793006549"><ele>891.0</ele><time>2026-04-11T10:04:46.741Z</time></trkpt><trkpt lat="43.416867527357915" lon="12.018481517566071"><ele>891.0</ele><time>2026-04-11T10:04:47.742Z</time></trkpt><trkpt lat="43.41689847163863" lon="12.0184004262532"><ele>890.9999999999999</ele><time>2026-04-11T10:04:48.734Z</time></trkpt><trkpt lat="43.4169875415284" lon="12.018379963127332"><ele>890.9999999999999</ele><time>2026-04-11T10:04:50.743Z</time></trkpt><trkpt lat="43.41712456606698" lon="12.018359552507789"><ele>891.0</ele><time>2026-04-11T10:04:52.742Z</time></trkpt><trkpt lat="43.41724578965217" lon="12.018291748121548"><ele>891.0</ele><time>2026-04-11T10:04:54.743Z</time></trkpt><trkpt lat="43.417313273825165" lon="12.018266604552094"><ele>891.5999999999999</ele><time>2026-04-11T10:04:55.744Z</time></trkpt><trkpt lat="43.417411294764115" lon="12.018313612892134"><ele>892.1999999999999</ele><time>2026-04-11T10:04:57.744Z</time></trkpt><trkpt lat="43.417528688500475" lon="12.018411750859192"><ele>892.8000000000001</ele><time>2026-04-11T10:04:59.743Z</time></trkpt><trkpt lat="43.41759424266485" lon="12.018424765683863"><ele>893.4000000000001</ele><time>2026-04-11T10:05:00.744Z</time></trkpt><trkpt lat="43.417714827412595" lon="12.01846267344914"><ele>894.0</ele><time>2026-04-11T10:05:02.744Z</time></trkpt><trkpt lat="43.417833261893975" lon="12.018546797577892"><ele>895.1666666666666</ele><time>2026-04-11T10:05:04.745Z</time></trkpt><trkpt lat="43.41795006849471" lon="12.018557514730421"><ele>896.3333333333333</ele><time>2026-04-11T10:05:06.746Z</time></trkpt><trkpt lat="43.41800878361539" lon="12.018600627936058"><ele>897.5</ele><time>2026-04-11T10:05:07.743Z</time></trkpt><trkpt lat="43.418081677714845" lon="12.01867491700092"><ele>898.6666666666666</ele><time>2026-04-11T10:05:08.743Z</time></trkpt><trkpt lat="43.41814564158572" lon="12.018734704898142"><ele>899.8333333333333</ele><time>2026-04-11T10:05:09.741Z</time></trkpt><trkpt lat="43.41821767826568" lon="12.018778152642785"><ele>901.0</ele><time>2026-04-11T10:05:10.743Z</time></trkpt><trkpt lat="43.4183006003295" lon="12.018795791848545"><ele>902.1666666666666</ele><time>2026-04-11T10:05:12.743Z</time></trkpt><trkpt lat="43.41836202869523" lon="12.018846079224526"><ele>903.3333333333333</ele><time>2026-04-11T10:05:13.743Z</time></trkpt><trkpt lat="43.418433255723905" lon="12.018908754919892"><ele>904.5</ele><time>2026-04-11T10:05:14.743Z</time></trkpt><trkpt lat="43.41848646311814" lon="12.018967744419376"><ele>905.6666666666667</ele><time>2026-04-11T10:05:15.743Z</time></trkpt><trkpt lat="43.41854115026986" lon="12.019041576530444"><ele>906.8333333333334</ele><time>2026-04-11T10:05:16.743Z</time></trkpt><trkpt lat="43.41861228064061" lon="12.019084034905166"><ele>908.0</ele><time>2026-04-11T10:05:17.743Z</time></trkpt><trkpt lat="43.4186985469632" lon="12.019079101849423"><ele>909.0</ele><time>2026-04-11T10:05:18.743Z</time></trkpt><trkpt lat="43.41885689595267" lon="12.019019950700484"><ele>910.0</ele><time>2026-04-11T10:05:20.744Z</time></trkpt><trkpt lat="43.41894814924097" lon="12.019050012698521"><ele>911.0</ele><time>2026-04-11T10:05:21.743Z</time></trkpt><trkpt lat="43.41903601291612" lon="12.019094403825148"><ele>912.0</ele><time>2026-04-11T10:05:22.744Z</time></trkpt><trkpt lat="43.41910241196618" lon="12.019134377630952"><ele>913.0</ele><time>2026-04-11T10:05:23.743Z</time></trkpt><trkpt lat="43.419180059661755" lon="12.019174477209315"><ele>912.9999999999999</ele><time>2026-04-11T10:05:24.743Z</time></trkpt><trkpt lat="43.41926847564824" lon="12.019205817959376"><ele>913.0</ele><time>2026-04-11T10:05:26.741Z</time></trkpt><trkpt lat="43.41934481884847" lon="12.019200755892456"><ele>913.0</ele><time>2026-04-11T10:05:35.741Z</time></trkpt><trkpt lat="43.419455725711586" lon="12.019231545565656"><ele>913.0</ele><time>2026-04-11T10:05:37.734Z</time></trkpt><trkpt lat="43.41952897774997" lon="12.019212179273653"><ele>912.9999999999999</ele><time>2026-04-11T10:05:38.742Z</time></trkpt><trkpt lat="43.41959995396448" lon="12.019180186992033"><ele>913.0</ele><time>2026-04-11T10:05:39.742Z</time></trkpt><trkpt lat="43.4197549775874" lon="12.019218438083268"><ele>914.8</ele><time>2026-04-11T10:05:41.743Z</time></trkpt><trkpt lat="43.41983212142472" lon="12.01929254614953"><ele>916.5999999999999</ele><time>2026-04-11T10:05:42.743Z</time></trkpt><trkpt lat="43.41987714117221" lon="12.019361019753497"><ele>918.4000000000001</ele><time>2026-04-11T10:05:43.743Z</time></trkpt><trkpt lat="43.41993339472988" lon="12.019435615569856"><ele>920.2</ele><time>2026-04-11T10:05:44.744Z</time></trkpt><trkpt lat="43.42003495108754" lon="12.019524324247111"><ele>922.0</ele><time>2026-04-11T10:05:46.743Z</time></trkpt><trkpt lat="43.420161484896425" lon="12.019546888394126"><ele>921.9999999999999</ele><time>2026-04-11T10:05:48.743Z</time></trkpt><trkpt lat="43.42023777399571" lon="12.01955463613322"><ele>922.0</ele><time>2026-04-11T10:05:49.743Z</time></trkpt><trkpt lat="43.420297558604695" lon="12.019594969081917"><ele>922.0</ele><time>2026-04-11T10:05:50.743Z</time></trkpt><trkpt lat="43.420384500072586" lon="12.019672723617548"><ele>922.0</ele><time>2026-04-11T10:05:52.745Z</time></trkpt><trkpt lat="43.42043205410364" lon="12.019755049261713"><ele>921.9999999999999</ele><time>2026-04-11T10:05:53.743Z</time></trkpt><trkpt lat="43.42046347497665" lon="12.019851095684704"><ele>922.0</ele><time>2026-04-11T10:05:54.744Z</time></trkpt><trkpt lat="43.42051087764342" lon="12.019944454792235"><ele>922.1666666666666</ele><time>2026-04-11T10:05:55.743Z</time></trkpt><trkpt lat="43.42054596814264" lon="12.020044198456967"><ele>922.3333333333333</ele><time>2026-04-11T10:05:56.744Z</time></trkpt><trkpt lat="43.42059055497424" lon="12.020108770151461"><ele>922.5</ele><time>2026-04-11T10:05:57.743Z</time></trkpt><trkpt lat="43.42063702525414" lon="12.020196374654198"><ele>922.6666666666667</ele><time>2026-04-11T10:05:58.743Z</time></trkpt><trkpt lat="43.42065964529682" lon="12.020293313692658"><ele>922.8333333333334</ele><time>2026-04-11T10:05:59.737Z</time></trkpt><trkpt lat="43.42067043977334" lon="12.020380331995028"><ele>923.0</ele><time>2026-04-11T10:06:00.743Z</time></trkpt><trkpt lat="43.42078872809975" lon="12.020529471369573"><ele>923.0000000000001</ele><time>2026-04-11T10:06:02.743Z</time></trkpt><trkpt lat="43.42083961688759" lon="12.020601619250787"><ele>923.0</ele><time>2026-04-11T10:06:03.741Z</time></trkpt><trkpt lat="43.42086337894204" lon="12.020706672099035"><ele>923.0</ele><time>2026-04-11T10:06:04.743Z</time></trkpt><trkpt lat="43.42091167615808" lon="12.020804342157044"><ele>923.0</ele><time>2026-04-11T10:06:05.733Z</time></trkpt><trkpt lat="43.42098244452858" lon="12.020880306868987"><ele>923.0000000000001</ele><time>2026-04-11T10:06:06.741Z</time></trkpt><trkpt lat="43.42105522618967" lon="12.0209415030293"><ele>923.0</ele><time>2026-04-11T10:06:07.742Z</time></trkpt><trkpt lat="43.42111939195098" lon="12.021027885298821"><ele>920.8</ele><time>2026-04-11T10:06:08.742Z</time></trkpt><trkpt lat="43.4211624954809" lon="12.021141946655831"><ele>918.5999999999999</ele><time>2026-04-11T10:06:09.742Z</time></trkpt><trkpt lat="43.42116947066785" lon="12.021264410733568"><ele>916.4000000000001</ele><time>2026-04-11T10:06:10.744Z</time></trkpt><trkpt lat="43.421135873159976" lon="12.021400533899"><ele>914.2</ele><time>2026-04-11T10:06:11.743Z</time></trkpt><trkpt lat="43.42110696860263" lon="12.021514021471392"><ele>912.0</ele><time>2026-04-11T10:06:12.744Z</time></trkpt><trkpt lat="43.421073249467305" lon="12.021655376470633"><ele>910.7142857142857</ele><time>2026-04-11T10:06:13.743Z</time></trkpt><trkpt lat="43.42106691862263" lon="12.021763487958909"><ele>909.4285714285713</ele><time>2026-04-11T10:06:14.744Z</time></trkpt><trkpt lat="43.42106739296621" lon="12.021853473822022"><ele>908.1428571428571</ele><time>2026-04-11T10:06:15.743Z</time></trkpt><trkpt lat="43.421071734443736" lon="12.021948259365875"><ele>906.8571428571429</ele><time>2026-04-11T10:06:16.744Z</time></trkpt><trkpt lat="43.42109874228563" lon="12.022046527359608"><ele>905.5714285714286</ele><time>2026-04-11T10:06:17.743Z</time></trkpt><trkpt lat="43.42115496574015" lon="12.022133834419595"><ele>904.2857142857142</ele><time>2026-04-11T10:06:18.743Z</time></trkpt><trkpt lat="43.42119351721183" lon="12.02220349781852"><ele>903.0</ele><time>2026-04-11T10:06:19.736Z</time></trkpt><trkpt lat="43.42122074727415" lon="12.02228830337857"><ele>903.0</ele><time>2026-04-11T10:06:20.744Z</time></trkpt><trkpt lat="43.4212576965159" lon="12.022446016933765"><ele>903.0</ele><time>2026-04-11T10:06:22.744Z</time></trkpt><trkpt lat="43.42141994689333" lon="12.022622024424892"><ele>903.0</ele><time>2026-04-11T10:06:25.744Z</time></trkpt><trkpt lat="43.42146878759557" lon="12.022692421550458"><ele>903.0</ele><time>2026-04-11T10:06:26.744Z</time></trkpt><trkpt lat="43.42152503890154" lon="12.022851076533536"><ele>903.5</ele><time>2026-04-11T10:06:28.744Z</time></trkpt><trkpt lat="43.42156400307276" lon="12.0229295235935"><ele>904.0</ele><time>2026-04-11T10:06:29.742Z</time></trkpt><trkpt lat="43.421614377961525" lon="12.023025277700958"><ele>904.5</ele><time>2026-04-11T10:06:30.742Z</time></trkpt><trkpt lat="43.42166685525756" lon="12.0230934814886"><ele>905.0</ele><time>2026-04-11T10:06:31.741Z</time></trkpt><trkpt lat="43.42172079766574" lon="12.023155179876895"><ele>905.5</ele><time>2026-04-11T10:06:32.743Z</time></trkpt><trkpt lat="43.421832864330796" lon="12.023214552424417"><ele>906.0</ele><time>2026-04-11T10:06:34.743Z</time></trkpt><trkpt lat="43.42194552809649" lon="12.02320758088133"><ele>906.0</ele><time>2026-04-11T10:06:36.738Z</time></trkpt><trkpt lat="43.42204127808281" lon="12.023257447338237"><ele>906.0</ele><time>2026-04-11T10:06:38.739Z</time></trkpt><trkpt lat="43.42209963855255" lon="12.023295749698647"><ele>906.0</ele><time>2026-04-11T10:06:39.74Z</time></trkpt><trkpt lat="43.422169001315154" lon="12.023338334401368"><ele>906.0</ele><time>2026-04-11T10:06:40.741Z</time></trkpt><trkpt lat="43.422229772168286" lon="12.023388188309557"><ele>906.0</ele><time>2026-04-11T10:06:41.742Z</time></trkpt><trkpt lat="43.42230240023149" lon="12.023430311352966"><ele>906.0</ele><time>2026-04-11T10:06:43.741Z</time></trkpt><trkpt lat="43.42248427498781" lon="12.023428675548885"><ele>902.5999999999999</ele><time>2026-04-11T10:06:46.742Z</time></trkpt><trkpt lat="43.42258768321111" lon="12.02343254731079"><ele>899.1999999999999</ele><time>2026-04-11T10:06:47.74Z</time></trkpt><trkpt lat="43.42266711594542" lon="12.0234690382974"><ele>895.8000000000001</ele><time>2026-04-11T10:06:48.741Z</time></trkpt><trkpt lat="43.42276228888552" lon="12.023513285887416"><ele>892.4000000000001</ele><time>2026-04-11T10:06:49.742Z</time></trkpt><trkpt lat="43.422842023592864" lon="12.023542798717353"><ele>889.0</ele><time>2026-04-11T10:06:50.742Z</time></trkpt><trkpt lat="43.4229254079919" lon="12.023580920824402"><ele>886.6666666666666</ele><time>2026-04-11T10:06:51.742Z</time></trkpt><trkpt lat="43.422986240225526" lon="12.02363172371962"><ele>884.3333333333333</ele><time>2026-04-11T10:06:52.743Z</time></trkpt><trkpt lat="43.4230348245064" lon="12.023712808080333"><ele>882.0</ele><time>2026-04-11T10:06:53.742Z</time></trkpt><trkpt lat="43.42308027218226" lon="12.023782842726726"><ele>879.6666666666667</ele><time>2026-04-11T10:06:54.741Z</time></trkpt><trkpt lat="43.42314044616225" lon="12.023871554071501"><ele>877.3333333333334</ele><time>2026-04-11T10:06:55.742Z</time></trkpt><trkpt lat="43.42321585106997" lon="12.023907238389306"><ele>875.0</ele><time>2026-04-11T10:06:56.742Z</time></trkpt><trkpt lat="43.42330828910214" lon="12.023933537334809"><ele>875.0000000000001</ele><time>2026-04-11T10:06:57.74Z</time></trkpt><trkpt lat="43.423401987903645" lon="12.023970748488031"><ele>875.0</ele><time>2026-04-11T10:06:58.742Z</time></trkpt><trkpt lat="43.423465423812296" lon="12.02403911453679"><ele>875.0</ele><time>2026-04-11T10:06:59.741Z</time></trkpt><trkpt lat="43.42353256275482" lon="12.024075561518929"><ele>875.0</ele><time>2026-04-11T10:07:00.742Z</time></trkpt><trkpt lat="43.42361414358778" lon="12.02408296390466"><ele>875.0000000000001</ele><time>2026-04-11T10:07:01.741Z</time></trkpt><trkpt lat="43.423699003580026" lon="12.024061777720622"><ele>875.0</ele><time>2026-04-11T10:07:02.742Z</time></trkpt><trkpt lat="43.42378519359588" lon="12.024066288882075"><ele>872.6</ele><time>2026-04-11T10:07:03.741Z</time></trkpt><trkpt lat="43.42385454889588" lon="12.02408654616115"><ele>870.2</ele><time>2026-04-11T10:07:04.733Z</time></trkpt><trkpt lat="43.42407322175082" lon="12.024116814013164"><ele>867.8</ele><time>2026-04-11T10:07:07.741Z</time></trkpt><trkpt lat="43.424156211117776" lon="12.024152126046227"><ele>865.4</ele><time>2026-04-11T10:07:08.741Z</time></trkpt><trkpt lat="43.424224478073796" lon="12.02417334042403"><ele>863.0</ele><time>2026-04-11T10:07:09.741Z</time></trkpt><trkpt lat="43.42434749742789" lon="12.024161497497845"><ele>863.0</ele><time>2026-04-11T10:07:11.741Z</time></trkpt><trkpt lat="43.42442441711545" lon="12.024104661631778"><ele>863.0</ele><time>2026-04-11T10:07:12.74Z</time></trkpt><trkpt lat="43.42447580524498" lon="12.024035407173107"><ele>863.0</ele><time>2026-04-11T10:07:13.742Z</time></trkpt><trkpt lat="43.42459690049257" lon="12.023998588849397"><ele>863.0</ele><time>2026-04-11T10:07:15.742Z</time></trkpt><trkpt lat="43.42469452453964" lon="12.02402623676005"><ele>863.0</ele><time>2026-04-11T10:07:16.742Z</time></trkpt><trkpt lat="43.42480914870417" lon="12.024087766564005"><ele>861.6666666666667</ele><time>2026-04-11T10:07:17.742Z</time></trkpt><trkpt lat="43.42488991256214" lon="12.024112863368764"><ele>860.3333333333334</ele><time>2026-04-11T10:07:18.742Z</time></trkpt><trkpt lat="43.42497287493" lon="12.024119954763133"><ele>859.0</ele><time>2026-04-11T10:07:19.741Z</time></trkpt><trkpt lat="43.42504930792432" lon="12.024132084346919"><ele>857.6666666666667</ele><time>2026-04-11T10:07:20.743Z</time></trkpt><trkpt lat="43.42511789886544" lon="12.024158976118105"><ele>856.3333333333334</ele><time>2026-04-11T10:07:21.742Z</time></trkpt><trkpt lat="43.42517702421298" lon="12.024222979833167"><ele>855.0</ele><time>2026-04-11T10:07:22.742Z</time></trkpt><trkpt lat="43.425233852366624" lon="12.024264339207065"><ele>855.75</ele><time>2026-04-11T10:07:23.741Z</time></trkpt><trkpt lat="43.425341093703445" lon="12.024340802190238"><ele>856.5</ele><time>2026-04-11T10:07:25.742Z</time></trkpt><trkpt lat="43.425489309141625" lon="12.024517988578825"><ele>857.25</ele><time>2026-04-11T10:07:28.742Z</time></trkpt><trkpt lat="43.42554053901356" lon="12.024680196844503"><ele>858.0</ele><time>2026-04-11T10:07:30.74Z</time></trkpt><trkpt lat="43.425503048554205" lon="12.024839709270552"><ele>858.5</ele><time>2026-04-11T10:07:32.742Z</time></trkpt><trkpt lat="43.42546086326552" lon="12.024922552632807"><ele>859.0</ele><time>2026-04-11T10:07:33.743Z</time></trkpt><trkpt lat="43.42545122487096" lon="12.025108489234428"><ele>859.5</ele><time>2026-04-11T10:07:35.743Z</time></trkpt><trkpt lat="43.42544720128922" lon="12.025228962472342"><ele>860.0</ele><time>2026-04-11T10:07:36.743Z</time></trkpt><trkpt lat="43.42546366105192" lon="12.025316891794064"><ele>860.5</ele><time>2026-04-11T10:07:37.742Z</time></trkpt><trkpt lat="43.4254988818526" lon="12.02541668489532"><ele>861.0</ele><time>2026-04-11T10:07:38.742Z</time></trkpt><trkpt lat="43.425532741599234" lon="12.025530918670892"><ele>861.0</ele><time>2026-04-11T10:07:39.735Z</time></trkpt><trkpt lat="43.4255606514118" lon="12.02562802842486"><ele>860.9999999999999</ele><time>2026-04-11T10:07:40.742Z</time></trkpt><trkpt lat="43.42563259188013" lon="12.02580029166941"><ele>860.9999999999999</ele><time>2026-04-11T10:07:42.742Z</time></trkpt><trkpt lat="43.42566241762526" lon="12.025899902521592"><ele>861.0</ele><time>2026-04-11T10:07:43.741Z</time></trkpt><trkpt lat="43.425709327445425" lon="12.025986955302784"><ele>861.0</ele><time>2026-04-11T10:07:44.741Z</time></trkpt><trkpt lat="43.42576648248649" lon="12.02608005673694"><ele>861.1999999999999</ele><time>2026-04-11T10:07:45.742Z</time></trkpt><trkpt lat="43.42583129450766" lon="12.026135944629726"><ele>861.3999999999999</ele><time>2026-04-11T10:07:46.743Z</time></trkpt><trkpt lat="43.42592713729487" lon="12.026292034890908"><ele>861.6</ele><time>2026-04-11T10:07:49.743Z</time></trkpt><trkpt lat="43.42590027743125" lon="12.02640234719169"><ele>861.8</ele><time>2026-04-11T10:07:50.741Z</time></trkpt><trkpt lat="43.42586202945004" lon="12.02655405366798"><ele>862.0</ele><time>2026-04-11T10:07:51.742Z</time></trkpt><trkpt lat="43.42580505397078" lon="12.026614677229851"><ele>861.0</ele><time>2026-04-11T10:07:52.743Z</time></trkpt><trkpt lat="43.42574124772334" lon="12.026699673451803"><ele>860.0</ele><time>2026-04-11T10:07:53.742Z</time></trkpt><trkpt lat="43.42567122145292" lon="12.026778919149338"><ele>859.0</ele><time>2026-04-11T10:07:54.742Z</time></trkpt><trkpt lat="43.425610431106506" lon="12.026855081156393"><ele>858.0</ele><time>2026-04-11T10:07:55.743Z</time></trkpt><trkpt lat="43.42555809772629" lon="12.026935432292829"><ele>857.0</ele><time>2026-04-11T10:07:56.742Z</time></trkpt><trkpt lat="43.42553351329139" lon="12.027129647234787"><ele>857.0</ele><time>2026-04-11T10:07:58.742Z</time></trkpt><trkpt lat="43.4255375823123" lon="12.027336422959765"><ele>857.0</ele><time>2026-04-11T10:08:00.742Z</time></trkpt><trkpt lat="43.425538716687676" lon="12.027479046755804"><ele>857.0</ele><time>2026-04-11T10:08:01.743Z</time></trkpt><trkpt lat="43.425536010180664" lon="12.027610233756038"><ele>857.0</ele><time>2026-04-11T10:08:02.743Z</time></trkpt><trkpt lat="43.42553043310747" lon="12.027709808639278"><ele>857.0</ele><time>2026-04-11T10:08:03.742Z</time></trkpt><trkpt lat="43.42552357134781" lon="12.027826278875196"><ele>854.5</ele><time>2026-04-11T10:08:04.743Z</time></trkpt><trkpt lat="43.42554852941052" lon="12.027937319841397"><ele>852.0</ele><time>2026-04-11T10:08:05.742Z</time></trkpt><trkpt lat="43.425593459185514" lon="12.028044520178883"><ele>849.5</ele><time>2026-04-11T10:08:06.735Z</time></trkpt><trkpt lat="43.42564209937561" lon="12.028165347893967"><ele>847.0</ele><time>2026-04-11T10:08:07.743Z</time></trkpt><trkpt lat="43.42568995186688" lon="12.028450429898909"><ele>845.3333333333333</ele><time>2026-04-11T10:08:09.734Z</time></trkpt><trkpt lat="43.42570049109993" lon="12.028569878433634"><ele>843.6666666666666</ele><time>2026-04-11T10:08:10.744Z</time></trkpt><trkpt lat="43.4257203178785" lon="12.028683257220322"><ele>842.0</ele><time>2026-04-11T10:08:11.743Z</time></trkpt><trkpt lat="43.42575158962589" lon="12.028786984651768"><ele>840.3333333333333</ele><time>2026-04-11T10:08:12.743Z</time></trkpt><trkpt lat="43.42580174908844" lon="12.028843370159121"><ele>838.6666666666666</ele><time>2026-04-11T10:08:13.735Z</time></trkpt><trkpt lat="43.425877316736795" lon="12.028862921046294"><ele>837.0</ele><time>2026-04-11T10:08:14.743Z</time></trkpt><trkpt lat="43.4259709756963" lon="12.028861226599387"><ele>837.0</ele><time>2026-04-11T10:08:15.742Z</time></trkpt><trkpt lat="43.426063326080175" lon="12.02884099979591"><ele>837.0</ele><time>2026-04-11T10:08:16.743Z</time></trkpt><trkpt lat="43.426153110021964" lon="12.028845469823374"><ele>837.0</ele><time>2026-04-11T10:08:17.742Z</time></trkpt><trkpt lat="43.42625317298679" lon="12.028893708978462"><ele>837.0</ele><time>2026-04-11T10:08:18.741Z</time></trkpt><trkpt lat="43.42633537715978" lon="12.028965345216633"><ele>837.0</ele><time>2026-04-11T10:08:19.74Z</time></trkpt><trkpt lat="43.42640358833235" lon="12.029058228711"><ele>834.5</ele><time>2026-04-11T10:08:20.742Z</time></trkpt><trkpt lat="43.42647959164471" lon="12.029147683130383"><ele>832.0</ele><time>2026-04-11T10:08:21.734Z</time></trkpt><trkpt lat="43.426550783180716" lon="12.029219196127114"><ele>829.5</ele><time>2026-04-11T10:08:22.743Z</time></trkpt><trkpt lat="43.42660744690609" lon="12.02928147252414"><ele>827.0</ele><time>2026-04-11T10:08:23.743Z</time></trkpt><trkpt lat="43.42670332564668" lon="12.029352409586341"><ele>824.5</ele><time>2026-04-11T10:08:25.743Z</time></trkpt><trkpt lat="43.42677481096619" lon="12.029400337814044"><ele>822.0</ele><time>2026-04-11T10:08:27.742Z</time></trkpt><trkpt lat="43.426860485892426" lon="12.029458581801062"><ele>822.0</ele><time>2026-04-11T10:08:29.741Z</time></trkpt><trkpt lat="43.427013530605656" lon="12.029596688701023"><ele>822.0</ele><time>2026-04-11T10:08:33.742Z</time></trkpt><trkpt lat="43.42707996431387" lon="12.029620321123327"><ele>822.0</ele><time>2026-04-11T10:08:35.741Z</time></trkpt><trkpt lat="43.42716652367534" lon="12.029732891388166"><ele>822.0</ele><time>2026-04-11T10:08:38.742Z</time></trkpt><trkpt lat="43.427201141365614" lon="12.02981004689145"><ele>822.0</ele><time>2026-04-11T10:08:39.742Z</time></trkpt><trkpt lat="43.42720386830592" lon="12.029938558978587"><ele>821.8333333333334</ele><time>2026-04-11T10:08:40.74Z</time></trkpt><trkpt lat="43.42718386756948" lon="12.030050766543882"><ele>821.6666666666667</ele><time>2026-04-11T10:08:41.741Z</time></trkpt><trkpt lat="43.427184851657366" lon="12.030166741367832"><ele>821.5</ele><time>2026-04-11T10:08:42.744Z</time></trkpt><trkpt lat="43.42721930791937" lon="12.03026385983515"><ele>821.3333333333334</ele><time>2026-04-11T10:08:43.74Z</time></trkpt><trkpt lat="43.427263605024436" lon="12.030346327404487"><ele>821.1666666666667</ele><time>2026-04-11T10:08:44.742Z</time></trkpt><trkpt lat="43.42731801643857" lon="12.030455527549478"><ele>821.0</ele><time>2026-04-11T10:08:45.742Z</time></trkpt><trkpt lat="43.427355174789845" lon="12.030575603375285"><ele>821.0</ele><time>2026-04-11T10:08:46.742Z</time></trkpt><trkpt lat="43.42736055983507" lon="12.030676750291049"><ele>821.0</ele><time>2026-04-11T10:08:47.742Z</time></trkpt><trkpt lat="43.42739391152519" lon="12.030798364639939"><ele>821.0</ele><time>2026-04-11T10:08:48.743Z</time></trkpt><trkpt lat="43.42745987678654" lon="12.030870655477113"><ele>821.0</ele><time>2026-04-11T10:08:49.743Z</time></trkpt><trkpt lat="43.42754191084202" lon="12.030917218136375"><ele>821.0</ele><time>2026-04-11T10:08:50.743Z</time></trkpt><trkpt lat="43.42767715581114" lon="12.03099063082108"><ele>822.5000000000001</ele><time>2026-04-11T10:08:52.744Z</time></trkpt><trkpt lat="43.4277399372031" lon="12.031014026536463"><ele>824.0</ele><time>2026-04-11T10:08:53.743Z</time></trkpt><trkpt lat="43.4278010777128" lon="12.031049725171346"><ele>825.5</ele><time>2026-04-11T10:08:54.743Z</time></trkpt><trkpt lat="43.42788054706081" lon="12.031124673175885"><ele>827.0</ele><time>2026-04-11T10:08:55.741Z</time></trkpt><trkpt lat="43.427955739242826" lon="12.031185496596304"><ele>828.5000000000001</ele><time>2026-04-11T10:08:56.743Z</time></trkpt><trkpt lat="43.42804360138777" lon="12.031237645294329"><ele>830.0</ele><time>2026-04-11T10:08:58.744Z</time></trkpt><trkpt lat="43.42810542199314" lon="12.031297881269117"><ele>831.8333333333334</ele><time>2026-04-11T10:08:59.743Z</time></trkpt><trkpt lat="43.428167228613646" lon="12.031363548333967"><ele>833.6666666666667</ele><time>2026-04-11T10:09:00.744Z</time></trkpt><trkpt lat="43.42822758472608" lon="12.031436309023572"><ele>835.5</ele><time>2026-04-11T10:09:01.743Z</time></trkpt><trkpt lat="43.42829640345719" lon="12.031505140033858"><ele>837.3333333333333</ele><time>2026-04-11T10:09:02.743Z</time></trkpt><trkpt lat="43.428365707699136" lon="12.031587218190428"><ele>839.1666666666666</ele><time>2026-04-11T10:09:03.743Z</time></trkpt><trkpt lat="43.42844628688733" lon="12.03168946165275"><ele>841.0</ele><time>2026-04-11T10:09:04.742Z</time></trkpt><trkpt lat="43.42851482045" lon="12.031792888951259"><ele>841.1999999999999</ele><time>2026-04-11T10:09:05.743Z</time></trkpt><trkpt lat="43.428575628773224" lon="12.03186470574628"><ele>841.4</ele><time>2026-04-11T10:09:06.743Z</time></trkpt><trkpt lat="43.428654459833254" lon="12.031933678613505"><ele>841.6</ele><time>2026-04-11T10:09:07.742Z</time></trkpt><trkpt lat="43.42874458610838" lon="12.032027489083207"><ele>841.8</ele><time>2026-04-11T10:09:08.744Z</time></trkpt><trkpt lat="43.42879891063403" lon="12.032109956202357"><ele>842.0</ele><time>2026-04-11T10:09:09.742Z</time></trkpt><trkpt lat="43.4288255688311" lon="12.032222568675127"><ele>842.0</ele><time>2026-04-11T10:09:10.743Z</time></trkpt><trkpt lat="43.42886125872718" lon="12.03236157315501"><ele>842.0</ele><time>2026-04-11T10:09:11.743Z</time></trkpt><trkpt lat="43.42894971074003" lon="12.032593838495616"><ele>842.0</ele><time>2026-04-11T10:09:13.743Z</time></trkpt><trkpt lat="43.42900557146509" lon="12.032706072474596"><ele>842.0</ele><time>2026-04-11T10:09:14.743Z</time></trkpt><trkpt lat="43.42906052539338" lon="12.032813852715206"><ele>843.0</ele><time>2026-04-11T10:09:15.743Z</time></trkpt><trkpt lat="43.429138256963654" lon="12.032923583382397"><ele>844.0</ele><time>2026-04-11T10:09:16.743Z</time></trkpt><trkpt lat="43.4292258734335" lon="12.033006367849502"><ele>845.0</ele><time>2026-04-11T10:09:17.743Z</time></trkpt><trkpt lat="43.429305865671544" lon="12.033062680599985"><ele>846.0</ele><time>2026-04-11T10:09:18.734Z</time></trkpt><trkpt lat="43.42938581865885" lon="12.033105701781167"><ele>847.0</ele><time>2026-04-11T10:09:19.732Z</time></trkpt><trkpt lat="43.42946570002032" lon="12.03315366096211"><ele>847.0</ele><time>2026-04-11T10:09:20.734Z</time></trkpt><trkpt lat="43.42953792610848" lon="12.033210022611645"><ele>847.0</ele><time>2026-04-11T10:09:21.743Z</time></trkpt><trkpt lat="43.42962509149536" lon="12.033306976985534"><ele>847.0</ele><time>2026-04-11T10:09:22.743Z</time></trkpt><trkpt lat="43.429732444052604" lon="12.033380269292854"><ele>847.0</ele><time>2026-04-11T10:09:23.743Z</time></trkpt><trkpt lat="43.42985632091416" lon="12.033469439023225"><ele>848.4000000000001</ele><time>2026-04-11T10:09:24.743Z</time></trkpt><trkpt lat="43.429972387175305" lon="12.033553604799689"><ele>849.8000000000001</ele><time>2026-04-11T10:09:25.742Z</time></trkpt><trkpt lat="43.43006685618386" lon="12.03363677714104"><ele>851.2</ele><time>2026-04-11T10:09:26.743Z</time></trkpt><trkpt lat="43.43015108742837" lon="12.033712489466646"><ele>852.6</ele><time>2026-04-11T10:09:27.742Z</time></trkpt><trkpt lat="43.43022802957441" lon="12.033793553631643"><ele>854.0</ele><time>2026-04-11T10:09:28.744Z</time></trkpt><trkpt lat="43.43030148241413" lon="12.033860727241466"><ele>854.0</ele><time>2026-04-11T10:09:29.742Z</time></trkpt><trkpt lat="43.4303741894197" lon="12.033896127579695"><ele>854.0</ele><time>2026-04-11T10:09:30.743Z</time></trkpt><trkpt lat="43.430472475741084" lon="12.033929698550006"><ele>854.0</ele><time>2026-04-11T10:09:31.741Z</time></trkpt><trkpt lat="43.43057142979582" lon="12.033943939996414"><ele>854.0</ele><time>2026-04-11T10:09:32.743Z</time></trkpt><trkpt lat="43.430741032185175" lon="12.034009315862694"><ele>854.6</ele><time>2026-04-11T10:09:34.743Z</time></trkpt><trkpt lat="43.43081401584919" lon="12.034069091912725"><ele>855.2</ele><time>2026-04-11T10:09:36.743Z</time></trkpt><trkpt lat="43.430860672675124" lon="12.034143882704425"><ele>855.8000000000001</ele><time>2026-04-11T10:09:57.736Z</time></trkpt><trkpt lat="43.43102373985243" lon="12.034246084743641"><ele>856.4000000000001</ele><time>2026-04-11T10:10:02.743Z</time></trkpt><trkpt lat="43.431074826194816" lon="12.034355279141822"><ele>857.0</ele><time>2026-04-11T10:10:16.744Z</time></trkpt><trkpt lat="43.43103464053515" lon="12.034474066716767"><ele>857.0</ele><time>2026-04-11T10:10:18.741Z</time></trkpt><trkpt lat="43.4308940653048" lon="12.03463794402356"><ele>857.0</ele><time>2026-04-11T10:10:21.742Z</time></trkpt><trkpt lat="43.4308549787239" lon="12.03471103405527"><ele>857.0</ele><time>2026-04-11T10:10:22.743Z</time></trkpt><trkpt lat="43.43083440966524" lon="12.034795082397716"><ele>857.0</ele><time>2026-04-11T10:10:23.743Z</time></trkpt><trkpt lat="43.4308022566197" lon="12.034903428250152"><ele>857.0</ele><time>2026-04-11T10:10:24.742Z</time></trkpt><trkpt lat="43.430786818476676" lon="12.034999625937674"><ele>857.0000000000001</ele><time>2026-04-11T10:10:25.735Z</time></trkpt><trkpt lat="43.43076772472939" lon="12.035093665514138"><ele>857.0</ele><time>2026-04-11T10:10:26.743Z</time></trkpt><trkpt lat="43.43076301090922" lon="12.035191417036158"><ele>857.0</ele><time>2026-04-11T10:10:27.743Z</time></trkpt><trkpt lat="43.43075614511518" lon="12.03528577782482"><ele>857.0</ele><time>2026-04-11T10:10:28.745Z</time></trkpt><trkpt lat="43.43078734331652" lon="12.035374272731657"><ele>857.0000000000001</ele><time>2026-04-11T10:10:29.743Z</time></trkpt><trkpt lat="43.430885563312515" lon="12.03540363482738"><ele>857.0</ele><time>2026-04-11T10:10:31.742Z</time></trkpt><trkpt lat="43.430962150600166" lon="12.035441543288773"><ele>857.0000000000001</ele><time>2026-04-11T10:10:32.743Z</time></trkpt><trkpt lat="43.43102600709678" lon="12.035470930436636"><ele>857.0</ele><time>2026-04-11T10:10:33.743Z</time></trkpt><trkpt lat="43.43109094402774" lon="12.035487195118538"><ele>857.0</ele><time>2026-04-11T10:10:34.744Z</time></trkpt><trkpt lat="43.43115998183752" lon="12.03550218825466"><ele>857.0</ele><time>2026-04-11T10:10:35.742Z</time></trkpt><trkpt lat="43.43128641951996" lon="12.035551252432064"><ele>857.0000000000001</ele><time>2026-04-11T10:10:37.732Z</time></trkpt><trkpt lat="43.431369523326886" lon="12.035591569219514"><ele>857.0</ele><time>2026-04-11T10:10:38.74Z</time></trkpt><trkpt lat="43.431464483805506" lon="12.035658561433616"><ele>853.5</ele><time>2026-04-11T10:10:39.742Z</time></trkpt><trkpt lat="43.43162858302318" lon="12.035834762055947"><ele>850.0</ele><time>2026-04-11T10:10:41.742Z</time></trkpt><trkpt lat="43.431664789049805" lon="12.035929097089674"><ele>846.5</ele><time>2026-04-11T10:10:42.743Z</time></trkpt><trkpt lat="43.43171353267681" lon="12.035997525339395"><ele>843.0</ele><time>2026-04-11T10:10:43.735Z</time></trkpt><trkpt lat="43.43182264002394" lon="12.036074777102467"><ele>843.0</ele><time>2026-04-11T10:10:45.742Z</time></trkpt><trkpt lat="43.43190458469916" lon="12.036075081100858"><ele>843.0</ele><time>2026-04-11T10:10:46.744Z</time></trkpt><trkpt lat="43.43199784801272" lon="12.036056269715484"><ele>843.0</ele><time>2026-04-11T10:10:47.743Z</time></trkpt><trkpt lat="43.432086082916584" lon="12.036030257808664"><ele>843.0</ele><time>2026-04-11T10:10:48.744Z</time></trkpt><trkpt lat="43.432149242565906" lon="12.036007762517716"><ele>843.0</ele><time>2026-04-11T10:10:49.742Z</time></trkpt><trkpt lat="43.43222082940851" lon="12.03601740875977"><ele>843.0</ele><time>2026-04-11T10:10:50.744Z</time></trkpt><trkpt lat="43.43229347452312" lon="12.036197695772966"><ele>841.2</ele><time>2026-04-11T10:10:52.743Z</time></trkpt><trkpt lat="43.432351782291406" lon="12.036303956099022"><ele>839.4</ele><time>2026-04-11T10:10:53.742Z</time></trkpt><trkpt lat="43.432406452450756" lon="12.03644335846882"><ele>837.6</ele><time>2026-04-11T10:10:54.743Z</time></trkpt><trkpt lat="43.43245256061267" lon="12.036567188611068"><ele>835.8000000000001</ele><time>2026-04-11T10:10:55.743Z</time></trkpt><trkpt lat="43.4325062337098" lon="12.036686726358292"><ele>834.0</ele><time>2026-04-11T10:10:56.741Z</time></trkpt><trkpt lat="43.43256616038723" lon="12.03678756416106"><ele>834.0</ele><time>2026-04-11T10:10:57.743Z</time></trkpt><trkpt lat="43.43260877960387" lon="12.036866797875682"><ele>834.0</ele><time>2026-04-11T10:10:58.744Z</time></trkpt><trkpt lat="43.43266476110065" lon="12.036964033627072"><ele>834.0</ele><time>2026-04-11T10:10:59.735Z</time></trkpt><trkpt lat="43.432709356149076" lon="12.03707742513648"><ele>834.0</ele><time>2026-04-11T10:11:00.742Z</time></trkpt><trkpt lat="43.432772576614845" lon="12.03730473247479"><ele>834.0</ele><time>2026-04-11T10:11:02.742Z</time></trkpt><trkpt lat="43.43285555357938" lon="12.037361428944525"><ele>834.0</ele><time>2026-04-11T10:11:04.743Z</time></trkpt><trkpt lat="43.43291902494701" lon="12.037370780160641"><ele>834.0</ele><time>2026-04-11T10:11:05.742Z</time></trkpt><trkpt lat="43.43298128060842" lon="12.03740230043017"><ele>834.0</ele><time>2026-04-11T10:11:06.742Z</time></trkpt><trkpt lat="43.43303818486787" lon="12.037483291521701"><ele>834.0</ele><time>2026-04-11T10:11:07.742Z</time></trkpt><trkpt lat="43.43306956510386" lon="12.03756358677424"><ele>834.0</ele><time>2026-04-11T10:11:08.743Z</time></trkpt><trkpt lat="43.43312174671125" lon="12.037708274206095"><ele>834.0</ele><time>2026-04-11T10:11:10.742Z</time></trkpt><trkpt lat="43.433171427413114" lon="12.037826072202547"><ele>834.8333333333334</ele><time>2026-04-11T10:11:11.742Z</time></trkpt><trkpt lat="43.43323843535062" lon="12.037910178828252"><ele>835.6666666666667</ele><time>2026-04-11T10:11:12.742Z</time></trkpt><trkpt lat="43.43327932855474" lon="12.037983655272246"><ele>836.5</ele><time>2026-04-11T10:11:13.742Z</time></trkpt><trkpt lat="43.43332394143211" lon="12.03807477032995"><ele>837.3333333333334</ele><time>2026-04-11T10:11:14.742Z</time></trkpt><trkpt lat="43.43335882204687" lon="12.03816335609612"><ele>838.1666666666667</ele><time>2026-04-11T10:11:15.743Z</time></trkpt><trkpt lat="43.433402951544615" lon="12.03825336273884"><ele>839.0</ele><time>2026-04-11T10:11:16.743Z</time></trkpt><trkpt lat="43.43344128566037" lon="12.038325542475855"><ele>839.0</ele><time>2026-04-11T10:11:17.743Z</time></trkpt><trkpt lat="43.43350765290228" lon="12.03841663444316"><ele>839.0</ele><time>2026-04-11T10:11:18.742Z</time></trkpt><trkpt lat="43.43358265587558" lon="12.03849953482175"><ele>839.0</ele><time>2026-04-11T10:11:19.734Z</time></trkpt><trkpt lat="43.433638453420166" lon="12.038589695736556"><ele>839.0</ele><time>2026-04-11T10:11:20.743Z</time></trkpt><trkpt lat="43.43368879686802" lon="12.038702314411847"><ele>839.0</ele><time>2026-04-11T10:11:21.734Z</time></trkpt><trkpt lat="43.43378576757534" lon="12.038899985364862"><ele>839.3333333333334</ele><time>2026-04-11T10:11:23.741Z</time></trkpt><trkpt lat="43.43385542869364" lon="12.03895266452684"><ele>839.6666666666667</ele><time>2026-04-11T10:11:24.733Z</time></trkpt><trkpt lat="43.43394302023255" lon="12.038959028433887"><ele>840.0</ele><time>2026-04-11T10:11:25.742Z</time></trkpt><trkpt lat="43.4340356866749" lon="12.038958003816164"><ele>840.3333333333333</ele><time>2026-04-11T10:11:26.733Z</time></trkpt><trkpt lat="43.43410067592579" lon="12.038991486409197"><ele>840.6666666666666</ele><time>2026-04-11T10:11:27.742Z</time></trkpt><trkpt lat="43.43410295390173" lon="12.03912598130707"><ele>841.0</ele><time>2026-04-11T10:11:29.741Z</time></trkpt><trkpt lat="43.43407228703808" lon="12.039221899445812"><ele>841.4</ele><time>2026-04-11T10:11:30.742Z</time></trkpt><trkpt lat="43.43405015795857" lon="12.039330624223187"><ele>841.8</ele><time>2026-04-11T10:11:31.741Z</time></trkpt><trkpt lat="43.4340141855672" lon="12.039515875131697"><ele>842.1999999999999</ele><time>2026-04-11T10:11:33.736Z</time></trkpt><trkpt lat="43.43398904186588" lon="12.039617406651539"><ele>842.5999999999999</ele><time>2026-04-11T10:11:34.742Z</time></trkpt><trkpt lat="43.43398458454747" lon="12.039723464148333"><ele>843.0</ele><time>2026-04-11T10:11:35.742Z</time></trkpt><trkpt lat="43.433977476030115" lon="12.039840013872995"><ele>843.0</ele><time>2026-04-11T10:11:36.743Z</time></trkpt><trkpt lat="43.43397438637691" lon="12.039943555463273"><ele>843.0</ele><time>2026-04-11T10:11:37.743Z</time></trkpt><trkpt lat="43.43402577577597" lon="12.040085367824169"><ele>843.0</ele><time>2026-04-11T10:11:39.734Z</time></trkpt><trkpt lat="43.4341304798226" lon="12.040166745946621"><ele>843.0</ele><time>2026-04-11T10:11:41.743Z</time></trkpt><trkpt lat="43.43420507205846" lon="12.040168894683989"><ele>843.0</ele><time>2026-04-11T10:11:42.743Z</time></trkpt><trkpt lat="43.43434961893817" lon="12.040250463952868"><ele>844.8</ele><time>2026-04-11T10:11:44.735Z</time></trkpt><trkpt lat="43.43441648033831" lon="12.040313438065223"><ele>846.5999999999999</ele><time>2026-04-11T10:11:45.741Z</time></trkpt><trkpt lat="43.43450747685421" lon="12.040399852336177"><ele>848.4000000000001</ele><time>2026-04-11T10:11:46.743Z</time></trkpt><trkpt lat="43.434589926657296" lon="12.04047350534012"><ele>850.2</ele><time>2026-04-11T10:11:47.742Z</time></trkpt><trkpt lat="43.43468059594468" lon="12.040567946446041"><ele>852.0</ele><time>2026-04-11T10:11:48.742Z</time></trkpt><trkpt lat="43.43476515095745" lon="12.040670897036769"><ele>852.0</ele><time>2026-04-11T10:11:49.734Z</time></trkpt><trkpt lat="43.43484035588093" lon="12.040763617620323"><ele>852.0</ele><time>2026-04-11T10:11:50.743Z</time></trkpt><trkpt lat="43.43489944561501" lon="12.040849703525366"><ele>852.0</ele><time>2026-04-11T10:11:51.742Z</time></trkpt><trkpt lat="43.43494559591235" lon="12.040951066021597"><ele>852.0</ele><time>2026-04-11T10:11:52.743Z</time></trkpt><trkpt lat="43.43500930325023" lon="12.041042864907466"><ele>852.0</ele><time>2026-04-11T10:11:53.742Z</time></trkpt><trkpt lat="43.43507254844824" lon="12.0411190063433"><ele>852.5</ele><time>2026-04-11T10:11:54.742Z</time></trkpt><trkpt lat="43.435136262477" lon="12.041187154233377"><ele>853.0</ele><time>2026-04-11T10:11:55.742Z</time></trkpt><trkpt lat="43.43520612971713" lon="12.04126354110951"><ele>853.5</ele><time>2026-04-11T10:11:56.743Z</time></trkpt><trkpt lat="43.43526905545021" lon="12.041331118947122"><ele>854.0</ele><time>2026-04-11T10:11:57.742Z</time></trkpt><trkpt lat="43.435347714784044" lon="12.041388069349965"><ele>854.5</ele><time>2026-04-11T10:11:58.744Z</time></trkpt><trkpt lat="43.435426171695035" lon="12.041429027269212"><ele>855.0</ele><time>2026-04-11T10:11:59.741Z</time></trkpt><trkpt lat="43.43550155268079" lon="12.041438239765736"><ele>853.6</ele><time>2026-04-11T10:12:00.74Z</time></trkpt><trkpt lat="43.43558475697318" lon="12.041424321119027"><ele>852.2</ele><time>2026-04-11T10:12:01.743Z</time></trkpt><trkpt lat="43.43565651847294" lon="12.04138985049491"><ele>850.8</ele><time>2026-04-11T10:12:02.743Z</time></trkpt><trkpt lat="43.4357287260886" lon="12.041353638925372"><ele>849.4</ele><time>2026-04-11T10:12:03.742Z</time></trkpt><trkpt lat="43.435928203737035" lon="12.041270951379047"><ele>848.0</ele><time>2026-04-11T10:12:05.742Z</time></trkpt><trkpt lat="43.43600547391363" lon="12.041257453324823"><ele>848.0000000000001</ele><time>2026-04-11T10:12:06.742Z</time></trkpt><trkpt lat="43.436073256840146" lon="12.041268906836995"><ele>848.0</ele><time>2026-04-11T10:12:07.742Z</time></trkpt><trkpt lat="43.43614802109615" lon="12.041302352010296"><ele>848.0</ele><time>2026-04-11T10:12:08.734Z</time></trkpt><trkpt lat="43.436237388448575" lon="12.041377827263716"><ele>848.0</ele><time>2026-04-11T10:12:09.742Z</time></trkpt><trkpt lat="43.43632556946481" lon="12.041446395522458"><ele>848.0000000000001</ele><time>2026-04-11T10:12:10.742Z</time></trkpt><trkpt lat="43.436410229192596" lon="12.041492497905628"><ele>848.0</ele><time>2026-04-11T10:12:11.743Z</time></trkpt><trkpt lat="43.43649293758111" lon="12.041541174477105"><ele>845.8333333333334</ele><time>2026-04-11T10:12:12.742Z</time></trkpt><trkpt lat="43.43657382788581" lon="12.041596632260184"><ele>843.6666666666667</ele><time>2026-04-11T10:12:13.742Z</time></trkpt><trkpt lat="43.436639741752124" lon="12.041652379930376"><ele>841.5</ele><time>2026-04-11T10:12:14.734Z</time></trkpt><trkpt lat="43.436699415487595" lon="12.04170034382861"><ele>839.3333333333333</ele><time>2026-04-11T10:12:15.734Z</time></trkpt><trkpt lat="43.43675572364068" lon="12.041739646725834"><ele>837.1666666666666</ele><time>2026-04-11T10:12:16.733Z</time></trkpt><trkpt lat="43.43685738909318" lon="12.041827795748253"><ele>835.0</ele><time>2026-04-11T10:12:18.743Z</time></trkpt><trkpt lat="43.436909292047446" lon="12.04189669268071"><ele>834.9999999999999</ele><time>2026-04-11T10:12:19.741Z</time></trkpt><trkpt lat="43.436976613410756" lon="12.041972585255328"><ele>835.0</ele><time>2026-04-11T10:12:20.743Z</time></trkpt><trkpt lat="43.43704511165571" lon="12.042043515534163"><ele>835.0</ele><time>2026-04-11T10:12:21.743Z</time></trkpt><trkpt lat="43.43712338610307" lon="12.04211840519917"><ele>835.0</ele><time>2026-04-11T10:12:22.734Z</time></trkpt><trkpt lat="43.43719520966294" lon="12.04219871658196"><ele>834.9999999999999</ele><time>2026-04-11T10:12:23.742Z</time></trkpt><trkpt lat="43.43726550900287" lon="12.042257373358273"><ele>835.0</ele><time>2026-04-11T10:12:24.743Z</time></trkpt><trkpt lat="43.4374056622748" lon="12.042354800024409"><ele>833.2</ele><time>2026-04-11T10:12:26.737Z</time></trkpt><trkpt lat="43.4374931610435" lon="12.042289349265412"><ele>831.4</ele><time>2026-04-11T10:12:28.744Z</time></trkpt><trkpt lat="43.43750016852099" lon="12.042167437566325"><ele>829.5999999999999</ele><time>2026-04-11T10:12:30.734Z</time></trkpt><trkpt lat="43.43752560029645" lon="12.042075930275185"><ele>827.8</ele><time>2026-04-11T10:12:33.734Z</time></trkpt><trkpt lat="43.4375440774471" lon="12.041911537860031"><ele>826.0</ele><time>2026-04-11T10:12:44.735Z</time></trkpt><trkpt lat="43.437576325150694" lon="12.041753353454146"><ele>823.1999999999999</ele><time>2026-04-11T10:12:46.744Z</time></trkpt><trkpt lat="43.43764535326439" lon="12.041514041173947"><ele>820.4</ele><time>2026-04-11T10:12:49.741Z</time></trkpt><trkpt lat="43.43771859584423" lon="12.041371064371893"><ele>817.6</ele><time>2026-04-11T10:12:51.732Z</time></trkpt><trkpt lat="43.43776990360391" lon="12.041307459071742"><ele>814.8</ele><time>2026-04-11T10:12:52.741Z</time></trkpt><trkpt lat="43.43782249564695" lon="12.041256807904732"><ele>812.0</ele><time>2026-04-11T10:12:53.741Z</time></trkpt><trkpt lat="43.43788345624979" lon="12.041212921646862"><ele>812.0</ele><time>2026-04-11T10:12:54.742Z</time></trkpt><trkpt lat="43.43794631973151" lon="12.04118800737019"><ele>812.0</ele><time>2026-04-11T10:12:55.74Z</time></trkpt><trkpt lat="43.43800944998485" lon="12.041184271457956"><ele>812.0</ele><time>2026-04-11T10:12:56.741Z</time></trkpt><trkpt lat="43.438073123262946" lon="12.041205339282435"><ele>812.0</ele><time>2026-04-11T10:12:57.74Z</time></trkpt><trkpt lat="43.43813634536544" lon="12.041229245583738"><ele>812.0</ele><time>2026-04-11T10:12:58.741Z</time></trkpt><trkpt lat="43.43823920472172" lon="12.041310827359435"><ele>812.0</ele><time>2026-04-11T10:13:00.74Z</time></trkpt><trkpt lat="43.43830225907273" lon="12.041343212036729"><ele>812.0</ele><time>2026-04-11T10:13:01.74Z</time></trkpt><trkpt lat="43.438376111628315" lon="12.041385299259701"><ele>810.0000000000001</ele><time>2026-04-11T10:13:02.733Z</time></trkpt><trkpt lat="43.4384622707043" lon="12.041419589289958"><ele>808.0</ele><time>2026-04-11T10:13:03.74Z</time></trkpt><trkpt lat="43.438536428134476" lon="12.041446578507257"><ele>806.0</ele><time>2026-04-11T10:13:04.74Z</time></trkpt><trkpt lat="43.43861269826568" lon="12.041454015281303"><ele>804.0</ele><time>2026-04-11T10:13:05.74Z</time></trkpt><trkpt lat="43.43869357342849" lon="12.041423757123042"><ele>802.0000000000001</ele><time>2026-04-11T10:13:06.739Z</time></trkpt><trkpt lat="43.43876786347945" lon="12.041369296656185"><ele>800.0</ele><time>2026-04-11T10:13:07.74Z</time></trkpt><trkpt lat="43.438854289759405" lon="12.0411900597921"><ele>799.4285714285714</ele><time>2026-04-11T10:13:09.741Z</time></trkpt><trkpt lat="43.43885450411106" lon="12.041081091555878"><ele>798.8571428571429</ele><time>2026-04-11T10:13:10.741Z</time></trkpt><trkpt lat="43.43886183609702" lon="12.040974319845365"><ele>798.2857142857142</ele><time>2026-04-11T10:13:11.733Z</time></trkpt><trkpt lat="43.43887054907562" lon="12.040878996614056"><ele>797.7142857142858</ele><time>2026-04-11T10:13:12.742Z</time></trkpt><trkpt lat="43.43885707423409" lon="12.040791321238256"><ele>797.1428571428571</ele><time>2026-04-11T10:13:13.733Z</time></trkpt><trkpt lat="43.4388343704355" lon="12.040694278694613"><ele>796.5714285714286</ele><time>2026-04-11T10:13:14.733Z</time></trkpt><trkpt lat="43.438822503151876" lon="12.040593335584507"><ele>796.0</ele><time>2026-04-11T10:13:15.735Z</time></trkpt><trkpt lat="43.43882692686294" lon="12.040502881498051"><ele>793.8333333333333</ele><time>2026-04-11T10:13:16.733Z</time></trkpt><trkpt lat="43.43884831060319" lon="12.04042075075495"><ele>791.6666666666666</ele><time>2026-04-11T10:13:17.742Z</time></trkpt><trkpt lat="43.43890379837305" lon="12.040268391037982"><ele>789.5</ele><time>2026-04-11T10:13:19.74Z</time></trkpt><trkpt lat="43.43897362180842" lon="12.040125082313928"><ele>787.3333333333333</ele><time>2026-04-11T10:13:21.732Z</time></trkpt><trkpt lat="43.43901036715251" lon="12.040053238800546"><ele>785.1666666666666</ele><time>2026-04-11T10:13:22.733Z</time></trkpt><trkpt lat="43.439056605069744" lon="12.03998481411992"><ele>783.0</ele><time>2026-04-11T10:13:23.74Z</time></trkpt><trkpt lat="43.43910446073231" lon="12.03992226799627"><ele>780.0</ele><time>2026-04-11T10:13:24.742Z</time></trkpt><trkpt lat="43.43921304093049" lon="12.039839494862031"><ele>777.0</ele><time>2026-04-11T10:13:26.742Z</time></trkpt><trkpt lat="43.439280838191614" lon="12.039805846653964"><ele>774.0</ele><time>2026-04-11T10:13:27.741Z</time></trkpt><trkpt lat="43.439394290158525" lon="12.03974601540561"><ele>771.0</ele><time>2026-04-11T10:13:29.741Z</time></trkpt><trkpt lat="43.43952537949601" lon="12.039741183792968"><ele>768.0</ele><time>2026-04-11T10:13:31.74Z</time></trkpt><trkpt lat="43.43960959763833" lon="12.039752152797963"><ele>766.5</ele><time>2026-04-11T10:13:32.741Z</time></trkpt><trkpt lat="43.43968383899092" lon="12.039768367940795"><ele>765.0</ele><time>2026-04-11T10:13:33.742Z</time></trkpt><trkpt lat="43.439757748566855" lon="12.039795652672051"><ele>763.5</ele><time>2026-04-11T10:13:34.741Z</time></trkpt><trkpt lat="43.43982789272778" lon="12.039809348102503"><ele>762.0</ele><time>2026-04-11T10:13:35.741Z</time></trkpt><trkpt lat="43.43989575133274" lon="12.039819155320483"><ele>760.5</ele><time>2026-04-11T10:13:36.742Z</time></trkpt><trkpt lat="43.4400294116777" lon="12.039859373833952"><ele>759.0</ele><time>2026-04-11T10:13:38.741Z</time></trkpt><trkpt lat="43.44008976717146" lon="12.039884345430682"><ele>759.0</ele><time>2026-04-11T10:13:39.74Z</time></trkpt><trkpt lat="43.44015397483787" lon="12.039933842806713"><ele>759.0</ele><time>2026-04-11T10:13:40.742Z</time></trkpt><trkpt lat="43.44021260376135" lon="12.040027742981465"><ele>759.0</ele><time>2026-04-11T10:13:41.741Z</time></trkpt><trkpt lat="43.44024626900294" lon="12.04014430301383"><ele>759.0</ele><time>2026-04-11T10:13:42.732Z</time></trkpt><trkpt lat="43.44027580338332" lon="12.04023629748473"><ele>759.0</ele><time>2026-04-11T10:13:43.741Z</time></trkpt><trkpt lat="43.440318775788015" lon="12.040327138906596"><ele>759.0</ele><time>2026-04-11T10:13:44.742Z</time></trkpt><trkpt lat="43.440398611396915" lon="12.040428618426272"><ele>758.6</ele><time>2026-04-11T10:13:46.741Z</time></trkpt><trkpt lat="43.44044942813005" lon="12.04048572365063"><ele>758.2</ele><time>2026-04-11T10:13:47.739Z</time></trkpt><trkpt lat="43.44049395557964" lon="12.040547531938019"><ele>757.8000000000001</ele><time>2026-04-11T10:13:48.741Z</time></trkpt><trkpt lat="43.44055914614262" lon="12.04063998845756"><ele>757.4000000000001</ele><time>2026-04-11T10:13:49.741Z</time></trkpt><trkpt lat="43.44062979349181" lon="12.040682086821878"><ele>757.0</ele><time>2026-04-11T10:13:50.74Z</time></trkpt><trkpt lat="43.44079691028392" lon="12.040601113885428"><ele>757.0</ele><time>2026-04-11T10:13:53.74Z</time></trkpt><trkpt lat="43.440836287006924" lon="12.040491130341627"><ele>757.0</ele><time>2026-04-11T10:13:54.741Z</time></trkpt><trkpt lat="43.440888561169466" lon="12.040382448745664"><ele>757.0</ele><time>2026-04-11T10:13:55.741Z</time></trkpt><trkpt lat="43.440938476850285" lon="12.04029895447766"><ele>757.0</ele><time>2026-04-11T10:13:56.741Z</time></trkpt><trkpt lat="43.44101409553651" lon="12.040137137323304"><ele>757.0</ele><time>2026-04-11T10:13:58.741Z</time></trkpt><trkpt lat="43.4410365084744" lon="12.040020553533083"><ele>755.0</ele><time>2026-04-11T10:13:59.74Z</time></trkpt><trkpt lat="43.44105371982018" lon="12.03992117026266"><ele>753.0</ele><time>2026-04-11T10:14:00.742Z</time></trkpt><trkpt lat="43.441080922728034" lon="12.039793582522474"><ele>751.0</ele><time>2026-04-11T10:14:01.741Z</time></trkpt><trkpt lat="43.44111433639873" lon="12.039686293520171"><ele>749.0</ele><time>2026-04-11T10:14:02.741Z</time></trkpt><trkpt lat="43.44118269213706" lon="12.039533968494778"><ele>747.0</ele><time>2026-04-11T10:14:03.741Z</time></trkpt><trkpt lat="43.44123860112258" lon="12.039428885925222"><ele>747.0</ele><time>2026-04-11T10:14:04.741Z</time></trkpt><trkpt lat="43.441267537841135" lon="12.039340570228637"><ele>747.0</ele><time>2026-04-11T10:14:05.741Z</time></trkpt><trkpt lat="43.44124028292319" lon="12.039191008468634"><ele>747.0</ele><time>2026-04-11T10:14:07.741Z</time></trkpt><trkpt lat="43.44117225121588" lon="12.03911900939891"><ele>747.0</ele><time>2026-04-11T10:14:08.741Z</time></trkpt><trkpt lat="43.44107748903743" lon="12.039018133437057"><ele>747.0</ele><time>2026-04-11T10:14:09.741Z</time></trkpt><trkpt lat="43.4409795218543" lon="12.038901330583474"><ele>744.8</ele><time>2026-04-11T10:14:10.742Z</time></trkpt><trkpt lat="43.440917900462026" lon="12.03881465558536"><ele>742.6</ele><time>2026-04-11T10:14:11.741Z</time></trkpt><trkpt lat="43.440869403262454" lon="12.038626745456114"><ele>740.4</ele><time>2026-04-11T10:14:13.741Z</time></trkpt><trkpt lat="43.440855717265634" lon="12.038474414419516"><ele>738.1999999999999</ele><time>2026-04-11T10:14:15.741Z</time></trkpt><trkpt lat="43.44080382955055" lon="12.038360865552939"><ele>736.0</ele><time>2026-04-11T10:14:17.741Z</time></trkpt><trkpt lat="43.44072004199777" lon="12.038226037983225"><ele>733.5</ele><time>2026-04-11T10:14:19.732Z</time></trkpt><trkpt lat="43.44066959487318" lon="12.038144504551495"><ele>731.0</ele><time>2026-04-11T10:14:20.741Z</time></trkpt><trkpt lat="43.44056722010176" lon="12.038035072531589"><ele>728.5</ele><time>2026-04-11T10:14:22.74Z</time></trkpt><trkpt lat="43.44050483325459" lon="12.037990193322809"><ele>726.0</ele><time>2026-04-11T10:14:23.74Z</time></trkpt><trkpt lat="43.44044733461369" lon="12.037923188254934"><ele>723.5</ele><time>2026-04-11T10:14:24.741Z</time></trkpt><trkpt lat="43.44039788591781" lon="12.037841620612507"><ele>721.0</ele><time>2026-04-11T10:14:25.74Z</time></trkpt><trkpt lat="43.440376861829" lon="12.037732569123646"><ele>721.0</ele><time>2026-04-11T10:14:26.732Z</time></trkpt><trkpt lat="43.440380679584415" lon="12.037627994708085"><ele>721.0</ele><time>2026-04-11T10:14:27.73Z</time></trkpt><trkpt lat="43.44040600107118" lon="12.03748253400163"><ele>721.0</ele><time>2026-04-11T10:14:29.739Z</time></trkpt><trkpt lat="43.440478055442746" lon="12.03735401812541"><ele>721.0</ele><time>2026-04-11T10:14:31.741Z</time></trkpt><trkpt lat="43.44047106798381" lon="12.03723567580474"><ele>721.0</ele><time>2026-04-11T10:14:33.741Z</time></trkpt><trkpt lat="43.440323369180845" lon="12.03719608332633"><ele>718.6666666666667</ele><time>2026-04-11T10:14:35.732Z</time></trkpt><trkpt lat="43.44023444805566" lon="12.03717740101599"><ele>716.3333333333334</ele><time>2026-04-11T10:14:36.741Z</time></trkpt><trkpt lat="43.44015977232078" lon="12.037160148152564"><ele>714.0</ele><time>2026-04-11T10:14:37.741Z</time></trkpt><trkpt lat="43.44004488250429" lon="12.037116963096246"><ele>711.6666666666666</ele><time>2026-04-11T10:14:39.732Z</time></trkpt><trkpt lat="43.43998275492518" lon="12.037077289973778"><ele>709.3333333333333</ele><time>2026-04-11T10:14:40.736Z</time></trkpt><trkpt lat="43.43991422443496" lon="12.03701433769522"><ele>707.0</ele><time>2026-04-11T10:14:41.731Z</time></trkpt><trkpt lat="43.439862478100316" lon="12.036951119189341"><ele>707.0</ele><time>2026-04-11T10:14:42.731Z</time></trkpt><trkpt lat="43.43981707825947" lon="12.03684827512336"><ele>707.0</ele><time>2026-04-11T10:14:44.732Z</time></trkpt><trkpt lat="43.43981415369677" lon="12.03670773054026"><ele>707.0</ele><time>2026-04-11T10:14:46.741Z</time></trkpt><trkpt lat="43.439852135518755" lon="12.036528140068276"><ele>707.0</ele><time>2026-04-11T10:14:48.74Z</time></trkpt><trkpt lat="43.43987478904562" lon="12.03640620418219"><ele>707.0</ele><time>2026-04-11T10:14:49.74Z</time></trkpt><trkpt lat="43.439896773595976" lon="12.036313857825903"><ele>705.6</ele><time>2026-04-11T10:14:50.741Z</time></trkpt><trkpt lat="43.43994071296496" lon="12.0361520860036"><ele>704.2</ele><time>2026-04-11T10:14:52.742Z</time></trkpt><trkpt lat="43.4400043178785" lon="12.036096427625479"><ele>702.8</ele><time>2026-04-11T10:14:53.733Z</time></trkpt><trkpt lat="43.440075454182924" lon="12.036058037411385"><ele>701.4</ele><time>2026-04-11T10:14:54.741Z</time></trkpt><trkpt lat="43.440214695039614" lon="12.035959010975343"><ele>700.0</ele><time>2026-04-11T10:14:56.742Z</time></trkpt><trkpt lat="43.44027749532685" lon="12.035908446896759"><ele>700.0</ele><time>2026-04-11T10:14:57.741Z</time></trkpt><trkpt lat="43.440344210964355" lon="12.035859047750721"><ele>700.0</ele><time>2026-04-11T10:14:58.74Z</time></trkpt><trkpt lat="43.44040570463209" lon="12.035837701408491"><ele>700.0</ele><time>2026-04-11T10:14:59.741Z</time></trkpt><trkpt lat="43.440521690559144" lon="12.035879262886372"><ele>700.0</ele><time>2026-04-11T10:15:01.73Z</time></trkpt><trkpt lat="43.44058468789211" lon="12.035908544523087"><ele>700.0</ele><time>2026-04-11T10:15:02.732Z</time></trkpt><trkpt lat="43.44064769256207" lon="12.035926137667296"><ele>700.0</ele><time>2026-04-11T10:15:03.735Z</time></trkpt><trkpt lat="43.440726493464595" lon="12.035938847337155"><ele>700.2</ele><time>2026-04-11T10:15:04.732Z</time></trkpt><trkpt lat="43.440805488273014" lon="12.035935155570817"><ele>700.4</ele><time>2026-04-11T10:15:05.741Z</time></trkpt><trkpt lat="43.44091976923565" lon="12.035918417479467"><ele>700.5999999999999</ele><time>2026-04-11T10:15:07.741Z</time></trkpt><trkpt lat="43.44102325735837" lon="12.03593016789868"><ele>700.8</ele><time>2026-04-11T10:15:09.741Z</time></trkpt><trkpt lat="43.44109110993461" lon="12.035941810691066"><ele>701.0</ele><time>2026-04-11T10:15:10.741Z</time></trkpt><trkpt lat="43.4412105125377" lon="12.03599319600231"><ele>701.0</ele><time>2026-04-11T10:15:12.74Z</time></trkpt><trkpt lat="43.44128296425469" lon="12.036042700992105"><ele>701.0</ele><time>2026-04-11T10:15:13.739Z</time></trkpt><trkpt lat="43.44135421360921" lon="12.036118691949701"><ele>701.0</ele><time>2026-04-11T10:15:14.731Z</time></trkpt><trkpt lat="43.44142319881569" lon="12.036190425823081"><ele>701.0</ele><time>2026-04-11T10:15:15.731Z</time></trkpt><trkpt lat="43.441551139008126" lon="12.03634494493825"><ele>701.0</ele><time>2026-04-11T10:15:17.731Z</time></trkpt><trkpt lat="43.44161231325553" lon="12.036423454691198"><ele>701.1666666666666</ele><time>2026-04-11T10:15:18.732Z</time></trkpt><trkpt lat="43.44167752703921" lon="12.036507109083386"><ele>701.3333333333333</ele><time>2026-04-11T10:15:19.73Z</time></trkpt><trkpt lat="43.44174198495465" lon="12.036581140847534"><ele>701.5</ele><time>2026-04-11T10:15:20.731Z</time></trkpt><trkpt lat="43.441796519754604" lon="12.036650258617337"><ele>701.6666666666666</ele><time>2026-04-11T10:15:21.73Z</time></trkpt><trkpt lat="43.441846398434706" lon="12.03671627507005"><ele>701.8333333333334</ele><time>2026-04-11T10:15:22.731Z</time></trkpt><trkpt lat="43.441891969630575" lon="12.036851916677097"><ele>702.0</ele><time>2026-04-11T10:15:24.73Z</time></trkpt><trkpt lat="43.44193827331086" lon="12.036934142442346"><ele>702.0</ele><time>2026-04-11T10:15:26.73Z</time></trkpt><trkpt lat="43.442019181359754" lon="12.036948311079911"><ele>702.0</ele><time>2026-04-11T10:15:28.731Z</time></trkpt><trkpt lat="43.44208964847994" lon="12.036826741968811"><ele>702.0</ele><time>2026-04-11T10:15:30.732Z</time></trkpt><trkpt lat="43.44212733583648" lon="12.036743768158969"><ele>702.0</ele><time>2026-04-11T10:15:31.731Z</time></trkpt><trkpt lat="43.44218504701356" lon="12.036691852569252"><ele>702.0</ele><time>2026-04-11T10:15:32.741Z</time></trkpt><trkpt lat="43.442298021871274" lon="12.036647279252179"><ele>701.25</ele><time>2026-04-11T10:15:34.737Z</time></trkpt><trkpt lat="43.442412132104515" lon="12.036686443655936"><ele>700.5</ele><time>2026-04-11T10:15:36.73Z</time></trkpt><trkpt lat="43.442626654963355" lon="12.036700774209585"><ele>699.75</ele><time>2026-04-11T10:15:40.74Z</time></trkpt><trkpt lat="43.442712104526386" lon="12.036700776386148"><ele>699.0</ele><time>2026-04-11T10:15:41.731Z</time></trkpt><trkpt lat="43.44279193118327" lon="12.03669754664609"><ele>699.0</ele><time>2026-04-11T10:15:42.732Z</time></trkpt><trkpt lat="43.442870822141984" lon="12.036735910670352"><ele>699.0</ele><time>2026-04-11T10:15:43.741Z</time></trkpt><trkpt lat="43.44293915952951" lon="12.036737803266677"><ele>699.0</ele><time>2026-04-11T10:15:44.741Z</time></trkpt><trkpt lat="43.44302399157976" lon="12.03678183082007"><ele>699.0</ele><time>2026-04-11T10:15:45.74Z</time></trkpt><trkpt lat="43.443104597100806" lon="12.036906106914335"><ele>699.0</ele><time>2026-04-11T10:15:47.74Z</time></trkpt><trkpt lat="43.44312162138616" lon="12.037000434954512"><ele>699.0</ele><time>2026-04-11T10:15:48.732Z</time></trkpt><trkpt lat="43.4431243831325" lon="12.037096170283066"><ele>698.8333333333334</ele><time>2026-04-11T10:15:49.732Z</time></trkpt><trkpt lat="43.443115949603055" lon="12.037183523235369"><ele>698.6666666666666</ele><time>2026-04-11T10:15:50.741Z</time></trkpt><trkpt lat="43.44311058266252" lon="12.037285374344993"><ele>698.5</ele><time>2026-04-11T10:15:51.74Z</time></trkpt><trkpt lat="43.443108377694514" lon="12.037383673026818"><ele>698.3333333333333</ele><time>2026-04-11T10:15:52.737Z</time></trkpt><trkpt lat="43.44310131974059" lon="12.037482326278031"><ele>698.1666666666666</ele><time>2026-04-11T10:15:53.732Z</time></trkpt><trkpt lat="43.443093680474036" lon="12.037588260068029"><ele>698.0</ele><time>2026-04-11T10:15:54.732Z</time></trkpt><trkpt lat="43.443080187221604" lon="12.03775057478477"><ele>700.5999999999999</ele><time>2026-04-11T10:15:56.732Z</time></trkpt><trkpt lat="43.44306884303571" lon="12.03787917939448"><ele>703.1999999999999</ele><time>2026-04-11T10:15:58.732Z</time></trkpt><trkpt lat="43.443227127582986" lon="12.038029986852507"><ele>705.8</ele><time>2026-04-11T10:16:01.74Z</time></trkpt><trkpt lat="43.4432998039135" lon="12.038075662140034"><ele>708.4</ele><time>2026-04-11T10:16:02.732Z</time></trkpt><trkpt lat="43.44336335180278" lon="12.03812660198482"><ele>711.0</ele><time>2026-04-11T10:16:03.731Z</time></trkpt><trkpt lat="43.44341808653443" lon="12.038187975689631"><ele>711.0</ele><time>2026-04-11T10:16:04.731Z</time></trkpt><trkpt lat="43.44346701581305" lon="12.03825302405416"><ele>711.0</ele><time>2026-04-11T10:16:05.732Z</time></trkpt><trkpt lat="43.44353380864135" lon="12.038377150898798"><ele>711.0</ele><time>2026-04-11T10:16:07.732Z</time></trkpt><trkpt lat="43.443593134220386" lon="12.03851246706999"><ele>711.0</ele><time>2026-04-11T10:16:09.731Z</time></trkpt><trkpt lat="43.443690171598604" lon="12.038565172118227"><ele>711.0</ele><time>2026-04-11T10:16:11.74Z</time></trkpt><trkpt lat="43.443757579682604" lon="12.038546928485754"><ele>714.0</ele><time>2026-04-11T10:16:12.74Z</time></trkpt><trkpt lat="43.44382944845862" lon="12.038513506574413"><ele>717.0</ele><time>2026-04-11T10:16:13.732Z</time></trkpt><trkpt lat="43.44390111066168" lon="12.038479596248708"><ele>720.0</ele><time>2026-04-11T10:16:14.733Z</time></trkpt><trkpt lat="43.44396808269088" lon="12.038452787323504"><ele>723.0</ele><time>2026-04-11T10:16:15.732Z</time></trkpt><trkpt lat="43.44403201166793" lon="12.038436639890271"><ele>726.0</ele><time>2026-04-11T10:16:16.732Z</time></trkpt><trkpt lat="43.44409278636484" lon="12.038411108138654"><ele>729.0</ele><time>2026-04-11T10:16:17.731Z</time></trkpt><trkpt lat="43.44420101962969" lon="12.03834956350264"><ele>726.8333333333334</ele><time>2026-04-11T10:16:19.73Z</time></trkpt><trkpt lat="43.444322562261306" lon="12.038261282983223"><ele>724.6666666666666</ele><time>2026-04-11T10:16:21.74Z</time></trkpt><trkpt lat="43.44438192681914" lon="12.038232074323865"><ele>722.5</ele><time>2026-04-11T10:16:22.73Z</time></trkpt><trkpt lat="43.44444461543475" lon="12.03820460992074"><ele>720.3333333333333</ele><time>2026-04-11T10:16:23.73Z</time></trkpt><trkpt lat="43.44450878500025" lon="12.038197213393252"><ele>718.1666666666666</ele><time>2026-04-11T10:16:24.731Z</time></trkpt><trkpt lat="43.444617884754" lon="12.038216047716482"><ele>716.0</ele><time>2026-04-11T10:16:26.732Z</time></trkpt><trkpt lat="43.44471902210807" lon="12.038272525677105"><ele>719.0</ele><time>2026-04-11T10:16:28.729Z</time></trkpt><trkpt lat="43.44479446071374" lon="12.038368201397326"><ele>722.0</ele><time>2026-04-11T10:16:30.732Z</time></trkpt><trkpt lat="43.4448879947383" lon="12.038481958411072"><ele>725.0</ele><time>2026-04-11T10:16:32.732Z</time></trkpt><trkpt lat="43.44497819467393" lon="12.038554324142805"><ele>728.0</ele><time>2026-04-11T10:16:34.732Z</time></trkpt><trkpt lat="43.44508898296432" lon="12.038593359070328"><ele>731.0</ele><time>2026-04-11T10:16:36.741Z</time></trkpt><trkpt lat="43.44518900661247" lon="12.038621128709561"><ele>731.0</ele><time>2026-04-11T10:16:38.74Z</time></trkpt><trkpt lat="43.445312400944616" lon="12.038666892559576"><ele>731.0</ele><time>2026-04-11T10:16:40.741Z</time></trkpt><trkpt lat="43.44547276492595" lon="12.038678508158567"><ele>731.0</ele><time>2026-04-11T10:16:42.732Z</time></trkpt><trkpt lat="43.44553749914369" lon="12.038700990253687"><ele>731.0</ele><time>2026-04-11T10:16:43.731Z</time></trkpt><trkpt lat="43.44565110684806" lon="12.038718687786014"><ele>730.8333333333333</ele><time>2026-04-11T10:16:45.741Z</time></trkpt><trkpt lat="43.44575201231809" lon="12.038730907009244"><ele>730.6666666666666</ele><time>2026-04-11T10:16:47.741Z</time></trkpt><trkpt lat="43.44584478662473" lon="12.038800023794538"><ele>730.5</ele><time>2026-04-11T10:16:49.741Z</time></trkpt><trkpt lat="43.445880989475384" lon="12.038886282352946"><ele>730.3333333333334</ele><time>2026-04-11T10:16:50.741Z</time></trkpt><trkpt lat="43.445921422029684" lon="12.038988049149335"><ele>730.1666666666667</ele><time>2026-04-11T10:16:51.74Z</time></trkpt><trkpt lat="43.44595659853233" lon="12.039063908798322"><ele>730.0</ele><time>2026-04-11T10:16:52.742Z</time></trkpt><trkpt lat="43.44605500819888" lon="12.039189480550613"><ele>730.0000000000001</ele><time>2026-04-11T10:16:54.741Z</time></trkpt><trkpt lat="43.44609662148726" lon="12.039261983012112"><ele>730.0</ele><time>2026-04-11T10:16:55.74Z</time></trkpt><trkpt lat="43.44610504112237" lon="12.039351214413706"><ele>730.0</ele><time>2026-04-11T10:16:56.74Z</time></trkpt><trkpt lat="43.44614006024361" lon="12.039473140261645"><ele>730.0</ele><time>2026-04-11T10:16:57.731Z</time></trkpt><trkpt lat="43.44617608541215" lon="12.039563334133007"><ele>730.0</ele><time>2026-04-11T10:16:58.74Z</time></trkpt><trkpt lat="43.4462001307837" lon="12.039646503964445"><ele>730.0000000000001</ele><time>2026-04-11T10:16:59.736Z</time></trkpt><trkpt lat="43.446226929127306" lon="12.039743179503391"><ele>730.0</ele><time>2026-04-11T10:17:00.741Z</time></trkpt><trkpt lat="43.44631422467795" lon="12.039882452051083"><ele>727.0</ele><time>2026-04-11T10:17:02.73Z</time></trkpt><trkpt lat="43.44648879086337" lon="12.040003444263094"><ele>724.0</ele><time>2026-04-11T10:17:05.73Z</time></trkpt><trkpt lat="43.446570590055735" lon="12.040098795907962"><ele>721.0</ele><time>2026-04-11T10:17:06.741Z</time></trkpt><trkpt lat="43.44662625406566" lon="12.040148097048009"><ele>718.0</ele><time>2026-04-11T10:17:07.739Z</time></trkpt><trkpt lat="43.44672675497187" lon="12.040234892620731"><ele>718.0</ele><time>2026-04-11T10:17:09.739Z</time></trkpt><trkpt lat="43.44677274981156" lon="12.040312887033872"><ele>718.0</ele><time>2026-04-11T10:17:10.74Z</time></trkpt><trkpt lat="43.4468455058584" lon="12.04039469108694"><ele>718.0</ele><time>2026-04-11T10:17:11.739Z</time></trkpt><trkpt lat="43.44689034365488" lon="12.040466924085761"><ele>718.0</ele><time>2026-04-11T10:17:12.74Z</time></trkpt><trkpt lat="43.446958619107576" lon="12.04049640526834"><ele>718.0</ele><time>2026-04-11T10:17:13.73Z</time></trkpt><trkpt lat="43.447042089974516" lon="12.040500128897845"><ele>718.0</ele><time>2026-04-11T10:17:14.732Z</time></trkpt><trkpt lat="43.4471063606149" lon="12.0405449188014"><ele>716.25</ele><time>2026-04-11T10:17:15.732Z</time></trkpt><trkpt lat="43.44716791377365" lon="12.040596223427851"><ele>714.5</ele><time>2026-04-11T10:17:16.741Z</time></trkpt><trkpt lat="43.44728781038118" lon="12.040684458366282"><ele>712.75</ele><time>2026-04-11T10:17:18.741Z</time></trkpt><trkpt lat="43.44741676146145" lon="12.040736048287519"><ele>711.0</ele><time>2026-04-11T10:17:20.741Z</time></trkpt><trkpt lat="43.447521505187744" lon="12.040811594808142"><ele>711.0</ele><time>2026-04-11T10:17:22.741Z</time></trkpt><trkpt lat="43.447490489886924" lon="12.040931582171064"><ele>711.0</ele><time>2026-04-11T10:17:24.739Z</time></trkpt><trkpt lat="43.44757522614164" lon="12.041076702333443"><ele>711.0</ele><time>2026-04-11T10:17:27.74Z</time></trkpt><trkpt lat="43.44763703132667" lon="12.041045899710095"><ele>711.0</ele><time>2026-04-11T10:17:28.731Z</time></trkpt><trkpt lat="43.44769084934492" lon="12.040988336518485"><ele>711.0</ele><time>2026-04-11T10:17:29.74Z</time></trkpt><trkpt lat="43.447744958582305" lon="12.040930833252851"><ele>711.0</ele><time>2026-04-11T10:17:30.74Z</time></trkpt><trkpt lat="43.447867137299866" lon="12.040978256278764"><ele>711.0</ele><time>2026-04-11T10:17:32.741Z</time></trkpt><trkpt lat="43.447933586166" lon="12.041047242402938"><ele>711.0</ele><time>2026-04-11T10:17:33.74Z</time></trkpt><trkpt lat="43.44799660486843" lon="12.041091740920585"><ele>711.0</ele><time>2026-04-11T10:17:34.74Z</time></trkpt><trkpt lat="43.44806396519281" lon="12.0411334514393"><ele>711.0</ele><time>2026-04-11T10:17:35.739Z</time></trkpt><trkpt lat="43.44815570276708" lon="12.041165861757836"><ele>711.0</ele><time>2026-04-11T10:17:37.74Z</time></trkpt><trkpt lat="43.44821923975376" lon="12.0411504198356"><ele>711.0</ele><time>2026-04-11T10:17:39.733Z</time></trkpt><trkpt lat="43.4482206909635" lon="12.041029706002892"><ele>707.0</ele><time>2026-04-11T10:17:41.731Z</time></trkpt><trkpt lat="43.44824099516633" lon="12.040933693877179"><ele>703.0</ele><time>2026-04-11T10:17:43.739Z</time></trkpt><trkpt lat="43.44829219974862" lon="12.040829827155425"><ele>699.0</ele><time>2026-04-11T10:17:46.74Z</time></trkpt><trkpt lat="43.448273392838836" lon="12.04064011409645"><ele>695.0</ele><time>2026-04-11T10:17:51.741Z</time></trkpt><trkpt lat="43.44825884257945" lon="12.040555048597723"><ele>691.0</ele><time>2026-04-11T10:17:53.735Z</time></trkpt><trkpt lat="43.448339403879906" lon="12.040492795006541"><ele>689.8333333333334</ele><time>2026-04-11T10:17:55.741Z</time></trkpt><trkpt lat="43.44845418874378" lon="12.040424028090523"><ele>688.6666666666667</ele><time>2026-04-11T10:17:57.74Z</time></trkpt><trkpt lat="43.44850308595872" lon="12.040362121507155"><ele>687.5</ele><time>2026-04-11T10:17:58.741Z</time></trkpt><trkpt lat="43.448569302283055" lon="12.040305374261658"><ele>686.3333333333334</ele><time>2026-04-11T10:17:59.731Z</time></trkpt><trkpt lat="43.44863125414305" lon="12.040254718979025"><ele>685.1666666666666</ele><time>2026-04-11T10:18:00.74Z</time></trkpt><trkpt lat="43.4486857007551" lon="12.04019743126367"><ele>684.0</ele><time>2026-04-11T10:18:01.741Z</time></trkpt><trkpt lat="43.44874076980943" lon="12.040056806681166"><ele>681.75</ele><time>2026-04-11T10:18:03.74Z</time></trkpt><trkpt lat="43.44873841905452" lon="12.03991051990046"><ele>679.5</ele><time>2026-04-11T10:18:05.741Z</time></trkpt><trkpt lat="43.4487298059891" lon="12.03976823538843"><ele>677.25</ele><time>2026-04-11T10:18:07.732Z</time></trkpt><trkpt lat="43.44868836429679" lon="12.039528733669023"><ele>675.0</ele><time>2026-04-11T10:18:11.732Z</time></trkpt><trkpt lat="43.44876080133861" lon="12.039442230600258"><ele>674.3333333333334</ele><time>2026-04-11T10:18:13.734Z</time></trkpt><trkpt lat="43.448830064960056" lon="12.039378769738638"><ele>673.6666666666666</ele><time>2026-04-11T10:18:15.742Z</time></trkpt><trkpt lat="43.44891730918424" lon="12.039436080671866"><ele>673.0</ele><time>2026-04-11T10:18:17.74Z</time></trkpt><trkpt lat="43.44897890064785" lon="12.039480849514229"><ele>672.3333333333333</ele><time>2026-04-11T10:18:18.74Z</time></trkpt><trkpt lat="43.449044592574474" lon="12.039541458582029"><ele>671.6666666666666</ele><time>2026-04-11T10:18:19.741Z</time></trkpt><trkpt lat="43.44910435136604" lon="12.039612122062673"><ele>671.0</ele><time>2026-04-11T10:18:20.741Z</time></trkpt><trkpt lat="43.449151481856056" lon="12.039676940755864"><ele>671.0</ele><time>2026-04-11T10:18:21.74Z</time></trkpt><trkpt lat="43.44920489759285" lon="12.03973331296142"><ele>671.0</ele><time>2026-04-11T10:18:22.742Z</time></trkpt><trkpt lat="43.44928047494353" lon="12.039809121469972"><ele>671.0</ele><time>2026-04-11T10:18:23.741Z</time></trkpt><trkpt lat="43.449315818474666" lon="12.039896476814146"><ele>671.0</ele><time>2026-04-11T10:18:24.741Z</time></trkpt><trkpt lat="43.44933428952847" lon="12.039981052508058"><ele>671.0</ele><time>2026-04-11T10:18:25.74Z</time></trkpt><trkpt lat="43.44935276209166" lon="12.040077670027324"><ele>671.0</ele><time>2026-04-11T10:18:26.74Z</time></trkpt><trkpt lat="43.44938698706794" lon="12.040165228158564"><ele>671.0</ele><time>2026-04-11T10:18:27.74Z</time></trkpt><trkpt lat="43.449438329992255" lon="12.04021694485048"><ele>671.4</ele><time>2026-04-11T10:18:28.739Z</time></trkpt><trkpt lat="43.4495951337057" lon="12.040243583468515"><ele>671.8</ele><time>2026-04-11T10:18:30.74Z</time></trkpt><trkpt lat="43.44972716297983" lon="12.040258285379792"><ele>672.1999999999999</ele><time>2026-04-11T10:18:32.739Z</time></trkpt><trkpt lat="43.44980666460905" lon="12.040267322151383"><ele>672.5999999999999</ele><time>2026-04-11T10:18:33.738Z</time></trkpt><trkpt lat="43.44988377041852" lon="12.040273025946584"><ele>673.0</ele><time>2026-04-11T10:18:34.74Z</time></trkpt><trkpt lat="43.44996659969208" lon="12.040330248696433"><ele>670.3333333333334</ele><time>2026-04-11T10:18:36.733Z</time></trkpt><trkpt lat="43.449983325588896" lon="12.040423713538834"><ele>667.6666666666667</ele><time>2026-04-11T10:18:37.731Z</time></trkpt><trkpt lat="43.45004762168241" lon="12.040559211698566"><ele>665.0</ele><time>2026-04-11T10:18:39.74Z</time></trkpt><trkpt lat="43.45012010109469" lon="12.04061600349564"><ele>662.3333333333334</ele><time>2026-04-11T10:18:40.74Z</time></trkpt><trkpt lat="43.4501956695571" lon="12.040646692403778"><ele>659.6666666666666</ele><time>2026-04-11T10:18:41.74Z</time></trkpt><trkpt lat="43.45026254755273" lon="12.040639936177632"><ele>657.0</ele><time>2026-04-11T10:18:42.74Z</time></trkpt><trkpt lat="43.450357680091805" lon="12.040592360749862"><ele>656.6</ele><time>2026-04-11T10:18:43.742Z</time></trkpt><trkpt lat="43.450482934904066" lon="12.040555203171783"><ele>656.2</ele><time>2026-04-11T10:18:44.742Z</time></trkpt><trkpt lat="43.45055825819702" lon="12.040539516942731"><ele>655.8</ele><time>2026-04-11T10:18:45.742Z</time></trkpt><trkpt lat="43.45062375996896" lon="12.040587012320362"><ele>655.4</ele><time>2026-04-11T10:18:46.74Z</time></trkpt><trkpt lat="43.45066947734553" lon="12.040671554250101"><ele>655.0</ele><time>2026-04-11T10:18:47.732Z</time></trkpt><trkpt lat="43.45074753852363" lon="12.040748484605736"><ele>654.2</ele><time>2026-04-11T10:18:48.742Z</time></trkpt><trkpt lat="43.45083576758503" lon="12.040805416894873"><ele>653.4</ele><time>2026-04-11T10:18:49.741Z</time></trkpt><trkpt lat="43.45095366427208" lon="12.040893773860805"><ele>652.5999999999999</ele><time>2026-04-11T10:18:51.74Z</time></trkpt><trkpt lat="43.450954394758455" lon="12.041035940300056"><ele>651.8</ele><time>2026-04-11T10:18:53.741Z</time></trkpt><trkpt lat="43.45106481362174" lon="12.041065722337576"><ele>651.0</ele><time>2026-04-11T10:18:55.741Z</time></trkpt><trkpt lat="43.451127694119215" lon="12.041013571111401"><ele>651.0</ele><time>2026-04-11T10:18:56.742Z</time></trkpt><trkpt lat="43.4512333558208" lon="12.041017527336884"><ele>651.0</ele><time>2026-04-11T10:18:58.742Z</time></trkpt><trkpt lat="43.45131457798004" lon="12.040963157379435"><ele>651.0</ele><time>2026-04-11T10:19:00.736Z</time></trkpt><trkpt lat="43.451407210059955" lon="12.040924836683466"><ele>651.0</ele><time>2026-04-11T10:19:02.741Z</time></trkpt><trkpt lat="43.451500874085575" lon="12.04099697646891"><ele>651.0</ele><time>2026-04-11T10:19:04.742Z</time></trkpt><trkpt lat="43.451588355726784" lon="12.040998276849148"><ele>648.5</ele><time>2026-04-11T10:19:06.741Z</time></trkpt><trkpt lat="43.45168667251738" lon="12.04105718819307"><ele>646.0</ele><time>2026-04-11T10:19:08.74Z</time></trkpt><trkpt lat="43.45178050113263" lon="12.041150344536652"><ele>643.5</ele><time>2026-04-11T10:19:10.741Z</time></trkpt><trkpt lat="43.45190880224895" lon="12.041316849078386"><ele>641.0</ele><time>2026-04-11T10:19:13.741Z</time></trkpt><trkpt lat="43.451949131095844" lon="12.04142247095218"><ele>641.0</ele><time>2026-04-11T10:19:15.74Z</time></trkpt><trkpt lat="43.45201053551843" lon="12.041471466124378"><ele>641.0</ele><time>2026-04-11T10:19:16.732Z</time></trkpt><trkpt lat="43.452107797794994" lon="12.041547377197906"><ele>641.0</ele><time>2026-04-11T10:19:18.738Z</time></trkpt><trkpt lat="43.452140458080926" lon="12.041642675904992"><ele>641.0</ele><time>2026-04-11T10:19:20.741Z</time></trkpt><trkpt lat="43.45221627974048" lon="12.04170097390671"><ele>641.0</ele><time>2026-04-11T10:19:41.741Z</time></trkpt><trkpt lat="43.452348932702485" lon="12.041777308297332"><ele>637.8333333333333</ele><time>2026-04-11T10:19:45.741Z</time></trkpt><trkpt lat="43.45239924323397" lon="12.041894021909672"><ele>634.6666666666666</ele><time>2026-04-11T10:19:47.741Z</time></trkpt><trkpt lat="43.45243640655081" lon="12.042032029410878"><ele>631.5</ele><time>2026-04-11T10:19:49.741Z</time></trkpt><trkpt lat="43.45242959852626" lon="12.042125581292556"><ele>628.3333333333334</ele><time>2026-04-11T10:19:50.74Z</time></trkpt><trkpt lat="43.452422305849204" lon="12.042224200194191"><ele>625.1666666666667</ele><time>2026-04-11T10:19:51.74Z</time></trkpt><trkpt lat="43.452418383875106" lon="12.042322777049456"><ele>622.0</ele><time>2026-04-11T10:19:52.741Z</time></trkpt><trkpt lat="43.45243609646297" lon="12.04249352057826"><ele>620.1666666666667</ele><time>2026-04-11T10:19:54.741Z</time></trkpt><trkpt lat="43.45248636767319" lon="12.042587226709161"><ele>618.3333333333334</ele><time>2026-04-11T10:19:55.741Z</time></trkpt><trkpt lat="43.45254375914033" lon="12.04267071339832"><ele>616.5</ele><time>2026-04-11T10:19:56.741Z</time></trkpt><trkpt lat="43.452608582721304" lon="12.042777569814332"><ele>614.6666666666666</ele><time>2026-04-11T10:19:57.741Z</time></trkpt><trkpt lat="43.452661795974066" lon="12.042880029458141"><ele>612.8333333333333</ele><time>2026-04-11T10:19:58.74Z</time></trkpt><trkpt lat="43.45271607014874" lon="12.042976563063773"><ele>611.0</ele><time>2026-04-11T10:19:59.741Z</time></trkpt><trkpt lat="43.452781763168126" lon="12.043033247002867"><ele>611.0</ele><time>2026-04-11T10:20:00.742Z</time></trkpt><trkpt lat="43.45286458446025" lon="12.043084027423706"><ele>611.0</ele><time>2026-04-11T10:20:01.741Z</time></trkpt><trkpt lat="43.45292266408207" lon="12.043184494312298"><ele>611.0</ele><time>2026-04-11T10:20:02.741Z</time></trkpt><trkpt lat="43.45299462535088" lon="12.043399582490949"><ele>611.0</ele><time>2026-04-11T10:20:04.741Z</time></trkpt><trkpt lat="43.45306530022992" lon="12.043457676183142"><ele>611.0</ele><time>2026-04-11T10:20:05.741Z</time></trkpt><trkpt lat="43.45314148103237" lon="12.043496699464036"><ele>608.0</ele><time>2026-04-11T10:20:06.74Z</time></trkpt><trkpt lat="43.45323084570338" lon="12.04360700697712"><ele>605.0</ele><time>2026-04-11T10:20:08.742Z</time></trkpt><trkpt lat="43.45324571872701" lon="12.043692875931905"><ele>602.0</ele><time>2026-04-11T10:20:09.732Z</time></trkpt><trkpt lat="43.45322559841202" lon="12.043845141050959"><ele>599.0</ele><time>2026-04-11T10:20:11.741Z</time></trkpt><trkpt lat="43.45323327351036" lon="12.044030574115489"><ele>596.0</ele><time>2026-04-11T10:20:13.74Z</time></trkpt><trkpt lat="43.45320331269253" lon="12.044194210986207"><ele>595.0</ele><time>2026-04-11T10:20:15.739Z</time></trkpt><trkpt lat="43.45315248796954" lon="12.044317509857912"><ele>594.0</ele><time>2026-04-11T10:20:17.739Z</time></trkpt><trkpt lat="43.45311137694342" lon="12.04441705643798"><ele>593.0</ele><time>2026-04-11T10:20:19.739Z</time></trkpt><trkpt lat="43.453044060285876" lon="12.044474595873368"><ele>592.0</ele><time>2026-04-11T10:20:21.739Z</time></trkpt><trkpt lat="43.452945925242645" lon="12.04447994245071"><ele>591.0</ele><time>2026-04-11T10:20:23.739Z</time></trkpt><trkpt lat="43.45304705245763" lon="12.04468403197888"><ele>591.0</ele><time>2026-04-11T10:20:30.731Z</time></trkpt><trkpt lat="43.453153934620914" lon="12.04475349643992"><ele>591.0</ele><time>2026-04-11T10:20:32.731Z</time></trkpt><trkpt lat="43.453256509050185" lon="12.044779702520268"><ele>591.0</ele><time>2026-04-11T10:20:33.74Z</time></trkpt><trkpt lat="43.45334473854531" lon="12.044832387839433"><ele>591.0</ele><time>2026-04-11T10:20:34.74Z</time></trkpt><trkpt lat="43.453406039143495" lon="12.044855120292135"><ele>591.0</ele><time>2026-04-11T10:20:35.74Z</time></trkpt><trkpt lat="43.45351260815083" lon="12.044903227035716"><ele>591.0</ele><time>2026-04-11T10:20:37.739Z</time></trkpt><trkpt lat="43.453597346714076" lon="12.044956442157629"><ele>591.0</ele><time>2026-04-11T10:20:39.74Z</time></trkpt><trkpt lat="43.45370710521565" lon="12.045034121381763"><ele>591.0</ele><time>2026-04-11T10:20:41.74Z</time></trkpt><trkpt lat="43.45378588712809" lon="12.04509799604117"><ele>591.0</ele><time>2026-04-11T10:20:42.74Z</time></trkpt><trkpt lat="43.453854448782884" lon="12.045146236592359"><ele>591.0</ele><time>2026-04-11T10:20:43.74Z</time></trkpt><trkpt lat="43.45390559282601" lon="12.045228194165741"><ele>584.75</ele><time>2026-04-11T10:20:44.741Z</time></trkpt><trkpt lat="43.45400497971809" lon="12.045410527689212"><ele>578.5</ele><time>2026-04-11T10:20:46.74Z</time></trkpt><trkpt lat="43.454078983989284" lon="12.045533156753663"><ele>572.25</ele><time>2026-04-11T10:20:48.73Z</time></trkpt><trkpt lat="43.45415736372375" lon="12.04563873748538"><ele>566.0</ele><time>2026-04-11T10:20:50.739Z</time></trkpt><trkpt lat="43.45421134077864" lon="12.045705124456429"><ele>566.0</ele><time>2026-04-11T10:20:52.73Z</time></trkpt><trkpt lat="43.454270796429064" lon="12.045623454389299"><ele>566.0</ele><time>2026-04-11T10:20:54.73Z</time></trkpt><trkpt lat="43.45429863286752" lon="12.045526916154369"><ele>566.0</ele><time>2026-04-11T10:20:55.739Z</time></trkpt><trkpt lat="43.454354249530745" lon="12.045398154134514"><ele>566.0</ele><time>2026-04-11T10:20:56.738Z</time></trkpt><trkpt lat="43.454396908448516" lon="12.045284412545268"><ele>566.0</ele><time>2026-04-11T10:20:57.738Z</time></trkpt><trkpt lat="43.45444711731318" lon="12.045194956942057"><ele>566.0</ele><time>2026-04-11T10:20:58.74Z</time></trkpt><trkpt lat="43.454544867498626" lon="12.045122995763105"><ele>562.3333333333333</ele><time>2026-04-11T10:21:00.741Z</time></trkpt><trkpt lat="43.45462254592222" lon="12.045098958760017"><ele>558.6666666666666</ele><time>2026-04-11T10:21:01.739Z</time></trkpt><trkpt lat="43.45470260514448" lon="12.04507042723502"><ele>555.0</ele><time>2026-04-11T10:21:02.741Z</time></trkpt><trkpt lat="43.45477745826924" lon="12.045069239515689"><ele>551.3333333333334</ele><time>2026-04-11T10:21:03.74Z</time></trkpt><trkpt lat="43.45484216727828" lon="12.045085975144623"><ele>547.6666666666667</ele><time>2026-04-11T10:21:04.743Z</time></trkpt><trkpt lat="43.45490296594292" lon="12.04520928673639"><ele>544.0</ele><time>2026-04-11T10:21:06.743Z</time></trkpt><trkpt lat="43.454863172571706" lon="12.045379895425814"><ele>544.0</ele><time>2026-04-11T10:21:08.742Z</time></trkpt><trkpt lat="43.45484189483405" lon="12.045475429303162"><ele>544.0</ele><time>2026-04-11T10:21:09.741Z</time></trkpt><trkpt lat="43.45480804926272" lon="12.045614575190982"><ele>544.0</ele><time>2026-04-11T10:21:10.741Z</time></trkpt><trkpt lat="43.45478779786168" lon="12.045733144525826"><ele>544.0</ele><time>2026-04-11T10:21:11.741Z</time></trkpt><trkpt lat="43.454763957395016" lon="12.045908554281338"><ele>544.0</ele><time>2026-04-11T10:21:13.74Z</time></trkpt><trkpt lat="43.45477907872302" lon="12.046025350078082"><ele>543.3333333333334</ele><time>2026-04-11T10:21:14.739Z</time></trkpt><trkpt lat="43.45478342037127" lon="12.046116492134109"><ele>542.6666666666667</ele><time>2026-04-11T10:21:15.741Z</time></trkpt><trkpt lat="43.454782515756946" lon="12.04620371068965"><ele>542.0</ele><time>2026-04-11T10:21:16.74Z</time></trkpt><trkpt lat="43.45475361507651" lon="12.046322627455364"><ele>541.3333333333334</ele><time>2026-04-11T10:21:18.739Z</time></trkpt><trkpt lat="43.45479682091529" lon="12.046386296522789"><ele>540.6666666666666</ele><time>2026-04-11T10:21:20.739Z</time></trkpt><trkpt lat="43.454926181173" lon="12.046293315153305"><ele>540.0</ele><time>2026-04-11T10:21:22.74Z</time></trkpt><trkpt lat="43.454976404636405" lon="12.046222269239696"><ele>540.0</ele><time>2026-04-11T10:21:23.74Z</time></trkpt><trkpt lat="43.45506422052748" lon="12.046160180245574"><ele>540.0</ele><time>2026-04-11T10:21:25.739Z</time></trkpt><trkpt lat="43.45518643963663" lon="12.04610476196222"><ele>540.0</ele><time>2026-04-11T10:21:27.739Z</time></trkpt><trkpt lat="43.455315336495715" lon="12.04589384730351"><ele>540.0</ele><time>2026-04-11T10:21:30.74Z</time></trkpt><trkpt lat="43.45536119907887" lon="12.04580960664495"><ele>540.8</ele><time>2026-04-11T10:21:31.74Z</time></trkpt><trkpt lat="43.45539494087172" lon="12.045696231825637"><ele>541.6</ele><time>2026-04-11T10:21:33.733Z</time></trkpt><trkpt lat="43.455393982132904" lon="12.04554848324631"><ele>542.4</ele><time>2026-04-11T10:21:35.74Z</time></trkpt><trkpt lat="43.45543993402906" lon="12.045427672322884"><ele>543.2</ele><time>2026-04-11T10:21:37.736Z</time></trkpt><trkpt lat="43.455503442397436" lon="12.045383071877135"><ele>544.0</ele><time>2026-04-11T10:21:38.738Z</time></trkpt><trkpt lat="43.45558241695481" lon="12.045326680652114"><ele>540.5</ele><time>2026-04-11T10:21:39.739Z</time></trkpt><trkpt lat="43.455633660030685" lon="12.045269412784895"><ele>537.0</ele><time>2026-04-11T10:21:40.74Z</time></trkpt><trkpt lat="43.455703817203315" lon="12.045266860130246"><ele>533.5</ele><time>2026-04-11T10:21:42.74Z</time></trkpt><trkpt lat="43.455737964284964" lon="12.045424023999349"><ele>530.0</ele><time>2026-04-11T10:21:44.741Z</time></trkpt><trkpt lat="43.45572765262626" lon="12.0455588033109"><ele>526.5</ele><time>2026-04-11T10:21:45.741Z</time></trkpt><trkpt lat="43.45572973572847" lon="12.045661391282662"><ele>523.0</ele><time>2026-04-11T10:21:46.741Z</time></trkpt><trkpt lat="43.45581354623672" lon="12.045753397140372"><ele>520.8</ele><time>2026-04-11T10:21:48.741Z</time></trkpt><trkpt lat="43.45594899831386" lon="12.045983625126157"><ele>518.5999999999999</ele><time>2026-04-11T10:21:51.74Z</time></trkpt><trkpt lat="43.45596693520538" lon="12.046088470887737"><ele>516.4000000000001</ele><time>2026-04-11T10:21:52.74Z</time></trkpt><trkpt lat="43.45595651301508" lon="12.046197888916378"><ele>514.2</ele><time>2026-04-11T10:21:53.74Z</time></trkpt><trkpt lat="43.455949375630944" lon="12.046299864733399"><ele>512.0</ele><time>2026-04-11T10:21:54.74Z</time></trkpt><trkpt lat="43.45597677828539" lon="12.046382634786024"><ele>512.0</ele><time>2026-04-11T10:21:55.733Z</time></trkpt><trkpt lat="43.456018052532315" lon="12.046515520867631"><ele>512.0</ele><time>2026-04-11T10:21:56.74Z</time></trkpt><trkpt lat="43.45607941651713" lon="12.046568373896234"><ele>512.0</ele><time>2026-04-11T10:21:57.738Z</time></trkpt><trkpt lat="43.45614558255475" lon="12.046654304389104"><ele>512.0</ele><time>2026-04-11T10:21:59.736Z</time></trkpt><trkpt lat="43.456263599284995" lon="12.046669440570934"><ele>512.0</ele><time>2026-04-11T10:22:01.738Z</time></trkpt><trkpt lat="43.45633404040356" lon="12.046616537193122"><ele>507.66666666666663</ele><time>2026-04-11T10:22:02.739Z</time></trkpt><trkpt lat="43.456403825908595" lon="12.046603379999874"><ele>503.3333333333333</ele><time>2026-04-11T10:22:03.737Z</time></trkpt><trkpt lat="43.45648397935528" lon="12.046576198367944"><ele>499.0</ele><time>2026-04-11T10:22:04.739Z</time></trkpt><trkpt lat="43.45656630845695" lon="12.046554951214613"><ele>494.66666666666663</ele><time>2026-04-11T10:22:05.738Z</time></trkpt><trkpt lat="43.45663478068185" lon="12.046510653781645"><ele>490.3333333333333</ele><time>2026-04-11T10:22:06.738Z</time></trkpt><trkpt lat="43.45672652739213" lon="12.046475850405365"><ele>486.0</ele><time>2026-04-11T10:22:07.737Z</time></trkpt><trkpt lat="43.45679011856922" lon="12.046410969415174"><ele>486.0</ele><time>2026-04-11T10:22:08.738Z</time></trkpt><trkpt lat="43.45685547130501" lon="12.04637127155689"><ele>486.0</ele><time>2026-04-11T10:22:09.738Z</time></trkpt><trkpt lat="43.45707372621052" lon="12.046343890111416"><ele>486.0</ele><time>2026-04-11T10:22:12.731Z</time></trkpt><trkpt lat="43.457138476955535" lon="12.046335643480399"><ele>486.0</ele><time>2026-04-11T10:22:13.731Z</time></trkpt><trkpt lat="43.45726424637561" lon="12.046328574879723"><ele>481.4</ele><time>2026-04-11T10:22:15.739Z</time></trkpt><trkpt lat="43.45732288090204" lon="12.046295708366316"><ele>476.8</ele><time>2026-04-11T10:22:16.739Z</time></trkpt><trkpt lat="43.45742245232467" lon="12.046322763490403"><ele>472.19999999999993</ele><time>2026-04-11T10:22:18.731Z</time></trkpt><trkpt lat="43.45752324372631" lon="12.04637817329059"><ele>467.59999999999997</ele><time>2026-04-11T10:22:20.74Z</time></trkpt><trkpt lat="43.45758682054211" lon="12.046265254321593"><ele>463.0</ele><time>2026-04-11T10:22:22.74Z</time></trkpt><trkpt lat="43.45759496961109" lon="12.046147451505737"><ele>463.00000000000006</ele><time>2026-04-11T10:22:23.74Z</time></trkpt><trkpt lat="43.45758086576505" lon="12.04604123944876"><ele>463.0</ele><time>2026-04-11T10:22:24.731Z</time></trkpt><trkpt lat="43.457546085664845" lon="12.045948547227512"><ele>463.0</ele><time>2026-04-11T10:22:25.74Z</time></trkpt><trkpt lat="43.45751032553754" lon="12.045865000503099"><ele>463.0</ele><time>2026-04-11T10:22:26.74Z</time></trkpt><trkpt lat="43.45747137769403" lon="12.045737030389141"><ele>463.00000000000006</ele><time>2026-04-11T10:22:28.74Z</time></trkpt><trkpt lat="43.457479598178935" lon="12.045611249040832"><ele>463.0</ele><time>2026-04-11T10:22:30.74Z</time></trkpt><trkpt lat="43.45760950290882" lon="12.045456531131205"><ele>463.2</ele><time>2026-04-11T10:22:38.739Z</time></trkpt><trkpt lat="43.457725120115924" lon="12.045426716059914"><ele>463.4</ele><time>2026-04-11T10:22:40.74Z</time></trkpt><trkpt lat="43.45779214328915" lon="12.04538903761285"><ele>463.59999999999997</ele><time>2026-04-11T10:22:41.74Z</time></trkpt><trkpt lat="43.45786511275587" lon="12.045340332274447"><ele>463.79999999999995</ele><time>2026-04-11T10:22:42.741Z</time></trkpt><trkpt lat="43.457982233899266" lon="12.045288765071808"><ele>464.0</ele><time>2026-04-11T10:22:44.739Z</time></trkpt><trkpt lat="43.45810625691014" lon="12.04526946956465"><ele>460.66666666666663</ele><time>2026-04-11T10:22:46.741Z</time></trkpt><trkpt lat="43.45816365002532" lon="12.045231135514095"><ele>457.3333333333333</ele><time>2026-04-11T10:22:47.741Z</time></trkpt><trkpt lat="43.4582288976685" lon="12.04518183207163"><ele>454.0</ele><time>2026-04-11T10:22:48.741Z</time></trkpt><trkpt lat="43.45830380644971" lon="12.045118531651115"><ele>450.66666666666663</ele><time>2026-04-11T10:22:49.737Z</time></trkpt><trkpt lat="43.458395726472894" lon="12.045073384347358"><ele>447.3333333333333</ele><time>2026-04-11T10:22:50.741Z</time></trkpt><trkpt lat="43.45847344488931" lon="12.04508001232122"><ele>444.0</ele><time>2026-04-11T10:22:51.741Z</time></trkpt><trkpt lat="43.45865272897152" lon="12.045110246870072"><ele>444.0</ele><time>2026-04-11T10:22:54.741Z</time></trkpt><trkpt lat="43.458721458384076" lon="12.045080605440512"><ele>444.0</ele><time>2026-04-11T10:22:55.739Z</time></trkpt><trkpt lat="43.45879597379797" lon="12.045028262045326"><ele>444.0</ele><time>2026-04-11T10:22:56.741Z</time></trkpt><trkpt lat="43.45885877047302" lon="12.044988974601688"><ele>444.0</ele><time>2026-04-11T10:22:57.739Z</time></trkpt><trkpt lat="43.45892688767371" lon="12.044988494524054"><ele>444.0</ele><time>2026-04-11T10:22:58.739Z</time></trkpt><trkpt lat="43.45899890763077" lon="12.0450191378194"><ele>444.0</ele><time>2026-04-11T10:22:59.732Z</time></trkpt><trkpt lat="43.459075303001796" lon="12.045128275466624"><ele>440.2</ele><time>2026-04-11T10:23:01.738Z</time></trkpt><trkpt lat="43.459152995936414" lon="12.045232181377008"><ele>436.4</ele><time>2026-04-11T10:23:03.739Z</time></trkpt><trkpt lat="43.45920587594847" lon="12.045312583497934"><ele>432.6</ele><time>2026-04-11T10:23:04.741Z</time></trkpt><trkpt lat="43.459259330166475" lon="12.045375070129877"><ele>428.8</ele><time>2026-04-11T10:23:05.739Z</time></trkpt><trkpt lat="43.45939354288361" lon="12.045319187094758"><ele>425.0</ele><time>2026-04-11T10:23:07.742Z</time></trkpt><trkpt lat="43.45948576350439" lon="12.045288180014943"><ele>425.0</ele><time>2026-04-11T10:23:08.731Z</time></trkpt><trkpt lat="43.45958254242157" lon="12.045292694834917"><ele>425.0</ele><time>2026-04-11T10:23:09.731Z</time></trkpt><trkpt lat="43.45967877213376" lon="12.045312594374938"><ele>425.0</ele><time>2026-04-11T10:23:10.74Z</time></trkpt><trkpt lat="43.45977426526132" lon="12.04531924435826"><ele>425.0</ele><time>2026-04-11T10:23:11.739Z</time></trkpt><trkpt lat="43.45986477290686" lon="12.045312059336013"><ele>425.0</ele><time>2026-04-11T10:23:12.73Z</time></trkpt><trkpt lat="43.460042142677835" lon="12.045339148228521"><ele>422.8333333333333</ele><time>2026-04-11T10:23:14.739Z</time></trkpt><trkpt lat="43.46013913888797" lon="12.045375361752663"><ele>420.66666666666663</ele><time>2026-04-11T10:23:15.74Z</time></trkpt><trkpt lat="43.4602237745419" lon="12.045408043007146"><ele>418.5</ele><time>2026-04-11T10:23:16.74Z</time></trkpt><trkpt lat="43.46031217833184" lon="12.04540316788978"><ele>416.33333333333337</ele><time>2026-04-11T10:23:17.738Z</time></trkpt><trkpt lat="43.46038785724159" lon="12.045363385942558"><ele>414.1666666666667</ele><time>2026-04-11T10:23:18.739Z</time></trkpt><trkpt lat="43.46047095532989" lon="12.045316484480601"><ele>412.0</ele><time>2026-04-11T10:23:19.74Z</time></trkpt><trkpt lat="43.46054994143903" lon="12.04526778392041"><ele>411.1666666666667</ele><time>2026-04-11T10:23:20.738Z</time></trkpt><trkpt lat="43.460625430207934" lon="12.04522177704516"><ele>410.33333333333337</ele><time>2026-04-11T10:23:21.74Z</time></trkpt><trkpt lat="43.46069334265108" lon="12.04517412721022"><ele>409.5</ele><time>2026-04-11T10:23:22.741Z</time></trkpt><trkpt lat="43.46076049053397" lon="12.045126462630916"><ele>408.66666666666663</ele><time>2026-04-11T10:23:23.74Z</time></trkpt><trkpt lat="43.46083339759628" lon="12.045082645789545"><ele>407.8333333333333</ele><time>2026-04-11T10:23:24.742Z</time></trkpt><trkpt lat="43.46090525014263" lon="12.045033847403737"><ele>407.0</ele><time>2026-04-11T10:23:25.741Z</time></trkpt><trkpt lat="43.460982334677446" lon="12.044979305103704"><ele>405.8571428571429</ele><time>2026-04-11T10:23:26.74Z</time></trkpt><trkpt lat="43.46106419321189" lon="12.044939100331057"><ele>404.7142857142857</ele><time>2026-04-11T10:23:27.74Z</time></trkpt><trkpt lat="43.461134085363675" lon="12.04491548037591"><ele>403.57142857142856</ele><time>2026-04-11T10:23:28.742Z</time></trkpt><trkpt lat="43.4612063321915" lon="12.044900749904844"><ele>402.42857142857144</ele><time>2026-04-11T10:23:29.741Z</time></trkpt><trkpt lat="43.461271700146206" lon="12.044880042036747"><ele>401.2857142857143</ele><time>2026-04-11T10:23:30.74Z</time></trkpt><trkpt lat="43.461325541654546" lon="12.044830522786835"><ele>400.14285714285717</ele><time>2026-04-11T10:23:31.74Z</time></trkpt><trkpt lat="43.461384019158714" lon="12.044762735497114"><ele>399.0</ele><time>2026-04-11T10:23:32.732Z</time></trkpt><trkpt lat="43.461448082180766" lon="12.044710945539721"><ele>396.75</ele><time>2026-04-11T10:23:33.74Z</time></trkpt><trkpt lat="43.46157430181783" lon="12.044522208327404"><ele>394.5</ele><time>2026-04-11T10:23:36.731Z</time></trkpt><trkpt lat="43.46160923242939" lon="12.044442618957824"><ele>392.25</ele><time>2026-04-11T10:23:37.74Z</time></trkpt><trkpt lat="43.46165547709934" lon="12.044280591361993"><ele>390.0</ele><time>2026-04-11T10:23:39.74Z</time></trkpt><trkpt lat="43.461730183425104" lon="12.044123845451447"><ele>387.4</ele><time>2026-04-11T10:23:41.741Z</time></trkpt><trkpt lat="43.461766785702665" lon="12.044046912247163"><ele>384.8</ele><time>2026-04-11T10:23:42.74Z</time></trkpt><trkpt lat="43.46178628130708" lon="12.04391253005347"><ele>382.20000000000005</ele><time>2026-04-11T10:23:44.74Z</time></trkpt><trkpt lat="43.46179138094521" lon="12.043745272203127"><ele>379.6</ele><time>2026-04-11T10:23:46.74Z</time></trkpt><trkpt lat="43.46181960316857" lon="12.043582104567653"><ele>377.0</ele><time>2026-04-11T10:23:48.739Z</time></trkpt><trkpt lat="43.461820763883324" lon="12.043472058806541"><ele>377.0</ele><time>2026-04-11T10:23:49.739Z</time></trkpt><trkpt lat="43.46181645159778" lon="12.043364270041641"><ele>377.0</ele><time>2026-04-11T10:23:50.739Z</time></trkpt><trkpt lat="43.46181041770266" lon="12.04327028069843"><ele>377.0</ele><time>2026-04-11T10:23:51.737Z</time></trkpt><trkpt lat="43.46184628111015" lon="12.043159516508242"><ele>377.0</ele><time>2026-04-11T10:23:53.738Z</time></trkpt><trkpt lat="43.46195930247617" lon="12.043151697433492"><ele>377.0</ele><time>2026-04-11T10:23:55.739Z</time></trkpt><trkpt lat="43.462139377638415" lon="12.043163714189133"><ele>372.75</ele><time>2026-04-11T10:23:58.739Z</time></trkpt><trkpt lat="43.46226730850652" lon="12.043223203444525"><ele>368.5</ele><time>2026-04-11T10:24:00.739Z</time></trkpt><trkpt lat="43.46236040328787" lon="12.043330468228458"><ele>364.25</ele><time>2026-04-11T10:24:02.73Z</time></trkpt><trkpt lat="43.46245048975076" lon="12.043410629836343"><ele>360.0</ele><time>2026-04-11T10:24:04.731Z</time></trkpt><trkpt lat="43.462532426629984" lon="12.043367178450142"><ele>357.8</ele><time>2026-04-11T10:24:06.74Z</time></trkpt><trkpt lat="43.462548936957326" lon="12.043258613216945"><ele>355.6</ele><time>2026-04-11T10:24:07.739Z</time></trkpt><trkpt lat="43.4625616177755" lon="12.043124772655831"><ele>353.4</ele><time>2026-04-11T10:24:08.74Z</time></trkpt><trkpt lat="43.46256646068261" lon="12.043007448125492"><ele>351.2</ele><time>2026-04-11T10:24:09.74Z</time></trkpt><trkpt lat="43.46258374801642" lon="12.042908914279565"><ele>349.0</ele><time>2026-04-11T10:24:10.741Z</time></trkpt><trkpt lat="43.46259526757397" lon="12.042739156139572"><ele>349.0</ele><time>2026-04-11T10:24:12.732Z</time></trkpt><trkpt lat="43.462575514753276" lon="12.042644398989326"><ele>349.0</ele><time>2026-04-11T10:24:13.731Z</time></trkpt><trkpt lat="43.46255252438506" lon="12.042554355645606"><ele>349.0</ele><time>2026-04-11T10:24:14.728Z</time></trkpt><trkpt lat="43.46251054784866" lon="12.042476514612598"><ele>349.0</ele><time>2026-04-11T10:24:15.731Z</time></trkpt><trkpt lat="43.46245463746947" lon="12.042354266129133"><ele>349.0</ele><time>2026-04-11T10:24:16.739Z</time></trkpt><trkpt lat="43.46239845581309" lon="12.042154480504312"><ele>345.79999999999995</ele><time>2026-04-11T10:24:18.73Z</time></trkpt><trkpt lat="43.46234651298715" lon="12.04208722128111"><ele>342.59999999999997</ele><time>2026-04-11T10:24:19.729Z</time></trkpt><trkpt lat="43.4622490743957" lon="12.041995680675088"><ele>339.4</ele><time>2026-04-11T10:24:21.73Z</time></trkpt><trkpt lat="43.46226504297955" lon="12.041883712957656"><ele>336.2</ele><time>2026-04-11T10:24:23.729Z</time></trkpt><trkpt lat="43.46234354341916" lon="12.041813928674536"><ele>333.0</ele><time>2026-04-11T10:24:24.739Z</time></trkpt><trkpt lat="43.462426590339284" lon="12.041742696747173"><ele>333.0</ele><time>2026-04-11T10:24:25.738Z</time></trkpt><trkpt lat="43.46249385779763" lon="12.041675358033116"><ele>333.0</ele><time>2026-04-11T10:24:26.738Z</time></trkpt><trkpt lat="43.46256230234159" lon="12.041600468556007"><ele>333.0</ele><time>2026-04-11T10:24:27.731Z</time></trkpt><trkpt lat="43.46260594004864" lon="12.0415297042394"><ele>333.0</ele><time>2026-04-11T10:24:28.738Z</time></trkpt><trkpt lat="43.46267844295883" lon="12.04145857819766"><ele>333.0</ele><time>2026-04-11T10:24:29.739Z</time></trkpt><trkpt lat="43.46274157015497" lon="12.041403482888196"><ele>333.0</ele><time>2026-04-11T10:24:30.739Z</time></trkpt><trkpt lat="43.4628052031988" lon="12.041344106384349"><ele>331.6666666666667</ele><time>2026-04-11T10:24:31.738Z</time></trkpt><trkpt lat="43.462862924598376" lon="12.041278787004666"><ele>330.3333333333333</ele><time>2026-04-11T10:24:32.729Z</time></trkpt><trkpt lat="43.46292832626416" lon="12.041206133481495"><ele>329.0</ele><time>2026-04-11T10:24:33.738Z</time></trkpt><trkpt lat="43.46299033817005" lon="12.041131809978575"><ele>327.66666666666663</ele><time>2026-04-11T10:24:34.739Z</time></trkpt><trkpt lat="43.46305488946282" lon="12.041062669971181"><ele>326.3333333333333</ele><time>2026-04-11T10:24:35.739Z</time></trkpt><trkpt lat="43.46312109603732" lon="12.041016413568157"><ele>325.0</ele><time>2026-04-11T10:24:36.731Z</time></trkpt><trkpt lat="43.46320468082634" lon="12.04098086591885"><ele>324.2</ele><time>2026-04-11T10:24:37.73Z</time></trkpt><trkpt lat="43.463372028289086" lon="12.041000022791831"><ele>323.4</ele><time>2026-04-11T10:24:39.727Z</time></trkpt><trkpt lat="43.463458765940096" lon="12.041020939287854"><ele>322.6</ele><time>2026-04-11T10:24:40.73Z</time></trkpt><trkpt lat="43.4635456170433" lon="12.041033143356275"><ele>321.8</ele><time>2026-04-11T10:24:41.73Z</time></trkpt><trkpt lat="43.463629970970445" lon="12.041023072964045"><ele>321.0</ele><time>2026-04-11T10:24:42.731Z</time></trkpt><trkpt lat="43.46372181560262" lon="12.041008500999897"><ele>320.8333333333333</ele><time>2026-04-11T10:24:43.729Z</time></trkpt><trkpt lat="43.46381086598189" lon="12.041014487043848"><ele>320.6666666666667</ele><time>2026-04-11T10:24:44.73Z</time></trkpt><trkpt lat="43.46389866162937" lon="12.04101525460679"><ele>320.5</ele><time>2026-04-11T10:24:45.73Z</time></trkpt><trkpt lat="43.463968907059495" lon="12.040984062708477"><ele>320.33333333333337</ele><time>2026-04-11T10:24:46.73Z</time></trkpt><trkpt lat="43.46404285990411" lon="12.040943926747332"><ele>320.1666666666667</ele><time>2026-04-11T10:24:47.731Z</time></trkpt><trkpt lat="43.4641304842632" lon="12.040890300975647"><ele>320.0</ele><time>2026-04-11T10:24:48.731Z</time></trkpt><trkpt lat="43.46423247895398" lon="12.040820387611344"><ele>320.0</ele><time>2026-04-11T10:24:49.739Z</time></trkpt><trkpt lat="43.46434220669119" lon="12.040761468175633"><ele>320.0</ele><time>2026-04-11T10:24:50.731Z</time></trkpt><trkpt lat="43.464462683943346" lon="12.040688526979457"><ele>320.0</ele><time>2026-04-11T10:24:51.741Z</time></trkpt><trkpt lat="43.46457484623083" lon="12.040617189829495"><ele>320.0</ele><time>2026-04-11T10:24:52.732Z</time></trkpt><trkpt lat="43.464676899574286" lon="12.040552869826275"><ele>320.0</ele><time>2026-04-11T10:24:53.73Z</time></trkpt><trkpt lat="43.46476855402706" lon="12.040498624749006"><ele>320.0</ele><time>2026-04-11T10:24:54.731Z</time></trkpt><trkpt lat="43.464861613347765" lon="12.040443357215805"><ele>320.0</ele><time>2026-04-11T10:24:55.73Z</time></trkpt><trkpt lat="43.464964794370296" lon="12.04037932688813"><ele>320.0</ele><time>2026-04-11T10:24:56.729Z</time></trkpt><trkpt lat="43.46507866685272" lon="12.040302884326179"><ele>320.0</ele><time>2026-04-11T10:24:57.728Z</time></trkpt><trkpt lat="43.46518915719762" lon="12.040229881401652"><ele>320.0</ele><time>2026-04-11T10:24:58.724Z</time></trkpt><trkpt lat="43.46538946137325" lon="12.040112194105491"><ele>320.0</ele><time>2026-04-11T10:25:00.731Z</time></trkpt><trkpt lat="43.46548859786788" lon="12.040066885885567"><ele>320.0</ele><time>2026-04-11T10:25:01.732Z</time></trkpt><trkpt lat="43.46559370323811" lon="12.040028251784017"><ele>320.0</ele><time>2026-04-11T10:25:02.732Z</time></trkpt><trkpt lat="43.4656990366675" lon="12.040007050112942"><ele>320.6666666666667</ele><time>2026-04-11T10:25:03.734Z</time></trkpt><trkpt lat="43.465781517312045" lon="12.03999650432352"><ele>321.33333333333337</ele><time>2026-04-11T10:25:04.731Z</time></trkpt><trkpt lat="43.46584601184425" lon="12.039975998611151"><ele>322.0</ele><time>2026-04-11T10:25:05.731Z</time></trkpt><trkpt lat="43.46588180143949" lon="12.039862689303833"><ele>322.6666666666667</ele><time>2026-04-11T10:25:09.73Z</time></trkpt><trkpt lat="43.4658628861444" lon="12.039771576222439"><ele>323.3333333333333</ele><time>2026-04-11T10:25:10.731Z</time></trkpt><trkpt lat="43.46580676504874" lon="12.039667289782942"><ele>324.0</ele><time>2026-04-11T10:25:11.731Z</time></trkpt><trkpt lat="43.46576191119679" lon="12.039558883404261"><ele>325.25</ele><time>2026-04-11T10:25:12.731Z</time></trkpt><trkpt lat="43.46572755208223" lon="12.039431452634506"><ele>326.5</ele><time>2026-04-11T10:25:13.73Z</time></trkpt><trkpt lat="43.46570654413437" lon="12.039286150662551"><ele>327.75</ele><time>2026-04-11T10:25:14.729Z</time></trkpt><trkpt lat="43.465699021778505" lon="12.039120244878065"><ele>329.0</ele><time>2026-04-11T10:25:15.73Z</time></trkpt><trkpt lat="43.46570881359542" lon="12.038949687017942"><ele>331.75</ele><time>2026-04-11T10:25:16.732Z</time></trkpt><trkpt lat="43.46572669254775" lon="12.038779968708386"><ele>334.5</ele><time>2026-04-11T10:25:17.739Z</time></trkpt><trkpt lat="43.46573037287321" lon="12.038588467818224"><ele>337.25</ele><time>2026-04-11T10:25:18.739Z</time></trkpt><trkpt lat="43.46571871060892" lon="12.038402124027112"><ele>340.0</ele><time>2026-04-11T10:25:19.73Z</time></trkpt><trkpt lat="43.46565326143382" lon="12.038051496103154"><ele>339.5</ele><time>2026-04-11T10:25:21.735Z</time></trkpt><trkpt lat="43.46561607651874" lon="12.037920569909842"><ele>339.0</ele><time>2026-04-11T10:25:22.732Z</time></trkpt><trkpt lat="43.465582229465724" lon="12.037786635119243"><ele>338.5</ele><time>2026-04-11T10:25:23.74Z</time></trkpt><trkpt lat="43.46555700863862" lon="12.037684822253116"><ele>338.0</ele><time>2026-04-11T10:25:24.73Z</time></trkpt><trkpt lat="43.46553108514923" lon="12.037588106420966"><ele>337.5</ele><time>2026-04-11T10:25:25.731Z</time></trkpt><trkpt lat="43.465501895073466" lon="12.037506407786612"><ele>337.0</ele><time>2026-04-11T10:25:26.73Z</time></trkpt><trkpt lat="43.46543475413241" lon="12.037393521531108"><ele>337.0</ele><time>2026-04-11T10:25:28.732Z</time></trkpt><trkpt lat="43.46537377966501" lon="12.03732633949298"><ele>337.0</ele><time>2026-04-11T10:25:30.732Z</time></trkpt><trkpt lat="43.465313344116" lon="12.037289337606012"><ele>337.0</ele><time>2026-04-11T10:25:33.731Z</time></trkpt><trkpt lat="43.46525711038052" lon="12.037203891585843"><ele>337.0</ele><time>2026-04-11T10:25:46.739Z</time></trkpt><trkpt lat="43.46527243301216" lon="12.037194451698348"><ele>337.0</ele><time>2026-04-11T10:26:12.731Z</time></trkpt><trkpt lat="43.465337237561066" lon="12.037499465614273"><ele>335.5</ele><time>2026-04-11T12:05:47.654Z</time></trkpt><trkpt lat="43.46538335116605" lon="12.037565301467513"><ele>334.0</ele><time>2026-04-11T12:05:48.653Z</time></trkpt><trkpt lat="43.465430022579284" lon="12.037625713615451"><ele>332.5</ele><time>2026-04-11T12:05:49.652Z</time></trkpt><trkpt lat="43.46551361385541" lon="12.03776871133543"><ele>331.0</ele><time>2026-04-11T12:05:51.652Z</time></trkpt><trkpt lat="43.46555144036838" lon="12.037868629542473"><ele>329.5</ele><time>2026-04-11T12:05:52.655Z</time></trkpt><trkpt lat="43.465577706032754" lon="12.037964254946859"><ele>328.0</ele><time>2026-04-11T12:05:53.653Z</time></trkpt><trkpt lat="43.46559851851936" lon="12.038054207570442"><ele>330.0</ele><time>2026-04-11T12:05:54.651Z</time></trkpt><trkpt lat="43.46561622045919" lon="12.038151874839103"><ele>332.0</ele><time>2026-04-11T12:05:55.651Z</time></trkpt><trkpt lat="43.465637747399256" lon="12.038259268065785"><ele>334.0</ele><time>2026-04-11T12:05:56.65Z</time></trkpt><trkpt lat="43.4656560823593" lon="12.038374608544919"><ele>336.0</ele><time>2026-04-11T12:05:57.651Z</time></trkpt><trkpt lat="43.46567142978459" lon="12.038495322837427"><ele>338.0</ele><time>2026-04-11T12:05:58.653Z</time></trkpt><trkpt lat="43.46568489151898" lon="12.038612031214333"><ele>340.0</ele><time>2026-04-11T12:05:59.653Z</time></trkpt><trkpt lat="43.465674215579035" lon="12.038743457570732"><ele>340.0</ele><time>2026-04-11T12:06:00.651Z</time></trkpt><trkpt lat="43.46567433656379" lon="12.038871674089513"><ele>340.0</ele><time>2026-04-11T12:06:01.65Z</time></trkpt><trkpt lat="43.46567025436674" lon="12.038995075380111"><ele>340.0</ele><time>2026-04-11T12:06:02.65Z</time></trkpt><trkpt lat="43.46566271237819" lon="12.039115018147044"><ele>340.0</ele><time>2026-04-11T12:06:03.65Z</time></trkpt><trkpt lat="43.4656592661833" lon="12.039231220546359"><ele>340.0</ele><time>2026-04-11T12:06:04.649Z</time></trkpt><trkpt lat="43.46566297448322" lon="12.039345495367222"><ele>340.0</ele><time>2026-04-11T12:06:05.65Z</time></trkpt><trkpt lat="43.465707911883385" lon="12.03952654469493"><ele>338.16666666666663</ele><time>2026-04-11T12:06:07.65Z</time></trkpt><trkpt lat="43.46574666596803" lon="12.03966840625529"><ele>336.3333333333333</ele><time>2026-04-11T12:06:09.651Z</time></trkpt><trkpt lat="43.4657916653449" lon="12.03979996311941"><ele>334.5</ele><time>2026-04-11T12:06:11.651Z</time></trkpt><trkpt lat="43.46579885327808" lon="12.039912313291225"><ele>332.6666666666667</ele><time>2026-04-11T12:06:13.652Z</time></trkpt><trkpt lat="43.465749139662584" lon="12.03999557792927"><ele>330.83333333333337</ele><time>2026-04-11T12:06:16.651Z</time></trkpt><trkpt lat="43.465680767955746" lon="12.040028377627463"><ele>329.0</ele><time>2026-04-11T12:06:18.649Z</time></trkpt><trkpt lat="43.46556004447958" lon="12.040051091985427"><ele>328.1666666666667</ele><time>2026-04-11T12:06:20.651Z</time></trkpt><trkpt lat="43.46549119358133" lon="12.040075044375012"><ele>327.33333333333337</ele><time>2026-04-11T12:06:21.658Z</time></trkpt><trkpt lat="43.46542134699419" lon="12.040112225980293"><ele>326.5</ele><time>2026-04-11T12:06:22.653Z</time></trkpt><trkpt lat="43.465351603507365" lon="12.04015150725112"><ele>325.6666666666667</ele><time>2026-04-11T12:06:23.654Z</time></trkpt><trkpt lat="43.46528116160177" lon="12.040190469858276"><ele>324.8333333333333</ele><time>2026-04-11T12:06:24.652Z</time></trkpt><trkpt lat="43.46520894996403" lon="12.040231240542857"><ele>324.0</ele><time>2026-04-11T12:06:25.652Z</time></trkpt><trkpt lat="43.46513740901579" lon="12.040268295610904"><ele>323.2</ele><time>2026-04-11T12:06:26.652Z</time></trkpt><trkpt lat="43.46499390248795" lon="12.040349343432725"><ele>322.4</ele><time>2026-04-11T12:06:28.646Z</time></trkpt><trkpt lat="43.464915378829026" lon="12.040401524602778"><ele>321.6</ele><time>2026-04-11T12:06:29.644Z</time></trkpt><trkpt lat="43.46483816785992" lon="12.040453514708453"><ele>320.8</ele><time>2026-04-11T12:06:30.65Z</time></trkpt><trkpt lat="43.4647603524307" lon="12.040508310245364"><ele>320.0</ele><time>2026-04-11T12:06:31.651Z</time></trkpt><trkpt lat="43.46462472730683" lon="12.040564610707774"><ele>320.0</ele><time>2026-04-11T12:06:32.652Z</time></trkpt><trkpt lat="43.46453114123267" lon="12.040627578337853"><ele>320.0</ele><time>2026-04-11T12:06:33.652Z</time></trkpt><trkpt lat="43.46443913744514" lon="12.040691225510677"><ele>320.0</ele><time>2026-04-11T12:06:34.65Z</time></trkpt><trkpt lat="43.464347054886105" lon="12.040755831198224"><ele>320.0</ele><time>2026-04-11T12:06:35.652Z</time></trkpt><trkpt lat="43.46424405716775" lon="12.040827672277267"><ele>320.0</ele><time>2026-04-11T12:06:36.653Z</time></trkpt><trkpt lat="43.46413306245906" lon="12.040897388146872"><ele>320.0</ele><time>2026-04-11T12:06:37.652Z</time></trkpt><trkpt lat="43.46405027622483" lon="12.040943772808228"><ele>320.0</ele><time>2026-04-11T12:06:38.654Z</time></trkpt><trkpt lat="43.463929529752996" lon="12.041008354896114"><ele>320.0</ele><time>2026-04-11T12:06:40.654Z</time></trkpt><trkpt lat="43.46385954777603" lon="12.041030544719144"><ele>320.0</ele><time>2026-04-11T12:06:41.652Z</time></trkpt><trkpt lat="43.46378775285866" lon="12.041036611539974"><ele>320.0</ele><time>2026-04-11T12:06:42.654Z</time></trkpt><trkpt lat="43.463705643557695" lon="12.041030956100837"><ele>320.0</ele><time>2026-04-11T12:06:43.653Z</time></trkpt><trkpt lat="43.46362085453842" lon="12.041022654130481"><ele>320.25</ele><time>2026-04-11T12:06:44.648Z</time></trkpt><trkpt lat="43.463533414792586" lon="12.041021077561572"><ele>320.5</ele><time>2026-04-11T12:06:45.651Z</time></trkpt><trkpt lat="43.46343138439987" lon="12.041031376131556"><ele>320.75</ele><time>2026-04-11T12:06:46.652Z</time></trkpt><trkpt lat="43.46334656167992" lon="12.041029910393245"><ele>321.0</ele><time>2026-04-11T12:06:47.653Z</time></trkpt><trkpt lat="43.46317297370624" lon="12.040991718955592"><ele>321.0</ele><time>2026-04-11T12:06:50.651Z</time></trkpt><trkpt lat="43.463113993859146" lon="12.04102464898978"><ele>321.0</ele><time>2026-04-11T12:06:52.653Z</time></trkpt><trkpt lat="43.46304031573313" lon="12.041076826694947"><ele>321.0</ele><time>2026-04-11T12:06:55.653Z</time></trkpt><trkpt lat="43.4629724706875" lon="12.041139464278817"><ele>321.0</ele><time>2026-04-11T12:06:57.652Z</time></trkpt><trkpt lat="43.46287871979128" lon="12.041261347893787"><ele>321.0</ele><time>2026-04-11T12:06:59.65Z</time></trkpt><trkpt lat="43.46282657389638" lon="12.041311273130237"><ele>321.0</ele><time>2026-04-11T12:07:00.651Z</time></trkpt><trkpt lat="43.462774711361185" lon="12.041397055518969"><ele>321.8</ele><time>2026-04-11T12:07:02.652Z</time></trkpt><trkpt lat="43.46271765958694" lon="12.041443020752832"><ele>322.6</ele><time>2026-04-11T12:07:04.652Z</time></trkpt><trkpt lat="43.46265801416137" lon="12.041474296037805"><ele>323.4</ele><time>2026-04-11T12:07:06.653Z</time></trkpt><trkpt lat="43.462573298587266" lon="12.041559446151254"><ele>324.2</ele><time>2026-04-11T12:07:10.651Z</time></trkpt><trkpt lat="43.46241268206148" lon="12.041740767136304"><ele>325.0</ele><time>2026-04-11T12:07:14.653Z</time></trkpt><trkpt lat="43.462359665552974" lon="12.041789862604778"><ele>326.3333333333333</ele><time>2026-04-11T12:07:15.654Z</time></trkpt><trkpt lat="43.46227289735814" lon="12.041895449628509"><ele>327.66666666666663</ele><time>2026-04-11T12:07:17.654Z</time></trkpt><trkpt lat="43.46223367587066" lon="12.041989987266323"><ele>329.0</ele><time>2026-04-11T12:07:19.65Z</time></trkpt><trkpt lat="43.462313199250765" lon="12.04205493086651"><ele>330.3333333333333</ele><time>2026-04-11T12:07:21.65Z</time></trkpt><trkpt lat="43.462364825043515" lon="12.04210812022036"><ele>331.6666666666667</ele><time>2026-04-11T12:07:22.651Z</time></trkpt><trkpt lat="43.46241489698178" lon="12.042181451375045"><ele>333.0</ele><time>2026-04-11T12:07:23.653Z</time></trkpt><trkpt lat="43.46245942992341" lon="12.04230026697986"><ele>333.0</ele><time>2026-04-11T12:07:24.651Z</time></trkpt><trkpt lat="43.4624821157144" lon="12.042425772732956"><ele>333.0</ele><time>2026-04-11T12:07:25.651Z</time></trkpt><trkpt lat="43.46252270238551" lon="12.042520761855311"><ele>333.0</ele><time>2026-04-11T12:07:26.651Z</time></trkpt><trkpt lat="43.46256680084796" lon="12.042601253382431"><ele>333.0</ele><time>2026-04-11T12:07:27.651Z</time></trkpt><trkpt lat="43.46259868380151" lon="12.04268652114863"><ele>333.0</ele><time>2026-04-11T12:07:28.652Z</time></trkpt><trkpt lat="43.46261338434752" lon="12.042779204092069"><ele>333.0</ele><time>2026-04-11T12:07:29.649Z</time></trkpt><trkpt lat="43.46260733159863" lon="12.04288491107353"><ele>336.2</ele><time>2026-04-11T12:07:30.65Z</time></trkpt><trkpt lat="43.46260330399158" lon="12.04300637474388"><ele>339.4</ele><time>2026-04-11T12:07:31.651Z</time></trkpt><trkpt lat="43.462548582881155" lon="12.043215450543974"><ele>342.59999999999997</ele><time>2026-04-11T12:07:33.653Z</time></trkpt><trkpt lat="43.46254971462943" lon="12.043315756313959"><ele>345.79999999999995</ele><time>2026-04-11T12:07:34.65Z</time></trkpt><trkpt lat="43.46248774020064" lon="12.043454751948206"><ele>349.0</ele><time>2026-04-11T12:07:36.652Z</time></trkpt><trkpt lat="43.462417338663435" lon="12.04346166701268"><ele>349.0</ele><time>2026-04-11T12:07:37.654Z</time></trkpt><trkpt lat="43.462356489013764" lon="12.04341384768741"><ele>349.0</ele><time>2026-04-11T12:07:38.653Z</time></trkpt><trkpt lat="43.46230353324096" lon="12.043336756980667"><ele>349.0</ele><time>2026-04-11T12:07:39.65Z</time></trkpt><trkpt lat="43.462246794353554" lon="12.043271163141158"><ele>349.0</ele><time>2026-04-11T12:07:40.65Z</time></trkpt><trkpt lat="43.46218645410274" lon="12.043205338158863"><ele>349.0</ele><time>2026-04-11T12:07:41.65Z</time></trkpt><trkpt lat="43.462093790395365" lon="12.043196717731538"><ele>349.0</ele><time>2026-04-11T12:07:43.651Z</time></trkpt><trkpt lat="43.46197442501169" lon="12.043184651169767"><ele>351.0</ele><time>2026-04-11T12:07:45.65Z</time></trkpt><trkpt lat="43.461840783666695" lon="12.043197770766696"><ele>353.0</ele><time>2026-04-11T12:07:47.649Z</time></trkpt><trkpt lat="43.46181516458243" lon="12.043333788668878"><ele>355.0</ele><time>2026-04-11T12:07:50.649Z</time></trkpt><trkpt lat="43.46182997521871" lon="12.043435838252398"><ele>357.0</ele><time>2026-04-11T12:07:51.651Z</time></trkpt><trkpt lat="43.461839124206676" lon="12.043550461383788"><ele>359.0</ele><time>2026-04-11T12:07:52.651Z</time></trkpt><trkpt lat="43.461829345995994" lon="12.04376576115652"><ele>362.0</ele><time>2026-04-11T12:07:54.651Z</time></trkpt><trkpt lat="43.46181777375914" lon="12.043864037481828"><ele>365.0</ele><time>2026-04-11T12:07:55.654Z</time></trkpt><trkpt lat="43.46180269228503" lon="12.043955810870404"><ele>368.0</ele><time>2026-04-11T12:07:56.654Z</time></trkpt><trkpt lat="43.46178003487426" lon="12.044038369100694"><ele>371.0</ele><time>2026-04-11T12:07:57.654Z</time></trkpt><trkpt lat="43.46175252831067" lon="12.044147058113495"><ele>374.0</ele><time>2026-04-11T12:07:59.651Z</time></trkpt><trkpt lat="43.46168771327712" lon="12.044245401634976"><ele>377.0</ele><time>2026-04-11T12:08:01.65Z</time></trkpt><trkpt lat="43.46165848254126" lon="12.044340140236297"><ele>379.1666666666667</ele><time>2026-04-11T12:08:02.653Z</time></trkpt><trkpt lat="43.46163258252061" lon="12.044442827674725"><ele>381.33333333333337</ele><time>2026-04-11T12:08:03.652Z</time></trkpt><trkpt lat="43.461587341815694" lon="12.04454311420818"><ele>383.5</ele><time>2026-04-11T12:08:04.652Z</time></trkpt><trkpt lat="43.461543630406446" lon="12.04461187000327"><ele>385.6666666666667</ele><time>2026-04-11T12:08:05.653Z</time></trkpt><trkpt lat="43.461463077399024" lon="12.044716598767419"><ele>387.8333333333333</ele><time>2026-04-11T12:08:06.655Z</time></trkpt><trkpt lat="43.461375653030636" lon="12.044764984127097"><ele>390.0</ele><time>2026-04-11T12:08:08.653Z</time></trkpt><trkpt lat="43.46126570154242" lon="12.044845775100432"><ele>393.0</ele><time>2026-04-11T12:08:10.652Z</time></trkpt><trkpt lat="43.46114138616324" lon="12.044903084772576"><ele>396.0</ele><time>2026-04-11T12:08:12.654Z</time></trkpt><trkpt lat="43.461053544043516" lon="12.044914962586336"><ele>399.0</ele><time>2026-04-11T12:08:13.655Z</time></trkpt><trkpt lat="43.46083390283048" lon="12.045039358040677"><ele>400.6</ele><time>2026-04-11T12:08:16.654Z</time></trkpt><trkpt lat="43.46074736268394" lon="12.045106572418561"><ele>402.2</ele><time>2026-04-11T12:08:17.655Z</time></trkpt><trkpt lat="43.4606872512153" lon="12.045160494747213"><ele>403.8</ele><time>2026-04-11T12:08:18.655Z</time></trkpt><trkpt lat="43.46060779503103" lon="12.04522029110589"><ele>405.40000000000003</ele><time>2026-04-11T12:08:19.655Z</time></trkpt><trkpt lat="43.46051114208618" lon="12.045281721210214"><ele>407.0</ele><time>2026-04-11T12:08:20.654Z</time></trkpt><trkpt lat="43.460423094838" lon="12.045327667411621"><ele>408.0</ele><time>2026-04-11T12:08:21.653Z</time></trkpt><trkpt lat="43.46034057097261" lon="12.04536431492874"><ele>409.0</ele><time>2026-04-11T12:08:22.654Z</time></trkpt><trkpt lat="43.460260624593296" lon="12.045389257471562"><ele>410.0</ele><time>2026-04-11T12:08:23.654Z</time></trkpt><trkpt lat="43.4601260495323" lon="12.045379316490289"><ele>411.0</ele><time>2026-04-11T12:08:25.655Z</time></trkpt><trkpt lat="43.46003643218672" lon="12.04534082323533"><ele>412.0</ele><time>2026-04-11T12:08:26.656Z</time></trkpt><trkpt lat="43.45995485182798" lon="12.045298947363852"><ele>412.00000000000006</ele><time>2026-04-11T12:08:27.655Z</time></trkpt><trkpt lat="43.45988496909253" lon="12.045271742117574"><ele>412.0</ele><time>2026-04-11T12:08:28.653Z</time></trkpt><trkpt lat="43.45981375750109" lon="12.045282692203257"><ele>412.0</ele><time>2026-04-11T12:08:29.651Z</time></trkpt><trkpt lat="43.45973376958492" lon="12.04530123093034"><ele>412.0</ele><time>2026-04-11T12:08:30.653Z</time></trkpt><trkpt lat="43.45965418189834" lon="12.04531800139016"><ele>412.00000000000006</ele><time>2026-04-11T12:08:31.654Z</time></trkpt><trkpt lat="43.45956425428501" lon="12.045309634916022"><ele>412.0</ele><time>2026-04-11T12:08:32.663Z</time></trkpt><trkpt lat="43.45947602696335" lon="12.045283165316853"><ele>415.25</ele><time>2026-04-11T12:08:33.654Z</time></trkpt><trkpt lat="43.459394041946155" lon="12.04527267809563"><ele>418.5</ele><time>2026-04-11T12:08:34.652Z</time></trkpt><trkpt lat="43.45918647259033" lon="12.045286664561669"><ele>421.75</ele><time>2026-04-11T12:08:38.653Z</time></trkpt><trkpt lat="43.45915505589778" lon="12.045207248334947"><ele>425.0</ele><time>2026-04-11T12:08:39.652Z</time></trkpt><trkpt lat="43.45906508735981" lon="12.045071044691584"><ele>424.99999999999994</ele><time>2026-04-11T12:08:41.652Z</time></trkpt><trkpt lat="43.459018578444706" lon="12.04500949187048"><ele>425.0</ele><time>2026-04-11T12:08:42.654Z</time></trkpt><trkpt lat="43.45895259764691" lon="12.044994780130532"><ele>425.0</ele><time>2026-04-11T12:08:43.652Z</time></trkpt><trkpt lat="43.458849028693095" lon="12.044974530487554"><ele>425.0</ele><time>2026-04-11T12:08:45.654Z</time></trkpt><trkpt lat="43.45873195761014" lon="12.045043729904526"><ele>424.99999999999994</ele><time>2026-04-11T12:08:47.654Z</time></trkpt><trkpt lat="43.458670068761414" lon="12.045072826966866"><ele>425.0</ele><time>2026-04-11T12:08:48.654Z</time></trkpt><trkpt lat="43.45859413839971" lon="12.045106527921998"><ele>428.16666666666663</ele><time>2026-04-11T12:08:49.651Z</time></trkpt><trkpt lat="43.4584953795855" lon="12.045065728727304"><ele>431.3333333333333</ele><time>2026-04-11T12:08:51.654Z</time></trkpt><trkpt lat="43.45841314168887" lon="12.045061616377078"><ele>434.5</ele><time>2026-04-11T12:08:52.654Z</time></trkpt><trkpt lat="43.45833750375588" lon="12.04508716734211"><ele>437.66666666666663</ele><time>2026-04-11T12:08:53.653Z</time></trkpt><trkpt lat="43.45826175094137" lon="12.045129378408287"><ele>440.8333333333333</ele><time>2026-04-11T12:08:54.651Z</time></trkpt><trkpt lat="43.45820516633976" lon="12.045182524530631"><ele>444.0</ele><time>2026-04-11T12:08:55.654Z</time></trkpt><trkpt lat="43.45806191786387" lon="12.045255648450082"><ele>444.0</ele><time>2026-04-11T12:08:57.653Z</time></trkpt><trkpt lat="43.45798799481665" lon="12.04527573938246"><ele>444.0</ele><time>2026-04-11T12:08:58.653Z</time></trkpt><trkpt lat="43.45790931309721" lon="12.045289709484623"><ele>444.0</ele><time>2026-04-11T12:08:59.651Z</time></trkpt><trkpt lat="43.45782517814712" lon="12.045325822423447"><ele>444.0</ele><time>2026-04-11T12:09:00.655Z</time></trkpt><trkpt lat="43.45773747669535" lon="12.045386982902285"><ele>444.0</ele><time>2026-04-11T12:09:01.654Z</time></trkpt><trkpt lat="43.45765144682349" lon="12.045426371881058"><ele>444.0</ele><time>2026-04-11T12:09:02.653Z</time></trkpt><trkpt lat="43.45756015849575" lon="12.045465436829417"><ele>447.1666666666667</ele><time>2026-04-11T12:09:03.653Z</time></trkpt><trkpt lat="43.457502988197625" lon="12.045519263094157"><ele>450.33333333333337</ele><time>2026-04-11T12:09:04.652Z</time></trkpt><trkpt lat="43.4574703349606" lon="12.045600651326255"><ele>453.5</ele><time>2026-04-11T12:09:05.654Z</time></trkpt><trkpt lat="43.45747708946972" lon="12.045712558094253"><ele>456.6666666666667</ele><time>2026-04-11T12:09:07.654Z</time></trkpt><trkpt lat="43.45748813386759" lon="12.045816810628155"><ele>459.83333333333337</ele><time>2026-04-11T12:09:14.651Z</time></trkpt><trkpt lat="43.4575385042827" lon="12.045898652851951"><ele>463.0</ele><time>2026-04-11T12:09:15.653Z</time></trkpt><trkpt lat="43.457593368577584" lon="12.045993261233088"><ele>463.0</ele><time>2026-04-11T12:09:16.654Z</time></trkpt><trkpt lat="43.457632026079146" lon="12.046184163293608"><ele>462.99999999999994</ele><time>2026-04-11T12:09:18.651Z</time></trkpt><trkpt lat="43.457605525987915" lon="12.046270451382052"><ele>462.99999999999994</ele><time>2026-04-11T12:09:19.652Z</time></trkpt><trkpt lat="43.45756231043438" lon="12.046344258165215"><ele>463.0</ele><time>2026-04-11T12:09:20.652Z</time></trkpt><trkpt lat="43.4574720938295" lon="12.046371074196406"><ele>463.0</ele><time>2026-04-11T12:09:22.651Z</time></trkpt><trkpt lat="43.457405618200376" lon="12.046310295444501"><ele>463.00000000000006</ele><time>2026-04-11T12:09:23.651Z</time></trkpt><trkpt lat="43.45735035655132" lon="12.046261550002432"><ele>463.0</ele><time>2026-04-11T12:09:24.652Z</time></trkpt><trkpt lat="43.457262337502904" lon="12.046291510885299"><ele>463.0</ele><time>2026-04-11T12:09:26.652Z</time></trkpt><trkpt lat="43.4571422454749" lon="12.046342689215548"><ele>463.0</ele><time>2026-04-11T12:09:28.652Z</time></trkpt><trkpt lat="43.45707751761749" lon="12.046353926794254"><ele>463.00000000000006</ele><time>2026-04-11T12:09:29.652Z</time></trkpt><trkpt lat="43.45700179960187" lon="12.046352156342081"><ele>463.0</ele><time>2026-04-11T12:09:30.653Z</time></trkpt><trkpt lat="43.45692035953058" lon="12.046366892035074"><ele>466.83333333333337</ele><time>2026-04-11T12:09:31.65Z</time></trkpt><trkpt lat="43.456830933036535" lon="12.046388221092245"><ele>470.6666666666667</ele><time>2026-04-11T12:09:32.651Z</time></trkpt><trkpt lat="43.45674529102166" lon="12.04644566394203"><ele>474.5</ele><time>2026-04-11T12:09:33.652Z</time></trkpt><trkpt lat="43.4566788004396" lon="12.046486295625634"><ele>478.33333333333337</ele><time>2026-04-11T12:09:34.651Z</time></trkpt><trkpt lat="43.45662239577757" lon="12.046525559977313"><ele>482.1666666666667</ele><time>2026-04-11T12:09:35.653Z</time></trkpt><trkpt lat="43.45655022279466" lon="12.046559466723314"><ele>486.0</ele><time>2026-04-11T12:09:36.662Z</time></trkpt><trkpt lat="43.45647686078557" lon="12.04657535016687"><ele>486.8</ele><time>2026-04-11T12:09:37.652Z</time></trkpt><trkpt lat="43.45630537705994" lon="12.046630641324718"><ele>487.6</ele><time>2026-04-11T12:09:39.651Z</time></trkpt><trkpt lat="43.45622206484253" lon="12.04664904143402"><ele>488.4</ele><time>2026-04-11T12:09:40.658Z</time></trkpt><trkpt lat="43.45615219472688" lon="12.04666901237606"><ele>489.2</ele><time>2026-04-11T12:09:41.653Z</time></trkpt><trkpt lat="43.456076503895154" lon="12.046588940350217"><ele>490.0</ele><time>2026-04-11T12:09:43.652Z</time></trkpt><trkpt lat="43.45598135895232" lon="12.046311438067672"><ele>494.4</ele><time>2026-04-11T12:09:46.653Z</time></trkpt><trkpt lat="43.4559442067864" lon="12.046187916977097"><ele>498.8</ele><time>2026-04-11T12:09:47.652Z</time></trkpt><trkpt lat="43.455941600175045" lon="12.046096711570593"><ele>503.20000000000005</ele><time>2026-04-11T12:09:48.652Z</time></trkpt><trkpt lat="43.45595286953555" lon="12.045925831089393"><ele>507.6</ele><time>2026-04-11T12:09:50.651Z</time></trkpt><trkpt lat="43.455909130435764" lon="12.045835500714302"><ele>512.0</ele><time>2026-04-11T12:09:51.652Z</time></trkpt><trkpt lat="43.455843626841535" lon="12.045760478067416"><ele>513.8333333333333</ele><time>2026-04-11T12:09:52.652Z</time></trkpt><trkpt lat="43.45577673059813" lon="12.045696509320832"><ele>515.6666666666666</ele><time>2026-04-11T12:09:53.653Z</time></trkpt><trkpt lat="43.45573068163975" lon="12.045625221365814"><ele>517.5</ele><time>2026-04-11T12:09:54.653Z</time></trkpt><trkpt lat="43.455711422606996" lon="12.045532917345145"><ele>519.3333333333334</ele><time>2026-04-11T12:09:55.652Z</time></trkpt><trkpt lat="43.455722127107116" lon="12.0454472816405"><ele>521.1666666666667</ele><time>2026-04-11T12:09:56.652Z</time></trkpt><trkpt lat="43.455754430302854" lon="12.04536128871895"><ele>523.0</ele><time>2026-04-11T12:09:57.661Z</time></trkpt><trkpt lat="43.45569420813477" lon="12.045258310189324"><ele>523.0</ele><time>2026-04-11T12:09:59.65Z</time></trkpt><trkpt lat="43.45552398682611" lon="12.04544172211604"><ele>523.0</ele><time>2026-04-11T12:10:03.649Z</time></trkpt><trkpt lat="43.455460096344396" lon="12.04549760043839"><ele>523.0</ele><time>2026-04-11T12:10:04.648Z</time></trkpt><trkpt lat="43.45541393413445" lon="12.045558276211537"><ele>523.0</ele><time>2026-04-11T12:10:05.649Z</time></trkpt><trkpt lat="43.45541358575324" lon="12.045706253142564"><ele>525.8333333333334</ele><time>2026-04-11T12:10:07.651Z</time></trkpt><trkpt lat="43.455409439108934" lon="12.045814900122803"><ele>528.6666666666667</ele><time>2026-04-11T12:10:08.651Z</time></trkpt><trkpt lat="43.45537655383982" lon="12.045892304526507"><ele>531.5</ele><time>2026-04-11T12:10:09.653Z</time></trkpt><trkpt lat="43.4553155958607" lon="12.045963311897378"><ele>534.3333333333334</ele><time>2026-04-11T12:10:11.651Z</time></trkpt><trkpt lat="43.45522952693379" lon="12.046089025751368"><ele>537.1666666666666</ele><time>2026-04-11T12:10:13.653Z</time></trkpt><trkpt lat="43.45518273225398" lon="12.046150960275845"><ele>540.0</ele><time>2026-04-11T12:10:14.653Z</time></trkpt><trkpt lat="43.455103752761836" lon="12.046199730047748"><ele>540.0</ele><time>2026-04-11T12:10:16.653Z</time></trkpt><trkpt lat="43.454993325140336" lon="12.04622468108419"><ele>540.0</ele><time>2026-04-11T12:10:18.651Z</time></trkpt><trkpt lat="43.4549116524179" lon="12.046315512022678"><ele>540.0</ele><time>2026-04-11T12:10:20.652Z</time></trkpt><trkpt lat="43.45473968298347" lon="12.046303167507068"><ele>540.0</ele><time>2026-04-11T12:10:24.65Z</time></trkpt><trkpt lat="43.45481537455262" lon="12.046184430521619"><ele>540.0</ele><time>2026-04-11T12:10:26.65Z</time></trkpt><trkpt lat="43.45481034177356" lon="12.046020598891733"><ele>540.0</ele><time>2026-04-11T12:10:28.651Z</time></trkpt><trkpt lat="43.454788736794214" lon="12.045916309989565"><ele>540.0</ele><time>2026-04-11T12:10:29.652Z</time></trkpt><trkpt lat="43.4547851413642" lon="12.04580623896237"><ele>540.0</ele><time>2026-04-11T12:10:30.651Z</time></trkpt><trkpt lat="43.45479110585797" lon="12.04571491330857"><ele>540.0</ele><time>2026-04-11T12:10:31.651Z</time></trkpt><trkpt lat="43.45483175250803" lon="12.045618067124442"><ele>540.0</ele><time>2026-04-11T12:10:32.652Z</time></trkpt><trkpt lat="43.45486537803195" lon="12.045510290514057"><ele>540.6666666666666</ele><time>2026-04-11T12:10:33.66Z</time></trkpt><trkpt lat="43.454885989930645" lon="12.045397455176806"><ele>541.3333333333334</ele><time>2026-04-11T12:10:34.652Z</time></trkpt><trkpt lat="43.45491238972117" lon="12.045276030220412"><ele>542.0</ele><time>2026-04-11T12:10:35.652Z</time></trkpt><trkpt lat="43.45493518153978" lon="12.04518218467053"><ele>542.6666666666667</ele><time>2026-04-11T12:10:36.652Z</time></trkpt><trkpt lat="43.45489414084663" lon="12.045089635716016"><ele>543.3333333333334</ele><time>2026-04-11T12:10:38.655Z</time></trkpt><trkpt lat="43.45482859707367" lon="12.045076368700505"><ele>544.0</ele><time>2026-04-11T12:10:39.655Z</time></trkpt><trkpt lat="43.45474906361646" lon="12.04507915790808"><ele>544.0</ele><time>2026-04-11T12:10:40.654Z</time></trkpt><trkpt lat="43.45466346435229" lon="12.045108237200944"><ele>544.0</ele><time>2026-04-11T12:10:41.654Z</time></trkpt><trkpt lat="43.4545071438943" lon="12.045183265276298"><ele>544.0</ele><time>2026-04-11T12:10:43.653Z</time></trkpt><trkpt lat="43.45445547076565" lon="12.045234231830488"><ele>544.0</ele><time>2026-04-11T12:10:44.652Z</time></trkpt><trkpt lat="43.45441514033472" lon="12.045318754077083"><ele>544.0</ele><time>2026-04-11T12:10:45.65Z</time></trkpt><trkpt lat="43.45438243005472" lon="12.04542384192517"><ele>548.4</ele><time>2026-04-11T12:10:46.651Z</time></trkpt><trkpt lat="43.45435048857964" lon="12.04554449963855"><ele>552.8</ele><time>2026-04-11T12:10:47.651Z</time></trkpt><trkpt lat="43.45430798716891" lon="12.045649995404531"><ele>557.2</ele><time>2026-04-11T12:10:48.651Z</time></trkpt><trkpt lat="43.45422886835707" lon="12.045760709387496"><ele>561.6</ele><time>2026-04-11T12:10:50.651Z</time></trkpt><trkpt lat="43.45416945530692" lon="12.045670243866406"><ele>566.0</ele><time>2026-04-11T12:10:52.649Z</time></trkpt><trkpt lat="43.45412718421646" lon="12.045593440673564"><ele>566.0</ele><time>2026-04-11T12:10:53.65Z</time></trkpt><trkpt lat="43.454059649857115" lon="12.045480157695557"><ele>566.0</ele><time>2026-04-11T12:10:55.651Z</time></trkpt><trkpt lat="43.45400852229622" lon="12.045403661880405"><ele>566.0</ele><time>2026-04-11T12:10:56.651Z</time></trkpt><trkpt lat="43.453900204048665" lon="12.045241286065194"><ele>566.0</ele><time>2026-04-11T12:10:58.649Z</time></trkpt><trkpt lat="43.45378951595021" lon="12.04515684343997"><ele>571.5</ele><time>2026-04-11T12:10:59.651Z</time></trkpt><trkpt lat="43.45369975419105" lon="12.045049320513636"><ele>577.0</ele><time>2026-04-11T12:11:00.65Z</time></trkpt><trkpt lat="43.45362745567306" lon="12.044983868658887"><ele>582.5</ele><time>2026-04-11T12:11:01.65Z</time></trkpt><trkpt lat="43.45356607966218" lon="12.04494689489639"><ele>588.0</ele><time>2026-04-11T12:11:02.651Z</time></trkpt><trkpt lat="43.45329113730247" lon="12.044862547807378"><ele>588.6</ele><time>2026-04-11T12:11:06.65Z</time></trkpt><trkpt lat="43.453179066881724" lon="12.044817630303783"><ele>589.1999999999999</ele><time>2026-04-11T12:11:07.651Z</time></trkpt><trkpt lat="43.45309125213575" lon="12.044774759580287"><ele>589.8</ele><time>2026-04-11T12:11:08.651Z</time></trkpt><trkpt lat="43.45300417619531" lon="12.044679885330442"><ele>590.4</ele><time>2026-04-11T12:11:10.65Z</time></trkpt><trkpt lat="43.45293295649837" lon="12.044620441303792"><ele>591.0</ele><time>2026-04-11T12:11:11.65Z</time></trkpt><trkpt lat="43.45292322286665" lon="12.04453000344668"><ele>591.0</ele><time>2026-04-11T12:11:13.651Z</time></trkpt><trkpt lat="43.452996594690816" lon="12.044507223726317"><ele>591.0</ele><time>2026-04-11T12:11:15.65Z</time></trkpt><trkpt lat="43.45309601824441" lon="12.044497439107444"><ele>591.0</ele><time>2026-04-11T12:11:17.649Z</time></trkpt><trkpt lat="43.45315182044222" lon="12.044444353770388"><ele>591.0</ele><time>2026-04-11T12:11:20.651Z</time></trkpt><trkpt lat="43.45316392252377" lon="12.044340234981506"><ele>591.0</ele><time>2026-04-11T12:11:32.65Z</time></trkpt><trkpt lat="43.45324303572566" lon="12.044107622469994"><ele>592.0</ele><time>2026-04-11T12:11:35.651Z</time></trkpt><trkpt lat="43.453233406036574" lon="12.043955673372663"><ele>593.0</ele><time>2026-04-11T12:11:37.652Z</time></trkpt><trkpt lat="43.453219522536514" lon="12.04387040245097"><ele>594.0</ele><time>2026-04-11T12:11:38.652Z</time></trkpt><trkpt lat="43.45323045413435" lon="12.043712980539578"><ele>595.0</ele><time>2026-04-11T12:11:40.652Z</time></trkpt><trkpt lat="43.45318754609672" lon="12.0436170947175"><ele>596.0</ele><time>2026-04-11T12:11:42.652Z</time></trkpt><trkpt lat="43.453129043358125" lon="12.043525379606164"><ele>596.0</ele><time>2026-04-11T12:11:44.651Z</time></trkpt><trkpt lat="43.45305737927181" lon="12.043491319259564"><ele>596.0</ele><time>2026-04-11T12:11:45.653Z</time></trkpt><trkpt lat="43.45298809012781" lon="12.04345212655104"><ele>596.0</ele><time>2026-04-11T12:11:46.652Z</time></trkpt><trkpt lat="43.45292924059215" lon="12.043385444063286"><ele>596.0</ele><time>2026-04-11T12:11:47.652Z</time></trkpt><trkpt lat="43.45291066848039" lon="12.043296724870626"><ele>596.0</ele><time>2026-04-11T12:11:48.653Z</time></trkpt><trkpt lat="43.45288256328978" lon="12.043192448120275"><ele>596.0</ele><time>2026-04-11T12:11:49.653Z</time></trkpt><trkpt lat="43.45284614023526" lon="12.04309612955456"><ele>599.75</ele><time>2026-04-11T12:11:50.652Z</time></trkpt><trkpt lat="43.45276577686312" lon="12.043025068503795"><ele>603.5</ele><time>2026-04-11T12:11:51.653Z</time></trkpt><trkpt lat="43.452682858205996" lon="12.0429673563806"><ele>607.25</ele><time>2026-04-11T12:11:52.652Z</time></trkpt><trkpt lat="43.45263514890733" lon="12.042875637944622"><ele>611.0</ele><time>2026-04-11T12:11:53.653Z</time></trkpt><trkpt lat="43.45250397743543" lon="12.042622775928379"><ele>611.0</ele><time>2026-04-11T12:11:55.651Z</time></trkpt><trkpt lat="43.452450701531056" lon="12.042510747605569"><ele>611.0</ele><time>2026-04-11T12:11:56.652Z</time></trkpt><trkpt lat="43.45242789144874" lon="12.042404192347211"><ele>611.0</ele><time>2026-04-11T12:11:57.652Z</time></trkpt><trkpt lat="43.45241910045276" lon="12.042280704933942"><ele>611.0</ele><time>2026-04-11T12:11:58.66Z</time></trkpt><trkpt lat="43.452440031949436" lon="12.04215956793288"><ele>611.0</ele><time>2026-04-11T12:11:59.651Z</time></trkpt><trkpt lat="43.45245637644357" lon="12.042014349322356"><ele>613.2</ele><time>2026-04-11T12:12:00.652Z</time></trkpt><trkpt lat="43.452445491011666" lon="12.041913533712941"><ele>615.4000000000001</ele><time>2026-04-11T12:12:01.653Z</time></trkpt><trkpt lat="43.452358023449015" lon="12.04183847230139"><ele>617.6</ele><time>2026-04-11T12:12:03.653Z</time></trkpt><trkpt lat="43.452303952018994" lon="12.041764978960126"><ele>619.8000000000001</ele><time>2026-04-11T12:12:05.653Z</time></trkpt><trkpt lat="43.45220557682387" lon="12.041707500170212"><ele>622.0</ele><time>2026-04-11T12:12:29.654Z</time></trkpt><trkpt lat="43.45212131565843" lon="12.0415202150902"><ele>625.1666666666667</ele><time>2026-04-11T12:12:31.653Z</time></trkpt><trkpt lat="43.4520432407012" lon="12.04145123467806"><ele>628.3333333333334</ele><time>2026-04-11T12:12:32.651Z</time></trkpt><trkpt lat="43.451967775846235" lon="12.041409322488125"><ele>631.5</ele><time>2026-04-11T12:12:33.653Z</time></trkpt><trkpt lat="43.45192013596246" lon="12.041295220147832"><ele>634.6666666666666</ele><time>2026-04-11T12:12:35.653Z</time></trkpt><trkpt lat="43.45188009477574" lon="12.041161367686941"><ele>637.8333333333333</ele><time>2026-04-11T12:12:37.653Z</time></trkpt><trkpt lat="43.45181527984647" lon="12.041143053577139"><ele>641.0</ele><time>2026-04-11T12:12:38.652Z</time></trkpt><trkpt lat="43.45174407730673" lon="12.04110376768765"><ele>641.0</ele><time>2026-04-11T12:12:39.653Z</time></trkpt><trkpt lat="43.45167799746463" lon="12.041043783589137"><ele>641.0</ele><time>2026-04-11T12:12:40.654Z</time></trkpt><trkpt lat="43.451618303764086" lon="12.04099939079022"><ele>641.0</ele><time>2026-04-11T12:12:41.652Z</time></trkpt><trkpt lat="43.45154788713233" lon="12.040984264326713"><ele>641.0</ele><time>2026-04-11T12:12:42.653Z</time></trkpt><trkpt lat="43.45145290822635" lon="12.040995616340812"><ele>641.0</ele><time>2026-04-11T12:12:44.654Z</time></trkpt><trkpt lat="43.45137590371991" lon="12.04094550460008"><ele>641.0</ele><time>2026-04-11T12:12:46.653Z</time></trkpt><trkpt lat="43.4513090327336" lon="12.040987657631915"><ele>643.5</ele><time>2026-04-11T12:12:48.652Z</time></trkpt><trkpt lat="43.451269370936465" lon="12.04106051337688"><ele>646.0</ele><time>2026-04-11T12:12:49.653Z</time></trkpt><trkpt lat="43.45117201603862" lon="12.041027996202363"><ele>648.5</ele><time>2026-04-11T12:12:51.652Z</time></trkpt><trkpt lat="43.45095892710975" lon="12.040981075815418"><ele>651.0</ele><time>2026-04-11T12:12:55.652Z</time></trkpt><trkpt lat="43.45094398173752" lon="12.040875699399615"><ele>651.6666666666666</ele><time>2026-04-11T12:12:56.653Z</time></trkpt><trkpt lat="43.45091181478024" lon="12.040794785066439"><ele>652.3333333333334</ele><time>2026-04-11T12:12:57.653Z</time></trkpt><trkpt lat="43.45085255846164" lon="12.040739703152404"><ele>653.0</ele><time>2026-04-11T12:12:58.652Z</time></trkpt><trkpt lat="43.45076194990572" lon="12.040724956198842"><ele>653.6666666666667</ele><time>2026-04-11T12:12:59.652Z</time></trkpt><trkpt lat="43.45067647268996" lon="12.040669732984627"><ele>654.3333333333334</ele><time>2026-04-11T12:13:00.653Z</time></trkpt><trkpt lat="43.45060012609533" lon="12.040577891563885"><ele>655.0</ele><time>2026-04-11T12:13:01.652Z</time></trkpt><trkpt lat="43.450542673655804" lon="12.040535694223099"><ele>655.0</ele><time>2026-04-11T12:13:02.654Z</time></trkpt><trkpt lat="43.45047827922531" lon="12.040534723907822"><ele>655.0</ele><time>2026-04-11T12:13:03.652Z</time></trkpt><trkpt lat="43.45038577333612" lon="12.040586342600616"><ele>655.0</ele><time>2026-04-11T12:13:04.653Z</time></trkpt><trkpt lat="43.450287754597866" lon="12.040637527794145"><ele>655.0</ele><time>2026-04-11T12:13:05.653Z</time></trkpt><trkpt lat="43.45020639375893" lon="12.040655459872491"><ele>655.0</ele><time>2026-04-11T12:13:06.652Z</time></trkpt><trkpt lat="43.4501416272022" lon="12.040617701320501"><ele>655.0</ele><time>2026-04-11T12:13:07.653Z</time></trkpt><trkpt lat="43.45008315531853" lon="12.040537112832578"><ele>655.4</ele><time>2026-04-11T12:13:08.653Z</time></trkpt><trkpt lat="43.4500138311266" lon="12.040453503932337"><ele>655.8</ele><time>2026-04-11T12:13:09.654Z</time></trkpt><trkpt lat="43.44997040188801" lon="12.040344086341927"><ele>656.2</ele><time>2026-04-11T12:13:10.652Z</time></trkpt><trkpt lat="43.449937685683125" lon="12.040251019211448"><ele>656.6</ele><time>2026-04-11T12:13:11.652Z</time></trkpt><trkpt lat="43.44982701554715" lon="12.040213295478111"><ele>657.0</ele><time>2026-04-11T12:13:13.652Z</time></trkpt><trkpt lat="43.44965027782016" lon="12.040251273911547"><ele>659.3333333333334</ele><time>2026-04-11T12:13:15.651Z</time></trkpt><trkpt lat="43.44958632839308" lon="12.040209973285915"><ele>661.6666666666666</ele><time>2026-04-11T12:13:16.651Z</time></trkpt><trkpt lat="43.449472379417976" lon="12.040201548371146"><ele>664.0</ele><time>2026-04-11T12:13:18.652Z</time></trkpt><trkpt lat="43.4494023766245" lon="12.040179418291467"><ele>666.3333333333333</ele><time>2026-04-11T12:13:19.653Z</time></trkpt><trkpt lat="43.449370443221156" lon="12.040069904627831"><ele>668.6666666666666</ele><time>2026-04-11T12:13:20.653Z</time></trkpt><trkpt lat="43.44934809959193" lon="12.039939602116178"><ele>671.0</ele><time>2026-04-11T12:13:21.653Z</time></trkpt><trkpt lat="43.449326717721334" lon="12.039827703172767"><ele>671.0</ele><time>2026-04-11T12:13:22.652Z</time></trkpt><trkpt lat="43.44928065884792" lon="12.039749156919042"><ele>671.0</ele><time>2026-04-11T12:13:23.651Z</time></trkpt><trkpt lat="43.44922481239517" lon="12.039689940439825"><ele>671.0</ele><time>2026-04-11T12:13:24.651Z</time></trkpt><trkpt lat="43.44914775999749" lon="12.039621805979888"><ele>671.0</ele><time>2026-04-11T12:13:25.652Z</time></trkpt><trkpt lat="43.44907453495053" lon="12.039550021799167"><ele>671.0</ele><time>2026-04-11T12:13:26.651Z</time></trkpt><trkpt lat="43.44901593945249" lon="12.039457243251869"><ele>671.0</ele><time>2026-04-11T12:13:27.651Z</time></trkpt><trkpt lat="43.44892554252753" lon="12.03938926036152"><ele>671.0</ele><time>2026-04-11T12:13:28.653Z</time></trkpt><trkpt lat="43.44884016078825" lon="12.039377074977043"><ele>671.0</ele><time>2026-04-11T12:13:29.652Z</time></trkpt><trkpt lat="43.44874667876069" lon="12.039456179124658"><ele>671.0</ele><time>2026-04-11T12:13:31.652Z</time></trkpt><trkpt lat="43.44870892114998" lon="12.03954768406104"><ele>671.0</ele><time>2026-04-11T12:13:32.652Z</time></trkpt><trkpt lat="43.448677528663225" lon="12.039632076590221"><ele>671.0</ele><time>2026-04-11T12:13:33.653Z</time></trkpt><trkpt lat="43.44873932580602" lon="12.039742922494776"><ele>671.0</ele><time>2026-04-11T12:13:35.652Z</time></trkpt><trkpt lat="43.448763717460324" lon="12.03994613627935"><ele>673.5999999999999</ele><time>2026-04-11T12:13:37.651Z</time></trkpt><trkpt lat="43.44874470046854" lon="12.040073477000256"><ele>676.2</ele><time>2026-04-11T12:13:38.651Z</time></trkpt><trkpt lat="43.44870024828356" lon="12.04018758789564"><ele>678.8</ele><time>2026-04-11T12:13:39.652Z</time></trkpt><trkpt lat="43.44861515674375" lon="12.040278523652894"><ele>681.4000000000001</ele><time>2026-04-11T12:13:41.658Z</time></trkpt><trkpt lat="43.448531299054736" lon="12.040348172163302"><ele>684.0</ele><time>2026-04-11T12:13:42.651Z</time></trkpt><trkpt lat="43.448419921900125" lon="12.040441669396104"><ele>684.0</ele><time>2026-04-11T12:13:43.651Z</time></trkpt><trkpt lat="43.448332273354794" lon="12.040538019816879"><ele>684.0</ele><time>2026-04-11T12:13:44.651Z</time></trkpt><trkpt lat="43.448261314196316" lon="12.040569794528555"><ele>684.0</ele><time>2026-04-11T12:13:46.652Z</time></trkpt><trkpt lat="43.44829617954769" lon="12.040655215115077"><ele>684.0</ele><time>2026-04-11T12:14:03.651Z</time></trkpt><trkpt lat="43.44829633914801" lon="12.040825248093906"><ele>684.0</ele><time>2026-04-11T12:14:06.652Z</time></trkpt><trkpt lat="43.448234678359626" lon="12.04097297620253"><ele>685.1666666666666</ele><time>2026-04-11T12:14:08.65Z</time></trkpt><trkpt lat="43.448189068122645" lon="12.041041334827822"><ele>686.3333333333334</ele><time>2026-04-11T12:14:09.649Z</time></trkpt><trkpt lat="43.448173252565304" lon="12.041153515609908"><ele>687.5</ele><time>2026-04-11T12:14:10.65Z</time></trkpt><trkpt lat="43.44821744920658" lon="12.041300601983234"><ele>688.6666666666667</ele><time>2026-04-11T12:14:12.65Z</time></trkpt><trkpt lat="43.448269112336696" lon="12.041364463870174"><ele>689.8333333333334</ele><time>2026-04-11T12:14:13.651Z</time></trkpt><trkpt lat="43.448336256384835" lon="12.041484240175873"><ele>691.0</ele><time>2026-04-11T12:14:15.651Z</time></trkpt><trkpt lat="43.44838274452922" lon="12.041618110640195"><ele>692.5999999999999</ele><time>2026-04-11T12:14:17.648Z</time></trkpt><trkpt lat="43.448436668289624" lon="12.041703331512421"><ele>694.2</ele><time>2026-04-11T12:14:19.648Z</time></trkpt><trkpt lat="43.44854199695827" lon="12.041814696903128"><ele>695.8</ele><time>2026-04-11T12:14:21.648Z</time></trkpt><trkpt lat="43.448592822896735" lon="12.041879626000018"><ele>697.4000000000001</ele><time>2026-04-11T12:14:22.647Z</time></trkpt><trkpt lat="43.44868868852407" lon="12.041990522296649"><ele>699.0</ele><time>2026-04-11T12:14:24.648Z</time></trkpt><trkpt lat="43.448812993643294" lon="12.042216664437655"><ele>698.3333333333334</ele><time>2026-04-11T12:14:27.647Z</time></trkpt><trkpt lat="43.448892365882585" lon="12.042296468245667"><ele>697.6666666666666</ele><time>2026-04-11T12:14:29.648Z</time></trkpt><trkpt lat="43.448968614372184" lon="12.042323770845783"><ele>697.0</ele><time>2026-04-11T12:14:30.646Z</time></trkpt><trkpt lat="43.449022697783796" lon="12.042381047852205"><ele>696.3333333333333</ele><time>2026-04-11T12:14:31.649Z</time></trkpt><trkpt lat="43.44907779868159" lon="12.042435681728815"><ele>695.6666666666666</ele><time>2026-04-11T12:14:32.647Z</time></trkpt><trkpt lat="43.44918121827156" lon="12.04254506418265"><ele>695.0</ele><time>2026-04-11T12:14:34.648Z</time></trkpt><trkpt lat="43.44926550000833" lon="12.042629026153769"><ele>695.0</ele><time>2026-04-11T12:14:35.648Z</time></trkpt><trkpt lat="43.44936786929524" lon="12.042707647605623"><ele>695.0</ele><time>2026-04-11T12:14:36.646Z</time></trkpt><trkpt lat="43.449473579333606" lon="12.04276009173236"><ele>695.0</ele><time>2026-04-11T12:14:38.647Z</time></trkpt><trkpt lat="43.44954823558216" lon="12.042860674897733"><ele>695.0</ele><time>2026-04-11T12:14:40.65Z</time></trkpt><trkpt lat="43.44961595264342" lon="12.042947363718591"><ele>695.0</ele><time>2026-04-11T12:14:41.649Z</time></trkpt><trkpt lat="43.44969269449571" lon="12.043029773679102"><ele>693.0</ele><time>2026-04-11T12:14:42.649Z</time></trkpt><trkpt lat="43.44974759417738" lon="12.043102694113797"><ele>691.0</ele><time>2026-04-11T12:14:43.65Z</time></trkpt><trkpt lat="43.449799102567944" lon="12.04316868868606"><ele>689.0</ele><time>2026-04-11T12:14:44.65Z</time></trkpt><trkpt lat="43.44983234998918" lon="12.043266084108131"><ele>687.0</ele><time>2026-04-11T12:14:45.651Z</time></trkpt><trkpt lat="43.4499083001956" lon="12.043463270552891"><ele>685.0</ele><time>2026-04-11T12:14:48.651Z</time></trkpt><trkpt lat="43.44986000793481" lon="12.04355106735248"><ele>685.0</ele><time>2026-04-11T12:14:50.65Z</time></trkpt><trkpt lat="43.449878401900484" lon="12.04366510727242"><ele>685.0</ele><time>2026-04-11T12:14:52.649Z</time></trkpt><trkpt lat="43.45000103295223" lon="12.043729125462402"><ele>685.0</ele><time>2026-04-11T12:14:54.648Z</time></trkpt><trkpt lat="43.45007585366739" lon="12.043757486880924"><ele>685.0</ele><time>2026-04-11T12:14:55.651Z</time></trkpt><trkpt lat="43.45012417144137" lon="12.043829194028339"><ele>685.0</ele><time>2026-04-11T12:14:56.65Z</time></trkpt><trkpt lat="43.450154637709936" lon="12.043932913444912"><ele>685.0</ele><time>2026-04-11T12:14:57.652Z</time></trkpt><trkpt lat="43.45020109677739" lon="12.044018089804554"><ele>685.0</ele><time>2026-04-11T12:14:58.651Z</time></trkpt><trkpt lat="43.45025540077274" lon="12.04408982980413"><ele>685.0</ele><time>2026-04-11T12:14:59.651Z</time></trkpt><trkpt lat="43.45032247375298" lon="12.044137356675021"><ele>685.0</ele><time>2026-04-11T12:15:00.651Z</time></trkpt><trkpt lat="43.450407061898154" lon="12.044184570887191"><ele>685.0</ele><time>2026-04-11T12:15:01.65Z</time></trkpt><trkpt lat="43.45045969813614" lon="12.044238122862522"><ele>685.0</ele><time>2026-04-11T12:15:02.651Z</time></trkpt><trkpt lat="43.45049441511291" lon="12.044320532951067"><ele>685.0</ele><time>2026-04-11T12:15:03.652Z</time></trkpt><trkpt lat="43.450516286678436" lon="12.044419414284862"><ele>683.8</ele><time>2026-04-11T12:15:04.651Z</time></trkpt><trkpt lat="43.45059179873891" lon="12.044476720193037"><ele>682.6</ele><time>2026-04-11T12:15:06.648Z</time></trkpt><trkpt lat="43.450760461731704" lon="12.04444051294822"><ele>681.4000000000001</ele><time>2026-04-11T12:15:09.651Z</time></trkpt><trkpt lat="43.450882575468135" lon="12.04447357731393"><ele>680.2</ele><time>2026-04-11T12:15:11.648Z</time></trkpt><trkpt lat="43.45094389295848" lon="12.044497973706438"><ele>679.0</ele><time>2026-04-11T12:15:12.651Z</time></trkpt><trkpt lat="43.45104856008804" lon="12.044583479654973"><ele>679.0</ele><time>2026-04-11T12:15:14.651Z</time></trkpt><trkpt lat="43.45108838618189" lon="12.044669975436115"><ele>679.0</ele><time>2026-04-11T12:15:15.652Z</time></trkpt><trkpt lat="43.4511615156307" lon="12.044732638637479"><ele>679.0</ele><time>2026-04-11T12:15:16.649Z</time></trkpt><trkpt lat="43.45125085442948" lon="12.044857352305216"><ele>679.0</ele><time>2026-04-11T12:15:18.651Z</time></trkpt><trkpt lat="43.451294565485746" lon="12.044920018337828"><ele>679.0</ele><time>2026-04-11T12:15:19.651Z</time></trkpt><trkpt lat="43.45132908049455" lon="12.045016435968458"><ele>679.0</ele><time>2026-04-11T12:15:20.65Z</time></trkpt><trkpt lat="43.45142384841821" lon="12.045143652206214"><ele>676.3333333333334</ele><time>2026-04-11T12:15:22.65Z</time></trkpt><trkpt lat="43.451462604583256" lon="12.045234457770736"><ele>673.6666666666667</ele><time>2026-04-11T12:15:23.648Z</time></trkpt><trkpt lat="43.45150360767912" lon="12.045349220292506"><ele>671.0</ele><time>2026-04-11T12:15:24.659Z</time></trkpt><trkpt lat="43.45152580792502" lon="12.04545353226639"><ele>668.3333333333334</ele><time>2026-04-11T12:15:25.649Z</time></trkpt><trkpt lat="43.45154378160082" lon="12.045550132386085"><ele>665.6666666666666</ele><time>2026-04-11T12:15:26.649Z</time></trkpt><trkpt lat="43.45157351097067" lon="12.045629806922227"><ele>663.0</ele><time>2026-04-11T12:15:27.65Z</time></trkpt><trkpt lat="43.45170002562549" lon="12.045787148381404"><ele>666.1666666666666</ele><time>2026-04-11T12:15:31.65Z</time></trkpt><trkpt lat="43.45175857642492" lon="12.045840012220747"><ele>669.3333333333334</ele><time>2026-04-11T12:15:32.65Z</time></trkpt><trkpt lat="43.45181967460189" lon="12.045874590070975"><ele>672.5</ele><time>2026-04-11T12:15:33.649Z</time></trkpt><trkpt lat="43.45188405100137" lon="12.045922725056487"><ele>675.6666666666667</ele><time>2026-04-11T12:15:34.649Z</time></trkpt><trkpt lat="43.45198251216381" lon="12.045989442250193"><ele>678.8333333333334</ele><time>2026-04-11T12:15:35.649Z</time></trkpt><trkpt lat="43.45203260406675" lon="12.046091849225439"><ele>682.0</ele><time>2026-04-11T12:15:36.649Z</time></trkpt><trkpt lat="43.45209630822277" lon="12.0461543629352"><ele>676.4000000000001</ele><time>2026-04-11T12:15:37.649Z</time></trkpt><trkpt lat="43.452156097904634" lon="12.04628975743696"><ele>670.8000000000001</ele><time>2026-04-11T12:15:39.651Z</time></trkpt><trkpt lat="43.452192853728164" lon="12.046455146993859"><ele>665.2</ele><time>2026-04-11T12:15:41.649Z</time></trkpt><trkpt lat="43.452197612012924" lon="12.046579520193342"><ele>659.6</ele><time>2026-04-11T12:15:42.648Z</time></trkpt><trkpt lat="43.45219537939189" lon="12.046701660313703"><ele>654.0</ele><time>2026-04-11T12:15:43.65Z</time></trkpt><trkpt lat="43.45217172501607" lon="12.046855996798431"><ele>654.0</ele><time>2026-04-11T12:15:44.649Z</time></trkpt><trkpt lat="43.45216895112763" lon="12.046964690080458"><ele>654.0</ele><time>2026-04-11T12:15:45.65Z</time></trkpt><trkpt lat="43.45218232679415" lon="12.047089736189161"><ele>654.0</ele><time>2026-04-11T12:15:46.648Z</time></trkpt><trkpt lat="43.452192874145325" lon="12.047223840167394"><ele>654.0</ele><time>2026-04-11T12:15:47.65Z</time></trkpt><trkpt lat="43.45220808610256" lon="12.047347818226857"><ele>654.0</ele><time>2026-04-11T12:15:48.648Z</time></trkpt><trkpt lat="43.45225287411631" lon="12.047586267692198"><ele>653.8000000000001</ele><time>2026-04-11T12:15:50.65Z</time></trkpt><trkpt lat="43.4522242594017" lon="12.047746398318864"><ele>653.6</ele><time>2026-04-11T12:15:52.65Z</time></trkpt><trkpt lat="43.452219468791746" lon="12.047952803678967"><ele>653.4</ele><time>2026-04-11T12:15:54.65Z</time></trkpt><trkpt lat="43.45221079255551" lon="12.048052190420918"><ele>653.2</ele><time>2026-04-11T12:15:55.65Z</time></trkpt><trkpt lat="43.45218730757652" lon="12.048172944271396"><ele>653.0</ele><time>2026-04-11T12:15:56.651Z</time></trkpt><trkpt lat="43.45216008370492" lon="12.048255723601253"><ele>656.2</ele><time>2026-04-11T12:15:57.65Z</time></trkpt><trkpt lat="43.45211680323414" lon="12.048384690371792"><ele>659.4</ele><time>2026-04-11T12:15:58.65Z</time></trkpt><trkpt lat="43.45206893690704" lon="12.048503617822579"><ele>662.6</ele><time>2026-04-11T12:15:59.65Z</time></trkpt><trkpt lat="43.45202930383058" lon="12.048642530479258"><ele>665.8000000000001</ele><time>2026-04-11T12:16:00.659Z</time></trkpt><trkpt lat="43.45199996634743" lon="12.048792303818782"><ele>669.0</ele><time>2026-04-11T12:16:01.65Z</time></trkpt><trkpt lat="43.4520450224662" lon="12.04894873917455"><ele>669.0</ele><time>2026-04-11T12:16:03.651Z</time></trkpt><trkpt lat="43.45210248092471" lon="12.049042179686271"><ele>669.0</ele><time>2026-04-11T12:16:04.652Z</time></trkpt><trkpt lat="43.45216395030024" lon="12.04910901522825"><ele>669.0</ele><time>2026-04-11T12:16:05.652Z</time></trkpt><trkpt lat="43.45220439314701" lon="12.049194940394088"><ele>669.0</ele><time>2026-04-11T12:16:06.652Z</time></trkpt><trkpt lat="43.452209484583264" lon="12.049288414960552"><ele>669.0</ele><time>2026-04-11T12:16:07.653Z</time></trkpt><trkpt lat="43.452210280520696" lon="12.04940945947673"><ele>669.0</ele><time>2026-04-11T12:16:08.65Z</time></trkpt><trkpt lat="43.452217294585836" lon="12.049542498286396"><ele>663.75</ele><time>2026-04-11T12:16:09.651Z</time></trkpt><trkpt lat="43.45218553468517" lon="12.049805634769106"><ele>658.5</ele><time>2026-04-11T12:16:11.649Z</time></trkpt><trkpt lat="43.452161402621286" lon="12.04994396533978"><ele>653.25</ele><time>2026-04-11T12:16:12.651Z</time></trkpt><trkpt lat="43.45216036037414" lon="12.050082367944773"><ele>648.0</ele><time>2026-04-11T12:16:13.65Z</time></trkpt><trkpt lat="43.45214176260874" lon="12.050238037108164"><ele>647.3333333333334</ele><time>2026-04-11T12:16:14.651Z</time></trkpt><trkpt lat="43.45213334228377" lon="12.05033090549531"><ele>646.6666666666666</ele><time>2026-04-11T12:16:15.651Z</time></trkpt><trkpt lat="43.45212273504281" lon="12.05043742856676"><ele>646.0</ele><time>2026-04-11T12:16:16.65Z</time></trkpt><trkpt lat="43.45212348200353" lon="12.050563083029616"><ele>645.3333333333333</ele><time>2026-04-11T12:16:17.651Z</time></trkpt><trkpt lat="43.45215545546686" lon="12.05068735748224"><ele>644.6666666666666</ele><time>2026-04-11T12:16:18.652Z</time></trkpt><trkpt lat="43.45220760659303" lon="12.050782154822222"><ele>644.0</ele><time>2026-04-11T12:16:19.65Z</time></trkpt><trkpt lat="43.45229218315455" lon="12.050866259403737"><ele>644.0</ele><time>2026-04-11T12:16:20.652Z</time></trkpt><trkpt lat="43.452364384701035" lon="12.050955061508942"><ele>644.0</ele><time>2026-04-11T12:16:21.65Z</time></trkpt><trkpt lat="43.45242500220566" lon="12.051045363256819"><ele>644.0</ele><time>2026-04-11T12:16:22.651Z</time></trkpt><trkpt lat="43.452490779746945" lon="12.051156321891547"><ele>644.0</ele><time>2026-04-11T12:16:23.65Z</time></trkpt><trkpt lat="43.45254468773894" lon="12.051292643940132"><ele>644.0</ele><time>2026-04-11T12:16:24.651Z</time></trkpt><trkpt lat="43.45260636373552" lon="12.0514362144377"><ele>644.0</ele><time>2026-04-11T12:16:25.651Z</time></trkpt><trkpt lat="43.4526817727597" lon="12.051563780339318"><ele>644.0</ele><time>2026-04-11T12:16:26.652Z</time></trkpt><trkpt lat="43.45278275195609" lon="12.051703338958324"><ele>644.0</ele><time>2026-04-11T12:16:27.652Z</time></trkpt><trkpt lat="43.45285985116553" lon="12.05186430711044"><ele>644.0</ele><time>2026-04-11T12:16:28.651Z</time></trkpt><trkpt lat="43.45292559068164" lon="12.05201080876557"><ele>640.25</ele><time>2026-04-11T12:16:29.65Z</time></trkpt><trkpt lat="43.4529818870798" lon="12.052153584097848"><ele>636.5</ele><time>2026-04-11T12:16:30.65Z</time></trkpt><trkpt lat="43.45305607293347" lon="12.052412449097332"><ele>632.75</ele><time>2026-04-11T12:16:32.653Z</time></trkpt><trkpt lat="43.453093190414585" lon="12.05253221216463"><ele>629.0</ele><time>2026-04-11T12:16:33.652Z</time></trkpt><trkpt lat="43.4531449048604" lon="12.052650632610318"><ele>627.8</ele><time>2026-04-11T12:16:34.651Z</time></trkpt><trkpt lat="43.45318968312179" lon="12.052767484309722"><ele>626.5999999999999</ele><time>2026-04-11T12:16:35.652Z</time></trkpt><trkpt lat="43.4532525208874" lon="12.052873233710157"><ele>625.4</ele><time>2026-04-11T12:16:36.65Z</time></trkpt><trkpt lat="43.453331571266226" lon="12.052935106652347"><ele>624.1999999999999</ele><time>2026-04-11T12:16:37.651Z</time></trkpt><trkpt lat="43.453410712655064" lon="12.05297788941037"><ele>623.0</ele><time>2026-04-11T12:16:38.648Z</time></trkpt><trkpt lat="43.45348658360754" lon="12.053029314003785"><ele>623.0</ele><time>2026-04-11T12:16:39.651Z</time></trkpt><trkpt lat="43.45354942188187" lon="12.053100591833807"><ele>623.0</ele><time>2026-04-11T12:16:40.651Z</time></trkpt><trkpt lat="43.45359283686931" lon="12.053193442972024"><ele>623.0</ele><time>2026-04-11T12:16:41.65Z</time></trkpt><trkpt lat="43.45360480100636" lon="12.053293411947676"><ele>623.0</ele><time>2026-04-11T12:16:42.651Z</time></trkpt><trkpt lat="43.453608330677596" lon="12.053381267799839"><ele>623.0</ele><time>2026-04-11T12:16:43.652Z</time></trkpt><trkpt lat="43.4536396244565" lon="12.053472358021383"><ele>623.0</ele><time>2026-04-11T12:16:44.651Z</time></trkpt><trkpt lat="43.45369204058062" lon="12.053598969609684"><ele>622.75</ele><time>2026-04-11T12:16:46.651Z</time></trkpt><trkpt lat="43.453722838060465" lon="12.05369792191759"><ele>622.5</ele><time>2026-04-11T12:16:48.651Z</time></trkpt><trkpt lat="43.453767726302424" lon="12.053829736907263"><ele>622.25</ele><time>2026-04-11T12:16:51.65Z</time></trkpt><trkpt lat="43.45383447139211" lon="12.054111745952182"><ele>622.0</ele><time>2026-04-11T12:16:54.648Z</time></trkpt><trkpt lat="43.45384869228957" lon="12.054232025990842"><ele>622.0</ele><time>2026-04-11T12:16:55.649Z</time></trkpt><trkpt lat="43.45386387515773" lon="12.054360816404277"><ele>622.0</ele><time>2026-04-11T12:16:56.648Z</time></trkpt><trkpt lat="43.45387376746064" lon="12.054491737306469"><ele>622.0</ele><time>2026-04-11T12:16:57.649Z</time></trkpt><trkpt lat="43.453874919652236" lon="12.054626986457494"><ele>622.0</ele><time>2026-04-11T12:16:58.65Z</time></trkpt><trkpt lat="43.45388703387043" lon="12.05475283506288"><ele>622.0</ele><time>2026-04-11T12:16:59.649Z</time></trkpt><trkpt lat="43.45391894227606" lon="12.054868456678658"><ele>622.4</ele><time>2026-04-11T12:17:00.649Z</time></trkpt><trkpt lat="43.45396366226803" lon="12.05498623905439"><ele>622.8000000000001</ele><time>2026-04-11T12:17:01.649Z</time></trkpt><trkpt lat="43.45402031507269" lon="12.05509526719606"><ele>623.2</ele><time>2026-04-11T12:17:02.648Z</time></trkpt><trkpt lat="43.45407997579157" lon="12.055193378803352"><ele>623.6</ele><time>2026-04-11T12:17:03.649Z</time></trkpt><trkpt lat="43.45413727467892" lon="12.055297431344814"><ele>624.0</ele><time>2026-04-11T12:17:04.65Z</time></trkpt><trkpt lat="43.45419098148152" lon="12.055406570568545"><ele>624.0</ele><time>2026-04-11T12:17:05.651Z</time></trkpt><trkpt lat="43.45422861974008" lon="12.055517201123775"><ele>624.0</ele><time>2026-04-11T12:17:06.649Z</time></trkpt><trkpt lat="43.45424013693034" lon="12.055641855188139"><ele>624.0</ele><time>2026-04-11T12:17:07.659Z</time></trkpt><trkpt lat="43.454223697614026" lon="12.055764628816496"><ele>624.0</ele><time>2026-04-11T12:17:08.651Z</time></trkpt><trkpt lat="43.454194456905036" lon="12.055882911298736"><ele>624.0</ele><time>2026-04-11T12:17:09.651Z</time></trkpt><trkpt lat="43.45416482263789" lon="12.056005720020279"><ele>624.25</ele><time>2026-04-11T12:17:10.65Z</time></trkpt><trkpt lat="43.45414121168895" lon="12.056128224713524"><ele>624.5</ele><time>2026-04-11T12:17:11.65Z</time></trkpt><trkpt lat="43.454120169873136" lon="12.05625625408132"><ele>624.75</ele><time>2026-04-11T12:17:12.649Z</time></trkpt><trkpt lat="43.454096880144235" lon="12.056503579681799"><ele>625.0</ele><time>2026-04-11T12:17:14.65Z</time></trkpt><trkpt lat="43.454112152391126" lon="12.056627787657552"><ele>625.0</ele><time>2026-04-11T12:17:15.65Z</time></trkpt><trkpt lat="43.454149166158736" lon="12.056733133159842"><ele>625.0</ele><time>2026-04-11T12:17:16.65Z</time></trkpt><trkpt lat="43.454198543641844" lon="12.056828063730048"><ele>625.0</ele><time>2026-04-11T12:17:17.649Z</time></trkpt><trkpt lat="43.45426102232814" lon="12.056918706625206"><ele>625.0</ele><time>2026-04-11T12:17:18.648Z</time></trkpt><trkpt lat="43.454338912501655" lon="12.057000949374283"><ele>625.0</ele><time>2026-04-11T12:17:19.65Z</time></trkpt><trkpt lat="43.454426799172346" lon="12.057057159898324"><ele>625.0</ele><time>2026-04-11T12:17:20.649Z</time></trkpt><trkpt lat="43.45452306267367" lon="12.057085904364168"><ele>625.0</ele><time>2026-04-11T12:17:21.648Z</time></trkpt><trkpt lat="43.45461963962738" lon="12.057080290715795"><ele>625.0</ele><time>2026-04-11T12:17:22.648Z</time></trkpt><trkpt lat="43.45471681633258" lon="12.057064687026134"><ele>625.0</ele><time>2026-04-11T12:17:23.648Z</time></trkpt><trkpt lat="43.45481306163234" lon="12.057055281398892"><ele>625.0</ele><time>2026-04-11T12:17:24.649Z</time></trkpt><trkpt lat="43.45489277524136" lon="12.057052573664556"><ele>623.2</ele><time>2026-04-11T12:17:25.648Z</time></trkpt><trkpt lat="43.454969652498676" lon="12.057051942523168"><ele>621.4</ele><time>2026-04-11T12:17:26.649Z</time></trkpt><trkpt lat="43.45506489945045" lon="12.057051354527403"><ele>619.6</ele><time>2026-04-11T12:17:27.651Z</time></trkpt><trkpt lat="43.45516378070598" lon="12.057067388126923"><ele>617.8</ele><time>2026-04-11T12:17:28.648Z</time></trkpt><trkpt lat="43.45526036315368" lon="12.05713336135714"><ele>616.0</ele><time>2026-04-11T12:17:29.649Z</time></trkpt><trkpt lat="43.45535229879902" lon="12.057220668937516"><ele>616.0</ele><time>2026-04-11T12:17:30.648Z</time></trkpt><trkpt lat="43.45545020468693" lon="12.057297004990241"><ele>616.0</ele><time>2026-04-11T12:17:31.648Z</time></trkpt><trkpt lat="43.45555402881031" lon="12.057351478197955"><ele>616.0</ele><time>2026-04-11T12:17:32.648Z</time></trkpt><trkpt lat="43.455659210362754" lon="12.057383100965605"><ele>616.0</ele><time>2026-04-11T12:17:33.648Z</time></trkpt><trkpt lat="43.455876486820856" lon="12.057412186959345"><ele>618.0</ele><time>2026-04-11T12:17:35.649Z</time></trkpt><trkpt lat="43.455981197765766" lon="12.057434752077379"><ele>620.0</ele><time>2026-04-11T12:17:36.65Z</time></trkpt><trkpt lat="43.45607647601425" lon="12.057463168453175"><ele>622.0</ele><time>2026-04-11T12:17:37.649Z</time></trkpt><trkpt lat="43.45618018175177" lon="12.057474303132155"><ele>624.0</ele><time>2026-04-11T12:17:38.649Z</time></trkpt><trkpt lat="43.456277692756" lon="12.05745288273755"><ele>626.0</ele><time>2026-04-11T12:17:39.649Z</time></trkpt><trkpt lat="43.456375069544535" lon="12.057421067796108"><ele>621.8333333333333</ele><time>2026-04-11T12:17:40.649Z</time></trkpt><trkpt lat="43.45646927389568" lon="12.057389924902157"><ele>617.6666666666666</ele><time>2026-04-11T12:17:41.649Z</time></trkpt><trkpt lat="43.45656010876976" lon="12.057362342094581"><ele>613.5</ele><time>2026-04-11T12:17:42.648Z</time></trkpt><trkpt lat="43.45664332386451" lon="12.057338138843368"><ele>609.3333333333334</ele><time>2026-04-11T12:17:43.646Z</time></trkpt><trkpt lat="43.456715627658724" lon="12.05731609164225"><ele>605.1666666666667</ele><time>2026-04-11T12:17:44.649Z</time></trkpt><trkpt lat="43.45678026811746" lon="12.057289055990575"><ele>601.0</ele><time>2026-04-11T12:17:45.649Z</time></trkpt><trkpt lat="43.45685304431832" lon="12.057271407245285"><ele>601.0</ele><time>2026-04-11T12:17:46.65Z</time></trkpt><trkpt lat="43.45694186975173" lon="12.057259492043917"><ele>601.0</ele><time>2026-04-11T12:17:47.65Z</time></trkpt><trkpt lat="43.45703704387812" lon="12.057264601002743"><ele>601.0</ele><time>2026-04-11T12:17:48.651Z</time></trkpt><trkpt lat="43.45712686519401" lon="12.057286547982008"><ele>601.0</ele><time>2026-04-11T12:17:49.65Z</time></trkpt><trkpt lat="43.45720649569169" lon="12.057332382761292"><ele>601.0</ele><time>2026-04-11T12:17:50.651Z</time></trkpt><trkpt lat="43.45728092328626" lon="12.057402083776187"><ele>601.5</ele><time>2026-04-11T12:17:51.649Z</time></trkpt><trkpt lat="43.45734423842534" lon="12.057499473740691"><ele>602.0</ele><time>2026-04-11T12:17:52.649Z</time></trkpt><trkpt lat="43.45739598260307" lon="12.057615095121259"><ele>602.5</ele><time>2026-04-11T12:17:53.649Z</time></trkpt><trkpt lat="43.45743243087606" lon="12.0577459275952"><ele>603.0</ele><time>2026-04-11T12:17:54.647Z</time></trkpt><trkpt lat="43.45742381118564" lon="12.05799149084665"><ele>603.0</ele><time>2026-04-11T12:17:56.651Z</time></trkpt><trkpt lat="43.457390362701474" lon="12.058105664639148"><ele>603.0</ele><time>2026-04-11T12:17:57.65Z</time></trkpt><trkpt lat="43.45735919043665" lon="12.0582460115584"><ele>603.0</ele><time>2026-04-11T12:17:58.649Z</time></trkpt><trkpt lat="43.45734443598907" lon="12.058393420836328"><ele>603.0</ele><time>2026-04-11T12:17:59.648Z</time></trkpt><trkpt lat="43.45733812325196" lon="12.058534874333542"><ele>603.0</ele><time>2026-04-11T12:18:00.649Z</time></trkpt><trkpt lat="43.457342207685656" lon="12.058671153831833"><ele>604.0</ele><time>2026-04-11T12:18:01.658Z</time></trkpt><trkpt lat="43.457359779870636" lon="12.058798683672862"><ele>605.0</ele><time>2026-04-11T12:18:02.648Z</time></trkpt><trkpt lat="43.45742004411422" lon="12.058917548571538"><ele>606.0</ele><time>2026-04-11T12:18:03.648Z</time></trkpt><trkpt lat="43.457495124038424" lon="12.059022208868484"><ele>607.0</ele><time>2026-04-11T12:18:04.646Z</time></trkpt><trkpt lat="43.45757978125348" lon="12.059123966255202"><ele>608.0</ele><time>2026-04-11T12:18:05.648Z</time></trkpt><trkpt lat="43.45767420997336" lon="12.05920061268382"><ele>610.4</ele><time>2026-04-11T12:18:06.635Z</time></trkpt><trkpt lat="43.4577710739669" lon="12.059287137398806"><ele>612.8</ele><time>2026-04-11T12:18:07.635Z</time></trkpt><trkpt lat="43.457832870533785" lon="12.059379358685213"><ele>615.2</ele><time>2026-04-11T12:18:08.634Z</time></trkpt><trkpt lat="43.457878399193866" lon="12.059479663331935"><ele>617.6</ele><time>2026-04-11T12:18:09.634Z</time></trkpt><trkpt lat="43.45792108345849" lon="12.059584496505332"><ele>620.0</ele><time>2026-04-11T12:18:10.634Z</time></trkpt><trkpt lat="43.4579709796963" lon="12.059664366169745"><ele>614.0</ele><time>2026-04-11T12:18:11.636Z</time></trkpt><trkpt lat="43.458042625777296" lon="12.059738313150461"><ele>608.0</ele><time>2026-04-11T12:18:12.636Z</time></trkpt><trkpt lat="43.45815122416661" lon="12.05977244939733"><ele>602.0</ele><time>2026-04-11T12:18:13.635Z</time></trkpt><trkpt lat="43.45825615424994" lon="12.059757498828679"><ele>596.0</ele><time>2026-04-11T12:18:14.634Z</time></trkpt><trkpt lat="43.458346953814626" lon="12.059721524735734"><ele>590.0</ele><time>2026-04-11T12:18:15.634Z</time></trkpt><trkpt lat="43.45856561746545" lon="12.059677891311969"><ele>590.0</ele><time>2026-04-11T12:18:17.634Z</time></trkpt><trkpt lat="43.45867531681959" lon="12.059681940681442"><ele>590.0</ele><time>2026-04-11T12:18:18.633Z</time></trkpt><trkpt lat="43.45879032242442" lon="12.059671731568319"><ele>590.0</ele><time>2026-04-11T12:18:19.633Z</time></trkpt><trkpt lat="43.45890225916169" lon="12.059659600563874"><ele>590.0</ele><time>2026-04-11T12:18:20.635Z</time></trkpt><trkpt lat="43.459015909703375" lon="12.059633131279872"><ele>588.4</ele><time>2026-04-11T12:18:21.633Z</time></trkpt><trkpt lat="43.4591256119911" lon="12.05959860702018"><ele>586.8</ele><time>2026-04-11T12:18:22.632Z</time></trkpt><trkpt lat="43.459232107420185" lon="12.059558297738931"><ele>585.2</ele><time>2026-04-11T12:18:23.633Z</time></trkpt><trkpt lat="43.45933215499141" lon="12.059513765650577"><ele>583.6</ele><time>2026-04-11T12:18:24.634Z</time></trkpt><trkpt lat="43.459430153960874" lon="12.059459522364635"><ele>582.0</ele><time>2026-04-11T12:18:25.633Z</time></trkpt><trkpt lat="43.459513055183905" lon="12.059395870884044"><ele>582.0</ele><time>2026-04-11T12:18:26.633Z</time></trkpt><trkpt lat="43.4595974971411" lon="12.05932682908987"><ele>582.0</ele><time>2026-04-11T12:18:27.633Z</time></trkpt><trkpt lat="43.45968339352438" lon="12.059268400847294"><ele>582.0</ele><time>2026-04-11T12:18:28.634Z</time></trkpt><trkpt lat="43.459781479704326" lon="12.059221198294585"><ele>582.0</ele><time>2026-04-11T12:18:29.633Z</time></trkpt><trkpt lat="43.4598899185529" lon="12.05917834858604"><ele>582.0</ele><time>2026-04-11T12:18:30.634Z</time></trkpt><trkpt lat="43.45999429205662" lon="12.059125328747326"><ele>577.0</ele><time>2026-04-11T12:18:31.635Z</time></trkpt><trkpt lat="43.460088817439704" lon="12.059062346939916"><ele>572.0</ele><time>2026-04-11T12:18:32.636Z</time></trkpt><trkpt lat="43.460184459574045" lon="12.05899618023295"><ele>567.0</ele><time>2026-04-11T12:18:33.637Z</time></trkpt><trkpt lat="43.46026961267722" lon="12.058937359134246"><ele>562.0</ele><time>2026-04-11T12:18:34.635Z</time></trkpt><trkpt lat="43.460354543557585" lon="12.058873114517493"><ele>557.0</ele><time>2026-04-11T12:18:35.635Z</time></trkpt><trkpt lat="43.460448404227954" lon="12.05880780630801"><ele>558.75</ele><time>2026-04-11T12:18:36.635Z</time></trkpt><trkpt lat="43.460656688743725" lon="12.058688579527225"><ele>560.5</ele><time>2026-04-11T12:18:38.646Z</time></trkpt><trkpt lat="43.460758148598224" lon="12.058639654816247"><ele>562.25</ele><time>2026-04-11T12:18:39.646Z</time></trkpt><trkpt lat="43.460854491539315" lon="12.058607125048907"><ele>564.0</ele><time>2026-04-11T12:18:40.646Z</time></trkpt><trkpt lat="43.460949082100576" lon="12.058580964062592"><ele>564.0</ele><time>2026-04-11T12:18:41.648Z</time></trkpt><trkpt lat="43.46104304152943" lon="12.058555083943777"><ele>564.0</ele><time>2026-04-11T12:18:42.646Z</time></trkpt><trkpt lat="43.46113764929398" lon="12.058541727029015"><ele>564.0</ele><time>2026-04-11T12:18:43.647Z</time></trkpt><trkpt lat="43.46122470548189" lon="12.058527435609873"><ele>564.0</ele><time>2026-04-11T12:18:44.646Z</time></trkpt><trkpt lat="43.46130710234196" lon="12.058482472875456"><ele>564.0</ele><time>2026-04-11T12:18:45.648Z</time></trkpt><trkpt lat="43.46137263794923" lon="12.058410631033695"><ele>564.8333333333334</ele><time>2026-04-11T12:18:46.646Z</time></trkpt><trkpt lat="43.46141674377983" lon="12.058314462934236"><ele>565.6666666666666</ele><time>2026-04-11T12:18:47.649Z</time></trkpt><trkpt lat="43.461441556473844" lon="12.058189227575985"><ele>566.5</ele><time>2026-04-11T12:18:48.647Z</time></trkpt><trkpt lat="43.46144399964304" lon="12.058045191294035"><ele>567.3333333333333</ele><time>2026-04-11T12:18:49.65Z</time></trkpt><trkpt lat="43.461449866537045" lon="12.057935355762655"><ele>568.1666666666666</ele><time>2026-04-11T12:18:50.648Z</time></trkpt><trkpt lat="43.46149782040278" lon="12.057855933930485"><ele>569.0</ele><time>2026-04-11T12:18:51.65Z</time></trkpt><trkpt lat="43.46157970397149" lon="12.057787061837931"><ele>565.5</ele><time>2026-04-11T12:18:52.647Z</time></trkpt><trkpt lat="43.46167912707329" lon="12.05775414657095"><ele>562.0</ele><time>2026-04-11T12:18:53.649Z</time></trkpt><trkpt lat="43.46178767388844" lon="12.05771389009143"><ele>558.5</ele><time>2026-04-11T12:18:54.648Z</time></trkpt><trkpt lat="43.461902955402316" lon="12.057666352145636"><ele>555.0</ele><time>2026-04-11T12:18:55.648Z</time></trkpt><trkpt lat="43.462019550878864" lon="12.057607652989596"><ele>555.0</ele><time>2026-04-11T12:18:56.648Z</time></trkpt><trkpt lat="43.46213500384961" lon="12.05754460342411"><ele>555.0</ele><time>2026-04-11T12:18:57.648Z</time></trkpt><trkpt lat="43.46231330421155" lon="12.057429029804096"><ele>555.0</ele><time>2026-04-11T12:18:59.646Z</time></trkpt><trkpt lat="43.46240006981604" lon="12.05738535419548"><ele>555.0</ele><time>2026-04-11T12:19:00.647Z</time></trkpt><trkpt lat="43.46249353788719" lon="12.05737213846961"><ele>555.0</ele><time>2026-04-11T12:19:01.647Z</time></trkpt><trkpt lat="43.46259008591046" lon="12.057399856300767"><ele>555.0</ele><time>2026-04-11T12:19:02.648Z</time></trkpt><trkpt lat="43.46267796045752" lon="12.05745084192118"><ele>555.0</ele><time>2026-04-11T12:19:03.648Z</time></trkpt><trkpt lat="43.46275907790275" lon="12.057498713772858"><ele>555.0</ele><time>2026-04-11T12:19:04.648Z</time></trkpt><trkpt lat="43.46283644239457" lon="12.0575494496516"><ele>555.0</ele><time>2026-04-11T12:19:05.648Z</time></trkpt><trkpt lat="43.46290068298933" lon="12.057620882322766"><ele>549.5</ele><time>2026-04-11T12:19:06.649Z</time></trkpt><trkpt lat="43.462948280379074" lon="12.057709568217193"><ele>544.0</ele><time>2026-04-11T12:19:07.648Z</time></trkpt><trkpt lat="43.46297512787727" lon="12.057814383024944"><ele>538.5</ele><time>2026-04-11T12:19:08.658Z</time></trkpt><trkpt lat="43.46296754396631" lon="12.057918142507916"><ele>533.0</ele><time>2026-04-11T12:19:09.648Z</time></trkpt><trkpt lat="43.46295016785238" lon="12.05802574403314"><ele>527.5</ele><time>2026-04-11T12:19:10.648Z</time></trkpt><trkpt lat="43.462949916882195" lon="12.058149513626581"><ele>522.0</ele><time>2026-04-11T12:19:11.649Z</time></trkpt><trkpt lat="43.46296591244963" lon="12.058272579588916"><ele>523.4</ele><time>2026-04-11T12:19:12.649Z</time></trkpt><trkpt lat="43.46299976429313" lon="12.058414206209362"><ele>524.8000000000001</ele><time>2026-04-11T12:19:13.649Z</time></trkpt><trkpt lat="43.46305218875386" lon="12.05852728528179"><ele>526.2</ele><time>2026-04-11T12:19:14.649Z</time></trkpt><trkpt lat="43.46311608894255" lon="12.058622497674353"><ele>527.6</ele><time>2026-04-11T12:19:15.648Z</time></trkpt><trkpt lat="43.46316571634339" lon="12.058730450841258"><ele>529.0</ele><time>2026-04-11T12:19:16.647Z</time></trkpt><trkpt lat="43.46319716147769" lon="12.05883254674869"><ele>529.0</ele><time>2026-04-11T12:19:17.647Z</time></trkpt><trkpt lat="43.46321165676239" lon="12.058951753675984"><ele>529.0</ele><time>2026-04-11T12:19:18.647Z</time></trkpt><trkpt lat="43.463165951161514" lon="12.059157515652664"><ele>529.0</ele><time>2026-04-11T12:19:20.647Z</time></trkpt><trkpt lat="43.4631151810189" lon="12.05922476290361"><ele>529.0</ele><time>2026-04-11T12:19:21.648Z</time></trkpt><trkpt lat="43.463039557951014" lon="12.059281533353932"><ele>529.0</ele><time>2026-04-11T12:19:22.648Z</time></trkpt><trkpt lat="43.462957311110316" lon="12.05934307703357"><ele>534.4</ele><time>2026-04-11T12:19:23.648Z</time></trkpt><trkpt lat="43.46286942445508" lon="12.059416596309903"><ele>539.8</ele><time>2026-04-11T12:19:24.649Z</time></trkpt><trkpt lat="43.46277697924126" lon="12.05949312209793"><ele>545.2</ele><time>2026-04-11T12:19:25.648Z</time></trkpt><trkpt lat="43.4626899645057" lon="12.059574442394931"><ele>550.6</ele><time>2026-04-11T12:19:26.646Z</time></trkpt><trkpt lat="43.462618872730424" lon="12.05968318281372"><ele>556.0</ele><time>2026-04-11T12:19:27.646Z</time></trkpt><trkpt lat="43.46255286076541" lon="12.059785516070491"><ele>556.0</ele><time>2026-04-11T12:19:28.648Z</time></trkpt><trkpt lat="43.46250070246997" lon="12.059885061293569"><ele>556.0</ele><time>2026-04-11T12:19:29.647Z</time></trkpt><trkpt lat="43.46246510705832" lon="12.060007451794286"><ele>556.0</ele><time>2026-04-11T12:19:30.646Z</time></trkpt><trkpt lat="43.462474755106335" lon="12.060150394110911"><ele>556.0</ele><time>2026-04-11T12:19:31.645Z</time></trkpt><trkpt lat="43.462499290421604" lon="12.060305824013193"><ele>556.0</ele><time>2026-04-11T12:19:32.647Z</time></trkpt><trkpt lat="43.46253893728691" lon="12.060462476922526"><ele>553.4</ele><time>2026-04-11T12:19:33.646Z</time></trkpt><trkpt lat="43.46258296802236" lon="12.060613594755049"><ele>550.8</ele><time>2026-04-11T12:19:34.646Z</time></trkpt><trkpt lat="43.462641253028934" lon="12.060756167245941"><ele>548.1999999999999</ele><time>2026-04-11T12:19:35.646Z</time></trkpt><trkpt lat="43.46269587825444" lon="12.060888776157649"><ele>545.6</ele><time>2026-04-11T12:19:36.646Z</time></trkpt><trkpt lat="43.46273149426765" lon="12.061008987808098"><ele>543.0</ele><time>2026-04-11T12:19:37.648Z</time></trkpt><trkpt lat="43.46274209944129" lon="12.061114958779829"><ele>542.1666666666666</ele><time>2026-04-11T12:19:38.647Z</time></trkpt><trkpt lat="43.4627287482962" lon="12.061200951520867"><ele>541.3333333333334</ele><time>2026-04-11T12:19:39.648Z</time></trkpt><trkpt lat="43.462629220727166" lon="12.061320735220733"><ele>540.5</ele><time>2026-04-11T12:19:41.649Z</time></trkpt><trkpt lat="43.46255906621916" lon="12.061355541633539"><ele>539.6666666666667</ele><time>2026-04-11T12:19:42.648Z</time></trkpt><trkpt lat="43.46248128329943" lon="12.06141634773475"><ele>538.8333333333334</ele><time>2026-04-11T12:19:43.649Z</time></trkpt><trkpt lat="43.46241775132625" lon="12.061497622654834"><ele>538.0</ele><time>2026-04-11T12:19:44.646Z</time></trkpt><trkpt lat="43.46237849470727" lon="12.061604741560298"><ele>536.0</ele><time>2026-04-11T12:19:45.645Z</time></trkpt><trkpt lat="43.462371828256494" lon="12.061742120733655"><ele>534.0</ele><time>2026-04-11T12:19:46.646Z</time></trkpt><trkpt lat="43.46239317515503" lon="12.061892856673685"><ele>532.0</ele><time>2026-04-11T12:19:47.648Z</time></trkpt><trkpt lat="43.462434295848055" lon="12.062046508207809"><ele>530.0</ele><time>2026-04-11T12:19:48.645Z</time></trkpt><trkpt lat="43.462486822437306" lon="12.062196420621204"><ele>530.0</ele><time>2026-04-11T12:19:49.648Z</time></trkpt><trkpt lat="43.462533488001654" lon="12.062357645617732"><ele>530.0</ele><time>2026-04-11T12:19:50.646Z</time></trkpt><trkpt lat="43.46257377260299" lon="12.062535566573732"><ele>530.0</ele><time>2026-04-11T12:19:51.647Z</time></trkpt><trkpt lat="43.46258600275045" lon="12.062710797112587"><ele>530.0</ele><time>2026-04-11T12:19:52.647Z</time></trkpt><trkpt lat="43.46258949595694" lon="12.062865750425395"><ele>528.75</ele><time>2026-04-11T12:19:53.647Z</time></trkpt><trkpt lat="43.462568329721265" lon="12.06301200829361"><ele>527.5</ele><time>2026-04-11T12:19:54.645Z</time></trkpt><trkpt lat="43.462528162364606" lon="12.063158891812002"><ele>526.25</ele><time>2026-04-11T12:19:55.65Z</time></trkpt><trkpt lat="43.46248990448994" lon="12.063302262340478"><ele>525.0</ele><time>2026-04-11T12:19:56.648Z</time></trkpt><trkpt lat="43.462438567751676" lon="12.063452005289323"><ele>523.0</ele><time>2026-04-11T12:19:57.648Z</time></trkpt><trkpt lat="43.46237579104232" lon="12.063593222727253"><ele>521.0</ele><time>2026-04-11T12:19:58.646Z</time></trkpt><trkpt lat="43.462311428191164" lon="12.063739904452104"><ele>519.0</ele><time>2026-04-11T12:19:59.648Z</time></trkpt><trkpt lat="43.462255317944354" lon="12.063879747439932"><ele>517.0</ele><time>2026-04-11T12:20:00.646Z</time></trkpt><trkpt lat="43.46215678109297" lon="12.064097743785256"><ele>519.6666666666667</ele><time>2026-04-11T12:20:02.65Z</time></trkpt><trkpt lat="43.46210691308895" lon="12.064202341942028"><ele>522.3333333333334</ele><time>2026-04-11T12:20:03.647Z</time></trkpt><trkpt lat="43.46205208771442" lon="12.064303242152384"><ele>525.0</ele><time>2026-04-11T12:20:04.647Z</time></trkpt><trkpt lat="43.461997511971" lon="12.064412525448164"><ele>527.6666666666666</ele><time>2026-04-11T12:20:05.648Z</time></trkpt><trkpt lat="43.46196560941061" lon="12.06450807235059"><ele>530.3333333333333</ele><time>2026-04-11T12:20:06.648Z</time></trkpt><trkpt lat="43.46195270370135" lon="12.064619460965098"><ele>533.0</ele><time>2026-04-11T12:20:07.649Z</time></trkpt><trkpt lat="43.46196465263914" lon="12.064730936580306"><ele>533.0</ele><time>2026-04-11T12:20:08.649Z</time></trkpt><trkpt lat="43.46201997955744" lon="12.06482839171122"><ele>533.0</ele><time>2026-04-11T12:20:09.647Z</time></trkpt><trkpt lat="43.462099259486166" lon="12.064889224405752"><ele>533.0</ele><time>2026-04-11T12:20:10.647Z</time></trkpt><trkpt lat="43.462185494957126" lon="12.064919471916108"><ele>533.0</ele><time>2026-04-11T12:20:11.647Z</time></trkpt><trkpt lat="43.46227868216258" lon="12.064937654301865"><ele>533.0</ele><time>2026-04-11T12:20:12.647Z</time></trkpt><trkpt lat="43.46238049314866" lon="12.064949212417847"><ele>529.3333333333333</ele><time>2026-04-11T12:20:13.648Z</time></trkpt><trkpt lat="43.46247045649174" lon="12.064962622008922"><ele>525.6666666666666</ele><time>2026-04-11T12:20:14.648Z</time></trkpt><trkpt lat="43.4625625106599" lon="12.064965985537835"><ele>522.0</ele><time>2026-04-11T12:20:15.649Z</time></trkpt><trkpt lat="43.462632751824856" lon="12.064980182977955"><ele>518.3333333333334</ele><time>2026-04-11T12:20:16.65Z</time></trkpt><trkpt lat="43.46269830760551" lon="12.065019831915992"><ele>514.6666666666667</ele><time>2026-04-11T12:20:17.65Z</time></trkpt><trkpt lat="43.46275607418504" lon="12.065095316216254"><ele>511.0</ele><time>2026-04-11T12:20:18.648Z</time></trkpt><trkpt lat="43.4627936608704" lon="12.065195310012664"><ele>511.0</ele><time>2026-04-11T12:20:19.649Z</time></trkpt><trkpt lat="43.46282581905763" lon="12.065331060393262"><ele>511.0</ele><time>2026-04-11T12:20:20.649Z</time></trkpt><trkpt lat="43.46284864747427" lon="12.065493184288465"><ele>511.0</ele><time>2026-04-11T12:20:21.648Z</time></trkpt><trkpt lat="43.462878331142306" lon="12.065824479117959"><ele>512.8</ele><time>2026-04-11T12:20:23.649Z</time></trkpt><trkpt lat="43.46289821905051" lon="12.0659634205762"><ele>514.6</ele><time>2026-04-11T12:20:24.65Z</time></trkpt><trkpt lat="43.46291484076287" lon="12.066087278920888"><ele>516.4</ele><time>2026-04-11T12:20:25.648Z</time></trkpt><trkpt lat="43.46294522038292" lon="12.066192839526982"><ele>518.2</ele><time>2026-04-11T12:20:26.651Z</time></trkpt><trkpt lat="43.46300752690919" lon="12.06626234890188"><ele>520.0</ele><time>2026-04-11T12:20:27.647Z</time></trkpt><trkpt lat="43.46309251662051" lon="12.066314247617717"><ele>515.4</ele><time>2026-04-11T12:20:28.648Z</time></trkpt><trkpt lat="43.46319581822221" lon="12.066335993980093"><ele>510.8</ele><time>2026-04-11T12:20:29.646Z</time></trkpt><trkpt lat="43.46330779435808" lon="12.066335548976486"><ele>506.20000000000005</ele><time>2026-04-11T12:20:30.646Z</time></trkpt><trkpt lat="43.46341900579599" lon="12.066311257595261"><ele>501.6</ele><time>2026-04-11T12:20:31.646Z</time></trkpt><trkpt lat="43.46352858973669" lon="12.066275754527418"><ele>497.0</ele><time>2026-04-11T12:20:32.647Z</time></trkpt><trkpt lat="43.46361638312991" lon="12.066243378359166"><ele>496.99999999999994</ele><time>2026-04-11T12:20:33.648Z</time></trkpt><trkpt lat="43.46369907861179" lon="12.066214397583128"><ele>497.0</ele><time>2026-04-11T12:20:34.648Z</time></trkpt><trkpt lat="43.46376286176987" lon="12.066197526535191"><ele>497.0</ele><time>2026-04-11T12:20:35.65Z</time></trkpt><trkpt lat="43.46387745436727" lon="12.06627713338388"><ele>497.0</ele><time>2026-04-11T12:20:37.65Z</time></trkpt><trkpt lat="43.463904640827444" lon="12.066359558125196"><ele>496.99999999999994</ele><time>2026-04-11T12:20:38.65Z</time></trkpt><trkpt lat="43.46391483610654" lon="12.06646533181362"><ele>497.0</ele><time>2026-04-11T12:20:39.651Z</time></trkpt><trkpt lat="43.46390811449137" lon="12.066588169032357"><ele>494.75</ele><time>2026-04-11T12:20:40.65Z</time></trkpt><trkpt lat="43.463897508681285" lon="12.06671795984539"><ele>492.5</ele><time>2026-04-11T12:20:41.65Z</time></trkpt><trkpt lat="43.46390757869269" lon="12.066823462845067"><ele>490.25</ele><time>2026-04-11T12:20:42.649Z</time></trkpt><trkpt lat="43.46404079094672" lon="12.067045662554605"><ele>488.0</ele><time>2026-04-11T12:20:44.648Z</time></trkpt><trkpt lat="43.46415745708923" lon="12.067193038056889"><ele>488.0</ele><time>2026-04-11T12:20:45.649Z</time></trkpt><trkpt lat="43.464260025009445" lon="12.067345257655697"><ele>488.0</ele><time>2026-04-11T12:20:46.647Z</time></trkpt><trkpt lat="43.46435402883685" lon="12.06748100172313"><ele>488.0</ele><time>2026-04-11T12:20:47.648Z</time></trkpt><trkpt lat="43.46443643208576" lon="12.067605436471423"><ele>488.0</ele><time>2026-04-11T12:20:48.648Z</time></trkpt><trkpt lat="43.46451612856027" lon="12.067719135091412"><ele>489.2</ele><time>2026-04-11T12:20:49.649Z</time></trkpt><trkpt lat="43.464585266951936" lon="12.067829361287462"><ele>490.4</ele><time>2026-04-11T12:20:50.649Z</time></trkpt><trkpt lat="43.4646351931305" lon="12.0679310694825"><ele>491.59999999999997</ele><time>2026-04-11T12:20:51.65Z</time></trkpt><trkpt lat="43.46466118790159" lon="12.068047190760687"><ele>492.79999999999995</ele><time>2026-04-11T12:20:52.651Z</time></trkpt><trkpt lat="43.46465330170229" lon="12.068174898149357"><ele>494.0</ele><time>2026-04-11T12:20:53.651Z</time></trkpt><trkpt lat="43.4646182090622" lon="12.068290310850381"><ele>496.6</ele><time>2026-04-11T12:20:54.651Z</time></trkpt><trkpt lat="43.46457900539595" lon="12.068411438949823"><ele>499.2</ele><time>2026-04-11T12:20:55.65Z</time></trkpt><trkpt lat="43.464561891339045" lon="12.06850104051177"><ele>501.80000000000007</ele><time>2026-04-11T12:20:56.649Z</time></trkpt><trkpt lat="43.464568983523776" lon="12.068629651981025"><ele>504.40000000000003</ele><time>2026-04-11T12:20:57.651Z</time></trkpt><trkpt lat="43.46459982916326" lon="12.068743916147657"><ele>507.0</ele><time>2026-04-11T12:20:58.648Z</time></trkpt><trkpt lat="43.4646759883001" lon="12.068861433748799"><ele>498.5</ele><time>2026-04-11T12:20:59.65Z</time></trkpt><trkpt lat="43.464769112494984" lon="12.06895958103282"><ele>490.0</ele><time>2026-04-11T12:21:00.649Z</time></trkpt><trkpt lat="43.464865330181894" lon="12.069063117513682"><ele>481.5</ele><time>2026-04-11T12:21:01.648Z</time></trkpt><trkpt lat="43.464952069810835" lon="12.069170650507962"><ele>473.0</ele><time>2026-04-11T12:21:02.647Z</time></trkpt><trkpt lat="43.46503195568866" lon="12.069267404178593"><ele>473.0</ele><time>2026-04-11T12:21:03.647Z</time></trkpt><trkpt lat="43.465223022168544" lon="12.069369741297367"><ele>473.0</ele><time>2026-04-11T12:21:05.649Z</time></trkpt><trkpt lat="43.46533245992264" lon="12.069360941466591"><ele>473.0</ele><time>2026-04-11T12:21:06.648Z</time></trkpt><trkpt lat="43.46542941596007" lon="12.069347963296266"><ele>473.0</ele><time>2026-04-11T12:21:07.647Z</time></trkpt><trkpt lat="43.465522324017165" lon="12.069360766767073"><ele>469.0</ele><time>2026-04-11T12:21:08.647Z</time></trkpt><trkpt lat="43.46561618067753" lon="12.06940897070215"><ele>464.99999999999994</ele><time>2026-04-11T12:21:09.648Z</time></trkpt><trkpt lat="43.46571350048444" lon="12.06946357068405"><ele>460.99999999999994</ele><time>2026-04-11T12:21:10.648Z</time></trkpt><trkpt lat="43.465816051421" lon="12.069528171176177"><ele>457.0</ele><time>2026-04-11T12:21:11.647Z</time></trkpt><trkpt lat="43.46593596306927" lon="12.069590065417316"><ele>453.0</ele><time>2026-04-11T12:21:12.647Z</time></trkpt><trkpt lat="43.46605857558237" lon="12.069652997338371"><ele>453.0</ele><time>2026-04-11T12:21:13.648Z</time></trkpt><trkpt lat="43.46616613497909" lon="12.069710223861195"><ele>452.99999999999994</ele><time>2026-04-11T12:21:14.648Z</time></trkpt><trkpt lat="43.46627270011449" lon="12.06976629795481"><ele>452.99999999999994</ele><time>2026-04-11T12:21:15.647Z</time></trkpt><trkpt lat="43.46637086903337" lon="12.069822227034672"><ele>453.0</ele><time>2026-04-11T12:21:16.645Z</time></trkpt><trkpt lat="43.466465085513356" lon="12.069872218895386"><ele>453.0</ele><time>2026-04-11T12:21:17.648Z</time></trkpt><trkpt lat="43.46656835729531" lon="12.06992282085108"><ele>454.25</ele><time>2026-04-11T12:21:18.648Z</time></trkpt><trkpt lat="43.46667786229527" lon="12.069970551946032"><ele>455.5</ele><time>2026-04-11T12:21:19.647Z</time></trkpt><trkpt lat="43.46679523123691" lon="12.070005952169758"><ele>456.75</ele><time>2026-04-11T12:21:20.646Z</time></trkpt><trkpt lat="43.466919916843985" lon="12.070018119241414"><ele>458.0</ele><time>2026-04-11T12:21:21.648Z</time></trkpt><trkpt lat="43.46703353973728" lon="12.070029727685514"><ele>456.0</ele><time>2026-04-11T12:21:22.645Z</time></trkpt><trkpt lat="43.46715296951616" lon="12.070056066018083"><ele>454.0</ele><time>2026-04-11T12:21:23.645Z</time></trkpt><trkpt lat="43.46728030317806" lon="12.070086666984245"><ele>452.0</ele><time>2026-04-11T12:21:24.644Z</time></trkpt><trkpt lat="43.4675069091839" lon="12.070153667874692"><ele>452.0</ele><time>2026-04-11T12:21:26.645Z</time></trkpt><trkpt lat="43.46759096621014" lon="12.07019181498998"><ele>452.00000000000006</ele><time>2026-04-11T12:21:27.645Z</time></trkpt><trkpt lat="43.467649906201174" lon="12.070228222219576"><ele>452.00000000000006</ele><time>2026-04-11T12:21:28.646Z</time></trkpt><trkpt lat="43.46771187814893" lon="12.070280384302787"><ele>452.0</ele><time>2026-04-11T12:21:30.646Z</time></trkpt><trkpt lat="43.467788448152255" lon="12.070358825963648"><ele>452.0</ele><time>2026-04-11T12:21:50.645Z</time></trkpt><trkpt lat="43.467887081676245" lon="12.070586660028638"><ele>452.0</ele><time>2026-04-11T12:21:53.647Z</time></trkpt><trkpt lat="43.467929739476546" lon="12.070660728016982"><ele>452.0</ele><time>2026-04-11T12:21:54.646Z</time></trkpt><trkpt lat="43.46797109986358" lon="12.070730286260114"><ele>452.0</ele><time>2026-04-11T12:21:55.646Z</time></trkpt><trkpt lat="43.46801236307487" lon="12.07081508998909"><ele>452.0</ele><time>2026-04-11T12:21:56.647Z</time></trkpt><trkpt lat="43.46805365166943" lon="12.070909302592105"><ele>452.0</ele><time>2026-04-11T12:21:57.646Z</time></trkpt><trkpt lat="43.46808514458659" lon="12.070989139837208"><ele>452.0</ele><time>2026-04-11T12:21:58.646Z</time></trkpt><trkpt lat="43.46811977356603" lon="12.071070208156817"><ele>452.0</ele><time>2026-04-11T12:21:59.647Z</time></trkpt><trkpt lat="43.468177604513976" lon="12.071146577278567"><ele>452.49999999999994</ele><time>2026-04-11T12:22:00.646Z</time></trkpt><trkpt lat="43.46823987811472" lon="12.071220600751207"><ele>453.0</ele><time>2026-04-11T12:22:01.646Z</time></trkpt><trkpt lat="43.46829734842365" lon="12.07127852993405"><ele>453.5</ele><time>2026-04-11T12:22:02.645Z</time></trkpt><trkpt lat="43.4683622588323" lon="12.071334144268205"><ele>454.0</ele><time>2026-04-11T12:22:03.644Z</time></trkpt><trkpt lat="43.46842236659006" lon="12.071409140899263"><ele>454.49999999999994</ele><time>2026-04-11T12:22:04.647Z</time></trkpt><trkpt lat="43.46848018387089" lon="12.071482244524999"><ele>455.0</ele><time>2026-04-11T12:22:05.647Z</time></trkpt><trkpt lat="43.4685477650018" lon="12.071559651808412"><ele>457.66666666666663</ele><time>2026-04-11T12:22:06.646Z</time></trkpt><trkpt lat="43.46859849393687" lon="12.071641192782966"><ele>460.3333333333333</ele><time>2026-04-11T12:22:07.645Z</time></trkpt><trkpt lat="43.468650615704455" lon="12.071739017841825"><ele>463.0</ele><time>2026-04-11T12:22:08.645Z</time></trkpt><trkpt lat="43.46871155872016" lon="12.07181582944676"><ele>465.66666666666663</ele><time>2026-04-11T12:22:09.648Z</time></trkpt><trkpt lat="43.468777688926075" lon="12.071873943530514"><ele>468.3333333333333</ele><time>2026-04-11T12:22:10.647Z</time></trkpt><trkpt lat="43.46884050454218" lon="12.071904525103959"><ele>471.0</ele><time>2026-04-11T12:22:11.647Z</time></trkpt><trkpt lat="43.468978665952974" lon="12.07187613445032"><ele>471.00000000000006</ele><time>2026-04-11T12:22:13.646Z</time></trkpt><trkpt lat="43.46905463854834" lon="12.0718579825123"><ele>471.0</ele><time>2026-04-11T12:22:14.648Z</time></trkpt><trkpt lat="43.46913126000433" lon="12.07184434525205"><ele>471.00000000000006</ele><time>2026-04-11T12:22:15.649Z</time></trkpt><trkpt lat="43.46920046536608" lon="12.071839402485336"><ele>471.00000000000006</ele><time>2026-04-11T12:22:16.649Z</time></trkpt><trkpt lat="43.46926286015874" lon="12.071895065778294"><ele>471.0</ele><time>2026-04-11T12:22:18.649Z</time></trkpt><trkpt lat="43.469262568753535" lon="12.07198479456522"><ele>471.00000000000006</ele><time>2026-04-11T12:22:20.647Z</time></trkpt><trkpt lat="43.469221877760425" lon="12.07208223593209"><ele>471.00000000000006</ele><time>2026-04-11T12:22:22.648Z</time></trkpt><trkpt lat="43.46917402757489" lon="12.07218745990969"><ele>471.00000000000006</ele><time>2026-04-11T12:22:24.651Z</time></trkpt><trkpt lat="43.46915012809589" lon="12.072280439212571"><ele>471.0</ele><time>2026-04-11T12:22:25.649Z</time></trkpt><trkpt lat="43.46912936536743" lon="12.072364917900005"><ele>471.00000000000006</ele><time>2026-04-11T12:22:26.649Z</time></trkpt><trkpt lat="43.469114207740155" lon="12.072456497093816"><ele>471.00000000000006</ele><time>2026-04-11T12:22:27.648Z</time></trkpt><trkpt lat="43.469103754307305" lon="12.072548477175648"><ele>471.0</ele><time>2026-04-11T12:22:28.648Z</time></trkpt><trkpt lat="43.46909737828221" lon="12.072659477598334"><ele>471.00000000000006</ele><time>2026-04-11T12:22:29.649Z</time></trkpt><trkpt lat="43.46908916466908" lon="12.072764897114704"><ele>471.00000000000006</ele><time>2026-04-11T12:22:30.649Z</time></trkpt><trkpt lat="43.46907460558149" lon="12.072864735500133"><ele>473.20000000000005</ele><time>2026-04-11T12:22:31.649Z</time></trkpt><trkpt lat="43.46906393182559" lon="12.07296828764855"><ele>475.40000000000003</ele><time>2026-04-11T12:22:32.65Z</time></trkpt><trkpt lat="43.46900649803565" lon="12.073179166105234"><ele>477.6</ele><time>2026-04-11T12:22:34.647Z</time></trkpt><trkpt lat="43.46896025619271" lon="12.073271945810227"><ele>479.8</ele><time>2026-04-11T12:22:35.646Z</time></trkpt><trkpt lat="43.468912160123104" lon="12.073349829986405"><ele>482.0</ele><time>2026-04-11T12:22:36.647Z</time></trkpt><trkpt lat="43.46885979713222" lon="12.073432396633425"><ele>481.99999999999994</ele><time>2026-04-11T12:22:37.648Z</time></trkpt><trkpt lat="43.468808511494316" lon="12.073499160365179"><ele>482.0</ele><time>2026-04-11T12:22:38.648Z</time></trkpt><trkpt lat="43.468759762657356" lon="12.073589771814277"><ele>482.0</ele><time>2026-04-11T12:22:39.65Z</time></trkpt><trkpt lat="43.46872872877273" lon="12.073706402493261"><ele>482.0</ele><time>2026-04-11T12:22:40.652Z</time></trkpt><trkpt lat="43.46871022164548" lon="12.073826102858067"><ele>481.99999999999994</ele><time>2026-04-11T12:22:41.652Z</time></trkpt><trkpt lat="43.46868768922301" lon="12.073949903725142"><ele>482.0</ele><time>2026-04-11T12:22:42.65Z</time></trkpt><trkpt lat="43.468648229970796" lon="12.07406089555874"><ele>484.49999999999994</ele><time>2026-04-11T12:22:43.65Z</time></trkpt><trkpt lat="43.46862373733382" lon="12.074155887644968"><ele>487.0</ele><time>2026-04-11T12:22:44.65Z</time></trkpt><trkpt lat="43.46859692679571" lon="12.074237275220554"><ele>489.5</ele><time>2026-04-11T12:22:45.65Z</time></trkpt><trkpt lat="43.46857760615124" lon="12.074349205974698"><ele>492.0</ele><time>2026-04-11T12:22:46.65Z</time></trkpt><trkpt lat="43.46860079811479" lon="12.074475976376933"><ele>494.49999999999994</ele><time>2026-04-11T12:22:48.648Z</time></trkpt><trkpt lat="43.46863621514628" lon="12.074550392979141"><ele>497.0</ele><time>2026-04-11T12:22:56.647Z</time></trkpt><trkpt lat="43.46869633665304" lon="12.074781163694222"><ele>496.99999999999994</ele><time>2026-04-11T12:22:59.65Z</time></trkpt><trkpt lat="43.46872737222415" lon="12.074884577772039"><ele>497.0</ele><time>2026-04-11T12:23:00.648Z</time></trkpt><trkpt lat="43.46875614873932" lon="12.075009591405447"><ele>497.0</ele><time>2026-04-11T12:23:01.649Z</time></trkpt><trkpt lat="43.468782788516876" lon="12.075119336352271"><ele>497.0</ele><time>2026-04-11T12:23:02.647Z</time></trkpt><trkpt lat="43.46882356309237" lon="12.075209868120027"><ele>496.99999999999994</ele><time>2026-04-11T12:23:03.648Z</time></trkpt><trkpt lat="43.468874727410444" lon="12.075283192086859"><ele>497.0</ele><time>2026-04-11T12:23:04.65Z</time></trkpt><trkpt lat="43.46893616560209" lon="12.075352906250599"><ele>496.8333333333333</ele><time>2026-04-11T12:23:05.648Z</time></trkpt><trkpt lat="43.469021349349966" lon="12.075424125177866"><ele>496.66666666666663</ele><time>2026-04-11T12:23:06.649Z</time></trkpt><trkpt lat="43.46909815602412" lon="12.075511926756622"><ele>496.5</ele><time>2026-04-11T12:23:07.649Z</time></trkpt><trkpt lat="43.46914430526965" lon="12.075600602398515"><ele>496.33333333333337</ele><time>2026-04-11T12:23:08.649Z</time></trkpt><trkpt lat="43.46918592978109" lon="12.075699123204146"><ele>496.1666666666667</ele><time>2026-04-11T12:23:09.659Z</time></trkpt><trkpt lat="43.46923192129928" lon="12.075801229729931"><ele>496.0</ele><time>2026-04-11T12:23:10.66Z</time></trkpt><trkpt lat="43.469276846203044" lon="12.075912444761144"><ele>496.0</ele><time>2026-04-11T12:23:11.651Z</time></trkpt><trkpt lat="43.46932742865877" lon="12.076021561333892"><ele>496.0</ele><time>2026-04-11T12:23:12.65Z</time></trkpt><trkpt lat="43.46938539989161" lon="12.076119270584682"><ele>496.0</ele><time>2026-04-11T12:23:13.651Z</time></trkpt><trkpt lat="43.46944863409683" lon="12.076218374042234"><ele>496.0</ele><time>2026-04-11T12:23:14.65Z</time></trkpt><trkpt lat="43.46951381329658" lon="12.076326347998323"><ele>496.0</ele><time>2026-04-11T12:23:15.651Z</time></trkpt><trkpt lat="43.46956700935251" lon="12.076420670995052"><ele>496.0</ele><time>2026-04-11T12:23:16.652Z</time></trkpt><trkpt lat="43.46960512641932" lon="12.076519069122602"><ele>496.0</ele><time>2026-04-11T12:23:17.649Z</time></trkpt><trkpt lat="43.46963272626817" lon="12.076735384530291"><ele>496.0</ele><time>2026-04-11T12:23:19.65Z</time></trkpt><trkpt lat="43.46961295215204" lon="12.076854439261172"><ele>496.0</ele><time>2026-04-11T12:23:20.65Z</time></trkpt><trkpt lat="43.46960298465866" lon="12.076955252161154"><ele>496.0</ele><time>2026-04-11T12:23:21.651Z</time></trkpt><trkpt lat="43.46961148541967" lon="12.077059864632448"><ele>495.00000000000006</ele><time>2026-04-11T12:23:22.648Z</time></trkpt><trkpt lat="43.469632353068455" lon="12.07715245696041"><ele>494.0</ele><time>2026-04-11T12:23:23.648Z</time></trkpt><trkpt lat="43.46964528742198" lon="12.077278007327555"><ele>493.0</ele><time>2026-04-11T12:23:24.65Z</time></trkpt><trkpt lat="43.46965564205392" lon="12.07740797101415"><ele>492.0</ele><time>2026-04-11T12:23:25.648Z</time></trkpt><trkpt lat="43.46966759466157" lon="12.077533714555413"><ele>491.00000000000006</ele><time>2026-04-11T12:23:26.651Z</time></trkpt><trkpt lat="43.469672029483206" lon="12.077650718132695"><ele>490.0</ele><time>2026-04-11T12:23:27.65Z</time></trkpt><trkpt lat="43.46965143362539" lon="12.07781527990723"><ele>490.00000000000006</ele><time>2026-04-11T12:23:29.649Z</time></trkpt><trkpt lat="43.46964599364042" lon="12.077929898445614"><ele>490.0</ele><time>2026-04-11T12:23:30.648Z</time></trkpt><trkpt lat="43.469651191470064" lon="12.07805026179816"><ele>490.0</ele><time>2026-04-11T12:23:31.648Z</time></trkpt><trkpt lat="43.46966743438751" lon="12.07816313427375"><ele>490.0</ele><time>2026-04-11T12:23:32.648Z</time></trkpt><trkpt lat="43.469687570686325" lon="12.078262198435063"><ele>490.00000000000006</ele><time>2026-04-11T12:23:33.648Z</time></trkpt><trkpt lat="43.46970100877208" lon="12.078360674247179"><ele>490.0</ele><time>2026-04-11T12:23:34.649Z</time></trkpt><trkpt lat="43.46970342992911" lon="12.07851955029545"><ele>490.8</ele><time>2026-04-11T12:23:36.649Z</time></trkpt><trkpt lat="43.469726014606685" lon="12.078680631526257"><ele>491.6</ele><time>2026-04-11T12:23:38.648Z</time></trkpt><trkpt lat="43.46983063472488" lon="12.078846783937204"><ele>492.4</ele><time>2026-04-11T12:23:40.647Z</time></trkpt><trkpt lat="43.46990185393794" lon="12.078903417348318"><ele>493.2</ele><time>2026-04-11T12:23:41.65Z</time></trkpt><trkpt lat="43.469962109385975" lon="12.078946214401219"><ele>494.0</ele><time>2026-04-11T12:23:42.65Z</time></trkpt><trkpt lat="43.470039675336075" lon="12.07909501438343"><ele>491.99999999999994</ele><time>2026-04-11T12:23:44.653Z</time></trkpt><trkpt lat="43.47009194459581" lon="12.079195644224399"><ele>490.0</ele><time>2026-04-11T12:23:45.65Z</time></trkpt><trkpt lat="43.470121083221045" lon="12.079289405332398"><ele>488.0</ele><time>2026-04-11T12:23:46.659Z</time></trkpt><trkpt lat="43.470149712964" lon="12.07939305203854"><ele>486.0</ele><time>2026-04-11T12:23:47.648Z</time></trkpt><trkpt lat="43.47023400783494" lon="12.079514635605697"><ele>483.99999999999994</ele><time>2026-04-11T12:23:49.649Z</time></trkpt><trkpt lat="43.47029834850844" lon="12.079559814551216"><ele>482.0</ele><time>2026-04-11T12:23:50.649Z</time></trkpt><trkpt lat="43.470361123998245" lon="12.079639700799985"><ele>482.0</ele><time>2026-04-11T12:23:51.649Z</time></trkpt><trkpt lat="43.47040625842768" lon="12.079728879530087"><ele>482.00000000000006</ele><time>2026-04-11T12:23:52.649Z</time></trkpt><trkpt lat="43.47044617996304" lon="12.079843187407239"><ele>482.00000000000006</ele><time>2026-04-11T12:23:53.648Z</time></trkpt><trkpt lat="43.470469801370854" lon="12.079987422441425"><ele>482.0</ele><time>2026-04-11T12:23:54.649Z</time></trkpt><trkpt lat="43.4704993087167" lon="12.080123101946855"><ele>482.0</ele><time>2026-04-11T12:23:55.649Z</time></trkpt><trkpt lat="43.4705449653736" lon="12.080242549694788"><ele>480.6</ele><time>2026-04-11T12:23:56.648Z</time></trkpt><trkpt lat="43.470591277539945" lon="12.080332710919665"><ele>479.20000000000005</ele><time>2026-04-11T12:23:57.651Z</time></trkpt><trkpt lat="43.47063816248999" lon="12.080450498398537"><ele>477.8</ele><time>2026-04-11T12:23:58.649Z</time></trkpt><trkpt lat="43.47067701591677" lon="12.080546597723854"><ele>476.4</ele><time>2026-04-11T12:23:59.65Z</time></trkpt><trkpt lat="43.47073663169129" lon="12.08076774525907"><ele>475.0</ele><time>2026-04-11T12:24:01.649Z</time></trkpt><trkpt lat="43.47077507459791" lon="12.080892923295202"><ele>475.00000000000006</ele><time>2026-04-11T12:24:02.651Z</time></trkpt><trkpt lat="43.47081894293314" lon="12.08101461149359"><ele>475.0</ele><time>2026-04-11T12:24:03.649Z</time></trkpt><trkpt lat="43.47083988083236" lon="12.081134669415297"><ele>475.0</ele><time>2026-04-11T12:24:04.651Z</time></trkpt><trkpt lat="43.47083777102777" lon="12.081229639124567"><ele>475.0</ele><time>2026-04-11T12:24:05.647Z</time></trkpt><trkpt lat="43.470801058516216" lon="12.0813102224127"><ele>475.00000000000006</ele><time>2026-04-11T12:24:06.65Z</time></trkpt><trkpt lat="43.470738264023154" lon="12.081382031647422"><ele>475.0</ele><time>2026-04-11T12:24:07.651Z</time></trkpt><trkpt lat="43.470680869225106" lon="12.08147753850686"><ele>476.0</ele><time>2026-04-11T12:24:08.65Z</time></trkpt><trkpt lat="43.47062761733106" lon="12.081616842766358"><ele>477.0</ele><time>2026-04-11T12:24:09.649Z</time></trkpt><trkpt lat="43.47057739202784" lon="12.081742506307213"><ele>478.0</ele><time>2026-04-11T12:24:10.649Z</time></trkpt><trkpt lat="43.470545919756646" lon="12.08184484516782"><ele>479.0</ele><time>2026-04-11T12:24:11.649Z</time></trkpt><trkpt lat="43.47054070715953" lon="12.081959080598562"><ele>480.0</ele><time>2026-04-11T12:24:12.648Z</time></trkpt><trkpt lat="43.4705410138012" lon="12.08207662949142"><ele>480.0</ele><time>2026-04-11T12:24:13.648Z</time></trkpt><trkpt lat="43.47053894429266" lon="12.082178290630708"><ele>480.0</ele><time>2026-04-11T12:24:14.648Z</time></trkpt><trkpt lat="43.47053279647885" lon="12.08230803729974"><ele>480.0</ele><time>2026-04-11T12:24:15.65Z</time></trkpt><trkpt lat="43.47054782808823" lon="12.082440507918154"><ele>480.0</ele><time>2026-04-11T12:24:16.649Z</time></trkpt><trkpt lat="43.47058597246542" lon="12.082579108803891"><ele>480.0</ele><time>2026-04-11T12:24:17.65Z</time></trkpt><trkpt lat="43.47064227353507" lon="12.082695336531279"><ele>479.0</ele><time>2026-04-11T12:24:18.65Z</time></trkpt><trkpt lat="43.470687830689315" lon="12.082799249413824"><ele>478.0</ele><time>2026-04-11T12:24:19.652Z</time></trkpt><trkpt lat="43.47069686642908" lon="12.082924507157754"><ele>477.0</ele><time>2026-04-11T12:24:20.649Z</time></trkpt><trkpt lat="43.47074135611856" lon="12.083187613727667"><ele>476.0</ele><time>2026-04-11T12:24:22.65Z</time></trkpt><trkpt lat="43.470802070723074" lon="12.083320351820804"><ele>476.0</ele><time>2026-04-11T12:24:23.649Z</time></trkpt><trkpt lat="43.47085965755349" lon="12.0834576588648"><ele>476.0</ele><time>2026-04-11T12:24:24.651Z</time></trkpt><trkpt lat="43.47088872897024" lon="12.08358616000825"><ele>476.0</ele><time>2026-04-11T12:24:25.649Z</time></trkpt><trkpt lat="43.47089830405989" lon="12.083717065665454"><ele>476.0</ele><time>2026-04-11T12:24:26.648Z</time></trkpt><trkpt lat="43.47092220327358" lon="12.083857595149905"><ele>476.0</ele><time>2026-04-11T12:24:27.647Z</time></trkpt><trkpt lat="43.470953518260195" lon="12.083992139501795"><ele>474.20000000000005</ele><time>2026-04-11T12:24:28.646Z</time></trkpt><trkpt lat="43.47097947611053" lon="12.084134181380513"><ele>472.40000000000003</ele><time>2026-04-11T12:24:29.646Z</time></trkpt><trkpt lat="43.47100890630342" lon="12.084270839701457"><ele>470.6</ele><time>2026-04-11T12:24:30.649Z</time></trkpt><trkpt lat="43.471033019852825" lon="12.0844007514592"><ele>468.8</ele><time>2026-04-11T12:24:31.647Z</time></trkpt><trkpt lat="43.471062198207" lon="12.084540126382148"><ele>467.0</ele><time>2026-04-11T12:24:32.646Z</time></trkpt><trkpt lat="43.47109069512363" lon="12.08465882157778"><ele>466.99999999999994</ele><time>2026-04-11T12:24:33.647Z</time></trkpt><trkpt lat="43.4711212818788" lon="12.084769304597902"><ele>467.0</ele><time>2026-04-11T12:24:34.644Z</time></trkpt><trkpt lat="43.4711614059262" lon="12.0848853004602"><ele>467.0</ele><time>2026-04-11T12:24:35.647Z</time></trkpt><trkpt lat="43.47121730609185" lon="12.084979504213816"><ele>467.0</ele><time>2026-04-11T12:24:36.647Z</time></trkpt><trkpt lat="43.471268149205095" lon="12.085055829623109"><ele>466.99999999999994</ele><time>2026-04-11T12:24:37.647Z</time></trkpt><trkpt lat="43.471323070913115" lon="12.085124247476056"><ele>467.0</ele><time>2026-04-11T12:24:38.648Z</time></trkpt><trkpt lat="43.47138694425142" lon="12.085182610206102"><ele>468.40000000000003</ele><time>2026-04-11T12:24:39.648Z</time></trkpt><trkpt lat="43.47144474884596" lon="12.08524510835342"><ele>469.80000000000007</ele><time>2026-04-11T12:24:40.648Z</time></trkpt><trkpt lat="43.47150473776776" lon="12.0853095397233"><ele>471.2</ele><time>2026-04-11T12:24:41.647Z</time></trkpt><trkpt lat="43.47159131000358" lon="12.085487650903698"><ele>472.6</ele><time>2026-04-11T12:24:43.647Z</time></trkpt><trkpt lat="43.47163053079211" lon="12.085610742381766"><ele>474.0</ele><time>2026-04-11T12:24:44.647Z</time></trkpt><trkpt lat="43.47166742057534" lon="12.08574132613378"><ele>470.6</ele><time>2026-04-11T12:24:45.646Z</time></trkpt><trkpt lat="43.471706817487075" lon="12.085877381318497"><ele>467.2</ele><time>2026-04-11T12:24:46.647Z</time></trkpt><trkpt lat="43.471743566742724" lon="12.08598783206404"><ele>463.80000000000007</ele><time>2026-04-11T12:24:47.646Z</time></trkpt><trkpt lat="43.47178061069504" lon="12.086108022867988"><ele>460.40000000000003</ele><time>2026-04-11T12:24:48.647Z</time></trkpt><trkpt lat="43.47179999726693" lon="12.08622947390342"><ele>457.0</ele><time>2026-04-11T12:24:49.647Z</time></trkpt><trkpt lat="43.471803836076106" lon="12.086347120565021"><ele>457.0</ele><time>2026-04-11T12:24:50.648Z</time></trkpt><trkpt lat="43.47180535111664" lon="12.08646946288613"><ele>457.00000000000006</ele><time>2026-04-11T12:24:51.649Z</time></trkpt><trkpt lat="43.47181063059631" lon="12.086616980208253"><ele>457.00000000000006</ele><time>2026-04-11T12:24:52.649Z</time></trkpt><trkpt lat="43.47181573099133" lon="12.086750639858053"><ele>457.0</ele><time>2026-04-11T12:24:53.65Z</time></trkpt><trkpt lat="43.471804000177166" lon="12.086845632049823"><ele>457.0</ele><time>2026-04-11T12:24:54.648Z</time></trkpt><trkpt lat="43.47174021845257" lon="12.087018076787926"><ele>455.83333333333337</ele><time>2026-04-11T12:24:56.649Z</time></trkpt><trkpt lat="43.47173024345959" lon="12.08717281697438"><ele>454.6666666666667</ele><time>2026-04-11T12:24:58.652Z</time></trkpt><trkpt lat="43.471739016911336" lon="12.087269500406586"><ele>453.5</ele><time>2026-04-11T12:24:59.648Z</time></trkpt><trkpt lat="43.47175972347247" lon="12.087366826104951"><ele>452.33333333333337</ele><time>2026-04-11T12:25:00.649Z</time></trkpt><trkpt lat="43.47179462035653" lon="12.087449176671146"><ele>451.1666666666667</ele><time>2026-04-11T12:25:01.649Z</time></trkpt><trkpt lat="43.47183763579654" lon="12.08753198972588"><ele>450.0</ele><time>2026-04-11T12:25:02.648Z</time></trkpt><trkpt lat="43.47186999022312" lon="12.087707976531105"><ele>448.7142857142858</ele><time>2026-04-11T12:25:04.652Z</time></trkpt><trkpt lat="43.47184254148596" lon="12.087807298908107"><ele>447.42857142857144</ele><time>2026-04-11T12:25:05.65Z</time></trkpt><trkpt lat="43.47180857564938" lon="12.087896241795384"><ele>446.14285714285717</ele><time>2026-04-11T12:25:06.649Z</time></trkpt><trkpt lat="43.471777519278845" lon="12.087983921527334"><ele>444.8571428571429</ele><time>2026-04-11T12:25:07.648Z</time></trkpt><trkpt lat="43.47174271040298" lon="12.0880690468137"><ele>443.57142857142856</ele><time>2026-04-11T12:25:08.648Z</time></trkpt><trkpt lat="43.47172283652274" lon="12.088164547756678"><ele>442.2857142857143</ele><time>2026-04-11T12:25:09.647Z</time></trkpt><trkpt lat="43.47170589644187" lon="12.088255041142117"><ele>441.0</ele><time>2026-04-11T12:25:10.647Z</time></trkpt><trkpt lat="43.47173191798765" lon="12.088352828776738"><ele>439.8333333333333</ele><time>2026-04-11T12:25:11.647Z</time></trkpt><trkpt lat="43.471751524368294" lon="12.088469893465755"><ele>438.66666666666663</ele><time>2026-04-11T12:25:12.648Z</time></trkpt><trkpt lat="43.4717732641623" lon="12.08857758114786"><ele>437.5</ele><time>2026-04-11T12:25:13.646Z</time></trkpt><trkpt lat="43.47179434471946" lon="12.088684275655359"><ele>436.3333333333333</ele><time>2026-04-11T12:25:14.647Z</time></trkpt><trkpt lat="43.47182515000405" lon="12.088775354965398"><ele>435.16666666666663</ele><time>2026-04-11T12:25:15.648Z</time></trkpt><trkpt lat="43.47184358666075" lon="12.088883624383389"><ele>434.0</ele><time>2026-04-11T12:25:16.649Z</time></trkpt><trkpt lat="43.4718690155803" lon="12.088975600434617"><ele>433.99999999999994</ele><time>2026-04-11T12:25:17.649Z</time></trkpt><trkpt lat="43.47189817932645" lon="12.089072418308925"><ele>434.0</ele><time>2026-04-11T12:25:18.648Z</time></trkpt><trkpt lat="43.471950257455624" lon="12.089175259744005"><ele>434.0</ele><time>2026-04-11T12:25:19.649Z</time></trkpt><trkpt lat="43.47199121762304" lon="12.089272484885354"><ele>434.0</ele><time>2026-04-11T12:25:20.65Z</time></trkpt><trkpt lat="43.47203526640776" lon="12.089346017591252"><ele>433.99999999999994</ele><time>2026-04-11T12:25:21.649Z</time></trkpt><trkpt lat="43.47210076430665" lon="12.089408464801247"><ele>434.0</ele><time>2026-04-11T12:25:22.649Z</time></trkpt><trkpt lat="43.47214446392835" lon="12.08948829995123"><ele>431.79999999999995</ele><time>2026-04-11T12:25:23.648Z</time></trkpt><trkpt lat="43.472244554949874" lon="12.089640551725958"><ele>429.59999999999997</ele><time>2026-04-11T12:25:25.649Z</time></trkpt><trkpt lat="43.47231375771858" lon="12.089675227781065"><ele>427.4</ele><time>2026-04-11T12:25:26.648Z</time></trkpt><trkpt lat="43.47239019959602" lon="12.089674513529738"><ele>425.2</ele><time>2026-04-11T12:25:27.65Z</time></trkpt><trkpt lat="43.4724687096934" lon="12.089702985380594"><ele>423.0</ele><time>2026-04-11T12:25:28.649Z</time></trkpt><trkpt lat="43.472558057846655" lon="12.089742627362575"><ele>423.0</ele><time>2026-04-11T12:25:29.647Z</time></trkpt><trkpt lat="43.472633660641925" lon="12.089776930289922"><ele>423.0</ele><time>2026-04-11T12:25:30.647Z</time></trkpt><trkpt lat="43.47271329560941" lon="12.089790782698733"><ele>423.0</ele><time>2026-04-11T12:25:31.646Z</time></trkpt><trkpt lat="43.47279192989372" lon="12.089796240326757"><ele>423.0</ele><time>2026-04-11T12:25:32.647Z</time></trkpt><trkpt lat="43.47286466185573" lon="12.08980185305767"><ele>423.0</ele><time>2026-04-11T12:25:33.648Z</time></trkpt><trkpt lat="43.472936654175356" lon="12.089798968015321"><ele>423.0</ele><time>2026-04-11T12:25:34.649Z</time></trkpt><trkpt lat="43.47300760642029" lon="12.08979494078839"><ele>420.6666666666667</ele><time>2026-04-11T12:25:35.647Z</time></trkpt><trkpt lat="43.47309760704274" lon="12.089802862302525"><ele>418.33333333333337</ele><time>2026-04-11T12:25:36.648Z</time></trkpt><trkpt lat="43.47316273640181" lon="12.089821591843439"><ele>416.0</ele><time>2026-04-11T12:25:37.648Z</time></trkpt><trkpt lat="43.473226123952564" lon="12.089859457251709"><ele>413.6666666666667</ele><time>2026-04-11T12:25:38.65Z</time></trkpt><trkpt lat="43.47329504581606" lon="12.089910899324089"><ele>411.33333333333337</ele><time>2026-04-11T12:25:39.648Z</time></trkpt><trkpt lat="43.473309098963554" lon="12.090024231392366"><ele>409.0</ele><time>2026-04-11T12:25:41.649Z</time></trkpt><trkpt lat="43.473210638103744" lon="12.09014518523403"><ele>406.0</ele><time>2026-04-11T12:25:43.647Z</time></trkpt><trkpt lat="43.47318466957367" lon="12.09027922874172"><ele>403.0</ele><time>2026-04-11T12:25:45.649Z</time></trkpt><trkpt lat="43.47327908992167" lon="12.090439863446884"><ele>400.0</ele><time>2026-04-11T12:25:47.647Z</time></trkpt><trkpt lat="43.47332387654004" lon="12.090507465206407"><ele>397.0</ele><time>2026-04-11T12:25:48.646Z</time></trkpt><trkpt lat="43.47337989967586" lon="12.090602307618648"><ele>394.0</ele><time>2026-04-11T12:25:50.646Z</time></trkpt><trkpt lat="43.47346359326133" lon="12.090636417814466"><ele>392.25</ele><time>2026-04-11T12:25:54.646Z</time></trkpt><trkpt lat="43.47354153932957" lon="12.090768091975212"><ele>390.5</ele><time>2026-04-11T12:25:56.647Z</time></trkpt><trkpt lat="43.47359879183195" lon="12.09088625125653"><ele>388.75</ele><time>2026-04-11T12:25:58.649Z</time></trkpt><trkpt lat="43.47365534707093" lon="12.091006534349669"><ele>387.0</ele><time>2026-04-11T12:26:00.646Z</time></trkpt><trkpt lat="43.47374309088449" lon="12.091160852582126"><ele>386.40000000000003</ele><time>2026-04-11T12:26:02.647Z</time></trkpt><trkpt lat="43.47378156374879" lon="12.091236771423777"><ele>385.8</ele><time>2026-04-11T12:26:03.648Z</time></trkpt><trkpt lat="43.47381897555016" lon="12.09130700904983"><ele>385.2</ele><time>2026-04-11T12:26:04.648Z</time></trkpt><trkpt lat="43.47389329010928" lon="12.091457742916623"><ele>384.6</ele><time>2026-04-11T12:26:06.646Z</time></trkpt><trkpt lat="43.47396858757076" lon="12.091641247194627"><ele>384.0</ele><time>2026-04-11T12:26:08.651Z</time></trkpt><trkpt lat="43.47401473581793" lon="12.09173637102263"><ele>382.6</ele><time>2026-04-11T12:26:09.648Z</time></trkpt><trkpt lat="43.474061965242676" lon="12.091849615325863"><ele>381.2</ele><time>2026-04-11T12:26:10.651Z</time></trkpt><trkpt lat="43.47409322840631" lon="12.091951253206316"><ele>379.8</ele><time>2026-04-11T12:26:11.65Z</time></trkpt><trkpt lat="43.47410909839292" lon="12.092045588585687"><ele>378.40000000000003</ele><time>2026-04-11T12:26:12.651Z</time></trkpt><trkpt lat="43.474211083702976" lon="12.092195893575576"><ele>377.0</ele><time>2026-04-11T12:26:14.649Z</time></trkpt><trkpt lat="43.47427872018917" lon="12.092296090407315"><ele>377.0</ele><time>2026-04-11T12:26:15.648Z</time></trkpt><trkpt lat="43.47433651545583" lon="12.092382543625584"><ele>377.0</ele><time>2026-04-11T12:26:16.65Z</time></trkpt><trkpt lat="43.47436985211713" lon="12.092481422805825"><ele>377.0</ele><time>2026-04-11T12:26:17.651Z</time></trkpt><trkpt lat="43.47437671400538" lon="12.092601957714347"><ele>377.0</ele><time>2026-04-11T12:26:18.65Z</time></trkpt><trkpt lat="43.47437911863201" lon="12.09274009965469"><ele>377.0</ele><time>2026-04-11T12:26:19.65Z</time></trkpt><trkpt lat="43.47439035638416" lon="12.092881186822714"><ele>375.0</ele><time>2026-04-11T12:26:20.651Z</time></trkpt><trkpt lat="43.474407403531785" lon="12.093039076644924"><ele>373.0</ele><time>2026-04-11T12:26:21.648Z</time></trkpt><trkpt lat="43.47442275960736" lon="12.093172020204493"><ele>371.0</ele><time>2026-04-11T12:26:22.648Z</time></trkpt><trkpt lat="43.47443607136993" lon="12.093306452233096"><ele>369.0</ele><time>2026-04-11T12:26:23.648Z</time></trkpt><trkpt lat="43.474452703835134" lon="12.093445385353133"><ele>367.0</ele><time>2026-04-11T12:26:24.648Z</time></trkpt><trkpt lat="43.47447756310651" lon="12.093564930150151"><ele>364.25</ele><time>2026-04-11T12:26:25.647Z</time></trkpt><trkpt lat="43.47449380042725" lon="12.09369029606876"><ele>361.5</ele><time>2026-04-11T12:26:26.648Z</time></trkpt><trkpt lat="43.47451113117745" lon="12.093815694110063"><ele>358.75</ele><time>2026-04-11T12:26:27.648Z</time></trkpt><trkpt lat="43.474561464402555" lon="12.094088541582511"><ele>356.0</ele><time>2026-04-11T12:26:29.65Z</time></trkpt><trkpt lat="43.47456757953777" lon="12.09421430402072"><ele>355.6666666666667</ele><time>2026-04-11T12:26:30.647Z</time></trkpt><trkpt lat="43.47459947386577" lon="12.094334207984451"><ele>355.33333333333337</ele><time>2026-04-11T12:26:31.647Z</time></trkpt><trkpt lat="43.474634546441074" lon="12.094444487977142"><ele>355.0</ele><time>2026-04-11T12:26:32.648Z</time></trkpt><trkpt lat="43.47465661121088" lon="12.094547889893592"><ele>354.6666666666667</ele><time>2026-04-11T12:26:33.649Z</time></trkpt><trkpt lat="43.47466427551384" lon="12.09466725097463"><ele>354.3333333333333</ele><time>2026-04-11T12:26:34.646Z</time></trkpt><trkpt lat="43.4746893718061" lon="12.09479571268676"><ele>354.0</ele><time>2026-04-11T12:26:35.647Z</time></trkpt><trkpt lat="43.47469842371302" lon="12.094937480534542"><ele>354.0</ele><time>2026-04-11T12:26:36.648Z</time></trkpt><trkpt lat="43.47469122504105" lon="12.09507462081913"><ele>354.0</ele><time>2026-04-11T12:26:37.649Z</time></trkpt><trkpt lat="43.47470921305444" lon="12.095214344388513"><ele>354.0</ele><time>2026-04-11T12:26:38.646Z</time></trkpt><trkpt lat="43.47475750664672" lon="12.095341464185667"><ele>354.0</ele><time>2026-04-11T12:26:39.646Z</time></trkpt><trkpt lat="43.47482355478036" lon="12.095448215259049"><ele>354.0</ele><time>2026-04-11T12:26:40.646Z</time></trkpt><trkpt lat="43.47489030653969" lon="12.095549718235374"><ele>354.0</ele><time>2026-04-11T12:26:41.645Z</time></trkpt><trkpt lat="43.4749554924711" lon="12.095650045579186"><ele>354.0</ele><time>2026-04-11T12:26:42.647Z</time></trkpt><trkpt lat="43.475014792898484" lon="12.095746700530707"><ele>354.0</ele><time>2026-04-11T12:26:43.645Z</time></trkpt><trkpt lat="43.47508198169406" lon="12.095843827535838"><ele>354.0</ele><time>2026-04-11T12:26:44.647Z</time></trkpt><trkpt lat="43.47514456018462" lon="12.095945632188874"><ele>354.0</ele><time>2026-04-11T12:26:45.647Z</time></trkpt><trkpt lat="43.475213720040145" lon="12.096048490254748"><ele>353.75</ele><time>2026-04-11T12:26:46.647Z</time></trkpt><trkpt lat="43.475288966302635" lon="12.096149897528601"><ele>353.5</ele><time>2026-04-11T12:26:47.646Z</time></trkpt><trkpt lat="43.475352180836275" lon="12.096260728901173"><ele>353.25</ele><time>2026-04-11T12:26:48.645Z</time></trkpt><trkpt lat="43.47546305333056" lon="12.096480275503424"><ele>353.0</ele><time>2026-04-11T12:26:50.646Z</time></trkpt><trkpt lat="43.47550401786506" lon="12.096590085325374"><ele>354.5</ele><time>2026-04-11T12:26:51.648Z</time></trkpt><trkpt lat="43.475552171082434" lon="12.096677842931342"><ele>356.0</ele><time>2026-04-11T12:26:52.649Z</time></trkpt><trkpt lat="43.475601402447296" lon="12.096762070813813"><ele>357.5</ele><time>2026-04-11T12:26:53.648Z</time></trkpt><trkpt lat="43.475670681120775" lon="12.09684585263416"><ele>359.0</ele><time>2026-04-11T12:26:54.657Z</time></trkpt><trkpt lat="43.47573008272154" lon="12.096926156721649"><ele>360.5</ele><time>2026-04-11T12:26:55.648Z</time></trkpt><trkpt lat="43.475806362761574" lon="12.097014998021312"><ele>362.0</ele><time>2026-04-11T12:26:56.649Z</time></trkpt><trkpt lat="43.475880933039186" lon="12.09710338775174"><ele>362.0</ele><time>2026-04-11T12:26:57.65Z</time></trkpt><trkpt lat="43.47595657131887" lon="12.097187979444472"><ele>362.0</ele><time>2026-04-11T12:26:58.649Z</time></trkpt><trkpt lat="43.476031647647176" lon="12.09726897131436"><ele>362.0</ele><time>2026-04-11T12:26:59.65Z</time></trkpt><trkpt lat="43.47610208137606" lon="12.097349960581882"><ele>362.0</ele><time>2026-04-11T12:27:00.65Z</time></trkpt><trkpt lat="43.47616738474718" lon="12.097430632297165"><ele>362.0</ele><time>2026-04-11T12:27:01.648Z</time></trkpt><trkpt lat="43.47622081261452" lon="12.097522675871316"><ele>362.0</ele><time>2026-04-11T12:27:02.648Z</time></trkpt><trkpt lat="43.47626733880081" lon="12.097647080378092"><ele>362.0</ele><time>2026-04-11T12:27:03.647Z</time></trkpt><trkpt lat="43.47629943269504" lon="12.097780962494628"><ele>362.0</ele><time>2026-04-11T12:27:04.649Z</time></trkpt><trkpt lat="43.47632141321839" lon="12.097915334193662"><ele>362.0</ele><time>2026-04-11T12:27:05.649Z</time></trkpt><trkpt lat="43.4763515769899" lon="12.098046252230185"><ele>362.0</ele><time>2026-04-11T12:27:06.648Z</time></trkpt><trkpt lat="43.47639630684266" lon="12.098162989104862"><ele>359.75</ele><time>2026-04-11T12:27:07.648Z</time></trkpt><trkpt lat="43.476451180996584" lon="12.098299819980317"><ele>357.5</ele><time>2026-04-11T12:27:08.648Z</time></trkpt><trkpt lat="43.47651603172172" lon="12.098428544734347"><ele>355.25</ele><time>2026-04-11T12:27:09.648Z</time></trkpt><trkpt lat="43.47664430542565" lon="12.098666745642667"><ele>353.0</ele><time>2026-04-11T12:27:11.648Z</time></trkpt><trkpt lat="43.476703191926774" lon="12.098772706282972"><ele>353.0</ele><time>2026-04-11T12:27:12.647Z</time></trkpt><trkpt lat="43.476761319710974" lon="12.098873868021617"><ele>353.0</ele><time>2026-04-11T12:27:13.647Z</time></trkpt><trkpt lat="43.476818496068155" lon="12.09897400631038"><ele>353.0</ele><time>2026-04-11T12:27:14.647Z</time></trkpt><trkpt lat="43.4768732701698" lon="12.099071417468139"><ele>353.0</ele><time>2026-04-11T12:27:15.648Z</time></trkpt><trkpt lat="43.476919273533014" lon="12.099175960421926"><ele>353.0</ele><time>2026-04-11T12:27:16.647Z</time></trkpt><trkpt lat="43.47695352018402" lon="12.09927085733082"><ele>353.0</ele><time>2026-04-11T12:27:17.647Z</time></trkpt><trkpt lat="43.476989446992604" lon="12.09936730657307"><ele>354.0</ele><time>2026-04-11T12:27:18.648Z</time></trkpt><trkpt lat="43.47702148445291" lon="12.099463397643792"><ele>355.0</ele><time>2026-04-11T12:27:19.648Z</time></trkpt><trkpt lat="43.47708974420021" lon="12.099569407951355"><ele>356.0</ele><time>2026-04-11T12:27:20.65Z</time></trkpt><trkpt lat="43.47715087648107" lon="12.099651694212977"><ele>357.0</ele><time>2026-04-11T12:27:21.647Z</time></trkpt><trkpt lat="43.47720863561794" lon="12.0997052647368"><ele>358.0</ele><time>2026-04-11T12:27:22.649Z</time></trkpt><trkpt lat="43.477286683570355" lon="12.099775824183773"><ele>359.0</ele><time>2026-04-11T12:27:24.649Z</time></trkpt><trkpt lat="43.47738716849316" lon="12.099842130672831"><ele>353.75</ele><time>2026-04-11T12:27:26.649Z</time></trkpt><trkpt lat="43.47745135050512" lon="12.09983426496416"><ele>348.5</ele><time>2026-04-11T12:27:27.649Z</time></trkpt><trkpt lat="43.47755380376194" lon="12.099768072491043"><ele>343.25</ele><time>2026-04-11T12:27:29.648Z</time></trkpt><trkpt lat="43.47766623583583" lon="12.099730761938764"><ele>338.0</ele><time>2026-04-11T12:27:31.648Z</time></trkpt><trkpt lat="43.4778800307705" lon="12.099665937911718"><ele>336.33333333333337</ele><time>2026-04-11T12:27:35.649Z</time></trkpt><trkpt lat="43.477971691681894" lon="12.099613395324484"><ele>334.6666666666667</ele><time>2026-04-11T12:27:37.646Z</time></trkpt><trkpt lat="43.47806873999798" lon="12.099566146828732"><ele>333.0</ele><time>2026-04-11T12:27:39.648Z</time></trkpt><trkpt lat="43.47813969904757" lon="12.099534965495687"><ele>331.3333333333333</ele><time>2026-04-11T12:27:40.647Z</time></trkpt><trkpt lat="43.47821361474432" lon="12.099494974005818"><ele>329.66666666666663</ele><time>2026-04-11T12:27:41.648Z</time></trkpt><trkpt lat="43.47827607533884" lon="12.099464735280739"><ele>328.0</ele><time>2026-04-11T12:27:42.647Z</time></trkpt><trkpt lat="43.47838881204933" lon="12.099408945305111"><ele>328.0</ele><time>2026-04-11T12:27:44.646Z</time></trkpt><trkpt lat="43.47850179317869" lon="12.099334552475796"><ele>328.0</ele><time>2026-04-11T12:27:46.646Z</time></trkpt><trkpt lat="43.478612180332185" lon="12.099276495212322"><ele>328.0</ele><time>2026-04-11T12:27:48.645Z</time></trkpt><trkpt lat="43.478679305974694" lon="12.09927519146337"><ele>328.0</ele><time>2026-04-11T12:27:49.646Z</time></trkpt><trkpt lat="43.47874833510743" lon="12.099322375820178"><ele>328.0</ele><time>2026-04-11T12:27:50.648Z</time></trkpt><trkpt lat="43.4788200267741" lon="12.099399592883504"><ele>325.25</ele><time>2026-04-11T12:27:51.651Z</time></trkpt><trkpt lat="43.4789084177705" lon="12.09946948802579"><ele>322.5</ele><time>2026-04-11T12:27:52.646Z</time></trkpt><trkpt lat="43.47909233702469" lon="12.099493362359508"><ele>319.75</ele><time>2026-04-11T12:27:54.648Z</time></trkpt><trkpt lat="43.47917593449543" lon="12.09948548600822"><ele>317.0</ele><time>2026-04-11T12:27:55.646Z</time></trkpt><trkpt lat="43.47925942709981" lon="12.099481926411965"><ele>317.0</ele><time>2026-04-11T12:27:56.648Z</time></trkpt><trkpt lat="43.47934681851198" lon="12.099457806584825"><ele>317.0</ele><time>2026-04-11T12:27:57.648Z</time></trkpt><trkpt lat="43.47942787004305" lon="12.099388108961161"><ele>317.0</ele><time>2026-04-11T12:27:58.648Z</time></trkpt><trkpt lat="43.479507168271006" lon="12.099317107695608"><ele>317.0</ele><time>2026-04-11T12:27:59.649Z</time></trkpt><trkpt lat="43.47958919880738" lon="12.099283999146044"><ele>317.0</ele><time>2026-04-11T12:28:00.649Z</time></trkpt><trkpt lat="43.479673298276026" lon="12.09927022947604"><ele>317.0</ele><time>2026-04-11T12:28:01.647Z</time></trkpt><trkpt lat="43.479758142837994" lon="12.09926472977599"><ele>315.33333333333337</ele><time>2026-04-11T12:28:02.647Z</time></trkpt><trkpt lat="43.479838278439566" lon="12.099262255887618"><ele>313.6666666666667</ele><time>2026-04-11T12:28:03.648Z</time></trkpt><trkpt lat="43.47992171815373" lon="12.099254829709396"><ele>312.0</ele><time>2026-04-11T12:28:04.65Z</time></trkpt><trkpt lat="43.479998536689145" lon="12.099253329866297"><ele>310.3333333333333</ele><time>2026-04-11T12:28:05.649Z</time></trkpt><trkpt lat="43.48006421352431" lon="12.099251179447545"><ele>308.66666666666663</ele><time>2026-04-11T12:28:06.649Z</time></trkpt><trkpt lat="43.480130423774575" lon="12.099243548486049"><ele>307.0</ele><time>2026-04-11T12:28:07.648Z</time></trkpt><trkpt lat="43.4802100565887" lon="12.099230739023703"><ele>307.0</ele><time>2026-04-11T12:28:08.65Z</time></trkpt><trkpt lat="43.48031485801038" lon="12.099207499785615"><ele>307.0</ele><time>2026-04-11T12:28:09.649Z</time></trkpt><trkpt lat="43.48041066141136" lon="12.099192438288515"><ele>307.0</ele><time>2026-04-11T12:28:10.649Z</time></trkpt><trkpt lat="43.48051013027272" lon="12.099186019825021"><ele>307.0</ele><time>2026-04-11T12:28:11.65Z</time></trkpt><trkpt lat="43.48061597088581" lon="12.099189534267186"><ele>307.0</ele><time>2026-04-11T12:28:12.65Z</time></trkpt><trkpt lat="43.480699719823384" lon="12.09920606385311"><ele>306.0</ele><time>2026-04-11T12:28:13.65Z</time></trkpt><trkpt lat="43.480878158762685" lon="12.099207866029355"><ele>305.0</ele><time>2026-04-11T12:28:16.649Z</time></trkpt><trkpt lat="43.48100812921108" lon="12.099178830168745"><ele>304.0</ele><time>2026-04-11T12:28:18.648Z</time></trkpt><trkpt lat="43.481082425957446" lon="12.099130736144726"><ele>303.0</ele><time>2026-04-11T12:28:19.649Z</time></trkpt><trkpt lat="43.48114321304348" lon="12.09906421751924"><ele>303.0</ele><time>2026-04-11T12:28:20.65Z</time></trkpt><trkpt lat="43.48119387036221" lon="12.0989856542781"><ele>303.0</ele><time>2026-04-11T12:28:21.649Z</time></trkpt><trkpt lat="43.48124087296277" lon="12.098919620347175"><ele>303.0</ele><time>2026-04-11T12:28:22.646Z</time></trkpt><trkpt lat="43.481337932683466" lon="12.098821004377253"><ele>303.0</ele><time>2026-04-11T12:28:24.647Z</time></trkpt><trkpt lat="43.481387006590985" lon="12.098761983450641"><ele>303.0</ele><time>2026-04-11T12:28:25.646Z</time></trkpt><trkpt lat="43.48147668908817" lon="12.098652022052617"><ele>303.0</ele><time>2026-04-11T12:28:27.646Z</time></trkpt><trkpt lat="43.48154868302702" lon="12.098575626792856"><ele>303.0</ele><time>2026-04-11T12:28:29.648Z</time></trkpt><trkpt lat="43.48161965234829" lon="12.09848499699567"><ele>303.0</ele><time>2026-04-11T12:28:31.648Z</time></trkpt><trkpt lat="43.48168877962938" lon="12.098428032686485"><ele>303.0</ele><time>2026-04-11T12:28:33.645Z</time></trkpt><trkpt lat="43.48175220966802" lon="12.098411394772791"><ele>303.0</ele><time>2026-04-11T12:28:34.647Z</time></trkpt><trkpt lat="43.48193310519198" lon="12.09838234202301"><ele>303.0</ele><time>2026-04-11T12:28:36.648Z</time></trkpt><trkpt lat="43.482024141722135" lon="12.098344105823395"><ele>302.75</ele><time>2026-04-11T12:28:37.647Z</time></trkpt><trkpt lat="43.482134001092874" lon="12.098281237246383"><ele>302.5</ele><time>2026-04-11T12:28:38.647Z</time></trkpt><trkpt lat="43.48224823104253" lon="12.09821799607297"><ele>302.25</ele><time>2026-04-11T12:28:39.647Z</time></trkpt><trkpt lat="43.48235672005095" lon="12.098151083588144"><ele>302.0</ele><time>2026-04-11T12:28:40.649Z</time></trkpt><trkpt lat="43.48246694391244" lon="12.098102774597802"><ele>302.0</ele><time>2026-04-11T12:28:41.65Z</time></trkpt><trkpt lat="43.482568379237506" lon="12.098053116017175"><ele>302.0</ele><time>2026-04-11T12:28:42.647Z</time></trkpt><trkpt lat="43.48266387350393" lon="12.0980060497309"><ele>302.0</ele><time>2026-04-11T12:28:43.647Z</time></trkpt><trkpt lat="43.48275367915378" lon="12.097964818462033"><ele>302.0</ele><time>2026-04-11T12:28:44.647Z</time></trkpt><trkpt lat="43.48284005751085" lon="12.097926163864315"><ele>302.0</ele><time>2026-04-11T12:28:45.648Z</time></trkpt><trkpt lat="43.48292379197973" lon="12.097888287051752"><ele>302.0</ele><time>2026-04-11T12:28:46.647Z</time></trkpt><trkpt lat="43.48299419696732" lon="12.097855647071663"><ele>302.0</ele><time>2026-04-11T12:28:47.647Z</time></trkpt><trkpt lat="43.48304141063511" lon="12.097774393891758"><ele>302.0</ele><time>2026-04-11T12:28:49.648Z</time></trkpt><trkpt lat="43.48302652268444" lon="12.097669977874723"><ele>302.0</ele><time>2026-04-11T12:28:51.647Z</time></trkpt><trkpt lat="43.483021437743794" lon="12.097568015576252"><ele>302.0</ele><time>2026-04-11T12:28:52.649Z</time></trkpt><trkpt lat="43.48301703183762" lon="12.097454107469458"><ele>302.0</ele><time>2026-04-11T12:28:53.647Z</time></trkpt><trkpt lat="43.48301244776087" lon="12.097329282821933"><ele>302.0</ele><time>2026-04-11T12:28:54.647Z</time></trkpt><trkpt lat="43.48301249649087" lon="12.097217379353413"><ele>302.0</ele><time>2026-04-11T12:28:55.658Z</time></trkpt><trkpt lat="43.48304180038364" lon="12.096990624781826"><ele>302.0</ele><time>2026-04-11T12:28:57.649Z</time></trkpt><trkpt lat="43.48305592249064" lon="12.096865027188208"><ele>302.0</ele><time>2026-04-11T12:28:58.648Z</time></trkpt><trkpt lat="43.48305637913632" lon="12.096727884985688"><ele>302.0</ele><time>2026-04-11T12:28:59.647Z</time></trkpt><trkpt lat="43.48305173540105" lon="12.096593941235346"><ele>302.0</ele><time>2026-04-11T12:29:00.648Z</time></trkpt><trkpt lat="43.48305220054498" lon="12.096456353417217"><ele>302.0</ele><time>2026-04-11T12:29:01.649Z</time></trkpt><trkpt lat="43.483058670801654" lon="12.096320544758074"><ele>302.0</ele><time>2026-04-11T12:29:02.648Z</time></trkpt><trkpt lat="43.48306312731202" lon="12.096198778342478"><ele>302.0</ele><time>2026-04-11T12:29:03.649Z</time></trkpt><trkpt lat="43.48307806785676" lon="12.096099670123387"><ele>302.0</ele><time>2026-04-11T12:29:04.649Z</time></trkpt><trkpt lat="43.48309857612736" lon="12.096011265452844"><ele>302.0</ele><time>2026-04-11T12:29:05.65Z</time></trkpt><trkpt lat="43.48315599951996" lon="12.095921700850717"><ele>302.0</ele><time>2026-04-11T12:29:07.649Z</time></trkpt><trkpt lat="43.483292686778654" lon="12.095869345761342"><ele>302.0</ele><time>2026-04-11T12:29:09.648Z</time></trkpt><trkpt lat="43.4833804688556" lon="12.095853544724948"><ele>302.0</ele><time>2026-04-11T12:29:10.647Z</time></trkpt><trkpt lat="43.48347509899666" lon="12.095829265375011"><ele>302.0</ele><time>2026-04-11T12:29:11.649Z</time></trkpt><trkpt lat="43.48357079214916" lon="12.095798862853727"><ele>302.0</ele><time>2026-04-11T12:29:12.649Z</time></trkpt><trkpt lat="43.48367552596812" lon="12.095756208625906"><ele>302.0</ele><time>2026-04-11T12:29:13.658Z</time></trkpt><trkpt lat="43.48378068313481" lon="12.09571196845961"><ele>302.0</ele><time>2026-04-11T12:29:14.647Z</time></trkpt><trkpt lat="43.483888153327534" lon="12.095664585991827"><ele>302.0</ele><time>2026-04-11T12:29:15.65Z</time></trkpt><trkpt lat="43.48399307840662" lon="12.095624058434895"><ele>302.0</ele><time>2026-04-11T12:29:16.649Z</time></trkpt><trkpt lat="43.48421930628195" lon="12.095548970236349"><ele>302.0</ele><time>2026-04-11T12:29:18.648Z</time></trkpt><trkpt lat="43.484344118997875" lon="12.095511230445506"><ele>302.0</ele><time>2026-04-11T12:29:19.649Z</time></trkpt><trkpt lat="43.48446890487906" lon="12.095475918823846"><ele>302.0</ele><time>2026-04-11T12:29:20.649Z</time></trkpt><trkpt lat="43.484590972844074" lon="12.095450022906787"><ele>302.0</ele><time>2026-04-11T12:29:21.648Z</time></trkpt><trkpt lat="43.4847089868746" lon="12.095426686631411"><ele>302.0</ele><time>2026-04-11T12:29:22.648Z</time></trkpt><trkpt lat="43.48481936488516" lon="12.095412470122204"><ele>302.0</ele><time>2026-04-11T12:29:23.648Z</time></trkpt><trkpt lat="43.484931753190914" lon="12.095405546317126"><ele>302.0</ele><time>2026-04-11T12:29:24.649Z</time></trkpt><trkpt lat="43.48504925672916" lon="12.095400000816003"><ele>302.0</ele><time>2026-04-11T12:29:25.647Z</time></trkpt><trkpt lat="43.48516621746457" lon="12.095388382006764"><ele>302.0</ele><time>2026-04-11T12:29:26.648Z</time></trkpt><trkpt lat="43.48528728507379" lon="12.095374815648832"><ele>302.0</ele><time>2026-04-11T12:29:27.647Z</time></trkpt><trkpt lat="43.48541054811599" lon="12.095364101525462"><ele>302.0</ele><time>2026-04-11T12:29:28.649Z</time></trkpt><trkpt lat="43.485534805642544" lon="12.09535359566472"><ele>302.0</ele><time>2026-04-11T12:29:29.648Z</time></trkpt><trkpt lat="43.485670157367295" lon="12.095337325574944"><ele>301.5</ele><time>2026-04-11T12:29:30.648Z</time></trkpt><trkpt lat="43.48581283230495" lon="12.095319731129496"><ele>301.0</ele><time>2026-04-11T12:29:31.656Z</time></trkpt><trkpt lat="43.48596020143156" lon="12.095304795007806"><ele>300.5</ele><time>2026-04-11T12:29:32.648Z</time></trkpt><trkpt lat="43.486108541823484" lon="12.09529254803455"><ele>300.0</ele><time>2026-04-11T12:29:33.647Z</time></trkpt><trkpt lat="43.486255601193314" lon="12.095276929595345"><ele>300.25</ele><time>2026-04-11T12:29:34.646Z</time></trkpt><trkpt lat="43.486402130515444" lon="12.095263985466802"><ele>300.5</ele><time>2026-04-11T12:29:35.648Z</time></trkpt><trkpt lat="43.48654302494932" lon="12.095251138064238"><ele>300.75</ele><time>2026-04-11T12:29:36.649Z</time></trkpt><trkpt lat="43.4866810281291" lon="12.09523446996765"><ele>301.0</ele><time>2026-04-11T12:29:37.649Z</time></trkpt><trkpt lat="43.48695038713489" lon="12.095184099426248"><ele>301.0</ele><time>2026-04-11T12:29:39.646Z</time></trkpt><trkpt lat="43.48708472064837" lon="12.095162512191001"><ele>301.0</ele><time>2026-04-11T12:29:40.647Z</time></trkpt><trkpt lat="43.48721196032313" lon="12.09514771180318"><ele>301.0</ele><time>2026-04-11T12:29:41.648Z</time></trkpt><trkpt lat="43.48734223077862" lon="12.095124299740432"><ele>301.0</ele><time>2026-04-11T12:29:42.648Z</time></trkpt><trkpt lat="43.48747501257029" lon="12.095099646766762"><ele>301.25</ele><time>2026-04-11T12:29:43.646Z</time></trkpt><trkpt lat="43.48761059654308" lon="12.095078143608003"><ele>301.5</ele><time>2026-04-11T12:29:44.646Z</time></trkpt><trkpt lat="43.48774844607065" lon="12.095059326416832"><ele>301.75</ele><time>2026-04-11T12:29:45.646Z</time></trkpt><trkpt lat="43.48787096069784" lon="12.09503630867087"><ele>302.0</ele><time>2026-04-11T12:29:46.647Z</time></trkpt><trkpt lat="43.487978254870214" lon="12.095023359535507"><ele>302.5</ele><time>2026-04-11T12:29:47.648Z</time></trkpt><trkpt lat="43.48807497080075" lon="12.095027758304747"><ele>303.0</ele><time>2026-04-11T12:29:48.647Z</time></trkpt><trkpt lat="43.488157486310485" lon="12.095057789804493"><ele>303.5</ele><time>2026-04-11T12:29:49.648Z</time></trkpt><trkpt lat="43.488232766953395" lon="12.095101474322995"><ele>304.0</ele><time>2026-04-11T12:29:50.646Z</time></trkpt><trkpt lat="43.4882899555437" lon="12.095173404247056"><ele>304.5</ele><time>2026-04-11T12:29:51.646Z</time></trkpt><trkpt lat="43.488335827780745" lon="12.095273087114537"><ele>305.0</ele><time>2026-04-11T12:29:52.646Z</time></trkpt><trkpt lat="43.48836124772129" lon="12.095396586581572"><ele>305.0</ele><time>2026-04-11T12:29:53.647Z</time></trkpt><trkpt lat="43.48836329926901" lon="12.095546587116393"><ele>305.0</ele><time>2026-04-11T12:29:54.647Z</time></trkpt><trkpt lat="43.488359826441545" lon="12.095708309422383"><ele>305.0</ele><time>2026-04-11T12:29:55.647Z</time></trkpt><trkpt lat="43.48836876674383" lon="12.095874309616011"><ele>305.0</ele><time>2026-04-11T12:29:56.647Z</time></trkpt><trkpt lat="43.48838307503314" lon="12.096046457148248"><ele>304.6666666666667</ele><time>2026-04-11T12:29:57.646Z</time></trkpt><trkpt lat="43.48839714504307" lon="12.096221677862882"><ele>304.3333333333333</ele><time>2026-04-11T12:29:58.646Z</time></trkpt><trkpt lat="43.48841915978396" lon="12.09653302082758"><ele>304.0</ele><time>2026-04-11T12:30:00.648Z</time></trkpt><trkpt lat="43.488429718246564" lon="12.09666330339782"><ele>304.0</ele><time>2026-04-11T12:30:01.646Z</time></trkpt><trkpt lat="43.488435467187934" lon="12.096780129216315"><ele>304.0</ele><time>2026-04-11T12:30:02.647Z</time></trkpt><trkpt lat="43.48844266838593" lon="12.096887559100843"><ele>304.0</ele><time>2026-04-11T12:30:03.647Z</time></trkpt><trkpt lat="43.48851661732408" lon="12.097020782849096"><ele>304.0</ele><time>2026-04-11T12:30:05.647Z</time></trkpt><trkpt lat="43.48857942554694" lon="12.097037385673787"><ele>304.0</ele><time>2026-04-11T12:30:06.649Z</time></trkpt><trkpt lat="43.488621597169285" lon="12.09710655838776"><ele>304.0</ele><time>2026-04-11T12:32:32.647Z</time></trkpt><trkpt lat="43.48846249368783" lon="12.097375254763127"><ele>303.8333333333333</ele><time>2026-04-11T12:41:48.647Z</time></trkpt><trkpt lat="43.48845770604639" lon="12.09747547146356"><ele>303.66666666666663</ele><time>2026-04-11T12:41:49.645Z</time></trkpt><trkpt lat="43.4884673897429" lon="12.097588147028436"><ele>303.5</ele><time>2026-04-11T12:41:50.647Z</time></trkpt><trkpt lat="43.48847636573123" lon="12.097700349179961"><ele>303.3333333333333</ele><time>2026-04-11T12:41:51.645Z</time></trkpt><trkpt lat="43.48848222943792" lon="12.097818891654255"><ele>303.1666666666667</ele><time>2026-04-11T12:41:52.644Z</time></trkpt><trkpt lat="43.48848438383888" lon="12.097950340529138"><ele>303.0</ele><time>2026-04-11T12:41:53.643Z</time></trkpt><trkpt lat="43.488479799309054" lon="12.0980882075527"><ele>303.0</ele><time>2026-04-11T12:41:54.644Z</time></trkpt><trkpt lat="43.4884736555008" lon="12.098235251511163"><ele>303.0</ele><time>2026-04-11T12:41:55.645Z</time></trkpt><trkpt lat="43.48846177607457" lon="12.098389325921797"><ele>303.0</ele><time>2026-04-11T12:41:56.644Z</time></trkpt><trkpt lat="43.48844227737173" lon="12.098543692686421"><ele>303.0</ele><time>2026-04-11T12:41:57.646Z</time></trkpt><trkpt lat="43.4884211957613" lon="12.09869558439712"><ele>303.0</ele><time>2026-04-11T12:41:58.644Z</time></trkpt><trkpt lat="43.488397917700205" lon="12.098858543513515"><ele>303.0</ele><time>2026-04-11T12:41:59.646Z</time></trkpt><trkpt lat="43.48836966167543" lon="12.099025415843094"><ele>303.0</ele><time>2026-04-11T12:42:00.643Z</time></trkpt><trkpt lat="43.488340056257066" lon="12.099198258868432"><ele>303.0</ele><time>2026-04-11T12:42:01.645Z</time></trkpt><trkpt lat="43.48830435405392" lon="12.099375133837485"><ele>303.0</ele><time>2026-04-11T12:42:02.644Z</time></trkpt><trkpt lat="43.48826014096619" lon="12.099547447292515"><ele>303.0</ele><time>2026-04-11T12:42:03.643Z</time></trkpt><trkpt lat="43.488212561195816" lon="12.099717910343106"><ele>303.0</ele><time>2026-04-11T12:42:04.645Z</time></trkpt><trkpt lat="43.48816565752582" lon="12.099877149910766"><ele>303.0</ele><time>2026-04-11T12:42:05.642Z</time></trkpt><trkpt lat="43.488070977491645" lon="12.100217465885303"><ele>303.5</ele><time>2026-04-11T12:42:07.644Z</time></trkpt><trkpt lat="43.488021400509034" lon="12.10039128044728"><ele>304.0</ele><time>2026-04-11T12:42:08.644Z</time></trkpt><trkpt lat="43.48797446201555" lon="12.100564862454203"><ele>304.5</ele><time>2026-04-11T12:42:09.646Z</time></trkpt><trkpt lat="43.48793689510985" lon="12.100742068603198"><ele>305.0</ele><time>2026-04-11T12:42:10.643Z</time></trkpt><trkpt lat="43.48791408703493" lon="12.100923159582726"><ele>305.75</ele><time>2026-04-11T12:42:11.645Z</time></trkpt><trkpt lat="43.48790798728423" lon="12.101109049469018"><ele>306.5</ele><time>2026-04-11T12:42:12.644Z</time></trkpt><trkpt lat="43.487915024157275" lon="12.101292972480804"><ele>307.25</ele><time>2026-04-11T12:42:13.643Z</time></trkpt><trkpt lat="43.48793810587782" lon="12.101478853611233"><ele>308.0</ele><time>2026-04-11T12:42:14.644Z</time></trkpt><trkpt lat="43.48796337429368" lon="12.101665049987986"><ele>308.25</ele><time>2026-04-11T12:42:15.645Z</time></trkpt><trkpt lat="43.4879929926539" lon="12.101847104425453"><ele>308.5</ele><time>2026-04-11T12:42:16.644Z</time></trkpt><trkpt lat="43.488035808661145" lon="12.10202904467141"><ele>308.75</ele><time>2026-04-11T12:42:17.645Z</time></trkpt><trkpt lat="43.48808079259533" lon="12.102207719858226"><ele>309.0</ele><time>2026-04-11T12:42:18.645Z</time></trkpt><trkpt lat="43.48812182479276" lon="12.102390394714298"><ele>308.0</ele><time>2026-04-11T12:42:19.643Z</time></trkpt><trkpt lat="43.48816495800725" lon="12.102575463596247"><ele>307.0</ele><time>2026-04-11T12:42:20.644Z</time></trkpt><trkpt lat="43.488210280828135" lon="12.10275980566188"><ele>306.0</ele><time>2026-04-11T12:42:21.643Z</time></trkpt><trkpt lat="43.488255042490934" lon="12.102943552145202"><ele>305.0</ele><time>2026-04-11T12:42:22.644Z</time></trkpt><trkpt lat="43.4883027325542" lon="12.103132018817197"><ele>304.5</ele><time>2026-04-11T12:42:23.644Z</time></trkpt><trkpt lat="43.48834418886218" lon="12.103317296882567"><ele>304.0</ele><time>2026-04-11T12:42:24.644Z</time></trkpt><trkpt lat="43.488383498952615" lon="12.103506372451575"><ele>303.5</ele><time>2026-04-11T12:42:25.645Z</time></trkpt><trkpt lat="43.48842623499314" lon="12.103689060308769"><ele>303.0</ele><time>2026-04-11T12:42:26.646Z</time></trkpt><trkpt lat="43.488515411394744" lon="12.104045253965603"><ele>302.75</ele><time>2026-04-11T12:42:28.643Z</time></trkpt><trkpt lat="43.488556851258366" lon="12.104237180880816"><ele>302.5</ele><time>2026-04-11T12:42:29.645Z</time></trkpt><trkpt lat="43.488597614671065" lon="12.104435853011072"><ele>302.25</ele><time>2026-04-11T12:42:30.645Z</time></trkpt><trkpt lat="43.48862652845267" lon="12.104632947344115"><ele>302.0</ele><time>2026-04-11T12:42:31.647Z</time></trkpt><trkpt lat="43.488640075328625" lon="12.10484483972672"><ele>302.25</ele><time>2026-04-11T12:42:32.645Z</time></trkpt><trkpt lat="43.488630902818414" lon="12.105047168240391"><ele>302.5</ele><time>2026-04-11T12:42:33.644Z</time></trkpt><trkpt lat="43.48860801282812" lon="12.105247430684159"><ele>302.75</ele><time>2026-04-11T12:42:34.644Z</time></trkpt><trkpt lat="43.4885762506559" lon="12.105448243846094"><ele>303.0</ele><time>2026-04-11T12:42:35.643Z</time></trkpt><trkpt lat="43.48852723065085" lon="12.105635247635544"><ele>303.75</ele><time>2026-04-11T12:42:36.642Z</time></trkpt><trkpt lat="43.48846957919007" lon="12.105827333305523"><ele>304.5</ele><time>2026-04-11T12:42:37.643Z</time></trkpt><trkpt lat="43.488405923267294" lon="12.106011122518465"><ele>305.25</ele><time>2026-04-11T12:42:38.644Z</time></trkpt><trkpt lat="43.48833717306354" lon="12.106186508953307"><ele>306.0</ele><time>2026-04-11T12:42:39.644Z</time></trkpt><trkpt lat="43.48825238427288" lon="12.10635156043183"><ele>306.0</ele><time>2026-04-11T12:42:40.643Z</time></trkpt><trkpt lat="43.48816266793955" lon="12.106503911568169"><ele>306.0</ele><time>2026-04-11T12:42:41.643Z</time></trkpt><trkpt lat="43.488079725708104" lon="12.10665253646155"><ele>306.0</ele><time>2026-04-11T12:42:42.645Z</time></trkpt><trkpt lat="43.48799685145283" lon="12.106807251198646"><ele>306.0</ele><time>2026-04-11T12:42:43.643Z</time></trkpt><trkpt lat="43.48791124668229" lon="12.10696174229698"><ele>306.0</ele><time>2026-04-11T12:42:44.644Z</time></trkpt><trkpt lat="43.4878294021655" lon="12.107110279082283"><ele>306.0</ele><time>2026-04-11T12:42:45.643Z</time></trkpt><trkpt lat="43.4877477356477" lon="12.10725749715533"><ele>306.0</ele><time>2026-04-11T12:42:46.645Z</time></trkpt><trkpt lat="43.487498102337646" lon="12.107724204127457"><ele>306.0</ele><time>2026-04-11T12:42:49.644Z</time></trkpt><trkpt lat="43.487417281082436" lon="12.107878820101432"><ele>306.0</ele><time>2026-04-11T12:42:50.643Z</time></trkpt><trkpt lat="43.487343234704205" lon="12.108041234859142"><ele>306.0</ele><time>2026-04-11T12:42:51.645Z</time></trkpt><trkpt lat="43.48728393879509" lon="12.108214372714867"><ele>306.0</ele><time>2026-04-11T12:42:52.645Z</time></trkpt><trkpt lat="43.48724529838401" lon="12.108392031999012"><ele>306.25</ele><time>2026-04-11T12:42:53.644Z</time></trkpt><trkpt lat="43.48723170132819" lon="12.108580337199264"><ele>306.5</ele><time>2026-04-11T12:42:54.643Z</time></trkpt><trkpt lat="43.48724089216054" lon="12.10876748238513"><ele>306.75</ele><time>2026-04-11T12:42:55.644Z</time></trkpt><trkpt lat="43.48728037226001" lon="12.108950303318494"><ele>307.0</ele><time>2026-04-11T12:42:56.644Z</time></trkpt><trkpt lat="43.48733500020064" lon="12.109125176484959"><ele>307.0</ele><time>2026-04-11T12:42:57.645Z</time></trkpt><trkpt lat="43.487414169836136" lon="12.109285807638212"><ele>307.0</ele><time>2026-04-11T12:42:58.645Z</time></trkpt><trkpt lat="43.487499656829094" lon="12.10942838962892"><ele>307.0</ele><time>2026-04-11T12:42:59.644Z</time></trkpt><trkpt lat="43.487600768844636" lon="12.109556750659527"><ele>307.0</ele><time>2026-04-11T12:43:00.644Z</time></trkpt><trkpt lat="43.487729398967986" lon="12.10968503686441"><ele>307.0</ele><time>2026-04-11T12:43:01.644Z</time></trkpt><trkpt lat="43.487804712027135" lon="12.109811198160498"><ele>307.0</ele><time>2026-04-11T12:43:02.642Z</time></trkpt><trkpt lat="43.487880005868696" lon="12.109959173797815"><ele>307.0</ele><time>2026-04-11T12:43:03.643Z</time></trkpt><trkpt lat="43.487945353034604" lon="12.11012040353683"><ele>307.0</ele><time>2026-04-11T12:43:04.643Z</time></trkpt><trkpt lat="43.487989500292926" lon="12.110289840804663"><ele>307.3333333333333</ele><time>2026-04-11T12:43:05.645Z</time></trkpt><trkpt lat="43.48801717948144" lon="12.110466575519142"><ele>307.6666666666667</ele><time>2026-04-11T12:43:06.644Z</time></trkpt><trkpt lat="43.48803275541069" lon="12.110639624994473"><ele>308.0</ele><time>2026-04-11T12:43:07.641Z</time></trkpt><trkpt lat="43.48803461458048" lon="12.111007021076652"><ele>307.5</ele><time>2026-04-11T12:43:09.64Z</time></trkpt><trkpt lat="43.4880389626414" lon="12.111186417945326"><ele>307.0</ele><time>2026-04-11T12:43:10.642Z</time></trkpt><trkpt lat="43.48807082717316" lon="12.11137303730556"><ele>306.5</ele><time>2026-04-11T12:43:11.643Z</time></trkpt><trkpt lat="43.48811712841442" lon="12.111544806433919"><ele>306.0</ele><time>2026-04-11T12:43:12.643Z</time></trkpt><trkpt lat="43.488162972904504" lon="12.11171648775824"><ele>305.5</ele><time>2026-04-11T12:43:13.645Z</time></trkpt><trkpt lat="43.48821989974301" lon="12.111881328964325"><ele>305.0</ele><time>2026-04-11T12:43:14.645Z</time></trkpt><trkpt lat="43.488277460753956" lon="12.112050244920512"><ele>304.5</ele><time>2026-04-11T12:43:15.646Z</time></trkpt><trkpt lat="43.488332719352684" lon="12.112209841926882"><ele>304.0</ele><time>2026-04-11T12:43:16.646Z</time></trkpt><trkpt lat="43.48839345795771" lon="12.11238186045633"><ele>303.5</ele><time>2026-04-11T12:43:17.647Z</time></trkpt><trkpt lat="43.48844844039012" lon="12.112549841769798"><ele>303.0</ele><time>2026-04-11T12:43:18.646Z</time></trkpt><trkpt lat="43.488510887358636" lon="12.112719408300116"><ele>302.5</ele><time>2026-04-11T12:43:19.646Z</time></trkpt><trkpt lat="43.48857119041678" lon="12.112887999496497"><ele>302.0</ele><time>2026-04-11T12:43:20.644Z</time></trkpt><trkpt lat="43.48862770177833" lon="12.11305692832832"><ele>302.0</ele><time>2026-04-11T12:43:21.645Z</time></trkpt><trkpt lat="43.488677338941685" lon="12.113229269357339"><ele>302.0</ele><time>2026-04-11T12:43:22.643Z</time></trkpt><trkpt lat="43.48872151323252" lon="12.113400609589677"><ele>302.0</ele><time>2026-04-11T12:43:23.643Z</time></trkpt><trkpt lat="43.48877328828351" lon="12.113576842697807"><ele>302.0</ele><time>2026-04-11T12:43:24.646Z</time></trkpt><trkpt lat="43.48881473727624" lon="12.113751147854938"><ele>301.75</ele><time>2026-04-11T12:43:25.644Z</time></trkpt><trkpt lat="43.488859531700314" lon="12.113929882201079"><ele>301.5</ele><time>2026-04-11T12:43:26.644Z</time></trkpt><trkpt lat="43.48890241039126" lon="12.114105740558863"><ele>301.25</ele><time>2026-04-11T12:43:27.644Z</time></trkpt><trkpt lat="43.488948888431324" lon="12.114284832526375"><ele>301.0</ele><time>2026-04-11T12:43:28.643Z</time></trkpt><trkpt lat="43.48903241975957" lon="12.11463488433117"><ele>301.0</ele><time>2026-04-11T12:43:30.644Z</time></trkpt><trkpt lat="43.489067363641276" lon="12.114813691925955"><ele>301.0</ele><time>2026-04-11T12:43:31.644Z</time></trkpt><trkpt lat="43.48908524627675" lon="12.11499940302964"><ele>301.0</ele><time>2026-04-11T12:43:32.644Z</time></trkpt><trkpt lat="43.48908279126672" lon="12.115188245083509"><ele>301.0</ele><time>2026-04-11T12:43:33.644Z</time></trkpt><trkpt lat="43.48905881162881" lon="12.115374801220579"><ele>301.5</ele><time>2026-04-11T12:43:34.643Z</time></trkpt><trkpt lat="43.48901157456579" lon="12.115558623463087"><ele>302.0</ele><time>2026-04-11T12:43:35.644Z</time></trkpt><trkpt lat="43.48896613362455" lon="12.11574019874024"><ele>302.5</ele><time>2026-04-11T12:43:36.643Z</time></trkpt><trkpt lat="43.48891975859318" lon="12.115930743126109"><ele>303.0</ele><time>2026-04-11T12:43:37.643Z</time></trkpt><trkpt lat="43.48887551106198" lon="12.116117773840841"><ele>303.0</ele><time>2026-04-11T12:43:38.644Z</time></trkpt><trkpt lat="43.48883092340174" lon="12.11630798163911"><ele>303.0</ele><time>2026-04-11T12:43:39.644Z</time></trkpt><trkpt lat="43.48878475468774" lon="12.11649293878526"><ele>303.0</ele><time>2026-04-11T12:43:40.643Z</time></trkpt><trkpt lat="43.488741678751694" lon="12.116684662337358"><ele>303.0</ele><time>2026-04-11T12:43:41.645Z</time></trkpt><trkpt lat="43.48870388420856" lon="12.116871005564201"><ele>302.75</ele><time>2026-04-11T12:43:42.643Z</time></trkpt><trkpt lat="43.488664863693764" lon="12.117063386041961"><ele>302.5</ele><time>2026-04-11T12:43:43.644Z</time></trkpt><trkpt lat="43.48862059574011" lon="12.117243931764017"><ele>302.25</ele><time>2026-04-11T12:43:44.643Z</time></trkpt><trkpt lat="43.48857433345945" lon="12.117431200855966"><ele>302.0</ele><time>2026-04-11T12:43:45.645Z</time></trkpt><trkpt lat="43.48853004937327" lon="12.117608160339952"><ele>302.5</ele><time>2026-04-11T12:43:46.643Z</time></trkpt><trkpt lat="43.48848515190757" lon="12.117787220334671"><ele>303.0</ele><time>2026-04-11T12:43:47.645Z</time></trkpt><trkpt lat="43.488436823443834" lon="12.11796253973692"><ele>303.5</ele><time>2026-04-11T12:43:48.644Z</time></trkpt><trkpt lat="43.48838176465958" lon="12.118136147249476"><ele>304.0</ele><time>2026-04-11T12:43:49.644Z</time></trkpt><trkpt lat="43.48826979880172" lon="12.118493754392231"><ele>304.0</ele><time>2026-04-11T12:43:51.643Z</time></trkpt><trkpt lat="43.48821134934765" lon="12.11867625384531"><ele>304.0</ele><time>2026-04-11T12:43:52.642Z</time></trkpt><trkpt lat="43.4881510302011" lon="12.118870271916142"><ele>304.0</ele><time>2026-04-11T12:43:53.644Z</time></trkpt><trkpt lat="43.48808870197889" lon="12.119057449363218"><ele>304.0</ele><time>2026-04-11T12:43:54.645Z</time></trkpt><trkpt lat="43.48802901049172" lon="12.119247609875872"><ele>303.0</ele><time>2026-04-11T12:43:55.644Z</time></trkpt><trkpt lat="43.48797170424401" lon="12.119442379577954"><ele>302.0</ele><time>2026-04-11T12:43:56.644Z</time></trkpt><trkpt lat="43.48790119505391" lon="12.119650275452177"><ele>301.0</ele><time>2026-04-11T12:43:57.644Z</time></trkpt><trkpt lat="43.48784714319526" lon="12.119857825211405"><ele>301.0</ele><time>2026-04-11T12:43:58.643Z</time></trkpt><trkpt lat="43.48780412443025" lon="12.12005723608322"><ele>301.0</ele><time>2026-04-11T12:43:59.644Z</time></trkpt><trkpt lat="43.48775896104723" lon="12.120267269855024"><ele>301.0</ele><time>2026-04-11T12:44:00.643Z</time></trkpt><trkpt lat="43.487712631930385" lon="12.12048678930617"><ele>301.0</ele><time>2026-04-11T12:44:01.645Z</time></trkpt><trkpt lat="43.48766852038241" lon="12.120699029639907"><ele>301.0</ele><time>2026-04-11T12:44:02.644Z</time></trkpt><trkpt lat="43.487631539390165" lon="12.120933272740054"><ele>301.0</ele><time>2026-04-11T12:44:03.644Z</time></trkpt><trkpt lat="43.48758580889481" lon="12.121152239695107"><ele>301.3333333333333</ele><time>2026-04-11T12:44:04.643Z</time></trkpt><trkpt lat="43.48753834654128" lon="12.12136407752339"><ele>301.6666666666667</ele><time>2026-04-11T12:44:05.644Z</time></trkpt><trkpt lat="43.48748999125908" lon="12.121578310184193"><ele>302.0</ele><time>2026-04-11T12:44:06.642Z</time></trkpt><trkpt lat="43.48743446779386" lon="12.121790038537819"><ele>302.33333333333337</ele><time>2026-04-11T12:44:07.643Z</time></trkpt><trkpt lat="43.48737607164104" lon="12.12199915818961"><ele>302.6666666666667</ele><time>2026-04-11T12:44:08.642Z</time></trkpt><trkpt lat="43.48731927727151" lon="12.122199305328198"><ele>303.0</ele><time>2026-04-11T12:44:09.65Z</time></trkpt><trkpt lat="43.4872658846832" lon="12.122406110880451"><ele>304.5</ele><time>2026-04-11T12:44:10.644Z</time></trkpt><trkpt lat="43.48715683884906" lon="12.122799867044403"><ele>306.0</ele><time>2026-04-11T12:44:12.645Z</time></trkpt><trkpt lat="43.48710252746026" lon="12.123003312025949"><ele>304.3333333333333</ele><time>2026-04-11T12:44:13.644Z</time></trkpt><trkpt lat="43.48704459034621" lon="12.123194747247645"><ele>302.66666666666663</ele><time>2026-04-11T12:44:14.647Z</time></trkpt><trkpt lat="43.48699090525739" lon="12.123390839595416"><ele>301.0</ele><time>2026-04-11T12:44:15.644Z</time></trkpt><trkpt lat="43.486941029593154" lon="12.123594712784733"><ele>300.66666666666663</ele><time>2026-04-11T12:44:16.645Z</time></trkpt><trkpt lat="43.48689133422449" lon="12.123793268047029"><ele>300.3333333333333</ele><time>2026-04-11T12:44:17.644Z</time></trkpt><trkpt lat="43.48684087612459" lon="12.123995861872933"><ele>300.0</ele><time>2026-04-11T12:44:18.645Z</time></trkpt><trkpt lat="43.48679141843762" lon="12.124192982165916"><ele>301.0</ele><time>2026-04-11T12:44:19.645Z</time></trkpt><trkpt lat="43.48674288535182" lon="12.124393551156482"><ele>302.0</ele><time>2026-04-11T12:44:20.643Z</time></trkpt><trkpt lat="43.48669198248195" lon="12.124581510637158"><ele>303.0</ele><time>2026-04-11T12:44:21.644Z</time></trkpt><trkpt lat="43.48664207670586" lon="12.124790464981658"><ele>303.75</ele><time>2026-04-11T12:44:22.645Z</time></trkpt><trkpt lat="43.48659354643985" lon="12.124981093177102"><ele>304.5</ele><time>2026-04-11T12:44:23.644Z</time></trkpt><trkpt lat="43.48654333421502" lon="12.125186481200831"><ele>305.25</ele><time>2026-04-11T12:44:24.645Z</time></trkpt><trkpt lat="43.48649420413315" lon="12.125370441071508"><ele>306.0</ele><time>2026-04-11T12:44:25.644Z</time></trkpt><trkpt lat="43.48644453188001" lon="12.125565250390794"><ele>306.75</ele><time>2026-04-11T12:44:26.644Z</time></trkpt><trkpt lat="43.486398872777436" lon="12.125749821612295"><ele>307.5</ele><time>2026-04-11T12:44:27.643Z</time></trkpt><trkpt lat="43.48635350155059" lon="12.125934780447654"><ele>308.25</ele><time>2026-04-11T12:44:28.643Z</time></trkpt><trkpt lat="43.48630686801873" lon="12.126124938779808"><ele>309.0</ele><time>2026-04-11T12:44:29.643Z</time></trkpt><trkpt lat="43.486265639290316" lon="12.126308227794432"><ele>307.6666666666667</ele><time>2026-04-11T12:44:30.644Z</time></trkpt><trkpt lat="43.48622732622867" lon="12.126503026983304"><ele>306.33333333333337</ele><time>2026-04-11T12:44:31.645Z</time></trkpt><trkpt lat="43.48618315645791" lon="12.126916067224995"><ele>305.0</ele><time>2026-04-11T12:44:33.644Z</time></trkpt><trkpt lat="43.48616980407106" lon="12.127124874830109"><ele>305.0</ele><time>2026-04-11T12:44:34.644Z</time></trkpt><trkpt lat="43.486154239452325" lon="12.12735571876879"><ele>305.0</ele><time>2026-04-11T12:44:35.646Z</time></trkpt><trkpt lat="43.4861381341243" lon="12.127577134115139"><ele>305.0</ele><time>2026-04-11T12:44:36.645Z</time></trkpt><trkpt lat="43.48612322689021" lon="12.12778525055549"><ele>304.75</ele><time>2026-04-11T12:44:37.645Z</time></trkpt><trkpt lat="43.48610685553966" lon="12.127995527012551"><ele>304.5</ele><time>2026-04-11T12:44:38.644Z</time></trkpt><trkpt lat="43.48609338877641" lon="12.128194904541342"><ele>304.25</ele><time>2026-04-11T12:44:39.645Z</time></trkpt><trkpt lat="43.486090162212776" lon="12.128379551046159"><ele>304.0</ele><time>2026-04-11T12:44:40.645Z</time></trkpt><trkpt lat="43.48610600280235" lon="12.128566680035524"><ele>303.66666666666663</ele><time>2026-04-11T12:44:41.644Z</time></trkpt><trkpt lat="43.486158973395035" lon="12.128754870740506"><ele>303.3333333333333</ele><time>2026-04-11T12:44:42.645Z</time></trkpt><trkpt lat="43.486239277725424" lon="12.128944278457208"><ele>303.0</ele><time>2026-04-11T12:44:43.645Z</time></trkpt><trkpt lat="43.486327826733415" lon="12.129127987553042"><ele>304.0</ele><time>2026-04-11T12:44:44.645Z</time></trkpt><trkpt lat="43.48641612403268" lon="12.129320250564625"><ele>305.0</ele><time>2026-04-11T12:44:45.644Z</time></trkpt><trkpt lat="43.486508109338075" lon="12.129516548821751"><ele>306.0</ele><time>2026-04-11T12:44:46.643Z</time></trkpt><trkpt lat="43.486601118347856" lon="12.129722387039346"><ele>305.3333333333333</ele><time>2026-04-11T12:44:47.644Z</time></trkpt><trkpt lat="43.486693786287915" lon="12.129924817923293"><ele>304.66666666666663</ele><time>2026-04-11T12:44:48.643Z</time></trkpt><trkpt lat="43.486777875498326" lon="12.130121311592184"><ele>304.0</ele><time>2026-04-11T12:44:49.644Z</time></trkpt><trkpt lat="43.48685097686888" lon="12.130340856006423"><ele>304.0</ele><time>2026-04-11T12:44:50.643Z</time></trkpt><trkpt lat="43.48689702133765" lon="12.130566810423264"><ele>304.0</ele><time>2026-04-11T12:44:51.643Z</time></trkpt><trkpt lat="43.48691661389391" lon="12.130802787700716"><ele>304.0</ele><time>2026-04-11T12:44:52.644Z</time></trkpt><trkpt lat="43.486938329002164" lon="12.131289713032704"><ele>303.3333333333333</ele><time>2026-04-11T12:44:54.644Z</time></trkpt><trkpt lat="43.48696189457931" lon="12.131538399206852"><ele>302.6666666666667</ele><time>2026-04-11T12:44:55.644Z</time></trkpt><trkpt lat="43.48698498912633" lon="12.13178818625632"><ele>302.0</ele><time>2026-04-11T12:44:56.644Z</time></trkpt><trkpt lat="43.48700656732496" lon="12.132030274616465"><ele>302.0</ele><time>2026-04-11T12:44:57.644Z</time></trkpt><trkpt lat="43.487025746115435" lon="12.132275004166686"><ele>302.0</ele><time>2026-04-11T12:44:58.645Z</time></trkpt><trkpt lat="43.48704333235767" lon="12.132516856849481"><ele>302.0</ele><time>2026-04-11T12:44:59.646Z</time></trkpt><trkpt lat="43.48706486750801" lon="12.132764777003036"><ele>301.33333333333337</ele><time>2026-04-11T12:45:00.643Z</time></trkpt><trkpt lat="43.48708416283663" lon="12.133008055035493"><ele>300.6666666666667</ele><time>2026-04-11T12:45:01.645Z</time></trkpt><trkpt lat="43.48710594029035" lon="12.133256330821428"><ele>300.0</ele><time>2026-04-11T12:45:02.644Z</time></trkpt><trkpt lat="43.48712657473215" lon="12.133501185569687"><ele>303.0</ele><time>2026-04-11T12:45:03.643Z</time></trkpt><trkpt lat="43.487147311430384" lon="12.133741293790534"><ele>306.0</ele><time>2026-04-11T12:45:04.644Z</time></trkpt><trkpt lat="43.48716913622492" lon="12.133989849494425"><ele>309.0</ele><time>2026-04-11T12:45:05.643Z</time></trkpt><trkpt lat="43.48719037389156" lon="12.134231095972908"><ele>309.0</ele><time>2026-04-11T12:45:06.643Z</time></trkpt><trkpt lat="43.48722048707343" lon="12.13447208046583"><ele>309.0</ele><time>2026-04-11T12:45:07.645Z</time></trkpt><trkpt lat="43.48725666670809" lon="12.134718182053868"><ele>309.0</ele><time>2026-04-11T12:45:08.643Z</time></trkpt><trkpt lat="43.487290838122476" lon="12.134956686101619"><ele>308.0</ele><time>2026-04-11T12:45:09.645Z</time></trkpt><trkpt lat="43.487336227078046" lon="12.135188329966542"><ele>307.0</ele><time>2026-04-11T12:45:10.645Z</time></trkpt><trkpt lat="43.48739222953206" lon="12.135423409539234"><ele>306.0</ele><time>2026-04-11T12:45:11.646Z</time></trkpt><trkpt lat="43.48746051965751" lon="12.135639802571498"><ele>303.5</ele><time>2026-04-11T12:45:12.643Z</time></trkpt><trkpt lat="43.48752781767185" lon="12.135850753219001"><ele>301.0</ele><time>2026-04-11T12:45:13.644Z</time></trkpt><trkpt lat="43.487652647505385" lon="12.136266592331742"><ele>301.0</ele><time>2026-04-11T12:45:15.643Z</time></trkpt><trkpt lat="43.4877102124444" lon="12.136471179450224"><ele>301.0</ele><time>2026-04-11T12:45:16.643Z</time></trkpt><trkpt lat="43.48777177780968" lon="12.136667980536936"><ele>301.0</ele><time>2026-04-11T12:45:17.644Z</time></trkpt><trkpt lat="43.48784786606314" lon="12.136870287934865"><ele>300.3333333333333</ele><time>2026-04-11T12:45:18.643Z</time></trkpt><trkpt lat="43.487930014565585" lon="12.137060902933236"><ele>299.6666666666667</ele><time>2026-04-11T12:45:19.643Z</time></trkpt><trkpt lat="43.488026026499845" lon="12.137250439867907"><ele>299.0</ele><time>2026-04-11T12:45:20.644Z</time></trkpt><trkpt lat="43.488128186145616" lon="12.13742915966472"><ele>299.0</ele><time>2026-04-11T12:45:21.645Z</time></trkpt><trkpt lat="43.48823471842075" lon="12.137600027177559"><ele>299.0</ele><time>2026-04-11T12:45:22.642Z</time></trkpt><trkpt lat="43.48834003077224" lon="12.13777776152757"><ele>299.0</ele><time>2026-04-11T12:45:23.643Z</time></trkpt><trkpt lat="43.48843922291554" lon="12.1379455378088"><ele>299.0</ele><time>2026-04-11T12:45:24.643Z</time></trkpt><trkpt lat="43.48855175887587" lon="12.138109094900429"><ele>299.0</ele><time>2026-04-11T12:45:25.643Z</time></trkpt><trkpt lat="43.48868321187437" lon="12.138245719117053"><ele>299.0</ele><time>2026-04-11T12:45:26.644Z</time></trkpt><trkpt lat="43.48882075414444" lon="12.1383619203948"><ele>298.6666666666667</ele><time>2026-04-11T12:45:27.644Z</time></trkpt><trkpt lat="43.488962295675904" lon="12.138477761516489"><ele>298.3333333333333</ele><time>2026-04-11T12:45:28.643Z</time></trkpt><trkpt lat="43.48909717686099" lon="12.138590974046034"><ele>298.0</ele><time>2026-04-11T12:45:29.644Z</time></trkpt><trkpt lat="43.48923073922902" lon="12.138706536089577"><ele>298.0</ele><time>2026-04-11T12:45:30.643Z</time></trkpt><trkpt lat="43.48936032441694" lon="12.138822235749526"><ele>298.0</ele><time>2026-04-11T12:45:31.643Z</time></trkpt><trkpt lat="43.48948848975238" lon="12.138940060840556"><ele>298.0</ele><time>2026-04-11T12:45:32.644Z</time></trkpt><trkpt lat="43.48962413425683" lon="12.139059136324484"><ele>298.5</ele><time>2026-04-11T12:45:33.644Z</time></trkpt><trkpt lat="43.48975796436209" lon="12.139173759364882"><ele>299.0</ele><time>2026-04-11T12:45:34.642Z</time></trkpt><trkpt lat="43.490021715021975" lon="12.139400266088625"><ele>299.0</ele><time>2026-04-11T12:45:36.643Z</time></trkpt><trkpt lat="43.490152267088064" lon="12.139524906705798"><ele>299.0</ele><time>2026-04-11T12:45:37.646Z</time></trkpt><trkpt lat="43.490274634177325" lon="12.139666826422541"><ele>299.0</ele><time>2026-04-11T12:45:38.642Z</time></trkpt><trkpt lat="43.49038444164029" lon="12.139827256197803"><ele>302.0</ele><time>2026-04-11T12:45:39.643Z</time></trkpt><trkpt lat="43.490494855156655" lon="12.139989827746453"><ele>305.0</ele><time>2026-04-11T12:45:40.645Z</time></trkpt><trkpt lat="43.490604536663476" lon="12.14015951430339"><ele>308.0</ele><time>2026-04-11T12:45:41.644Z</time></trkpt><trkpt lat="43.490704852018354" lon="12.140331461236137"><ele>308.0</ele><time>2026-04-11T12:45:42.644Z</time></trkpt><trkpt lat="43.490798018769034" lon="12.140510973877449"><ele>308.0</ele><time>2026-04-11T12:45:43.644Z</time></trkpt><trkpt lat="43.49087874811554" lon="12.140697513576619"><ele>308.0</ele><time>2026-04-11T12:45:44.643Z</time></trkpt><trkpt lat="43.49093575845915" lon="12.140903080369416"><ele>305.33333333333337</ele><time>2026-04-11T12:45:45.647Z</time></trkpt><trkpt lat="43.49095811206359" lon="12.141115577410417"><ele>302.6666666666667</ele><time>2026-04-11T12:45:46.643Z</time></trkpt><trkpt lat="43.49094817539606" lon="12.141328100353089"><ele>300.0</ele><time>2026-04-11T12:45:47.644Z</time></trkpt><trkpt lat="43.49090915054454" lon="12.141535325551784"><ele>298.6666666666667</ele><time>2026-04-11T12:45:48.645Z</time></trkpt><trkpt lat="43.490838234539254" lon="12.141736588156485"><ele>297.33333333333337</ele><time>2026-04-11T12:45:49.643Z</time></trkpt><trkpt lat="43.49075927329816" lon="12.141923542824289"><ele>296.0</ele><time>2026-04-11T12:45:50.643Z</time></trkpt><trkpt lat="43.49068626126729" lon="12.142113729479059"><ele>296.0</ele><time>2026-04-11T12:45:51.643Z</time></trkpt><trkpt lat="43.49061490370811" lon="12.142317543002095"><ele>296.0</ele><time>2026-04-11T12:45:52.653Z</time></trkpt><trkpt lat="43.49055217346121" lon="12.14250459561954"><ele>296.0</ele><time>2026-04-11T12:45:53.643Z</time></trkpt><trkpt lat="43.49048548120887" lon="12.142695706781476"><ele>294.5</ele><time>2026-04-11T12:45:54.643Z</time></trkpt><trkpt lat="43.49041450883193" lon="12.142893510682036"><ele>293.0</ele><time>2026-04-11T12:45:55.644Z</time></trkpt><trkpt lat="43.49027452687105" lon="12.143282605821836"><ele>293.0</ele><time>2026-04-11T12:45:57.646Z</time></trkpt><trkpt lat="43.49020528806912" lon="12.143470726596346"><ele>293.0</ele><time>2026-04-11T12:45:58.645Z</time></trkpt><trkpt lat="43.49013407587086" lon="12.143668056907714"><ele>293.0</ele><time>2026-04-11T12:45:59.645Z</time></trkpt><trkpt lat="43.490062022986585" lon="12.143863395049861"><ele>294.0</ele><time>2026-04-11T12:46:00.644Z</time></trkpt><trkpt lat="43.489993805760285" lon="12.144047414024355"><ele>295.0</ele><time>2026-04-11T12:46:01.643Z</time></trkpt><trkpt lat="43.48992762726568" lon="12.144233082739646"><ele>296.0</ele><time>2026-04-11T12:46:02.643Z</time></trkpt><trkpt lat="43.48986339774126" lon="12.144431687986227"><ele>296.0</ele><time>2026-04-11T12:46:03.643Z</time></trkpt><trkpt lat="43.48979728990646" lon="12.144623207276561"><ele>296.0</ele><time>2026-04-11T12:46:04.643Z</time></trkpt><trkpt lat="43.489727831910365" lon="12.144811410469524"><ele>296.0</ele><time>2026-04-11T12:46:05.644Z</time></trkpt><trkpt lat="43.48965248225697" lon="12.144987219483498"><ele>296.0</ele><time>2026-04-11T12:46:06.642Z</time></trkpt><trkpt lat="43.489566848387895" lon="12.145156362829908"><ele>296.0</ele><time>2026-04-11T12:46:07.643Z</time></trkpt><trkpt lat="43.48948303051975" lon="12.145320504471522"><ele>296.0</ele><time>2026-04-11T12:46:08.644Z</time></trkpt><trkpt lat="43.48940057324618" lon="12.145487885070583"><ele>296.0</ele><time>2026-04-11T12:46:09.644Z</time></trkpt><trkpt lat="43.48931297362044" lon="12.145664575209238"><ele>297.0</ele><time>2026-04-11T12:46:10.644Z</time></trkpt><trkpt lat="43.48922262790127" lon="12.145837441407371"><ele>298.0</ele><time>2026-04-11T12:46:11.647Z</time></trkpt><trkpt lat="43.48913043886386" lon="12.146013363404812"><ele>299.0</ele><time>2026-04-11T12:46:12.644Z</time></trkpt><trkpt lat="43.48905999354174" lon="12.146175953165862"><ele>300.0</ele><time>2026-04-11T12:46:13.644Z</time></trkpt><trkpt lat="43.48901771374309" lon="12.1463435171894"><ele>300.0</ele><time>2026-04-11T12:46:14.645Z</time></trkpt><trkpt lat="43.48901128556168" lon="12.146518349455047"><ele>300.0</ele><time>2026-04-11T12:46:15.644Z</time></trkpt><trkpt lat="43.48905112991655" lon="12.146699647548798"><ele>300.0</ele><time>2026-04-11T12:46:16.643Z</time></trkpt><trkpt lat="43.489195323581185" lon="12.147053630951616"><ele>299.6666666666667</ele><time>2026-04-11T12:46:18.643Z</time></trkpt><trkpt lat="43.48927962294297" lon="12.147232630589746"><ele>299.33333333333337</ele><time>2026-04-11T12:46:19.646Z</time></trkpt><trkpt lat="43.48936373830844" lon="12.147418721339406"><ele>299.0</ele><time>2026-04-11T12:46:20.644Z</time></trkpt><trkpt lat="43.48944694427364" lon="12.14760987951543"><ele>299.0</ele><time>2026-04-11T12:46:21.643Z</time></trkpt><trkpt lat="43.48953227478919" lon="12.147806854362319"><ele>299.0</ele><time>2026-04-11T12:46:22.644Z</time></trkpt><trkpt lat="43.48961355995424" lon="12.148005677600782"><ele>299.0</ele><time>2026-04-11T12:46:23.642Z</time></trkpt><trkpt lat="43.4896896517796" lon="12.148210211965216"><ele>304.6666666666667</ele><time>2026-04-11T12:46:24.643Z</time></trkpt><trkpt lat="43.489757014443335" lon="12.14841830843887"><ele>310.3333333333333</ele><time>2026-04-11T12:46:25.644Z</time></trkpt><trkpt lat="43.48980906157173" lon="12.148638875122764"><ele>316.0</ele><time>2026-04-11T12:46:26.646Z</time></trkpt><trkpt lat="43.48985401886473" lon="12.148856318187773"><ele>313.66666666666663</ele><time>2026-04-11T12:46:27.643Z</time></trkpt><trkpt lat="43.48989387953291" lon="12.149082035297834"><ele>311.3333333333333</ele><time>2026-04-11T12:46:28.642Z</time></trkpt><trkpt lat="43.489922878558026" lon="12.149308302041455"><ele>309.0</ele><time>2026-04-11T12:46:29.643Z</time></trkpt><trkpt lat="43.48994276441966" lon="12.149534436958302"><ele>309.0</ele><time>2026-04-11T12:46:30.642Z</time></trkpt><trkpt lat="43.4899633425513" lon="12.149767357379032"><ele>309.0</ele><time>2026-04-11T12:46:31.643Z</time></trkpt><trkpt lat="43.48998701690695" lon="12.149989213211182"><ele>309.0</ele><time>2026-04-11T12:46:32.642Z</time></trkpt><trkpt lat="43.49001393123979" lon="12.15021067911241"><ele>306.0</ele><time>2026-04-11T12:46:33.644Z</time></trkpt><trkpt lat="43.49004427386545" lon="12.15044732784871"><ele>303.0</ele><time>2026-04-11T12:46:34.643Z</time></trkpt><trkpt lat="43.4900840588934" lon="12.150671871801926"><ele>300.0</ele><time>2026-04-11T12:46:35.642Z</time></trkpt><trkpt lat="43.49012514520843" lon="12.150881370532469"><ele>298.0</ele><time>2026-04-11T12:46:36.645Z</time></trkpt><trkpt lat="43.49017133109367" lon="12.151101365831053"><ele>296.0</ele><time>2026-04-11T12:46:37.644Z</time></trkpt><trkpt lat="43.49027797221162" lon="12.151516252320496"><ele>296.0</ele><time>2026-04-11T12:46:39.643Z</time></trkpt><trkpt lat="43.49033973775495" lon="12.151711056870184"><ele>296.0</ele><time>2026-04-11T12:46:40.644Z</time></trkpt><trkpt lat="43.49040382773923" lon="12.151909526969602"><ele>296.0</ele><time>2026-04-11T12:46:41.645Z</time></trkpt><trkpt lat="43.49046825842713" lon="12.152105512395387"><ele>298.33333333333337</ele><time>2026-04-11T12:46:42.645Z</time></trkpt><trkpt lat="43.49053388448592" lon="12.152302883811783"><ele>300.6666666666667</ele><time>2026-04-11T12:46:43.645Z</time></trkpt><trkpt lat="43.490600258812925" lon="12.152506985271918"><ele>303.0</ele><time>2026-04-11T12:46:44.646Z</time></trkpt><trkpt lat="43.490663575540175" lon="12.1527091087228"><ele>303.0</ele><time>2026-04-11T12:46:45.644Z</time></trkpt><trkpt lat="43.490725533914784" lon="12.152906424012121"><ele>303.0</ele><time>2026-04-11T12:46:46.642Z</time></trkpt><trkpt lat="43.49079074873735" lon="12.153101855222216"><ele>303.0</ele><time>2026-04-11T12:46:47.643Z</time></trkpt><trkpt lat="43.49085775975136" lon="12.153294001167502"><ele>302.6666666666667</ele><time>2026-04-11T12:46:48.643Z</time></trkpt><trkpt lat="43.49091977229961" lon="12.153489327486723"><ele>302.33333333333337</ele><time>2026-04-11T12:46:49.643Z</time></trkpt><trkpt lat="43.49097677937947" lon="12.153686478604659"><ele>302.0</ele><time>2026-04-11T12:46:50.643Z</time></trkpt><trkpt lat="43.49103426708338" lon="12.153887493381525"><ele>301.75</ele><time>2026-04-11T12:46:51.643Z</time></trkpt><trkpt lat="43.49109873248248" lon="12.154081127766341"><ele>301.5</ele><time>2026-04-11T12:46:52.642Z</time></trkpt><trkpt lat="43.49115634357911" lon="12.154268749345274"><ele>301.25</ele><time>2026-04-11T12:46:53.645Z</time></trkpt><trkpt lat="43.49120679093672" lon="12.15445921196225"><ele>301.0</ele><time>2026-04-11T12:46:54.644Z</time></trkpt><trkpt lat="43.491250375768416" lon="12.154638996170457"><ele>301.75</ele><time>2026-04-11T12:46:55.644Z</time></trkpt><trkpt lat="43.49128166770902" lon="12.154817332201699"><ele>302.5</ele><time>2026-04-11T12:46:56.641Z</time></trkpt><trkpt lat="43.491308089684466" lon="12.154968370058203"><ele>303.25</ele><time>2026-04-11T12:46:57.643Z</time></trkpt><trkpt lat="43.49132891554815" lon="12.15511256577801"><ele>304.0</ele><time>2026-04-11T12:46:58.644Z</time></trkpt><trkpt lat="43.49135935453493" lon="12.155369678487109"><ele>304.0</ele><time>2026-04-11T12:47:00.643Z</time></trkpt><trkpt lat="43.49137618519796" lon="12.155483037942734"><ele>304.0</ele><time>2026-04-11T12:47:01.643Z</time></trkpt><trkpt lat="43.49142319493555" lon="12.155562170620755"><ele>304.0</ele><time>2026-04-11T12:47:02.643Z</time></trkpt><trkpt lat="43.49149172905548" lon="12.155599016740117"><ele>304.0</ele><time>2026-04-11T12:47:03.644Z</time></trkpt><trkpt lat="43.491571814625416" lon="12.155599502371404"><ele>304.0</ele><time>2026-04-11T12:47:04.644Z</time></trkpt><trkpt lat="43.49165036275658" lon="12.155565074690042"><ele>304.0</ele><time>2026-04-11T12:47:05.642Z</time></trkpt><trkpt lat="43.49171726390115" lon="12.155544460971512"><ele>304.0</ele><time>2026-04-11T12:47:06.643Z</time></trkpt><trkpt lat="43.49179293916623" lon="12.155554150130278"><ele>304.0</ele><time>2026-04-11T12:47:07.644Z</time></trkpt><trkpt lat="43.49187110352024" lon="12.155583529608505"><ele>304.0</ele><time>2026-04-11T12:47:08.644Z</time></trkpt><trkpt lat="43.491948851470646" lon="12.15561023797022"><ele>304.0</ele><time>2026-04-11T12:47:09.644Z</time></trkpt><trkpt lat="43.49202246114089" lon="12.155637298114156"><ele>304.0</ele><time>2026-04-11T12:47:10.644Z</time></trkpt><trkpt lat="43.492096893944236" lon="12.155665174186252"><ele>304.0</ele><time>2026-04-11T12:47:11.642Z</time></trkpt><trkpt lat="43.492178795278946" lon="12.155692387083471"><ele>303.4</ele><time>2026-04-11T12:47:12.641Z</time></trkpt><trkpt lat="43.492261484401276" lon="12.155725244714699"><ele>302.79999999999995</ele><time>2026-04-11T12:47:13.644Z</time></trkpt><trkpt lat="43.492345786353084" lon="12.155761774910243"><ele>302.20000000000005</ele><time>2026-04-11T12:47:14.643Z</time></trkpt><trkpt lat="43.49243566713812" lon="12.15578927599517"><ele>301.6</ele><time>2026-04-11T12:47:15.643Z</time></trkpt><trkpt lat="43.49252574667296" lon="12.155801688900947"><ele>301.0</ele><time>2026-04-11T12:47:16.644Z</time></trkpt><trkpt lat="43.49262386245366" lon="12.155786919742702"><ele>301.0</ele><time>2026-04-11T12:47:17.645Z</time></trkpt><trkpt lat="43.49271782988174" lon="12.155749086278332"><ele>301.0</ele><time>2026-04-11T12:47:18.644Z</time></trkpt><trkpt lat="43.49280848189364" lon="12.155688767199175"><ele>301.0</ele><time>2026-04-11T12:47:19.646Z</time></trkpt><trkpt lat="43.493003029428436" lon="12.155583922416342"><ele>301.0</ele><time>2026-04-11T12:47:21.643Z</time></trkpt><trkpt lat="43.493110440016835" lon="12.155572686799646"><ele>300.6</ele><time>2026-04-11T12:47:22.644Z</time></trkpt><trkpt lat="43.49321702726858" lon="12.155584505288136"><ele>300.20000000000005</ele><time>2026-04-11T12:47:23.643Z</time></trkpt><trkpt lat="43.49332352920349" lon="12.155611923676302"><ele>299.79999999999995</ele><time>2026-04-11T12:47:24.642Z</time></trkpt><trkpt lat="43.49343117187736" lon="12.155644909701076"><ele>299.4</ele><time>2026-04-11T12:47:25.643Z</time></trkpt><trkpt lat="43.4935425929916" lon="12.155680770877167"><ele>299.0</ele><time>2026-04-11T12:47:26.642Z</time></trkpt><trkpt lat="43.49366030880069" lon="12.155713239481619"><ele>300.25</ele><time>2026-04-11T12:47:27.642Z</time></trkpt><trkpt lat="43.49378255180051" lon="12.155751084921294"><ele>301.5</ele><time>2026-04-11T12:47:28.643Z</time></trkpt><trkpt lat="43.49390423201193" lon="12.15580042342493"><ele>302.75</ele><time>2026-04-11T12:47:29.642Z</time></trkpt><trkpt lat="43.49402204749229" lon="12.155854466232435"><ele>304.0</ele><time>2026-04-11T12:47:30.643Z</time></trkpt><trkpt lat="43.49413680612226" lon="12.15592384584909"><ele>304.0</ele><time>2026-04-11T12:47:31.643Z</time></trkpt><trkpt lat="43.49425468544808" lon="12.155999259890098"><ele>304.0</ele><time>2026-04-11T12:47:32.641Z</time></trkpt><trkpt lat="43.494367582652366" lon="12.156082504982068"><ele>304.0</ele><time>2026-04-11T12:47:33.642Z</time></trkpt><trkpt lat="43.494482106224226" lon="12.156173394049176"><ele>304.0</ele><time>2026-04-11T12:47:34.642Z</time></trkpt><trkpt lat="43.49459658487308" lon="12.156267009578823"><ele>303.25</ele><time>2026-04-11T12:47:35.643Z</time></trkpt><trkpt lat="43.494712943976175" lon="12.156362102811359"><ele>302.5</ele><time>2026-04-11T12:47:36.643Z</time></trkpt><trkpt lat="43.49483207985291" lon="12.156461206417175"><ele>301.75</ele><time>2026-04-11T12:47:37.643Z</time></trkpt><trkpt lat="43.494952806703814" lon="12.1565549651263"><ele>301.0</ele><time>2026-04-11T12:47:38.642Z</time></trkpt><trkpt lat="43.49507976800363" lon="12.156640252602413"><ele>301.0</ele><time>2026-04-11T12:47:39.644Z</time></trkpt><trkpt lat="43.49521816408497" lon="12.156710270954482"><ele>301.0</ele><time>2026-04-11T12:47:40.643Z</time></trkpt><trkpt lat="43.49551065191143" lon="12.156811898699939"><ele>301.0</ele><time>2026-04-11T12:47:42.644Z</time></trkpt><trkpt lat="43.49566582308333" lon="12.15685669987902"><ele>299.25</ele><time>2026-04-11T12:47:43.643Z</time></trkpt><trkpt lat="43.495804083538424" lon="12.156892366498079"><ele>297.5</ele><time>2026-04-11T12:47:44.643Z</time></trkpt><trkpt lat="43.495948715742294" lon="12.156935507778085"><ele>295.75</ele><time>2026-04-11T12:47:45.643Z</time></trkpt><trkpt lat="43.496098391676455" lon="12.157009336907361"><ele>294.0</ele><time>2026-04-11T12:47:46.645Z</time></trkpt><trkpt lat="43.49622077065741" lon="12.15713266349175"><ele>293.0</ele><time>2026-04-11T12:47:47.643Z</time></trkpt><trkpt lat="43.49633950276471" lon="12.157280008580683"><ele>292.0</ele><time>2026-04-11T12:47:48.642Z</time></trkpt><trkpt lat="43.4964428226592" lon="12.157431818493805"><ele>291.0</ele><time>2026-04-11T12:47:49.642Z</time></trkpt><trkpt lat="43.49655365993368" lon="12.15757485596498"><ele>290.3333333333333</ele><time>2026-04-11T12:47:50.643Z</time></trkpt><trkpt lat="43.496663541494975" lon="12.157707552677545"><ele>289.66666666666663</ele><time>2026-04-11T12:47:51.642Z</time></trkpt><trkpt lat="43.496777981585176" lon="12.15785191413836"><ele>289.0</ele><time>2026-04-11T12:47:52.642Z</time></trkpt><trkpt lat="43.496887687997976" lon="12.15799066795687"><ele>289.0</ele><time>2026-04-11T12:47:53.65Z</time></trkpt><trkpt lat="43.49699948569192" lon="12.158127811148992"><ele>289.0</ele><time>2026-04-11T12:47:54.644Z</time></trkpt><trkpt lat="43.497111513101764" lon="12.158261033698658"><ele>289.0</ele><time>2026-04-11T12:47:55.643Z</time></trkpt><trkpt lat="43.49722851497358" lon="12.158397808694552"><ele>288.3333333333333</ele><time>2026-04-11T12:47:56.642Z</time></trkpt><trkpt lat="43.49733803009385" lon="12.158538177602766"><ele>287.6666666666667</ele><time>2026-04-11T12:47:57.643Z</time></trkpt><trkpt lat="43.49745298686182" lon="12.158682429487826"><ele>287.0</ele><time>2026-04-11T12:47:58.644Z</time></trkpt><trkpt lat="43.497567115815585" lon="12.158829293593522"><ele>287.0</ele><time>2026-04-11T12:47:59.642Z</time></trkpt><trkpt lat="43.49767836981675" lon="12.158975394995792"><ele>287.0</ele><time>2026-04-11T12:48:00.643Z</time></trkpt><trkpt lat="43.4977916289808" lon="12.159120668437883"><ele>287.0</ele><time>2026-04-11T12:48:01.644Z</time></trkpt><trkpt lat="43.49802597524658" lon="12.159401339564772"><ele>287.0</ele><time>2026-04-11T12:48:03.643Z</time></trkpt><trkpt lat="43.49813905985986" lon="12.159541098851427"><ele>287.0</ele><time>2026-04-11T12:48:04.643Z</time></trkpt><trkpt lat="43.498248539628456" lon="12.159681838047534"><ele>287.0</ele><time>2026-04-11T12:48:05.644Z</time></trkpt><trkpt lat="43.49836665775795" lon="12.15982933232832"><ele>287.0</ele><time>2026-04-11T12:48:06.643Z</time></trkpt><trkpt lat="43.49847470781843" lon="12.159969960604132"><ele>287.0</ele><time>2026-04-11T12:48:07.645Z</time></trkpt><trkpt lat="43.498592276278984" lon="12.160113717524995"><ele>287.0</ele><time>2026-04-11T12:48:08.644Z</time></trkpt><trkpt lat="43.49870156432589" lon="12.16026284401549"><ele>287.33333333333337</ele><time>2026-04-11T12:48:09.644Z</time></trkpt><trkpt lat="43.49881652227311" lon="12.160408582979795"><ele>287.6666666666667</ele><time>2026-04-11T12:48:10.644Z</time></trkpt><trkpt lat="43.4989333706305" lon="12.160552518737811"><ele>288.0</ele><time>2026-04-11T12:48:11.653Z</time></trkpt><trkpt lat="43.499051196448754" lon="12.160692150770405"><ele>288.6666666666667</ele><time>2026-04-11T12:48:12.644Z</time></trkpt><trkpt lat="43.49916483676403" lon="12.16084101855048"><ele>289.33333333333337</ele><time>2026-04-11T12:48:13.646Z</time></trkpt><trkpt lat="43.49928573679734" lon="12.16099039491403"><ele>290.0</ele><time>2026-04-11T12:48:14.644Z</time></trkpt><trkpt lat="43.49941099346841" lon="12.161139004302138"><ele>290.0</ele><time>2026-04-11T12:48:15.644Z</time></trkpt><trkpt lat="43.49951801781528" lon="12.161285956342255"><ele>290.0</ele><time>2026-04-11T12:48:16.644Z</time></trkpt><trkpt lat="43.499635091076144" lon="12.16143787838597"><ele>290.0</ele><time>2026-04-11T12:48:17.644Z</time></trkpt><trkpt lat="43.499749395257595" lon="12.16158263792942"><ele>289.6666666666667</ele><time>2026-04-11T12:48:18.642Z</time></trkpt><trkpt lat="43.49986257540223" lon="12.161723997634313"><ele>289.3333333333333</ele><time>2026-04-11T12:48:19.643Z</time></trkpt><trkpt lat="43.49997579480712" lon="12.161863984840455"><ele>289.0</ele><time>2026-04-11T12:48:20.643Z</time></trkpt><trkpt lat="43.50008453230804" lon="12.161998832688099"><ele>289.0</ele><time>2026-04-11T12:48:21.644Z</time></trkpt><trkpt lat="43.50018737582198" lon="12.162130534254617"><ele>289.0</ele><time>2026-04-11T12:48:22.643Z</time></trkpt><trkpt lat="43.50039885320291" lon="12.162394484917696"><ele>289.0</ele><time>2026-04-11T12:48:24.643Z</time></trkpt><trkpt lat="43.50050769786776" lon="12.162529441875654"><ele>288.75</ele><time>2026-04-11T12:48:25.644Z</time></trkpt><trkpt lat="43.50061427264558" lon="12.162660729485594"><ele>288.5</ele><time>2026-04-11T12:48:26.644Z</time></trkpt><trkpt lat="43.500723562046126" lon="12.162795936524818"><ele>288.25</ele><time>2026-04-11T12:48:27.641Z</time></trkpt><trkpt lat="43.500838557274804" lon="12.162937866244453"><ele>288.0</ele><time>2026-04-11T12:48:28.642Z</time></trkpt><trkpt lat="43.50095132147534" lon="12.163084297248933"><ele>288.0</ele><time>2026-04-11T12:48:29.643Z</time></trkpt><trkpt lat="43.50106871299281" lon="12.16323150781789"><ele>288.0</ele><time>2026-04-11T12:48:30.644Z</time></trkpt><trkpt lat="43.50118640141998" lon="12.163375763577877"><ele>288.0</ele><time>2026-04-11T12:48:31.644Z</time></trkpt><trkpt lat="43.50130480336861" lon="12.163518495999318"><ele>288.0</ele><time>2026-04-11T12:48:32.644Z</time></trkpt><trkpt lat="43.501421477773306" lon="12.163665811752198"><ele>288.0</ele><time>2026-04-11T12:48:33.644Z</time></trkpt><trkpt lat="43.50153830778537" lon="12.163804553789495"><ele>288.0</ele><time>2026-04-11T12:48:34.644Z</time></trkpt><trkpt lat="43.50163704429867" lon="12.163939011838206"><ele>288.5</ele><time>2026-04-11T12:48:35.645Z</time></trkpt><trkpt lat="43.501741059673975" lon="12.164073059110308"><ele>289.0</ele><time>2026-04-11T12:48:36.642Z</time></trkpt><trkpt lat="43.50184775594527" lon="12.164206971174226"><ele>289.5</ele><time>2026-04-11T12:48:37.638Z</time></trkpt><trkpt lat="43.50195525668884" lon="12.164338983499647"><ele>290.0</ele><time>2026-04-11T12:48:38.638Z</time></trkpt><trkpt lat="43.50205987474365" lon="12.164466727462809"><ele>289.5</ele><time>2026-04-11T12:48:39.64Z</time></trkpt><trkpt lat="43.502164420359385" lon="12.164592104354027"><ele>289.0</ele><time>2026-04-11T12:48:40.639Z</time></trkpt><trkpt lat="43.50226112867226" lon="12.164697031067814"><ele>288.5</ele><time>2026-04-11T12:48:41.635Z</time></trkpt><trkpt lat="43.50235200246878" lon="12.164782328423923"><ele>288.0</ele><time>2026-04-11T12:48:42.638Z</time></trkpt><trkpt lat="43.502443849105035" lon="12.164847324679036"><ele>288.25</ele><time>2026-04-11T12:48:43.64Z</time></trkpt><trkpt lat="43.50262560168419" lon="12.164988085304168"><ele>288.5</ele><time>2026-04-11T12:48:45.638Z</time></trkpt><trkpt lat="43.50269339350402" lon="12.165091861027074"><ele>288.75</ele><time>2026-04-11T12:48:46.639Z</time></trkpt><trkpt lat="43.50272049877912" lon="12.165212426119433"><ele>289.0</ele><time>2026-04-11T12:48:47.64Z</time></trkpt><trkpt lat="43.50271237785625" lon="12.165323142877508"><ele>289.0</ele><time>2026-04-11T12:48:48.64Z</time></trkpt><trkpt lat="43.502664882252205" lon="12.165422330259286"><ele>289.0</ele><time>2026-04-11T12:48:49.637Z</time></trkpt><trkpt lat="43.50260501747653" lon="12.1655343994772"><ele>289.0</ele><time>2026-04-11T12:48:50.639Z</time></trkpt><trkpt lat="43.50255657843221" lon="12.165666855438712"><ele>289.0</ele><time>2026-04-11T12:48:51.638Z</time></trkpt><trkpt lat="43.502525622212836" lon="12.165834822655748"><ele>289.0</ele><time>2026-04-11T12:48:52.641Z</time></trkpt><trkpt lat="43.5025160466835" lon="12.166023432864156"><ele>288.75</ele><time>2026-04-11T12:48:53.639Z</time></trkpt><trkpt lat="43.50250737040678" lon="12.166217204617977"><ele>288.5</ele><time>2026-04-11T12:48:54.639Z</time></trkpt><trkpt lat="43.50249366414075" lon="12.166413842989542"><ele>288.25</ele><time>2026-04-11T12:48:55.637Z</time></trkpt><trkpt lat="43.50247429199194" lon="12.166612065935825"><ele>288.0</ele><time>2026-04-11T12:48:56.639Z</time></trkpt><trkpt lat="43.502445379006005" lon="12.166801874129767"><ele>288.0</ele><time>2026-04-11T12:48:57.638Z</time></trkpt><trkpt lat="43.502388906234586" lon="12.166983372070092"><ele>288.0</ele><time>2026-04-11T12:48:58.638Z</time></trkpt><trkpt lat="43.502310754781185" lon="12.167121313481847"><ele>288.0</ele><time>2026-04-11T12:48:59.64Z</time></trkpt><trkpt lat="43.502247898205674" lon="12.167245853884927"><ele>288.0</ele><time>2026-04-11T12:49:00.638Z</time></trkpt><trkpt lat="43.5022099467643" lon="12.167361944975163"><ele>287.75</ele><time>2026-04-11T12:49:01.638Z</time></trkpt><trkpt lat="43.50220069929036" lon="12.16748395314013"><ele>287.5</ele><time>2026-04-11T12:49:02.638Z</time></trkpt><trkpt lat="43.50222583942583" lon="12.1675879101135"><ele>287.25</ele><time>2026-04-11T12:49:03.638Z</time></trkpt><trkpt lat="43.50229309653992" lon="12.167672122466929"><ele>287.0</ele><time>2026-04-11T12:49:04.639Z</time></trkpt><trkpt lat="43.50249221784184" lon="12.167774844387464"><ele>287.0</ele><time>2026-04-11T12:49:06.64Z</time></trkpt><trkpt lat="43.502607492254214" lon="12.167827253393064"><ele>287.0</ele><time>2026-04-11T12:49:07.639Z</time></trkpt><trkpt lat="43.502725925687876" lon="12.1678881904465"><ele>287.0</ele><time>2026-04-11T12:49:08.638Z</time></trkpt><trkpt lat="43.50285116743422" lon="12.167956478317345"><ele>287.0</ele><time>2026-04-11T12:49:09.639Z</time></trkpt><trkpt lat="43.50297544003227" lon="12.168024076601657"><ele>287.5</ele><time>2026-04-11T12:49:10.639Z</time></trkpt><trkpt lat="43.50309940040658" lon="12.16809340373967"><ele>288.0</ele><time>2026-04-11T12:49:11.639Z</time></trkpt><trkpt lat="43.503224051146056" lon="12.168161179250305"><ele>288.5</ele><time>2026-04-11T12:49:12.639Z</time></trkpt><trkpt lat="43.50335092337622" lon="12.168225233166758"><ele>289.0</ele><time>2026-04-11T12:49:13.638Z</time></trkpt><trkpt lat="43.503476098287514" lon="12.16828974035719"><ele>289.0</ele><time>2026-04-11T12:49:14.638Z</time></trkpt><trkpt lat="43.50359623383223" lon="12.168359017529383"><ele>289.0</ele><time>2026-04-11T12:49:15.639Z</time></trkpt><trkpt lat="43.5037170775427" lon="12.168431731770728"><ele>289.0</ele><time>2026-04-11T12:49:16.637Z</time></trkpt><trkpt lat="43.50383933415251" lon="12.168507754866312"><ele>289.0</ele><time>2026-04-11T12:49:17.638Z</time></trkpt><trkpt lat="43.50394951886998" lon="12.168610456914278"><ele>288.75</ele><time>2026-04-11T12:49:18.638Z</time></trkpt><trkpt lat="43.50403555967165" lon="12.168753341593053"><ele>288.5</ele><time>2026-04-11T12:49:19.64Z</time></trkpt><trkpt lat="43.50410792322601" lon="12.168913036020873"><ele>288.25</ele><time>2026-04-11T12:49:20.638Z</time></trkpt><trkpt lat="43.50418248273774" lon="12.16907098469896"><ele>288.0</ele><time>2026-04-11T12:49:21.638Z</time></trkpt><trkpt lat="43.504262490550836" lon="12.169226622038579"><ele>287.75</ele><time>2026-04-11T12:49:22.639Z</time></trkpt><trkpt lat="43.50434280301646" lon="12.169381557402986"><ele>287.5</ele><time>2026-04-11T12:49:23.636Z</time></trkpt><trkpt lat="43.504423270371824" lon="12.169535469253587"><ele>287.25</ele><time>2026-04-11T12:49:24.638Z</time></trkpt><trkpt lat="43.50450577609362" lon="12.16968545668026"><ele>287.0</ele><time>2026-04-11T12:49:25.64Z</time></trkpt><trkpt lat="43.504664773416806" lon="12.169986716945989"><ele>287.0</ele><time>2026-04-11T12:49:27.64Z</time></trkpt><trkpt lat="43.50474074023514" lon="12.170135667511117"><ele>287.0</ele><time>2026-04-11T12:49:28.639Z</time></trkpt><trkpt lat="43.50481791674268" lon="12.170287524366874"><ele>287.0</ele><time>2026-04-11T12:49:29.639Z</time></trkpt><trkpt lat="43.50489842104763" lon="12.170438988223282"><ele>287.0</ele><time>2026-04-11T12:49:30.638Z</time></trkpt><trkpt lat="43.504978249470724" lon="12.170589470599372"><ele>287.0</ele><time>2026-04-11T12:49:31.639Z</time></trkpt><trkpt lat="43.5050586503586" lon="12.170741841426326"><ele>287.0</ele><time>2026-04-11T12:49:32.638Z</time></trkpt><trkpt lat="43.505143848008515" lon="12.170889114664412"><ele>287.0</ele><time>2026-04-11T12:49:33.637Z</time></trkpt><trkpt lat="43.505239936062736" lon="12.171033019797479"><ele>287.0</ele><time>2026-04-11T12:49:34.637Z</time></trkpt><trkpt lat="43.505336210623895" lon="12.171166040090855"><ele>287.25</ele><time>2026-04-11T12:49:35.638Z</time></trkpt><trkpt lat="43.505437412194965" lon="12.17129501727742"><ele>287.5</ele><time>2026-04-11T12:49:36.639Z</time></trkpt><trkpt lat="43.50553470887478" lon="12.171426853028164"><ele>287.75</ele><time>2026-04-11T12:49:37.638Z</time></trkpt><trkpt lat="43.50563325755518" lon="12.17155991491846"><ele>288.0</ele><time>2026-04-11T12:49:38.638Z</time></trkpt><trkpt lat="43.505732042793746" lon="12.171687917145634"><ele>288.0</ele><time>2026-04-11T12:49:39.636Z</time></trkpt><trkpt lat="43.5058311570592" lon="12.171813960073601"><ele>288.0</ele><time>2026-04-11T12:49:40.637Z</time></trkpt><trkpt lat="43.505932276824886" lon="12.171941037773399"><ele>288.0</ele><time>2026-04-11T12:49:41.64Z</time></trkpt><trkpt lat="43.50603183818199" lon="12.172069291890761"><ele>288.0</ele><time>2026-04-11T12:49:42.639Z</time></trkpt><trkpt lat="43.50613066147789" lon="12.172202153997072"><ele>288.0</ele><time>2026-04-11T12:49:43.639Z</time></trkpt><trkpt lat="43.506234385434404" lon="12.172337811216707"><ele>288.0</ele><time>2026-04-11T12:49:44.639Z</time></trkpt><trkpt lat="43.506341575201695" lon="12.17246941497794"><ele>288.0</ele><time>2026-04-11T12:49:45.638Z</time></trkpt><trkpt lat="43.506447708545466" lon="12.172600103183619"><ele>288.0</ele><time>2026-04-11T12:49:46.636Z</time></trkpt><trkpt lat="43.50667702763143" lon="12.172869788465228"><ele>288.0</ele><time>2026-04-11T12:49:48.639Z</time></trkpt><trkpt lat="43.506793472175175" lon="12.173007778687445"><ele>288.0</ele><time>2026-04-11T12:49:49.638Z</time></trkpt><trkpt lat="43.506918071199046" lon="12.17313798718719"><ele>288.0</ele><time>2026-04-11T12:49:50.637Z</time></trkpt><trkpt lat="43.50703648928434" lon="12.17325729910188"><ele>288.3333333333333</ele><time>2026-04-11T12:49:51.636Z</time></trkpt><trkpt lat="43.5071598796389" lon="12.173367248088216"><ele>288.66666666666663</ele><time>2026-04-11T12:49:52.639Z</time></trkpt><trkpt lat="43.5072938870504" lon="12.173479787936758"><ele>289.0</ele><time>2026-04-11T12:49:53.638Z</time></trkpt><trkpt lat="43.507419497324925" lon="12.17359265038931"><ele>289.0</ele><time>2026-04-11T12:49:54.637Z</time></trkpt><trkpt lat="43.50755658417212" lon="12.173709877661059"><ele>289.0</ele><time>2026-04-11T12:49:55.638Z</time></trkpt><trkpt lat="43.507691641021985" lon="12.173825204336802"><ele>289.0</ele><time>2026-04-11T12:49:56.638Z</time></trkpt><trkpt lat="43.50782793594166" lon="12.173941105162275"><ele>288.3333333333333</ele><time>2026-04-11T12:49:57.638Z</time></trkpt><trkpt lat="43.50796074326406" lon="12.17405631735044"><ele>287.6666666666667</ele><time>2026-04-11T12:49:58.638Z</time></trkpt><trkpt lat="43.508101293233004" lon="12.17417906415161"><ele>287.0</ele><time>2026-04-11T12:49:59.638Z</time></trkpt><trkpt lat="43.508232895255865" lon="12.174301432717645"><ele>287.0</ele><time>2026-04-11T12:50:00.638Z</time></trkpt><trkpt lat="43.508358671282764" lon="12.174417514224794"><ele>287.0</ele><time>2026-04-11T12:50:01.639Z</time></trkpt><trkpt lat="43.508488533055235" lon="12.17453446457011"><ele>287.0</ele><time>2026-04-11T12:50:02.639Z</time></trkpt><trkpt lat="43.508614687949375" lon="12.174646601500871"><ele>287.0</ele><time>2026-04-11T12:50:03.637Z</time></trkpt><trkpt lat="43.508741218860884" lon="12.174757303047098"><ele>287.0</ele><time>2026-04-11T12:50:04.639Z</time></trkpt><trkpt lat="43.50886554680685" lon="12.174864598057848"><ele>287.0</ele><time>2026-04-11T12:50:05.638Z</time></trkpt><trkpt lat="43.50898663603004" lon="12.174974026929757"><ele>287.0</ele><time>2026-04-11T12:50:06.638Z</time></trkpt><trkpt lat="43.50911485426777" lon="12.175086720153669"><ele>287.0</ele><time>2026-04-11T12:50:07.638Z</time></trkpt><trkpt lat="43.50936585296201" lon="12.175312089679894"><ele>287.0</ele><time>2026-04-11T12:50:09.639Z</time></trkpt><trkpt lat="43.50949299335527" lon="12.175424494187173"><ele>287.6666666666667</ele><time>2026-04-11T12:50:10.638Z</time></trkpt><trkpt lat="43.50961522665373" lon="12.175538593810838"><ele>288.3333333333333</ele><time>2026-04-11T12:50:11.638Z</time></trkpt><trkpt lat="43.509742897781045" lon="12.175671824804311"><ele>289.0</ele><time>2026-04-11T12:50:12.638Z</time></trkpt><trkpt lat="43.509853032453464" lon="12.175817349971409"><ele>289.0</ele><time>2026-04-11T12:50:13.639Z</time></trkpt><trkpt lat="43.50995223265989" lon="12.175980499923215"><ele>289.0</ele><time>2026-04-11T12:50:14.637Z</time></trkpt><trkpt lat="43.51005085670284" lon="12.176156531907662"><ele>289.0</ele><time>2026-04-11T12:50:15.637Z</time></trkpt><trkpt lat="43.510148151960536" lon="12.176338858789155"><ele>289.3333333333333</ele><time>2026-04-11T12:50:16.639Z</time></trkpt><trkpt lat="43.51022644966513" lon="12.176527683414413"><ele>289.6666666666667</ele><time>2026-04-11T12:50:17.638Z</time></trkpt><trkpt lat="43.510311944513845" lon="12.176722507718617"><ele>290.0</ele><time>2026-04-11T12:50:18.638Z</time></trkpt><trkpt lat="43.5103997040681" lon="12.176909548368233"><ele>289.6666666666667</ele><time>2026-04-11T12:50:19.637Z</time></trkpt><trkpt lat="43.51048631336101" lon="12.17710777093183"><ele>289.3333333333333</ele><time>2026-04-11T12:50:20.639Z</time></trkpt><trkpt lat="43.51056576321241" lon="12.177294096225555"><ele>289.0</ele><time>2026-04-11T12:50:21.639Z</time></trkpt><trkpt lat="43.510653444357196" lon="12.17747907041454"><ele>289.0</ele><time>2026-04-11T12:50:22.638Z</time></trkpt><trkpt lat="43.510735145030175" lon="12.177655671026827"><ele>289.0</ele><time>2026-04-11T12:50:23.638Z</time></trkpt><trkpt lat="43.51081710955013" lon="12.17783653152209"><ele>289.0</ele><time>2026-04-11T12:50:24.639Z</time></trkpt><trkpt lat="43.51089705483518" lon="12.178016824502409"><ele>289.66666666666663</ele><time>2026-04-11T12:50:25.637Z</time></trkpt><trkpt lat="43.510977426835495" lon="12.178189738301386"><ele>290.3333333333333</ele><time>2026-04-11T12:50:26.638Z</time></trkpt><trkpt lat="43.51105960587196" lon="12.178369431087447"><ele>291.0</ele><time>2026-04-11T12:50:27.639Z</time></trkpt><trkpt lat="43.51114060520997" lon="12.1785483031083"><ele>291.0</ele><time>2026-04-11T12:50:28.639Z</time></trkpt><trkpt lat="43.51130462647299" lon="12.178898678816816"><ele>291.0</ele><time>2026-04-11T12:50:30.639Z</time></trkpt><trkpt lat="43.511388792593365" lon="12.179082505178718"><ele>291.0</ele><time>2026-04-11T12:50:31.64Z</time></trkpt><trkpt lat="43.51147302884849" lon="12.179263889835829"><ele>291.0</ele><time>2026-04-11T12:50:32.638Z</time></trkpt><trkpt lat="43.51155759586783" lon="12.179447086196413"><ele>291.0</ele><time>2026-04-11T12:50:33.639Z</time></trkpt><trkpt lat="43.51164549437792" lon="12.179631474793702"><ele>291.0</ele><time>2026-04-11T12:50:34.638Z</time></trkpt><trkpt lat="43.51173017879773" lon="12.179808184661228"><ele>291.0</ele><time>2026-04-11T12:50:35.64Z</time></trkpt><trkpt lat="43.511812418080005" lon="12.179985028069163"><ele>291.0</ele><time>2026-04-11T12:50:36.638Z</time></trkpt><trkpt lat="43.51189448765699" lon="12.180171352941752"><ele>291.0</ele><time>2026-04-11T12:50:37.639Z</time></trkpt><trkpt lat="43.511975188624554" lon="12.180351986584764"><ele>291.0</ele><time>2026-04-11T12:50:38.638Z</time></trkpt><trkpt lat="43.51205820107555" lon="12.180524753135215"><ele>291.0</ele><time>2026-04-11T12:50:39.637Z</time></trkpt><trkpt lat="43.5121409063781" lon="12.18069944668749"><ele>291.0</ele><time>2026-04-11T12:50:40.639Z</time></trkpt><trkpt lat="43.512224699458415" lon="12.180874399092357"><ele>291.0</ele><time>2026-04-11T12:50:41.637Z</time></trkpt><trkpt lat="43.51230217204321" lon="12.181047856208213"><ele>291.0</ele><time>2026-04-11T12:50:42.639Z</time></trkpt><trkpt lat="43.512382817947675" lon="12.181220291171279"><ele>291.0</ele><time>2026-04-11T12:50:43.638Z</time></trkpt><trkpt lat="43.51246437988994" lon="12.181394447699285"><ele>291.25</ele><time>2026-04-11T12:50:44.64Z</time></trkpt><trkpt lat="43.512545409749166" lon="12.18156879900037"><ele>291.5</ele><time>2026-04-11T12:50:45.64Z</time></trkpt><trkpt lat="43.51262697784967" lon="12.181738364540537"><ele>291.75</ele><time>2026-04-11T12:50:46.639Z</time></trkpt><trkpt lat="43.51270565613823" lon="12.181910531113845"><ele>292.0</ele><time>2026-04-11T12:50:47.639Z</time></trkpt><trkpt lat="43.51278074444257" lon="12.182074901449717"><ele>292.0</ele><time>2026-04-11T12:50:48.638Z</time></trkpt><trkpt lat="43.5128590517191" lon="12.182251089588796"><ele>292.0</ele><time>2026-04-11T12:50:49.638Z</time></trkpt><trkpt lat="43.51301122208197" lon="12.182591761585659"><ele>292.0</ele><time>2026-04-11T12:50:51.639Z</time></trkpt><trkpt lat="43.51309079798091" lon="12.182760076007892"><ele>292.0</ele><time>2026-04-11T12:50:52.637Z</time></trkpt><trkpt lat="43.51316912497333" lon="12.182928116695013"><ele>292.0</ele><time>2026-04-11T12:50:53.639Z</time></trkpt><trkpt lat="43.513245857572194" lon="12.183092536874064"><ele>292.0</ele><time>2026-04-11T12:50:54.639Z</time></trkpt><trkpt lat="43.513323940388" lon="12.183266538983792"><ele>292.0</ele><time>2026-04-11T12:50:55.638Z</time></trkpt><trkpt lat="43.51339981114835" lon="12.183427221208618"><ele>292.0</ele><time>2026-04-11T12:50:56.639Z</time></trkpt><trkpt lat="43.51347871141105" lon="12.183605251658191"><ele>292.0</ele><time>2026-04-11T12:50:57.638Z</time></trkpt><trkpt lat="43.513557824785245" lon="12.183776702237603"><ele>292.0</ele><time>2026-04-11T12:50:58.638Z</time></trkpt><trkpt lat="43.513637893253545" lon="12.183944232718837"><ele>292.0</ele><time>2026-04-11T12:50:59.637Z</time></trkpt><trkpt lat="43.51371823314078" lon="12.184117484286384"><ele>293.25</ele><time>2026-04-11T12:51:00.638Z</time></trkpt><trkpt lat="43.51379681695774" lon="12.18428511217798"><ele>294.5</ele><time>2026-04-11T12:51:01.638Z</time></trkpt><trkpt lat="43.51387573443869" lon="12.18444473438296"><ele>295.75</ele><time>2026-04-11T12:51:02.636Z</time></trkpt><trkpt lat="43.51394712828106" lon="12.184616453311008"><ele>297.0</ele><time>2026-04-11T12:51:03.637Z</time></trkpt><trkpt lat="43.51400270083876" lon="12.184755842828928"><ele>297.0</ele><time>2026-04-11T12:51:04.638Z</time></trkpt><trkpt lat="43.51407089093089" lon="12.184905814425054"><ele>297.0</ele><time>2026-04-11T12:51:05.639Z</time></trkpt><trkpt lat="43.5141359243213" lon="12.185048753526496"><ele>297.0</ele><time>2026-04-11T12:51:06.637Z</time></trkpt><trkpt lat="43.51420259630031" lon="12.18519699279009"><ele>297.0</ele><time>2026-04-11T12:51:07.638Z</time></trkpt><trkpt lat="43.51427038633464" lon="12.185343353112264"><ele>297.0</ele><time>2026-04-11T12:51:08.638Z</time></trkpt><trkpt lat="43.51434036543477" lon="12.185490731703993"><ele>297.0</ele><time>2026-04-11T12:51:09.636Z</time></trkpt><trkpt lat="43.51440704864012" lon="12.185639116728357"><ele>297.0</ele><time>2026-04-11T12:51:10.637Z</time></trkpt><trkpt lat="43.514552166164435" lon="12.185938832725876"><ele>296.75</ele><time>2026-04-11T12:51:12.637Z</time></trkpt><trkpt lat="43.5146225334159" lon="12.186094178008009"><ele>296.5</ele><time>2026-04-11T12:51:13.638Z</time></trkpt><trkpt lat="43.51469277512894" lon="12.186253226981847"><ele>296.25</ele><time>2026-04-11T12:51:14.637Z</time></trkpt><trkpt lat="43.51476559978994" lon="12.186411265281023"><ele>296.0</ele><time>2026-04-11T12:51:15.638Z</time></trkpt><trkpt lat="43.51484315174176" lon="12.186569303636212"><ele>296.0</ele><time>2026-04-11T12:51:16.638Z</time></trkpt><trkpt lat="43.514918239152585" lon="12.186730704916949"><ele>296.0</ele><time>2026-04-11T12:51:17.637Z</time></trkpt><trkpt lat="43.5149964913081" lon="12.186898040820639"><ele>296.0</ele><time>2026-04-11T12:51:18.637Z</time></trkpt><trkpt lat="43.515072193979904" lon="12.187065365253419"><ele>296.0</ele><time>2026-04-11T12:51:19.636Z</time></trkpt><trkpt lat="43.51514860999438" lon="12.187234682067073"><ele>296.25</ele><time>2026-04-11T12:51:20.637Z</time></trkpt><trkpt lat="43.515223899642145" lon="12.187398737501681"><ele>296.5</ele><time>2026-04-11T12:51:21.638Z</time></trkpt><trkpt lat="43.51530384944786" lon="12.187562565365761"><ele>296.75</ele><time>2026-04-11T12:51:22.637Z</time></trkpt><trkpt lat="43.51538062314468" lon="12.187725352024941"><ele>297.0</ele><time>2026-04-11T12:51:23.637Z</time></trkpt><trkpt lat="43.51545748009883" lon="12.187886853229735"><ele>297.0</ele><time>2026-04-11T12:51:24.635Z</time></trkpt><trkpt lat="43.51553453444159" lon="12.188052660648644"><ele>297.0</ele><time>2026-04-11T12:51:25.639Z</time></trkpt><trkpt lat="43.515603275344326" lon="12.188226585965301"><ele>297.0</ele><time>2026-04-11T12:51:26.638Z</time></trkpt><trkpt lat="43.51565261252917" lon="12.188412077093528"><ele>297.0</ele><time>2026-04-11T12:51:27.638Z</time></trkpt><trkpt lat="43.515660974592755" lon="12.188594052977257"><ele>297.0</ele><time>2026-04-11T12:51:28.637Z</time></trkpt><trkpt lat="43.51563857259464" lon="12.188759093228844"><ele>297.0</ele><time>2026-04-11T12:51:29.637Z</time></trkpt><trkpt lat="43.515593281758356" lon="12.188924127414502"><ele>297.0</ele><time>2026-04-11T12:51:30.638Z</time></trkpt><trkpt lat="43.51552196837228" lon="12.189070097160263"><ele>297.0</ele><time>2026-04-11T12:51:31.638Z</time></trkpt><trkpt lat="43.515329319900104" lon="12.189292834757355"><ele>297.0</ele><time>2026-04-11T12:51:33.637Z</time></trkpt><trkpt lat="43.51521722316326" lon="12.18937494399976"><ele>297.0</ele><time>2026-04-11T12:51:34.638Z</time></trkpt><trkpt lat="43.515105661788404" lon="12.18944654564387"><ele>297.0</ele><time>2026-04-11T12:51:35.637Z</time></trkpt><trkpt lat="43.51499237226916" lon="12.189518185343223"><ele>297.0</ele><time>2026-04-11T12:51:36.638Z</time></trkpt><trkpt lat="43.51487810497204" lon="12.189587219309539"><ele>297.0</ele><time>2026-04-11T12:51:37.638Z</time></trkpt><trkpt lat="43.514772071649496" lon="12.189655510869981"><ele>297.0</ele><time>2026-04-11T12:51:38.638Z</time></trkpt><trkpt lat="43.514674857974754" lon="12.189724988348447"><ele>297.0</ele><time>2026-04-11T12:51:39.638Z</time></trkpt><trkpt lat="43.514574117691815" lon="12.189800994287749"><ele>297.0</ele><time>2026-04-11T12:51:40.639Z</time></trkpt><trkpt lat="43.51447460392809" lon="12.18987048645009"><ele>297.1666666666667</ele><time>2026-04-11T12:51:41.639Z</time></trkpt><trkpt lat="43.5143820961283" lon="12.189929348263254"><ele>297.3333333333333</ele><time>2026-04-11T12:51:42.639Z</time></trkpt><trkpt lat="43.5143050799386" lon="12.189983239161869"><ele>297.5</ele><time>2026-04-11T12:51:43.639Z</time></trkpt><trkpt lat="43.51423016261071" lon="12.190034588162877"><ele>297.66666666666663</ele><time>2026-04-11T12:51:44.64Z</time></trkpt><trkpt lat="43.51414702220565" lon="12.190091429217365"><ele>297.8333333333333</ele><time>2026-04-11T12:51:46.639Z</time></trkpt><trkpt lat="43.51417172299218" lon="12.190180598244577"><ele>298.0</ele><time>2026-04-11T12:51:48.638Z</time></trkpt><trkpt lat="43.51425030214658" lon="12.190240822349349"><ele>298.0</ele><time>2026-04-11T12:51:51.639Z</time></trkpt><trkpt lat="43.5143380916284" lon="12.190392068072338"><ele>298.0</ele><time>2026-04-11T12:51:53.638Z</time></trkpt><trkpt lat="43.514410784079296" lon="12.19063635025632"><ele>298.0</ele><time>2026-04-11T12:51:55.638Z</time></trkpt><trkpt lat="43.51445637006814" lon="12.19078354335753"><ele>298.0</ele><time>2026-04-11T12:51:56.638Z</time></trkpt><trkpt lat="43.51450879282862" lon="12.1909347259121"><ele>297.75</ele><time>2026-04-11T12:51:57.638Z</time></trkpt><trkpt lat="43.51455517358647" lon="12.191087466666502"><ele>297.5</ele><time>2026-04-11T12:51:58.636Z</time></trkpt><trkpt lat="43.514599039339956" lon="12.191246932851865"><ele>297.25</ele><time>2026-04-11T12:51:59.636Z</time></trkpt><trkpt lat="43.51464858286805" lon="12.191414793561211"><ele>297.0</ele><time>2026-04-11T12:52:00.638Z</time></trkpt><trkpt lat="43.51470397042854" lon="12.191579777805964"><ele>298.0</ele><time>2026-04-11T12:52:01.636Z</time></trkpt><trkpt lat="43.514761775607866" lon="12.191749977657073"><ele>299.0</ele><time>2026-04-11T12:52:02.637Z</time></trkpt><trkpt lat="43.51482203941169" lon="12.191921926555583"><ele>300.0</ele><time>2026-04-11T12:52:03.636Z</time></trkpt><trkpt lat="43.51487953728047" lon="12.192095868266087"><ele>301.0</ele><time>2026-04-11T12:52:04.637Z</time></trkpt><trkpt lat="43.51493445176635" lon="12.192266499955547"><ele>301.25</ele><time>2026-04-11T12:52:05.638Z</time></trkpt><trkpt lat="43.51499077622397" lon="12.192433688722346"><ele>301.5</ele><time>2026-04-11T12:52:06.637Z</time></trkpt><trkpt lat="43.51504767722121" lon="12.192593636501103"><ele>301.75</ele><time>2026-04-11T12:52:07.639Z</time></trkpt><trkpt lat="43.515101807567376" lon="12.192750760212244"><ele>302.0</ele><time>2026-04-11T12:52:08.638Z</time></trkpt><trkpt lat="43.51515012786642" lon="12.192908440794337"><ele>302.0</ele><time>2026-04-11T12:52:09.638Z</time></trkpt><trkpt lat="43.515198250402605" lon="12.19306788638527"><ele>302.0</ele><time>2026-04-11T12:52:10.637Z</time></trkpt><trkpt lat="43.515250933165376" lon="12.19322619027163"><ele>302.0</ele><time>2026-04-11T12:52:11.639Z</time></trkpt><trkpt lat="43.51530664062232" lon="12.193384464535475"><ele>302.0</ele><time>2026-04-11T12:52:12.637Z</time></trkpt><trkpt lat="43.515358897288834" lon="12.193536815824917"><ele>301.75</ele><time>2026-04-11T12:52:13.637Z</time></trkpt><trkpt lat="43.51540975348505" lon="12.193687939384708"><ele>301.5</ele><time>2026-04-11T12:52:14.638Z</time></trkpt><trkpt lat="43.515495370603844" lon="12.193936552088582"><ele>301.25</ele><time>2026-04-11T12:52:16.637Z</time></trkpt><trkpt lat="43.515523324859444" lon="12.19404572366362"><ele>301.0</ele><time>2026-04-11T12:52:17.637Z</time></trkpt><trkpt lat="43.51551944827028" lon="12.194150690945458"><ele>301.0</ele><time>2026-04-11T12:52:18.637Z</time></trkpt><trkpt lat="43.515492476895496" lon="12.19425822355628"><ele>301.0</ele><time>2026-04-11T12:52:19.637Z</time></trkpt><trkpt lat="43.51545188918481" lon="12.194363360307102"><ele>301.0</ele><time>2026-04-11T12:52:20.638Z</time></trkpt><trkpt lat="43.51541734039661" lon="12.194464885139702"><ele>301.0</ele><time>2026-04-11T12:52:21.636Z</time></trkpt><trkpt lat="43.5153857142965" lon="12.194581725434169"><ele>301.0</ele><time>2026-04-11T12:52:22.638Z</time></trkpt><trkpt lat="43.51535526062609" lon="12.1947051774521"><ele>301.0</ele><time>2026-04-11T12:52:23.637Z</time></trkpt><trkpt lat="43.51532871436862" lon="12.194811473445524"><ele>301.2</ele><time>2026-04-11T12:52:24.638Z</time></trkpt><trkpt lat="43.51527590162169" lon="12.194935646346963"><ele>301.40000000000003</ele><time>2026-04-11T12:52:26.64Z</time></trkpt><trkpt lat="43.51521262547425" lon="12.19496363365277"><ele>301.6</ele><time>2026-04-11T12:52:29.637Z</time></trkpt><trkpt lat="43.5151585558938" lon="12.195020802463903"><ele>301.8</ele><time>2026-04-11T12:52:56.636Z</time></trkpt><trkpt lat="43.515032084091175" lon="12.195207985947532"><ele>302.0</ele><time>2026-04-11T12:52:59.635Z</time></trkpt><trkpt lat="43.51496180862422" lon="12.195257203784083"><ele>302.0</ele><time>2026-04-11T12:53:00.637Z</time></trkpt><trkpt lat="43.51488377067767" lon="12.195307347387873"><ele>302.0</ele><time>2026-04-11T12:53:01.636Z</time></trkpt><trkpt lat="43.5148184659525" lon="12.195364520773222"><ele>302.0</ele><time>2026-04-11T12:53:02.637Z</time></trkpt><trkpt lat="43.51471473487596" lon="12.195434884686978"><ele>302.0</ele><time>2026-04-11T12:53:04.636Z</time></trkpt><trkpt lat="43.514655029738655" lon="12.19548241648266"><ele>302.0</ele><time>2026-04-11T12:53:06.636Z</time></trkpt><trkpt lat="43.514635638655804" lon="12.195580280880444"><ele>302.0</ele><time>2026-04-11T12:53:08.639Z</time></trkpt><trkpt lat="43.51466874863841" lon="12.195663789047048"><ele>302.1666666666667</ele><time>2026-04-11T12:53:09.637Z</time></trkpt><trkpt lat="43.51470968983921" lon="12.195745303516706"><ele>302.33333333333337</ele><time>2026-04-11T12:53:10.635Z</time></trkpt><trkpt lat="43.514741261877795" lon="12.195853185495903"><ele>302.5</ele><time>2026-04-11T12:53:11.636Z</time></trkpt><trkpt lat="43.5147833206077" lon="12.195964043958957"><ele>302.6666666666667</ele><time>2026-04-11T12:53:12.637Z</time></trkpt><trkpt lat="43.514814788304065" lon="12.1960870033913"><ele>302.8333333333333</ele><time>2026-04-11T12:53:13.635Z</time></trkpt><trkpt lat="43.514854765259535" lon="12.196211560542052"><ele>303.0</ele><time>2026-04-11T12:53:14.637Z</time></trkpt><trkpt lat="43.51490395964236" lon="12.196340079030982"><ele>303.0</ele><time>2026-04-11T12:53:15.636Z</time></trkpt><trkpt lat="43.514953000767164" lon="12.196469477304355"><ele>303.0</ele><time>2026-04-11T12:53:16.636Z</time></trkpt><trkpt lat="43.51499358944337" lon="12.196589424663209"><ele>303.0</ele><time>2026-04-11T12:53:17.637Z</time></trkpt><trkpt lat="43.51506502835586" lon="12.196791039241605"><ele>303.0</ele><time>2026-04-11T12:53:19.637Z</time></trkpt><trkpt lat="43.51510099005865" lon="12.1968828079016"><ele>303.0</ele><time>2026-04-11T12:53:20.636Z</time></trkpt><trkpt lat="43.51513549023398" lon="12.196974254424132"><ele>303.0</ele><time>2026-04-11T12:53:21.637Z</time></trkpt><trkpt lat="43.515161725577755" lon="12.19705346980195"><ele>303.0</ele><time>2026-04-11T12:53:22.637Z</time></trkpt><trkpt lat="43.515142598944365" lon="12.19719035604677"><ele>303.0</ele><time>2026-04-11T12:53:24.638Z</time></trkpt><trkpt lat="43.51508679414794" lon="12.1972376479169"><ele>303.0</ele><time>2026-04-11T12:53:25.635Z</time></trkpt><trkpt lat="43.51502065094849" lon="12.197271714905204"><ele>303.0</ele><time>2026-04-11T12:53:26.636Z</time></trkpt><trkpt lat="43.514941617453275" lon="12.197314315983373"><ele>303.0</ele><time>2026-04-11T12:53:27.636Z</time></trkpt><trkpt lat="43.51485941635787" lon="12.197364160248382"><ele>303.2</ele><time>2026-04-11T12:53:28.637Z</time></trkpt><trkpt lat="43.51477723109935" lon="12.197418146971208"><ele>303.4</ele><time>2026-04-11T12:53:29.637Z</time></trkpt><trkpt lat="43.514693318402" lon="12.19747951326753"><ele>303.59999999999997</ele><time>2026-04-11T12:53:30.636Z</time></trkpt><trkpt lat="43.51460937289446" lon="12.1975429274073"><ele>303.8</ele><time>2026-04-11T12:53:31.635Z</time></trkpt><trkpt lat="43.51452235290643" lon="12.197612541176781"><ele>304.0</ele><time>2026-04-11T12:53:32.635Z</time></trkpt><trkpt lat="43.51444263951831" lon="12.1976750861562"><ele>304.0</ele><time>2026-04-11T12:53:33.635Z</time></trkpt><trkpt lat="43.5143724110935" lon="12.197725869071924"><ele>304.0</ele><time>2026-04-11T12:53:34.635Z</time></trkpt><trkpt lat="43.514310274929585" lon="12.197769984001377"><ele>304.0</ele><time>2026-04-11T12:53:35.635Z</time></trkpt><trkpt lat="43.51424880311658" lon="12.197811191316202"><ele>304.0</ele><time>2026-04-11T12:53:36.635Z</time></trkpt><trkpt lat="43.51415204883736" lon="12.19788635169186"><ele>304.0</ele><time>2026-04-11T12:53:38.636Z</time></trkpt><trkpt lat="43.514137395245406" lon="12.198143154959274"><ele>304.4</ele><time>2026-04-11T12:53:43.637Z</time></trkpt><trkpt lat="43.514189715483305" lon="12.198228699135177"><ele>304.79999999999995</ele><time>2026-04-11T12:53:44.637Z</time></trkpt><trkpt lat="43.51423567151174" lon="12.198328597329372"><ele>305.20000000000005</ele><time>2026-04-11T12:53:45.635Z</time></trkpt><trkpt lat="43.5142739398066" lon="12.198448467967275"><ele>305.6</ele><time>2026-04-11T12:53:46.636Z</time></trkpt><trkpt lat="43.5143157713185" lon="12.198570622227068"><ele>306.0</ele><time>2026-04-11T12:53:47.636Z</time></trkpt><trkpt lat="43.51436058715253" lon="12.198684560503679"><ele>306.0</ele><time>2026-04-11T12:53:48.636Z</time></trkpt><trkpt lat="43.51439941437171" lon="12.198780391616497"><ele>306.0</ele><time>2026-04-11T12:53:49.637Z</time></trkpt><trkpt lat="43.5144314955711" lon="12.198861048238365"><ele>306.0</ele><time>2026-04-11T12:53:50.637Z</time></trkpt><trkpt lat="43.51446878944755" lon="12.19895845635659"><ele>306.0</ele><time>2026-04-11T12:53:51.636Z</time></trkpt><trkpt lat="43.51450864960773" lon="12.199071442934923"><ele>306.0</ele><time>2026-04-11T12:53:52.637Z</time></trkpt><trkpt lat="43.51455117519884" lon="12.19918351053963"><ele>306.0</ele><time>2026-04-11T12:53:53.638Z</time></trkpt><trkpt lat="43.51459193465405" lon="12.19930495152839"><ele>305.8</ele><time>2026-04-11T12:53:54.638Z</time></trkpt><trkpt lat="43.51463723721897" lon="12.199430768896004"><ele>305.6</ele><time>2026-04-11T12:53:55.636Z</time></trkpt><trkpt lat="43.51468102058629" lon="12.199557893538877"><ele>305.4</ele><time>2026-04-11T12:53:56.638Z</time></trkpt><trkpt lat="43.514716328912975" lon="12.19967588509289"><ele>305.2</ele><time>2026-04-11T12:53:57.638Z</time></trkpt><trkpt lat="43.51475139342147" lon="12.199816629541102"><ele>305.0</ele><time>2026-04-11T12:53:58.636Z</time></trkpt><trkpt lat="43.514761705265954" lon="12.199956536623569"><ele>305.5</ele><time>2026-04-11T12:53:59.637Z</time></trkpt><trkpt lat="43.51472925714717" lon="12.200218895244104"><ele>306.0</ele><time>2026-04-11T12:54:01.637Z</time></trkpt><trkpt lat="43.514755902416326" lon="12.200323360414522"><ele>306.5</ele><time>2026-04-11T12:54:02.637Z</time></trkpt><trkpt lat="43.51481012691807" lon="12.200406107000003"><ele>307.0</ele><time>2026-04-11T12:54:03.637Z</time></trkpt><trkpt lat="43.51489809702044" lon="12.20050163611635"><ele>307.0</ele><time>2026-04-11T12:54:04.638Z</time></trkpt><trkpt lat="43.51496837646306" lon="12.200621866281981"><ele>307.0</ele><time>2026-04-11T12:54:05.636Z</time></trkpt><trkpt lat="43.51501606934981" lon="12.200775736285637"><ele>307.0</ele><time>2026-04-11T12:54:06.638Z</time></trkpt><trkpt lat="43.515044547594094" lon="12.200942964202504"><ele>307.0</ele><time>2026-04-11T12:54:07.636Z</time></trkpt><trkpt lat="43.51508240854963" lon="12.20110562935814"><ele>307.25</ele><time>2026-04-11T12:54:08.637Z</time></trkpt><trkpt lat="43.5151335901714" lon="12.201264048637897"><ele>307.5</ele><time>2026-04-11T12:54:09.637Z</time></trkpt><trkpt lat="43.5151888594336" lon="12.20140756917383"><ele>307.75</ele><time>2026-04-11T12:54:10.638Z</time></trkpt><trkpt lat="43.51524781871571" lon="12.201558570537191"><ele>308.0</ele><time>2026-04-11T12:54:11.638Z</time></trkpt><trkpt lat="43.51531229412729" lon="12.201717091098434"><ele>308.0</ele><time>2026-04-11T12:54:12.635Z</time></trkpt><trkpt lat="43.51537412557755" lon="12.20189428862783"><ele>308.0</ele><time>2026-04-11T12:54:13.636Z</time></trkpt><trkpt lat="43.515424189658106" lon="12.202068731474338"><ele>308.0</ele><time>2026-04-11T12:54:14.636Z</time></trkpt><trkpt lat="43.51547596158081" lon="12.202242432207939"><ele>308.0</ele><time>2026-04-11T12:54:15.637Z</time></trkpt><trkpt lat="43.51551624130165" lon="12.202401266559951"><ele>308.0</ele><time>2026-04-11T12:54:16.637Z</time></trkpt><trkpt lat="43.5155301209187" lon="12.202546477294813"><ele>308.0</ele><time>2026-04-11T12:54:17.636Z</time></trkpt><trkpt lat="43.51551707990128" lon="12.202693368190781"><ele>308.0</ele><time>2026-04-11T12:54:18.637Z</time></trkpt><trkpt lat="43.5154733251552" lon="12.20284035569923"><ele>308.0</ele><time>2026-04-11T12:54:19.636Z</time></trkpt><trkpt lat="43.51540592825162" lon="12.202979112935697"><ele>308.6666666666667</ele><time>2026-04-11T12:54:20.635Z</time></trkpt><trkpt lat="43.515207337957925" lon="12.2031746722275"><ele>309.3333333333333</ele><time>2026-04-11T12:54:22.636Z</time></trkpt><trkpt lat="43.515093710687" lon="12.203238636725661"><ele>310.0</ele><time>2026-04-11T12:54:23.636Z</time></trkpt><trkpt lat="43.514978927288" lon="12.203292738707844"><ele>310.0</ele><time>2026-04-11T12:54:24.638Z</time></trkpt><trkpt lat="43.51487943575506" lon="12.203341308462967"><ele>310.0</ele><time>2026-04-11T12:54:25.637Z</time></trkpt><trkpt lat="43.514788066306494" lon="12.203382825306857"><ele>310.0</ele><time>2026-04-11T12:54:26.637Z</time></trkpt><trkpt lat="43.51470746363259" lon="12.203416501261227"><ele>310.0</ele><time>2026-04-11T12:54:27.637Z</time></trkpt><trkpt lat="43.51463010655753" lon="12.203453351338034"><ele>310.0</ele><time>2026-04-11T12:54:28.637Z</time></trkpt><trkpt lat="43.5145601992794" lon="12.203485205682206"><ele>310.0</ele><time>2026-04-11T12:54:29.635Z</time></trkpt><trkpt lat="43.51445206381664" lon="12.20353332473354"><ele>309.8333333333333</ele><time>2026-04-11T12:54:31.635Z</time></trkpt><trkpt lat="43.514381177221246" lon="12.203573845727226"><ele>309.66666666666663</ele><time>2026-04-11T12:54:33.637Z</time></trkpt><trkpt lat="43.51433881453153" lon="12.203644857513613"><ele>309.5</ele><time>2026-04-11T12:54:36.637Z</time></trkpt><trkpt lat="43.51438842297238" lon="12.203810319486756"><ele>309.3333333333333</ele><time>2026-04-11T12:54:38.637Z</time></trkpt><trkpt lat="43.514436630999306" lon="12.203903915931807"><ele>309.1666666666667</ele><time>2026-04-11T12:54:39.633Z</time></trkpt><trkpt lat="43.514479942944206" lon="12.204005267190734"><ele>309.0</ele><time>2026-04-11T12:54:40.637Z</time></trkpt><trkpt lat="43.51453328280293" lon="12.204107980317513"><ele>309.5</ele><time>2026-04-11T12:54:41.636Z</time></trkpt><trkpt lat="43.51462539562718" lon="12.20433838033178"><ele>310.0</ele><time>2026-04-11T12:54:43.635Z</time></trkpt><trkpt lat="43.51467685526205" lon="12.204455472886805"><ele>310.5</ele><time>2026-04-11T12:54:44.636Z</time></trkpt><trkpt lat="43.514726332783894" lon="12.204569185758993"><ele>311.0</ele><time>2026-04-11T12:54:45.637Z</time></trkpt><trkpt lat="43.514774861920465" lon="12.204698369020864"><ele>311.25</ele><time>2026-04-11T12:54:46.636Z</time></trkpt><trkpt lat="43.514832897168766" lon="12.204834567997983"><ele>311.5</ele><time>2026-04-11T12:54:47.637Z</time></trkpt><trkpt lat="43.51489192904888" lon="12.204976591705528"><ele>311.75</ele><time>2026-04-11T12:54:48.636Z</time></trkpt><trkpt lat="43.51495864404057" lon="12.205120454459953"><ele>312.0</ele><time>2026-04-11T12:54:49.636Z</time></trkpt><trkpt lat="43.51502083993673" lon="12.205267978114971"><ele>312.0</ele><time>2026-04-11T12:54:50.635Z</time></trkpt><trkpt lat="43.51507291915581" lon="12.205404708272551"><ele>312.0</ele><time>2026-04-11T12:54:51.635Z</time></trkpt><trkpt lat="43.51513444090326" lon="12.205540934843993"><ele>312.0</ele><time>2026-04-11T12:54:52.636Z</time></trkpt><trkpt lat="43.515197462611155" lon="12.20568076315044"><ele>312.0</ele><time>2026-04-11T12:54:53.637Z</time></trkpt><trkpt lat="43.51526279182026" lon="12.205832053740838"><ele>312.0</ele><time>2026-04-11T12:54:54.637Z</time></trkpt><trkpt lat="43.51532779966124" lon="12.205983993323802"><ele>312.0</ele><time>2026-04-11T12:54:55.636Z</time></trkpt><trkpt lat="43.515394278954155" lon="12.206142152775039"><ele>312.0</ele><time>2026-04-11T12:54:56.637Z</time></trkpt><trkpt lat="43.51546329716848" lon="12.206301097807033"><ele>312.0</ele><time>2026-04-11T12:54:57.636Z</time></trkpt><trkpt lat="43.51553146151201" lon="12.206463342017875"><ele>312.0</ele><time>2026-04-11T12:54:58.638Z</time></trkpt><trkpt lat="43.515600208289904" lon="12.206626205754558"><ele>312.0</ele><time>2026-04-11T12:54:59.637Z</time></trkpt><trkpt lat="43.51566742641598" lon="12.206788752953328"><ele>312.0</ele><time>2026-04-11T12:55:00.635Z</time></trkpt><trkpt lat="43.51573658814573" lon="12.206949196044206"><ele>312.0</ele><time>2026-04-11T12:55:01.636Z</time></trkpt><trkpt lat="43.51580107968801" lon="12.207107158777383"><ele>312.6666666666667</ele><time>2026-04-11T12:55:02.635Z</time></trkpt><trkpt lat="43.51592871225707" lon="12.207420053777296"><ele>313.33333333333337</ele><time>2026-04-11T12:55:04.637Z</time></trkpt><trkpt lat="43.51599725707637" lon="12.20758217764557"><ele>314.0</ele><time>2026-04-11T12:55:05.639Z</time></trkpt><trkpt lat="43.51607151402418" lon="12.207745494394704"><ele>314.0</ele><time>2026-04-11T12:55:06.638Z</time></trkpt><trkpt lat="43.51614514549538" lon="12.207910079410231"><ele>314.0</ele><time>2026-04-11T12:55:07.637Z</time></trkpt><trkpt lat="43.516220047465204" lon="12.20807949296122"><ele>314.0</ele><time>2026-04-11T12:55:08.637Z</time></trkpt><trkpt lat="43.51629090838131" lon="12.208250408501431"><ele>314.0</ele><time>2026-04-11T12:55:09.637Z</time></trkpt><trkpt lat="43.5163614290335" lon="12.208422652008705"><ele>314.25</ele><time>2026-04-11T12:55:10.637Z</time></trkpt><trkpt lat="43.5164288609977" lon="12.208587989641453"><ele>314.5</ele><time>2026-04-11T12:55:11.637Z</time></trkpt><trkpt lat="43.516496860966896" lon="12.208748142439388"><ele>314.75</ele><time>2026-04-11T12:55:12.639Z</time></trkpt><trkpt lat="43.516563400853414" lon="12.208904582507625"><ele>315.0</ele><time>2026-04-11T12:55:13.638Z</time></trkpt><trkpt lat="43.51662356307254" lon="12.209055658624358"><ele>315.75</ele><time>2026-04-11T12:55:14.636Z</time></trkpt><trkpt lat="43.51668789289713" lon="12.209209250716542"><ele>316.5</ele><time>2026-04-11T12:55:15.637Z</time></trkpt><trkpt lat="43.51675272736299" lon="12.20936027831896"><ele>317.25</ele><time>2026-04-11T12:55:16.637Z</time></trkpt><trkpt lat="43.51681755137599" lon="12.20951970831547"><ele>318.0</ele><time>2026-04-11T12:55:17.637Z</time></trkpt><trkpt lat="43.5168884308888" lon="12.209676473386521"><ele>318.25</ele><time>2026-04-11T12:55:18.636Z</time></trkpt><trkpt lat="43.51695257526479" lon="12.20983518397678"><ele>318.5</ele><time>2026-04-11T12:55:19.635Z</time></trkpt><trkpt lat="43.517026566822324" lon="12.20999341499062"><ele>318.75</ele><time>2026-04-11T12:55:20.638Z</time></trkpt><trkpt lat="43.51708937102687" lon="12.21014853229484"><ele>319.0</ele><time>2026-04-11T12:55:21.636Z</time></trkpt><trkpt lat="43.51715527781584" lon="12.210298419574793"><ele>319.3333333333333</ele><time>2026-04-11T12:55:22.636Z</time></trkpt><trkpt lat="43.51722043798275" lon="12.21044309870249"><ele>319.6666666666667</ele><time>2026-04-11T12:55:23.636Z</time></trkpt><trkpt lat="43.51735033041091" lon="12.210713458173343"><ele>320.0</ele><time>2026-04-11T12:55:25.635Z</time></trkpt><trkpt lat="43.51740941492057" lon="12.210870177594952"><ele>320.25</ele><time>2026-04-11T12:55:26.636Z</time></trkpt><trkpt lat="43.51746982822825" lon="12.211035361146775"><ele>320.5</ele><time>2026-04-11T12:55:27.635Z</time></trkpt><trkpt lat="43.51753486791607" lon="12.211199210224088"><ele>320.75</ele><time>2026-04-11T12:55:28.636Z</time></trkpt><trkpt lat="43.51760407696562" lon="12.211363631861627"><ele>321.0</ele><time>2026-04-11T12:55:29.637Z</time></trkpt><trkpt lat="43.51767017998058" lon="12.211535547644065"><ele>321.0</ele><time>2026-04-11T12:55:30.636Z</time></trkpt><trkpt lat="43.51773847082369" lon="12.211705507938214"><ele>321.0</ele><time>2026-04-11T12:55:31.634Z</time></trkpt><trkpt lat="43.51781149866697" lon="12.211874414639425"><ele>321.0</ele><time>2026-04-11T12:55:32.637Z</time></trkpt><trkpt lat="43.51788636977207" lon="12.212042336663648"><ele>321.0</ele><time>2026-04-11T12:55:33.637Z</time></trkpt><trkpt lat="43.51796248478383" lon="12.212211081259122"><ele>321.25</ele><time>2026-04-11T12:55:34.634Z</time></trkpt><trkpt lat="43.51803074247906" lon="12.212377467087355"><ele>321.5</ele><time>2026-04-11T12:55:35.637Z</time></trkpt><trkpt lat="43.51809905052557" lon="12.21254923410837"><ele>321.75</ele><time>2026-04-11T12:55:36.637Z</time></trkpt><trkpt lat="43.51816972657764" lon="12.212723874665487"><ele>322.0</ele><time>2026-04-11T12:55:37.637Z</time></trkpt><trkpt lat="43.518245326926824" lon="12.212891431094214"><ele>322.0</ele><time>2026-04-11T12:55:38.637Z</time></trkpt><trkpt lat="43.51831628457974" lon="12.213061527775853"><ele>322.0</ele><time>2026-04-11T12:55:39.643Z</time></trkpt><trkpt lat="43.51838776695515" lon="12.213226587725597"><ele>322.0</ele><time>2026-04-11T12:55:40.637Z</time></trkpt><trkpt lat="43.51845755537395" lon="12.213394695969942"><ele>322.0</ele><time>2026-04-11T12:55:41.637Z</time></trkpt><trkpt lat="43.5185225714995" lon="12.213559400887751"><ele>322.0</ele><time>2026-04-11T12:55:42.636Z</time></trkpt><trkpt lat="43.51859604272111" lon="12.213720383121414"><ele>322.0</ele><time>2026-04-11T12:55:43.635Z</time></trkpt><trkpt lat="43.51866153561184" lon="12.213883589069647"><ele>322.0</ele><time>2026-04-11T12:55:44.636Z</time></trkpt><trkpt lat="43.51879605755993" lon="12.214207630876775"><ele>322.0</ele><time>2026-04-11T12:55:46.636Z</time></trkpt><trkpt lat="43.518860144124105" lon="12.21437089291087"><ele>322.0</ele><time>2026-04-11T12:55:47.637Z</time></trkpt><trkpt lat="43.5189307047786" lon="12.214530537781126"><ele>322.0</ele><time>2026-04-11T12:55:48.637Z</time></trkpt><trkpt lat="43.51899718818604" lon="12.214689518895204"><ele>322.0</ele><time>2026-04-11T12:55:49.637Z</time></trkpt><trkpt lat="43.51906791185232" lon="12.214850964331312"><ele>322.75</ele><time>2026-04-11T12:55:50.635Z</time></trkpt><trkpt lat="43.51913225986918" lon="12.215009951080532"><ele>323.5</ele><time>2026-04-11T12:55:51.635Z</time></trkpt><trkpt lat="43.5191998436478" lon="12.21516656741171"><ele>324.25</ele><time>2026-04-11T12:55:52.637Z</time></trkpt><trkpt lat="43.519270671684815" lon="12.21531831441454"><ele>325.0</ele><time>2026-04-11T12:55:53.635Z</time></trkpt><trkpt lat="43.51933278335431" lon="12.215471984762733"><ele>325.0</ele><time>2026-04-11T12:55:54.635Z</time></trkpt><trkpt lat="43.51938989657021" lon="12.215606250670792"><ele>325.0</ele><time>2026-04-11T12:55:55.635Z</time></trkpt><trkpt lat="43.5194383166516" lon="12.215723859997155"><ele>325.0</ele><time>2026-04-11T12:55:56.634Z</time></trkpt><trkpt lat="43.519470531444156" lon="12.215811652296404"><ele>325.0</ele><time>2026-04-11T12:55:57.634Z</time></trkpt><trkpt lat="43.51951834350643" lon="12.215926490697598"><ele>325.0</ele><time>2026-04-11T12:55:59.636Z</time></trkpt><trkpt lat="43.519538547397694" lon="12.216096591998902"><ele>324.8</ele><time>2026-04-11T12:56:01.638Z</time></trkpt><trkpt lat="43.51959699437637" lon="12.216164214160576"><ele>324.6</ele><time>2026-04-11T12:56:02.636Z</time></trkpt><trkpt lat="43.519676387645355" lon="12.216236459877859"><ele>324.4</ele><time>2026-04-11T12:56:03.636Z</time></trkpt><trkpt lat="43.51975625590965" lon="12.216320899007423"><ele>324.2</ele><time>2026-04-11T12:56:04.637Z</time></trkpt><trkpt lat="43.519832780778565" lon="12.21642598918501"><ele>324.0</ele><time>2026-04-11T12:56:05.636Z</time></trkpt><trkpt lat="43.51998396533646" lon="12.21662956211034"><ele>324.5</ele><time>2026-04-11T12:56:07.636Z</time></trkpt><trkpt lat="43.520044675703716" lon="12.216709527063927"><ele>325.0</ele><time>2026-04-11T12:56:08.635Z</time></trkpt><trkpt lat="43.52009888130255" lon="12.216795860169155"><ele>325.5</ele><time>2026-04-11T12:56:09.636Z</time></trkpt><trkpt lat="43.52014363426299" lon="12.21686114559891"><ele>326.0</ele><time>2026-04-11T12:56:10.635Z</time></trkpt><trkpt lat="43.52016734648731" lon="12.216981857251508"><ele>326.5</ele><time>2026-04-11T12:56:12.637Z</time></trkpt><trkpt lat="43.52012555414502" lon="12.217059408664749"><ele>327.0</ele><time>2026-04-11T12:56:13.635Z</time></trkpt><trkpt lat="43.520059505172796" lon="12.217142993952553"><ele>327.0</ele><time>2026-04-11T12:56:14.636Z</time></trkpt><trkpt lat="43.51998950431119" lon="12.217233392016372"><ele>327.0</ele><time>2026-04-11T12:56:15.635Z</time></trkpt><trkpt lat="43.51992794513914" lon="12.217319673962846"><ele>327.0</ele><time>2026-04-11T12:56:16.636Z</time></trkpt><trkpt lat="43.519886519142275" lon="12.217391910490257"><ele>327.0</ele><time>2026-04-11T12:56:17.636Z</time></trkpt><trkpt lat="43.51982713896602" lon="12.217491256239077"><ele>327.0</ele><time>2026-04-11T12:56:19.635Z</time></trkpt><trkpt lat="43.51980689986651" lon="12.217611500502088"><ele>327.0</ele><time>2026-04-11T12:56:23.636Z</time></trkpt><trkpt lat="43.51992630439766" lon="12.217718190706385"><ele>327.5</ele><time>2026-04-11T12:56:25.636Z</time></trkpt><trkpt lat="43.52000853204961" lon="12.217796386829987"><ele>328.0</ele><time>2026-04-11T12:56:26.636Z</time></trkpt><trkpt lat="43.52017274996348" lon="12.21794651742437"><ele>328.5</ele><time>2026-04-11T12:56:28.636Z</time></trkpt><trkpt lat="43.52026519662767" lon="12.218027892402288"><ele>329.0</ele><time>2026-04-11T12:56:29.637Z</time></trkpt><trkpt lat="43.5203681332921" lon="12.218122915205054"><ele>329.75</ele><time>2026-04-11T12:56:30.637Z</time></trkpt><trkpt lat="43.5204774214087" lon="12.21822493934881"><ele>330.5</ele><time>2026-04-11T12:56:31.637Z</time></trkpt><trkpt lat="43.5205941981925" lon="12.218327341714716"><ele>331.25</ele><time>2026-04-11T12:56:32.637Z</time></trkpt><trkpt lat="43.520702407930706" lon="12.21842771224554"><ele>332.0</ele><time>2026-04-11T12:56:33.639Z</time></trkpt><trkpt lat="43.520810997690205" lon="12.218524008783083"><ele>332.0</ele><time>2026-04-11T12:56:34.635Z</time></trkpt><trkpt lat="43.52091641024904" lon="12.218625615907426"><ele>332.0</ele><time>2026-04-11T12:56:35.638Z</time></trkpt><trkpt lat="43.521020204417404" lon="12.218727448291979"><ele>332.0</ele><time>2026-04-11T12:56:36.637Z</time></trkpt><trkpt lat="43.521131192519476" lon="12.218831064059456"><ele>332.0</ele><time>2026-04-11T12:56:37.639Z</time></trkpt><trkpt lat="43.521243670954405" lon="12.218931407111402"><ele>332.5</ele><time>2026-04-11T12:56:38.636Z</time></trkpt><trkpt lat="43.52135130756274" lon="12.219051247892386"><ele>333.0</ele><time>2026-04-11T12:56:39.637Z</time></trkpt><trkpt lat="43.52146665286728" lon="12.219154931857387"><ele>333.5</ele><time>2026-04-11T12:56:40.636Z</time></trkpt><trkpt lat="43.52158129495353" lon="12.21926407298389"><ele>334.0</ele><time>2026-04-11T12:56:41.638Z</time></trkpt><trkpt lat="43.52169746581013" lon="12.219377782354536"><ele>334.0</ele><time>2026-04-11T12:56:42.637Z</time></trkpt><trkpt lat="43.521807489318604" lon="12.219486765545108"><ele>334.0</ele><time>2026-04-11T12:56:43.636Z</time></trkpt><trkpt lat="43.521916776750295" lon="12.219591963726534"><ele>334.0</ele><time>2026-04-11T12:56:44.636Z</time></trkpt><trkpt lat="43.522017698697915" lon="12.2196901973488"><ele>334.0</ele><time>2026-04-11T12:56:45.638Z</time></trkpt><trkpt lat="43.52208654718722" lon="12.21975820135402"><ele>334.0</ele><time>2026-04-11T12:56:46.636Z</time></trkpt><trkpt lat="43.522144710046106" lon="12.219838631484562"><ele>334.0</ele><time>2026-04-11T12:56:48.636Z</time></trkpt><trkpt lat="43.522273379958456" lon="12.219977049832815"><ele>334.0</ele><time>2026-04-11T12:56:53.636Z</time></trkpt><trkpt lat="43.52234517469757" lon="12.220066984739187"><ele>334.0</ele><time>2026-04-11T12:56:54.635Z</time></trkpt><trkpt lat="43.52243406931556" lon="12.220176647929723"><ele>334.0</ele><time>2026-04-11T12:56:55.636Z</time></trkpt><trkpt lat="43.522541496079825" lon="12.220313554405532"><ele>334.0</ele><time>2026-04-11T12:56:56.636Z</time></trkpt><trkpt lat="43.52266127122689" lon="12.220468026044541"><ele>334.0</ele><time>2026-04-11T12:56:57.636Z</time></trkpt><trkpt lat="43.52277095877632" lon="12.22060919492975"><ele>334.3333333333333</ele><time>2026-04-11T12:56:58.636Z</time></trkpt><trkpt lat="43.52288691584539" lon="12.220763822137268"><ele>334.6666666666667</ele><time>2026-04-11T12:56:59.638Z</time></trkpt><trkpt lat="43.523001135544426" lon="12.220930283446576"><ele>335.0</ele><time>2026-04-11T12:57:00.637Z</time></trkpt><trkpt lat="43.52310005800497" lon="12.221104531690639"><ele>335.6666666666667</ele><time>2026-04-11T12:57:01.636Z</time></trkpt><trkpt lat="43.52320206273285" lon="12.221284881673142"><ele>336.3333333333333</ele><time>2026-04-11T12:57:02.638Z</time></trkpt><trkpt lat="43.523299755994024" lon="12.221461873761472"><ele>337.0</ele><time>2026-04-11T12:57:03.637Z</time></trkpt><trkpt lat="43.523401971713405" lon="12.221641767191691"><ele>337.3333333333333</ele><time>2026-04-11T12:57:04.637Z</time></trkpt><trkpt lat="43.523494195428185" lon="12.221807952522969"><ele>337.6666666666667</ele><time>2026-04-11T12:57:05.636Z</time></trkpt><trkpt lat="43.523590064841024" lon="12.221979640144271"><ele>338.0</ele><time>2026-04-11T12:57:06.636Z</time></trkpt><trkpt lat="43.52368899816956" lon="12.222153874026063"><ele>339.0</ele><time>2026-04-11T12:57:07.638Z</time></trkpt><trkpt lat="43.52378676329802" lon="12.22232388590706"><ele>340.0</ele><time>2026-04-11T12:57:08.638Z</time></trkpt><trkpt lat="43.523882095766695" lon="12.222494579039932"><ele>341.0</ele><time>2026-04-11T12:57:09.635Z</time></trkpt><trkpt lat="43.52407847695604" lon="12.222837112031817"><ele>341.0</ele><time>2026-04-11T12:57:11.638Z</time></trkpt><trkpt lat="43.52417024242779" lon="12.223008647392515"><ele>341.0</ele><time>2026-04-11T12:57:12.637Z</time></trkpt><trkpt lat="43.52426500469615" lon="12.223181663551525"><ele>341.0</ele><time>2026-04-11T12:57:13.638Z</time></trkpt><trkpt lat="43.52436232926008" lon="12.223346107275061"><ele>341.33333333333337</ele><time>2026-04-11T12:57:14.637Z</time></trkpt><trkpt lat="43.52447112257511" lon="12.223503694477515"><ele>341.6666666666667</ele><time>2026-04-11T12:57:15.637Z</time></trkpt><trkpt lat="43.52458563152608" lon="12.223651831961558"><ele>342.0</ele><time>2026-04-11T12:57:16.637Z</time></trkpt><trkpt lat="43.52470332667164" lon="12.223793138673617"><ele>342.3333333333333</ele><time>2026-04-11T12:57:17.637Z</time></trkpt><trkpt lat="43.52481805360809" lon="12.223933707054904"><ele>342.66666666666663</ele><time>2026-04-11T12:57:18.637Z</time></trkpt><trkpt lat="43.52492799544571" lon="12.224092400673046"><ele>343.0</ele><time>2026-04-11T12:57:19.636Z</time></trkpt><trkpt lat="43.525031058393665" lon="12.224263310210391"><ele>343.66666666666663</ele><time>2026-04-11T12:57:20.637Z</time></trkpt><trkpt lat="43.525121607996915" lon="12.22444030603791"><ele>344.3333333333333</ele><time>2026-04-11T12:57:21.636Z</time></trkpt><trkpt lat="43.525211304060086" lon="12.224615350345418"><ele>345.0</ele><time>2026-04-11T12:57:22.636Z</time></trkpt><trkpt lat="43.52530449222443" lon="12.224795040968612"><ele>345.6666666666667</ele><time>2026-04-11T12:57:23.636Z</time></trkpt><trkpt lat="43.52540053602476" lon="12.224971614735928"><ele>346.33333333333337</ele><time>2026-04-11T12:57:24.636Z</time></trkpt><trkpt lat="43.52549415749097" lon="12.225143276280617"><ele>347.0</ele><time>2026-04-11T12:57:25.636Z</time></trkpt><trkpt lat="43.52559537828146" lon="12.2253216875621"><ele>347.0</ele><time>2026-04-11T12:57:26.637Z</time></trkpt><trkpt lat="43.525689312692414" lon="12.225492009666961"><ele>347.0</ele><time>2026-04-11T12:57:27.635Z</time></trkpt><trkpt lat="43.525785867633076" lon="12.225666963429658"><ele>347.0</ele><time>2026-04-11T12:57:28.637Z</time></trkpt><trkpt lat="43.52588443818626" lon="12.225840307898856"><ele>348.0</ele><time>2026-04-11T12:57:29.637Z</time></trkpt><trkpt lat="43.525962326111255" lon="12.226005940630671"><ele>349.0</ele><time>2026-04-11T12:57:30.636Z</time></trkpt><trkpt lat="43.52604580714696" lon="12.226346791228824"><ele>350.0</ele><time>2026-04-11T12:57:32.638Z</time></trkpt><trkpt lat="43.526062837182266" lon="12.226534373099758"><ele>350.75</ele><time>2026-04-11T12:57:33.636Z</time></trkpt><trkpt lat="43.526052703380984" lon="12.226727097600861"><ele>351.5</ele><time>2026-04-11T12:57:34.636Z</time></trkpt><trkpt lat="43.52602325698658" lon="12.226927534737491"><ele>352.25</ele><time>2026-04-11T12:57:35.636Z</time></trkpt><trkpt lat="43.525977631838394" lon="12.227128244047227"><ele>353.0</ele><time>2026-04-11T12:57:36.636Z</time></trkpt><trkpt lat="43.525925620421546" lon="12.227327033686725"><ele>354.0</ele><time>2026-04-11T12:57:37.636Z</time></trkpt><trkpt lat="43.52588295206873" lon="12.22752497151053"><ele>355.0</ele><time>2026-04-11T12:57:38.636Z</time></trkpt><trkpt lat="43.52584411930746" lon="12.227729414618677"><ele>356.0</ele><time>2026-04-11T12:57:39.637Z</time></trkpt><trkpt lat="43.5258054155444" lon="12.22792385829655"><ele>357.0</ele><time>2026-04-11T12:57:40.638Z</time></trkpt><trkpt lat="43.5257665123017" lon="12.228128501100164"><ele>358.5</ele><time>2026-04-11T12:57:41.636Z</time></trkpt><trkpt lat="43.525726180285034" lon="12.228320603910664"><ele>360.0</ele><time>2026-04-11T12:57:42.636Z</time></trkpt><trkpt lat="43.52568434909279" lon="12.228524207398907"><ele>361.5</ele><time>2026-04-11T12:57:43.635Z</time></trkpt><trkpt lat="43.525645088677784" lon="12.228724318424492"><ele>363.0</ele><time>2026-04-11T12:57:44.637Z</time></trkpt><trkpt lat="43.52560741643277" lon="12.22892263048597"><ele>364.25</ele><time>2026-04-11T12:57:45.636Z</time></trkpt><trkpt lat="43.525567883625314" lon="12.22911537958426"><ele>365.5</ele><time>2026-04-11T12:57:46.637Z</time></trkpt><trkpt lat="43.52553261318996" lon="12.229286695533682"><ele>366.75</ele><time>2026-04-11T12:57:47.636Z</time></trkpt><trkpt lat="43.52549890202001" lon="12.229425833382711"><ele>368.0</ele><time>2026-04-11T12:57:48.637Z</time></trkpt><trkpt lat="43.52544646476186" lon="12.229539676147501"><ele>368.6666666666667</ele><time>2026-04-11T12:57:49.637Z</time></trkpt><trkpt lat="43.52536109946285" lon="12.229634749009909"><ele>369.3333333333333</ele><time>2026-04-11T12:57:50.636Z</time></trkpt><trkpt lat="43.52525001848702" lon="12.22970205927343"><ele>370.0</ele><time>2026-04-11T12:57:51.637Z</time></trkpt><trkpt lat="43.52503094035795" lon="12.229818911803262"><ele>371.6</ele><time>2026-04-11T12:57:53.638Z</time></trkpt><trkpt lat="43.52495602755771" lon="12.229921218441817"><ele>373.2</ele><time>2026-04-11T12:57:54.637Z</time></trkpt><trkpt lat="43.524912816333476" lon="12.230055913629169"><ele>374.79999999999995</ele><time>2026-04-11T12:57:55.636Z</time></trkpt><trkpt lat="43.52489406780989" lon="12.230205672334742"><ele>376.4</ele><time>2026-04-11T12:57:56.636Z</time></trkpt><trkpt lat="43.5248767025984" lon="12.230330346083901"><ele>378.0</ele><time>2026-04-11T12:57:57.637Z</time></trkpt><trkpt lat="43.52486875321" lon="12.230431550593812"><ele>378.0</ele><time>2026-04-11T12:57:58.637Z</time></trkpt><trkpt lat="43.52487415597917" lon="12.230532896657703"><ele>378.0</ele><time>2026-04-11T12:57:59.635Z</time></trkpt><trkpt lat="43.52491157801866" lon="12.230624655486725"><ele>378.0</ele><time>2026-04-11T12:58:00.637Z</time></trkpt><trkpt lat="43.52495477655744" lon="12.230691311861987"><ele>378.0</ele><time>2026-04-11T12:58:01.638Z</time></trkpt><trkpt lat="43.52496877047721" lon="12.230790417796692"><ele>378.0</ele><time>2026-04-11T12:58:02.635Z</time></trkpt><trkpt lat="43.5249611212501" lon="12.230889165656718"><ele>378.0</ele><time>2026-04-11T12:58:03.634Z</time></trkpt><trkpt lat="43.52493637199616" lon="12.230981276282776"><ele>378.0</ele><time>2026-04-11T12:58:04.632Z</time></trkpt><trkpt lat="43.52488296642215" lon="12.231099943930982"><ele>380.0</ele><time>2026-04-11T12:58:06.633Z</time></trkpt><trkpt lat="43.524895974187515" lon="12.231217687387055"><ele>382.0</ele><time>2026-04-11T12:58:09.632Z</time></trkpt><trkpt lat="43.524901290405715" lon="12.231347005727061"><ele>384.0</ele><time>2026-04-11T12:58:11.634Z</time></trkpt><trkpt lat="43.52494896698965" lon="12.2314133285918"><ele>386.0</ele><time>2026-04-11T12:58:12.633Z</time></trkpt><trkpt lat="43.525115322270715" lon="12.231489996093574"><ele>388.0</ele><time>2026-04-11T12:58:15.635Z</time></trkpt><trkpt lat="43.525226272831965" lon="12.23144424070672"><ele>388.00000000000006</ele><time>2026-04-11T12:58:17.635Z</time></trkpt><trkpt lat="43.52531623206948" lon="12.231471488143503"><ele>388.0</ele><time>2026-04-11T12:58:19.636Z</time></trkpt><trkpt lat="43.52535123739615" lon="12.231567196563493"><ele>388.0</ele><time>2026-04-11T12:58:21.636Z</time></trkpt><trkpt lat="43.525357792995024" lon="12.231660664115743"><ele>388.0</ele><time>2026-04-11T12:58:23.636Z</time></trkpt><trkpt lat="43.525393633592785" lon="12.231782407267616"><ele>388.00000000000006</ele><time>2026-04-11T12:58:25.636Z</time></trkpt><trkpt lat="43.52545492999126" lon="12.231890549135256"><ele>388.0</ele><time>2026-04-11T12:58:27.634Z</time></trkpt><trkpt lat="43.525558579139755" lon="12.231984729997258"><ele>390.79999999999995</ele><time>2026-04-11T12:58:29.636Z</time></trkpt><trkpt lat="43.52564515473553" lon="12.232096826921307"><ele>393.6</ele><time>2026-04-11T12:58:31.637Z</time></trkpt><trkpt lat="43.525702556993735" lon="12.2321704336971"><ele>396.4</ele><time>2026-04-11T12:58:32.636Z</time></trkpt><trkpt lat="43.525763577818324" lon="12.232246307777853"><ele>399.20000000000005</ele><time>2026-04-11T12:58:33.637Z</time></trkpt><trkpt lat="43.52590186770441" lon="12.232372659816871"><ele>402.0</ele><time>2026-04-11T12:58:35.636Z</time></trkpt><trkpt lat="43.52596124970255" lon="12.232436427390345"><ele>403.6</ele><time>2026-04-11T12:58:36.636Z</time></trkpt><trkpt lat="43.526062078053045" lon="12.232553360134224"><ele>405.20000000000005</ele><time>2026-04-11T12:58:38.636Z</time></trkpt><trkpt lat="43.526122609579154" lon="12.232625137127933"><ele>406.8</ele><time>2026-04-11T12:58:39.637Z</time></trkpt><trkpt lat="43.526184986514416" lon="12.232711676116612"><ele>408.4</ele><time>2026-04-11T12:58:40.637Z</time></trkpt><trkpt lat="43.52624943263979" lon="12.232785826205712"><ele>410.0</ele><time>2026-04-11T12:58:41.635Z</time></trkpt><trkpt lat="43.526315788042325" lon="12.23285674186844"><ele>410.0</ele><time>2026-04-11T12:58:42.635Z</time></trkpt><trkpt lat="43.52639776502599" lon="12.232914177196676"><ele>410.0</ele><time>2026-04-11T12:58:43.634Z</time></trkpt><trkpt lat="43.52652123117815" lon="12.233046792665677"><ele>410.0</ele><time>2026-04-11T12:58:45.635Z</time></trkpt><trkpt lat="43.5265811983623" lon="12.233130299170197"><ele>410.0</ele><time>2026-04-11T12:58:46.635Z</time></trkpt><trkpt lat="43.526640911535324" lon="12.233219675184708"><ele>410.0</ele><time>2026-04-11T12:58:47.635Z</time></trkpt><trkpt lat="43.52667573699742" lon="12.233313858621711"><ele>413.16666666666663</ele><time>2026-04-11T12:58:48.635Z</time></trkpt><trkpt lat="43.52672640245715" lon="12.233429883643694"><ele>416.3333333333333</ele><time>2026-04-11T12:58:49.634Z</time></trkpt><trkpt lat="43.52674486943757" lon="12.233548003524122"><ele>419.5</ele><time>2026-04-11T12:58:50.634Z</time></trkpt><trkpt lat="43.52676348758986" lon="12.233661614077416"><ele>422.66666666666663</ele><time>2026-04-11T12:58:51.634Z</time></trkpt><trkpt lat="43.52678915041818" lon="12.233758811891308"><ele>425.8333333333333</ele><time>2026-04-11T12:58:52.633Z</time></trkpt><trkpt lat="43.526838897662245" lon="12.233844762094646"><ele>429.0</ele><time>2026-04-11T12:58:53.633Z</time></trkpt><trkpt lat="43.526911206381975" lon="12.233870133380403"><ele>428.0</ele><time>2026-04-11T12:58:54.632Z</time></trkpt><trkpt lat="43.527079795775336" lon="12.233860310462902"><ele>427.0</ele><time>2026-04-11T12:58:56.633Z</time></trkpt><trkpt lat="43.52715356661073" lon="12.233854548904597"><ele>426.0</ele><time>2026-04-11T12:58:57.634Z</time></trkpt><trkpt lat="43.527237492896376" lon="12.233840396102423"><ele>425.0</ele><time>2026-04-11T12:58:58.634Z</time></trkpt><trkpt lat="43.527309174098406" lon="12.23378798590068"><ele>424.0</ele><time>2026-04-11T12:58:59.634Z</time></trkpt><trkpt lat="43.527384500939576" lon="12.23372773918424"><ele>424.00000000000006</ele><time>2026-04-11T12:59:00.634Z</time></trkpt><trkpt lat="43.527448586887026" lon="12.23369080453094"><ele>424.0</ele><time>2026-04-11T12:59:01.633Z</time></trkpt><trkpt lat="43.52756234645335" lon="12.233742408355708"><ele>424.0</ele><time>2026-04-11T12:59:03.634Z</time></trkpt><trkpt lat="43.527613111841085" lon="12.233815367580856"><ele>424.0</ele><time>2026-04-11T12:59:04.635Z</time></trkpt><trkpt lat="43.52766311613696" lon="12.23389674620587"><ele>424.00000000000006</ele><time>2026-04-11T12:59:05.635Z</time></trkpt><trkpt lat="43.52771760320255" lon="12.233968504977208"><ele>424.0</ele><time>2026-04-11T12:59:06.635Z</time></trkpt><trkpt lat="43.52778762567814" lon="12.234061828478929"><ele>428.4</ele><time>2026-04-11T12:59:07.635Z</time></trkpt><trkpt lat="43.5278475597274" lon="12.23416421506913"><ele>432.79999999999995</ele><time>2026-04-11T12:59:08.636Z</time></trkpt><trkpt lat="43.527902976219224" lon="12.234280455359512"><ele>437.20000000000005</ele><time>2026-04-11T12:59:09.634Z</time></trkpt><trkpt lat="43.527965146835776" lon="12.23439941017721"><ele>441.6</ele><time>2026-04-11T12:59:10.634Z</time></trkpt><trkpt lat="43.528016401951994" lon="12.234513082540765"><ele>446.0</ele><time>2026-04-11T12:59:11.635Z</time></trkpt><trkpt lat="43.52807495063226" lon="12.234612706921464"><ele>446.0</ele><time>2026-04-11T12:59:12.633Z</time></trkpt><trkpt lat="43.52813490112675" lon="12.234713155940641"><ele>446.0</ele><time>2026-04-11T12:59:13.634Z</time></trkpt><trkpt lat="43.528186755278156" lon="12.234805963069487"><ele>446.0</ele><time>2026-04-11T12:59:14.634Z</time></trkpt><trkpt lat="43.52823912808115" lon="12.234869799673417"><ele>446.0</ele><time>2026-04-11T12:59:15.633Z</time></trkpt><trkpt lat="43.528383929706216" lon="12.23487776107918"><ele>446.0</ele><time>2026-04-11T12:59:17.633Z</time></trkpt><trkpt lat="43.52845621873057" lon="12.234805773049684"><ele>446.0</ele><time>2026-04-11T12:59:18.634Z</time></trkpt><trkpt lat="43.52851522014149" lon="12.234713893783434"><ele>446.0</ele><time>2026-04-11T12:59:19.633Z</time></trkpt><trkpt lat="43.528575573645114" lon="12.2346227132774"><ele>446.0</ele><time>2026-04-11T12:59:20.634Z</time></trkpt><trkpt lat="43.52864460156394" lon="12.234498628103651"><ele>446.0</ele><time>2026-04-11T12:59:21.633Z</time></trkpt><trkpt lat="43.52871618692939" lon="12.234429519484108"><ele>446.0</ele><time>2026-04-11T12:59:22.634Z</time></trkpt><trkpt lat="43.52879985421369" lon="12.23440925114628"><ele>447.66666666666663</ele><time>2026-04-11T12:59:23.634Z</time></trkpt><trkpt lat="43.52889989629365" lon="12.23439636470466"><ele>449.3333333333333</ele><time>2026-04-11T12:59:24.635Z</time></trkpt><trkpt lat="43.52898966287583" lon="12.234397065227848"><ele>451.0</ele><time>2026-04-11T12:59:25.635Z</time></trkpt><trkpt lat="43.529074893724065" lon="12.234421288692428"><ele>452.66666666666663</ele><time>2026-04-11T12:59:26.633Z</time></trkpt><trkpt lat="43.5291303396195" lon="12.234463530065009"><ele>454.3333333333333</ele><time>2026-04-11T12:59:27.635Z</time></trkpt><trkpt lat="43.52919311611056" lon="12.23453761546923"><ele>456.0</ele><time>2026-04-11T12:59:28.636Z</time></trkpt><trkpt lat="43.52924679611797" lon="12.234627131986425"><ele>456.0</ele><time>2026-04-11T12:59:29.636Z</time></trkpt><trkpt lat="43.52929921516821" lon="12.234716182747453"><ele>456.0</ele><time>2026-04-11T12:59:30.636Z</time></trkpt><trkpt lat="43.52934528229595" lon="12.234801777108279"><ele>456.0</ele><time>2026-04-11T12:59:31.636Z</time></trkpt><trkpt lat="43.52939814585191" lon="12.234891710637605"><ele>456.0</ele><time>2026-04-11T12:59:32.635Z</time></trkpt><trkpt lat="43.529450399821506" lon="12.234969370536229"><ele>456.0</ele><time>2026-04-11T12:59:33.635Z</time></trkpt><trkpt lat="43.52951777581817" lon="12.235103238195022"><ele>456.0</ele><time>2026-04-11T12:59:35.635Z</time></trkpt><trkpt lat="43.52954547191712" lon="12.235205166541684"><ele>457.6</ele><time>2026-04-11T12:59:36.637Z</time></trkpt><trkpt lat="43.5296227516103" lon="12.235414911059078"><ele>459.20000000000005</ele><time>2026-04-11T12:59:38.635Z</time></trkpt><trkpt lat="43.52966229686005" lon="12.23551611508989"><ele>460.79999999999995</ele><time>2026-04-11T12:59:39.634Z</time></trkpt><trkpt lat="43.52971160060204" lon="12.235627500079717"><ele>462.4</ele><time>2026-04-11T12:59:40.634Z</time></trkpt><trkpt lat="43.52976071392607" lon="12.235725194122292"><ele>464.0</ele><time>2026-04-11T12:59:41.635Z</time></trkpt><trkpt lat="43.529815516728924" lon="12.235838097601873"><ele>465.8333333333333</ele><time>2026-04-11T12:59:42.635Z</time></trkpt><trkpt lat="43.52986908510092" lon="12.235937742601244"><ele>467.66666666666663</ele><time>2026-04-11T12:59:43.634Z</time></trkpt><trkpt lat="43.529921014759" lon="12.236050480508197"><ele>469.5</ele><time>2026-04-11T12:59:44.635Z</time></trkpt><trkpt lat="43.52997037153199" lon="12.236149239131002"><ele>471.33333333333337</ele><time>2026-04-11T12:59:45.636Z</time></trkpt><trkpt lat="43.53001702643701" lon="12.236251039182216"><ele>473.1666666666667</ele><time>2026-04-11T12:59:46.635Z</time></trkpt><trkpt lat="43.53005390947567" lon="12.236347582593798"><ele>475.0</ele><time>2026-04-11T12:59:47.638Z</time></trkpt><trkpt lat="43.53009075187481" lon="12.236462063781113"><ele>477.33333333333337</ele><time>2026-04-11T12:59:48.636Z</time></trkpt><trkpt lat="43.53012039467342" lon="12.236562054097393"><ele>479.6666666666667</ele><time>2026-04-11T12:59:49.636Z</time></trkpt><trkpt lat="43.53016571705107" lon="12.236676200919879"><ele>482.0</ele><time>2026-04-11T12:59:50.635Z</time></trkpt><trkpt lat="43.53020893997826" lon="12.236777822439613"><ele>484.33333333333337</ele><time>2026-04-11T12:59:51.638Z</time></trkpt><trkpt lat="43.53024094947197" lon="12.236893550102678"><ele>486.6666666666667</ele><time>2026-04-11T12:59:52.636Z</time></trkpt><trkpt lat="43.53025902171789" lon="12.236990457277702"><ele>489.0</ele><time>2026-04-11T12:59:53.636Z</time></trkpt><trkpt lat="43.53023203918756" lon="12.2371285513978"><ele>489.0</ele><time>2026-04-11T12:59:55.636Z</time></trkpt><trkpt lat="43.5302363726412" lon="12.237216279572259"><ele>489.0</ele><time>2026-04-11T12:59:56.636Z</time></trkpt><trkpt lat="43.530258468591505" lon="12.237334142507816"><ele>489.0</ele><time>2026-04-11T12:59:57.636Z</time></trkpt><trkpt lat="43.530351631834414" lon="12.23755020232083"><ele>489.0</ele><time>2026-04-11T12:59:59.636Z</time></trkpt><trkpt lat="43.53038522962038" lon="12.237677598127188"><ele>489.0</ele><time>2026-04-11T13:00:00.636Z</time></trkpt><trkpt lat="43.53040899255109" lon="12.237800871244838"><ele>484.6</ele><time>2026-04-11T13:00:01.636Z</time></trkpt><trkpt lat="43.53041818792159" lon="12.237944960939434"><ele>480.2</ele><time>2026-04-11T13:00:02.638Z</time></trkpt><trkpt lat="43.53040893969147" lon="12.238078113210786"><ele>475.80000000000007</ele><time>2026-04-11T13:00:03.636Z</time></trkpt><trkpt lat="43.53038791732869" lon="12.238215156499018"><ele>471.40000000000003</ele><time>2026-04-11T13:00:04.635Z</time></trkpt><trkpt lat="43.53037265471785" lon="12.238358785309543"><ele>467.0</ele><time>2026-04-11T13:00:05.635Z</time></trkpt><trkpt lat="43.53035592062435" lon="12.238480737165363"><ele>473.99999999999994</ele><time>2026-04-11T13:00:06.637Z</time></trkpt><trkpt lat="43.53033017665419" lon="12.238566973016074"><ele>481.0</ele><time>2026-04-11T13:00:07.635Z</time></trkpt><trkpt lat="43.53029014738662" lon="12.23865489255935"><ele>488.0</ele><time>2026-04-11T13:00:08.635Z</time></trkpt><trkpt lat="43.53024820472731" lon="12.238734346762921"><ele>495.0</ele><time>2026-04-11T13:00:09.637Z</time></trkpt><trkpt lat="43.530175320867464" lon="12.238843288391772"><ele>501.99999999999994</ele><time>2026-04-11T13:00:11.635Z</time></trkpt><trkpt lat="43.530123821843226" lon="12.238973854853125"><ele>509.0</ele><time>2026-04-11T13:00:13.637Z</time></trkpt><trkpt lat="43.53008793840412" lon="12.239056347772236"><ele>509.0</ele><time>2026-04-11T13:00:14.635Z</time></trkpt><trkpt lat="43.530036790541004" lon="12.239142590091141"><ele>509.0</ele><time>2026-04-11T13:00:15.635Z</time></trkpt><trkpt lat="43.52998279278066" lon="12.23923081109957"><ele>509.0</ele><time>2026-04-11T13:00:16.636Z</time></trkpt><trkpt lat="43.529929788365465" lon="12.239331930346202"><ele>509.0</ele><time>2026-04-11T13:00:17.635Z</time></trkpt><trkpt lat="43.529856967211835" lon="12.239430162544185"><ele>509.0</ele><time>2026-04-11T13:00:18.635Z</time></trkpt><trkpt lat="43.52971870915193" lon="12.239612436171997"><ele>509.0</ele><time>2026-04-11T13:00:20.634Z</time></trkpt><trkpt lat="43.529660176733806" lon="12.239718697609339"><ele>509.0</ele><time>2026-04-11T13:00:21.633Z</time></trkpt><trkpt lat="43.529617981008336" lon="12.239830460833595"><ele>509.0</ele><time>2026-04-11T13:00:22.634Z</time></trkpt><trkpt lat="43.52958231985699" lon="12.239929460132132"><ele>509.0</ele><time>2026-04-11T13:00:23.633Z</time></trkpt><trkpt lat="43.529593492242704" lon="12.240125759041069"><ele>509.0</ele><time>2026-04-11T13:00:25.633Z</time></trkpt><trkpt lat="43.529603290063534" lon="12.240227512645932"><ele>508.66666666666663</ele><time>2026-04-11T13:00:26.633Z</time></trkpt><trkpt lat="43.52959982517399" lon="12.240348924049083"><ele>508.3333333333333</ele><time>2026-04-11T13:00:27.634Z</time></trkpt><trkpt lat="43.52962909383259" lon="12.240467064926891"><ele>508.0</ele><time>2026-04-11T13:00:28.633Z</time></trkpt><trkpt lat="43.529655839102894" lon="12.240570323693017"><ele>507.66666666666663</ele><time>2026-04-11T13:00:29.634Z</time></trkpt><trkpt lat="43.52967626685285" lon="12.240673185023866"><ele>507.3333333333333</ele><time>2026-04-11T13:00:30.634Z</time></trkpt><trkpt lat="43.52969421929827" lon="12.240789818025402"><ele>507.0</ele><time>2026-04-11T13:00:31.634Z</time></trkpt><trkpt lat="43.52970051623788" lon="12.240898806768083"><ele>508.42857142857144</ele><time>2026-04-11T13:00:32.635Z</time></trkpt><trkpt lat="43.52968265113526" lon="12.240992432596515"><ele>509.8571428571429</ele><time>2026-04-11T13:00:33.634Z</time></trkpt><trkpt lat="43.52966595232994" lon="12.241083528967776"><ele>511.28571428571433</ele><time>2026-04-11T13:00:34.635Z</time></trkpt><trkpt lat="43.52964520135001" lon="12.241170130859834"><ele>512.7142857142858</ele><time>2026-04-11T13:00:35.635Z</time></trkpt><trkpt lat="43.52961110665344" lon="12.241249271805414"><ele>514.1428571428572</ele><time>2026-04-11T13:00:36.636Z</time></trkpt><trkpt lat="43.529545287541566" lon="12.241319818353423"><ele>515.5714285714286</ele><time>2026-04-11T13:00:37.636Z</time></trkpt><trkpt lat="43.529478053016966" lon="12.241364554714142"><ele>517.0</ele><time>2026-04-11T13:00:38.636Z</time></trkpt><trkpt lat="43.52941680829616" lon="12.241397858693254"><ele>520.6</ele><time>2026-04-11T13:00:39.637Z</time></trkpt><trkpt lat="43.52938941961732" lon="12.241587288053092"><ele>524.2</ele><time>2026-04-11T13:01:09.637Z</time></trkpt><trkpt lat="43.52951430706008" lon="12.241698342896706"><ele>527.8</ele><time>2026-04-11T13:01:11.637Z</time></trkpt><trkpt lat="43.52949528071424" lon="12.241828713323986"><ele>531.4</ele><time>2026-04-11T13:01:13.636Z</time></trkpt><trkpt lat="43.5294606092952" lon="12.241901717390698"><ele>535.0</ele><time>2026-04-11T13:01:14.636Z</time></trkpt><trkpt lat="43.52943808174654" lon="12.241986406096032"><ele>535.0</ele><time>2026-04-11T13:01:15.637Z</time></trkpt><trkpt lat="43.52946224638337" lon="12.242115510851317"><ele>535.0</ele><time>2026-04-11T13:01:17.636Z</time></trkpt><trkpt lat="43.529589764202115" lon="12.242078901748576"><ele>535.0</ele><time>2026-04-11T13:01:19.637Z</time></trkpt><trkpt lat="43.52965378033547" lon="12.242142237701724"><ele>535.0</ele><time>2026-04-11T13:01:21.635Z</time></trkpt><trkpt lat="43.529758729528595" lon="12.242235471132497"><ele>535.0</ele><time>2026-04-11T13:01:23.636Z</time></trkpt><trkpt lat="43.52982153611864" lon="12.242275705417764"><ele>537.8333333333334</ele><time>2026-04-11T13:01:24.642Z</time></trkpt><trkpt lat="43.529876745249375" lon="12.242358055355421"><ele>540.6666666666667</ele><time>2026-04-11T13:01:25.635Z</time></trkpt><trkpt lat="43.52990365473758" lon="12.242457987553516"><ele>543.5</ele><time>2026-04-11T13:01:26.635Z</time></trkpt><trkpt lat="43.529931980478516" lon="12.242567285523958"><ele>546.3333333333334</ele><time>2026-04-11T13:01:27.635Z</time></trkpt><trkpt lat="43.52998339353828" lon="12.24265203289234"><ele>549.1666666666666</ele><time>2026-04-11T13:01:28.635Z</time></trkpt><trkpt lat="43.53005583134163" lon="12.242709881158092"><ele>552.0</ele><time>2026-04-11T13:01:30.635Z</time></trkpt><trkpt lat="43.53013091302929" lon="12.242885956539462"><ele>552.0</ele><time>2026-04-11T13:01:32.636Z</time></trkpt><trkpt lat="43.53019772371576" lon="12.242923873704461"><ele>552.0</ele><time>2026-04-11T13:01:33.634Z</time></trkpt><trkpt lat="43.53024013842098" lon="12.243018844015483"><ele>552.0</ele><time>2026-04-11T13:01:35.638Z</time></trkpt><trkpt lat="43.530251785268945" lon="12.243134613976164"><ele>552.0</ele><time>2026-04-11T13:01:37.636Z</time></trkpt><trkpt lat="43.53026979148668" lon="12.243268866505222"><ele>552.0</ele><time>2026-04-11T13:01:38.637Z</time></trkpt><trkpt lat="43.53027944807925" lon="12.243413601667873"><ele>552.0</ele><time>2026-04-11T13:01:39.637Z</time></trkpt><trkpt lat="43.53028198959581" lon="12.243548952003394"><ele>554.4</ele><time>2026-04-11T13:01:40.636Z</time></trkpt><trkpt lat="43.53029524833037" lon="12.243654514295692"><ele>556.8000000000001</ele><time>2026-04-11T13:01:41.637Z</time></trkpt><trkpt lat="43.53032339929188" lon="12.243785860310496"><ele>559.2</ele><time>2026-04-11T13:01:42.635Z</time></trkpt><trkpt lat="43.53035203878567" lon="12.243966529156232"><ele>561.6</ele><time>2026-04-11T13:01:43.637Z</time></trkpt><trkpt lat="43.530375911500414" lon="12.244124481386022"><ele>564.0</ele><time>2026-04-11T13:01:44.636Z</time></trkpt><trkpt lat="43.53039341048746" lon="12.244268571184799"><ele>564.0</ele><time>2026-04-11T13:01:45.638Z</time></trkpt><trkpt lat="43.530408619103426" lon="12.244368588259507"><ele>564.0</ele><time>2026-04-11T13:01:46.635Z</time></trkpt><trkpt lat="43.530428076513765" lon="12.244453597728985"><ele>564.0</ele><time>2026-04-11T13:01:47.638Z</time></trkpt><trkpt lat="43.530447083019226" lon="12.244555582733492"><ele>564.0</ele><time>2026-04-11T13:01:48.637Z</time></trkpt><trkpt lat="43.530448275443334" lon="12.244678150173835"><ele>564.0</ele><time>2026-04-11T13:01:49.635Z</time></trkpt><trkpt lat="43.53046774398787" lon="12.244830353581936"><ele>564.0</ele><time>2026-04-11T13:01:50.636Z</time></trkpt><trkpt lat="43.53047211013911" lon="12.244980230184938"><ele>563.8</ele><time>2026-04-11T13:01:51.638Z</time></trkpt><trkpt lat="43.530454284927764" lon="12.24523084281271"><ele>563.5999999999999</ele><time>2026-04-11T13:01:53.637Z</time></trkpt><trkpt lat="43.530433560120265" lon="12.245331184796484"><ele>563.4</ele><time>2026-04-11T13:01:54.634Z</time></trkpt><trkpt lat="43.53039522132453" lon="12.245412612230458"><ele>563.1999999999999</ele><time>2026-04-11T13:01:55.636Z</time></trkpt><trkpt lat="43.530331857232305" lon="12.245532038112682"><ele>563.0</ele><time>2026-04-11T13:01:57.637Z</time></trkpt><trkpt lat="43.530277444138136" lon="12.245625841210558"><ele>564.1999999999999</ele><time>2026-04-11T13:01:58.635Z</time></trkpt><trkpt lat="43.53025865088116" lon="12.245745527407713"><ele>565.4</ele><time>2026-04-11T13:01:59.637Z</time></trkpt><trkpt lat="43.53025884132055" lon="12.245872811662824"><ele>566.5999999999999</ele><time>2026-04-11T13:02:00.636Z</time></trkpt><trkpt lat="43.530276346644555" lon="12.245998934273675"><ele>567.8</ele><time>2026-04-11T13:02:01.635Z</time></trkpt><trkpt lat="43.530305051512336" lon="12.246103421515212"><ele>569.0</ele><time>2026-04-11T13:02:02.635Z</time></trkpt><trkpt lat="43.53036534002207" lon="12.246204581969723"><ele>572.6666666666666</ele><time>2026-04-11T13:02:03.636Z</time></trkpt><trkpt lat="43.53040936256273" lon="12.246326724899356"><ele>576.3333333333333</ele><time>2026-04-11T13:02:04.636Z</time></trkpt><trkpt lat="43.53044054201858" lon="12.246462756587752"><ele>580.0</ele><time>2026-04-11T13:02:05.635Z</time></trkpt><trkpt lat="43.53046974935577" lon="12.24655671954137"><ele>583.6666666666666</ele><time>2026-04-11T13:02:06.635Z</time></trkpt><trkpt lat="43.530523533910674" lon="12.246653380367656"><ele>587.3333333333334</ele><time>2026-04-11T13:02:07.638Z</time></trkpt><trkpt lat="43.53056142086872" lon="12.246722860934385"><ele>591.0</ele><time>2026-04-11T13:02:08.636Z</time></trkpt><trkpt lat="43.53061118586925" lon="12.24682755832971"><ele>591.2</ele><time>2026-04-11T13:02:09.637Z</time></trkpt><trkpt lat="43.53065795478059" lon="12.246904707121256"><ele>591.4000000000001</ele><time>2026-04-11T13:02:10.637Z</time></trkpt><trkpt lat="43.5307520839838" lon="12.247013569718364"><ele>591.6</ele><time>2026-04-11T13:02:12.636Z</time></trkpt><trkpt lat="43.53090377270768" lon="12.247089217977143"><ele>591.8000000000001</ele><time>2026-04-11T13:02:14.634Z</time></trkpt><trkpt lat="43.530981660665" lon="12.247146748603834"><ele>592.0</ele><time>2026-04-11T13:02:15.635Z</time></trkpt><trkpt lat="43.53105934813656" lon="12.247214117540686"><ele>592.8000000000001</ele><time>2026-04-11T13:02:16.635Z</time></trkpt><trkpt lat="43.53114629066971" lon="12.247297853838422"><ele>593.6</ele><time>2026-04-11T13:02:17.635Z</time></trkpt><trkpt lat="43.5312195199107" lon="12.247347445390963"><ele>594.4000000000001</ele><time>2026-04-11T13:02:18.636Z</time></trkpt><trkpt lat="43.531347922061286" lon="12.247407323157391"><ele>595.2</ele><time>2026-04-11T13:02:20.636Z</time></trkpt><trkpt lat="43.53142430849506" lon="12.247440701407653"><ele>596.0</ele><time>2026-04-11T13:02:21.637Z</time></trkpt><trkpt lat="43.53152056865535" lon="12.247498318222833"><ele>596.0</ele><time>2026-04-11T13:02:23.637Z</time></trkpt><trkpt lat="43.53156932141574" lon="12.247558932452682"><ele>596.0</ele><time>2026-04-11T13:02:24.637Z</time></trkpt><trkpt lat="43.53163391878713" lon="12.247639902900195"><ele>596.0</ele><time>2026-04-11T13:02:25.638Z</time></trkpt><trkpt lat="43.53170175522675" lon="12.247723050980383"><ele>596.0</ele><time>2026-04-11T13:02:26.638Z</time></trkpt><trkpt lat="43.5317728856921" lon="12.247813061814073"><ele>596.0</ele><time>2026-04-11T13:02:27.637Z</time></trkpt><trkpt lat="43.531841759744225" lon="12.24792260044269"><ele>596.0</ele><time>2026-04-11T13:02:28.635Z</time></trkpt><trkpt lat="43.53189233982208" lon="12.248006796719798"><ele>596.0</ele><time>2026-04-11T13:02:29.636Z</time></trkpt><trkpt lat="43.531949940254215" lon="12.248090927652743"><ele>596.0</ele><time>2026-04-11T13:02:30.636Z</time></trkpt><trkpt lat="43.532004871574266" lon="12.248175937182557"><ele>596.0</ele><time>2026-04-11T13:02:31.638Z</time></trkpt><trkpt lat="43.532059981183316" lon="12.24829879961491"><ele>596.0</ele><time>2026-04-11T13:02:32.635Z</time></trkpt><trkpt lat="43.5320960953595" lon="12.248399640092497"><ele>596.0</ele><time>2026-04-11T13:02:33.635Z</time></trkpt><trkpt lat="43.532180327895404" lon="12.248563752148542"><ele>596.1666666666666</ele><time>2026-04-11T13:02:35.636Z</time></trkpt><trkpt lat="43.53223719775028" lon="12.248626201832565"><ele>596.3333333333333</ele><time>2026-04-11T13:02:36.635Z</time></trkpt><trkpt lat="43.53230863022214" lon="12.248656637269407"><ele>596.5</ele><time>2026-04-11T13:02:37.636Z</time></trkpt><trkpt lat="43.532385044034285" lon="12.248674711334436"><ele>596.6666666666666</ele><time>2026-04-11T13:02:38.637Z</time></trkpt><trkpt lat="43.532457521348945" lon="12.248711550664156"><ele>596.8333333333334</ele><time>2026-04-11T13:02:39.636Z</time></trkpt><trkpt lat="43.53252092593276" lon="12.24877988651875"><ele>597.0</ele><time>2026-04-11T13:02:40.637Z</time></trkpt><trkpt lat="43.532565965600604" lon="12.24888307284911"><ele>595.6666666666666</ele><time>2026-04-11T13:02:41.635Z</time></trkpt><trkpt lat="43.53260851158063" lon="12.248967323499407"><ele>594.3333333333334</ele><time>2026-04-11T13:02:42.635Z</time></trkpt><trkpt lat="43.53267276840342" lon="12.24903407298954"><ele>593.0</ele><time>2026-04-11T13:02:43.636Z</time></trkpt><trkpt lat="43.53276742017135" lon="12.249073961653789"><ele>591.6666666666667</ele><time>2026-04-11T13:02:44.635Z</time></trkpt><trkpt lat="43.53286003595073" lon="12.249089340516601"><ele>590.3333333333334</ele><time>2026-04-11T13:02:45.636Z</time></trkpt><trkpt lat="43.5329339574381" lon="12.249133462884446"><ele>589.0</ele><time>2026-04-11T13:02:46.634Z</time></trkpt><trkpt lat="43.53300506281547" lon="12.249186282695224"><ele>589.0</ele><time>2026-04-11T13:02:47.636Z</time></trkpt><trkpt lat="43.533093732869084" lon="12.249261251916538"><ele>589.0</ele><time>2026-04-11T13:02:48.637Z</time></trkpt><trkpt lat="43.53315472167668" lon="12.249333041409216"><ele>589.0</ele><time>2026-04-11T13:02:49.634Z</time></trkpt><trkpt lat="43.53321084750478" lon="12.249407114706996"><ele>589.0</ele><time>2026-04-11T13:02:50.635Z</time></trkpt><trkpt lat="43.533259027323396" lon="12.249468945383084"><ele>589.0</ele><time>2026-04-11T13:02:51.636Z</time></trkpt><trkpt lat="43.53331707184446" lon="12.249518334199578"><ele>589.0</ele><time>2026-04-11T13:02:52.635Z</time></trkpt><trkpt lat="43.533400947509215" lon="12.249552908274707"><ele>589.0</ele><time>2026-04-11T13:02:53.636Z</time></trkpt><trkpt lat="43.53349331113463" lon="12.249579210970365"><ele>589.0</ele><time>2026-04-11T13:02:54.634Z</time></trkpt><trkpt lat="43.533703927166286" lon="12.249615133698278"><ele>589.0</ele><time>2026-04-11T13:02:56.632Z</time></trkpt><trkpt lat="43.53380615598691" lon="12.249653687443525"><ele>589.0</ele><time>2026-04-11T13:02:57.637Z</time></trkpt><trkpt lat="43.5338935571124" lon="12.249702976748301"><ele>586.8</ele><time>2026-04-11T13:02:58.636Z</time></trkpt><trkpt lat="43.533965740296814" lon="12.249762196735425"><ele>584.5999999999999</ele><time>2026-04-11T13:02:59.633Z</time></trkpt><trkpt lat="43.53403832289238" lon="12.249821067345229"><ele>582.4</ele><time>2026-04-11T13:03:00.635Z</time></trkpt><trkpt lat="43.53410578277312" lon="12.249907691194474"><ele>580.1999999999999</ele><time>2026-04-11T13:03:01.636Z</time></trkpt><trkpt lat="43.53416419333586" lon="12.250021630102877"><ele>578.0</ele><time>2026-04-11T13:03:02.634Z</time></trkpt><trkpt lat="43.53421533555463" lon="12.250143446735164"><ele>578.0</ele><time>2026-04-11T13:03:03.636Z</time></trkpt><trkpt lat="43.53427649382277" lon="12.250221907414295"><ele>578.0</ele><time>2026-04-11T13:03:04.635Z</time></trkpt><trkpt lat="43.534400606381354" lon="12.250260775271647"><ele>578.0</ele><time>2026-04-11T13:03:06.633Z</time></trkpt><trkpt lat="43.53448919562538" lon="12.25026509330607"><ele>578.0</ele><time>2026-04-11T13:03:07.634Z</time></trkpt><trkpt lat="43.53457105097004" lon="12.250270913829127"><ele>578.0</ele><time>2026-04-11T13:03:08.637Z</time></trkpt><trkpt lat="43.53463190610464" lon="12.25030160248188"><ele>578.0</ele><time>2026-04-11T13:03:09.636Z</time></trkpt><trkpt lat="43.534692997441894" lon="12.250355857432748"><ele>576.1666666666666</ele><time>2026-04-11T13:03:10.635Z</time></trkpt><trkpt lat="43.534728493934345" lon="12.250457294441379"><ele>574.3333333333333</ele><time>2026-04-11T13:03:11.636Z</time></trkpt><trkpt lat="43.53475859539336" lon="12.250569594329875"><ele>572.5</ele><time>2026-04-11T13:03:12.637Z</time></trkpt><trkpt lat="43.53479706346685" lon="12.250701845000764"><ele>570.6666666666666</ele><time>2026-04-11T13:03:13.637Z</time></trkpt><trkpt lat="43.5348040041459" lon="12.25080735126994"><ele>568.8333333333334</ele><time>2026-04-11T13:03:14.635Z</time></trkpt><trkpt lat="43.53475710646501" lon="12.250902425750812"><ele>567.0</ele><time>2026-04-11T13:03:15.637Z</time></trkpt><trkpt lat="43.534687655073654" lon="12.251100709341696"><ele>571.6</ele><time>2026-04-11T13:03:17.636Z</time></trkpt><trkpt lat="43.53470362269994" lon="12.25122015734917"><ele>576.2</ele><time>2026-04-11T13:03:18.635Z</time></trkpt><trkpt lat="43.534725486932224" lon="12.251344761174405"><ele>580.8</ele><time>2026-04-11T13:03:19.638Z</time></trkpt><trkpt lat="43.53476444489179" lon="12.251466089791027"><ele>585.4</ele><time>2026-04-11T13:03:21.636Z</time></trkpt><trkpt lat="43.53482636639202" lon="12.25152306406741"><ele>590.0</ele><time>2026-04-11T13:03:23.634Z</time></trkpt><trkpt lat="43.53490753467764" lon="12.251600499738602"><ele>591.1666666666666</ele><time>2026-04-11T13:03:25.636Z</time></trkpt><trkpt lat="43.53495666742167" lon="12.251686593691646"><ele>592.3333333333333</ele><time>2026-04-11T13:03:26.636Z</time></trkpt><trkpt lat="43.53499172784644" lon="12.251788017477322"><ele>593.5</ele><time>2026-04-11T13:03:27.635Z</time></trkpt><trkpt lat="43.53500995577495" lon="12.251908451031229"><ele>594.6666666666666</ele><time>2026-04-11T13:03:28.633Z</time></trkpt><trkpt lat="43.53502035334933" lon="12.252018204290996"><ele>595.8333333333334</ele><time>2026-04-11T13:03:29.635Z</time></trkpt><trkpt lat="43.53499798025415" lon="12.252147335379508"><ele>597.0</ele><time>2026-04-11T13:03:30.635Z</time></trkpt><trkpt lat="43.53495821050379" lon="12.252269781852974"><ele>598.2</ele><time>2026-04-11T13:03:31.633Z</time></trkpt><trkpt lat="43.53488970761022" lon="12.252377483270239"><ele>599.4000000000001</ele><time>2026-04-11T13:03:32.633Z</time></trkpt><trkpt lat="43.53482182158561" lon="12.252466319872374"><ele>600.5999999999999</ele><time>2026-04-11T13:03:33.635Z</time></trkpt><trkpt lat="43.53476520872981" lon="12.25255869285159"><ele>601.8</ele><time>2026-04-11T13:03:34.632Z</time></trkpt><trkpt lat="43.53472707700093" lon="12.252662654754682"><ele>603.0</ele><time>2026-04-11T13:03:35.632Z</time></trkpt><trkpt lat="43.53467704953926" lon="12.252755926208879"><ele>603.0</ele><time>2026-04-11T13:03:36.634Z</time></trkpt><trkpt lat="43.53461189684124" lon="12.252964919491061"><ele>603.0</ele><time>2026-04-11T13:03:38.635Z</time></trkpt><trkpt lat="43.53457605884527" lon="12.253058775593438"><ele>603.0</ele><time>2026-04-11T13:03:39.635Z</time></trkpt><trkpt lat="43.53455487250952" lon="12.2531441775311"><ele>603.0</ele><time>2026-04-11T13:03:40.633Z</time></trkpt><trkpt lat="43.5345636390818" lon="12.2532415750156"><ele>603.0</ele><time>2026-04-11T13:03:41.635Z</time></trkpt><trkpt lat="43.53461707946024" lon="12.253394387666344"><ele>605.0</ele><time>2026-04-11T13:03:43.636Z</time></trkpt><trkpt lat="43.53462044708871" lon="12.253510770606708"><ele>607.0</ele><time>2026-04-11T13:03:44.637Z</time></trkpt><trkpt lat="43.5346166102819" lon="12.253648597606306"><ele>609.0</ele><time>2026-04-11T13:03:45.635Z</time></trkpt><trkpt lat="43.53461895202171" lon="12.253807134319466"><ele>611.0</ele><time>2026-04-11T13:03:46.636Z</time></trkpt><trkpt lat="43.534619154957554" lon="12.253945581134614"><ele>613.0</ele><time>2026-04-11T13:03:47.635Z</time></trkpt><trkpt lat="43.53461405380541" lon="12.254066223623756"><ele>613.5</ele><time>2026-04-11T13:03:48.636Z</time></trkpt><trkpt lat="43.53460598240343" lon="12.254161371164185"><ele>614.0</ele><time>2026-04-11T13:03:49.636Z</time></trkpt><trkpt lat="43.5346054064354" lon="12.254272609871167"><ele>614.5</ele><time>2026-04-11T13:03:50.638Z</time></trkpt><trkpt lat="43.53461019440139" lon="12.254373655259277"><ele>615.0</ele><time>2026-04-11T13:03:51.636Z</time></trkpt><trkpt lat="43.534614009704434" lon="12.25449359421114"><ele>615.5</ele><time>2026-04-11T13:03:52.636Z</time></trkpt><trkpt lat="43.534624710516475" lon="12.2546443359335"><ele>616.0</ele><time>2026-04-11T13:03:53.635Z</time></trkpt><trkpt lat="43.53465863587299" lon="12.254739226145112"><ele>615.0</ele><time>2026-04-11T13:03:54.635Z</time></trkpt><trkpt lat="43.53471209538133" lon="12.254835597857811"><ele>614.0</ele><time>2026-04-11T13:03:55.636Z</time></trkpt><trkpt lat="43.53477028252134" lon="12.254931455388972"><ele>613.0</ele><time>2026-04-11T13:03:56.635Z</time></trkpt><trkpt lat="43.534822519472414" lon="12.255026436864071"><ele>612.0</ele><time>2026-04-11T13:03:57.637Z</time></trkpt><trkpt lat="43.53494583374929" lon="12.255215255130718"><ele>611.0</ele><time>2026-04-11T13:03:59.636Z</time></trkpt><trkpt lat="43.535014387591715" lon="12.255309065865879"><ele>611.0</ele><time>2026-04-11T13:04:00.635Z</time></trkpt><trkpt lat="43.535071651304264" lon="12.25539979886416"><ele>611.0</ele><time>2026-04-11T13:04:01.635Z</time></trkpt><trkpt lat="43.53513213826426" lon="12.255489297111412"><ele>611.0</ele><time>2026-04-11T13:04:02.635Z</time></trkpt><trkpt lat="43.53516870427717" lon="12.255586723607202"><ele>611.0</ele><time>2026-04-11T13:04:03.637Z</time></trkpt><trkpt lat="43.53518806763678" lon="12.255700927904217"><ele>611.0</ele><time>2026-04-11T13:04:04.636Z</time></trkpt><trkpt lat="43.53521388095469" lon="12.255820786514851"><ele>611.0</ele><time>2026-04-11T13:04:05.634Z</time></trkpt><trkpt lat="43.53525772717748" lon="12.255945916779373"><ele>612.2</ele><time>2026-04-11T13:04:06.635Z</time></trkpt><trkpt lat="43.535302521772785" lon="12.256067831673702"><ele>613.4000000000001</ele><time>2026-04-11T13:04:07.636Z</time></trkpt><trkpt lat="43.535348121075806" lon="12.256181857000005"><ele>614.6</ele><time>2026-04-11T13:04:08.634Z</time></trkpt><trkpt lat="43.5354007705814" lon="12.256272379698045"><ele>615.8000000000001</ele><time>2026-04-11T13:04:09.635Z</time></trkpt><trkpt lat="43.53544806254042" lon="12.256380907287708"><ele>617.0</ele><time>2026-04-11T13:04:10.635Z</time></trkpt><trkpt lat="43.53549265746412" lon="12.256500286244524"><ele>617.0</ele><time>2026-04-11T13:04:11.638Z</time></trkpt><trkpt lat="43.535536781030956" lon="12.256601698743362"><ele>617.0</ele><time>2026-04-11T13:04:12.636Z</time></trkpt><trkpt lat="43.53557154520831" lon="12.256707501299031"><ele>617.0</ele><time>2026-04-11T13:04:13.637Z</time></trkpt><trkpt lat="43.53558586778593" lon="12.256811151671267"><ele>617.0</ele><time>2026-04-11T13:04:14.637Z</time></trkpt><trkpt lat="43.53559605060826" lon="12.256901306352948"><ele>617.0</ele><time>2026-04-11T13:04:15.637Z</time></trkpt><trkpt lat="43.535664434482044" lon="12.257051638179293"><ele>617.0</ele><time>2026-04-11T13:04:17.636Z</time></trkpt><trkpt lat="43.53574353880037" lon="12.257099209173873"><ele>617.0</ele><time>2026-04-11T13:04:21.637Z</time></trkpt><trkpt lat="43.535859543169984" lon="12.257276858565845"><ele>617.0</ele><time>2026-04-11T13:04:23.637Z</time></trkpt><trkpt lat="43.535953905933965" lon="12.257351002215167"><ele>617.0</ele><time>2026-04-11T13:04:24.635Z</time></trkpt><trkpt lat="43.53604942689117" lon="12.257421450080765"><ele>617.0</ele><time>2026-04-11T13:04:25.634Z</time></trkpt><trkpt lat="43.536145567368024" lon="12.257491544787298"><ele>615.3333333333333</ele><time>2026-04-11T13:04:26.634Z</time></trkpt><trkpt lat="43.536233173038056" lon="12.25757248832066"><ele>613.6666666666666</ele><time>2026-04-11T13:04:27.635Z</time></trkpt><trkpt lat="43.53630893200435" lon="12.257663492339923"><ele>612.0</ele><time>2026-04-11T13:04:28.636Z</time></trkpt><trkpt lat="43.53636293010597" lon="12.257761982147954"><ele>610.3333333333334</ele><time>2026-04-11T13:04:29.635Z</time></trkpt><trkpt lat="43.536391539781704" lon="12.257863197289332"><ele>608.6666666666667</ele><time>2026-04-11T13:04:30.635Z</time></trkpt><trkpt lat="43.53639764245186" lon="12.257962778818856"><ele>607.0</ele><time>2026-04-11T13:04:31.636Z</time></trkpt><trkpt lat="43.53641239405024" lon="12.258094333154032"><ele>607.25</ele><time>2026-04-11T13:04:33.636Z</time></trkpt><trkpt lat="43.53650033193426" lon="12.258265372069916"><ele>607.5</ele><time>2026-04-11T13:04:35.636Z</time></trkpt><trkpt lat="43.53653433767195" lon="12.258387163184194"><ele>607.75</ele><time>2026-04-11T13:04:36.636Z</time></trkpt><trkpt lat="43.53658805682341" lon="12.25851043194075"><ele>608.0</ele><time>2026-04-11T13:04:37.636Z</time></trkpt><trkpt lat="43.53665136009767" lon="12.258620037706823"><ele>608.0</ele><time>2026-04-11T13:04:38.635Z</time></trkpt><trkpt lat="43.536709911589085" lon="12.258697446499845"><ele>608.0</ele><time>2026-04-11T13:04:39.638Z</time></trkpt><trkpt lat="43.53675530159254" lon="12.258795296482848"><ele>608.0</ele><time>2026-04-11T13:04:40.635Z</time></trkpt><trkpt lat="43.53678726853488" lon="12.258922970297705"><ele>608.0</ele><time>2026-04-11T13:04:41.635Z</time></trkpt><trkpt lat="43.53680441206965" lon="12.259065046100883"><ele>608.0</ele><time>2026-04-11T13:04:42.635Z</time></trkpt><trkpt lat="43.536863483974535" lon="12.25937247675234"><ele>607.8</ele><time>2026-04-11T13:04:44.635Z</time></trkpt><trkpt lat="43.53690711092527" lon="12.259534207916312"><ele>607.5999999999999</ele><time>2026-04-11T13:04:45.636Z</time></trkpt><trkpt lat="43.536922064962276" lon="12.259684763192473"><ele>607.4000000000001</ele><time>2026-04-11T13:04:46.635Z</time></trkpt><trkpt lat="43.53691822578315" lon="12.259826689459292"><ele>607.2</ele><time>2026-04-11T13:04:47.635Z</time></trkpt><trkpt lat="43.53690931493195" lon="12.25993519993448"><ele>607.0</ele><time>2026-04-11T13:04:48.634Z</time></trkpt><trkpt lat="43.536924379750694" lon="12.260036392948672"><ele>606.6</ele><time>2026-04-11T13:04:49.635Z</time></trkpt><trkpt lat="43.53697041090367" lon="12.260167869040046"><ele>606.2</ele><time>2026-04-11T13:04:50.636Z</time></trkpt><trkpt lat="43.53702556655748" lon="12.2602910675546"><ele>605.8</ele><time>2026-04-11T13:04:51.637Z</time></trkpt><trkpt lat="43.537068662257184" lon="12.260424897491417"><ele>605.4</ele><time>2026-04-11T13:04:52.637Z</time></trkpt><trkpt lat="43.53711787152868" lon="12.260554790037583"><ele>605.0</ele><time>2026-04-11T13:04:53.634Z</time></trkpt><trkpt lat="43.53715838147167" lon="12.260654750112245"><ele>607.2</ele><time>2026-04-11T13:04:54.635Z</time></trkpt><trkpt lat="43.53718984749804" lon="12.26075893840113"><ele>609.4</ele><time>2026-04-11T13:04:55.633Z</time></trkpt><trkpt lat="43.53721865202481" lon="12.260837311909125"><ele>611.6</ele><time>2026-04-11T13:04:56.635Z</time></trkpt><trkpt lat="43.53722816749518" lon="12.26095336798773"><ele>613.8</ele><time>2026-04-11T13:04:58.634Z</time></trkpt><trkpt lat="43.53710497145186" lon="12.261011292224923"><ele>616.0</ele><time>2026-04-11T13:05:00.634Z</time></trkpt><trkpt lat="43.53699537354" lon="12.261071932444676"><ele>616.0</ele><time>2026-04-11T13:05:01.634Z</time></trkpt><trkpt lat="43.53691143220738" lon="12.261163972125624"><ele>616.0</ele><time>2026-04-11T13:05:02.633Z</time></trkpt><trkpt lat="43.536857091426235" lon="12.261259358225223"><ele>616.0</ele><time>2026-04-11T13:05:03.632Z</time></trkpt><trkpt lat="43.53669489038053" lon="12.26141780024568"><ele>616.0</ele><time>2026-04-11T13:05:05.633Z</time></trkpt><trkpt lat="43.53660595519875" lon="12.26147257975945"><ele>619.0</ele><time>2026-04-11T13:05:06.641Z</time></trkpt><trkpt lat="43.53652047019993" lon="12.261521802507437"><ele>622.0</ele><time>2026-04-11T13:05:07.636Z</time></trkpt><trkpt lat="43.53643202041868" lon="12.261583443947876"><ele>625.0</ele><time>2026-04-11T13:05:08.635Z</time></trkpt><trkpt lat="43.53635722567814" lon="12.261649663611339"><ele>628.0</ele><time>2026-04-11T13:05:09.634Z</time></trkpt><trkpt lat="43.536322116914015" lon="12.261756024072541"><ele>631.0</ele><time>2026-04-11T13:05:10.635Z</time></trkpt><trkpt lat="43.5363219254494" lon="12.261890088218605"><ele>631.0</ele><time>2026-04-11T13:05:11.634Z</time></trkpt><trkpt lat="43.53635118976676" lon="12.262025335333224"><ele>631.0</ele><time>2026-04-11T13:05:12.635Z</time></trkpt><trkpt lat="43.53637487633825" lon="12.262197187830303"><ele>631.0</ele><time>2026-04-11T13:05:13.638Z</time></trkpt><trkpt lat="43.53641533719977" lon="12.262335965476641"><ele>631.0</ele><time>2026-04-11T13:05:14.636Z</time></trkpt><trkpt lat="43.53645397542885" lon="12.262432910109387"><ele>631.0</ele><time>2026-04-11T13:05:15.635Z</time></trkpt><trkpt lat="43.53647862804423" lon="12.26252070249094"><ele>631.5</ele><time>2026-04-11T13:05:16.636Z</time></trkpt><trkpt lat="43.536501333993506" lon="12.262641692062921"><ele>632.0</ele><time>2026-04-11T13:05:18.633Z</time></trkpt><trkpt lat="43.53651496008672" lon="12.262731535175234"><ele>632.5</ele><time>2026-04-11T13:05:21.633Z</time></trkpt><trkpt lat="43.536506441510745" lon="12.262630593588566"><ele>633.0</ele><time>2026-04-11T13:07:34.634Z</time></trkpt><trkpt lat="43.53641115119466" lon="12.262489169783802"><ele>633.5</ele><time>2026-04-11T13:07:39.635Z</time></trkpt><trkpt lat="43.536343683110964" lon="12.262499593916178"><ele>634.0</ele><time>2026-04-11T13:07:41.634Z</time></trkpt><trkpt lat="43.536253585290524" lon="12.262507322145435"><ele>631.0</ele><time>2026-04-11T13:07:44.635Z</time></trkpt><trkpt lat="43.536187399202554" lon="12.262537724166373"><ele>628.0</ele><time>2026-04-11T13:07:48.634Z</time></trkpt><trkpt lat="43.53613283448955" lon="12.262605229898044"><ele>625.0</ele><time>2026-04-11T13:07:51.635Z</time></trkpt><trkpt lat="43.53605499208776" lon="12.262634076679834"><ele>622.0</ele><time>2026-04-11T13:07:54.636Z</time></trkpt><trkpt lat="43.535987865485886" lon="12.262679722635259"><ele>619.0</ele><time>2026-04-11T13:08:18.634Z</time></trkpt><trkpt lat="43.53588062100627" lon="12.262788801873038"><ele>616.0</ele><time>2026-04-11T13:08:22.635Z</time></trkpt><trkpt lat="43.53580194245986" lon="12.262823471005113"><ele>616.0</ele><time>2026-04-11T13:08:25.635Z</time></trkpt><trkpt lat="43.53566708145917" lon="12.262891930496577"><ele>616.0</ele><time>2026-04-11T13:08:27.635Z</time></trkpt><trkpt lat="43.53557903926293" lon="12.262928112785913"><ele>616.0</ele><time>2026-04-11T13:08:28.634Z</time></trkpt><trkpt lat="43.53550124609449" lon="12.262960106341293"><ele>616.0</ele><time>2026-04-11T13:08:29.634Z</time></trkpt><trkpt lat="43.535426682230245" lon="12.2630039117928"><ele>616.0</ele><time>2026-04-11T13:08:30.635Z</time></trkpt><trkpt lat="43.5353514303471" lon="12.263036167461047"><ele>613.0</ele><time>2026-04-11T13:08:31.635Z</time></trkpt><trkpt lat="43.535256613590235" lon="12.26304798482265"><ele>610.0</ele><time>2026-04-11T13:08:32.636Z</time></trkpt><trkpt lat="43.53515068755719" lon="12.263053622747663"><ele>607.0</ele><time>2026-04-11T13:08:33.635Z</time></trkpt><trkpt lat="43.53505747993711" lon="12.26304556043318"><ele>604.0</ele><time>2026-04-11T13:08:34.635Z</time></trkpt><trkpt lat="43.53495589342606" lon="12.263015809213979"><ele>601.0</ele><time>2026-04-11T13:08:35.636Z</time></trkpt><trkpt lat="43.534846119056425" lon="12.262972406648727"><ele>601.0</ele><time>2026-04-11T13:08:36.635Z</time></trkpt><trkpt lat="43.53474837640507" lon="12.262968719030255"><ele>601.0</ele><time>2026-04-11T13:08:37.636Z</time></trkpt><trkpt lat="43.534610801653486" lon="12.26296293165733"><ele>601.0</ele><time>2026-04-11T13:08:38.637Z</time></trkpt><trkpt lat="43.53448289951506" lon="12.262943147526597"><ele>601.0</ele><time>2026-04-11T13:08:39.635Z</time></trkpt><trkpt lat="43.53421707035425" lon="12.262844403460338"><ele>599.8</ele><time>2026-04-11T13:08:41.635Z</time></trkpt><trkpt lat="43.53407695774782" lon="12.262819520336556"><ele>598.6</ele><time>2026-04-11T13:08:42.634Z</time></trkpt><trkpt lat="43.53397376953198" lon="12.26283296442192"><ele>597.4</ele><time>2026-04-11T13:08:43.635Z</time></trkpt><trkpt lat="43.5338865131041" lon="12.26282834877417"><ele>596.2</ele><time>2026-04-11T13:08:44.636Z</time></trkpt><trkpt lat="43.533805866860796" lon="12.262800261363184"><ele>595.0</ele><time>2026-04-11T13:08:45.635Z</time></trkpt><trkpt lat="43.53372515907447" lon="12.26275295366946"><ele>595.2</ele><time>2026-04-11T13:08:46.636Z</time></trkpt><trkpt lat="43.533637419239525" lon="12.262694129911745"><ele>595.4</ele><time>2026-04-11T13:08:47.635Z</time></trkpt><trkpt lat="43.53353349341257" lon="12.262657017046514"><ele>595.6</ele><time>2026-04-11T13:08:48.635Z</time></trkpt><trkpt lat="43.53343080913397" lon="12.262653086994753"><ele>595.8</ele><time>2026-04-11T13:08:49.636Z</time></trkpt><trkpt lat="43.5333256396724" lon="12.262649495662721"><ele>596.0</ele><time>2026-04-11T13:08:50.636Z</time></trkpt><trkpt lat="43.533209395788006" lon="12.262630896927014"><ele>596.0</ele><time>2026-04-11T13:08:51.636Z</time></trkpt><trkpt lat="43.53308620778493" lon="12.262610853957618"><ele>596.0</ele><time>2026-04-11T13:08:52.634Z</time></trkpt><trkpt lat="43.532986096085764" lon="12.26260947586899"><ele>596.0</ele><time>2026-04-11T13:08:53.633Z</time></trkpt><trkpt lat="43.53289136187676" lon="12.262592645261323"><ele>596.0</ele><time>2026-04-11T13:08:54.632Z</time></trkpt><trkpt lat="43.532778653912736" lon="12.262588487387793"><ele>596.0</ele><time>2026-04-11T13:08:55.635Z</time></trkpt><trkpt lat="43.532666626740316" lon="12.262606076168066"><ele>594.8</ele><time>2026-04-11T13:08:56.636Z</time></trkpt><trkpt lat="43.53255529753256" lon="12.262637838738838"><ele>593.6</ele><time>2026-04-11T13:08:57.636Z</time></trkpt><trkpt lat="43.53244841950998" lon="12.262630755872848"><ele>592.4</ele><time>2026-04-11T13:08:58.634Z</time></trkpt><trkpt lat="43.532353964317004" lon="12.262603662145658"><ele>591.2</ele><time>2026-04-11T13:08:59.636Z</time></trkpt><trkpt lat="43.53226545865745" lon="12.262612030361748"><ele>590.0</ele><time>2026-04-11T13:09:00.633Z</time></trkpt><trkpt lat="43.53204518213822" lon="12.262692804098455"><ele>587.6</ele><time>2026-04-11T13:09:02.634Z</time></trkpt><trkpt lat="43.53195260603432" lon="12.262727159190263"><ele>585.2</ele><time>2026-04-11T13:09:03.635Z</time></trkpt><trkpt lat="43.531860510076186" lon="12.262762569270242"><ele>582.8</ele><time>2026-04-11T13:09:04.634Z</time></trkpt><trkpt lat="43.53177246871349" lon="12.262780265783594"><ele>580.4</ele><time>2026-04-11T13:09:05.634Z</time></trkpt><trkpt lat="43.531677011124636" lon="12.262772063252665"><ele>578.0</ele><time>2026-04-11T13:09:06.634Z</time></trkpt><trkpt lat="43.53160005262543" lon="12.262759114687919"><ele>578.0</ele><time>2026-04-11T13:09:07.635Z</time></trkpt><trkpt lat="43.53146549175239" lon="12.262797986080699"><ele>578.0</ele><time>2026-04-11T13:09:09.636Z</time></trkpt><trkpt lat="43.53137292682132" lon="12.262821279203129"><ele>578.0</ele><time>2026-04-11T13:09:10.634Z</time></trkpt><trkpt lat="43.53127544010645" lon="12.262852645250465"><ele>578.0</ele><time>2026-04-11T13:09:11.636Z</time></trkpt><trkpt lat="43.5311919619678" lon="12.262880135087373"><ele>578.0</ele><time>2026-04-11T13:09:12.634Z</time></trkpt><trkpt lat="43.53111222695237" lon="12.262873691796212"><ele>576.1666666666666</ele><time>2026-04-11T13:09:13.635Z</time></trkpt><trkpt lat="43.53103369818852" lon="12.262836819726134"><ele>574.3333333333333</ele><time>2026-04-11T13:09:14.634Z</time></trkpt><trkpt lat="43.530967093468334" lon="12.262785594762159"><ele>572.5</ele><time>2026-04-11T13:09:15.635Z</time></trkpt><trkpt lat="43.53089808164786" lon="12.262734121140692"><ele>570.6666666666666</ele><time>2026-04-11T13:09:16.635Z</time></trkpt><trkpt lat="43.53083067694573" lon="12.262705642614549"><ele>568.8333333333334</ele><time>2026-04-11T13:09:17.637Z</time></trkpt><trkpt lat="43.53076066748732" lon="12.262670799954304"><ele>567.0</ele><time>2026-04-11T13:09:18.636Z</time></trkpt><trkpt lat="43.530695415482754" lon="12.262632387667127"><ele>567.0</ele><time>2026-04-11T13:09:19.636Z</time></trkpt><trkpt lat="43.53062707949651" lon="12.26260276117595"><ele>567.0</ele><time>2026-04-11T13:09:20.635Z</time></trkpt><trkpt lat="43.53056168399243" lon="12.262564383873649"><ele>567.0</ele><time>2026-04-11T13:09:21.634Z</time></trkpt><trkpt lat="43.53046663493708" lon="12.262416635974082"><ele>567.0</ele><time>2026-04-11T13:09:23.635Z</time></trkpt><trkpt lat="43.530411341056634" lon="12.262327690615852"><ele>567.0</ele><time>2026-04-11T13:09:24.635Z</time></trkpt><trkpt lat="43.530360973386685" lon="12.262250935559091"><ele>567.0</ele><time>2026-04-11T13:09:25.636Z</time></trkpt><trkpt lat="43.53032972967417" lon="12.262154239691988"><ele>564.3333333333334</ele><time>2026-04-11T13:09:26.636Z</time></trkpt><trkpt lat="43.530312877588784" lon="12.262035963763624"><ele>561.6666666666666</ele><time>2026-04-11T13:09:27.634Z</time></trkpt><trkpt lat="43.53028225031318" lon="12.261954169361243"><ele>559.0</ele><time>2026-04-11T13:09:28.636Z</time></trkpt><trkpt lat="43.53022643761613" lon="12.261878900155722"><ele>556.3333333333333</ele><time>2026-04-11T13:09:29.634Z</time></trkpt><trkpt lat="43.53013813080331" lon="12.261817762266114"><ele>553.6666666666666</ele><time>2026-04-11T13:09:30.636Z</time></trkpt><trkpt lat="43.53003347424609" lon="12.261773222784964"><ele>551.0</ele><time>2026-04-11T13:09:31.633Z</time></trkpt><trkpt lat="43.529930994617295" lon="12.261745984612828"><ele>551.0</ele><time>2026-04-11T13:09:32.635Z</time></trkpt><trkpt lat="43.52984142796511" lon="12.261729985465738"><ele>551.0</ele><time>2026-04-11T13:09:33.634Z</time></trkpt><trkpt lat="43.52977391542844" lon="12.261689394387604"><ele>551.0</ele><time>2026-04-11T13:09:34.634Z</time></trkpt><trkpt lat="43.529696364182236" lon="12.261603193592327"><ele>551.0</ele><time>2026-04-11T13:09:35.635Z</time></trkpt><trkpt lat="43.529620016169986" lon="12.261512586709525"><ele>551.0</ele><time>2026-04-11T13:09:36.634Z</time></trkpt><trkpt lat="43.529547048580305" lon="12.261451396253593"><ele>547.8</ele><time>2026-04-11T13:09:37.636Z</time></trkpt><trkpt lat="43.529484232152576" lon="12.261382641645662"><ele>544.6</ele><time>2026-04-11T13:09:38.637Z</time></trkpt><trkpt lat="43.52942326136862" lon="12.261330240671523"><ele>541.4</ele><time>2026-04-11T13:09:39.636Z</time></trkpt><trkpt lat="43.52930609852971" lon="12.261320370357582"><ele>538.2</ele><time>2026-04-11T13:09:41.636Z</time></trkpt><trkpt lat="43.529190904480224" lon="12.261390234766509"><ele>535.0</ele><time>2026-04-11T13:09:43.635Z</time></trkpt><trkpt lat="43.52908008347088" lon="12.261581802361112"><ele>535.0</ele><time>2026-04-11T13:09:46.636Z</time></trkpt><trkpt lat="43.52906183673006" lon="12.261690483413691"><ele>535.0</ele><time>2026-04-11T13:09:47.633Z</time></trkpt><trkpt lat="43.52899926336029" lon="12.261784648041399"><ele>535.0</ele><time>2026-04-11T13:09:48.633Z</time></trkpt><trkpt lat="43.52891652493404" lon="12.26184508231727"><ele>535.0</ele><time>2026-04-11T13:09:49.635Z</time></trkpt><trkpt lat="43.52883332922127" lon="12.261876460805258"><ele>535.0</ele><time>2026-04-11T13:09:50.634Z</time></trkpt><trkpt lat="43.52875115608084" lon="12.261857518832356"><ele>535.0</ele><time>2026-04-11T13:09:51.634Z</time></trkpt><trkpt lat="43.52866787851988" lon="12.261807364327849"><ele>532.8</ele><time>2026-04-11T13:09:52.633Z</time></trkpt><trkpt lat="43.52859389341616" lon="12.261721989033147"><ele>530.6</ele><time>2026-04-11T13:09:53.633Z</time></trkpt><trkpt lat="43.528515739615365" lon="12.261662742449818"><ele>528.4</ele><time>2026-04-11T13:09:54.635Z</time></trkpt><trkpt lat="43.5284029776595" lon="12.261641760364423"><ele>526.2</ele><time>2026-04-11T13:09:55.635Z</time></trkpt><trkpt lat="43.52830170467673" lon="12.261646621557274"><ele>524.0</ele><time>2026-04-11T13:09:56.633Z</time></trkpt><trkpt lat="43.52820192624842" lon="12.261644206749514"><ele>524.0</ele><time>2026-04-11T13:09:57.633Z</time></trkpt><trkpt lat="43.52811815427119" lon="12.261622715828858"><ele>524.0</ele><time>2026-04-11T13:09:58.634Z</time></trkpt><trkpt lat="43.52802020954581" lon="12.261596790033645"><ele>524.0</ele><time>2026-04-11T13:09:59.635Z</time></trkpt><trkpt lat="43.527915827980785" lon="12.26157068308823"><ele>524.0</ele><time>2026-04-11T13:10:00.633Z</time></trkpt><trkpt lat="43.527800042646355" lon="12.261555786877507"><ele>524.0</ele><time>2026-04-11T13:10:01.634Z</time></trkpt><trkpt lat="43.52768246249735" lon="12.261566657048464"><ele>523.2</ele><time>2026-04-11T13:10:02.635Z</time></trkpt><trkpt lat="43.52757202303848" lon="12.261588088644753"><ele>522.4</ele><time>2026-04-11T13:10:03.633Z</time></trkpt><trkpt lat="43.52747785267156" lon="12.26158804485872"><ele>521.6</ele><time>2026-04-11T13:10:04.632Z</time></trkpt><trkpt lat="43.52731883050516" lon="12.261580209079584"><ele>520.8</ele><time>2026-04-11T13:10:06.635Z</time></trkpt><trkpt lat="43.52725021730678" lon="12.261575830161435"><ele>520.0</ele><time>2026-04-11T13:10:07.635Z</time></trkpt><trkpt lat="43.52717156579016" lon="12.261568357827752"><ele>520.0</ele><time>2026-04-11T13:10:08.634Z</time></trkpt><trkpt lat="43.527071309249635" lon="12.261543775396245"><ele>520.0</ele><time>2026-04-11T13:10:09.633Z</time></trkpt><trkpt lat="43.52697299423047" lon="12.261512165753246"><ele>520.0</ele><time>2026-04-11T13:10:10.635Z</time></trkpt><trkpt lat="43.52688229148785" lon="12.261462981922847"><ele>520.0</ele><time>2026-04-11T13:10:11.634Z</time></trkpt><trkpt lat="43.52678595491495" lon="12.26137862945609"><ele>520.0</ele><time>2026-04-11T13:10:12.635Z</time></trkpt><trkpt lat="43.52668785723723" lon="12.261286503357294"><ele>516.8</ele><time>2026-04-11T13:10:13.633Z</time></trkpt><trkpt lat="43.52660933177532" lon="12.261213282151937"><ele>513.6</ele><time>2026-04-11T13:10:14.635Z</time></trkpt><trkpt lat="43.52653327507761" lon="12.261141034509123"><ele>510.4</ele><time>2026-04-11T13:10:15.635Z</time></trkpt><trkpt lat="43.526464844099856" lon="12.261094450300577"><ele>507.2</ele><time>2026-04-11T13:10:16.633Z</time></trkpt><trkpt lat="43.52639188336528" lon="12.26106864033742"><ele>504.0</ele><time>2026-04-11T13:10:17.635Z</time></trkpt><trkpt lat="43.526266403041504" lon="12.26100231638361"><ele>503.4</ele><time>2026-04-11T13:10:19.635Z</time></trkpt><trkpt lat="43.526198965698704" lon="12.260976091614603"><ele>502.79999999999995</ele><time>2026-04-11T13:10:20.634Z</time></trkpt><trkpt lat="43.526109873043204" lon="12.260962389870146"><ele>502.20000000000005</ele><time>2026-04-11T13:10:21.634Z</time></trkpt><trkpt lat="43.526002072768044" lon="12.260959222889422"><ele>501.6</ele><time>2026-04-11T13:10:22.635Z</time></trkpt><trkpt lat="43.52590450737886" lon="12.26094861700645"><ele>501.0</ele><time>2026-04-11T13:10:23.635Z</time></trkpt><trkpt lat="43.52582517170272" lon="12.260892400728148"><ele>501.0</ele><time>2026-04-11T13:10:24.635Z</time></trkpt><trkpt lat="43.52576390450777" lon="12.260826140167689"><ele>501.0</ele><time>2026-04-11T13:10:25.634Z</time></trkpt><trkpt lat="43.52557380235654" lon="12.260785144287693"><ele>501.0</ele><time>2026-04-11T13:10:28.636Z</time></trkpt><trkpt lat="43.52550491272561" lon="12.260907038956086"><ele>501.0</ele><time>2026-04-11T13:10:30.635Z</time></trkpt><trkpt lat="43.52543928349799" lon="12.261019590803192"><ele>498.8333333333333</ele><time>2026-04-11T13:10:32.634Z</time></trkpt><trkpt lat="43.52532553476872" lon="12.261072092756818"><ele>496.66666666666663</ele><time>2026-04-11T13:10:34.634Z</time></trkpt><trkpt lat="43.525258383222436" lon="12.261104649927036"><ele>494.5</ele><time>2026-04-11T13:10:35.633Z</time></trkpt><trkpt lat="43.52519650791551" lon="12.261129385863141"><ele>492.3333333333333</ele><time>2026-04-11T13:10:36.634Z</time></trkpt><trkpt lat="43.52512656082119" lon="12.261158732278357"><ele>490.16666666666663</ele><time>2026-04-11T13:10:37.634Z</time></trkpt><trkpt lat="43.525053884234225" lon="12.261134397163106"><ele>488.0</ele><time>2026-04-11T13:10:38.634Z</time></trkpt><trkpt lat="43.524981904101644" lon="12.261077619223117"><ele>487.99999999999994</ele><time>2026-04-11T13:10:39.635Z</time></trkpt><trkpt lat="43.52491382844548" lon="12.261015301568175"><ele>488.0</ele><time>2026-04-11T13:10:40.634Z</time></trkpt><trkpt lat="43.52486082646862" lon="12.260954764827824"><ele>487.99999999999994</ele><time>2026-04-11T13:10:41.632Z</time></trkpt><trkpt lat="43.52480384958584" lon="12.26090457856814"><ele>487.99999999999994</ele><time>2026-04-11T13:10:42.635Z</time></trkpt><trkpt lat="43.524740303834214" lon="12.260853227320128"><ele>488.0</ele><time>2026-04-11T13:10:43.632Z</time></trkpt><trkpt lat="43.52468120642783" lon="12.260808093951916"><ele>487.99999999999994</ele><time>2026-04-11T13:10:44.633Z</time></trkpt><trkpt lat="43.52461291868426" lon="12.260760572736725"><ele>487.99999999999994</ele><time>2026-04-11T13:10:45.635Z</time></trkpt><trkpt lat="43.52454849626262" lon="12.260718523887203"><ele>484.59999999999997</ele><time>2026-04-11T13:10:46.633Z</time></trkpt><trkpt lat="43.52441845498566" lon="12.260635251377517"><ele>481.19999999999993</ele><time>2026-04-11T13:10:48.633Z</time></trkpt><trkpt lat="43.524339497249905" lon="12.26059179841838"><ele>477.8</ele><time>2026-04-11T13:10:49.633Z</time></trkpt><trkpt lat="43.52427708439148" lon="12.260546810120218"><ele>474.4</ele><time>2026-04-11T13:10:50.635Z</time></trkpt><trkpt lat="43.524194454932065" lon="12.260501842207319"><ele>471.0</ele><time>2026-04-11T13:10:51.633Z</time></trkpt><trkpt lat="43.524136278448935" lon="12.260432312530277"><ele>470.3333333333333</ele><time>2026-04-11T13:10:52.633Z</time></trkpt><trkpt lat="43.52406160389419" lon="12.260376601615881"><ele>469.66666666666663</ele><time>2026-04-11T13:10:53.64Z</time></trkpt><trkpt lat="43.52399286187397" lon="12.260338391293727"><ele>469.0</ele><time>2026-04-11T13:10:54.634Z</time></trkpt><trkpt lat="43.52393080268442" lon="12.260319419274968"><ele>468.3333333333333</ele><time>2026-04-11T13:10:55.633Z</time></trkpt><trkpt lat="43.52385424258944" lon="12.260307499690397"><ele>467.66666666666663</ele><time>2026-04-11T13:10:56.634Z</time></trkpt><trkpt lat="43.5237745966627" lon="12.260318436882377"><ele>467.0</ele><time>2026-04-11T13:10:57.635Z</time></trkpt><trkpt lat="43.52370304735804" lon="12.26034330527354"><ele>464.0</ele><time>2026-04-11T13:10:58.634Z</time></trkpt><trkpt lat="43.523645916233406" lon="12.26038857172176"><ele>461.00000000000006</ele><time>2026-04-11T13:10:59.634Z</time></trkpt><trkpt lat="43.523578197575716" lon="12.260449106726492"><ele>458.00000000000006</ele><time>2026-04-11T13:11:00.634Z</time></trkpt><trkpt lat="43.52347471917726" lon="12.260492327415156"><ele>455.0</ele><time>2026-04-11T13:11:02.633Z</time></trkpt><trkpt lat="43.52338146326967" lon="12.26044602830419"><ele>452.0</ele><time>2026-04-11T13:11:40.635Z</time></trkpt><trkpt lat="43.52324050468739" lon="12.260344887817553"><ele>452.0</ele><time>2026-04-11T13:11:45.636Z</time></trkpt><trkpt lat="43.523154782352634" lon="12.2602851542779"><ele>452.00000000000006</ele><time>2026-04-11T13:11:46.634Z</time></trkpt><trkpt lat="43.523047342613324" lon="12.260234488065544"><ele>452.00000000000006</ele><time>2026-04-11T13:11:47.634Z</time></trkpt><trkpt lat="43.52293936014085" lon="12.26018359105115"><ele>452.0</ele><time>2026-04-11T13:11:48.633Z</time></trkpt><trkpt lat="43.522856149136715" lon="12.260163515663582"><ele>452.0</ele><time>2026-04-11T13:11:49.634Z</time></trkpt><trkpt lat="43.52278248627198" lon="12.260164413320789"><ele>450.40000000000003</ele><time>2026-04-11T13:11:50.635Z</time></trkpt><trkpt lat="43.522680837218466" lon="12.260200838871397"><ele>448.80000000000007</ele><time>2026-04-11T13:11:51.633Z</time></trkpt><trkpt lat="43.522571598942186" lon="12.26023266933328"><ele>447.2</ele><time>2026-04-11T13:11:52.633Z</time></trkpt><trkpt lat="43.522481118527445" lon="12.260227026142173"><ele>445.6</ele><time>2026-04-11T13:11:53.635Z</time></trkpt><trkpt lat="43.52239977968187" lon="12.260221306352143"><ele>444.0</ele><time>2026-04-11T13:11:54.634Z</time></trkpt><trkpt lat="43.522315386658704" lon="12.26023465477547"><ele>444.0</ele><time>2026-04-11T13:11:55.635Z</time></trkpt><trkpt lat="43.522250209395224" lon="12.260252505872065"><ele>444.0</ele><time>2026-04-11T13:11:56.635Z</time></trkpt><trkpt lat="43.52216908630864" lon="12.260287996163399"><ele>444.0</ele><time>2026-04-11T13:11:57.635Z</time></trkpt><trkpt lat="43.522075474101314" lon="12.260347536901639"><ele>444.0</ele><time>2026-04-11T13:11:58.634Z</time></trkpt><trkpt lat="43.52198705503103" lon="12.260384666673144"><ele>444.0</ele><time>2026-04-11T13:11:59.633Z</time></trkpt><trkpt lat="43.52190187662684" lon="12.260394958797114"><ele>444.0</ele><time>2026-04-11T13:12:00.635Z</time></trkpt><trkpt lat="43.52180893182529" lon="12.260390972597396"><ele>441.79999999999995</ele><time>2026-04-11T13:12:01.633Z</time></trkpt><trkpt lat="43.521643293790056" lon="12.260409695251244"><ele>439.59999999999997</ele><time>2026-04-11T13:12:03.634Z</time></trkpt><trkpt lat="43.52156658924686" lon="12.260418551472666"><ele>437.4</ele><time>2026-04-11T13:12:04.635Z</time></trkpt><trkpt lat="43.521482805576575" lon="12.260442423795837"><ele>435.2</ele><time>2026-04-11T13:12:05.634Z</time></trkpt><trkpt lat="43.52140584509473" lon="12.260472770199032"><ele>433.0</ele><time>2026-04-11T13:12:06.638Z</time></trkpt><trkpt lat="43.52132857647535" lon="12.260505827937108"><ele>433.00000000000006</ele><time>2026-04-11T13:12:07.635Z</time></trkpt><trkpt lat="43.521260912736324" lon="12.26054187390367"><ele>433.0</ele><time>2026-04-11T13:12:08.634Z</time></trkpt><trkpt lat="43.521202771899915" lon="12.260585755624469"><ele>433.0</ele><time>2026-04-11T13:12:09.633Z</time></trkpt><trkpt lat="43.52112813702509" lon="12.260659234346981"><ele>433.0</ele><time>2026-04-11T13:12:11.634Z</time></trkpt><trkpt lat="43.52104280767619" lon="12.260688668484164"><ele>433.00000000000006</ele><time>2026-04-11T13:12:23.63Z</time></trkpt><trkpt lat="43.52108697286063" lon="12.26071529375212"><ele>433.0</ele><time>2026-04-11T13:35:01.626Z</time></trkpt><trkpt lat="43.52126120221308" lon="12.260760071631614"><ele>432.6666666666667</ele><time>2026-04-11T13:35:05.626Z</time></trkpt><trkpt lat="43.52133494883589" lon="12.260775330604272"><ele>432.33333333333337</ele><time>2026-04-11T13:35:06.627Z</time></trkpt><trkpt lat="43.52140505834841" lon="12.260802982596974"><ele>432.0</ele><time>2026-04-11T13:35:07.626Z</time></trkpt><trkpt lat="43.52147346383316" lon="12.260850398535107"><ele>431.66666666666663</ele><time>2026-04-11T13:35:08.625Z</time></trkpt><trkpt lat="43.52153738043996" lon="12.260911964401654"><ele>431.3333333333333</ele><time>2026-04-11T13:35:09.626Z</time></trkpt><trkpt lat="43.52159129061728" lon="12.260989262969538"><ele>431.0</ele><time>2026-04-11T13:35:10.626Z</time></trkpt><trkpt lat="43.52162817377189" lon="12.26107912170542"><ele>430.99999999999994</ele><time>2026-04-11T13:35:11.628Z</time></trkpt><trkpt lat="43.52166493243436" lon="12.261169140855284"><ele>431.0</ele><time>2026-04-11T13:35:12.627Z</time></trkpt><trkpt lat="43.521715849935745" lon="12.261265575169858"><ele>431.0</ele><time>2026-04-11T13:35:13.627Z</time></trkpt><trkpt lat="43.52177735009662" lon="12.26135921665015"><ele>431.0</ele><time>2026-04-11T13:35:14.627Z</time></trkpt><trkpt lat="43.521853412293126" lon="12.261434980605472"><ele>430.99999999999994</ele><time>2026-04-11T13:35:15.626Z</time></trkpt><trkpt lat="43.521936924256316" lon="12.261497206591097"><ele>431.0</ele><time>2026-04-11T13:35:16.625Z</time></trkpt><trkpt lat="43.52202240636109" lon="12.261548845908385"><ele>431.4</ele><time>2026-04-11T13:35:17.625Z</time></trkpt><trkpt lat="43.52210819218481" lon="12.261600168246467"><ele>431.8</ele><time>2026-04-11T13:35:18.627Z</time></trkpt><trkpt lat="43.52219195762016" lon="12.26166094394417"><ele>432.19999999999993</ele><time>2026-04-11T13:35:19.627Z</time></trkpt><trkpt lat="43.52226805126407" lon="12.261729185654819"><ele>432.59999999999997</ele><time>2026-04-11T13:35:20.627Z</time></trkpt><trkpt lat="43.52233815927098" lon="12.261818358056432"><ele>433.0</ele><time>2026-04-11T13:35:21.626Z</time></trkpt><trkpt lat="43.522396212693266" lon="12.261931272959778"><ele>433.0</ele><time>2026-04-11T13:35:22.627Z</time></trkpt><trkpt lat="43.52251451473671" lon="12.262159508043824"><ele>433.0</ele><time>2026-04-11T13:35:24.626Z</time></trkpt><trkpt lat="43.52262041996527" lon="12.262227021574857"><ele>433.0</ele><time>2026-04-11T13:35:25.625Z</time></trkpt><trkpt lat="43.522728175368044" lon="12.262284421065027"><ele>433.0</ele><time>2026-04-11T13:35:26.624Z</time></trkpt><trkpt lat="43.52283884787451" lon="12.262329842566922"><ele>434.79999999999995</ele><time>2026-04-11T13:35:27.626Z</time></trkpt><trkpt lat="43.52294175630244" lon="12.26237957532885"><ele>436.59999999999997</ele><time>2026-04-11T13:35:28.625Z</time></trkpt><trkpt lat="43.523045795911784" lon="12.262449210335895"><ele>438.40000000000003</ele><time>2026-04-11T13:35:29.626Z</time></trkpt><trkpt lat="43.52313445207583" lon="12.262534437665835"><ele>440.20000000000005</ele><time>2026-04-11T13:35:30.624Z</time></trkpt><trkpt lat="43.52322589241948" lon="12.262630509685572"><ele>442.0</ele><time>2026-04-11T13:35:31.625Z</time></trkpt><trkpt lat="43.52331986098424" lon="12.262740833339944"><ele>442.0</ele><time>2026-04-11T13:35:32.624Z</time></trkpt><trkpt lat="43.523402468422795" lon="12.262862077558085"><ele>442.0</ele><time>2026-04-11T13:35:33.623Z</time></trkpt><trkpt lat="43.52348366969433" lon="12.262986378882879"><ele>442.0</ele><time>2026-04-11T13:35:34.624Z</time></trkpt><trkpt lat="43.523567401112736" lon="12.263108126585399"><ele>442.0</ele><time>2026-04-11T13:35:35.625Z</time></trkpt><trkpt lat="43.523646018514974" lon="12.263226173378767"><ele>442.5</ele><time>2026-04-11T13:35:36.624Z</time></trkpt><trkpt lat="43.523725632460966" lon="12.263348763817923"><ele>443.0</ele><time>2026-04-11T13:35:37.625Z</time></trkpt><trkpt lat="43.52380128150236" lon="12.26347197324774"><ele>443.5</ele><time>2026-04-11T13:35:38.624Z</time></trkpt><trkpt lat="43.52388551023326" lon="12.263587816726567"><ele>444.0</ele><time>2026-04-11T13:35:39.624Z</time></trkpt><trkpt lat="43.52397272286088" lon="12.263703923945632"><ele>444.0</ele><time>2026-04-11T13:35:40.624Z</time></trkpt><trkpt lat="43.52405330732483" lon="12.26382209785"><ele>444.0</ele><time>2026-04-11T13:35:41.626Z</time></trkpt><trkpt lat="43.52412977449545" lon="12.263942738953505"><ele>444.0</ele><time>2026-04-11T13:35:42.625Z</time></trkpt><trkpt lat="43.524201856684606" lon="12.264062497052986"><ele>444.0</ele><time>2026-04-11T13:35:43.624Z</time></trkpt><trkpt lat="43.52432371720036" lon="12.264277915643857"><ele>442.79999999999995</ele><time>2026-04-11T13:35:45.626Z</time></trkpt><trkpt lat="43.52438365913509" lon="12.26436995688404"><ele>441.59999999999997</ele><time>2026-04-11T13:35:46.626Z</time></trkpt><trkpt lat="43.52446341988336" lon="12.264425326842586"><ele>440.4</ele><time>2026-04-11T13:35:47.625Z</time></trkpt><trkpt lat="43.524554561251456" lon="12.264454134598678"><ele>439.2</ele><time>2026-04-11T13:35:48.625Z</time></trkpt><trkpt lat="43.524651474872634" lon="12.264442324783644"><ele>438.0</ele><time>2026-04-11T13:35:49.623Z</time></trkpt><trkpt lat="43.52474009203146" lon="12.264424950439901"><ele>438.0</ele><time>2026-04-11T13:35:50.625Z</time></trkpt><trkpt lat="43.524823137905535" lon="12.264427379044196"><ele>438.0</ele><time>2026-04-11T13:35:51.625Z</time></trkpt><trkpt lat="43.52489770029184" lon="12.264467468866098"><ele>438.0</ele><time>2026-04-11T13:35:52.626Z</time></trkpt><trkpt lat="43.524963031916435" lon="12.264538842050898"><ele>438.0</ele><time>2026-04-11T13:35:53.624Z</time></trkpt><trkpt lat="43.52502655010703" lon="12.264632734882888"><ele>438.0</ele><time>2026-04-11T13:35:54.624Z</time></trkpt><trkpt lat="43.52504788779613" lon="12.264744201630602"><ele>438.0</ele><time>2026-04-11T13:35:55.623Z</time></trkpt><trkpt lat="43.52503541275008" lon="12.264874938467264"><ele>437.4</ele><time>2026-04-11T13:35:56.622Z</time></trkpt><trkpt lat="43.52497534481699" lon="12.264987735862908"><ele>436.79999999999995</ele><time>2026-04-11T13:35:57.624Z</time></trkpt><trkpt lat="43.52488401613393" lon="12.26506711574064"><ele>436.2</ele><time>2026-04-11T13:35:58.623Z</time></trkpt><trkpt lat="43.52477721348523" lon="12.265121146023796"><ele>435.6</ele><time>2026-04-11T13:35:59.623Z</time></trkpt><trkpt lat="43.524667114631676" lon="12.265176195805058"><ele>435.0</ele><time>2026-04-11T13:36:00.624Z</time></trkpt><trkpt lat="43.52456386221624" lon="12.265249962411682"><ele>430.75</ele><time>2026-04-11T13:36:01.623Z</time></trkpt><trkpt lat="43.52447252876788" lon="12.265329754940499"><ele>426.5</ele><time>2026-04-11T13:36:02.623Z</time></trkpt><trkpt lat="43.52438663684041" lon="12.265423604184791"><ele>422.25</ele><time>2026-04-11T13:36:03.624Z</time></trkpt><trkpt lat="43.524327500000695" lon="12.26553670879597"><ele>418.0</ele><time>2026-04-11T13:36:04.625Z</time></trkpt><trkpt lat="43.52429146917233" lon="12.265812083811815"><ele>417.5</ele><time>2026-04-11T13:36:06.624Z</time></trkpt><trkpt lat="43.52432528885315" lon="12.26596710764084"><ele>417.0</ele><time>2026-04-11T13:36:07.625Z</time></trkpt><trkpt lat="43.52438690956197" lon="12.266104640657405"><ele>416.5</ele><time>2026-04-11T13:36:08.624Z</time></trkpt><trkpt lat="43.52447100768124" lon="12.266224749865046"><ele>416.0</ele><time>2026-04-11T13:36:09.625Z</time></trkpt><trkpt lat="43.52457168535081" lon="12.266319778029017"><ele>418.5</ele><time>2026-04-11T13:36:10.626Z</time></trkpt><trkpt lat="43.52468187546425" lon="12.26640051451094"><ele>421.0</ele><time>2026-04-11T13:36:11.625Z</time></trkpt><trkpt lat="43.52477141993621" lon="12.26647860233844"><ele>423.5</ele><time>2026-04-11T13:36:12.623Z</time></trkpt><trkpt lat="43.52486748777628" lon="12.266565598200854"><ele>426.0</ele><time>2026-04-11T13:36:13.626Z</time></trkpt><trkpt lat="43.524956465256615" lon="12.266652235836156"><ele>426.0</ele><time>2026-04-11T13:36:14.625Z</time></trkpt><trkpt lat="43.52504383301756" lon="12.266754497523305"><ele>426.0</ele><time>2026-04-11T13:36:15.624Z</time></trkpt><trkpt lat="43.52513438963299" lon="12.266862927121824"><ele>426.0</ele><time>2026-04-11T13:36:16.624Z</time></trkpt><trkpt lat="43.52521292279316" lon="12.266967162224896"><ele>426.0</ele><time>2026-04-11T13:36:17.624Z</time></trkpt><trkpt lat="43.52529520120358" lon="12.267072987922424"><ele>426.0</ele><time>2026-04-11T13:36:18.626Z</time></trkpt><trkpt lat="43.52538298255064" lon="12.267186139393113"><ele>426.0</ele><time>2026-04-11T13:36:19.625Z</time></trkpt><trkpt lat="43.525468830816564" lon="12.267283140676145"><ele>426.0</ele><time>2026-04-11T13:36:20.625Z</time></trkpt><trkpt lat="43.525558618124506" lon="12.267397742709024"><ele>426.0</ele><time>2026-04-11T13:36:21.624Z</time></trkpt><trkpt lat="43.5256462401554" lon="12.267492197377475"><ele>425.5</ele><time>2026-04-11T13:36:22.625Z</time></trkpt><trkpt lat="43.52572935459441" lon="12.267557885175213"><ele>425.0</ele><time>2026-04-11T13:36:23.623Z</time></trkpt><trkpt lat="43.525807603484054" lon="12.26760451851368"><ele>424.5</ele><time>2026-04-11T13:36:24.624Z</time></trkpt><trkpt lat="43.52589027875348" lon="12.267634618489538"><ele>424.0</ele><time>2026-04-11T13:36:25.63Z</time></trkpt><trkpt lat="43.52607673126752" lon="12.26761760452664"><ele>424.00000000000006</ele><time>2026-04-11T13:36:27.623Z</time></trkpt><trkpt lat="43.526172227782354" lon="12.26759298343075"><ele>424.0</ele><time>2026-04-11T13:36:28.623Z</time></trkpt><trkpt lat="43.526257479826604" lon="12.267573052275607"><ele>424.0</ele><time>2026-04-11T13:36:29.624Z</time></trkpt><trkpt lat="43.52633828096772" lon="12.267567311204436"><ele>424.0</ele><time>2026-04-11T13:36:30.626Z</time></trkpt><trkpt lat="43.526411099322786" lon="12.267586808478734"><ele>424.00000000000006</ele><time>2026-04-11T13:36:31.624Z</time></trkpt><trkpt lat="43.526500932128904" lon="12.26764826011009"><ele>424.0</ele><time>2026-04-11T13:36:33.624Z</time></trkpt><trkpt lat="43.52656945381607" lon="12.267690253091482"><ele>424.2</ele><time>2026-04-11T13:36:35.624Z</time></trkpt><trkpt lat="43.52664191446901" lon="12.26773594036705"><ele>424.4</ele><time>2026-04-11T13:37:03.625Z</time></trkpt><trkpt lat="43.5268339602888" lon="12.26777455616769"><ele>424.6</ele><time>2026-04-11T13:37:06.627Z</time></trkpt><trkpt lat="43.526933247498306" lon="12.267759185187261"><ele>424.8</ele><time>2026-04-11T13:37:07.626Z</time></trkpt><trkpt lat="43.52700424280031" lon="12.267737191565828"><ele>425.0</ele><time>2026-04-11T13:37:08.626Z</time></trkpt><trkpt lat="43.527134382616175" lon="12.267696635745219"><ele>426.4</ele><time>2026-04-11T13:37:10.628Z</time></trkpt><trkpt lat="43.52720138933549" lon="12.267671995947678"><ele>427.8</ele><time>2026-04-11T13:37:11.628Z</time></trkpt><trkpt lat="43.52727538051771" lon="12.267646379114323"><ele>429.20000000000005</ele><time>2026-04-11T13:37:12.627Z</time></trkpt><trkpt lat="43.527339879818584" lon="12.267635610338194"><ele>430.6</ele><time>2026-04-11T13:37:13.627Z</time></trkpt><trkpt lat="43.52746542841987" lon="12.26767950533828"><ele>432.0</ele><time>2026-04-11T13:37:15.627Z</time></trkpt><trkpt lat="43.52759116387645" lon="12.267735256837474"><ele>432.0</ele><time>2026-04-11T13:37:17.627Z</time></trkpt><trkpt lat="43.52771272735633" lon="12.267792494980576"><ele>432.00000000000006</ele><time>2026-04-11T13:37:19.624Z</time></trkpt><trkpt lat="43.527793880410194" lon="12.267810663508612"><ele>432.00000000000006</ele><time>2026-04-11T13:37:20.626Z</time></trkpt><trkpt lat="43.52787471946253" lon="12.267820111252778"><ele>432.0</ele><time>2026-04-11T13:37:21.626Z</time></trkpt><trkpt lat="43.527974623732774" lon="12.267819717734945"><ele>432.0</ele><time>2026-04-11T13:37:22.625Z</time></trkpt><trkpt lat="43.52805587193853" lon="12.2678184753414"><ele>433.6</ele><time>2026-04-11T13:37:23.628Z</time></trkpt><trkpt lat="43.52815267379985" lon="12.26784771809673"><ele>435.20000000000005</ele><time>2026-04-11T13:37:24.624Z</time></trkpt><trkpt lat="43.52828652080545" lon="12.267995535813277"><ele>436.8</ele><time>2026-04-11T13:37:26.626Z</time></trkpt><trkpt lat="43.528353489490556" lon="12.268035981108444"><ele>438.4</ele><time>2026-04-11T13:37:27.625Z</time></trkpt><trkpt lat="43.528419636514215" lon="12.268022904804102"><ele>440.0</ele><time>2026-04-11T13:37:28.625Z</time></trkpt><trkpt lat="43.52850959725981" lon="12.267995499082966"><ele>440.0</ele><time>2026-04-11T13:37:29.626Z</time></trkpt><trkpt lat="43.52863968956031" lon="12.267990427150414"><ele>440.0</ele><time>2026-04-11T13:37:30.626Z</time></trkpt><trkpt lat="43.528778754766705" lon="12.26798699284068"><ele>440.0</ele><time>2026-04-11T13:37:31.624Z</time></trkpt><trkpt lat="43.528910037486405" lon="12.267994616513489"><ele>440.0</ele><time>2026-04-11T13:37:32.626Z</time></trkpt><trkpt lat="43.52900815349367" lon="12.268003777532872"><ele>442.6</ele><time>2026-04-11T13:37:33.626Z</time></trkpt><trkpt lat="43.529099296532884" lon="12.268004363875747"><ele>445.2</ele><time>2026-04-11T13:37:34.624Z</time></trkpt><trkpt lat="43.52916321043449" lon="12.268011915829417"><ele>447.79999999999995</ele><time>2026-04-11T13:37:35.627Z</time></trkpt><trkpt lat="43.52925739847413" lon="12.268110383855827"><ele>450.4</ele><time>2026-04-11T13:37:37.624Z</time></trkpt><trkpt lat="43.52935811045781" lon="12.26817652834539"><ele>453.0</ele><time>2026-04-11T13:37:39.626Z</time></trkpt><trkpt lat="43.52948001351638" lon="12.268102547505302"><ele>453.5</ele><time>2026-04-11T13:37:41.625Z</time></trkpt><trkpt lat="43.529553161942715" lon="12.268085996930756"><ele>454.0</ele><time>2026-04-11T13:37:42.626Z</time></trkpt><trkpt lat="43.52962106962159" lon="12.268069740870002"><ele>454.5</ele><time>2026-04-11T13:37:43.627Z</time></trkpt><trkpt lat="43.529739241853036" lon="12.268029780730263"><ele>455.0</ele><time>2026-04-11T13:37:45.626Z</time></trkpt><trkpt lat="43.52992612090168" lon="12.267974863400873"><ele>459.2</ele><time>2026-04-11T13:37:48.625Z</time></trkpt><trkpt lat="43.53002322486331" lon="12.26798913725736"><ele>463.4</ele><time>2026-04-11T13:37:49.627Z</time></trkpt><trkpt lat="43.530113253990685" lon="12.26799511738197"><ele>467.6</ele><time>2026-04-11T13:37:50.627Z</time></trkpt><trkpt lat="43.5302015905956" lon="12.268001127065196"><ele>471.8</ele><time>2026-04-11T13:37:51.624Z</time></trkpt><trkpt lat="43.53026836081699" lon="12.267995948683446"><ele>476.0</ele><time>2026-04-11T13:37:52.626Z</time></trkpt><trkpt lat="43.53034274080167" lon="12.267859167101848"><ele>475.99999999999994</ele><time>2026-04-11T13:37:54.626Z</time></trkpt><trkpt lat="43.53037948460182" lon="12.267768123814069"><ele>476.0</ele><time>2026-04-11T13:37:55.626Z</time></trkpt><trkpt lat="43.53041639765478" lon="12.26767758278322"><ele>476.0</ele><time>2026-04-11T13:37:56.626Z</time></trkpt><trkpt lat="43.530473041053845" lon="12.267602869834509"><ele>476.0</ele><time>2026-04-11T13:37:57.628Z</time></trkpt><trkpt lat="43.530546167897384" lon="12.267577078268827"><ele>475.99999999999994</ele><time>2026-04-11T13:37:58.626Z</time></trkpt><trkpt lat="43.5306289078385" lon="12.267575506958972"><ele>476.0</ele><time>2026-04-11T13:37:59.624Z</time></trkpt><trkpt lat="43.5307027579499" lon="12.26761818733265"><ele>479.8333333333333</ele><time>2026-04-11T13:38:00.625Z</time></trkpt><trkpt lat="43.53075450600605" lon="12.267693790365643"><ele>483.66666666666663</ele><time>2026-04-11T13:38:01.625Z</time></trkpt><trkpt lat="43.530806995560624" lon="12.267794527314766"><ele>487.5</ele><time>2026-04-11T13:38:02.626Z</time></trkpt><trkpt lat="43.53086040488399" lon="12.26788938468662"><ele>491.33333333333337</ele><time>2026-04-11T13:38:03.623Z</time></trkpt><trkpt lat="43.53092075059645" lon="12.2679932085908"><ele>495.1666666666667</ele><time>2026-04-11T13:38:04.625Z</time></trkpt><trkpt lat="43.530951653048085" lon="12.268093660227047"><ele>499.0</ele><time>2026-04-11T13:38:05.624Z</time></trkpt><trkpt lat="43.530950593785875" lon="12.268228046154105"><ele>499.4</ele><time>2026-04-11T13:38:07.624Z</time></trkpt><trkpt lat="43.531023800604274" lon="12.268390140076093"><ele>499.79999999999995</ele><time>2026-04-11T13:38:09.625Z</time></trkpt><trkpt lat="43.5311557226085" lon="12.268483461197793"><ele>500.20000000000005</ele><time>2026-04-11T13:38:11.624Z</time></trkpt><trkpt lat="43.531210754314664" lon="12.268552486719216"><ele>500.6</ele><time>2026-04-11T13:38:12.625Z</time></trkpt><trkpt lat="43.53126395023441" lon="12.26861642885938"><ele>501.0</ele><time>2026-04-11T13:38:13.625Z</time></trkpt><trkpt lat="43.53134098777068" lon="12.268654415667159"><ele>505.0</ele><time>2026-04-11T13:38:15.625Z</time></trkpt><trkpt lat="43.53135832526112" lon="12.268520392797207"><ele>509.0</ele><time>2026-04-11T13:38:17.625Z</time></trkpt><trkpt lat="43.53132291801056" lon="12.268396834532538"><ele>513.0</ele><time>2026-04-11T13:38:19.626Z</time></trkpt><trkpt lat="43.5312990865005" lon="12.26827259356428"><ele>517.0</ele><time>2026-04-11T13:38:21.627Z</time></trkpt><trkpt lat="43.531350717502846" lon="12.26816108895284"><ele>521.0</ele><time>2026-04-11T13:38:23.626Z</time></trkpt><trkpt lat="43.53140100032898" lon="12.268068112831902"><ele>521.0</ele><time>2026-04-11T13:38:25.627Z</time></trkpt><trkpt lat="43.53145763518127" lon="12.268010980586325"><ele>521.0</ele><time>2026-04-11T13:38:27.628Z</time></trkpt><trkpt lat="43.53153836821713" lon="12.267940888550292"><ele>521.0</ele><time>2026-04-11T13:38:29.627Z</time></trkpt><trkpt lat="43.53171096908795" lon="12.267807149645297"><ele>521.0</ele><time>2026-04-11T13:38:33.627Z</time></trkpt><trkpt lat="43.53179818968126" lon="12.267801473964896"><ele>521.0</ele><time>2026-04-11T13:38:35.628Z</time></trkpt><trkpt lat="43.531878178409514" lon="12.267828679950702"><ele>521.0</ele><time>2026-04-11T13:38:37.626Z</time></trkpt><trkpt lat="43.53195673979015" lon="12.267927663332756"><ele>521.0</ele><time>2026-04-11T13:38:39.626Z</time></trkpt><trkpt lat="43.53199481470465" lon="12.268002508883272"><ele>521.0</ele><time>2026-04-11T13:38:40.625Z</time></trkpt><trkpt lat="43.532048573564765" lon="12.26805156608627"><ele>521.0</ele><time>2026-04-11T13:38:41.626Z</time></trkpt><trkpt lat="43.53211343170849" lon="12.268073738258098"><ele>521.0</ele><time>2026-04-11T13:38:42.625Z</time></trkpt><trkpt lat="43.5321813047257" lon="12.26806449832929"><ele>525.4</ele><time>2026-04-11T13:38:43.628Z</time></trkpt><trkpt lat="43.532300737272" lon="12.268020118217459"><ele>529.8</ele><time>2026-04-11T13:38:45.629Z</time></trkpt><trkpt lat="43.532369132321456" lon="12.26800673508394"><ele>534.1999999999999</ele><time>2026-04-11T13:38:46.626Z</time></trkpt><trkpt lat="43.532478837093706" lon="12.267936038476654"><ele>538.6</ele><time>2026-04-11T13:38:48.627Z</time></trkpt><trkpt lat="43.53258530722181" lon="12.267870342789513"><ele>543.0</ele><time>2026-04-11T13:38:50.627Z</time></trkpt><trkpt lat="43.53273216147403" lon="12.268043473167697"><ele>543.0</ele><time>2026-04-11T13:38:54.627Z</time></trkpt><trkpt lat="43.53279246415974" lon="12.268091340653012"><ele>543.0</ele><time>2026-04-11T13:38:55.627Z</time></trkpt><trkpt lat="43.532873431929175" lon="12.268050861867698"><ele>543.0</ele><time>2026-04-11T13:38:57.626Z</time></trkpt><trkpt lat="43.532943733880295" lon="12.26796517871559"><ele>543.0</ele><time>2026-04-11T13:38:59.627Z</time></trkpt><trkpt lat="43.53304464171724" lon="12.267959472539102"><ele>543.0</ele><time>2026-04-11T13:39:01.627Z</time></trkpt><trkpt lat="43.53313069519343" lon="12.267974780290638"><ele>543.0</ele><time>2026-04-11T13:39:03.627Z</time></trkpt><trkpt lat="43.53324370243971" lon="12.268025010414659"><ele>548.5</ele><time>2026-04-11T13:39:05.626Z</time></trkpt><trkpt lat="43.533344436615934" lon="12.268082644255133"><ele>554.0</ele><time>2026-04-11T13:39:07.628Z</time></trkpt><trkpt lat="43.533443134837135" lon="12.268001204446263"><ele>559.5</ele><time>2026-04-11T13:39:09.626Z</time></trkpt><trkpt lat="43.53354491270831" lon="12.267937722948977"><ele>565.0</ele><time>2026-04-11T13:39:11.627Z</time></trkpt><trkpt lat="43.533716568755175" lon="12.267899585770902"><ele>569.4</ele><time>2026-04-11T13:39:15.625Z</time></trkpt><trkpt lat="43.53379398931182" lon="12.267905014419176"><ele>573.8</ele><time>2026-04-11T13:39:17.626Z</time></trkpt><trkpt lat="43.53389901172642" lon="12.267926719420712"><ele>578.2</ele><time>2026-04-11T13:39:20.625Z</time></trkpt><trkpt lat="43.53397308833199" lon="12.267871527485054"><ele>582.6</ele><time>2026-04-11T13:39:22.626Z</time></trkpt><trkpt lat="43.53407030013538" lon="12.26781477106221"><ele>587.0</ele><time>2026-04-11T13:39:32.625Z</time></trkpt><trkpt lat="43.5342519547165" lon="12.267845044202044"><ele>587.0</ele><time>2026-04-11T13:39:35.626Z</time></trkpt><trkpt lat="43.53430097623441" lon="12.267913541700906"><ele>587.0</ele><time>2026-04-11T13:39:36.625Z</time></trkpt><trkpt lat="43.534371831945094" lon="12.26799445165334"><ele>587.0</ele><time>2026-04-11T13:39:37.626Z</time></trkpt><trkpt lat="43.53442436036877" lon="12.26807388885437"><ele>587.0</ele><time>2026-04-11T13:39:38.624Z</time></trkpt><trkpt lat="43.534535483410785" lon="12.268140171968538"><ele>587.0</ele><time>2026-04-11T13:39:40.626Z</time></trkpt><trkpt lat="43.53460041175942" lon="12.268121831784056"><ele>587.0</ele><time>2026-04-11T13:39:41.625Z</time></trkpt><trkpt lat="43.53472919754102" lon="12.268094153404107"><ele>590.8333333333333</ele><time>2026-04-11T13:39:43.624Z</time></trkpt><trkpt lat="43.53480506891125" lon="12.268123819666423"><ele>594.6666666666666</ele><time>2026-04-11T13:39:44.625Z</time></trkpt><trkpt lat="43.534880301244094" lon="12.268169279685706"><ele>598.5</ele><time>2026-04-11T13:39:45.626Z</time></trkpt><trkpt lat="43.534946217371655" lon="12.268229613813086"><ele>602.3333333333334</ele><time>2026-04-11T13:39:46.626Z</time></trkpt><trkpt lat="43.53500898053546" lon="12.268272297453848"><ele>606.1666666666667</ele><time>2026-04-11T13:39:47.625Z</time></trkpt><trkpt lat="43.535131363818735" lon="12.268274918862714"><ele>610.0</ele><time>2026-04-11T13:39:49.624Z</time></trkpt><trkpt lat="43.53523423844972" lon="12.268291656355762"><ele>610.0</ele><time>2026-04-11T13:39:51.624Z</time></trkpt><trkpt lat="43.5353080167623" lon="12.268267672925022"><ele>610.0</ele><time>2026-04-11T13:39:52.626Z</time></trkpt><trkpt lat="43.53542224861895" lon="12.268238475153646"><ele>610.0</ele><time>2026-04-11T13:39:54.624Z</time></trkpt><trkpt lat="43.535588083320086" lon="12.268125895255313"><ele>610.0</ele><time>2026-04-11T13:39:57.625Z</time></trkpt><trkpt lat="43.535655483119704" lon="12.268115125850104"><ele>610.0</ele><time>2026-04-11T13:39:58.625Z</time></trkpt><trkpt lat="43.53575460917763" lon="12.268070738962878"><ele>612.8</ele><time>2026-04-11T13:40:00.626Z</time></trkpt><trkpt lat="43.53581817137477" lon="12.268013639381536"><ele>615.6</ele><time>2026-04-11T13:40:01.627Z</time></trkpt><trkpt lat="43.53591857498714" lon="12.267914432013116"><ele>618.4</ele><time>2026-04-11T13:40:03.626Z</time></trkpt><trkpt lat="43.53601556086609" lon="12.267822101866505"><ele>621.2</ele><time>2026-04-11T13:40:05.625Z</time></trkpt><trkpt lat="43.53608124265327" lon="12.267798415578175"><ele>624.0</ele><time>2026-04-11T13:40:06.627Z</time></trkpt><trkpt lat="43.536143812859905" lon="12.267769382590117"><ele>624.6</ele><time>2026-04-11T13:40:07.627Z</time></trkpt><trkpt lat="43.53622863815009" lon="12.267814041673242"><ele>625.2</ele><time>2026-04-11T13:40:09.631Z</time></trkpt><trkpt lat="43.53633996449902" lon="12.2678937961136"><ele>625.8000000000001</ele><time>2026-04-11T13:40:11.626Z</time></trkpt><trkpt lat="43.53646501870439" lon="12.267842145591134"><ele>626.4</ele><time>2026-04-11T13:40:13.626Z</time></trkpt><trkpt lat="43.53653922059844" lon="12.267841268195196"><ele>627.0</ele><time>2026-04-11T13:40:14.627Z</time></trkpt><trkpt lat="43.53660469131218" lon="12.267890974908918"><ele>627.0</ele><time>2026-04-11T13:40:15.627Z</time></trkpt><trkpt lat="43.53676214480041" lon="12.267983040876306"><ele>627.0</ele><time>2026-04-11T13:40:19.625Z</time></trkpt><trkpt lat="43.53682744354811" lon="12.267996352671483"><ele>627.0</ele><time>2026-04-11T13:40:29.626Z</time></trkpt><trkpt lat="43.536893534100145" lon="12.268027002014872"><ele>627.0</ele><time>2026-04-11T13:40:33.627Z</time></trkpt><trkpt lat="43.53694712800908" lon="12.268162677922415"><ele>627.0</ele><time>2026-04-11T13:40:35.625Z</time></trkpt><trkpt lat="43.53698429363515" lon="12.268244757049782"><ele>630.25</ele><time>2026-04-11T13:40:36.626Z</time></trkpt><trkpt lat="43.537179697544836" lon="12.268321695302623"><ele>633.5</ele><time>2026-04-11T13:40:39.626Z</time></trkpt><trkpt lat="43.53723644656382" lon="12.268372451504115"><ele>636.75</ele><time>2026-04-11T13:40:40.625Z</time></trkpt><trkpt lat="43.537343310888545" lon="12.268411166088363"><ele>640.0</ele><time>2026-04-11T13:40:42.624Z</time></trkpt><trkpt lat="43.53743849818151" lon="12.268416539111067"><ele>640.0</ele><time>2026-04-11T13:40:45.626Z</time></trkpt><trkpt lat="43.53755749841164" lon="12.268453137908594"><ele>640.0</ele><time>2026-04-11T13:40:47.626Z</time></trkpt><trkpt lat="43.537624272858494" lon="12.268480758097915"><ele>640.0</ele><time>2026-04-11T13:40:48.625Z</time></trkpt><trkpt lat="43.53773796335785" lon="12.268502529714214"><ele>640.0</ele><time>2026-04-11T13:40:50.626Z</time></trkpt><trkpt lat="43.53781299139184" lon="12.268498629277717"><ele>640.0</ele><time>2026-04-11T13:40:51.626Z</time></trkpt><trkpt lat="43.537879359487256" lon="12.268510540016067"><ele>640.0</ele><time>2026-04-11T13:40:52.625Z</time></trkpt><trkpt lat="43.53795520117386" lon="12.268517918881406"><ele>642.2</ele><time>2026-04-11T13:40:53.624Z</time></trkpt><trkpt lat="43.538022144930885" lon="12.26850844759258"><ele>644.4</ele><time>2026-04-11T13:40:54.626Z</time></trkpt><trkpt lat="43.53809878425137" lon="12.26851865688704"><ele>646.5999999999999</ele><time>2026-04-11T13:40:55.625Z</time></trkpt><trkpt lat="43.53818383060001" lon="12.268615869521092"><ele>648.8</ele><time>2026-04-11T13:40:57.625Z</time></trkpt><trkpt lat="43.538336723245344" lon="12.268643433952613"><ele>651.0</ele><time>2026-04-11T13:40:59.624Z</time></trkpt><trkpt lat="43.5384033061262" lon="12.268647112727134"><ele>651.0</ele><time>2026-04-11T13:41:00.625Z</time></trkpt><trkpt lat="43.53847434269928" lon="12.268702803449914"><ele>651.0</ele><time>2026-04-11T13:41:01.623Z</time></trkpt><trkpt lat="43.538536818228565" lon="12.268772841332419"><ele>651.0</ele><time>2026-04-11T13:41:02.624Z</time></trkpt><trkpt lat="43.53856992204576" lon="12.268874683682482"><ele>651.0</ele><time>2026-04-11T13:41:03.625Z</time></trkpt><trkpt lat="43.53865861007073" lon="12.268968388163385"><ele>651.0</ele><time>2026-04-11T13:41:05.624Z</time></trkpt><trkpt lat="43.53871863937746" lon="12.269129545520045"><ele>654.8333333333334</ele><time>2026-04-11T13:41:07.622Z</time></trkpt><trkpt lat="43.53875240989331" lon="12.269214267192229"><ele>658.6666666666666</ele><time>2026-04-11T13:41:08.622Z</time></trkpt><trkpt lat="43.5387575835749" lon="12.269313167980098"><ele>662.5</ele><time>2026-04-11T13:41:09.622Z</time></trkpt><trkpt lat="43.53878318897334" lon="12.269393061203353"><ele>666.3333333333333</ele><time>2026-04-11T13:41:10.621Z</time></trkpt><trkpt lat="43.53888124159535" lon="12.269479111963504"><ele>670.1666666666666</ele><time>2026-04-11T13:41:12.62Z</time></trkpt><trkpt lat="43.5389478997748" lon="12.269543823984707"><ele>674.0</ele><time>2026-04-11T13:41:13.621Z</time></trkpt><trkpt lat="43.53901252773095" lon="12.269620256537534"><ele>674.0</ele><time>2026-04-11T13:41:14.622Z</time></trkpt><trkpt lat="43.5390761269606" lon="12.269669656658701"><ele>674.0</ele><time>2026-04-11T13:41:15.622Z</time></trkpt><trkpt lat="43.539153750111055" lon="12.269698401039518"><ele>674.0</ele><time>2026-04-11T13:41:16.624Z</time></trkpt><trkpt lat="43.539170290771615" lon="12.269798371110463"><ele>674.0</ele><time>2026-04-11T13:41:18.624Z</time></trkpt><trkpt lat="43.53910756207119" lon="12.270014431726258"><ele>674.0</ele><time>2026-04-11T13:41:26.625Z</time></trkpt><trkpt lat="43.5391017184799" lon="12.270104485142381"><ele>674.6</ele><time>2026-04-11T13:41:27.624Z</time></trkpt><trkpt lat="43.539096462129656" lon="12.270204408279078"><ele>675.2</ele><time>2026-04-11T13:41:28.623Z</time></trkpt><trkpt lat="43.53909947288042" lon="12.270338638071923"><ele>675.8000000000001</ele><time>2026-04-11T13:41:30.625Z</time></trkpt><trkpt lat="43.53918698275683" lon="12.270477158006004"><ele>676.4000000000001</ele><time>2026-04-11T13:41:32.623Z</time></trkpt><trkpt lat="43.539248364338505" lon="12.270560752022458"><ele>677.0</ele><time>2026-04-11T13:41:33.622Z</time></trkpt><trkpt lat="43.539309619923586" lon="12.270640645781112"><ele>677.0</ele><time>2026-04-11T13:41:34.624Z</time></trkpt><trkpt lat="43.53934290232915" lon="12.270738159094135"><ele>677.0</ele><time>2026-04-11T13:41:35.623Z</time></trkpt><trkpt lat="43.539397786814554" lon="12.270849763032803"><ele>677.0</ele><time>2026-04-11T13:41:36.622Z</time></trkpt><trkpt lat="43.539447671714164" lon="12.270964791037166"><ele>677.0</ele><time>2026-04-11T13:41:37.623Z</time></trkpt><trkpt lat="43.53949923301981" lon="12.271074197977939"><ele>677.0</ele><time>2026-04-11T13:41:38.622Z</time></trkpt><trkpt lat="43.53954281945646" lon="12.271175166744772"><ele>682.6</ele><time>2026-04-11T13:41:39.617Z</time></trkpt><trkpt lat="43.539602398990475" lon="12.27134807405915"><ele>688.2</ele><time>2026-04-11T13:41:41.621Z</time></trkpt><trkpt lat="43.539624676195324" lon="12.271446075224851"><ele>693.8</ele><time>2026-04-11T13:41:42.622Z</time></trkpt><trkpt lat="43.53964401755827" lon="12.271564330327386"><ele>699.4</ele><time>2026-04-11T13:41:43.623Z</time></trkpt><trkpt lat="43.53966956703384" lon="12.271683151963025"><ele>705.0</ele><time>2026-04-11T13:41:44.621Z</time></trkpt><trkpt lat="43.5397077535413" lon="12.27180321506925"><ele>705.4</ele><time>2026-04-11T13:41:45.622Z</time></trkpt><trkpt lat="43.53975998906702" lon="12.271931370335402"><ele>705.8</ele><time>2026-04-11T13:41:46.621Z</time></trkpt><trkpt lat="43.53980288072369" lon="12.272080907417962"><ele>706.2</ele><time>2026-04-11T13:41:47.622Z</time></trkpt><trkpt lat="43.539854815393156" lon="12.27220428947198"><ele>706.6</ele><time>2026-04-11T13:41:48.622Z</time></trkpt><trkpt lat="43.539903376038694" lon="12.272294278633987"><ele>707.0</ele><time>2026-04-11T13:41:49.62Z</time></trkpt><trkpt lat="43.53994564037281" lon="12.272391697481893"><ele>705.0</ele><time>2026-04-11T13:41:50.622Z</time></trkpt><trkpt lat="43.539997560435694" lon="12.272477526895502"><ele>703.0</ele><time>2026-04-11T13:41:51.622Z</time></trkpt><trkpt lat="43.54005476098841" lon="12.272593767349825"><ele>701.0</ele><time>2026-04-11T13:41:52.621Z</time></trkpt><trkpt lat="43.540124468442684" lon="12.272717653059381"><ele>699.0</ele><time>2026-04-11T13:41:53.623Z</time></trkpt><trkpt lat="43.540189350918745" lon="12.272851632718439"><ele>697.0</ele><time>2026-04-11T13:41:54.623Z</time></trkpt><trkpt lat="43.5402453233055" lon="12.272955433408274"><ele>697.0</ele><time>2026-04-11T13:41:55.623Z</time></trkpt><trkpt lat="43.54029797192545" lon="12.27304684391516"><ele>697.0</ele><time>2026-04-11T13:41:56.622Z</time></trkpt><trkpt lat="43.540375389042076" lon="12.273150792916109"><ele>697.0</ele><time>2026-04-11T13:41:57.624Z</time></trkpt><trkpt lat="43.54045046413424" lon="12.273248136831993"><ele>697.0</ele><time>2026-04-11T13:41:58.622Z</time></trkpt><trkpt lat="43.54050832629215" lon="12.273334016473306"><ele>697.0</ele><time>2026-04-11T13:41:59.624Z</time></trkpt><trkpt lat="43.54058595003667" lon="12.273409028809262"><ele>698.0</ele><time>2026-04-11T13:42:00.622Z</time></trkpt><trkpt lat="43.54076211564983" lon="12.273481631513254"><ele>699.0</ele><time>2026-04-11T13:42:02.623Z</time></trkpt><trkpt lat="43.540866705179546" lon="12.273499078201205"><ele>700.0</ele><time>2026-04-11T13:42:03.622Z</time></trkpt><trkpt lat="43.54096326883339" lon="12.273500902463228"><ele>701.0</ele><time>2026-04-11T13:42:04.621Z</time></trkpt><trkpt lat="43.54103907571455" lon="12.273513249185651"><ele>701.0</ele><time>2026-04-11T13:42:05.623Z</time></trkpt><trkpt lat="43.5411657444705" lon="12.273532329449525"><ele>701.0</ele><time>2026-04-11T13:42:07.623Z</time></trkpt><trkpt lat="43.54127312214778" lon="12.273554409480695"><ele>701.0</ele><time>2026-04-11T13:42:09.624Z</time></trkpt><trkpt lat="43.541365931018504" lon="12.273570541432758"><ele>701.0</ele><time>2026-04-11T13:42:10.623Z</time></trkpt><trkpt lat="43.54143866895953" lon="12.273600185402158"><ele>701.0</ele><time>2026-04-11T13:42:11.623Z</time></trkpt><trkpt lat="43.54151410593926" lon="12.273608209157477"><ele>699.3333333333333</ele><time>2026-04-11T13:42:12.623Z</time></trkpt><trkpt lat="43.54157792122543" lon="12.273602942088052"><ele>697.6666666666666</ele><time>2026-04-11T13:42:13.625Z</time></trkpt><trkpt lat="43.541669860813485" lon="12.273599531381375"><ele>696.0</ele><time>2026-04-11T13:42:15.625Z</time></trkpt><trkpt lat="43.54174325275695" lon="12.273674765562859"><ele>694.3333333333334</ele><time>2026-04-11T13:42:17.627Z</time></trkpt><trkpt lat="43.54180337234451" lon="12.273726401503016"><ele>692.6666666666667</ele><time>2026-04-11T13:42:19.628Z</time></trkpt><trkpt lat="43.54189581249907" lon="12.27382555871669"><ele>691.0</ele><time>2026-04-11T13:42:21.628Z</time></trkpt><trkpt lat="43.54202935588534" lon="12.273955635323924"><ele>689.5</ele><time>2026-04-11T13:42:23.626Z</time></trkpt><trkpt lat="43.54208154196265" lon="12.274013478328097"><ele>688.0</ele><time>2026-04-11T13:42:24.626Z</time></trkpt><trkpt lat="43.54212148362487" lon="12.274092902774644"><ele>686.5</ele><time>2026-04-11T13:42:25.624Z</time></trkpt><trkpt lat="43.54217913689299" lon="12.274187304176467"><ele>685.0</ele><time>2026-04-11T13:42:26.627Z</time></trkpt><trkpt lat="43.542227521179775" lon="12.274304700843986"><ele>683.5</ele><time>2026-04-11T13:42:27.625Z</time></trkpt><trkpt lat="43.54225963507818" lon="12.27446203514979"><ele>682.0</ele><time>2026-04-11T13:42:28.626Z</time></trkpt><trkpt lat="43.5422806811809" lon="12.274610776696724"><ele>682.0</ele><time>2026-04-11T13:42:29.628Z</time></trkpt><trkpt lat="43.5423282351727" lon="12.274733049478469"><ele>682.0</ele><time>2026-04-11T13:42:30.627Z</time></trkpt><trkpt lat="43.54238195954188" lon="12.274843840207915"><ele>682.0</ele><time>2026-04-11T13:42:31.627Z</time></trkpt><trkpt lat="43.54241995139446" lon="12.274957652552429"><ele>682.0</ele><time>2026-04-11T13:42:32.627Z</time></trkpt><trkpt lat="43.542458496781734" lon="12.275080057518961"><ele>682.0</ele><time>2026-04-11T13:42:33.627Z</time></trkpt><trkpt lat="43.542498818101706" lon="12.27519572935325"><ele>684.6</ele><time>2026-04-11T13:42:34.626Z</time></trkpt><trkpt lat="43.54258075213657" lon="12.275328330227484"><ele>687.2</ele><time>2026-04-11T13:42:36.627Z</time></trkpt><trkpt lat="43.54263382895148" lon="12.275407043654889"><ele>689.8</ele><time>2026-04-11T13:42:37.627Z</time></trkpt><trkpt lat="43.54268108854356" lon="12.275499665175214"><ele>692.4</ele><time>2026-04-11T13:42:38.625Z</time></trkpt><trkpt lat="43.5427160179661" lon="12.275572572044112"><ele>695.0</ele><time>2026-04-11T13:42:39.627Z</time></trkpt><trkpt lat="43.542777504865136" lon="12.275712710113279"><ele>695.4</ele><time>2026-04-11T13:42:41.627Z</time></trkpt><trkpt lat="43.542814393657494" lon="12.275799887766366"><ele>695.8</ele><time>2026-04-11T13:42:42.625Z</time></trkpt><trkpt lat="43.542901941513776" lon="12.276027192442212"><ele>696.2</ele><time>2026-04-11T13:42:45.626Z</time></trkpt><trkpt lat="43.542960071883066" lon="12.2761128310122"><ele>696.6</ele><time>2026-04-11T13:42:46.626Z</time></trkpt><trkpt lat="43.54300282980827" lon="12.276220018259396"><ele>697.0</ele><time>2026-04-11T13:42:47.627Z</time></trkpt><trkpt lat="43.543043865030974" lon="12.276369431064907"><ele>699.0</ele><time>2026-04-11T13:42:49.628Z</time></trkpt><trkpt lat="43.5430754766891" lon="12.276472943638643"><ele>701.0</ele><time>2026-04-11T13:42:51.625Z</time></trkpt><trkpt lat="43.54305541943656" lon="12.276611521158307"><ele>703.0</ele><time>2026-04-11T13:42:53.625Z</time></trkpt><trkpt lat="43.54299687957616" lon="12.27668947512723"><ele>705.0</ele><time>2026-04-11T13:42:58.627Z</time></trkpt><trkpt lat="43.54303011030217" lon="12.276851481393656"><ele>707.0</ele><time>2026-04-11T13:43:00.625Z</time></trkpt><trkpt lat="43.543032505172604" lon="12.276956346551149"><ele>707.0</ele><time>2026-04-11T13:43:01.625Z</time></trkpt><trkpt lat="43.5430238935989" lon="12.277073444567074"><ele>707.0</ele><time>2026-04-11T13:43:02.625Z</time></trkpt><trkpt lat="43.54302978203602" lon="12.277176639500821"><ele>707.0</ele><time>2026-04-11T13:43:03.624Z</time></trkpt><trkpt lat="43.543103687196734" lon="12.27731646362902"><ele>707.0</ele><time>2026-04-11T13:43:05.625Z</time></trkpt><trkpt lat="43.54314624756805" lon="12.277396744668382"><ele>707.0</ele><time>2026-04-11T13:43:06.626Z</time></trkpt><trkpt lat="43.54320659499623" lon="12.277454780690906"><ele>707.0</ele><time>2026-04-11T13:43:07.626Z</time></trkpt><trkpt lat="43.5432657399239" lon="12.277512069777776"><ele>708.8</ele><time>2026-04-11T13:43:08.625Z</time></trkpt><trkpt lat="43.54330347525888" lon="12.2776021357805"><ele>710.6</ele><time>2026-04-11T13:43:09.626Z</time></trkpt><trkpt lat="43.54330674176376" lon="12.277715532323954"><ele>712.4</ele><time>2026-04-11T13:43:10.625Z</time></trkpt><trkpt lat="43.543312631328305" lon="12.277858421241158"><ele>714.1999999999999</ele><time>2026-04-11T13:43:11.626Z</time></trkpt><trkpt lat="43.54335089926452" lon="12.2779865985383"><ele>716.0</ele><time>2026-04-11T13:43:12.625Z</time></trkpt><trkpt lat="43.5434039943006" lon="12.278110280505393"><ele>717.4</ele><time>2026-04-11T13:43:13.622Z</time></trkpt><trkpt lat="43.54345495820153" lon="12.278225177712798"><ele>718.8</ele><time>2026-04-11T13:43:14.624Z</time></trkpt><trkpt lat="43.54348282713649" lon="12.278341993065078"><ele>720.1999999999999</ele><time>2026-04-11T13:43:15.623Z</time></trkpt><trkpt lat="43.543547953216276" lon="12.278463928112215"><ele>721.5999999999999</ele><time>2026-04-11T13:43:16.623Z</time></trkpt><trkpt lat="43.54361016729273" lon="12.278587223584147"><ele>723.0</ele><time>2026-04-11T13:43:17.625Z</time></trkpt><trkpt lat="43.54364968150366" lon="12.278695568717895"><ele>723.0</ele><time>2026-04-11T13:43:18.624Z</time></trkpt><trkpt lat="43.543673955732224" lon="12.27878364732614"><ele>723.0</ele><time>2026-04-11T13:43:19.624Z</time></trkpt><trkpt lat="43.54367088144785" lon="12.278916733688703"><ele>723.0</ele><time>2026-04-11T13:43:21.624Z</time></trkpt><trkpt lat="43.54366352737209" lon="12.279007264204658"><ele>723.0</ele><time>2026-04-11T13:43:22.623Z</time></trkpt><trkpt lat="43.54366180378067" lon="12.279115226571843"><ele>723.0</ele><time>2026-04-11T13:43:23.625Z</time></trkpt><trkpt lat="43.54367074854573" lon="12.27925447395347"><ele>723.0</ele><time>2026-04-11T13:43:24.624Z</time></trkpt><trkpt lat="43.543749945515984" lon="12.279524207016012"><ele>721.5</ele><time>2026-04-11T13:43:26.624Z</time></trkpt><trkpt lat="43.54380942239498" lon="12.279653492110043"><ele>720.0</ele><time>2026-04-11T13:43:27.624Z</time></trkpt><trkpt lat="43.543867793269264" lon="12.279789650891319"><ele>718.5</ele><time>2026-04-11T13:43:28.622Z</time></trkpt><trkpt lat="43.54391714103923" lon="12.279932056800424"><ele>717.0</ele><time>2026-04-11T13:43:29.624Z</time></trkpt><trkpt lat="43.54397326634926" lon="12.280061804179857"><ele>717.0</ele><time>2026-04-11T13:43:30.625Z</time></trkpt><trkpt lat="43.544048603319965" lon="12.280169178847201"><ele>717.0</ele><time>2026-04-11T13:43:31.625Z</time></trkpt><trkpt lat="43.54413685088725" lon="12.280259726446833"><ele>717.0</ele><time>2026-04-11T13:43:32.623Z</time></trkpt><trkpt lat="43.544213914917385" lon="12.280349737185217"><ele>717.0</ele><time>2026-04-11T13:43:33.623Z</time></trkpt><trkpt lat="43.5442765698082" lon="12.280396636422907"><ele>717.0</ele><time>2026-04-11T13:43:34.625Z</time></trkpt><trkpt lat="43.54434640301958" lon="12.280439811211398"><ele>717.0</ele><time>2026-04-11T13:43:35.623Z</time></trkpt><trkpt lat="43.54443626963003" lon="12.280509999105224"><ele>717.0</ele><time>2026-04-11T13:43:36.625Z</time></trkpt><trkpt lat="43.54452138182957" lon="12.280595357249775"><ele>717.0</ele><time>2026-04-11T13:43:37.624Z</time></trkpt><trkpt lat="43.544583724682816" lon="12.280699486329848"><ele>717.0</ele><time>2026-04-11T13:43:38.625Z</time></trkpt><trkpt lat="43.54461481487613" lon="12.280834753710895"><ele>717.0</ele><time>2026-04-11T13:43:39.625Z</time></trkpt><trkpt lat="43.544637127599806" lon="12.280996121051242"><ele>717.4000000000001</ele><time>2026-04-11T13:43:40.626Z</time></trkpt><trkpt lat="43.54465704328231" lon="12.281145806880719"><ele>717.8000000000001</ele><time>2026-04-11T13:43:41.625Z</time></trkpt><trkpt lat="43.5446614980605" lon="12.281252023109452"><ele>718.2</ele><time>2026-04-11T13:43:42.626Z</time></trkpt><trkpt lat="43.54472117472288" lon="12.281349995497923"><ele>718.6</ele><time>2026-04-11T13:43:44.625Z</time></trkpt><trkpt lat="43.54479193057041" lon="12.281345193734026"><ele>719.0</ele><time>2026-04-11T13:43:45.625Z</time></trkpt><trkpt lat="43.544946338280745" lon="12.281392758066387"><ele>719.0</ele><time>2026-04-11T13:43:47.624Z</time></trkpt><trkpt lat="43.54504645341829" lon="12.28141081569258"><ele>719.0</ele><time>2026-04-11T13:43:49.626Z</time></trkpt><trkpt lat="43.54511586360346" lon="12.281428926389646"><ele>719.0</ele><time>2026-04-11T13:43:51.624Z</time></trkpt><trkpt lat="43.54518595071649" lon="12.281444807166032"><ele>719.0</ele><time>2026-04-11T13:43:56.625Z</time></trkpt><trkpt lat="43.54526454962022" lon="12.281458810550596"><ele>719.0</ele><time>2026-04-11T13:43:57.627Z</time></trkpt><trkpt lat="43.545352776169274" lon="12.281499305098581"><ele>719.0</ele><time>2026-04-11T13:43:58.623Z</time></trkpt><trkpt lat="43.54544038456728" lon="12.281561899386993"><ele>721.2</ele><time>2026-04-11T13:43:59.625Z</time></trkpt><trkpt lat="43.54554351281481" lon="12.281612874501686"><ele>723.4000000000001</ele><time>2026-04-11T13:44:00.626Z</time></trkpt><trkpt lat="43.545658128526576" lon="12.281662774125978"><ele>725.6</ele><time>2026-04-11T13:44:01.625Z</time></trkpt><trkpt lat="43.54575088430346" lon="12.281724306871238"><ele>727.8</ele><time>2026-04-11T13:44:02.624Z</time></trkpt><trkpt lat="43.54581928556748" lon="12.281802345013427"><ele>730.0</ele><time>2026-04-11T13:44:03.627Z</time></trkpt><trkpt lat="43.54588451975504" lon="12.281885636982873"><ele>730.0</ele><time>2026-04-11T13:44:04.627Z</time></trkpt><trkpt lat="43.54596838519302" lon="12.282002857393273"><ele>730.0</ele><time>2026-04-11T13:44:05.625Z</time></trkpt><trkpt lat="43.546033078380695" lon="12.282146665229321"><ele>730.0</ele><time>2026-04-11T13:44:06.625Z</time></trkpt><trkpt lat="43.54613895621541" lon="12.282344946107365"><ele>730.0</ele><time>2026-04-11T13:44:08.625Z</time></trkpt><trkpt lat="43.54619746011116" lon="12.282415869270352"><ele>729.2</ele><time>2026-04-11T13:44:09.625Z</time></trkpt><trkpt lat="43.5462814298111" lon="12.282460305915068"><ele>728.4</ele><time>2026-04-11T13:44:10.624Z</time></trkpt><trkpt lat="43.546385916493115" lon="12.282498778681061"><ele>727.5999999999999</ele><time>2026-04-11T13:44:11.624Z</time></trkpt><trkpt lat="43.54650184779607" lon="12.282565603748864"><ele>726.8</ele><time>2026-04-11T13:44:12.627Z</time></trkpt><trkpt lat="43.54661070864738" lon="12.282637561759042"><ele>726.0</ele><time>2026-04-11T13:44:13.627Z</time></trkpt><trkpt lat="43.546703116096374" lon="12.282674865190275"><ele>726.0</ele><time>2026-04-11T13:44:14.625Z</time></trkpt><trkpt lat="43.546778295510315" lon="12.28272823253833"><ele>726.0</ele><time>2026-04-11T13:44:15.626Z</time></trkpt><trkpt lat="43.5468569271856" lon="12.282817010088271"><ele>726.0</ele><time>2026-04-11T13:44:16.627Z</time></trkpt><trkpt lat="43.54695730586577" lon="12.282903412285213"><ele>726.0</ele><time>2026-04-11T13:44:17.626Z</time></trkpt><trkpt lat="43.547064541013704" lon="12.282990132749735"><ele>726.0</ele><time>2026-04-11T13:44:18.627Z</time></trkpt><trkpt lat="43.54716927636749" lon="12.283074642763207"><ele>724.6666666666666</ele><time>2026-04-11T13:44:19.625Z</time></trkpt><trkpt lat="43.54726448180918" lon="12.283134638937486"><ele>723.3333333333334</ele><time>2026-04-11T13:44:20.625Z</time></trkpt><trkpt lat="43.54735356011212" lon="12.283166270030108"><ele>722.0</ele><time>2026-04-11T13:44:21.627Z</time></trkpt><trkpt lat="43.54743091737709" lon="12.28318335990304"><ele>720.6666666666667</ele><time>2026-04-11T13:44:22.626Z</time></trkpt><trkpt lat="43.54750319278244" lon="12.283222633736601"><ele>719.3333333333334</ele><time>2026-04-11T13:44:23.626Z</time></trkpt><trkpt lat="43.54756273348775" lon="12.283302701566006"><ele>718.0</ele><time>2026-04-11T13:44:24.624Z</time></trkpt><trkpt lat="43.547649645193" lon="12.283405490600073"><ele>718.0</ele><time>2026-04-11T13:44:25.625Z</time></trkpt><trkpt lat="43.54772800864571" lon="12.283512328218803"><ele>718.0</ele><time>2026-04-11T13:44:26.624Z</time></trkpt><trkpt lat="43.54780848526306" lon="12.283617349307455"><ele>718.0</ele><time>2026-04-11T13:44:27.624Z</time></trkpt><trkpt lat="43.5479358131969" lon="12.283816966320376"><ele>718.0</ele><time>2026-04-11T13:44:29.624Z</time></trkpt><trkpt lat="43.54798889974763" lon="12.283910653405407"><ele>716.25</ele><time>2026-04-11T13:44:30.625Z</time></trkpt><trkpt lat="43.548038545077524" lon="12.284030751193265"><ele>714.5</ele><time>2026-04-11T13:44:31.625Z</time></trkpt><trkpt lat="43.54811922144125" lon="12.284149000922108"><ele>712.75</ele><time>2026-04-11T13:44:32.626Z</time></trkpt><trkpt lat="43.54821180557904" lon="12.284280859362768"><ele>711.0</ele><time>2026-04-11T13:44:33.624Z</time></trkpt><trkpt lat="43.54829847832006" lon="12.284387917614003"><ele>711.0</ele><time>2026-04-11T13:44:34.625Z</time></trkpt><trkpt lat="43.548386670192954" lon="12.284483339958104"><ele>711.0</ele><time>2026-04-11T13:44:35.624Z</time></trkpt><trkpt lat="43.54848737336377" lon="12.284601829614518"><ele>711.0</ele><time>2026-04-11T13:44:36.623Z</time></trkpt><trkpt lat="43.54858360992245" lon="12.284730557856738"><ele>711.0</ele><time>2026-04-11T13:44:37.624Z</time></trkpt><trkpt lat="43.54866981640982" lon="12.284874149976329"><ele>711.8</ele><time>2026-04-11T13:44:38.624Z</time></trkpt><trkpt lat="43.54873518167275" lon="12.285001478544219"><ele>712.5999999999999</ele><time>2026-04-11T13:44:39.622Z</time></trkpt><trkpt lat="43.54876852757529" lon="12.28512516888781"><ele>713.4</ele><time>2026-04-11T13:44:40.622Z</time></trkpt><trkpt lat="43.548778824006085" lon="12.285271342999783"><ele>714.2</ele><time>2026-04-11T13:44:41.623Z</time></trkpt><trkpt lat="43.54877318591562" lon="12.285446022172598"><ele>715.0</ele><time>2026-04-11T13:44:42.623Z</time></trkpt><trkpt lat="43.548785982893506" lon="12.285610604439375"><ele>716.6666666666667</ele><time>2026-04-11T13:44:43.624Z</time></trkpt><trkpt lat="43.548806127338175" lon="12.285732311059633"><ele>718.3333333333334</ele><time>2026-04-11T13:44:44.623Z</time></trkpt><trkpt lat="43.54883453833424" lon="12.285840798451156"><ele>720.0</ele><time>2026-04-11T13:44:45.624Z</time></trkpt><trkpt lat="43.548872102966754" lon="12.285930563474121"><ele>721.6666666666666</ele><time>2026-04-11T13:44:46.625Z</time></trkpt><trkpt lat="43.54890402260791" lon="12.286019578073478"><ele>723.3333333333333</ele><time>2026-04-11T13:44:47.624Z</time></trkpt><trkpt lat="43.548940750145505" lon="12.28614169646807"><ele>725.0</ele><time>2026-04-11T13:44:48.624Z</time></trkpt><trkpt lat="43.5489958860505" lon="12.286382033307293"><ele>726.4</ele><time>2026-04-11T13:44:50.624Z</time></trkpt><trkpt lat="43.54903437070789" lon="12.286532541278712"><ele>727.8</ele><time>2026-04-11T13:44:51.624Z</time></trkpt><trkpt lat="43.54907392791872" lon="12.286687691686817"><ele>729.2</ele><time>2026-04-11T13:44:52.625Z</time></trkpt><trkpt lat="43.54909539792393" lon="12.286806025401177"><ele>730.6</ele><time>2026-04-11T13:44:53.624Z</time></trkpt><trkpt lat="43.549150424640196" lon="12.286913886236913"><ele>732.0</ele><time>2026-04-11T13:44:54.623Z</time></trkpt><trkpt lat="43.54922451153659" lon="12.286997488058164"><ele>732.0</ele><time>2026-04-11T13:44:55.624Z</time></trkpt><trkpt lat="43.54929963419138" lon="12.28705410366581"><ele>732.0</ele><time>2026-04-11T13:44:56.625Z</time></trkpt><trkpt lat="43.54939482582325" lon="12.287115902724606"><ele>732.0</ele><time>2026-04-11T13:44:58.624Z</time></trkpt><trkpt lat="43.54949393070607" lon="12.287173962771693"><ele>732.0</ele><time>2026-04-11T13:44:59.624Z</time></trkpt><trkpt lat="43.54957503398659" lon="12.287256678061977"><ele>732.0</ele><time>2026-04-11T13:45:00.624Z</time></trkpt><trkpt lat="43.54967485062458" lon="12.287340616921274"><ele>732.8</ele><time>2026-04-11T13:45:01.624Z</time></trkpt><trkpt lat="43.549761442441095" lon="12.287422361494091"><ele>733.6</ele><time>2026-04-11T13:45:02.624Z</time></trkpt><trkpt lat="43.54985602162868" lon="12.287490838564786"><ele>734.4</ele><time>2026-04-11T13:45:03.625Z</time></trkpt><trkpt lat="43.54993099235342" lon="12.287536414895557"><ele>735.1999999999999</ele><time>2026-04-11T13:45:04.624Z</time></trkpt><trkpt lat="43.55000398101461" lon="12.28755938468622"><ele>736.0</ele><time>2026-04-11T13:45:05.624Z</time></trkpt><trkpt lat="43.5500913274916" lon="12.287552647173403"><ele>736.0</ele><time>2026-04-11T13:45:06.623Z</time></trkpt><trkpt lat="43.55017573179348" lon="12.287549506959971"><ele>736.0</ele><time>2026-04-11T13:45:07.624Z</time></trkpt><trkpt lat="43.55024524733558" lon="12.287601791483615"><ele>736.0</ele><time>2026-04-11T13:45:08.624Z</time></trkpt><trkpt lat="43.55030128403281" lon="12.287698095310452"><ele>736.0</ele><time>2026-04-11T13:45:09.624Z</time></trkpt><trkpt lat="43.55043612216948" lon="12.287846328910506"><ele>736.0</ele><time>2026-04-11T13:45:11.625Z</time></trkpt><trkpt lat="43.55051172030244" lon="12.287899668024128"><ele>736.1999999999999</ele><time>2026-04-11T13:45:12.625Z</time></trkpt><trkpt lat="43.550582865688256" lon="12.287973590389385"><ele>736.4</ele><time>2026-04-11T13:45:13.626Z</time></trkpt><trkpt lat="43.550633529627376" lon="12.288083783368986"><ele>736.6</ele><time>2026-04-11T13:45:14.627Z</time></trkpt><trkpt lat="43.55067769955664" lon="12.28821260667349"><ele>736.8</ele><time>2026-04-11T13:45:15.624Z</time></trkpt><trkpt lat="43.5507494629206" lon="12.288331251263173"><ele>737.0</ele><time>2026-04-11T13:45:16.625Z</time></trkpt><trkpt lat="43.55083199194764" lon="12.288395833790519"><ele>737.0</ele><time>2026-04-11T13:45:17.624Z</time></trkpt><trkpt lat="43.55090486866032" lon="12.28843201920718"><ele>737.0</ele><time>2026-04-11T13:45:18.627Z</time></trkpt><trkpt lat="43.55096484157192" lon="12.2884810489038"><ele>737.0</ele><time>2026-04-11T13:45:19.625Z</time></trkpt><trkpt lat="43.55105473578346" lon="12.288551242120928"><ele>737.0</ele><time>2026-04-11T13:45:20.625Z</time></trkpt><trkpt lat="43.55115147712517" lon="12.288622727620787"><ele>737.0</ele><time>2026-04-11T13:45:21.624Z</time></trkpt><trkpt lat="43.551244575820284" lon="12.288652111952143"><ele>735.8</ele><time>2026-04-11T13:45:22.624Z</time></trkpt><trkpt lat="43.551328218431344" lon="12.28864025879596"><ele>734.6</ele><time>2026-04-11T13:45:23.623Z</time></trkpt><trkpt lat="43.551405308719" lon="12.288629692243639"><ele>733.4</ele><time>2026-04-11T13:45:24.624Z</time></trkpt><trkpt lat="43.55148571258124" lon="12.28867813814394"><ele>732.1999999999999</ele><time>2026-04-11T13:45:26.621Z</time></trkpt><trkpt lat="43.5515730238891" lon="12.288748582007234"><ele>731.0</ele><time>2026-04-11T13:46:49.621Z</time></trkpt><trkpt lat="43.55173432648585" lon="12.288778846803236"><ele>731.0</ele><time>2026-04-11T13:47:00.622Z</time></trkpt><trkpt lat="43.55180536850362" lon="12.288767100181314"><ele>731.0</ele><time>2026-04-11T13:47:02.621Z</time></trkpt><trkpt lat="43.55190542694284" lon="12.288776771915522"><ele>731.0</ele><time>2026-04-11T13:47:04.622Z</time></trkpt><trkpt lat="43.55199391326355" lon="12.288823368736228"><ele>731.0</ele><time>2026-04-11T13:47:06.622Z</time></trkpt><trkpt lat="43.552102916470346" lon="12.288872901447546"><ele>731.0</ele><time>2026-04-11T13:47:08.621Z</time></trkpt><trkpt lat="43.55215903853948" lon="12.288913377641931"><ele>731.0</ele><time>2026-04-11T13:47:09.622Z</time></trkpt><trkpt lat="43.55221495377519" lon="12.288958364300534"><ele>734.8</ele><time>2026-04-11T13:47:10.622Z</time></trkpt><trkpt lat="43.55234486821845" lon="12.28907788038271"><ele>738.5999999999999</ele><time>2026-04-11T13:47:12.623Z</time></trkpt><trkpt lat="43.55241818172759" lon="12.289146267179992"><ele>742.4</ele><time>2026-04-11T13:47:13.623Z</time></trkpt><trkpt lat="43.55249685525549" lon="12.28922143954917"><ele>746.2</ele><time>2026-04-11T13:47:14.624Z</time></trkpt><trkpt lat="43.552572797082405" lon="12.289293481151926"><ele>750.0</ele><time>2026-04-11T13:47:15.625Z</time></trkpt><trkpt lat="43.55265910476072" lon="12.289336071329503"><ele>750.0</ele><time>2026-04-11T13:47:16.623Z</time></trkpt><trkpt lat="43.552742213346264" lon="12.289381025358662"><ele>750.0</ele><time>2026-04-11T13:47:17.624Z</time></trkpt><trkpt lat="43.55281490615044" lon="12.289458922325807"><ele>750.0</ele><time>2026-04-11T13:47:18.624Z</time></trkpt><trkpt lat="43.5528815995542" lon="12.289532118268497"><ele>750.0</ele><time>2026-04-11T13:47:19.625Z</time></trkpt><trkpt lat="43.55297317290117" lon="12.28959465742176"><ele>750.0</ele><time>2026-04-11T13:47:20.623Z</time></trkpt><trkpt lat="43.5530607555819" lon="12.28963907366475"><ele>750.4</ele><time>2026-04-11T13:47:21.624Z</time></trkpt><trkpt lat="43.5531608426665" lon="12.289682153667545"><ele>750.8</ele><time>2026-04-11T13:47:22.623Z</time></trkpt><trkpt lat="43.553255879266914" lon="12.289732561084358"><ele>751.2</ele><time>2026-04-11T13:47:23.622Z</time></trkpt><trkpt lat="43.55335045274389" lon="12.289794348153903"><ele>751.6</ele><time>2026-04-11T13:47:24.624Z</time></trkpt><trkpt lat="43.55340894626837" lon="12.289873136776523"><ele>752.0</ele><time>2026-04-11T13:47:25.621Z</time></trkpt><trkpt lat="43.55346630683336" lon="12.289973535098538"><ele>753.3333333333333</ele><time>2026-04-11T13:47:26.623Z</time></trkpt><trkpt lat="43.55355697493593" lon="12.290053106355035"><ele>754.6666666666666</ele><time>2026-04-11T13:47:27.622Z</time></trkpt><trkpt lat="43.55362522946549" lon="12.290072919608324"><ele>756.0</ele><time>2026-04-11T13:47:28.623Z</time></trkpt><trkpt lat="43.553705478166975" lon="12.290112385096759"><ele>757.3333333333334</ele><time>2026-04-11T13:47:29.625Z</time></trkpt><trkpt lat="43.55378401684445" lon="12.290199156401158"><ele>758.6666666666667</ele><time>2026-04-11T13:47:30.624Z</time></trkpt><trkpt lat="43.55382598849707" lon="12.290297355168965"><ele>760.0</ele><time>2026-04-11T13:47:31.624Z</time></trkpt><trkpt lat="43.5538656483561" lon="12.290499742286451"><ele>762.6666666666667</ele><time>2026-04-11T13:47:33.624Z</time></trkpt><trkpt lat="43.55385898569468" lon="12.290606821315855"><ele>765.3333333333334</ele><time>2026-04-11T13:47:34.621Z</time></trkpt><trkpt lat="43.55386105398089" lon="12.290722477082268"><ele>768.0</ele><time>2026-04-11T13:47:35.623Z</time></trkpt><trkpt lat="43.55389185677938" lon="12.29081679817559"><ele>770.6666666666667</ele><time>2026-04-11T13:47:36.621Z</time></trkpt><trkpt lat="43.55395962164301" lon="12.29087292544587"><ele>773.3333333333334</ele><time>2026-04-11T13:47:37.623Z</time></trkpt><trkpt lat="43.554056141754884" lon="12.29093927321637"><ele>776.0</ele><time>2026-04-11T13:47:38.624Z</time></trkpt><trkpt lat="43.55414612857767" lon="12.29101000355251"><ele>776.0</ele><time>2026-04-11T13:47:39.625Z</time></trkpt><trkpt lat="43.554229618589645" lon="12.291122235032876"><ele>776.0</ele><time>2026-04-11T13:47:40.621Z</time></trkpt><trkpt lat="43.554326559315086" lon="12.291216524913136"><ele>776.0</ele><time>2026-04-11T13:47:41.625Z</time></trkpt><trkpt lat="43.554449695522486" lon="12.291285973578187"><ele>776.0</ele><time>2026-04-11T13:47:42.623Z</time></trkpt><trkpt lat="43.554555333119566" lon="12.29134693815211"><ele>775.6666666666667</ele><time>2026-04-11T13:47:43.621Z</time></trkpt><trkpt lat="43.55465068794198" lon="12.291412108330757"><ele>775.3333333333334</ele><time>2026-04-11T13:47:44.621Z</time></trkpt><trkpt lat="43.55473217912245" lon="12.291496689857002"><ele>775.0</ele><time>2026-04-11T13:47:45.623Z</time></trkpt><trkpt lat="43.55480391988522" lon="12.291562514186422"><ele>774.6666666666667</ele><time>2026-04-11T13:47:46.622Z</time></trkpt><trkpt lat="43.554878169433785" lon="12.29158917602306"><ele>774.3333333333334</ele><time>2026-04-11T13:47:47.621Z</time></trkpt><trkpt lat="43.55494550924438" lon="12.291601784551464"><ele>774.0</ele><time>2026-04-11T13:47:48.622Z</time></trkpt><trkpt lat="43.555032536661216" lon="12.291650015420231"><ele>778.25</ele><time>2026-04-11T13:47:50.622Z</time></trkpt><trkpt lat="43.555144645116734" lon="12.291673444354315"><ele>782.5</ele><time>2026-04-11T13:47:58.623Z</time></trkpt><trkpt lat="43.5553005483017" lon="12.291664050785858"><ele>786.75</ele><time>2026-04-11T13:48:01.624Z</time></trkpt><trkpt lat="43.55537827948017" lon="12.29165055548566"><ele>791.0</ele><time>2026-04-11T13:48:02.625Z</time></trkpt><trkpt lat="43.555487484677165" lon="12.291727855138163"><ele>791.8333333333334</ele><time>2026-04-11T13:48:04.622Z</time></trkpt><trkpt lat="43.55556510145678" lon="12.291790129310497"><ele>792.6666666666667</ele><time>2026-04-11T13:48:05.622Z</time></trkpt><trkpt lat="43.55565031962582" lon="12.29182912644302"><ele>793.5</ele><time>2026-04-11T13:48:06.623Z</time></trkpt><trkpt lat="43.55573608539347" lon="12.291852364641938"><ele>794.3333333333333</ele><time>2026-04-11T13:48:07.624Z</time></trkpt><trkpt lat="43.55582074086886" lon="12.291895617929514"><ele>795.1666666666666</ele><time>2026-04-11T13:48:08.623Z</time></trkpt><trkpt lat="43.55589897345094" lon="12.291961370030796"><ele>796.0</ele><time>2026-04-11T13:48:09.624Z</time></trkpt><trkpt lat="43.55596703455092" lon="12.292036483634591"><ele>795.9999999999999</ele><time>2026-04-11T13:48:10.622Z</time></trkpt><trkpt lat="43.55602502849603" lon="12.292119236492635"><ele>796.0</ele><time>2026-04-11T13:48:11.623Z</time></trkpt><trkpt lat="43.55608987080086" lon="12.292204949408143"><ele>796.0</ele><time>2026-04-11T13:48:12.623Z</time></trkpt><trkpt lat="43.55613502441288" lon="12.29231040478107"><ele>796.0</ele><time>2026-04-11T13:48:13.622Z</time></trkpt><trkpt lat="43.55617923721625" lon="12.29242604495393"><ele>795.9999999999999</ele><time>2026-04-11T13:48:14.621Z</time></trkpt><trkpt lat="43.55619906797945" lon="12.292536883862423"><ele>796.0</ele><time>2026-04-11T13:48:15.623Z</time></trkpt><trkpt lat="43.55621905479406" lon="12.292629441226262"><ele>797.8</ele><time>2026-04-11T13:48:16.623Z</time></trkpt><trkpt lat="43.55626849950041" lon="12.292685377040215"><ele>799.5999999999999</ele><time>2026-04-11T13:48:17.626Z</time></trkpt><trkpt lat="43.556332237996756" lon="12.292747597533598"><ele>801.4</ele><time>2026-04-11T13:48:18.625Z</time></trkpt><trkpt lat="43.556392186301416" lon="12.292814337013816"><ele>803.2</ele><time>2026-04-11T13:48:19.624Z</time></trkpt><trkpt lat="43.55650437139126" lon="12.293032359644064"><ele>805.0</ele><time>2026-04-11T13:48:21.625Z</time></trkpt><trkpt lat="43.556557427867766" lon="12.293113131356108"><ele>807.6666666666666</ele><time>2026-04-11T13:48:22.624Z</time></trkpt><trkpt lat="43.556665486086764" lon="12.293192568887944"><ele>810.3333333333333</ele><time>2026-04-11T13:48:24.623Z</time></trkpt><trkpt lat="43.556740464694194" lon="12.293239648434096"><ele>813.0</ele><time>2026-04-11T13:48:25.624Z</time></trkpt><trkpt lat="43.556797302067515" lon="12.293303973101118"><ele>815.6666666666667</ele><time>2026-04-11T13:48:26.624Z</time></trkpt><trkpt lat="43.556848063213266" lon="12.293398003152491"><ele>818.3333333333334</ele><time>2026-04-11T13:48:27.624Z</time></trkpt><trkpt lat="43.556883303517864" lon="12.293493969016986"><ele>821.0</ele><time>2026-04-11T13:48:28.623Z</time></trkpt><trkpt lat="43.55691473837785" lon="12.293608722316451"><ele>821.0</ele><time>2026-04-11T13:48:29.624Z</time></trkpt><trkpt lat="43.55693856466329" lon="12.29373259176194"><ele>821.0</ele><time>2026-04-11T13:48:30.624Z</time></trkpt><trkpt lat="43.5569813384737" lon="12.293871168396256"><ele>821.0</ele><time>2026-04-11T13:48:31.624Z</time></trkpt><trkpt lat="43.55703765052034" lon="12.293971046036882"><ele>821.0</ele><time>2026-04-11T13:48:32.622Z</time></trkpt><trkpt lat="43.557121687411914" lon="12.294054317605745"><ele>821.0</ele><time>2026-04-11T13:48:33.625Z</time></trkpt><trkpt lat="43.557209411525896" lon="12.294115302781691"><ele>824.6666666666667</ele><time>2026-04-11T13:48:34.623Z</time></trkpt><trkpt lat="43.55728268885497" lon="12.294170630090763"><ele>828.3333333333334</ele><time>2026-04-11T13:48:35.623Z</time></trkpt><trkpt lat="43.55736129641963" lon="12.294234345183595"><ele>832.0</ele><time>2026-04-11T13:48:36.625Z</time></trkpt><trkpt lat="43.55743280264677" lon="12.29431955044297"><ele>835.6666666666667</ele><time>2026-04-11T13:48:37.622Z</time></trkpt><trkpt lat="43.557488507406376" lon="12.294401218417496"><ele>839.3333333333334</ele><time>2026-04-11T13:48:38.624Z</time></trkpt><trkpt lat="43.557541545616274" lon="12.294457317909043"><ele>843.0</ele><time>2026-04-11T13:48:39.623Z</time></trkpt><trkpt lat="43.557593629419266" lon="12.294514622216672"><ele>843.0</ele><time>2026-04-11T13:48:40.623Z</time></trkpt><trkpt lat="43.5577316930306" lon="12.294631844691688"><ele>843.0</ele><time>2026-04-11T13:48:43.625Z</time></trkpt><trkpt lat="43.55780101187912" lon="12.29469740802414"><ele>843.0</ele><time>2026-04-11T13:48:44.622Z</time></trkpt><trkpt lat="43.557846458336215" lon="12.294772090149797"><ele>843.0</ele><time>2026-04-11T13:48:45.623Z</time></trkpt><trkpt lat="43.55788851550642" lon="12.294850695796377"><ele>843.0</ele><time>2026-04-11T13:48:46.624Z</time></trkpt><trkpt lat="43.55793299656931" lon="12.294924018534381"><ele>847.75</ele><time>2026-04-11T13:48:47.623Z</time></trkpt><trkpt lat="43.55803599273991" lon="12.2950712746704"><ele>852.5</ele><time>2026-04-11T13:48:49.622Z</time></trkpt><trkpt lat="43.55809197498709" lon="12.295142752100334"><ele>857.25</ele><time>2026-04-11T13:48:50.624Z</time></trkpt><trkpt lat="43.55816388909486" lon="12.295200098750275"><ele>862.0</ele><time>2026-04-11T13:48:51.623Z</time></trkpt><trkpt lat="43.55830750356012" lon="12.295323363472386"><ele>861.9999999999999</ele><time>2026-04-11T13:48:53.624Z</time></trkpt><trkpt lat="43.55835860339724" lon="12.295414978080812"><ele>862.0</ele><time>2026-04-11T13:48:54.624Z</time></trkpt><trkpt lat="43.55840144162415" lon="12.295521049861769"><ele>862.0</ele><time>2026-04-11T13:48:55.622Z</time></trkpt><trkpt lat="43.55847077051489" lon="12.295609740977925"><ele>862.0</ele><time>2026-04-11T13:48:56.623Z</time></trkpt><trkpt lat="43.55854135801666" lon="12.295661444192735"><ele>861.9999999999999</ele><time>2026-04-11T13:48:57.623Z</time></trkpt><trkpt lat="43.55860085229143" lon="12.295753785682217"><ele>862.0</ele><time>2026-04-11T13:48:58.623Z</time></trkpt><trkpt lat="43.55864599037796" lon="12.29586439960631"><ele>863.25</ele><time>2026-04-11T13:48:59.623Z</time></trkpt><trkpt lat="43.55871405330333" lon="12.29597659580174"><ele>864.5</ele><time>2026-04-11T13:49:00.625Z</time></trkpt><trkpt lat="43.55879491592165" lon="12.296091290688437"><ele>865.75</ele><time>2026-04-11T13:49:01.623Z</time></trkpt><trkpt lat="43.55888132184305" lon="12.296370516642552"><ele>867.0</ele><time>2026-04-11T13:49:03.622Z</time></trkpt><trkpt lat="43.558920790308" lon="12.29650128162197"><ele>870.4000000000001</ele><time>2026-04-11T13:49:04.623Z</time></trkpt><trkpt lat="43.55894998090376" lon="12.296613828786356"><ele>873.8000000000001</ele><time>2026-04-11T13:49:05.621Z</time></trkpt><trkpt lat="43.5589533223347" lon="12.296755059885568"><ele>877.2</ele><time>2026-04-11T13:49:06.621Z</time></trkpt><trkpt lat="43.55895736908662" lon="12.296914391969509"><ele>880.6</ele><time>2026-04-11T13:49:07.623Z</time></trkpt><trkpt lat="43.55893014175739" lon="12.297030878124197"><ele>884.0</ele><time>2026-04-11T13:49:08.621Z</time></trkpt><trkpt lat="43.55894786254828" lon="12.297119958447436"><ele>884.0</ele><time>2026-04-11T13:49:10.621Z</time></trkpt><trkpt lat="43.55896459576721" lon="12.297251114096223"><ele>884.0</ele><time>2026-04-11T13:49:18.624Z</time></trkpt><trkpt lat="43.55901187405798" lon="12.297388134043553"><ele>884.0</ele><time>2026-04-11T13:49:20.619Z</time></trkpt><trkpt lat="43.55907277537634" lon="12.29751490381318"><ele>884.0</ele><time>2026-04-11T13:49:22.62Z</time></trkpt><trkpt lat="43.55914688302904" lon="12.297768492150562"><ele>885.0</ele><time>2026-04-11T13:49:26.619Z</time></trkpt><trkpt lat="43.55911624209681" lon="12.297871172717716"><ele>886.0000000000001</ele><time>2026-04-11T13:49:28.621Z</time></trkpt><trkpt lat="43.55909887103633" lon="12.298007417599203"><ele>887.0000000000001</ele><time>2026-04-11T13:49:30.622Z</time></trkpt><trkpt lat="43.55909876986676" lon="12.2981347566497"><ele>888.0</ele><time>2026-04-11T13:49:32.622Z</time></trkpt><trkpt lat="43.55909343746479" lon="12.29826664686949"><ele>889.0</ele><time>2026-04-11T13:49:34.622Z</time></trkpt><trkpt lat="43.559121322044994" lon="12.298434676859433"><ele>889.8000000000001</ele><time>2026-04-11T13:49:36.621Z</time></trkpt><trkpt lat="43.559128931910735" lon="12.29857157296612"><ele>890.6000000000001</ele><time>2026-04-11T13:49:37.623Z</time></trkpt><trkpt lat="43.55912827401455" lon="12.298692455329642"><ele>891.4</ele><time>2026-04-11T13:49:38.621Z</time></trkpt><trkpt lat="43.55910393286506" lon="12.29879295170264"><ele>892.2</ele><time>2026-04-11T13:49:39.621Z</time></trkpt><trkpt lat="43.55903541659323" lon="12.29895947447792"><ele>893.0</ele><time>2026-04-11T13:49:41.621Z</time></trkpt><trkpt lat="43.55901160119529" lon="12.299068240192396"><ele>894.25</ele><time>2026-04-11T13:49:42.62Z</time></trkpt><trkpt lat="43.55899817832554" lon="12.29918329381681"><ele>895.5</ele><time>2026-04-11T13:49:43.621Z</time></trkpt><trkpt lat="43.558997280771926" lon="12.299429108358982"><ele>896.75</ele><time>2026-04-11T13:49:45.619Z</time></trkpt><trkpt lat="43.55906031999627" lon="12.299608947258404"><ele>898.0</ele><time>2026-04-11T13:49:47.62Z</time></trkpt><trkpt lat="43.55911084040921" lon="12.299673147441506"><ele>897.8</ele><time>2026-04-11T13:49:48.62Z</time></trkpt><trkpt lat="43.55916861522959" lon="12.299761211596383"><ele>897.5999999999999</ele><time>2026-04-11T13:49:49.621Z</time></trkpt><trkpt lat="43.559198458004246" lon="12.299844118899108"><ele>897.4000000000001</ele><time>2026-04-11T13:49:50.622Z</time></trkpt><trkpt lat="43.559229613613596" lon="12.299926139738261"><ele>897.2</ele><time>2026-04-11T13:49:52.62Z</time></trkpt><trkpt lat="43.55928085262457" lon="12.300021845879872"><ele>897.0</ele><time>2026-04-11T13:50:12.62Z</time></trkpt><trkpt lat="43.55932175990183" lon="12.300277918102408"><ele>897.0</ele><time>2026-04-11T13:50:14.621Z</time></trkpt><trkpt lat="43.55935243785217" lon="12.300419592852643"><ele>897.0</ele><time>2026-04-11T13:50:15.621Z</time></trkpt><trkpt lat="43.559390966207104" lon="12.30054409524275"><ele>897.0</ele><time>2026-04-11T13:50:16.62Z</time></trkpt><trkpt lat="43.55943933461148" lon="12.300669407219429"><ele>897.0</ele><time>2026-04-11T13:50:17.622Z</time></trkpt><trkpt lat="43.55948918098317" lon="12.300793201740719"><ele>897.0</ele><time>2026-04-11T13:50:18.623Z</time></trkpt><trkpt lat="43.559544486621846" lon="12.300881698196632"><ele>896.3333333333334</ele><time>2026-04-11T13:50:19.623Z</time></trkpt><trkpt lat="43.559604931171634" lon="12.30094263841181"><ele>895.6666666666667</ele><time>2026-04-11T13:50:20.622Z</time></trkpt><trkpt lat="43.559682555461706" lon="12.301025813040694"><ele>895.0</ele><time>2026-04-11T13:50:22.621Z</time></trkpt><trkpt lat="43.5597262801289" lon="12.301095530766775"><ele>894.3333333333334</ele><time>2026-04-11T13:50:24.622Z</time></trkpt><trkpt lat="43.55978287363946" lon="12.301191277208975"><ele>893.6666666666667</ele><time>2026-04-11T13:50:27.623Z</time></trkpt><trkpt lat="43.55983020356921" lon="12.301253516576812"><ele>893.0</ele><time>2026-04-11T13:50:32.623Z</time></trkpt><trkpt lat="43.559876352300115" lon="12.301348678817327"><ele>894.5</ele><time>2026-04-11T13:50:34.622Z</time></trkpt><trkpt lat="43.55994167074843" lon="12.301538592716797"><ele>896.0</ele><time>2026-04-11T13:50:36.623Z</time></trkpt><trkpt lat="43.559991039993314" lon="12.301658763498871"><ele>897.5</ele><time>2026-04-11T13:50:37.622Z</time></trkpt><trkpt lat="43.56005446462396" lon="12.301784700718358"><ele>899.0</ele><time>2026-04-11T13:50:38.623Z</time></trkpt><trkpt lat="43.56013917679412" lon="12.301902077364328"><ele>899.0</ele><time>2026-04-11T13:50:39.623Z</time></trkpt><trkpt lat="43.56022771966376" lon="12.302019650496819"><ele>899.0000000000001</ele><time>2026-04-11T13:50:40.623Z</time></trkpt><trkpt lat="43.56028775173436" lon="12.302107928271191"><ele>899.0000000000001</ele><time>2026-04-11T13:50:41.625Z</time></trkpt><trkpt lat="43.56035391117945" lon="12.302234500030263"><ele>899.0</ele><time>2026-04-11T13:50:43.623Z</time></trkpt><trkpt lat="43.56041368908304" lon="12.302327404299634"><ele>899.0</ele><time>2026-04-11T13:50:45.623Z</time></trkpt><trkpt lat="43.56050607864184" lon="12.302449116660835"><ele>898.75</ele><time>2026-04-11T13:50:47.622Z</time></trkpt><trkpt lat="43.560581449593364" lon="12.30253779283835"><ele>898.5</ele><time>2026-04-11T13:50:48.623Z</time></trkpt><trkpt lat="43.56067393062847" lon="12.302625118225219"><ele>898.25</ele><time>2026-04-11T13:50:49.622Z</time></trkpt><trkpt lat="43.56079014987058" lon="12.302727082659601"><ele>898.0</ele><time>2026-04-11T13:50:50.623Z</time></trkpt><trkpt lat="43.560884286050815" lon="12.30283765609931"><ele>898.0</ele><time>2026-04-11T13:50:51.624Z</time></trkpt><trkpt lat="43.560977802061664" lon="12.3029709915851"><ele>898.0</ele><time>2026-04-11T13:50:52.624Z</time></trkpt><trkpt lat="43.56105583530247" lon="12.303126815877656"><ele>898.0</ele><time>2026-04-11T13:50:53.623Z</time></trkpt><trkpt lat="43.56114442398668" lon="12.303286693981233"><ele>898.0</ele><time>2026-04-11T13:50:54.622Z</time></trkpt><trkpt lat="43.56123347092115" lon="12.30343499489933"><ele>898.0</ele><time>2026-04-11T13:50:55.622Z</time></trkpt><trkpt lat="43.56139555608665" lon="12.303688002614166"><ele>898.0</ele><time>2026-04-11T13:50:57.624Z</time></trkpt><trkpt lat="43.5614673253167" lon="12.303786894583084"><ele>898.0</ele><time>2026-04-11T13:50:58.622Z</time></trkpt><trkpt lat="43.56154492563168" lon="12.303864030750924"><ele>898.0</ele><time>2026-04-11T13:50:59.623Z</time></trkpt><trkpt lat="43.56164727216222" lon="12.303923771784003"><ele>898.1666666666666</ele><time>2026-04-11T13:51:00.622Z</time></trkpt><trkpt lat="43.56171216666025" lon="12.303992620373226"><ele>898.3333333333333</ele><time>2026-04-11T13:51:01.624Z</time></trkpt><trkpt lat="43.561767779481386" lon="12.304041195092465"><ele>898.5</ele><time>2026-04-11T13:51:02.623Z</time></trkpt><trkpt lat="43.5618463769241" lon="12.304067183229614"><ele>898.6666666666667</ele><time>2026-04-11T13:51:03.621Z</time></trkpt><trkpt lat="43.56193909586401" lon="12.304085430362615"><ele>898.8333333333334</ele><time>2026-04-11T13:51:04.621Z</time></trkpt><trkpt lat="43.56204775219973" lon="12.304101523381568"><ele>899.0</ele><time>2026-04-11T13:51:05.62Z</time></trkpt><trkpt lat="43.5621452684712" lon="12.30413237814014"><ele>899.0</ele><time>2026-04-11T13:51:06.619Z</time></trkpt><trkpt lat="43.56223317718952" lon="12.304187204779243"><ele>899.0000000000001</ele><time>2026-04-11T13:51:07.622Z</time></trkpt><trkpt lat="43.5622970147263" lon="12.30428767279914"><ele>899.0000000000001</ele><time>2026-04-11T13:51:08.621Z</time></trkpt><trkpt lat="43.56236741200297" lon="12.304411355452434"><ele>899.0</ele><time>2026-04-11T13:51:09.621Z</time></trkpt><trkpt lat="43.56243190676633" lon="12.304523366967363"><ele>899.0</ele><time>2026-04-11T13:51:10.621Z</time></trkpt><trkpt lat="43.56249442545002" lon="12.304633754039953"><ele>899.0</ele><time>2026-04-11T13:51:11.62Z</time></trkpt><trkpt lat="43.562578537261345" lon="12.304709526932125"><ele>899.0000000000001</ele><time>2026-04-11T13:51:12.619Z</time></trkpt><trkpt lat="43.56266750245807" lon="12.304778173874338"><ele>899.0000000000001</ele><time>2026-04-11T13:51:13.62Z</time></trkpt><trkpt lat="43.562744516353824" lon="12.304822502545404"><ele>899.0</ele><time>2026-04-11T13:51:14.619Z</time></trkpt><trkpt lat="43.56282564984548" lon="12.304868753629263"><ele>899.0</ele><time>2026-04-11T13:51:15.619Z</time></trkpt><trkpt lat="43.56291849910805" lon="12.304892280503116"><ele>900.5</ele><time>2026-04-11T13:51:16.618Z</time></trkpt><trkpt lat="43.56308408762321" lon="12.304817764248615"><ele>902.0</ele><time>2026-04-11T13:51:18.62Z</time></trkpt><trkpt lat="43.56316388361842" lon="12.304745398633672"><ele>903.5</ele><time>2026-04-11T13:51:19.619Z</time></trkpt><trkpt lat="43.56324701936928" lon="12.304661276895189"><ele>905.0</ele><time>2026-04-11T13:51:20.62Z</time></trkpt><trkpt lat="43.56333544238832" lon="12.304563224712624"><ele>901.6</ele><time>2026-04-11T13:51:21.619Z</time></trkpt><trkpt lat="43.56343489195998" lon="12.304459743217251"><ele>898.2</ele><time>2026-04-11T13:51:22.62Z</time></trkpt><trkpt lat="43.563538394339616" lon="12.304387165057738"><ele>894.8</ele><time>2026-04-11T13:51:23.62Z</time></trkpt><trkpt lat="43.563638118197176" lon="12.304358060440208"><ele>891.4</ele><time>2026-04-11T13:51:24.621Z</time></trkpt><trkpt lat="43.563730277470405" lon="12.304331821797867"><ele>888.0</ele><time>2026-04-11T13:51:25.62Z</time></trkpt><trkpt lat="43.563822890300905" lon="12.304338032939366"><ele>887.75</ele><time>2026-04-11T13:51:26.62Z</time></trkpt><trkpt lat="43.563920858693464" lon="12.304308855986315"><ele>887.5</ele><time>2026-04-11T13:51:27.621Z</time></trkpt><trkpt lat="43.56403891596813" lon="12.304240171678405"><ele>887.25</ele><time>2026-04-11T13:51:28.62Z</time></trkpt><trkpt lat="43.56415128376643" lon="12.304137825007565"><ele>887.0</ele><time>2026-04-11T13:51:29.624Z</time></trkpt><trkpt lat="43.56424170636417" lon="12.304037878551686"><ele>887.0</ele><time>2026-04-11T13:51:30.622Z</time></trkpt><trkpt lat="43.56431864302573" lon="12.3039552184385"><ele>887.0</ele><time>2026-04-11T13:51:31.62Z</time></trkpt><trkpt lat="43.564404785879546" lon="12.303913609437378"><ele>887.0</ele><time>2026-04-11T13:51:32.622Z</time></trkpt><trkpt lat="43.56449682852376" lon="12.30390807752307"><ele>887.0</ele><time>2026-04-11T13:51:33.622Z</time></trkpt><trkpt lat="43.56459359947629" lon="12.303901393699615"><ele>887.0</ele><time>2026-04-11T13:51:34.62Z</time></trkpt><trkpt lat="43.56469617784384" lon="12.303842939514345"><ele>883.8</ele><time>2026-04-11T13:51:35.622Z</time></trkpt><trkpt lat="43.56478326180425" lon="12.303767044988035"><ele>880.6</ele><time>2026-04-11T13:51:36.622Z</time></trkpt><trkpt lat="43.5648623369365" lon="12.303697482188493"><ele>877.3999999999999</ele><time>2026-04-11T13:51:37.622Z</time></trkpt><trkpt lat="43.565010431606666" lon="12.303602341433725"><ele>874.1999999999999</ele><time>2026-04-11T13:51:39.621Z</time></trkpt><trkpt lat="43.56507339861493" lon="12.303519997588705"><ele>871.0</ele><time>2026-04-11T13:51:40.621Z</time></trkpt><trkpt lat="43.565105225876856" lon="12.303409056662078"><ele>871.0</ele><time>2026-04-11T13:51:41.62Z</time></trkpt><trkpt lat="43.56511346615164" lon="12.303276090605237"><ele>870.9999999999999</ele><time>2026-04-11T13:51:42.622Z</time></trkpt><trkpt lat="43.56512446327295" lon="12.303171567990917"><ele>870.9999999999999</ele><time>2026-04-11T13:51:43.62Z</time></trkpt><trkpt lat="43.565170587408396" lon="12.303092111540757"><ele>871.0</ele><time>2026-04-11T13:51:44.622Z</time></trkpt><trkpt lat="43.565244133556476" lon="12.303048937862897"><ele>871.0</ele><time>2026-04-11T13:51:45.62Z</time></trkpt><trkpt lat="43.565365049666596" lon="12.303011076300152"><ele>871.3333333333333</ele><time>2026-04-11T13:51:47.621Z</time></trkpt><trkpt lat="43.56542877714086" lon="12.302989437529293"><ele>871.6666666666666</ele><time>2026-04-11T13:51:49.62Z</time></trkpt><trkpt lat="43.5654836049782" lon="12.302944205939742"><ele>872.0</ele><time>2026-04-11T13:51:52.621Z</time></trkpt><trkpt lat="43.56553720952832" lon="12.303044069652218"><ele>872.3333333333333</ele><time>2026-04-11T13:51:56.621Z</time></trkpt><trkpt lat="43.56554168860333" lon="12.303136284456746"><ele>872.6666666666666</ele><time>2026-04-11T13:51:57.62Z</time></trkpt><trkpt lat="43.56555440296357" lon="12.303221874565848"><ele>873.0</ele><time>2026-04-11T13:51:58.619Z</time></trkpt><trkpt lat="43.565705059723584" lon="12.303374960122964"><ele>873.0</ele><time>2026-04-11T13:52:01.622Z</time></trkpt><trkpt lat="43.56580699501019" lon="12.303406202982677"><ele>873.0</ele><time>2026-04-11T13:52:03.62Z</time></trkpt><trkpt lat="43.56588769490891" lon="12.303457308058935"><ele>873.0</ele><time>2026-04-11T13:52:04.621Z</time></trkpt><trkpt lat="43.5659571906292" lon="12.303540542485592"><ele>873.0</ele><time>2026-04-11T13:52:05.619Z</time></trkpt><trkpt lat="43.56603433774698" lon="12.303634459951597"><ele>873.0</ele><time>2026-04-11T13:52:06.621Z</time></trkpt><trkpt lat="43.56611388207976" lon="12.303706476612826"><ele>874.0</ele><time>2026-04-11T13:52:07.621Z</time></trkpt><trkpt lat="43.566212101168425" lon="12.303755487678147"><ele>875.0</ele><time>2026-04-11T13:52:08.621Z</time></trkpt><trkpt lat="43.56628906298055" lon="12.303825083164257"><ele>876.0</ele><time>2026-04-11T13:52:09.623Z</time></trkpt><trkpt lat="43.5663306127441" lon="12.303914121817447"><ele>877.0</ele><time>2026-04-11T13:52:10.62Z</time></trkpt><trkpt lat="43.56636541476575" lon="12.304039596262312"><ele>878.0</ele><time>2026-04-11T13:52:11.62Z</time></trkpt><trkpt lat="43.56638585630297" lon="12.304179159525958"><ele>878.0</ele><time>2026-04-11T13:52:12.622Z</time></trkpt><trkpt lat="43.56640548744963" lon="12.304328713992827"><ele>878.0</ele><time>2026-04-11T13:52:13.621Z</time></trkpt><trkpt lat="43.566409861558235" lon="12.304459028355724"><ele>878.0</ele><time>2026-04-11T13:52:14.62Z</time></trkpt><trkpt lat="43.56640107113974" lon="12.304597368911521"><ele>878.0</ele><time>2026-04-11T13:52:15.621Z</time></trkpt><trkpt lat="43.56641358093517" lon="12.304712693031565"><ele>878.0</ele><time>2026-04-11T13:52:16.62Z</time></trkpt><trkpt lat="43.566460057208445" lon="12.304793225759768"><ele>880.2</ele><time>2026-04-11T13:52:17.619Z</time></trkpt><trkpt lat="43.56651081445911" lon="12.304903309104908"><ele>882.4</ele><time>2026-04-11T13:52:18.621Z</time></trkpt><trkpt lat="43.56656558842958" lon="12.305000813685234"><ele>884.6000000000001</ele><time>2026-04-11T13:52:19.619Z</time></trkpt><trkpt lat="43.56667138417628" lon="12.305209611375156"><ele>886.8000000000001</ele><time>2026-04-11T13:52:21.619Z</time></trkpt><trkpt lat="43.566723035754904" lon="12.305282990534952"><ele>889.0</ele><time>2026-04-11T13:52:22.619Z</time></trkpt><trkpt lat="43.5667918745448" lon="12.305380476973475"><ele>888.9999999999999</ele><time>2026-04-11T13:52:23.62Z</time></trkpt><trkpt lat="43.56685922265275" lon="12.30546902118013"><ele>889.0</ele><time>2026-04-11T13:52:24.619Z</time></trkpt><trkpt lat="43.56691586471614" lon="12.30555056072207"><ele>889.0</ele><time>2026-04-11T13:52:25.619Z</time></trkpt><trkpt lat="43.56694403467987" lon="12.305655757686935"><ele>889.0</ele><time>2026-04-11T13:52:26.62Z</time></trkpt><trkpt lat="43.566953756938396" lon="12.305757014675931"><ele>888.9999999999999</ele><time>2026-04-11T13:52:27.621Z</time></trkpt><trkpt lat="43.56700431923802" lon="12.30589109851161"><ele>889.0</ele><time>2026-04-11T13:52:29.62Z</time></trkpt><trkpt lat="43.56707239008557" lon="12.305949783422431"><ele>890.3333333333333</ele><time>2026-04-11T13:52:30.62Z</time></trkpt><trkpt lat="43.56713710937742" lon="12.306038291372444"><ele>891.6666666666666</ele><time>2026-04-11T13:52:31.619Z</time></trkpt><trkpt lat="43.56719491962143" lon="12.306128537019527"><ele>893.0</ele><time>2026-04-11T13:52:32.621Z</time></trkpt><trkpt lat="43.567240153434746" lon="12.306221577046951"><ele>894.3333333333333</ele><time>2026-04-11T13:52:33.621Z</time></trkpt><trkpt lat="43.56729316349237" lon="12.30630640061705"><ele>895.6666666666666</ele><time>2026-04-11T13:52:34.621Z</time></trkpt><trkpt lat="43.56735511702861" lon="12.306408368904473"><ele>897.0</ele><time>2026-04-11T13:52:35.623Z</time></trkpt><trkpt lat="43.56740249693927" lon="12.30650629907953"><ele>899.4000000000001</ele><time>2026-04-11T13:52:36.622Z</time></trkpt><trkpt lat="43.56743359075203" lon="12.306587480643945"><ele>901.8000000000001</ele><time>2026-04-11T13:52:37.622Z</time></trkpt><trkpt lat="43.567472578525155" lon="12.306742735680087"><ele>904.2</ele><time>2026-04-11T13:52:39.622Z</time></trkpt><trkpt lat="43.56750154679474" lon="12.306822963020997"><ele>906.6</ele><time>2026-04-11T13:52:40.622Z</time></trkpt><trkpt lat="43.56758315638729" lon="12.307038753935075"><ele>909.0</ele><time>2026-04-11T13:52:43.622Z</time></trkpt><trkpt lat="43.56768461839286" lon="12.307157766782193"><ele>909.0</ele><time>2026-04-11T13:52:45.622Z</time></trkpt><trkpt lat="43.5677719134929" lon="12.30722664931677"><ele>909.0</ele><time>2026-04-11T13:52:47.621Z</time></trkpt><trkpt lat="43.5678357434721" lon="12.30724087350582"><ele>909.0</ele><time>2026-04-11T13:53:02.62Z</time></trkpt><trkpt lat="43.56803792942536" lon="12.30738313701167"><ele>909.0</ele><time>2026-04-11T13:53:07.62Z</time></trkpt><trkpt lat="43.56808921847134" lon="12.307515992075002"><ele>912.4000000000001</ele><time>2026-04-11T13:53:09.623Z</time></trkpt><trkpt lat="43.56819625466012" lon="12.307510152417303"><ele>915.8000000000001</ele><time>2026-04-11T13:53:11.621Z</time></trkpt><trkpt lat="43.56825662556351" lon="12.307481256059102"><ele>919.1999999999999</ele><time>2026-04-11T13:53:12.62Z</time></trkpt><trkpt lat="43.5683851231261" lon="12.307550356041693"><ele>922.5999999999999</ele><time>2026-04-11T13:53:14.621Z</time></trkpt><trkpt lat="43.56845725217352" lon="12.307627727734731"><ele>926.0</ele><time>2026-04-11T13:53:15.623Z</time></trkpt><trkpt lat="43.568526709967294" lon="12.30768267745625"><ele>926.0</ele><time>2026-04-11T13:53:16.622Z</time></trkpt><trkpt lat="43.56859919413624" lon="12.307701113493199"><ele>925.9999999999999</ele><time>2026-04-11T13:53:17.622Z</time></trkpt><trkpt lat="43.56867781562649" lon="12.307710979472644"><ele>925.9999999999999</ele><time>2026-04-11T13:53:18.622Z</time></trkpt><trkpt lat="43.568785642583194" lon="12.307691216812671"><ele>926.0</ele><time>2026-04-11T13:53:20.623Z</time></trkpt><trkpt lat="43.568853683308255" lon="12.307606121203676"><ele>926.0</ele><time>2026-04-11T13:53:22.622Z</time></trkpt><trkpt lat="43.56892986822495" lon="12.30750636948621"><ele>925.0</ele><time>2026-04-11T13:53:24.622Z</time></trkpt><trkpt lat="43.56906467458509" lon="12.307333600280359"><ele>924.0</ele><time>2026-04-11T13:53:28.622Z</time></trkpt><trkpt lat="43.56917020699451" lon="12.307247736865737"><ele>923.0</ele><time>2026-04-11T13:53:30.621Z</time></trkpt><trkpt lat="43.569240885222285" lon="12.307191794497777"><ele>922.0</ele><time>2026-04-11T13:53:32.622Z</time></trkpt><trkpt lat="43.56923127279687" lon="12.307088346232854"><ele>921.9999999999999</ele><time>2026-04-11T13:53:34.622Z</time></trkpt><trkpt lat="43.56915567249098" lon="12.306967993433549"><ele>922.0</ele><time>2026-04-11T13:53:36.624Z</time></trkpt><trkpt lat="43.569138260075306" lon="12.306883752135109"><ele>922.0</ele><time>2026-04-11T13:53:37.623Z</time></trkpt><trkpt lat="43.56913546203569" lon="12.306793845227505"><ele>922.0</ele><time>2026-04-11T13:53:38.623Z</time></trkpt><trkpt lat="43.5691987648204" lon="12.306713887122882"><ele>921.9999999999999</ele><time>2026-04-11T13:53:40.622Z</time></trkpt><trkpt lat="43.56930045824822" lon="12.30670353785624"><ele>922.0</ele><time>2026-04-11T13:53:42.62Z</time></trkpt><trkpt lat="43.56936428726275" lon="12.306687198373986"><ele>922.0</ele><time>2026-04-11T13:53:43.622Z</time></trkpt><trkpt lat="43.56943746413611" lon="12.30666071970572"><ele>922.0</ele><time>2026-04-11T13:53:44.621Z</time></trkpt><trkpt lat="43.569511434832904" lon="12.306629578354258"><ele>922.0</ele><time>2026-04-11T13:53:45.621Z</time></trkpt><trkpt lat="43.56965318244428" lon="12.306556757709338"><ele>922.0</ele><time>2026-04-11T13:53:47.619Z</time></trkpt><trkpt lat="43.56975214715229" lon="12.306441211830435"><ele>922.0</ele><time>2026-04-11T13:53:49.62Z</time></trkpt><trkpt lat="43.56984069568774" lon="12.306353022293862"><ele>922.8</ele><time>2026-04-11T13:53:51.621Z</time></trkpt><trkpt lat="43.56990309177194" lon="12.306332316107369"><ele>923.6</ele><time>2026-04-11T13:53:52.62Z</time></trkpt><trkpt lat="43.56998094648382" lon="12.306320034120526"><ele>924.3999999999999</ele><time>2026-04-11T13:53:53.621Z</time></trkpt><trkpt lat="43.57008133028754" lon="12.306324618956467"><ele>925.1999999999999</ele><time>2026-04-11T13:53:54.62Z</time></trkpt><trkpt lat="43.57019189470436" lon="12.306310340713225"><ele>926.0</ele><time>2026-04-11T13:53:55.62Z</time></trkpt><trkpt lat="43.570311725493134" lon="12.306262958963757"><ele>926.0</ele><time>2026-04-11T13:53:56.62Z</time></trkpt><trkpt lat="43.57038898645534" lon="12.306252589747487"><ele>925.9999999999999</ele><time>2026-04-11T13:53:57.619Z</time></trkpt><trkpt lat="43.57049846907204" lon="12.306327588203594"><ele>925.9999999999999</ele><time>2026-04-11T13:53:59.619Z</time></trkpt><trkpt lat="43.57056488131231" lon="12.30640756324473"><ele>926.0</ele><time>2026-04-11T13:54:00.62Z</time></trkpt><trkpt lat="43.57064480406088" lon="12.30644489870555"><ele>926.0</ele><time>2026-04-11T13:54:01.619Z</time></trkpt><trkpt lat="43.57075743791488" lon="12.306482584883453"><ele>928.5999999999999</ele><time>2026-04-11T13:54:02.62Z</time></trkpt><trkpt lat="43.57086192055997" lon="12.30652102022273"><ele>931.1999999999999</ele><time>2026-04-11T13:54:03.62Z</time></trkpt><trkpt lat="43.57092739840919" lon="12.306497398610997"><ele>933.8000000000001</ele><time>2026-04-11T13:54:04.62Z</time></trkpt><trkpt lat="43.57099903622275" lon="12.306481815450391"><ele>936.4000000000001</ele><time>2026-04-11T13:54:05.621Z</time></trkpt><trkpt lat="43.57110141998335" lon="12.306458271898634"><ele>939.0</ele><time>2026-04-11T13:54:06.619Z</time></trkpt><trkpt lat="43.571276340193485" lon="12.306424215202806"><ele>940.5</ele><time>2026-04-11T13:54:08.62Z</time></trkpt><trkpt lat="43.57135119176745" lon="12.306422910783489"><ele>942.0</ele><time>2026-04-11T13:54:09.622Z</time></trkpt><trkpt lat="43.57143196249395" lon="12.306417502908065"><ele>943.5</ele><time>2026-04-11T13:54:10.621Z</time></trkpt><trkpt lat="43.57151000459242" lon="12.306461230758751"><ele>945.0</ele><time>2026-04-11T13:54:11.623Z</time></trkpt><trkpt lat="43.571554957872124" lon="12.306573085840844"><ele>946.5</ele><time>2026-04-11T13:54:12.623Z</time></trkpt><trkpt lat="43.571614027467525" lon="12.306641305594887"><ele>948.0</ele><time>2026-04-11T13:54:13.622Z</time></trkpt><trkpt lat="43.571692953220996" lon="12.306637437729174"><ele>948.0</ele><time>2026-04-11T13:54:14.622Z</time></trkpt><trkpt lat="43.57177132491567" lon="12.306593792610444"><ele>948.0</ele><time>2026-04-11T13:54:15.622Z</time></trkpt><trkpt lat="43.57185023994891" lon="12.306585096740658"><ele>948.0</ele><time>2026-04-11T13:54:16.621Z</time></trkpt><trkpt lat="43.57194522550948" lon="12.306605145339068"><ele>948.0</ele><time>2026-04-11T13:54:17.622Z</time></trkpt><trkpt lat="43.57202052850595" lon="12.306615828967493"><ele>948.0</ele><time>2026-04-11T13:54:18.622Z</time></trkpt><trkpt lat="43.57209728153486" lon="12.306611365906404"><ele>948.0</ele><time>2026-04-11T13:54:19.623Z</time></trkpt><trkpt lat="43.57218607990904" lon="12.306561305558944"><ele>948.4</ele><time>2026-04-11T13:54:21.623Z</time></trkpt><trkpt lat="43.57227900036747" lon="12.306647471159193"><ele>948.8</ele><time>2026-04-11T13:54:23.622Z</time></trkpt><trkpt lat="43.57233936665187" lon="12.306697132754795"><ele>949.2</ele><time>2026-04-11T13:54:24.622Z</time></trkpt><trkpt lat="43.57242464963029" lon="12.306737277064677"><ele>949.6</ele><time>2026-04-11T13:54:25.622Z</time></trkpt><trkpt lat="43.572501317696165" lon="12.306756741019091"><ele>950.0</ele><time>2026-04-11T13:54:26.621Z</time></trkpt><trkpt lat="43.572601887031524" lon="12.3068078609927"><ele>950.0</ele><time>2026-04-11T13:54:28.62Z</time></trkpt><trkpt lat="43.572789774614876" lon="12.306871549413898"><ele>950.0</ele><time>2026-04-11T13:54:31.621Z</time></trkpt><trkpt lat="43.57290823265052" lon="12.306840980358475"><ele>950.0</ele><time>2026-04-11T13:54:33.622Z</time></trkpt><trkpt lat="43.57299956907098" lon="12.306844988651745"><ele>950.0</ele><time>2026-04-11T13:54:35.623Z</time></trkpt><trkpt lat="43.57310600843037" lon="12.306833787790262"><ele>949.2</ele><time>2026-04-11T13:54:37.622Z</time></trkpt><trkpt lat="43.57323173984763" lon="12.30690128301571"><ele>948.4</ele><time>2026-04-11T13:54:39.619Z</time></trkpt><trkpt lat="43.573295928656194" lon="12.3069317361085"><ele>947.5999999999999</ele><time>2026-04-11T13:54:40.622Z</time></trkpt><trkpt lat="43.57339165274799" lon="12.306938563382973"><ele>946.8</ele><time>2026-04-11T13:54:42.622Z</time></trkpt><trkpt lat="43.57347135967501" lon="12.306911807637709"><ele>946.0</ele><time>2026-04-11T13:54:43.621Z</time></trkpt><trkpt lat="43.573543588237" lon="12.30689696912985"><ele>946.0</ele><time>2026-04-11T13:54:44.622Z</time></trkpt><trkpt lat="43.57366417658872" lon="12.306896108605857"><ele>946.0</ele><time>2026-04-11T13:54:46.622Z</time></trkpt><trkpt lat="43.57376056819772" lon="12.306968922936393"><ele>946.0</ele><time>2026-04-11T13:54:48.621Z</time></trkpt><trkpt lat="43.57381211260962" lon="12.307035488994396"><ele>946.0</ele><time>2026-04-11T13:54:49.621Z</time></trkpt><trkpt lat="43.57399715728941" lon="12.306988415355216"><ele>945.25</ele><time>2026-04-11T13:54:54.621Z</time></trkpt><trkpt lat="43.57407067530727" lon="12.307017912082811"><ele>944.5</ele><time>2026-04-11T13:54:56.622Z</time></trkpt><trkpt lat="43.574149228902094" lon="12.307062420541703"><ele>943.75</ele><time>2026-04-11T13:54:58.622Z</time></trkpt><trkpt lat="43.5742237708414" lon="12.307062320796962"><ele>943.0</ele><time>2026-04-11T13:55:36.621Z</time></trkpt><trkpt lat="43.574492159179876" lon="12.307095817031087"><ele>941.8</ele><time>2026-04-11T14:16:14.611Z</time></trkpt><trkpt lat="43.57457581796389" lon="12.307127457709846"><ele>940.5999999999999</ele><time>2026-04-11T14:16:16.61Z</time></trkpt><trkpt lat="43.57461745297154" lon="12.307232156165972"><ele>939.4000000000001</ele><time>2026-04-11T14:16:19.607Z</time></trkpt><trkpt lat="43.574680756888235" lon="12.307265272908825"><ele>938.2</ele><time>2026-04-11T14:16:21.608Z</time></trkpt><trkpt lat="43.57479105932849" lon="12.307245051027051"><ele>937.0</ele><time>2026-04-11T14:16:24.609Z</time></trkpt><trkpt lat="43.57489671888911" lon="12.307170597002413"><ele>936.9999999999999</ele><time>2026-04-11T14:16:26.607Z</time></trkpt><trkpt lat="43.574979553047875" lon="12.307171333768306"><ele>937.0</ele><time>2026-04-11T14:16:27.606Z</time></trkpt><trkpt lat="43.575048425152254" lon="12.307179681194139"><ele>937.0</ele><time>2026-04-11T14:16:28.605Z</time></trkpt><trkpt lat="43.5751086316712" lon="12.307210573127188"><ele>937.0</ele><time>2026-04-11T14:16:29.608Z</time></trkpt><trkpt lat="43.57519076302445" lon="12.307246479566661"><ele>936.9999999999999</ele><time>2026-04-11T14:16:30.608Z</time></trkpt><trkpt lat="43.575315131937806" lon="12.307274578837989"><ele>937.0</ele><time>2026-04-11T14:16:32.607Z</time></trkpt><trkpt lat="43.57539060536908" lon="12.30730753638524"><ele>935.2</ele><time>2026-04-11T14:16:33.608Z</time></trkpt><trkpt lat="43.57555552719564" lon="12.307399996242038"><ele>933.4000000000001</ele><time>2026-04-11T14:16:35.612Z</time></trkpt><trkpt lat="43.575599208203926" lon="12.307487223952501"><ele>931.5999999999999</ele><time>2026-04-11T14:16:36.612Z</time></trkpt><trkpt lat="43.575628176479164" lon="12.307603104200046"><ele>929.8</ele><time>2026-04-11T14:16:37.613Z</time></trkpt><trkpt lat="43.57566884890371" lon="12.307681924611627"><ele>928.0</ele><time>2026-04-11T14:16:38.61Z</time></trkpt><trkpt lat="43.5757252120596" lon="12.307749938884053"><ele>927.9999999999999</ele><time>2026-04-11T14:16:39.612Z</time></trkpt><trkpt lat="43.57578056493248" lon="12.307833224245181"><ele>928.0</ele><time>2026-04-11T14:16:40.612Z</time></trkpt><trkpt lat="43.57585493787641" lon="12.307886992502665"><ele>928.0</ele><time>2026-04-11T14:16:41.612Z</time></trkpt><trkpt lat="43.57591807575327" lon="12.307952541444667"><ele>928.0</ele><time>2026-04-11T14:16:42.611Z</time></trkpt><trkpt lat="43.57598233393518" lon="12.308041542603295"><ele>927.9999999999999</ele><time>2026-04-11T14:16:43.61Z</time></trkpt><trkpt lat="43.57604485905113" lon="12.308152213615596"><ele>928.0</ele><time>2026-04-11T14:16:44.611Z</time></trkpt><trkpt lat="43.57612203789545" lon="12.308253499282936"><ele>928.2</ele><time>2026-04-11T14:16:45.611Z</time></trkpt><trkpt lat="43.5761975392993" lon="12.30834630767531"><ele>928.4</ele><time>2026-04-11T14:16:46.611Z</time></trkpt><trkpt lat="43.576281384809924" lon="12.308426682864152"><ele>928.6000000000001</ele><time>2026-04-11T14:16:47.61Z</time></trkpt><trkpt lat="43.57639357346563" lon="12.308500664206782"><ele>928.8000000000001</ele><time>2026-04-11T14:16:48.611Z</time></trkpt><trkpt lat="43.576495343568126" lon="12.308573300132505"><ele>929.0</ele><time>2026-04-11T14:16:49.611Z</time></trkpt><trkpt lat="43.57659762057043" lon="12.308634421662402"><ele>929.0</ele><time>2026-04-11T14:16:50.611Z</time></trkpt><trkpt lat="43.57668365909412" lon="12.308696617396947"><ele>929.0000000000001</ele><time>2026-04-11T14:16:51.611Z</time></trkpt><trkpt lat="43.576753009399624" lon="12.308754809184876"><ele>929.0000000000001</ele><time>2026-04-11T14:16:52.612Z</time></trkpt><trkpt lat="43.576819775301054" lon="12.308813559377034"><ele>929.0</ele><time>2026-04-11T14:16:53.611Z</time></trkpt><trkpt lat="43.57688373220194" lon="12.308913387056524"><ele>929.0</ele><time>2026-04-11T14:16:54.611Z</time></trkpt><trkpt lat="43.57702589770891" lon="12.3090292087249"><ele>929.6</ele><time>2026-04-11T14:16:56.612Z</time></trkpt><trkpt lat="43.57711610611109" lon="12.30908700400927"><ele>930.2</ele><time>2026-04-11T14:16:57.611Z</time></trkpt><trkpt lat="43.57720047034164" lon="12.309174117780284"><ele>930.8000000000001</ele><time>2026-04-11T14:16:58.611Z</time></trkpt><trkpt lat="43.57729289790493" lon="12.30924857485237"><ele>931.4000000000001</ele><time>2026-04-11T14:16:59.61Z</time></trkpt><trkpt lat="43.577402339124724" lon="12.30926723521611"><ele>932.0</ele><time>2026-04-11T14:17:00.612Z</time></trkpt><trkpt lat="43.57750593802535" lon="12.309237441578961"><ele>932.0</ele><time>2026-04-11T14:17:01.61Z</time></trkpt><trkpt lat="43.577585469917395" lon="12.309212082519245"><ele>932.0</ele><time>2026-04-11T14:17:02.61Z</time></trkpt><trkpt lat="43.577703704224376" lon="12.309207458187199"><ele>932.0</ele><time>2026-04-11T14:17:04.613Z</time></trkpt><trkpt lat="43.57776908169373" lon="12.309271342107595"><ele>932.0</ele><time>2026-04-11T14:17:05.612Z</time></trkpt><trkpt lat="43.577840151542425" lon="12.309364500472595"><ele>932.0</ele><time>2026-04-11T14:17:06.611Z</time></trkpt><trkpt lat="43.577914940368494" lon="12.30944922794335"><ele>930.0000000000001</ele><time>2026-04-11T14:17:07.612Z</time></trkpt><trkpt lat="43.57800498945002" lon="12.3094946082965"><ele>928.0</ele><time>2026-04-11T14:17:08.61Z</time></trkpt><trkpt lat="43.57809782739037" lon="12.309500930041239"><ele>926.0</ele><time>2026-04-11T14:17:09.611Z</time></trkpt><trkpt lat="43.57819093899791" lon="12.309523292454909"><ele>924.0</ele><time>2026-04-11T14:17:10.612Z</time></trkpt><trkpt lat="43.57825753834845" lon="12.309565608124787"><ele>922.0000000000001</ele><time>2026-04-11T14:17:11.611Z</time></trkpt><trkpt lat="43.57829842193851" lon="12.309632883133956"><ele>920.0</ele><time>2026-04-11T14:17:12.612Z</time></trkpt><trkpt lat="43.578316334106695" lon="12.309717908573768"><ele>919.4</ele><time>2026-04-11T14:17:13.61Z</time></trkpt><trkpt lat="43.578347860755294" lon="12.309802216521893"><ele>918.8</ele><time>2026-04-11T14:17:14.611Z</time></trkpt><trkpt lat="43.57840863228653" lon="12.309872539826324"><ele>918.2</ele><time>2026-04-11T14:17:15.61Z</time></trkpt><trkpt lat="43.57859620579738" lon="12.309965962681476"><ele>917.6</ele><time>2026-04-11T14:17:17.61Z</time></trkpt><trkpt lat="43.57867350456084" lon="12.310031516537356"><ele>917.0</ele><time>2026-04-11T14:17:18.61Z</time></trkpt><trkpt lat="43.57875232616164" lon="12.310107928638834"><ele>919.0000000000001</ele><time>2026-04-11T14:17:19.61Z</time></trkpt><trkpt lat="43.57881727770271" lon="12.31009578089697"><ele>921.0</ele><time>2026-04-11T14:17:20.609Z</time></trkpt><trkpt lat="43.57889745744608" lon="12.310136768991311"><ele>923.0</ele><time>2026-04-11T14:17:21.609Z</time></trkpt><trkpt lat="43.57898551177629" lon="12.31018035969506"><ele>925.0</ele><time>2026-04-11T14:17:22.608Z</time></trkpt><trkpt lat="43.57907916115179" lon="12.31021071404985"><ele>927.0000000000001</ele><time>2026-04-11T14:17:23.609Z</time></trkpt><trkpt lat="43.57915299872949" lon="12.310275172938207"><ele>929.0</ele><time>2026-04-11T14:17:24.61Z</time></trkpt><trkpt lat="43.5792025152741" lon="12.310358292041245"><ele>929.0000000000001</ele><time>2026-04-11T14:17:25.609Z</time></trkpt><trkpt lat="43.57924421203525" lon="12.310427811065454"><ele>929.0</ele><time>2026-04-11T14:17:26.608Z</time></trkpt><trkpt lat="43.57930268897607" lon="12.310474390990914"><ele>929.0</ele><time>2026-04-11T14:17:27.61Z</time></trkpt><trkpt lat="43.57938962371214" lon="12.310518205756743"><ele>929.0</ele><time>2026-04-11T14:17:28.607Z</time></trkpt><trkpt lat="43.57949158565563" lon="12.310543042527613"><ele>929.0000000000001</ele><time>2026-04-11T14:17:29.608Z</time></trkpt><trkpt lat="43.57959139433482" lon="12.310578522024171"><ele>929.0</ele><time>2026-04-11T14:17:30.608Z</time></trkpt><trkpt lat="43.57967735744285" lon="12.31063873643446"><ele>927.3333333333334</ele><time>2026-04-11T14:17:31.609Z</time></trkpt><trkpt lat="43.579762956902314" lon="12.310693264897422"><ele>925.6666666666667</ele><time>2026-04-11T14:17:32.609Z</time></trkpt><trkpt lat="43.579832895692526" lon="12.310730606742203"><ele>924.0</ele><time>2026-04-11T14:17:33.61Z</time></trkpt><trkpt lat="43.57989899484033" lon="12.310726075444562"><ele>922.3333333333333</ele><time>2026-04-11T14:17:34.61Z</time></trkpt><trkpt lat="43.579954177625574" lon="12.310681533044079"><ele>920.6666666666666</ele><time>2026-04-11T14:17:35.61Z</time></trkpt><trkpt lat="43.580006174542156" lon="12.310612564727242"><ele>919.0</ele><time>2026-04-11T14:17:36.611Z</time></trkpt><trkpt lat="43.58012937092936" lon="12.310495973309527"><ele>919.0</ele><time>2026-04-11T14:17:38.612Z</time></trkpt><trkpt lat="43.5801881853999" lon="12.31046085115945"><ele>919.0000000000001</ele><time>2026-04-11T14:17:39.611Z</time></trkpt><trkpt lat="43.580255487311135" lon="12.31039598352113"><ele>919.0000000000001</ele><time>2026-04-11T14:17:41.612Z</time></trkpt><trkpt lat="43.580273009118905" lon="12.310301976317495"><ele>919.0</ele><time>2026-04-11T14:17:43.611Z</time></trkpt><trkpt lat="43.58020711104024" lon="12.310209038167153"><ele>919.0</ele><time>2026-04-11T14:17:45.612Z</time></trkpt><trkpt lat="43.580073998807066" lon="12.310135419390315"><ele>919.0</ele><time>2026-04-11T14:17:47.611Z</time></trkpt><trkpt lat="43.57999710759648" lon="12.310032241639405"><ele>919.0000000000001</ele><time>2026-04-11T14:17:48.612Z</time></trkpt><trkpt lat="43.57994892608737" lon="12.309890576730362"><ele>919.0000000000001</ele><time>2026-04-11T14:17:49.612Z</time></trkpt><trkpt lat="43.579938391234904" lon="12.309732045372552"><ele>919.0</ele><time>2026-04-11T14:17:50.609Z</time></trkpt><trkpt lat="43.57995039583177" lon="12.30958605191823"><ele>919.0</ele><time>2026-04-11T14:17:51.611Z</time></trkpt><trkpt lat="43.57994973084812" lon="12.309440170939524"><ele>916.6</ele><time>2026-04-11T14:17:52.609Z</time></trkpt><trkpt lat="43.57991898053115" lon="12.309311013021718"><ele>914.2</ele><time>2026-04-11T14:17:53.61Z</time></trkpt><trkpt lat="43.57987619651239" lon="12.309208702764225"><ele>911.8000000000001</ele><time>2026-04-11T14:17:54.609Z</time></trkpt><trkpt lat="43.57982738439668" lon="12.309105710338189"><ele>909.4000000000001</ele><time>2026-04-11T14:17:55.611Z</time></trkpt><trkpt lat="43.57978544132736" lon="12.308988492347565"><ele>907.0</ele><time>2026-04-11T14:17:56.611Z</time></trkpt><trkpt lat="43.5797457914552" lon="12.308860662814453"><ele>906.6</ele><time>2026-04-11T14:17:57.611Z</time></trkpt><trkpt lat="43.57972300226256" lon="12.308643366785354"><ele>906.2</ele><time>2026-04-11T14:17:59.609Z</time></trkpt><trkpt lat="43.57970345683502" lon="12.308554412290052"><ele>905.8</ele><time>2026-04-11T14:18:00.611Z</time></trkpt><trkpt lat="43.57965644633469" lon="12.308462371057713"><ele>905.4</ele><time>2026-04-11T14:18:01.611Z</time></trkpt><trkpt lat="43.57958506119944" lon="12.308373534250235"><ele>905.0</ele><time>2026-04-11T14:18:02.609Z</time></trkpt><trkpt lat="43.57951337083825" lon="12.308303329719"><ele>905.0</ele><time>2026-04-11T14:18:03.61Z</time></trkpt><trkpt lat="43.57944055673955" lon="12.308233967880353"><ele>905.0</ele><time>2026-04-11T14:18:04.61Z</time></trkpt><trkpt lat="43.579360829290756" lon="12.308153384623097"><ele>905.0</ele><time>2026-04-11T14:18:05.61Z</time></trkpt><trkpt lat="43.57928557626938" lon="12.308059619823926"><ele>905.0</ele><time>2026-04-11T14:18:06.609Z</time></trkpt><trkpt lat="43.57921525894073" lon="12.307947312826222"><ele>905.0</ele><time>2026-04-11T14:18:07.61Z</time></trkpt><trkpt lat="43.57914380702936" lon="12.307841384752892"><ele>902.2</ele><time>2026-04-11T14:18:08.611Z</time></trkpt><trkpt lat="43.579068893757885" lon="12.30776728759701"><ele>899.4</ele><time>2026-04-11T14:18:09.61Z</time></trkpt><trkpt lat="43.578977458209096" lon="12.307720254194546"><ele>896.5999999999999</ele><time>2026-04-11T14:18:10.611Z</time></trkpt><trkpt lat="43.578893671256594" lon="12.307684666327948"><ele>893.8</ele><time>2026-04-11T14:18:11.611Z</time></trkpt><trkpt lat="43.5788092887242" lon="12.307642979695974"><ele>891.0</ele><time>2026-04-11T14:18:12.611Z</time></trkpt><trkpt lat="43.578727977482245" lon="12.30759323722221"><ele>892.0</ele><time>2026-04-11T14:18:13.611Z</time></trkpt><trkpt lat="43.57865398661217" lon="12.307516877536386"><ele>892.9999999999999</ele><time>2026-04-11T14:18:14.609Z</time></trkpt><trkpt lat="43.57859678812709" lon="12.307400828436055"><ele>893.9999999999999</ele><time>2026-04-11T14:18:15.609Z</time></trkpt><trkpt lat="43.57856367583423" lon="12.307248574480719"><ele>895.0</ele><time>2026-04-11T14:18:16.611Z</time></trkpt><trkpt lat="43.57855508238834" lon="12.307092726840851"><ele>896.0</ele><time>2026-04-11T14:18:17.609Z</time></trkpt><trkpt lat="43.57856047529023" lon="12.306949247841283"><ele>893.0</ele><time>2026-04-11T14:18:18.609Z</time></trkpt><trkpt lat="43.57849436895929" lon="12.30673504430859"><ele>890.0</ele><time>2026-04-11T14:18:20.611Z</time></trkpt><trkpt lat="43.578409949269385" lon="12.306642333316583"><ele>887.0</ele><time>2026-04-11T14:18:21.61Z</time></trkpt><trkpt lat="43.57831440748974" lon="12.306586807948023"><ele>884.0</ele><time>2026-04-11T14:18:22.61Z</time></trkpt><trkpt lat="43.57819613023328" lon="12.306562456739675"><ele>884.0</ele><time>2026-04-11T14:18:23.61Z</time></trkpt><trkpt lat="43.578080032128206" lon="12.306566821437718"><ele>884.0</ele><time>2026-04-11T14:18:24.609Z</time></trkpt><trkpt lat="43.57796070182053" lon="12.306606856634229"><ele>884.0</ele><time>2026-04-11T14:18:25.611Z</time></trkpt><trkpt lat="43.57785701255884" lon="12.306655817534972"><ele>884.0</ele><time>2026-04-11T14:18:26.609Z</time></trkpt><trkpt lat="43.577757118999564" lon="12.30670342800781"><ele>883.8000000000001</ele><time>2026-04-11T14:18:27.609Z</time></trkpt><trkpt lat="43.577660165880054" lon="12.306730228735779"><ele>883.6000000000001</ele><time>2026-04-11T14:18:28.609Z</time></trkpt><trkpt lat="43.57756488822779" lon="12.30674684246704"><ele>883.4</ele><time>2026-04-11T14:18:29.608Z</time></trkpt><trkpt lat="43.57747258956203" lon="12.30675272192174"><ele>883.2</ele><time>2026-04-11T14:18:30.609Z</time></trkpt><trkpt lat="43.577388567185544" lon="12.306716308526246"><ele>883.0</ele><time>2026-04-11T14:18:31.607Z</time></trkpt><trkpt lat="43.57730882066518" lon="12.306665939330141"><ele>883.0</ele><time>2026-04-11T14:18:32.609Z</time></trkpt><trkpt lat="43.57723737585774" lon="12.30659011012573"><ele>883.0</ele><time>2026-04-11T14:18:33.609Z</time></trkpt><trkpt lat="43.57719502121288" lon="12.306494784847052"><ele>883.0</ele><time>2026-04-11T14:18:34.607Z</time></trkpt><trkpt lat="43.57714329297315" lon="12.306382399867145"><ele>883.0</ele><time>2026-04-11T14:18:35.608Z</time></trkpt><trkpt lat="43.577093007340444" lon="12.30625082716848"><ele>883.0</ele><time>2026-04-11T14:18:36.607Z</time></trkpt><trkpt lat="43.57708153301625" lon="12.306102344644176"><ele>882.3333333333333</ele><time>2026-04-11T14:18:37.608Z</time></trkpt><trkpt lat="43.57708769542959" lon="12.305943627755834"><ele>881.6666666666667</ele><time>2026-04-11T14:18:38.608Z</time></trkpt><trkpt lat="43.57713581529201" lon="12.30578388522884"><ele>881.0</ele><time>2026-04-11T14:18:39.608Z</time></trkpt><trkpt lat="43.57726753740903" lon="12.305490288348915"><ele>881.0</ele><time>2026-04-11T14:18:41.606Z</time></trkpt><trkpt lat="43.57735676304834" lon="12.305332000180348"><ele>881.0</ele><time>2026-04-11T14:18:42.606Z</time></trkpt><trkpt lat="43.577436304712414" lon="12.305178246699112"><ele>881.0</ele><time>2026-04-11T14:18:43.607Z</time></trkpt><trkpt lat="43.57751870973268" lon="12.305019597426783"><ele>881.0</ele><time>2026-04-11T14:18:44.608Z</time></trkpt><trkpt lat="43.577585682301525" lon="12.304897465443423"><ele>881.0</ele><time>2026-04-11T14:18:45.609Z</time></trkpt><trkpt lat="43.577632176825794" lon="12.3047660311581"><ele>880.9999999999999</ele><time>2026-04-11T14:18:46.608Z</time></trkpt><trkpt lat="43.57765080375107" lon="12.304615551880765"><ele>880.9999999999999</ele><time>2026-04-11T14:18:47.607Z</time></trkpt><trkpt lat="43.57764315655054" lon="12.304466404337026"><ele>881.0</ele><time>2026-04-11T14:18:48.609Z</time></trkpt><trkpt lat="43.57760292192172" lon="12.304337387397336"><ele>881.0</ele><time>2026-04-11T14:18:49.608Z</time></trkpt><trkpt lat="43.57755557550589" lon="12.304221364182666"><ele>881.5999999999999</ele><time>2026-04-11T14:18:50.608Z</time></trkpt><trkpt lat="43.57748278532771" lon="12.304114800879361"><ele>882.1999999999999</ele><time>2026-04-11T14:18:51.609Z</time></trkpt><trkpt lat="43.57741946113567" lon="12.304040189206289"><ele>882.8000000000001</ele><time>2026-04-11T14:18:52.611Z</time></trkpt><trkpt lat="43.577379609035106" lon="12.303918283456984"><ele>883.4000000000001</ele><time>2026-04-11T14:18:53.61Z</time></trkpt><trkpt lat="43.57736661442294" lon="12.303776596318512"><ele>884.0</ele><time>2026-04-11T14:18:54.609Z</time></trkpt><trkpt lat="43.57737679922366" lon="12.303636550964436"><ele>884.2</ele><time>2026-04-11T14:18:55.609Z</time></trkpt><trkpt lat="43.57739826401149" lon="12.303501505000163"><ele>884.4000000000001</ele><time>2026-04-11T14:18:56.611Z</time></trkpt><trkpt lat="43.5774219696079" lon="12.303360806942878"><ele>884.6</ele><time>2026-04-11T14:18:57.61Z</time></trkpt><trkpt lat="43.57746258234747" lon="12.303223881655594"><ele>884.8</ele><time>2026-04-11T14:18:58.611Z</time></trkpt><trkpt lat="43.577520033242784" lon="12.303095158618133"><ele>885.0</ele><time>2026-04-11T14:18:59.611Z</time></trkpt><trkpt lat="43.577574695982186" lon="12.302967009708356"><ele>883.5</ele><time>2026-04-11T14:19:00.612Z</time></trkpt><trkpt lat="43.57769927818987" lon="12.302696262476381"><ele>882.0</ele><time>2026-04-11T14:19:02.61Z</time></trkpt><trkpt lat="43.57774520068916" lon="12.302565284121021"><ele>880.5</ele><time>2026-04-11T14:19:03.611Z</time></trkpt><trkpt lat="43.57778258159067" lon="12.302448012597555"><ele>879.0</ele><time>2026-04-11T14:19:04.61Z</time></trkpt><trkpt lat="43.577817848579556" lon="12.302342030464247"><ele>877.8333333333334</ele><time>2026-04-11T14:19:05.61Z</time></trkpt><trkpt lat="43.57784585504424" lon="12.302236521502769"><ele>876.6666666666667</ele><time>2026-04-11T14:19:06.611Z</time></trkpt><trkpt lat="43.577871596970425" lon="12.302138770063435"><ele>875.5</ele><time>2026-04-11T14:19:07.611Z</time></trkpt><trkpt lat="43.57790334895659" lon="12.302041841446325"><ele>874.3333333333334</ele><time>2026-04-11T14:19:08.612Z</time></trkpt><trkpt lat="43.57793879539685" lon="12.301936954627548"><ele>873.1666666666667</ele><time>2026-04-11T14:19:09.61Z</time></trkpt><trkpt lat="43.577974292456815" lon="12.301810016812164"><ele>872.0</ele><time>2026-04-11T14:19:10.612Z</time></trkpt><trkpt lat="43.578018212322995" lon="12.301667148512278"><ele>872.0</ele><time>2026-04-11T14:19:11.612Z</time></trkpt><trkpt lat="43.57805062419742" lon="12.301520044742052"><ele>872.0</ele><time>2026-04-11T14:19:12.61Z</time></trkpt><trkpt lat="43.57807156909615" lon="12.301369790453666"><ele>872.0</ele><time>2026-04-11T14:19:13.611Z</time></trkpt><trkpt lat="43.57809108641752" lon="12.301227226068864"><ele>872.0</ele><time>2026-04-11T14:19:14.611Z</time></trkpt><trkpt lat="43.578110888621865" lon="12.301106266767771"><ele>872.0</ele><time>2026-04-11T14:19:15.611Z</time></trkpt><trkpt lat="43.578130918876084" lon="12.300988464090935"><ele>873.2</ele><time>2026-04-11T14:19:16.609Z</time></trkpt><trkpt lat="43.57815465768659" lon="12.300849616041937"><ele>874.4000000000001</ele><time>2026-04-11T14:19:17.61Z</time></trkpt><trkpt lat="43.57816855745572" lon="12.300718476887273"><ele>875.5999999999999</ele><time>2026-04-11T14:19:18.609Z</time></trkpt><trkpt lat="43.578174068271956" lon="12.300605796105145"><ele>876.8</ele><time>2026-04-11T14:19:19.609Z</time></trkpt><trkpt lat="43.57818812610383" lon="12.300504197052497"><ele>878.0</ele><time>2026-04-11T14:19:20.61Z</time></trkpt><trkpt lat="43.57820269230071" lon="12.300320501406803"><ele>882.0</ele><time>2026-04-11T14:19:22.611Z</time></trkpt><trkpt lat="43.5782039709025" lon="12.300114155263566"><ele>886.0</ele><time>2026-04-11T14:19:24.609Z</time></trkpt><trkpt lat="43.57816800729271" lon="12.299997262155301"><ele>890.0</ele><time>2026-04-11T14:19:25.609Z</time></trkpt><trkpt lat="43.578131801949574" lon="12.299854851668597"><ele>894.0</ele><time>2026-04-11T14:19:26.609Z</time></trkpt><trkpt lat="43.57808146009895" lon="12.299709897986856"><ele>894.6</ele><time>2026-04-11T14:19:27.61Z</time></trkpt><trkpt lat="43.57800500426359" lon="12.2995742376693"><ele>895.2</ele><time>2026-04-11T14:19:28.608Z</time></trkpt><trkpt lat="43.57793038724564" lon="12.299470980224122"><ele>895.8000000000001</ele><time>2026-04-11T14:19:29.607Z</time></trkpt><trkpt lat="43.57785966478833" lon="12.299371159606507"><ele>896.4000000000001</ele><time>2026-04-11T14:19:30.61Z</time></trkpt><trkpt lat="43.57779540299552" lon="12.299276265187816"><ele>897.0</ele><time>2026-04-11T14:19:31.609Z</time></trkpt><trkpt lat="43.57772355420067" lon="12.299187891273316"><ele>892.0</ele><time>2026-04-11T14:19:32.609Z</time></trkpt><trkpt lat="43.577638103485846" lon="12.299128325201972"><ele>887.0</ele><time>2026-04-11T14:19:33.608Z</time></trkpt><trkpt lat="43.57754424978878" lon="12.299103128301704"><ele>882.0</ele><time>2026-04-11T14:19:34.608Z</time></trkpt><trkpt lat="43.57744561384384" lon="12.299082414917466"><ele>877.0</ele><time>2026-04-11T14:19:35.609Z</time></trkpt><trkpt lat="43.57735249189052" lon="12.299020178691995"><ele>872.0</ele><time>2026-04-11T14:19:36.61Z</time></trkpt><trkpt lat="43.577269474131285" lon="12.29893055044817"><ele>873.6</ele><time>2026-04-11T14:19:37.609Z</time></trkpt><trkpt lat="43.577176069775305" lon="12.298831634480594"><ele>875.2</ele><time>2026-04-11T14:19:38.608Z</time></trkpt><trkpt lat="43.577093121072714" lon="12.298759803826625"><ele>876.8</ele><time>2026-04-11T14:19:39.609Z</time></trkpt><trkpt lat="43.57700847822531" lon="12.298701319158779"><ele>878.4</ele><time>2026-04-11T14:19:40.61Z</time></trkpt><trkpt lat="43.57692929080255" lon="12.298641593798887"><ele>880.0</ele><time>2026-04-11T14:19:41.609Z</time></trkpt><trkpt lat="43.576852550901094" lon="12.298589752393887"><ele>874.25</ele><time>2026-04-11T14:19:42.61Z</time></trkpt><trkpt lat="43.57677910517112" lon="12.298537480038144"><ele>868.5</ele><time>2026-04-11T14:19:43.609Z</time></trkpt><trkpt lat="43.57662293074799" lon="12.298366580588452"><ele>862.75</ele><time>2026-04-11T14:19:45.61Z</time></trkpt><trkpt lat="43.57654740728929" lon="12.298259465559761"><ele>857.0</ele><time>2026-04-11T14:19:46.611Z</time></trkpt><trkpt lat="43.57648518748436" lon="12.298183203049259"><ele>857.0000000000001</ele><time>2026-04-11T14:19:47.612Z</time></trkpt><trkpt lat="43.57642353886374" lon="12.298105602526"><ele>857.0</ele><time>2026-04-11T14:19:48.611Z</time></trkpt><trkpt lat="43.57637572269139" lon="12.298035121799616"><ele>857.0</ele><time>2026-04-11T14:19:49.61Z</time></trkpt><trkpt lat="43.576332383764004" lon="12.297970526676293"><ele>857.0</ele><time>2026-04-11T14:19:50.611Z</time></trkpt><trkpt lat="43.576272149686986" lon="12.29785489931278"><ele>857.0000000000001</ele><time>2026-04-11T14:19:52.611Z</time></trkpt><trkpt lat="43.576248395225015" lon="12.29774251240315"><ele>857.0</ele><time>2026-04-11T14:19:54.609Z</time></trkpt><trkpt lat="43.57623190546115" lon="12.297658550681072"><ele>857.0000000000001</ele><time>2026-04-11T14:20:03.61Z</time></trkpt><trkpt lat="43.57626875884781" lon="12.29758453470812"><ele>857.0</ele><time>2026-04-11T14:41:02.607Z</time></trkpt><trkpt lat="43.57634812883149" lon="12.29744176032288"><ele>857.0</ele><time>2026-04-11T14:41:07.606Z</time></trkpt><trkpt lat="43.57640470533041" lon="12.297481482006368"><ele>857.0</ele><time>2026-04-11T14:41:09.606Z</time></trkpt><trkpt lat="43.57645922313618" lon="12.297416353590036"><ele>857.0000000000001</ele><time>2026-04-11T14:41:22.607Z</time></trkpt><trkpt lat="43.5763926356095" lon="12.29738292841874"><ele>857.0</ele><time>2026-04-11T14:41:25.608Z</time></trkpt><trkpt lat="43.576271034633656" lon="12.297473769022027"><ele>857.0</ele><time>2026-04-11T14:41:30.607Z</time></trkpt><trkpt lat="43.57626651835228" lon="12.297575109316139"><ele>857.0</ele><time>2026-04-11T14:41:33.607Z</time></trkpt><trkpt lat="43.576221104401306" lon="12.297639270048103"><ele>857.0</ele><time>2026-04-11T14:44:11.606Z</time></trkpt><trkpt lat="43.576259915756324" lon="12.297820865244844"><ele>857.0</ele><time>2026-04-11T14:44:19.607Z</time></trkpt><trkpt lat="43.576287254228646" lon="12.29790279756644"><ele>857.0</ele><time>2026-04-11T14:44:47.606Z</time></trkpt><trkpt lat="43.576368478155906" lon="12.298074269929957"><ele>857.0000000000001</ele><time>2026-04-11T14:44:52.606Z</time></trkpt><trkpt lat="43.57642956830683" lon="12.298172138433195"><ele>857.0</ele><time>2026-04-11T14:44:55.608Z</time></trkpt><trkpt lat="43.576487938791914" lon="12.29824553032443"><ele>857.0</ele><time>2026-04-11T14:44:58.608Z</time></trkpt><trkpt lat="43.576536614503404" lon="12.298319967198601"><ele>857.0</ele><time>2026-04-11T14:45:01.609Z</time></trkpt><trkpt lat="43.57660310989699" lon="12.298396531411996"><ele>857.0000000000001</ele><time>2026-04-11T14:45:04.608Z</time></trkpt><trkpt lat="43.57665529030891" lon="12.298457456333232"><ele>857.0</ele><time>2026-04-11T14:45:06.608Z</time></trkpt><trkpt lat="43.57671964914594" lon="12.298555057178058"><ele>857.0</ele><time>2026-04-11T14:45:09.607Z</time></trkpt><trkpt lat="43.57685888906604" lon="12.298623757599154"><ele>857.0</ele><time>2026-04-11T14:45:49.605Z</time></trkpt><trkpt lat="43.57704736447243" lon="12.298765780629797"><ele>857.0</ele><time>2026-04-11T14:45:53.605Z</time></trkpt><trkpt lat="43.577107432830125" lon="12.298805324328217"><ele>857.0</ele><time>2026-04-11T14:45:54.605Z</time></trkpt><trkpt lat="43.577203380081194" lon="12.29890139749357"><ele>860.0</ele><time>2026-04-11T14:45:56.606Z</time></trkpt><trkpt lat="43.57729153676394" lon="12.29899663833408"><ele>863.0</ele><time>2026-04-11T14:45:58.605Z</time></trkpt><trkpt lat="43.57739459012284" lon="12.299080471362515"><ele>866.0</ele><time>2026-04-11T14:46:00.606Z</time></trkpt><trkpt lat="43.57752152368497" lon="12.299145848349728"><ele>869.0</ele><time>2026-04-11T14:46:02.608Z</time></trkpt><trkpt lat="43.57759665956746" lon="12.299162828229695"><ele>872.0</ele><time>2026-04-11T14:46:03.607Z</time></trkpt><trkpt lat="43.5776692294472" lon="12.299183311839117"><ele>872.0</ele><time>2026-04-11T14:46:04.607Z</time></trkpt><trkpt lat="43.577729896586334" lon="12.299220675539331"><ele>872.0</ele><time>2026-04-11T14:46:05.606Z</time></trkpt><trkpt lat="43.577821360762066" lon="12.299326864759566"><ele>872.0</ele><time>2026-04-11T14:46:07.606Z</time></trkpt><trkpt lat="43.57790644660279" lon="12.29946354717752"><ele>872.0</ele><time>2026-04-11T14:46:09.606Z</time></trkpt><trkpt lat="43.57794577302867" lon="12.29953881639597"><ele>872.0</ele><time>2026-04-11T14:46:10.607Z</time></trkpt><trkpt lat="43.57803707794018" lon="12.299677967319088"><ele>875.6666666666667</ele><time>2026-04-11T14:46:12.606Z</time></trkpt><trkpt lat="43.57808096893292" lon="12.299753514425426"><ele>879.3333333333334</ele><time>2026-04-11T14:46:13.606Z</time></trkpt><trkpt lat="43.57812419933765" lon="12.299841792368625"><ele>883.0</ele><time>2026-04-11T14:46:14.606Z</time></trkpt><trkpt lat="43.57815301476554" lon="12.29992430536314"><ele>886.6666666666667</ele><time>2026-04-11T14:46:15.606Z</time></trkpt><trkpt lat="43.5781695503469" lon="12.300034914116502"><ele>890.3333333333334</ele><time>2026-04-11T14:46:17.606Z</time></trkpt><trkpt lat="43.57820021472323" lon="12.300164967608954"><ele>894.0</ele><time>2026-04-11T14:46:19.603Z</time></trkpt><trkpt lat="43.578212901258105" lon="12.300341899799541"><ele>894.0</ele><time>2026-04-11T14:46:21.606Z</time></trkpt><trkpt lat="43.57821392516981" lon="12.30045289782757"><ele>894.0</ele><time>2026-04-11T14:46:22.605Z</time></trkpt><trkpt lat="43.57820349033307" lon="12.300560158881025"><ele>894.0</ele><time>2026-04-11T14:46:23.607Z</time></trkpt><trkpt lat="43.57818751965195" lon="12.300654387950665"><ele>894.0</ele><time>2026-04-11T14:46:24.607Z</time></trkpt><trkpt lat="43.57817452375267" lon="12.300769572191623"><ele>894.0</ele><time>2026-04-11T14:46:25.607Z</time></trkpt><trkpt lat="43.578154058875526" lon="12.300893366493584"><ele>894.0</ele><time>2026-04-11T14:46:26.607Z</time></trkpt><trkpt lat="43.57813648945546" lon="12.301001123544518"><ele>890.8000000000001</ele><time>2026-04-11T14:46:27.607Z</time></trkpt><trkpt lat="43.578111389668045" lon="12.301109123803583"><ele>887.6000000000001</ele><time>2026-04-11T14:46:28.608Z</time></trkpt><trkpt lat="43.57809071563305" lon="12.301195606502024"><ele>884.4</ele><time>2026-04-11T14:46:29.606Z</time></trkpt><trkpt lat="43.57807529844286" lon="12.301287287819349"><ele>881.2</ele><time>2026-04-11T14:46:30.607Z</time></trkpt><trkpt lat="43.578045599122206" lon="12.301437696484928"><ele>878.0</ele><time>2026-04-11T14:46:32.606Z</time></trkpt><trkpt lat="43.57798493891007" lon="12.301705691731188"><ele>878.2</ele><time>2026-04-11T14:46:36.608Z</time></trkpt><trkpt lat="43.57795655895275" lon="12.301884562489974"><ele>878.4</ele><time>2026-04-11T14:46:38.608Z</time></trkpt><trkpt lat="43.57793064869019" lon="12.301986610001453"><ele>878.6000000000001</ele><time>2026-04-11T14:46:39.609Z</time></trkpt><trkpt lat="43.57790067065831" lon="12.302130290977404"><ele>878.8000000000001</ele><time>2026-04-11T14:46:40.606Z</time></trkpt><trkpt lat="43.57785516293132" lon="12.302265248097791"><ele>879.0</ele><time>2026-04-11T14:46:41.607Z</time></trkpt><trkpt lat="43.57782053608152" lon="12.302397132384257"><ele>879.0</ele><time>2026-04-11T14:46:42.608Z</time></trkpt><trkpt lat="43.57778101844259" lon="12.302521607058962"><ele>879.0000000000001</ele><time>2026-04-11T14:46:43.608Z</time></trkpt><trkpt lat="43.5777452412462" lon="12.302645316426439"><ele>879.0000000000001</ele><time>2026-04-11T14:46:44.607Z</time></trkpt><trkpt lat="43.57770437350498" lon="12.30275627948981"><ele>879.0</ele><time>2026-04-11T14:46:45.607Z</time></trkpt><trkpt lat="43.57765316874936" lon="12.302865787505677"><ele>879.0</ele><time>2026-04-11T14:46:46.609Z</time></trkpt><trkpt lat="43.57758188148073" lon="12.302959292129655"><ele>879.0</ele><time>2026-04-11T14:46:47.607Z</time></trkpt><trkpt lat="43.57751399426291" lon="12.303034817399869"><ele>879.0000000000001</ele><time>2026-04-11T14:46:48.607Z</time></trkpt><trkpt lat="43.57743804810557" lon="12.303120766266066"><ele>879.0000000000001</ele><time>2026-04-11T14:46:50.609Z</time></trkpt><trkpt lat="43.57739515664418" lon="12.303188403160837"><ele>879.0</ele><time>2026-04-11T14:46:52.608Z</time></trkpt><trkpt lat="43.57733233458251" lon="12.30326301010971"><ele>879.0</ele><time>2026-04-11T14:46:54.609Z</time></trkpt><trkpt lat="43.57729683749562" lon="12.303468665028559"><ele>880.2</ele><time>2026-04-11T14:47:00.61Z</time></trkpt><trkpt lat="43.57731134327894" lon="12.30334637551011"><ele>881.4000000000001</ele><time>2026-04-11T14:47:12.611Z</time></trkpt><trkpt lat="43.57736859938543" lon="12.303295487912825"><ele>882.6</ele><time>2026-04-11T14:47:13.61Z</time></trkpt><trkpt lat="43.57746310364054" lon="12.30330549002377"><ele>883.8</ele><time>2026-04-11T14:47:15.608Z</time></trkpt><trkpt lat="43.577416778022695" lon="12.303547785878203"><ele>885.0</ele><time>2026-04-11T14:47:19.607Z</time></trkpt><trkpt lat="43.57738361220378" lon="12.303682345719853"><ele>885.0</ele><time>2026-04-11T14:47:21.608Z</time></trkpt><trkpt lat="43.5773401515821" lon="12.303771180417414"><ele>885.0</ele><time>2026-04-11T14:47:22.607Z</time></trkpt><trkpt lat="43.577279204481215" lon="12.303848460369787"><ele>885.0</ele><time>2026-04-11T14:47:23.609Z</time></trkpt><trkpt lat="43.577209028571716" lon="12.303918644836568"><ele>885.0</ele><time>2026-04-11T14:47:24.608Z</time></trkpt><trkpt lat="43.577140891742964" lon="12.303972672270673"><ele>885.0</ele><time>2026-04-11T14:47:25.609Z</time></trkpt><trkpt lat="43.577068198567524" lon="12.30403311753118"><ele>885.0</ele><time>2026-04-11T14:47:26.608Z</time></trkpt><trkpt lat="43.57700894720767" lon="12.304091717917544"><ele>886.25</ele><time>2026-04-11T14:47:27.608Z</time></trkpt><trkpt lat="43.5769374980178" lon="12.304160361959534"><ele>887.5</ele><time>2026-04-11T14:47:28.607Z</time></trkpt><trkpt lat="43.576855713442335" lon="12.304289468884594"><ele>888.75</ele><time>2026-04-11T14:47:30.608Z</time></trkpt><trkpt lat="43.57675743772369" lon="12.304416061280731"><ele>890.0</ele><time>2026-04-11T14:47:32.608Z</time></trkpt><trkpt lat="43.57668165464156" lon="12.3045587137521"><ele>890.0</ele><time>2026-04-11T14:47:34.608Z</time></trkpt><trkpt lat="43.57666837090698" lon="12.304649932644326"><ele>890.0</ele><time>2026-04-11T14:47:35.609Z</time></trkpt><trkpt lat="43.576580154924876" lon="12.304743438867455"><ele>890.0</ele><time>2026-04-11T14:47:37.607Z</time></trkpt><trkpt lat="43.57640911833409" lon="12.304730648631615"><ele>890.0</ele><time>2026-04-11T14:47:39.606Z</time></trkpt><trkpt lat="43.57631885665684" lon="12.304754461595385"><ele>890.0</ele><time>2026-04-11T14:47:40.608Z</time></trkpt><trkpt lat="43.576220350893855" lon="12.304760656893324"><ele>893.0</ele><time>2026-04-11T14:47:41.605Z</time></trkpt><trkpt lat="43.576151655143114" lon="12.30476463355964"><ele>896.0</ele><time>2026-04-11T14:47:42.608Z</time></trkpt><trkpt lat="43.57604212597699" lon="12.30482279079924"><ele>899.0</ele><time>2026-04-11T14:47:44.608Z</time></trkpt><trkpt lat="43.57597186939395" lon="12.304841133326006"><ele>902.0</ele><time>2026-04-11T14:47:45.608Z</time></trkpt><trkpt lat="43.57590541915326" lon="12.304982654316218"><ele>905.0</ele><time>2026-04-11T14:47:47.608Z</time></trkpt><trkpt lat="43.57587677235639" lon="12.305081988810084"><ele>905.0</ele><time>2026-04-11T14:47:48.607Z</time></trkpt><trkpt lat="43.57583754636087" lon="12.30519623653942"><ele>905.0</ele><time>2026-04-11T14:47:49.61Z</time></trkpt><trkpt lat="43.57576877001235" lon="12.305284435270567"><ele>905.0</ele><time>2026-04-11T14:47:50.609Z</time></trkpt><trkpt lat="43.57569223675908" lon="12.305376200396715"><ele>905.0</ele><time>2026-04-11T14:47:51.608Z</time></trkpt><trkpt lat="43.575629118964756" lon="12.305453970335101"><ele>905.0</ele><time>2026-04-11T14:47:52.609Z</time></trkpt><trkpt lat="43.57555520635278" lon="12.30552923489967"><ele>907.6666666666667</ele><time>2026-04-11T14:47:53.608Z</time></trkpt><trkpt lat="43.5754982452095" lon="12.305605852602572"><ele>910.3333333333334</ele><time>2026-04-11T14:47:54.607Z</time></trkpt><trkpt lat="43.57544616972941" lon="12.305666077012779"><ele>913.0</ele><time>2026-04-11T14:47:55.606Z</time></trkpt><trkpt lat="43.57538694102485" lon="12.305711706496995"><ele>915.6666666666667</ele><time>2026-04-11T14:47:56.606Z</time></trkpt><trkpt lat="43.575317934065744" lon="12.305752909216686"><ele>918.3333333333334</ele><time>2026-04-11T14:47:57.607Z</time></trkpt><trkpt lat="43.575244262451434" lon="12.305763756406016"><ele>921.0</ele><time>2026-04-11T14:47:58.606Z</time></trkpt><trkpt lat="43.57506538026821" lon="12.30569795116807"><ele>922.3333333333334</ele><time>2026-04-11T14:48:00.605Z</time></trkpt><trkpt lat="43.5749773444644" lon="12.305665563286954"><ele>923.6666666666667</ele><time>2026-04-11T14:48:01.605Z</time></trkpt><trkpt lat="43.57487806374189" lon="12.30565102794825"><ele>925.0</ele><time>2026-04-11T14:48:02.606Z</time></trkpt><trkpt lat="43.57482086677318" lon="12.305612290522065"><ele>926.3333333333334</ele><time>2026-04-11T14:48:03.607Z</time></trkpt><trkpt lat="43.57473439004445" lon="12.30556934744217"><ele>927.6666666666667</ele><time>2026-04-11T14:48:04.606Z</time></trkpt><trkpt lat="43.57465413892906" lon="12.305510034553139"><ele>929.0</ele><time>2026-04-11T14:48:05.607Z</time></trkpt><trkpt lat="43.57460081610043" lon="12.305434965358439"><ele>925.5000000000001</ele><time>2026-04-11T14:48:06.605Z</time></trkpt><trkpt lat="43.57453103970288" lon="12.30538248318192"><ele>922.0</ele><time>2026-04-11T14:48:07.607Z</time></trkpt><trkpt lat="43.5744610820544" lon="12.305326011420917"><ele>918.5</ele><time>2026-04-11T14:48:08.608Z</time></trkpt><trkpt lat="43.57437467020478" lon="12.30535294344824"><ele>915.0</ele><time>2026-04-11T14:48:10.61Z</time></trkpt><trkpt lat="43.57431077466827" lon="12.30543346152986"><ele>911.5000000000001</ele><time>2026-04-11T14:48:12.609Z</time></trkpt><trkpt lat="43.57424204630378" lon="12.305471685723465"><ele>908.0</ele><time>2026-04-11T14:48:15.608Z</time></trkpt><trkpt lat="43.57416232091018" lon="12.30549509128458"><ele>908.0</ele><time>2026-04-11T14:49:01.608Z</time></trkpt><trkpt lat="43.5740144189485" lon="12.305569581023452"><ele>908.0</ele><time>2026-04-11T14:49:05.609Z</time></trkpt><trkpt lat="43.573950957359216" lon="12.305632064655702"><ele>908.0</ele><time>2026-04-11T14:49:06.609Z</time></trkpt><trkpt lat="43.573880292869134" lon="12.305707558042526"><ele>908.0</ele><time>2026-04-11T14:49:07.607Z</time></trkpt><trkpt lat="43.57382770644777" lon="12.305763514618715"><ele>908.0</ele><time>2026-04-11T14:49:08.607Z</time></trkpt><trkpt lat="43.5737109649531" lon="12.305717196412981"><ele>908.0000000000001</ele><time>2026-04-11T14:49:10.608Z</time></trkpt><trkpt lat="43.57364007276007" lon="12.305631714756906"><ele>908.0</ele><time>2026-04-11T14:49:11.608Z</time></trkpt><trkpt lat="43.57357490946978" lon="12.305548152557513"><ele>908.0</ele><time>2026-04-11T14:49:12.606Z</time></trkpt><trkpt lat="43.57350690932447" lon="12.305503270700703"><ele>908.0</ele><time>2026-04-11T14:49:13.608Z</time></trkpt><trkpt lat="43.57343384650492" lon="12.305494994394405"><ele>908.0000000000001</ele><time>2026-04-11T14:49:14.608Z</time></trkpt><trkpt lat="43.57336347645582" lon="12.305530179080845"><ele>908.0</ele><time>2026-04-11T14:49:15.607Z</time></trkpt><trkpt lat="43.57326550382149" lon="12.305545295724183"><ele>908.0000000000001</ele><time>2026-04-11T14:49:16.608Z</time></trkpt><trkpt lat="43.573163590963574" lon="12.30553919827674"><ele>908.0</ele><time>2026-04-11T14:49:17.608Z</time></trkpt><trkpt lat="43.57309344594658" lon="12.305544504236765"><ele>908.0</ele><time>2026-04-11T14:49:18.606Z</time></trkpt><trkpt lat="43.57301937339344" lon="12.305579357615454"><ele>908.0</ele><time>2026-04-11T14:49:19.606Z</time></trkpt><trkpt lat="43.57295720660635" lon="12.30559882080007"><ele>908.0000000000001</ele><time>2026-04-11T14:49:20.608Z</time></trkpt><trkpt lat="43.57288327676546" lon="12.305553908604345"><ele>908.0</ele><time>2026-04-11T14:49:21.609Z</time></trkpt><trkpt lat="43.57280405784214" lon="12.30550085548619"><ele>907.2</ele><time>2026-04-11T14:49:22.606Z</time></trkpt><trkpt lat="43.57265496324674" lon="12.305411752464842"><ele>906.4</ele><time>2026-04-11T14:49:24.607Z</time></trkpt><trkpt lat="43.57257571779362" lon="12.305361143436292"><ele>905.6000000000001</ele><time>2026-04-11T14:49:25.606Z</time></trkpt><trkpt lat="43.57252091573602" lon="12.305304377422123"><ele>904.8000000000001</ele><time>2026-04-11T14:49:26.606Z</time></trkpt><trkpt lat="43.57245852553891" lon="12.305182121718337"><ele>904.0</ele><time>2026-04-11T14:49:28.606Z</time></trkpt><trkpt lat="43.57244044230615" lon="12.305094968348168"><ele>903.9999999999999</ele><time>2026-04-11T14:49:29.607Z</time></trkpt><trkpt lat="43.5724236415408" lon="12.304992458807812"><ele>904.0</ele><time>2026-04-11T14:49:30.606Z</time></trkpt><trkpt lat="43.57242036926884" lon="12.30486748641983"><ele>904.0</ele><time>2026-04-11T14:49:31.606Z</time></trkpt><trkpt lat="43.57240384353994" lon="12.304763299383815"><ele>904.0</ele><time>2026-04-11T14:49:32.608Z</time></trkpt><trkpt lat="43.572389545090154" lon="12.304669693153993"><ele>903.9999999999999</ele><time>2026-04-11T14:49:33.608Z</time></trkpt><trkpt lat="43.57237343390437" lon="12.304581709082704"><ele>904.0</ele><time>2026-04-11T14:49:34.608Z</time></trkpt><trkpt lat="43.5723593577792" lon="12.304482418890673"><ele>900.8000000000001</ele><time>2026-04-11T14:49:35.608Z</time></trkpt><trkpt lat="43.572335756702145" lon="12.304331848594444"><ele>897.6000000000001</ele><time>2026-04-11T14:49:37.608Z</time></trkpt><trkpt lat="43.572285863786774" lon="12.304213355629289"><ele>894.4</ele><time>2026-04-11T14:49:39.604Z</time></trkpt><trkpt lat="43.57216666081623" lon="12.30418737090422"><ele>891.2</ele><time>2026-04-11T14:49:41.609Z</time></trkpt><trkpt lat="43.572080612771956" lon="12.304151020264175"><ele>888.0</ele><time>2026-04-11T14:49:42.607Z</time></trkpt><trkpt lat="43.57200253502603" lon="12.304107874890057"><ele>888.0</ele><time>2026-04-11T14:49:43.606Z</time></trkpt><trkpt lat="43.57189270967814" lon="12.303993105257204"><ele>888.0</ele><time>2026-04-11T14:49:45.609Z</time></trkpt><trkpt lat="43.57186106458329" lon="12.303904685979546"><ele>888.0</ele><time>2026-04-11T14:49:46.609Z</time></trkpt><trkpt lat="43.57173002906513" lon="12.303796264357409"><ele>888.0</ele><time>2026-04-11T14:49:48.608Z</time></trkpt><trkpt lat="43.571648180260944" lon="12.303756421018578"><ele>888.0</ele><time>2026-04-11T14:49:49.609Z</time></trkpt><trkpt lat="43.57152580241707" lon="12.30369988436967"><ele>884.5999999999999</ele><time>2026-04-11T14:49:51.608Z</time></trkpt><trkpt lat="43.571464183803236" lon="12.303660881159034"><ele>881.1999999999999</ele><time>2026-04-11T14:49:52.609Z</time></trkpt><trkpt lat="43.571383177396825" lon="12.303622774413702"><ele>877.8</ele><time>2026-04-11T14:49:53.609Z</time></trkpt><trkpt lat="43.57129727739983" lon="12.303637499323404"><ele>874.4</ele><time>2026-04-11T14:49:54.609Z</time></trkpt><trkpt lat="43.57119907116565" lon="12.303652992265596"><ele>871.0</ele><time>2026-04-11T14:49:55.609Z</time></trkpt><trkpt lat="43.571079995354694" lon="12.303643284255989"><ele>870.4</ele><time>2026-04-11T14:49:56.608Z</time></trkpt><trkpt lat="43.57097011291485" lon="12.303606337615756"><ele>869.8</ele><time>2026-04-11T14:49:57.608Z</time></trkpt><trkpt lat="43.57087120705337" lon="12.303575071293"><ele>869.1999999999999</ele><time>2026-04-11T14:49:58.608Z</time></trkpt><trkpt lat="43.570769361909" lon="12.30355010863403"><ele>868.5999999999999</ele><time>2026-04-11T14:49:59.608Z</time></trkpt><trkpt lat="43.57067884422406" lon="12.303546665405413"><ele>868.0</ele><time>2026-04-11T14:50:00.609Z</time></trkpt><trkpt lat="43.5706024652871" lon="12.30357928159582"><ele>868.0</ele><time>2026-04-11T14:50:01.608Z</time></trkpt><trkpt lat="43.57053304871579" lon="12.303626211104767"><ele>868.0</ele><time>2026-04-11T14:50:02.608Z</time></trkpt><trkpt lat="43.57045146303148" lon="12.30362704816861"><ele>868.0</ele><time>2026-04-11T14:50:03.615Z</time></trkpt><trkpt lat="43.57039136404892" lon="12.303587133346207"><ele>868.0</ele><time>2026-04-11T14:50:04.609Z</time></trkpt><trkpt lat="43.570241220679954" lon="12.303475420480659"><ele>868.0</ele><time>2026-04-11T14:50:06.609Z</time></trkpt><trkpt lat="43.5701269854266" lon="12.303441203745269"><ele>867.4</ele><time>2026-04-11T14:50:07.608Z</time></trkpt><trkpt lat="43.57001879357214" lon="12.303402004502136"><ele>866.8</ele><time>2026-04-11T14:50:08.609Z</time></trkpt><trkpt lat="43.56991490097059" lon="12.303357371630282"><ele>866.2</ele><time>2026-04-11T14:50:09.609Z</time></trkpt><trkpt lat="43.56982593704224" lon="12.303302316085322"><ele>865.6</ele><time>2026-04-11T14:50:10.609Z</time></trkpt><trkpt lat="43.569752012197974" lon="12.303240640461455"><ele>865.0</ele><time>2026-04-11T14:50:11.608Z</time></trkpt><trkpt lat="43.56967450603386" lon="12.303163264008784"><ele>865.0</ele><time>2026-04-11T14:50:12.607Z</time></trkpt><trkpt lat="43.569564148281835" lon="12.303131272121107"><ele>865.0</ele><time>2026-04-11T14:50:14.609Z</time></trkpt><trkpt lat="43.56950653923485" lon="12.303176695888144"><ele>865.0</ele><time>2026-04-11T14:50:15.609Z</time></trkpt><trkpt lat="43.56943020794679" lon="12.303224484161461"><ele>865.0</ele><time>2026-04-11T14:50:16.609Z</time></trkpt><trkpt lat="43.56932297496542" lon="12.30325967029532"><ele>865.0</ele><time>2026-04-11T14:50:17.609Z</time></trkpt><trkpt lat="43.569194212088156" lon="12.30328833015431"><ele>864.0</ele><time>2026-04-11T14:50:18.609Z</time></trkpt><trkpt lat="43.56906807038529" lon="12.303318760280012"><ele>863.0</ele><time>2026-04-11T14:50:19.607Z</time></trkpt><trkpt lat="43.5689445906938" lon="12.303358762341478"><ele>862.0</ele><time>2026-04-11T14:50:20.609Z</time></trkpt><trkpt lat="43.56884417357578" lon="12.303415010926818"><ele>861.0</ele><time>2026-04-11T14:50:21.609Z</time></trkpt><trkpt lat="43.56875065110613" lon="12.303486407448462"><ele>859.8</ele><time>2026-04-11T14:50:22.609Z</time></trkpt><trkpt lat="43.56867711550034" lon="12.303531493974205"><ele>858.5999999999999</ele><time>2026-04-11T14:50:23.608Z</time></trkpt><trkpt lat="43.56858390124708" lon="12.30356208313514"><ele>857.4</ele><time>2026-04-11T14:50:24.608Z</time></trkpt><trkpt lat="43.56850218204692" lon="12.303584022186108"><ele>856.2</ele><time>2026-04-11T14:50:25.609Z</time></trkpt><trkpt lat="43.56835888385187" lon="12.303589752839484"><ele>855.0</ele><time>2026-04-11T14:50:27.608Z</time></trkpt><trkpt lat="43.56829931059732" lon="12.303533870692496"><ele>855.0</ele><time>2026-04-11T14:50:28.607Z</time></trkpt><trkpt lat="43.56824486750958" lon="12.303454323836737"><ele>855.0</ele><time>2026-04-11T14:50:29.607Z</time></trkpt><trkpt lat="43.568194861680006" lon="12.303380167117236"><ele>855.0</ele><time>2026-04-11T14:50:30.61Z</time></trkpt><trkpt lat="43.56812863111112" lon="12.303325273300388"><ele>855.0</ele><time>2026-04-11T14:50:31.609Z</time></trkpt><trkpt lat="43.568042122625926" lon="12.303263284316843"><ele>855.0</ele><time>2026-04-11T14:50:32.609Z</time></trkpt><trkpt lat="43.56795538675643" lon="12.303200009657704"><ele>855.0</ele><time>2026-04-11T14:50:33.609Z</time></trkpt><trkpt lat="43.56788095756902" lon="12.303127989867301"><ele>852.4</ele><time>2026-04-11T14:50:34.609Z</time></trkpt><trkpt lat="43.56782778737788" lon="12.30303322807597"><ele>849.8</ele><time>2026-04-11T14:50:35.61Z</time></trkpt><trkpt lat="43.56777963782483" lon="12.302971362937155"><ele>847.2</ele><time>2026-04-11T14:50:36.61Z</time></trkpt><trkpt lat="43.56770279258819" lon="12.302901838437794"><ele>844.6</ele><time>2026-04-11T14:50:37.61Z</time></trkpt><trkpt lat="43.56760307685971" lon="12.302841038492398"><ele>842.0</ele><time>2026-04-11T14:50:38.61Z</time></trkpt><trkpt lat="43.56750446421031" lon="12.30280579020506"><ele>842.0000000000001</ele><time>2026-04-11T14:50:39.608Z</time></trkpt><trkpt lat="43.567420864283044" lon="12.3027733573988"><ele>842.0</ele><time>2026-04-11T14:50:40.609Z</time></trkpt><trkpt lat="43.567345589479864" lon="12.302780379066638"><ele>842.0</ele><time>2026-04-11T14:50:41.61Z</time></trkpt><trkpt lat="43.56727199269675" lon="12.302808506394104"><ele>842.0</ele><time>2026-04-11T14:50:42.608Z</time></trkpt><trkpt lat="43.567172012855906" lon="12.302733466618255"><ele>842.0000000000001</ele><time>2026-04-11T14:50:44.609Z</time></trkpt><trkpt lat="43.56712824450533" lon="12.302642000415323"><ele>842.0</ele><time>2026-04-11T14:50:46.607Z</time></trkpt><trkpt lat="43.56703000234805" lon="12.30283297618006"><ele>843.2</ele><time>2026-04-11T14:50:50.607Z</time></trkpt><trkpt lat="43.56691927348069" lon="12.302835870119694"><ele>844.4000000000001</ele><time>2026-04-11T14:50:52.607Z</time></trkpt><trkpt lat="43.56681790594071" lon="12.302790907721644"><ele>845.5999999999999</ele><time>2026-04-11T14:50:53.608Z</time></trkpt><trkpt lat="43.56671539740894" lon="12.302752988706223"><ele>846.8</ele><time>2026-04-11T14:50:54.608Z</time></trkpt><trkpt lat="43.56662035718309" lon="12.302719551158555"><ele>848.0</ele><time>2026-04-11T14:50:55.607Z</time></trkpt><trkpt lat="43.566534813425186" lon="12.302719579500836"><ele>848.0</ele><time>2026-04-11T14:50:56.608Z</time></trkpt><trkpt lat="43.56645088606791" lon="12.30274937514502"><ele>848.0</ele><time>2026-04-11T14:50:57.607Z</time></trkpt><trkpt lat="43.56634260523607" lon="12.302782567185854"><ele>848.0</ele><time>2026-04-11T14:50:58.606Z</time></trkpt><trkpt lat="43.56624207193575" lon="12.30282275058826"><ele>848.0</ele><time>2026-04-11T14:50:59.61Z</time></trkpt><trkpt lat="43.566140748600034" lon="12.302849564477656"><ele>848.0</ele><time>2026-04-11T14:51:00.606Z</time></trkpt><trkpt lat="43.56603648898981" lon="12.302834590140042"><ele>850.0000000000001</ele><time>2026-04-11T14:51:01.606Z</time></trkpt><trkpt lat="43.565956603864315" lon="12.302787719807995"><ele>852.0</ele><time>2026-04-11T14:51:02.606Z</time></trkpt><trkpt lat="43.56590345420425" lon="12.302683618839556"><ele>854.0</ele><time>2026-04-11T14:51:03.609Z</time></trkpt><trkpt lat="43.56585436212181" lon="12.302570928549144"><ele>856.0</ele><time>2026-04-11T14:51:04.608Z</time></trkpt><trkpt lat="43.56578894802448" lon="12.302507484318125"><ele>858.0000000000001</ele><time>2026-04-11T14:51:05.607Z</time></trkpt><trkpt lat="43.56572311998191" lon="12.30249780478098"><ele>860.0</ele><time>2026-04-11T14:51:06.61Z</time></trkpt><trkpt lat="43.565648493630036" lon="12.302534463982932"><ele>860.0</ele><time>2026-04-11T14:51:07.609Z</time></trkpt><trkpt lat="43.56557434395127" lon="12.302808869432953"><ele>860.0</ele><time>2026-04-11T14:51:11.608Z</time></trkpt><trkpt lat="43.56553906482408" lon="12.302918921749109"><ele>860.0</ele><time>2026-04-11T14:51:13.61Z</time></trkpt><trkpt lat="43.56553477050659" lon="12.303039277504856"><ele>860.0</ele><time>2026-04-11T14:51:22.61Z</time></trkpt><trkpt lat="43.56553425941024" lon="12.303186936146975"><ele>863.25</ele><time>2026-04-11T14:51:24.609Z</time></trkpt><trkpt lat="43.56563740714916" lon="12.303328496033895"><ele>866.5</ele><time>2026-04-11T14:51:26.608Z</time></trkpt><trkpt lat="43.56568668076796" lon="12.303385047741346"><ele>869.75</ele><time>2026-04-11T14:51:27.608Z</time></trkpt><trkpt lat="43.56581413585494" lon="12.303417983324628"><ele>873.0</ele><time>2026-04-11T14:51:29.607Z</time></trkpt><trkpt lat="43.56595304526403" lon="12.303562825941885"><ele>873.0</ele><time>2026-04-11T14:51:31.607Z</time></trkpt><trkpt lat="43.566040789487545" lon="12.303655649503645"><ele>873.0</ele><time>2026-04-11T14:51:32.609Z</time></trkpt><trkpt lat="43.566137985776955" lon="12.303723971651078"><ele>873.0</ele><time>2026-04-11T14:51:33.606Z</time></trkpt><trkpt lat="43.56623984638726" lon="12.303783527663905"><ele>873.0</ele><time>2026-04-11T14:51:34.609Z</time></trkpt><trkpt lat="43.566300847059125" lon="12.303856429802421"><ele>873.0</ele><time>2026-04-11T14:51:35.61Z</time></trkpt><trkpt lat="43.56632717102721" lon="12.30396305075869"><ele>874.0</ele><time>2026-04-11T14:51:36.609Z</time></trkpt><trkpt lat="43.5663520796479" lon="12.304091545145686"><ele>875.0</ele><time>2026-04-11T14:51:37.606Z</time></trkpt><trkpt lat="43.56637538317046" lon="12.304226261657991"><ele>876.0</ele><time>2026-04-11T14:51:38.607Z</time></trkpt><trkpt lat="43.5663931738523" lon="12.30437396853691"><ele>877.0</ele><time>2026-04-11T14:51:39.608Z</time></trkpt><trkpt lat="43.566388265894524" lon="12.30450160853254"><ele>878.0</ele><time>2026-04-11T14:51:40.607Z</time></trkpt><trkpt lat="43.56637915860987" lon="12.304624398296564"><ele>878.0000000000001</ele><time>2026-04-11T14:51:41.607Z</time></trkpt><trkpt lat="43.56640643316312" lon="12.304736824982564"><ele>878.0</ele><time>2026-04-11T14:51:42.607Z</time></trkpt><trkpt lat="43.56645699481418" lon="12.304822131303359"><ele>878.0</ele><time>2026-04-11T14:51:43.608Z</time></trkpt><trkpt lat="43.56648904612764" lon="12.304905258688056"><ele>878.0</ele><time>2026-04-11T14:51:44.607Z</time></trkpt><trkpt lat="43.56655038174599" lon="12.305010250617606"><ele>878.0000000000001</ele><time>2026-04-11T14:51:45.609Z</time></trkpt><trkpt lat="43.56660134691086" lon="12.305137520214846"><ele>878.0</ele><time>2026-04-11T14:51:46.607Z</time></trkpt><trkpt lat="43.566655328144144" lon="12.305235548523308"><ele>880.75</ele><time>2026-04-11T14:51:47.609Z</time></trkpt><trkpt lat="43.56673396878188" lon="12.305350371254908"><ele>883.5</ele><time>2026-04-11T14:51:48.607Z</time></trkpt><trkpt lat="43.566810566034675" lon="12.305450691879091"><ele>886.25</ele><time>2026-04-11T14:51:49.607Z</time></trkpt><trkpt lat="43.566879398711556" lon="12.305559567993068"><ele>889.0</ele><time>2026-04-11T14:51:50.608Z</time></trkpt><trkpt lat="43.56693611024623" lon="12.305753628429434"><ele>890.6</ele><time>2026-04-11T14:51:52.606Z</time></trkpt><trkpt lat="43.56694057832122" lon="12.305846527653147"><ele>892.2</ele><time>2026-04-11T14:51:53.606Z</time></trkpt><trkpt lat="43.56704600713902" lon="12.305941885246668"><ele>893.8000000000001</ele><time>2026-04-11T14:51:55.609Z</time></trkpt><trkpt lat="43.56711495958949" lon="12.306021635654398"><ele>895.4000000000001</ele><time>2026-04-11T14:51:56.608Z</time></trkpt><trkpt lat="43.56716913605328" lon="12.306124812562905"><ele>897.0</ele><time>2026-04-11T14:51:57.609Z</time></trkpt><trkpt lat="43.56723436215736" lon="12.306235621558146"><ele>897.0</ele><time>2026-04-11T14:51:58.607Z</time></trkpt><trkpt lat="43.56729528200131" lon="12.306339124929137"><ele>897.0</ele><time>2026-04-11T14:51:59.607Z</time></trkpt><trkpt lat="43.56737008443959" lon="12.306467815933615"><ele>897.0</ele><time>2026-04-11T14:52:00.609Z</time></trkpt><trkpt lat="43.56740346841229" lon="12.306603792612382"><ele>897.0</ele><time>2026-04-11T14:52:01.609Z</time></trkpt><trkpt lat="43.567449355345225" lon="12.30671583047205"><ele>897.0</ele><time>2026-04-11T14:52:02.608Z</time></trkpt><trkpt lat="43.56747894879999" lon="12.306819952813708"><ele>899.4000000000001</ele><time>2026-04-11T14:52:03.608Z</time></trkpt><trkpt lat="43.56750024885887" lon="12.306911509209149"><ele>901.8000000000001</ele><time>2026-04-11T14:52:04.607Z</time></trkpt><trkpt lat="43.56754770986148" lon="12.307026393779484"><ele>904.2</ele><time>2026-04-11T14:52:05.608Z</time></trkpt><trkpt lat="43.56761549305413" lon="12.30713025287707"><ele>906.6</ele><time>2026-04-11T14:52:06.608Z</time></trkpt><trkpt lat="43.56769739214924" lon="12.307217011175073"><ele>909.0</ele><time>2026-04-11T14:52:07.608Z</time></trkpt><trkpt lat="43.56777458574819" lon="12.307271413086756"><ele>912.4000000000001</ele><time>2026-04-11T14:52:08.609Z</time></trkpt><trkpt lat="43.567836506028385" lon="12.307289098190527"><ele>915.8000000000001</ele><time>2026-04-11T14:52:09.609Z</time></trkpt><trkpt lat="43.56790434567587" lon="12.307297927382331"><ele>919.1999999999999</ele><time>2026-04-11T14:52:10.607Z</time></trkpt><trkpt lat="43.567972366457184" lon="12.307293675630735"><ele>922.5999999999999</ele><time>2026-04-11T14:52:11.61Z</time></trkpt><trkpt lat="43.56809434117102" lon="12.307543219718283"><ele>926.0</ele><time>2026-04-11T14:52:15.609Z</time></trkpt><trkpt lat="43.56820984704198" lon="12.307506407114381"><ele>926.0</ele><time>2026-04-11T14:52:17.609Z</time></trkpt><trkpt lat="43.568276031938765" lon="12.30748354508912"><ele>925.9999999999999</ele><time>2026-04-11T14:52:18.609Z</time></trkpt><trkpt lat="43.56835531389734" lon="12.307515678621227"><ele>925.9999999999999</ele><time>2026-04-11T14:52:19.608Z</time></trkpt><trkpt lat="43.568443112812176" lon="12.307611834521595"><ele>926.0</ele><time>2026-04-11T14:52:20.609Z</time></trkpt><trkpt lat="43.56853806894478" lon="12.307693683752143"><ele>926.0</ele><time>2026-04-11T14:52:21.61Z</time></trkpt><trkpt lat="43.56862586475181" lon="12.307717509803688"><ele>924.5</ele><time>2026-04-11T14:52:22.609Z</time></trkpt><trkpt lat="43.568720414410585" lon="12.30771286412956"><ele>923.0</ele><time>2026-04-11T14:52:24.609Z</time></trkpt><trkpt lat="43.568794323438276" lon="12.307658315844721"><ele>921.5</ele><time>2026-04-11T14:52:41.61Z</time></trkpt><trkpt lat="43.56895656858549" lon="12.307493884741465"><ele>920.0</ele><time>2026-04-11T14:52:45.609Z</time></trkpt><trkpt lat="43.569013188842355" lon="12.3073901202976"><ele>920.0</ele><time>2026-04-11T14:52:47.61Z</time></trkpt><trkpt lat="43.56908379636064" lon="12.307324966560444"><ele>920.0</ele><time>2026-04-11T14:52:49.611Z</time></trkpt><trkpt lat="43.56917483524778" lon="12.307279211674722"><ele>920.0</ele><time>2026-04-11T14:52:51.609Z</time></trkpt><trkpt lat="43.569239009740656" lon="12.307176295503048"><ele>920.0</ele><time>2026-04-11T14:52:53.61Z</time></trkpt><trkpt lat="43.56920598872681" lon="12.307058638163504"><ele>920.0</ele><time>2026-04-11T14:52:55.609Z</time></trkpt><trkpt lat="43.56916767497144" lon="12.306956587642341"><ele>920.3333333333334</ele><time>2026-04-11T14:52:56.608Z</time></trkpt><trkpt lat="43.56914451331624" lon="12.306864706377274"><ele>920.6666666666667</ele><time>2026-04-11T14:52:57.609Z</time></trkpt><trkpt lat="43.56913683056017" lon="12.306774576897325"><ele>921.0</ele><time>2026-04-11T14:52:58.608Z</time></trkpt><trkpt lat="43.56921333620668" lon="12.306708276366628"><ele>921.3333333333333</ele><time>2026-04-11T14:53:00.609Z</time></trkpt><trkpt lat="43.569290550293296" lon="12.306707947939476"><ele>921.6666666666666</ele><time>2026-04-11T14:53:01.609Z</time></trkpt><trkpt lat="43.569374637871945" lon="12.306688262116111"><ele>922.0</ele><time>2026-04-11T14:53:02.609Z</time></trkpt><trkpt lat="43.56957647341334" lon="12.30659177525822"><ele>922.8</ele><time>2026-04-11T14:53:04.608Z</time></trkpt><trkpt lat="43.569680321375614" lon="12.306545901689654"><ele>923.6</ele><time>2026-04-11T14:53:05.608Z</time></trkpt><trkpt lat="43.569753539411984" lon="12.306434797557445"><ele>924.3999999999999</ele><time>2026-04-11T14:53:07.609Z</time></trkpt><trkpt lat="43.56980213448147" lon="12.30637905937234"><ele>925.1999999999999</ele><time>2026-04-11T14:53:08.608Z</time></trkpt><trkpt lat="43.569921406293936" lon="12.30634205476521"><ele>926.0</ele><time>2026-04-11T14:53:10.609Z</time></trkpt><trkpt lat="43.57001580014928" lon="12.306335514780553"><ele>926.0</ele><time>2026-04-11T14:53:11.608Z</time></trkpt><trkpt lat="43.57014669066185" lon="12.3063213284882"><ele>925.9999999999999</ele><time>2026-04-11T14:53:12.607Z</time></trkpt><trkpt lat="43.57027956279503" lon="12.306275550805513"><ele>925.9999999999999</ele><time>2026-04-11T14:53:13.607Z</time></trkpt><trkpt lat="43.57038616423302" lon="12.306260558970553"><ele>926.0</ele><time>2026-04-11T14:53:14.609Z</time></trkpt><trkpt lat="43.57044836631978" lon="12.306299934669932"><ele>926.0</ele><time>2026-04-11T14:53:15.608Z</time></trkpt><trkpt lat="43.57050847298524" lon="12.306378090818512"><ele>928.5999999999999</ele><time>2026-04-11T14:53:16.606Z</time></trkpt><trkpt lat="43.57059621623412" lon="12.306459140528009"><ele>931.1999999999999</ele><time>2026-04-11T14:53:17.607Z</time></trkpt><trkpt lat="43.57070340640843" lon="12.306544217818667"><ele>933.8000000000001</ele><time>2026-04-11T14:53:18.607Z</time></trkpt><trkpt lat="43.5708140933479" lon="12.306568490687157"><ele>936.4000000000001</ele><time>2026-04-11T14:53:19.607Z</time></trkpt><trkpt lat="43.57089181605816" lon="12.306571615528433"><ele>939.0</ele><time>2026-04-11T14:53:20.607Z</time></trkpt><trkpt lat="43.57095796757689" lon="12.306535625129156"><ele>939.0</ele><time>2026-04-11T14:53:21.608Z</time></trkpt><trkpt lat="43.57104836499861" lon="12.306500408417913"><ele>939.0</ele><time>2026-04-11T14:53:22.61Z</time></trkpt><trkpt lat="43.571142115723674" lon="12.306488618008975"><ele>939.0</ele><time>2026-04-11T14:53:23.608Z</time></trkpt><trkpt lat="43.5713407612744" lon="12.306468596244299"><ele>939.0</ele><time>2026-04-11T14:53:26.609Z</time></trkpt><trkpt lat="43.571433606432755" lon="12.306490115451945"><ele>940.8000000000001</ele><time>2026-04-11T14:53:28.609Z</time></trkpt><trkpt lat="43.57150514323847" lon="12.30657730234806"><ele>942.6000000000001</ele><time>2026-04-11T14:53:29.608Z</time></trkpt><trkpt lat="43.57158880481546" lon="12.306663044498952"><ele>944.4</ele><time>2026-04-11T14:53:30.608Z</time></trkpt><trkpt lat="43.571680493977155" lon="12.306663642140869"><ele>946.2</ele><time>2026-04-11T14:53:31.609Z</time></trkpt><trkpt lat="43.571751330054326" lon="12.30663263582619"><ele>948.0</ele><time>2026-04-11T14:53:32.608Z</time></trkpt><trkpt lat="43.57184254493082" lon="12.306603223059952"><ele>948.0</ele><time>2026-04-11T14:53:33.609Z</time></trkpt><trkpt lat="43.57192621770122" lon="12.306608292018142"><ele>948.0</ele><time>2026-04-11T14:53:34.609Z</time></trkpt><trkpt lat="43.572013361875854" lon="12.30662739682573"><ele>948.0</ele><time>2026-04-11T14:53:35.609Z</time></trkpt><trkpt lat="43.57209152500447" lon="12.306628299586922"><ele>948.0</ele><time>2026-04-11T14:53:36.609Z</time></trkpt><trkpt lat="43.5721967618712" lon="12.306586889049703"><ele>948.0</ele><time>2026-04-11T14:53:38.609Z</time></trkpt><trkpt lat="43.57230647530717" lon="12.306690607134497"><ele>948.4</ele><time>2026-04-11T14:53:40.608Z</time></trkpt><trkpt lat="43.57236937240216" lon="12.306735910813744"><ele>948.8</ele><time>2026-04-11T14:53:41.608Z</time></trkpt><trkpt lat="43.57246450909759" lon="12.306761342470566"><ele>949.2</ele><time>2026-04-11T14:53:42.608Z</time></trkpt><trkpt lat="43.5725736978477" lon="12.306790579277942"><ele>949.6</ele><time>2026-04-11T14:53:43.608Z</time></trkpt><trkpt lat="43.57266013251164" lon="12.30683019076365"><ele>950.0</ele><time>2026-04-11T14:53:44.61Z</time></trkpt><trkpt lat="43.57281028099568" lon="12.306880341241072"><ele>949.3333333333334</ele><time>2026-04-11T14:53:46.609Z</time></trkpt><trkpt lat="43.57287790734165" lon="12.306869432408229"><ele>948.6666666666667</ele><time>2026-04-11T14:53:47.609Z</time></trkpt><trkpt lat="43.57294106212485" lon="12.306845697522748"><ele>948.0</ele><time>2026-04-11T14:53:48.61Z</time></trkpt><trkpt lat="43.57305348614551" lon="12.306850140870406"><ele>947.3333333333333</ele><time>2026-04-11T14:53:50.609Z</time></trkpt><trkpt lat="43.57314818247464" lon="12.306863199728266"><ele>946.6666666666666</ele><time>2026-04-11T14:53:51.608Z</time></trkpt><trkpt lat="43.57323373637981" lon="12.306911091939387"><ele>946.0</ele><time>2026-04-11T14:53:52.607Z</time></trkpt><trkpt lat="43.573318077448214" lon="12.306954474328757"><ele>945.9999999999999</ele><time>2026-04-11T14:53:53.609Z</time></trkpt><trkpt lat="43.57338764257884" lon="12.30696249277103"><ele>946.0</ele><time>2026-04-11T14:53:54.609Z</time></trkpt><trkpt lat="43.57346108619613" lon="12.306922047443255"><ele>946.0</ele><time>2026-04-11T14:53:55.61Z</time></trkpt><trkpt lat="43.57359133570174" lon="12.306901934440234"><ele>946.0</ele><time>2026-04-11T14:53:57.61Z</time></trkpt><trkpt lat="43.573673066252475" lon="12.30691392575445"><ele>945.9999999999999</ele><time>2026-04-11T14:53:58.609Z</time></trkpt><trkpt lat="43.57373534102646" lon="12.306957299474325"><ele>946.0</ele><time>2026-04-11T14:53:59.61Z</time></trkpt><trkpt lat="43.573795462900335" lon="12.307024388447179"><ele>945.4</ele><time>2026-04-11T14:54:00.609Z</time></trkpt><trkpt lat="43.57388211371562" lon="12.307053239510246"><ele>944.8</ele><time>2026-04-11T14:54:01.61Z</time></trkpt><trkpt lat="43.57396520784809" lon="12.306995876466857"><ele>944.1999999999999</ele><time>2026-04-11T14:54:03.609Z</time></trkpt><trkpt lat="43.574042730315206" lon="12.307004228899398"><ele>943.5999999999999</ele><time>2026-04-11T14:54:05.61Z</time></trkpt><trkpt lat="43.57417031980203" lon="12.307066062335014"><ele>943.0</ele><time>2026-04-11T14:54:07.61Z</time></trkpt><trkpt lat="43.57424644516597" lon="12.3070753084656"><ele>943.0</ele><time>2026-04-11T14:55:38.607Z</time></trkpt><trkpt lat="43.57439250224082" lon="12.307003290037985"><ele>943.0</ele><time>2026-04-11T14:55:42.608Z</time></trkpt><trkpt lat="43.574475421215986" lon="12.307000294067837"><ele>943.0</ele><time>2026-04-11T14:55:44.607Z</time></trkpt><trkpt lat="43.57453735920892" lon="12.306927929786019"><ele>943.0</ele><time>2026-04-11T14:55:47.607Z</time></trkpt><trkpt lat="43.57455657621371" lon="12.306807874155476"><ele>943.0</ele><time>2026-04-11T14:55:52.608Z</time></trkpt><trkpt lat="43.574591356076525" lon="12.306660500813582"><ele>945.0</ele><time>2026-04-11T14:55:54.608Z</time></trkpt><trkpt lat="43.574623815683026" lon="12.306519930119316"><ele>947.0</ele><time>2026-04-11T14:55:56.606Z</time></trkpt><trkpt lat="43.574644129404" lon="12.306363407727208"><ele>949.0</ele><time>2026-04-11T14:55:58.607Z</time></trkpt><trkpt lat="43.57463683122345" lon="12.306250972495906"><ele>951.0</ele><time>2026-04-11T14:56:00.608Z</time></trkpt><trkpt lat="43.574526341362876" lon="12.306028692666588"><ele>946.4</ele><time>2026-04-11T14:56:04.608Z</time></trkpt><trkpt lat="43.57444718386771" lon="12.305974381016965"><ele>941.8</ele><time>2026-04-11T14:56:06.608Z</time></trkpt><trkpt lat="43.57438873220713" lon="12.306016133811866"><ele>937.1999999999999</ele><time>2026-04-11T14:56:08.607Z</time></trkpt><trkpt lat="43.574331707090515" lon="12.306054388557513"><ele>932.5999999999999</ele><time>2026-04-11T14:56:30.606Z</time></trkpt><trkpt lat="43.57416347758738" lon="12.306015394974878"><ele>928.0</ele><time>2026-04-11T14:57:21.608Z</time></trkpt><trkpt lat="43.574089704517746" lon="12.305857854078015"><ele>928.0</ele><time>2026-04-11T14:57:30.609Z</time></trkpt><trkpt lat="43.574097773227294" lon="12.305747044191598"><ele>928.0</ele><time>2026-04-11T14:57:41.608Z</time></trkpt><trkpt lat="43.57414275344993" lon="12.305652617788594"><ele>928.0</ele><time>2026-04-11T14:57:44.608Z</time></trkpt><trkpt lat="43.57430190476093" lon="12.305436272510962"><ele>928.0</ele><time>2026-04-11T14:58:49.608Z</time></trkpt><trkpt lat="43.574346637196" lon="12.305369061147772"><ele>928.2</ele><time>2026-04-11T14:58:51.608Z</time></trkpt><trkpt lat="43.57440450429083" lon="12.305328267296316"><ele>928.4</ele><time>2026-04-11T14:58:53.609Z</time></trkpt><trkpt lat="43.57446722935987" lon="12.305364437888024"><ele>928.6000000000001</ele><time>2026-04-11T14:58:55.609Z</time></trkpt><trkpt lat="43.574576938598376" lon="12.305475284039254"><ele>928.8000000000001</ele><time>2026-04-11T14:58:57.607Z</time></trkpt><trkpt lat="43.574666896383754" lon="12.30555248437913"><ele>929.0</ele><time>2026-04-11T14:58:58.606Z</time></trkpt><trkpt lat="43.57475015142912" lon="12.30561962915224"><ele>929.0</ele><time>2026-04-11T14:58:59.605Z</time></trkpt><trkpt lat="43.574820910185565" lon="12.305643058218312"><ele>929.0000000000001</ele><time>2026-04-11T14:59:00.607Z</time></trkpt><trkpt lat="43.574958769332504" lon="12.305677560266039"><ele>929.0000000000001</ele><time>2026-04-11T14:59:02.605Z</time></trkpt><trkpt lat="43.57504542348908" lon="12.30569666037009"><ele>929.0</ele><time>2026-04-11T14:59:03.604Z</time></trkpt><trkpt lat="43.575154956517416" lon="12.305730400732859"><ele>929.0</ele><time>2026-04-11T14:59:04.606Z</time></trkpt><trkpt lat="43.57526689435225" lon="12.305746606193207"><ele>927.4000000000001</ele><time>2026-04-11T14:59:05.605Z</time></trkpt><trkpt lat="43.5753547953111" lon="12.305732585641875"><ele>925.8000000000001</ele><time>2026-04-11T14:59:06.605Z</time></trkpt><trkpt lat="43.57547428328388" lon="12.305617697918215"><ele>924.1999999999999</ele><time>2026-04-11T14:59:08.605Z</time></trkpt><trkpt lat="43.57553421442946" lon="12.305526278527832"><ele>922.5999999999999</ele><time>2026-04-11T14:59:10.607Z</time></trkpt><trkpt lat="43.5756018545589" lon="12.30545693046176"><ele>921.0</ele><time>2026-04-11T14:59:11.608Z</time></trkpt><trkpt lat="43.57566795706419" lon="12.305381254281237"><ele>917.8</ele><time>2026-04-11T14:59:12.608Z</time></trkpt><trkpt lat="43.57572888018455" lon="12.3053053001021"><ele>914.5999999999999</ele><time>2026-04-11T14:59:13.607Z</time></trkpt><trkpt lat="43.57582576489207" lon="12.305187844683603"><ele>911.4</ele><time>2026-04-11T14:59:15.609Z</time></trkpt><trkpt lat="43.575880239593396" lon="12.305090195165517"><ele>908.2</ele><time>2026-04-11T14:59:16.607Z</time></trkpt><trkpt lat="43.57591507361468" lon="12.304988447517994"><ele>905.0</ele><time>2026-04-11T14:59:17.607Z</time></trkpt><trkpt lat="43.57595195681915" lon="12.304895512843846"><ele>905.0</ele><time>2026-04-11T14:59:18.608Z</time></trkpt><trkpt lat="43.57600222671379" lon="12.304821001757547"><ele>904.9999999999999</ele><time>2026-04-11T14:59:19.608Z</time></trkpt><trkpt lat="43.57606904927678" lon="12.304795374565009"><ele>905.0</ele><time>2026-04-11T14:59:20.607Z</time></trkpt><trkpt lat="43.57613454632881" lon="12.304791869642647"><ele>905.0</ele><time>2026-04-11T14:59:21.608Z</time></trkpt><trkpt lat="43.57621045965124" lon="12.30478789585158"><ele>904.9999999999999</ele><time>2026-04-11T14:59:22.606Z</time></trkpt><trkpt lat="43.57628483157698" lon="12.304767311036427"><ele>905.0</ele><time>2026-04-11T14:59:23.606Z</time></trkpt><trkpt lat="43.57637235438848" lon="12.304753386462492"><ele>905.0</ele><time>2026-04-11T14:59:24.606Z</time></trkpt><trkpt lat="43.57644274728874" lon="12.304764645824074"><ele>904.6</ele><time>2026-04-11T14:59:25.606Z</time></trkpt><trkpt lat="43.57651389777206" lon="12.30475408162605"><ele>904.2</ele><time>2026-04-11T14:59:26.606Z</time></trkpt><trkpt lat="43.57657104196942" lon="12.304713110753708"><ele>903.8</ele><time>2026-04-11T14:59:27.607Z</time></trkpt><trkpt lat="43.57672155950006" lon="12.30456749527034"><ele>903.4</ele><time>2026-04-11T14:59:30.609Z</time></trkpt><trkpt lat="43.5767608831283" lon="12.304406650777535"><ele>903.0</ele><time>2026-04-11T14:59:32.608Z</time></trkpt><trkpt lat="43.5768350088165" lon="12.30428658138187"><ele>899.75</ele><time>2026-04-11T14:59:34.608Z</time></trkpt><trkpt lat="43.57693285251378" lon="12.304216560419299"><ele>896.5</ele><time>2026-04-11T14:59:36.608Z</time></trkpt><trkpt lat="43.57700959651649" lon="12.304082599126675"><ele>893.25</ele><time>2026-04-11T14:59:38.608Z</time></trkpt><trkpt lat="43.577143678686845" lon="12.30397530802929"><ele>890.0</ele><time>2026-04-11T14:59:40.606Z</time></trkpt><trkpt lat="43.57721550549359" lon="12.303918201207011"><ele>889.1666666666667</ele><time>2026-04-11T14:59:41.608Z</time></trkpt><trkpt lat="43.57727827510971" lon="12.303855464383323"><ele>888.3333333333334</ele><time>2026-04-11T14:59:42.607Z</time></trkpt><trkpt lat="43.577329831918746" lon="12.303786345453435"><ele>887.5</ele><time>2026-04-11T14:59:43.608Z</time></trkpt><trkpt lat="43.577399004473676" lon="12.303651138933516"><ele>886.6666666666667</ele><time>2026-04-11T14:59:45.606Z</time></trkpt><trkpt lat="43.57744396545479" lon="12.303529820516298"><ele>885.8333333333334</ele><time>2026-04-11T14:59:47.606Z</time></trkpt><trkpt lat="43.57746162290447" lon="12.3034427953247"><ele>885.0</ele><time>2026-04-11T14:59:48.606Z</time></trkpt><trkpt lat="43.577502076562325" lon="12.303240169046912"><ele>885.0</ele><time>2026-04-11T14:59:50.605Z</time></trkpt><trkpt lat="43.57753001305724" lon="12.303154770401195"><ele>885.0</ele><time>2026-04-11T14:59:51.607Z</time></trkpt><trkpt lat="43.57757200772335" lon="12.303061068739812"><ele>885.0</ele><time>2026-04-11T14:59:52.608Z</time></trkpt><trkpt lat="43.57762402475328" lon="12.302965751021791"><ele>885.0</ele><time>2026-04-11T14:59:53.607Z</time></trkpt><trkpt lat="43.57767180371747" lon="12.302850035272241"><ele>885.0</ele><time>2026-04-11T14:59:54.607Z</time></trkpt><trkpt lat="43.57772451389769" lon="12.302701442850074"><ele>884.0</ele><time>2026-04-11T14:59:55.606Z</time></trkpt><trkpt lat="43.57777568647949" lon="12.302558943186577"><ele>883.0</ele><time>2026-04-11T14:59:56.608Z</time></trkpt><trkpt lat="43.57781300875266" lon="12.302441770968192"><ele>882.0</ele><time>2026-04-11T14:59:57.608Z</time></trkpt><trkpt lat="43.57784543528861" lon="12.302337620046147"><ele>881.0</ele><time>2026-04-11T14:59:58.607Z</time></trkpt><trkpt lat="43.577879749770716" lon="12.302247668566718"><ele>880.0</ele><time>2026-04-11T14:59:59.609Z</time></trkpt><trkpt lat="43.57790989901256" lon="12.30215979054543"><ele>879.0</ele><time>2026-04-11T15:00:00.609Z</time></trkpt><trkpt lat="43.57794633853937" lon="12.302048740354868"><ele>878.8000000000001</ele><time>2026-04-11T15:00:01.608Z</time></trkpt><trkpt lat="43.57798410547685" lon="12.301919494832635"><ele>878.6000000000001</ele><time>2026-04-11T15:00:02.606Z</time></trkpt><trkpt lat="43.57802364132928" lon="12.301792057308834"><ele>878.4</ele><time>2026-04-11T15:00:03.608Z</time></trkpt><trkpt lat="43.57805942599237" lon="12.301663496923501"><ele>878.2</ele><time>2026-04-11T15:00:04.609Z</time></trkpt><trkpt lat="43.578090599335894" lon="12.301528741796457"><ele>878.0</ele><time>2026-04-11T15:00:05.607Z</time></trkpt><trkpt lat="43.57811792002122" lon="12.30140122723815"><ele>878.0</ele><time>2026-04-11T15:00:06.607Z</time></trkpt><trkpt lat="43.57813995744032" lon="12.301266090718814"><ele>878.0</ele><time>2026-04-11T15:00:07.607Z</time></trkpt><trkpt lat="43.57816394278905" lon="12.301115419960693"><ele>878.0</ele><time>2026-04-11T15:00:08.607Z</time></trkpt><trkpt lat="43.578188901752284" lon="12.300948456477542"><ele>878.0</ele><time>2026-04-11T15:00:09.606Z</time></trkpt><trkpt lat="43.578227109374254" lon="12.300661505521962"><ele>880.6666666666667</ele><time>2026-04-11T15:00:11.605Z</time></trkpt><trkpt lat="43.57824473557307" lon="12.300541233006408"><ele>883.3333333333334</ele><time>2026-04-11T15:00:12.606Z</time></trkpt><trkpt lat="43.57825329206011" lon="12.300428177725957"><ele>886.0</ele><time>2026-04-11T15:00:13.605Z</time></trkpt><trkpt lat="43.57825356074583" lon="12.300318454077425"><ele>888.6666666666667</ele><time>2026-04-11T15:00:14.606Z</time></trkpt><trkpt lat="43.578248498820635" lon="12.300206506141741"><ele>891.3333333333334</ele><time>2026-04-11T15:00:15.606Z</time></trkpt><trkpt lat="43.57823101738449" lon="12.300082374965758"><ele>894.0</ele><time>2026-04-11T15:00:16.607Z</time></trkpt><trkpt lat="43.57819704354068" lon="12.29995449190771"><ele>894.0</ele><time>2026-04-11T15:00:17.606Z</time></trkpt><trkpt lat="43.5781466207271" lon="12.29982177753059"><ele>894.0000000000001</ele><time>2026-04-11T15:00:18.606Z</time></trkpt><trkpt lat="43.57809289632512" lon="12.29970953544021"><ele>894.0000000000001</ele><time>2026-04-11T15:00:19.607Z</time></trkpt><trkpt lat="43.578030754070966" lon="12.299599953263584"><ele>894.0</ele><time>2026-04-11T15:00:20.606Z</time></trkpt><trkpt lat="43.577970112037185" lon="12.299511903693839"><ele>894.0</ele><time>2026-04-11T15:00:21.605Z</time></trkpt><trkpt lat="43.57791210756656" lon="12.299422214414747"><ele>894.4285714285713</ele><time>2026-04-11T15:00:22.606Z</time></trkpt><trkpt lat="43.577856602895416" lon="12.299340467110616"><ele>894.8571428571429</ele><time>2026-04-11T15:00:23.606Z</time></trkpt><trkpt lat="43.57781501257715" lon="12.299263115898146"><ele>895.2857142857142</ele><time>2026-04-11T15:00:24.606Z</time></trkpt><trkpt lat="43.57776306144364" lon="12.299203453633877"><ele>895.7142857142857</ele><time>2026-04-11T15:00:25.606Z</time></trkpt><trkpt lat="43.57770443748837" lon="12.299152213358528"><ele>896.1428571428571</ele><time>2026-04-11T15:00:26.605Z</time></trkpt><trkpt lat="43.57763709284452" lon="12.299121503752525"><ele>896.5714285714286</ele><time>2026-04-11T15:00:27.605Z</time></trkpt><trkpt lat="43.57757212046042" lon="12.299109061423561"><ele>897.0</ele><time>2026-04-11T15:00:28.606Z</time></trkpt><trkpt lat="43.577485339809435" lon="12.299098924127824"><ele>891.3333333333333</ele><time>2026-04-11T15:00:29.607Z</time></trkpt><trkpt lat="43.57740049960098" lon="12.299059187242992"><ele>885.6666666666666</ele><time>2026-04-11T15:00:30.605Z</time></trkpt><trkpt lat="43.57720240330079" lon="12.298894692838063"><ele>880.0</ele><time>2026-04-11T15:00:32.606Z</time></trkpt><trkpt lat="43.577095948384155" lon="12.298780160626954"><ele>875.4</ele><time>2026-04-11T15:00:33.606Z</time></trkpt><trkpt lat="43.57699695927221" lon="12.298694965438747"><ele>870.8</ele><time>2026-04-11T15:00:34.605Z</time></trkpt><trkpt lat="43.5769046966041" lon="12.298633268502169"><ele>866.2</ele><time>2026-04-11T15:00:35.606Z</time></trkpt><trkpt lat="43.57681465607307" lon="12.298563462998377"><ele>861.6</ele><time>2026-04-11T15:00:36.604Z</time></trkpt><trkpt lat="43.576736191183976" lon="12.298482086022013"><ele>857.0</ele><time>2026-04-11T15:00:37.605Z</time></trkpt><trkpt lat="43.576666712489526" lon="12.298399267401106"><ele>857.0000000000001</ele><time>2026-04-11T15:00:38.606Z</time></trkpt><trkpt lat="43.576603453440754" lon="12.298317688403117"><ele>857.0</ele><time>2026-04-11T15:00:39.607Z</time></trkpt><trkpt lat="43.57654163065861" lon="12.298235219790843"><ele>857.0</ele><time>2026-04-11T15:00:40.607Z</time></trkpt><trkpt lat="43.57648826767107" lon="12.29815062448777"><ele>857.0</ele><time>2026-04-11T15:00:41.607Z</time></trkpt><trkpt lat="43.5764366967672" lon="12.29807511355453"><ele>857.0000000000001</ele><time>2026-04-11T15:00:42.608Z</time></trkpt><trkpt lat="43.57637409487028" lon="12.298007690474975"><ele>857.0</ele><time>2026-04-11T15:00:43.608Z</time></trkpt><trkpt lat="43.57632260329007" lon="12.297955731977401"><ele>857.0</ele><time>2026-04-11T15:00:44.607Z</time></trkpt><trkpt lat="43.57625448346275" lon="12.297879094236677"><ele>857.0</ele><time>2026-04-11T15:00:46.608Z</time></trkpt><trkpt lat="43.57625382949593" lon="12.297754014897052"><ele>857.0</ele><time>2026-04-11T15:00:57.608Z</time></trkpt><trkpt lat="43.576277539667146" lon="12.297516492744792"><ele>857.0</ele><time>2026-04-11T15:01:01.605Z</time></trkpt><trkpt lat="43.57629845738618" lon="12.29743196265092"><ele>857.0</ele><time>2026-04-11T15:01:03.604Z</time></trkpt><trkpt lat="43.57636415172713" lon="12.29746892878342"><ele>857.0</ele><time>2026-04-11T15:01:06.607Z</time></trkpt><trkpt lat="43.576399656066705" lon="12.297333073846614"><ele>857.0</ele><time>2026-04-11T15:09:06.603Z</time></trkpt></trkseg><trkseg><trkpt lat="43.57625365253543" lon="12.297877594530075"><ele>857.0000000000001</ele><time>2026-04-12T07:15:39Z</time></trkpt><trkpt lat="43.57630134441044" lon="12.29801269521008"><ele>857.0</ele><time>2026-04-12T07:15:41Z</time></trkpt><trkpt lat="43.57635889260392" lon="12.298079705249297"><ele>857.0</ele><time>2026-04-12T07:15:42Z</time></trkpt><trkpt lat="43.57642815503035" lon="12.298155770628082"><ele>857.0</ele><time>2026-04-12T07:15:43Z</time></trkpt><trkpt lat="43.576497157674694" lon="12.298236411617843"><ele>857.0000000000001</ele><time>2026-04-12T07:15:44Z</time></trkpt><trkpt lat="43.576554286330236" lon="12.29832279980325"><ele>857.0</ele><time>2026-04-12T07:15:45Z</time></trkpt><trkpt lat="43.57660233267289" lon="12.298398432584353"><ele>857.0000000000001</ele><time>2026-04-12T07:15:46Z</time></trkpt><trkpt lat="43.57667382036905" lon="12.298490533128643"><ele>857.0</ele><time>2026-04-12T07:15:48Z</time></trkpt><trkpt lat="43.576724491290854" lon="12.298552284277815"><ele>857.0</ele><time>2026-04-12T07:15:49Z</time></trkpt><trkpt lat="43.576789680591396" lon="12.29861271496673"><ele>857.0</ele><time>2026-04-12T07:15:50Z</time></trkpt><trkpt lat="43.57686708827469" lon="12.298668002165893"><ele>857.0000000000001</ele><time>2026-04-12T07:15:51Z</time></trkpt><trkpt lat="43.57695408618097" lon="12.298722339820161"><ele>857.0</ele><time>2026-04-12T07:15:52Z</time></trkpt><trkpt lat="43.57704151560167" lon="12.298779717922823"><ele>860.0</ele><time>2026-04-12T07:15:53Z</time></trkpt><trkpt lat="43.57711734464724" lon="12.298836677294522"><ele>863.0</ele><time>2026-04-12T07:15:54Z</time></trkpt><trkpt lat="43.57719603091304" lon="12.298908983061054"><ele>866.0</ele><time>2026-04-12T07:15:55Z</time></trkpt><trkpt lat="43.57728041463221" lon="12.298986450798543"><ele>869.0</ele><time>2026-04-12T07:15:55.999Z</time></trkpt><trkpt lat="43.57737037523873" lon="12.299061976560177"><ele>872.0</ele><time>2026-04-12T07:15:56.999Z</time></trkpt><trkpt lat="43.577462577541326" lon="12.299109444323424"><ele>872.0</ele><time>2026-04-12T07:15:57.999Z</time></trkpt><trkpt lat="43.577575242218" lon="12.299139791643418"><ele>872.0</ele><time>2026-04-12T07:15:58.999Z</time></trkpt><trkpt lat="43.577665897707085" lon="12.299168753173836"><ele>872.0</ele><time>2026-04-12T07:15:59.999Z</time></trkpt><trkpt lat="43.57773151788852" lon="12.299204122894308"><ele>872.0</ele><time>2026-04-12T07:16:01.999Z</time></trkpt><trkpt lat="43.5776670856124" lon="12.299110201756084"><ele>872.0</ele><time>2026-04-12T07:16:09.999Z</time></trkpt><trkpt lat="43.57760723226544" lon="12.299008946968433"><ele>873.3333333333334</ele><time>2026-04-12T07:16:10.999Z</time></trkpt><trkpt lat="43.57754551330182" lon="12.298911792610989"><ele>874.6666666666667</ele><time>2026-04-12T07:16:11.999Z</time></trkpt><trkpt lat="43.5774870559953" lon="12.298819381416614"><ele>876.0</ele><time>2026-04-12T07:16:12.999Z</time></trkpt><trkpt lat="43.57743399697572" lon="12.29872363956493"><ele>877.3333333333333</ele><time>2026-04-12T07:16:13.999Z</time></trkpt><trkpt lat="43.57741326188602" lon="12.298604923536315"><ele>878.6666666666666</ele><time>2026-04-12T07:16:15.999Z</time></trkpt><trkpt lat="43.57743951002971" lon="12.298513457970357"><ele>880.0</ele><time>2026-04-12T07:16:17.999Z</time></trkpt><trkpt lat="43.57745982343856" lon="12.298369914786898"><ele>880.0</ele><time>2026-04-12T07:16:19.999Z</time></trkpt><trkpt lat="43.57748223079787" lon="12.298240229947739"><ele>880.0</ele><time>2026-04-12T07:16:20.999Z</time></trkpt><trkpt lat="43.577505501739616" lon="12.298118640607592"><ele>880.0</ele><time>2026-04-12T07:16:21.999Z</time></trkpt><trkpt lat="43.57752097717216" lon="12.298027087242978"><ele>880.0</ele><time>2026-04-12T07:16:22.999Z</time></trkpt><trkpt lat="43.57755778553359" lon="12.29791792704568"><ele>880.0</ele><time>2026-04-12T07:16:23.999Z</time></trkpt><trkpt lat="43.577626544532656" lon="12.297795476898148"><ele>880.6</ele><time>2026-04-12T07:16:24.999Z</time></trkpt><trkpt lat="43.57771806540179" lon="12.297674581268895"><ele>881.2</ele><time>2026-04-12T07:16:25.999Z</time></trkpt><trkpt lat="43.57780057081407" lon="12.297582690782146"><ele>881.8</ele><time>2026-04-12T07:16:26.999Z</time></trkpt><trkpt lat="43.5778674986749" lon="12.297500344030041"><ele>882.4</ele><time>2026-04-12T07:16:27.999Z</time></trkpt><trkpt lat="43.57793765209561" lon="12.297399548656681"><ele>883.0</ele><time>2026-04-12T07:16:28.999Z</time></trkpt><trkpt lat="43.577996502866604" lon="12.297315964638662"><ele>881.9999999999999</ele><time>2026-04-12T07:16:29.999Z</time></trkpt><trkpt lat="43.57806220113258" lon="12.29722450971609"><ele>881.0</ele><time>2026-04-12T07:16:30.999Z</time></trkpt><trkpt lat="43.57810848309574" lon="12.297144289073122"><ele>880.0</ele><time>2026-04-12T07:16:31.999Z</time></trkpt><trkpt lat="43.57814130468621" lon="12.297046396104635"><ele>879.0</ele><time>2026-04-12T07:16:32.999Z</time></trkpt><trkpt lat="43.578175783785625" lon="12.296933019551343"><ele>877.9999999999999</ele><time>2026-04-12T07:16:33.999Z</time></trkpt><trkpt lat="43.57820656510471" lon="12.296787720989462"><ele>877.0</ele><time>2026-04-12T07:16:34.999Z</time></trkpt><trkpt lat="43.57822738929735" lon="12.29666639129608"><ele>876.9999999999999</ele><time>2026-04-12T07:16:35.999Z</time></trkpt><trkpt lat="43.57823965780091" lon="12.29655975308097"><ele>877.0</ele><time>2026-04-12T07:16:36.999Z</time></trkpt><trkpt lat="43.57825098711774" lon="12.296466282501257"><ele>877.0</ele><time>2026-04-12T07:16:37.999Z</time></trkpt><trkpt lat="43.57825384418584" lon="12.29627113095978"><ele>877.0</ele><time>2026-04-12T07:16:39.999Z</time></trkpt><trkpt lat="43.57823828668479" lon="12.296169374872674"><ele>876.9999999999999</ele><time>2026-04-12T07:16:40.999Z</time></trkpt><trkpt lat="43.57822281182736" lon="12.296084332887524"><ele>877.0</ele><time>2026-04-12T07:16:41.999Z</time></trkpt><trkpt lat="43.57821465151466" lon="12.295997801781441"><ele>876.6666666666666</ele><time>2026-04-12T07:16:42.999Z</time></trkpt><trkpt lat="43.578217242264586" lon="12.295901150289474"><ele>876.3333333333333</ele><time>2026-04-12T07:16:43.999Z</time></trkpt><trkpt lat="43.578216784274815" lon="12.295791813367636"><ele>876.0</ele><time>2026-04-12T07:16:44.999Z</time></trkpt><trkpt lat="43.57820902329138" lon="12.295676666855826"><ele>875.6666666666667</ele><time>2026-04-12T07:16:45.999Z</time></trkpt><trkpt lat="43.57820772713511" lon="12.295573577088787"><ele>875.3333333333334</ele><time>2026-04-12T07:16:46.999Z</time></trkpt><trkpt lat="43.578189202849764" lon="12.29546443212353"><ele>875.0</ele><time>2026-04-12T07:16:47.999Z</time></trkpt><trkpt lat="43.57815210152643" lon="12.295350201891475"><ele>876.0</ele><time>2026-04-12T07:16:48.999Z</time></trkpt><trkpt lat="43.57812008688521" lon="12.295225930367216"><ele>877.0</ele><time>2026-04-12T07:16:49.999Z</time></trkpt><trkpt lat="43.57808247539454" lon="12.295109382288812"><ele>878.0</ele><time>2026-04-12T07:16:50.999Z</time></trkpt><trkpt lat="43.57802374015106" lon="12.294973777349943"><ele>879.0</ele><time>2026-04-12T07:16:51.999Z</time></trkpt><trkpt lat="43.577975648049225" lon="12.294864602999462"><ele>880.0</ele><time>2026-04-12T07:16:52.999Z</time></trkpt><trkpt lat="43.577920544723604" lon="12.29475457099556"><ele>878.9999999999999</ele><time>2026-04-12T07:16:53.999Z</time></trkpt><trkpt lat="43.57786934221828" lon="12.294679242795821"><ele>878.0</ele><time>2026-04-12T07:16:54.999Z</time></trkpt><trkpt lat="43.577805334043475" lon="12.294624086667177"><ele>877.0</ele><time>2026-04-12T07:16:55.998Z</time></trkpt><trkpt lat="43.57773129481069" lon="12.29459146762543"><ele>876.0</ele><time>2026-04-12T07:16:56.998Z</time></trkpt><trkpt lat="43.57764254146859" lon="12.294552012065193"><ele>874.9999999999999</ele><time>2026-04-12T07:16:57.998Z</time></trkpt><trkpt lat="43.57757465500823" lon="12.294470985856197"><ele>874.0</ele><time>2026-04-12T07:16:58.998Z</time></trkpt><trkpt lat="43.57751312751025" lon="12.294362255359976"><ele>874.0</ele><time>2026-04-12T07:16:59.998Z</time></trkpt><trkpt lat="43.57744160259934" lon="12.29427212170529"><ele>874.0000000000001</ele><time>2026-04-12T07:17:00.998Z</time></trkpt><trkpt lat="43.577344721928156" lon="12.294229743247492"><ele>874.0000000000001</ele><time>2026-04-12T07:17:01.998Z</time></trkpt><trkpt lat="43.57723667172143" lon="12.294223324970359"><ele>874.0</ele><time>2026-04-12T07:17:02.998Z</time></trkpt><trkpt lat="43.5771298023824" lon="12.29424021138353"><ele>874.0</ele><time>2026-04-12T07:17:03.998Z</time></trkpt><trkpt lat="43.5770490953018" lon="12.294229537010441"><ele>874.1666666666666</ele><time>2026-04-12T07:17:04.998Z</time></trkpt><trkpt lat="43.57697845166439" lon="12.294195948964255"><ele>874.3333333333333</ele><time>2026-04-12T07:17:05.998Z</time></trkpt><trkpt lat="43.57690364179145" lon="12.294133171683551"><ele>874.5</ele><time>2026-04-12T07:17:06.998Z</time></trkpt><trkpt lat="43.57684328169652" lon="12.294043362865102"><ele>874.6666666666667</ele><time>2026-04-12T07:17:07.998Z</time></trkpt><trkpt lat="43.57678855502454" lon="12.293970104426213"><ele>874.8333333333334</ele><time>2026-04-12T07:17:08.998Z</time></trkpt><trkpt lat="43.576722038840025" lon="12.293885741601757"><ele>875.0</ele><time>2026-04-12T07:17:09.998Z</time></trkpt><trkpt lat="43.57664029942401" lon="12.29381184713089"><ele>875.0000000000001</ele><time>2026-04-12T07:17:10.998Z</time></trkpt><trkpt lat="43.5765719502205" lon="12.293749062238742"><ele>875.0</ele><time>2026-04-12T07:17:11.998Z</time></trkpt><trkpt lat="43.57653162486775" lon="12.293670139799213"><ele>875.0</ele><time>2026-04-12T07:17:12.998Z</time></trkpt><trkpt lat="43.576500988085684" lon="12.293579088852026"><ele>875.0</ele><time>2026-04-12T07:17:13.998Z</time></trkpt><trkpt lat="43.5764867335165" lon="12.293479945244066"><ele>875.0000000000001</ele><time>2026-04-12T07:17:14.998Z</time></trkpt><trkpt lat="43.576466073401214" lon="12.29338941733243"><ele>875.0</ele><time>2026-04-12T07:17:15.998Z</time></trkpt><trkpt lat="43.576385295182796" lon="12.293247553913698"><ele>877.8</ele><time>2026-04-12T07:17:18Z</time></trkpt><trkpt lat="43.57629636573672" lon="12.29307258340825"><ele>880.6</ele><time>2026-04-12T07:17:20Z</time></trkpt><trkpt lat="43.57624521170292" lon="12.29296190215087"><ele>883.4000000000001</ele><time>2026-04-12T07:17:21Z</time></trkpt><trkpt lat="43.57619668354839" lon="12.292849731458952"><ele>886.2</ele><time>2026-04-12T07:17:22Z</time></trkpt><trkpt lat="43.576144301137575" lon="12.292732810411646"><ele>889.0</ele><time>2026-04-12T07:17:23Z</time></trkpt><trkpt lat="43.576103263135565" lon="12.292603810119278"><ele>885.8333333333333</ele><time>2026-04-12T07:17:24Z</time></trkpt><trkpt lat="43.57607889987143" lon="12.292494288163503"><ele>882.6666666666666</ele><time>2026-04-12T07:17:25Z</time></trkpt><trkpt lat="43.57604829446632" lon="12.292381691119735"><ele>879.5</ele><time>2026-04-12T07:17:26Z</time></trkpt><trkpt lat="43.576031927091485" lon="12.292253838946685"><ele>876.3333333333333</ele><time>2026-04-12T07:17:27Z</time></trkpt><trkpt lat="43.576026452719546" lon="12.292125926042258"><ele>873.1666666666666</ele><time>2026-04-12T07:17:28Z</time></trkpt><trkpt lat="43.57605332194867" lon="12.292018561262386"><ele>870.0</ele><time>2026-04-12T07:17:29Z</time></trkpt><trkpt lat="43.576084179705205" lon="12.291918246769376"><ele>870.0</ele><time>2026-04-12T07:17:30Z</time></trkpt><trkpt lat="43.57610581864138" lon="12.291801875350627"><ele>870.0</ele><time>2026-04-12T07:17:31Z</time></trkpt><trkpt lat="43.5761201887543" lon="12.291686798274094"><ele>870.0</ele><time>2026-04-12T07:17:32Z</time></trkpt><trkpt lat="43.57611684376138" lon="12.291581945334837"><ele>870.0</ele><time>2026-04-12T07:17:33Z</time></trkpt><trkpt lat="43.57608739076658" lon="12.291480568131064"><ele>870.0</ele><time>2026-04-12T07:17:35Z</time></trkpt><trkpt lat="43.576097095907365" lon="12.291352173542194"><ele>870.0</ele><time>2026-04-12T07:21:22.998Z</time></trkpt><trkpt lat="43.57608846148801" lon="12.291235973236665"><ele>869.5</ele><time>2026-04-12T07:21:25.998Z</time></trkpt><trkpt lat="43.576146686307496" lon="12.291154135483099"><ele>869.0</ele><time>2026-04-12T07:21:29Z</time></trkpt><trkpt lat="43.57621024959869" lon="12.29118645775937"><ele>868.5</ele><time>2026-04-12T07:21:31Z</time></trkpt><trkpt lat="43.57629877901191" lon="12.2912622092562"><ele>868.0</ele><time>2026-04-12T07:21:33Z</time></trkpt><trkpt lat="43.57637869231547" lon="12.291298663264703"><ele>867.5</ele><time>2026-04-12T07:21:35Z</time></trkpt><trkpt lat="43.57646606886733" lon="12.29132900093984"><ele>867.0</ele><time>2026-04-12T07:21:37Z</time></trkpt><trkpt lat="43.57656149413137" lon="12.291367479242925"><ele>867.0</ele><time>2026-04-12T07:21:39Z</time></trkpt><trkpt lat="43.576677908235276" lon="12.29140465567064"><ele>867.0</ele><time>2026-04-12T07:21:41Z</time></trkpt><trkpt lat="43.57675057483926" lon="12.291435903072225"><ele>867.0</ele><time>2026-04-12T07:21:42Z</time></trkpt><trkpt lat="43.576843243844124" lon="12.291439275342908"><ele>867.0</ele><time>2026-04-12T07:21:44Z</time></trkpt><trkpt lat="43.57692483473139" lon="12.291433168028275"><ele>867.0</ele><time>2026-04-12T07:21:46Z</time></trkpt><trkpt lat="43.577041171444534" lon="12.29140538294131"><ele>869.7142857142857</ele><time>2026-04-12T07:21:48Z</time></trkpt><trkpt lat="43.57709798355778" lon="12.291361122813584"><ele>872.4285714285714</ele><time>2026-04-12T07:21:49Z</time></trkpt><trkpt lat="43.577160488004736" lon="12.291240310024978"><ele>875.1428571428571</ele><time>2026-04-12T07:21:51Z</time></trkpt><trkpt lat="43.57720747338107" lon="12.291170999982885"><ele>877.8571428571429</ele><time>2026-04-12T07:21:53Z</time></trkpt><trkpt lat="43.5772047433508" lon="12.291074380314774"><ele>880.5714285714287</ele><time>2026-04-12T07:21:55Z</time></trkpt><trkpt lat="43.577202738464564" lon="12.290983288667665"><ele>883.2857142857143</ele><time>2026-04-12T07:21:56Z</time></trkpt><trkpt lat="43.577191779068066" lon="12.290893522548716"><ele>886.0</ele><time>2026-04-12T07:21:57Z</time></trkpt><trkpt lat="43.57723894918122" lon="12.290733108937014"><ele>886.0</ele><time>2026-04-12T07:21:59Z</time></trkpt><trkpt lat="43.57728866813991" lon="12.290636749905138"><ele>885.9999999999999</ele><time>2026-04-12T07:22:00Z</time></trkpt><trkpt lat="43.5773505867289" lon="12.29057148635732"><ele>885.9999999999999</ele><time>2026-04-12T07:22:01Z</time></trkpt><trkpt lat="43.57739023158635" lon="12.290480796774263"><ele>886.0</ele><time>2026-04-12T07:22:02Z</time></trkpt><trkpt lat="43.57736475493782" lon="12.29029430490554"><ele>886.0</ele><time>2026-04-12T07:22:04Z</time></trkpt><trkpt lat="43.57734256304069" lon="12.290175771984245"><ele>886.1428571428571</ele><time>2026-04-12T07:22:05Z</time></trkpt><trkpt lat="43.57733934392688" lon="12.290079749629596"><ele>886.2857142857143</ele><time>2026-04-12T07:22:06Z</time></trkpt><trkpt lat="43.57734290330762" lon="12.289975679467123"><ele>886.4285714285713</ele><time>2026-04-12T07:22:07Z</time></trkpt><trkpt lat="43.577364063792665" lon="12.289880693600287"><ele>886.5714285714286</ele><time>2026-04-12T07:22:08Z</time></trkpt><trkpt lat="43.577384393187266" lon="12.28977573663232"><ele>886.7142857142857</ele><time>2026-04-12T07:22:09Z</time></trkpt><trkpt lat="43.57738945141819" lon="12.289687389678395"><ele>886.8571428571428</ele><time>2026-04-12T07:22:10Z</time></trkpt><trkpt lat="43.57737078768207" lon="12.28960095304328"><ele>887.0</ele><time>2026-04-12T07:22:11Z</time></trkpt><trkpt lat="43.57738072377331" lon="12.289504626743451"><ele>884.6</ele><time>2026-04-12T07:22:12Z</time></trkpt><trkpt lat="43.57742568761593" lon="12.289433040291302"><ele>882.2</ele><time>2026-04-12T07:22:13Z</time></trkpt><trkpt lat="43.577485371715355" lon="12.289352133958282"><ele>879.8</ele><time>2026-04-12T07:22:13.999Z</time></trkpt><trkpt lat="43.57756171161692" lon="12.289249370151868"><ele>877.4</ele><time>2026-04-12T07:22:14.999Z</time></trkpt><trkpt lat="43.57762704181973" lon="12.289161178211863"><ele>875.0</ele><time>2026-04-12T07:22:15.999Z</time></trkpt><trkpt lat="43.57767974534519" lon="12.2890332928931"><ele>876.3333333333334</ele><time>2026-04-12T07:22:16.999Z</time></trkpt><trkpt lat="43.57772082899621" lon="12.288925510909808"><ele>877.6666666666667</ele><time>2026-04-12T07:22:17.999Z</time></trkpt><trkpt lat="43.57776350523385" lon="12.288844749781282"><ele>879.0</ele><time>2026-04-12T07:22:18.999Z</time></trkpt><trkpt lat="43.57780895070066" lon="12.288771716307133"><ele>880.3333333333333</ele><time>2026-04-12T07:22:19.999Z</time></trkpt><trkpt lat="43.57785827983438" lon="12.288675836392851"><ele>881.6666666666666</ele><time>2026-04-12T07:22:20.999Z</time></trkpt><trkpt lat="43.57791414326894" lon="12.288623760068452"><ele>883.0</ele><time>2026-04-12T07:22:21.999Z</time></trkpt><trkpt lat="43.578036650867396" lon="12.288616961285827"><ele>882.9999999999999</ele><time>2026-04-12T07:22:23.999Z</time></trkpt><trkpt lat="43.578103792438384" lon="12.2886066021849"><ele>883.0</ele><time>2026-04-12T07:22:24.999Z</time></trkpt><trkpt lat="43.57818298254335" lon="12.288593775714057"><ele>883.0</ele><time>2026-04-12T07:22:25.999Z</time></trkpt><trkpt lat="43.57827789446722" lon="12.288528152062545"><ele>883.0</ele><time>2026-04-12T07:22:27.999Z</time></trkpt><trkpt lat="43.578341964206075" lon="12.288448638837524"><ele>882.9999999999999</ele><time>2026-04-12T07:22:29.999Z</time></trkpt><trkpt lat="43.57843445432116" lon="12.288374438883286"><ele>883.0</ele><time>2026-04-12T07:22:32.999Z</time></trkpt><trkpt lat="43.57851316427586" lon="12.288357504396972"><ele>883.0</ele><time>2026-04-12T07:22:35.999Z</time></trkpt><trkpt lat="43.57859255270391" lon="12.288260919535157"><ele>883.0</ele><time>2026-04-12T07:22:37.999Z</time></trkpt><trkpt lat="43.57864879395902" lon="12.288190095929206"><ele>883.0</ele><time>2026-04-12T07:22:38.999Z</time></trkpt><trkpt lat="43.57871032961515" lon="12.288110515174454"><ele>883.0</ele><time>2026-04-12T07:22:39.999Z</time></trkpt><trkpt lat="43.57878703785731" lon="12.288012000012671"><ele>883.0</ele><time>2026-04-12T07:22:40.999Z</time></trkpt><trkpt lat="43.57886058157929" lon="12.287926304866808"><ele>883.8333333333333</ele><time>2026-04-12T07:22:41.999Z</time></trkpt><trkpt lat="43.578935537934655" lon="12.287856742622294"><ele>884.6666666666666</ele><time>2026-04-12T07:22:42.999Z</time></trkpt><trkpt lat="43.57899086734327" lon="12.287781784520119"><ele>885.5</ele><time>2026-04-12T07:22:43.999Z</time></trkpt><trkpt lat="43.57902186760089" lon="12.287674640920695"><ele>886.3333333333333</ele><time>2026-04-12T07:22:44.999Z</time></trkpt><trkpt lat="43.57903453408025" lon="12.287566881380242"><ele>887.1666666666666</ele><time>2026-04-12T07:22:45.999Z</time></trkpt><trkpt lat="43.57905467824158" lon="12.287480483621758"><ele>888.0</ele><time>2026-04-12T07:22:46.999Z</time></trkpt><trkpt lat="43.5790931180508" lon="12.287393573969977"><ele>888.0</ele><time>2026-04-12T07:22:47.999Z</time></trkpt><trkpt lat="43.57916749670255" lon="12.287325234493542"><ele>888.0</ele><time>2026-04-12T07:22:48.999Z</time></trkpt><trkpt lat="43.579246815437315" lon="12.287253681325025"><ele>888.0</ele><time>2026-04-12T07:22:49.999Z</time></trkpt><trkpt lat="43.57931946352029" lon="12.287156247723148"><ele>888.0</ele><time>2026-04-12T07:22:50.999Z</time></trkpt><trkpt lat="43.5793793050947" lon="12.28704971741291"><ele>888.0</ele><time>2026-04-12T07:22:51.999Z</time></trkpt><trkpt lat="43.57944124020523" lon="12.286946892272574"><ele>887.3333333333334</ele><time>2026-04-12T07:22:52.999Z</time></trkpt><trkpt lat="43.57948693128818" lon="12.28686787980683"><ele>886.6666666666667</ele><time>2026-04-12T07:22:53.999Z</time></trkpt><trkpt lat="43.57954169117382" lon="12.286770750787182"><ele>886.0</ele><time>2026-04-12T07:22:54.999Z</time></trkpt><trkpt lat="43.57957435639216" lon="12.286614592134768"><ele>885.3333333333334</ele><time>2026-04-12T07:22:56.999Z</time></trkpt><trkpt lat="43.57958970548196" lon="12.28651198927913"><ele>884.6666666666667</ele><time>2026-04-12T07:23:08.999Z</time></trkpt><trkpt lat="43.579593696316955" lon="12.286408440128474"><ele>884.0</ele><time>2026-04-12T07:23:09.999Z</time></trkpt><trkpt lat="43.579606036810496" lon="12.286240375696986"><ele>884.0000000000001</ele><time>2026-04-12T07:23:11.999Z</time></trkpt><trkpt lat="43.5795955513822" lon="12.286115939577945"><ele>884.0</ele><time>2026-04-12T07:23:13.999Z</time></trkpt><trkpt lat="43.57959968726532" lon="12.286028760791561"><ele>884.0</ele><time>2026-04-12T07:23:14.999Z</time></trkpt><trkpt lat="43.57959433311393" lon="12.2859229214177"><ele>884.0</ele><time>2026-04-12T07:23:15.998Z</time></trkpt><trkpt lat="43.57959971872474" lon="12.285834985851533"><ele>884.0000000000001</ele><time>2026-04-12T07:23:16.998Z</time></trkpt><trkpt lat="43.579564857785684" lon="12.285686079842236"><ele>884.0</ele><time>2026-04-12T07:23:18.998Z</time></trkpt><trkpt lat="43.57953306994327" lon="12.285607386945829"><ele>886.1666666666667</ele><time>2026-04-12T07:23:19.998Z</time></trkpt><trkpt lat="43.5795064899206" lon="12.28552438084052"><ele>888.3333333333334</ele><time>2026-04-12T07:23:20.998Z</time></trkpt><trkpt lat="43.579474864870505" lon="12.285431126592602"><ele>890.5</ele><time>2026-04-12T07:23:21.998Z</time></trkpt><trkpt lat="43.57943299611597" lon="12.285346637281886"><ele>892.6666666666667</ele><time>2026-04-12T07:23:22.998Z</time></trkpt><trkpt lat="43.57937918729128" lon="12.285262746051608"><ele>894.8333333333334</ele><time>2026-04-12T07:23:23.998Z</time></trkpt><trkpt lat="43.57932329578278" lon="12.285182082462635"><ele>897.0</ele><time>2026-04-12T07:23:24.998Z</time></trkpt><trkpt lat="43.57927252356506" lon="12.285102615378804"><ele>897.0</ele><time>2026-04-12T07:23:25.998Z</time></trkpt><trkpt lat="43.579224599331766" lon="12.285030850769381"><ele>897.0</ele><time>2026-04-12T07:23:26.998Z</time></trkpt><trkpt lat="43.57918190102749" lon="12.284941137262113"><ele>897.0</ele><time>2026-04-12T07:23:27.998Z</time></trkpt><trkpt lat="43.57915660231408" lon="12.284834774924333"><ele>897.0</ele><time>2026-04-12T07:23:28.998Z</time></trkpt><trkpt lat="43.57912176160897" lon="12.284741396626709"><ele>897.0</ele><time>2026-04-12T07:23:29.998Z</time></trkpt><trkpt lat="43.579035961448355" lon="12.284660583116946"><ele>897.0</ele><time>2026-04-12T07:23:31.998Z</time></trkpt><trkpt lat="43.578957819273214" lon="12.284655307428642"><ele>896.5</ele><time>2026-04-12T07:23:32.998Z</time></trkpt><trkpt lat="43.578870649602486" lon="12.284632360676978"><ele>896.0</ele><time>2026-04-12T07:23:33.998Z</time></trkpt><trkpt lat="43.57879051310053" lon="12.284579412228796"><ele>895.5</ele><time>2026-04-12T07:23:35Z</time></trkpt><trkpt lat="43.578683579823945" lon="12.284540670114012"><ele>895.0</ele><time>2026-04-12T07:23:36Z</time></trkpt><trkpt lat="43.57860378120406" lon="12.284500790214938"><ele>894.5</ele><time>2026-04-12T07:23:37Z</time></trkpt><trkpt lat="43.57854046673307" lon="12.284454277967884"><ele>894.0</ele><time>2026-04-12T07:23:38Z</time></trkpt><trkpt lat="43.578523115900516" lon="12.284363397325146"><ele>894.0</ele><time>2026-04-12T07:23:39Z</time></trkpt><trkpt lat="43.57853530447907" lon="12.28424908661204"><ele>894.0000000000001</ele><time>2026-04-12T07:23:40Z</time></trkpt><trkpt lat="43.57856824595547" lon="12.284141286051323"><ele>894.0000000000001</ele><time>2026-04-12T07:23:41Z</time></trkpt><trkpt lat="43.578600993568244" lon="12.284004915010689"><ele>894.0</ele><time>2026-04-12T07:23:42Z</time></trkpt><trkpt lat="43.57859356173757" lon="12.283886490938338"><ele>894.0</ele><time>2026-04-12T07:23:43Z</time></trkpt><trkpt lat="43.5785797372207" lon="12.283758480724774"><ele>895.0</ele><time>2026-04-12T07:23:44Z</time></trkpt><trkpt lat="43.57860319844344" lon="12.283564834345361"><ele>896.0000000000001</ele><time>2026-04-12T07:23:46Z</time></trkpt><trkpt lat="43.57864454936116" lon="12.283462863958286"><ele>897.0000000000001</ele><time>2026-04-12T07:23:47Z</time></trkpt><trkpt lat="43.57866924418046" lon="12.283346486405023"><ele>898.0</ele><time>2026-04-12T07:23:48Z</time></trkpt><trkpt lat="43.57871414876257" lon="12.283189904877629"><ele>899.0</ele><time>2026-04-12T07:23:50Z</time></trkpt><trkpt lat="43.57874522629256" lon="12.283097773965158"><ele>902.8000000000001</ele><time>2026-04-12T07:23:51Z</time></trkpt><trkpt lat="43.578782762472024" lon="12.2829884800722"><ele>906.6000000000001</ele><time>2026-04-12T07:23:52Z</time></trkpt><trkpt lat="43.57882686500432" lon="12.2828901087649"><ele>910.4</ele><time>2026-04-12T07:23:53Z</time></trkpt><trkpt lat="43.5788819492211" lon="12.282789532474032"><ele>914.2</ele><time>2026-04-12T07:23:54Z</time></trkpt><trkpt lat="43.57894375571649" lon="12.28268620022211"><ele>918.0</ele><time>2026-04-12T07:23:55Z</time></trkpt><trkpt lat="43.57900142087704" lon="12.282586646948559"><ele>918.0</ele><time>2026-04-12T07:23:56Z</time></trkpt><trkpt lat="43.57904669443211" lon="12.282478716276973"><ele>918.0</ele><time>2026-04-12T07:23:57Z</time></trkpt><trkpt lat="43.579085617425655" lon="12.282384043266902"><ele>918.0</ele><time>2026-04-12T07:23:58Z</time></trkpt><trkpt lat="43.579107329698324" lon="12.282248528252136"><ele>918.0</ele><time>2026-04-12T07:24:00Z</time></trkpt><trkpt lat="43.5791161743704" lon="12.282088373440775"><ele>918.0</ele><time>2026-04-12T07:24:02Z</time></trkpt><trkpt lat="43.579114304582795" lon="12.281998897496225"><ele>918.3333333333334</ele><time>2026-04-12T07:24:03Z</time></trkpt><trkpt lat="43.579103213321005" lon="12.281902270084055"><ele>918.6666666666667</ele><time>2026-04-12T07:24:04Z</time></trkpt><trkpt lat="43.579099847272424" lon="12.281795635829914"><ele>919.0</ele><time>2026-04-12T07:24:05Z</time></trkpt><trkpt lat="43.57906913997095" lon="12.281672313959568"><ele>919.3333333333334</ele><time>2026-04-12T07:24:07Z</time></trkpt><trkpt lat="43.579045890214196" lon="12.281585786570353"><ele>919.6666666666667</ele><time>2026-04-12T07:24:09Z</time></trkpt><trkpt lat="43.57902302503319" lon="12.281456553943485"><ele>920.0</ele><time>2026-04-12T07:24:11Z</time></trkpt><trkpt lat="43.57900463699623" lon="12.281357985257381"><ele>920.6</ele><time>2026-04-12T07:24:12Z</time></trkpt><trkpt lat="43.57900201045037" lon="12.281243777103944"><ele>921.2</ele><time>2026-04-12T07:24:13Z</time></trkpt><trkpt lat="43.578979953752444" lon="12.281089887659247"><ele>921.8</ele><time>2026-04-12T07:24:14Z</time></trkpt><trkpt lat="43.578970235946656" lon="12.280953980734573"><ele>922.4</ele><time>2026-04-12T07:24:15Z</time></trkpt><trkpt lat="43.578955117626705" lon="12.280818071973822"><ele>923.0</ele><time>2026-04-12T07:24:16Z</time></trkpt><trkpt lat="43.57895187486805" lon="12.280726040253962"><ele>923.8333333333334</ele><time>2026-04-12T07:24:17Z</time></trkpt><trkpt lat="43.57897421048066" lon="12.280585610217615"><ele>924.6666666666667</ele><time>2026-04-12T07:24:18.999Z</time></trkpt><trkpt lat="43.57903921418755" lon="12.280454376575769"><ele>925.5</ele><time>2026-04-12T07:24:20.999Z</time></trkpt><trkpt lat="43.57908505144051" lon="12.280370830070277"><ele>926.3333333333333</ele><time>2026-04-12T07:24:21.999Z</time></trkpt><trkpt lat="43.57911509466737" lon="12.280282437073826"><ele>927.1666666666666</ele><time>2026-04-12T07:24:22.999Z</time></trkpt><trkpt lat="43.5791330345601" lon="12.280184850894221"><ele>928.0</ele><time>2026-04-12T07:24:23.999Z</time></trkpt><trkpt lat="43.57916308553244" lon="12.280076088224973"><ele>928.0</ele><time>2026-04-12T07:24:24.999Z</time></trkpt><trkpt lat="43.57914210599592" lon="12.279982018768344"><ele>928.0</ele><time>2026-04-12T07:24:25.999Z</time></trkpt><trkpt lat="43.57915042004916" lon="12.279830840507783"><ele>928.0</ele><time>2026-04-12T07:24:26.999Z</time></trkpt><trkpt lat="43.57915080896292" lon="12.279683148918553"><ele>928.0</ele><time>2026-04-12T07:24:27.999Z</time></trkpt><trkpt lat="43.57915019175623" lon="12.279534745108403"><ele>928.0</ele><time>2026-04-12T07:24:28.999Z</time></trkpt><trkpt lat="43.5791666649288" lon="12.27941784898901"><ele>927.9999999999999</ele><time>2026-04-12T07:24:29.999Z</time></trkpt><trkpt lat="43.579197795334295" lon="12.2793221470378"><ele>928.0</ele><time>2026-04-12T07:24:30.999Z</time></trkpt><trkpt lat="43.579232124367486" lon="12.27923327647855"><ele>928.0</ele><time>2026-04-12T07:24:31.999Z</time></trkpt><trkpt lat="43.57929287763293" lon="12.27914467239744"><ele>928.0</ele><time>2026-04-12T07:24:33.999Z</time></trkpt><trkpt lat="43.57936166307847" lon="12.279167776470388"><ele>927.9999999999999</ele><time>2026-04-12T07:24:35.999Z</time></trkpt><trkpt lat="43.579425136280875" lon="12.279157810468012"><ele>928.0</ele><time>2026-04-12T07:24:42.999Z</time></trkpt><trkpt lat="43.579528299311725" lon="12.279140854119916"><ele>928.9999999999999</ele><time>2026-04-12T07:24:44.999Z</time></trkpt><trkpt lat="43.57959539058693" lon="12.279092752888339"><ele>930.0</ele><time>2026-04-12T07:24:46.999Z</time></trkpt><trkpt lat="43.579667879495005" lon="12.279030468463702"><ele>931.0</ele><time>2026-04-12T07:24:49.999Z</time></trkpt><trkpt lat="43.57975221441356" lon="12.278968387394308"><ele>932.0</ele><time>2026-04-12T07:24:51.999Z</time></trkpt><trkpt lat="43.57982758766244" lon="12.278969605514765"><ele>932.9999999999999</ele><time>2026-04-12T07:24:53.999Z</time></trkpt><trkpt lat="43.57990458982931" lon="12.278992521932294"><ele>934.0</ele><time>2026-04-12T07:24:56.999Z</time></trkpt><trkpt lat="43.57996444085166" lon="12.279037424190742"><ele>934.0</ele><time>2026-04-12T07:25:00.999Z</time></trkpt><trkpt lat="43.58004622691577" lon="12.279093801082404"><ele>934.0000000000001</ele><time>2026-04-12T07:25:03.999Z</time></trkpt><trkpt lat="43.58012486383506" lon="12.2791656305461"><ele>934.0000000000001</ele><time>2026-04-12T07:25:07.999Z</time></trkpt><trkpt lat="43.58020918265384" lon="12.279229158887157"><ele>934.0</ele><time>2026-04-12T07:25:10.999Z</time></trkpt><trkpt lat="43.58031979026667" lon="12.279259472104803"><ele>934.0</ele><time>2026-04-12T07:25:12.999Z</time></trkpt><trkpt lat="43.58040117228851" lon="12.279266055143058"><ele>933.8333333333333</ele><time>2026-04-12T07:25:13.999Z</time></trkpt><trkpt lat="43.58047673933009" lon="12.27927609610507"><ele>933.6666666666666</ele><time>2026-04-12T07:25:14.999Z</time></trkpt><trkpt lat="43.580575109235504" lon="12.27928364003251"><ele>933.5</ele><time>2026-04-12T07:25:16.999Z</time></trkpt><trkpt lat="43.58069760418911" lon="12.279296158210851"><ele>933.3333333333333</ele><time>2026-04-12T07:25:18.999Z</time></trkpt><trkpt lat="43.58076340612822" lon="12.279283801666404"><ele>933.1666666666666</ele><time>2026-04-12T07:25:19.999Z</time></trkpt><trkpt lat="43.58083754594857" lon="12.279277761704995"><ele>933.0</ele><time>2026-04-12T07:25:20.998Z</time></trkpt><trkpt lat="43.58090676923455" lon="12.279268768803465"><ele>933.0</ele><time>2026-04-12T07:25:21.998Z</time></trkpt><trkpt lat="43.580974457871015" lon="12.279255390173217"><ele>933.0</ele><time>2026-04-12T07:25:22.998Z</time></trkpt><trkpt lat="43.58106591337892" lon="12.279220746740574"><ele>933.0</ele><time>2026-04-12T07:25:24.998Z</time></trkpt><trkpt lat="43.58114975099056" lon="12.27921986978876"><ele>933.0</ele><time>2026-04-12T07:25:25.998Z</time></trkpt><trkpt lat="43.581221451806464" lon="12.279220243424062"><ele>933.0</ele><time>2026-04-12T07:25:26.998Z</time></trkpt><trkpt lat="43.58129503201927" lon="12.2792074138008"><ele>933.0</ele><time>2026-04-12T07:25:27.998Z</time></trkpt><trkpt lat="43.58135562275578" lon="12.279179390548842"><ele>932.6666666666666</ele><time>2026-04-12T07:25:28.998Z</time></trkpt><trkpt lat="43.581472598112654" lon="12.279089159701217"><ele>932.3333333333333</ele><time>2026-04-12T07:25:30.998Z</time></trkpt><trkpt lat="43.58153162342757" lon="12.279042526147068"><ele>932.0</ele><time>2026-04-12T07:25:31.998Z</time></trkpt><trkpt lat="43.58161066288562" lon="12.27901925207716"><ele>931.6666666666666</ele><time>2026-04-12T07:25:32.998Z</time></trkpt><trkpt lat="43.581699666285765" lon="12.278995147848"><ele>931.3333333333333</ele><time>2026-04-12T07:25:33.998Z</time></trkpt><trkpt lat="43.58176743059223" lon="12.27897287637144"><ele>931.0</ele><time>2026-04-12T07:25:34.998Z</time></trkpt><trkpt lat="43.58183821627253" lon="12.278914672450778"><ele>930.9999999999999</ele><time>2026-04-12T07:25:35.998Z</time></trkpt><trkpt lat="43.581898726998055" lon="12.278863187630936"><ele>931.0</ele><time>2026-04-12T07:25:36.998Z</time></trkpt><trkpt lat="43.58197523441626" lon="12.278723919977642"><ele>931.0</ele><time>2026-04-12T07:25:38.998Z</time></trkpt><trkpt lat="43.582010809637275" lon="12.278633602585268"><ele>931.0</ele><time>2026-04-12T07:25:39.998Z</time></trkpt><trkpt lat="43.58203093823452" lon="12.27853712481967"><ele>930.9999999999999</ele><time>2026-04-12T07:25:41Z</time></trkpt><trkpt lat="43.58206510236541" lon="12.278440366920204"><ele>931.0</ele><time>2026-04-12T07:25:42Z</time></trkpt><trkpt lat="43.58209729645014" lon="12.278342366338808"><ele>933.1666666666666</ele><time>2026-04-12T07:25:43Z</time></trkpt><trkpt lat="43.58213340085237" lon="12.278263201569745"><ele>935.3333333333333</ele><time>2026-04-12T07:25:44Z</time></trkpt><trkpt lat="43.58218382412954" lon="12.27817417104053"><ele>937.5</ele><time>2026-04-12T07:25:45Z</time></trkpt><trkpt lat="43.58222739839304" lon="12.27809664618298"><ele>939.6666666666667</ele><time>2026-04-12T07:25:46Z</time></trkpt><trkpt lat="43.58226056645476" lon="12.278011046317117"><ele>941.8333333333334</ele><time>2026-04-12T07:25:47Z</time></trkpt><trkpt lat="43.58228056369222" lon="12.27790692560325"><ele>944.0</ele><time>2026-04-12T07:25:48Z</time></trkpt><trkpt lat="43.58228557401097" lon="12.277792074246072"><ele>944.0000000000001</ele><time>2026-04-12T07:25:49Z</time></trkpt><trkpt lat="43.582287460124554" lon="12.277688944016734"><ele>944.0</ele><time>2026-04-12T07:25:50Z</time></trkpt><trkpt lat="43.58229791722495" lon="12.277574537223767"><ele>944.0</ele><time>2026-04-12T07:25:51Z</time></trkpt><trkpt lat="43.582327804475916" lon="12.27747985808585"><ele>944.0</ele><time>2026-04-12T07:25:52Z</time></trkpt><trkpt lat="43.582360877731745" lon="12.27739678555361"><ele>944.0000000000001</ele><time>2026-04-12T07:25:53Z</time></trkpt><trkpt lat="43.582391137050266" lon="12.277315042693713"><ele>944.0</ele><time>2026-04-12T07:25:54Z</time></trkpt><trkpt lat="43.58240499423644" lon="12.277195540309561"><ele>943.4000000000001</ele><time>2026-04-12T07:25:55Z</time></trkpt><trkpt lat="43.582401222898376" lon="12.277082584256723"><ele>942.8000000000001</ele><time>2026-04-12T07:25:56Z</time></trkpt><trkpt lat="43.58233004119319" lon="12.276942871730638"><ele>942.1999999999999</ele><time>2026-04-12T07:25:58Z</time></trkpt><trkpt lat="43.58230619072468" lon="12.276836618719384"><ele>941.5999999999999</ele><time>2026-04-12T07:25:59Z</time></trkpt><trkpt lat="43.58228554922208" lon="12.276701749723932"><ele>941.0</ele><time>2026-04-12T07:26:00Z</time></trkpt><trkpt lat="43.58227064375394" lon="12.276546369944926"><ele>939.0</ele><time>2026-04-12T07:26:01Z</time></trkpt><trkpt lat="43.582232807509996" lon="12.276400296040578"><ele>936.9999999999999</ele><time>2026-04-12T07:26:02Z</time></trkpt><trkpt lat="43.58221463979724" lon="12.276291758370212"><ele>934.9999999999999</ele><time>2026-04-12T07:26:03Z</time></trkpt><trkpt lat="43.58223244300781" lon="12.276205280464064"><ele>933.0</ele><time>2026-04-12T07:26:04Z</time></trkpt><trkpt lat="43.58232056956156" lon="12.276089787168127"><ele>931.0</ele><time>2026-04-12T07:26:06Z</time></trkpt><trkpt lat="43.58240494835439" lon="12.276015397921475"><ele>930.9999999999999</ele><time>2026-04-12T07:26:07Z</time></trkpt><trkpt lat="43.582499878645265" lon="12.275971266321804"><ele>931.0</ele><time>2026-04-12T07:26:08Z</time></trkpt><trkpt lat="43.582575108954174" lon="12.275937304512343"><ele>931.0</ele><time>2026-04-12T07:26:09Z</time></trkpt><trkpt lat="43.58265397994515" lon="12.275897942240942"><ele>931.0</ele><time>2026-04-12T07:26:10Z</time></trkpt><trkpt lat="43.58272767609115" lon="12.275847141730331"><ele>930.9999999999999</ele><time>2026-04-12T07:26:11Z</time></trkpt><trkpt lat="43.582785896653355" lon="12.27578889672969"><ele>931.0</ele><time>2026-04-12T07:26:12Z</time></trkpt><trkpt lat="43.58287001026049" lon="12.275635042256164"><ele>930.4999999999999</ele><time>2026-04-12T07:26:14Z</time></trkpt><trkpt lat="43.58293494455333" lon="12.275539196846909"><ele>930.0</ele><time>2026-04-12T07:26:15Z</time></trkpt><trkpt lat="43.582988558268156" lon="12.275440335932156"><ele>929.5</ele><time>2026-04-12T07:26:16Z</time></trkpt><trkpt lat="43.58302127347547" lon="12.275351423148113"><ele>929.0</ele><time>2026-04-12T07:26:17Z</time></trkpt><trkpt lat="43.58305733426145" lon="12.275244147137998"><ele>928.4999999999999</ele><time>2026-04-12T07:26:18Z</time></trkpt><trkpt lat="43.5831047095367" lon="12.275139594681667"><ele>928.0</ele><time>2026-04-12T07:26:19Z</time></trkpt><trkpt lat="43.58314314316117" lon="12.2750422890742"><ele>928.0</ele><time>2026-04-12T07:26:20Z</time></trkpt><trkpt lat="43.58318013371987" lon="12.27494377649114"><ele>928.0</ele><time>2026-04-12T07:26:21Z</time></trkpt><trkpt lat="43.583217748393004" lon="12.27482945707461"><ele>928.0</ele><time>2026-04-12T07:26:22Z</time></trkpt><trkpt lat="43.5832527604779" lon="12.27471022615151"><ele>928.0</ele><time>2026-04-12T07:26:23Z</time></trkpt><trkpt lat="43.583275194437206" lon="12.274575655800424"><ele>928.0</ele><time>2026-04-12T07:26:24Z</time></trkpt><trkpt lat="43.583266652977564" lon="12.274423573181162"><ele>927.8333333333333</ele><time>2026-04-12T07:26:25Z</time></trkpt><trkpt lat="43.58323488419068" lon="12.274288348176512"><ele>927.6666666666666</ele><time>2026-04-12T07:26:25.999Z</time></trkpt><trkpt lat="43.58320016657844" lon="12.274173317948161"><ele>927.5</ele><time>2026-04-12T07:26:26.999Z</time></trkpt><trkpt lat="43.58318208846322" lon="12.27404583642446"><ele>927.3333333333333</ele><time>2026-04-12T07:26:27.999Z</time></trkpt><trkpt lat="43.58318968879407" lon="12.273929922689355"><ele>927.1666666666666</ele><time>2026-04-12T07:26:28.999Z</time></trkpt><trkpt lat="43.58321742723819" lon="12.273847919453983"><ele>927.0</ele><time>2026-04-12T07:26:29.999Z</time></trkpt><trkpt lat="43.58326357086279" lon="12.273727057246205"><ele>927.0</ele><time>2026-04-12T07:26:31.999Z</time></trkpt><trkpt lat="43.58326392695943" lon="12.273631077436628"><ele>927.0</ele><time>2026-04-12T07:26:49.999Z</time></trkpt><trkpt lat="43.58322455297759" lon="12.27350378106833"><ele>927.0</ele><time>2026-04-12T07:26:51.999Z</time></trkpt><trkpt lat="43.583246827325624" lon="12.273419155277132"><ele>927.0</ele><time>2026-04-12T07:26:53.999Z</time></trkpt><trkpt lat="43.583238374224436" lon="12.273244513374937"><ele>927.0</ele><time>2026-04-12T07:26:55.999Z</time></trkpt><trkpt lat="43.58323770682739" lon="12.27313583287982"><ele>927.0</ele><time>2026-04-12T07:26:56.999Z</time></trkpt><trkpt lat="43.58325370591805" lon="12.273009291858568"><ele>927.6666666666666</ele><time>2026-04-12T07:26:57.999Z</time></trkpt><trkpt lat="43.58326703066325" lon="12.272901423514957"><ele>928.3333333333333</ele><time>2026-04-12T07:26:58.999Z</time></trkpt><trkpt lat="43.583296122013735" lon="12.272818426927563"><ele>929.0</ele><time>2026-04-12T07:26:59.999Z</time></trkpt><trkpt lat="43.583347130594824" lon="12.272717326670325"><ele>929.6666666666666</ele><time>2026-04-12T07:27:00.999Z</time></trkpt><trkpt lat="43.58338224130386" lon="12.272630391797824"><ele>930.3333333333333</ele><time>2026-04-12T07:27:01.999Z</time></trkpt><trkpt lat="43.583427346334076" lon="12.272512888534894"><ele>931.0</ele><time>2026-04-12T07:27:02.999Z</time></trkpt><trkpt lat="43.58345714366716" lon="12.27241148333178"><ele>931.0</ele><time>2026-04-12T07:27:03.999Z</time></trkpt><trkpt lat="43.58348079625605" lon="12.272286847983716"><ele>930.9999999999999</ele><time>2026-04-12T07:27:04.999Z</time></trkpt><trkpt lat="43.58351166854543" lon="12.272152585614828"><ele>930.9999999999999</ele><time>2026-04-12T07:27:05.999Z</time></trkpt><trkpt lat="43.583551867701324" lon="12.272029750911893"><ele>931.0</ele><time>2026-04-12T07:27:06.999Z</time></trkpt><trkpt lat="43.58358253809213" lon="12.271916278770128"><ele>931.0</ele><time>2026-04-12T07:27:07.999Z</time></trkpt><trkpt lat="43.583599945845606" lon="12.271789461902564"><ele>931.3333333333333</ele><time>2026-04-12T07:27:08.999Z</time></trkpt><trkpt lat="43.583604918027646" lon="12.27167812381425"><ele>931.6666666666666</ele><time>2026-04-12T07:27:09.999Z</time></trkpt><trkpt lat="43.58357340735472" lon="12.271545579386357"><ele>932.0</ele><time>2026-04-12T07:27:10.999Z</time></trkpt><trkpt lat="43.58357952572247" lon="12.271431965257774"><ele>932.3333333333333</ele><time>2026-04-12T07:27:11.999Z</time></trkpt><trkpt lat="43.583620594502065" lon="12.271354844559093"><ele>932.6666666666666</ele><time>2026-04-12T07:27:12.999Z</time></trkpt><trkpt lat="43.58366886085258" lon="12.271231660142266"><ele>933.0</ele><time>2026-04-12T07:27:13.999Z</time></trkpt><trkpt lat="43.58369826596818" lon="12.271123293506532"><ele>933.4</ele><time>2026-04-12T07:27:14.999Z</time></trkpt><trkpt lat="43.583714909096884" lon="12.270987390824152"><ele>933.8</ele><time>2026-04-12T07:27:15.999Z</time></trkpt><trkpt lat="43.58372608005611" lon="12.270853264356365"><ele>934.2</ele><time>2026-04-12T07:27:16.999Z</time></trkpt><trkpt lat="43.58374460055516" lon="12.270723736189195"><ele>934.6</ele><time>2026-04-12T07:27:17.999Z</time></trkpt><trkpt lat="43.58377085771905" lon="12.270610035701104"><ele>935.0</ele><time>2026-04-12T07:27:18.999Z</time></trkpt><trkpt lat="43.58378212975078" lon="12.270500386408665"><ele>939.2</ele><time>2026-04-12T07:27:19.999Z</time></trkpt><trkpt lat="43.58379212559518" lon="12.270396272044668"><ele>943.4</ele><time>2026-04-12T07:27:20.999Z</time></trkpt><trkpt lat="43.58382329216938" lon="12.27029711850359"><ele>947.5999999999999</ele><time>2026-04-12T07:27:21.999Z</time></trkpt><trkpt lat="43.58385233664314" lon="12.27016315993166"><ele>951.8</ele><time>2026-04-12T07:27:22.999Z</time></trkpt><trkpt lat="43.583855479178176" lon="12.270028906466994"><ele>956.0</ele><time>2026-04-12T07:27:23.999Z</time></trkpt><trkpt lat="43.58387132907292" lon="12.269870260374468"><ele>960.4</ele><time>2026-04-12T07:27:24.999Z</time></trkpt><trkpt lat="43.583875021393006" lon="12.269723298483658"><ele>964.8</ele><time>2026-04-12T07:27:25.999Z</time></trkpt><trkpt lat="43.583849956710495" lon="12.269599091022158"><ele>969.1999999999999</ele><time>2026-04-12T07:27:26.999Z</time></trkpt><trkpt lat="43.5838200751109" lon="12.269466530048888"><ele>973.5999999999999</ele><time>2026-04-12T07:27:27.999Z</time></trkpt><trkpt lat="43.583777253369526" lon="12.269344548175702"><ele>978.0</ele><time>2026-04-12T07:27:28.999Z</time></trkpt><trkpt lat="43.58372059704172" lon="12.269238745337717"><ele>977.0</ele><time>2026-04-12T07:27:29.998Z</time></trkpt><trkpt lat="43.58364877803152" lon="12.26912837288888"><ele>976.0</ele><time>2026-04-12T07:27:30.998Z</time></trkpt><trkpt lat="43.583583285485815" lon="12.269025434555749"><ele>975.0</ele><time>2026-04-12T07:27:31.998Z</time></trkpt><trkpt lat="43.58351918172873" lon="12.268941708851784"><ele>974.0</ele><time>2026-04-12T07:27:32.998Z</time></trkpt><trkpt lat="43.583472730768804" lon="12.268854887097529"><ele>973.0</ele><time>2026-04-12T07:27:33.998Z</time></trkpt><trkpt lat="43.5833690500027" lon="12.26871828224287"><ele>972.9999999999999</ele><time>2026-04-12T07:27:35.998Z</time></trkpt><trkpt lat="43.583295632780946" lon="12.268648818327955"><ele>973.0</ele><time>2026-04-12T07:27:36.998Z</time></trkpt><trkpt lat="43.58323151114615" lon="12.26863294132563"><ele>973.0</ele><time>2026-04-12T07:27:37.998Z</time></trkpt><trkpt lat="43.58316894710468" lon="12.268600402910932"><ele>973.0</ele><time>2026-04-12T07:27:38.998Z</time></trkpt><trkpt lat="43.58312446909226" lon="12.268538024073406"><ele>972.9999999999999</ele><time>2026-04-12T07:27:40.998Z</time></trkpt><trkpt lat="43.58319384129937" lon="12.268439261750876"><ele>973.0</ele><time>2026-04-12T07:27:42.998Z</time></trkpt><trkpt lat="43.583276860234726" lon="12.26838955795829"><ele>973.0</ele><time>2026-04-12T07:27:43.998Z</time></trkpt><trkpt lat="43.58339133028383" lon="12.268352616202627"><ele>973.0</ele><time>2026-04-12T07:27:44.998Z</time></trkpt><trkpt lat="43.58347893319926" lon="12.268334822749265"><ele>973.0</ele><time>2026-04-12T07:27:45.998Z</time></trkpt><trkpt lat="43.58355753077629" lon="12.268318174374743"><ele>973.0</ele><time>2026-04-12T07:27:47Z</time></trkpt><trkpt lat="43.583637281855516" lon="12.268261159696475"><ele>973.0</ele><time>2026-04-12T07:27:48Z</time></trkpt><trkpt lat="43.58373319385786" lon="12.268191429570106"><ele>974.5999999999999</ele><time>2026-04-12T07:27:49Z</time></trkpt><trkpt lat="43.58384992964192" lon="12.268119111201335"><ele>976.1999999999999</ele><time>2026-04-12T07:27:50Z</time></trkpt><trkpt lat="43.58394668679252" lon="12.268061492709279"><ele>977.8</ele><time>2026-04-12T07:27:51Z</time></trkpt><trkpt lat="43.584004808262186" lon="12.267998338708338"><ele>979.4</ele><time>2026-04-12T07:27:52Z</time></trkpt><trkpt lat="43.58407128730218" lon="12.26790513702633"><ele>981.0</ele><time>2026-04-12T07:27:53Z</time></trkpt><trkpt lat="43.58414374982092" lon="12.267794280763429"><ele>981.0</ele><time>2026-04-12T07:27:54Z</time></trkpt><trkpt lat="43.584216033666166" lon="12.267678454209356"><ele>981.0</ele><time>2026-04-12T07:27:55Z</time></trkpt><trkpt lat="43.584285024302545" lon="12.26758804418806"><ele>981.0</ele><time>2026-04-12T07:27:56Z</time></trkpt><trkpt lat="43.584360168174555" lon="12.26751176749525"><ele>981.0</ele><time>2026-04-12T07:27:57Z</time></trkpt><trkpt lat="43.58442170805573" lon="12.267455827911926"><ele>981.0</ele><time>2026-04-12T07:27:58Z</time></trkpt><trkpt lat="43.5844791159617" lon="12.267388173593146"><ele>981.0</ele><time>2026-04-12T07:27:59Z</time></trkpt><trkpt lat="43.58452960005581" lon="12.26732867877871"><ele>980.8</ele><time>2026-04-12T07:28:00Z</time></trkpt><trkpt lat="43.58455167792832" lon="12.267240286464347"><ele>980.5999999999999</ele><time>2026-04-12T07:28:01Z</time></trkpt><trkpt lat="43.584541424398004" lon="12.267106908693037"><ele>980.4</ele><time>2026-04-12T07:28:02Z</time></trkpt><trkpt lat="43.58453058007068" lon="12.266959317510606"><ele>980.2</ele><time>2026-04-12T07:28:03Z</time></trkpt><trkpt lat="43.5845249603795" lon="12.266814820402274"><ele>980.0</ele><time>2026-04-12T07:28:04Z</time></trkpt><trkpt lat="43.58450109482865" lon="12.26668271428509"><ele>980.0</ele><time>2026-04-12T07:28:05Z</time></trkpt><trkpt lat="43.584495074844256" lon="12.266535037327671"><ele>980.0</ele><time>2026-04-12T07:28:06Z</time></trkpt><trkpt lat="43.584497963614766" lon="12.266389458279047"><ele>980.0</ele><time>2026-04-12T07:28:07Z</time></trkpt><trkpt lat="43.58449791611639" lon="12.266238321791233"><ele>980.0</ele><time>2026-04-12T07:28:08Z</time></trkpt><trkpt lat="43.58447975053696" lon="12.266096159890946"><ele>980.0</ele><time>2026-04-12T07:28:09Z</time></trkpt><trkpt lat="43.58449409368007" lon="12.265990622052204"><ele>982.8333333333334</ele><time>2026-04-12T07:28:10Z</time></trkpt><trkpt lat="43.58456763583725" lon="12.265948275113228"><ele>985.6666666666667</ele><time>2026-04-12T07:28:12Z</time></trkpt><trkpt lat="43.58462993141606" lon="12.265921125736524"><ele>988.5</ele><time>2026-04-12T07:28:25Z</time></trkpt><trkpt lat="43.58471561137242" lon="12.265889803792462"><ele>991.3333333333333</ele><time>2026-04-12T07:28:28Z</time></trkpt><trkpt lat="43.58482428454701" lon="12.265900709988289"><ele>994.1666666666666</ele><time>2026-04-12T07:28:30Z</time></trkpt><trkpt lat="43.58488887177197" lon="12.26590785105967"><ele>997.0</ele><time>2026-04-12T07:28:31Z</time></trkpt><trkpt lat="43.5849567741973" lon="12.26590683991639"><ele>996.9999999999999</ele><time>2026-04-12T07:28:32.999Z</time></trkpt><trkpt lat="43.5850232134028" lon="12.265911105161011"><ele>997.0</ele><time>2026-04-12T07:28:34.999Z</time></trkpt><trkpt lat="43.585097525841235" lon="12.26591280408781"><ele>997.0</ele><time>2026-04-12T07:28:36.999Z</time></trkpt><trkpt lat="43.58517264256441" lon="12.265916598375014"><ele>997.0</ele><time>2026-04-12T07:28:41.999Z</time></trkpt><trkpt lat="43.58524634995214" lon="12.265892599319175"><ele>996.9999999999999</ele><time>2026-04-12T07:28:43.999Z</time></trkpt><trkpt lat="43.58532838397974" lon="12.26587944141291"><ele>997.0</ele><time>2026-04-12T07:28:46.999Z</time></trkpt><trkpt lat="43.585382862844796" lon="12.265756538375882"><ele>996.4999999999999</ele><time>2026-04-12T07:28:48.999Z</time></trkpt><trkpt lat="43.585411727140965" lon="12.26565297746608"><ele>996.0</ele><time>2026-04-12T07:28:49.999Z</time></trkpt><trkpt lat="43.58545007411543" lon="12.265563844996304"><ele>995.5</ele><time>2026-04-12T07:28:50.999Z</time></trkpt><trkpt lat="43.58550790019085" lon="12.26546825754518"><ele>995.0</ele><time>2026-04-12T07:28:51.999Z</time></trkpt><trkpt lat="43.585573723924064" lon="12.265395639583069"><ele>994.4999999999999</ele><time>2026-04-12T07:28:52.999Z</time></trkpt><trkpt lat="43.58564325044169" lon="12.265314728477646"><ele>994.0</ele><time>2026-04-12T07:28:53.999Z</time></trkpt><trkpt lat="43.58570105349906" lon="12.265225087164886"><ele>994.0</ele><time>2026-04-12T07:28:54.999Z</time></trkpt><trkpt lat="43.58576498875797" lon="12.265119502307604"><ele>994.0000000000001</ele><time>2026-04-12T07:28:55.999Z</time></trkpt><trkpt lat="43.585837208516004" lon="12.265009319279054"><ele>994.0000000000001</ele><time>2026-04-12T07:28:56.999Z</time></trkpt><trkpt lat="43.585900848898824" lon="12.264927658877129"><ele>994.0</ele><time>2026-04-12T07:28:57.999Z</time></trkpt><trkpt lat="43.58596344439401" lon="12.264848144265617"><ele>994.0</ele><time>2026-04-12T07:28:58.999Z</time></trkpt><trkpt lat="43.58602762969286" lon="12.264761032985039"><ele>993.3333333333333</ele><time>2026-04-12T07:28:59.999Z</time></trkpt><trkpt lat="43.58608674266682" lon="12.26466470930903"><ele>992.6666666666666</ele><time>2026-04-12T07:29:00.999Z</time></trkpt><trkpt lat="43.58614204759747" lon="12.264563200157951"><ele>992.0</ele><time>2026-04-12T07:29:01.999Z</time></trkpt><trkpt lat="43.58620121905909" lon="12.264478784006336"><ele>991.3333333333333</ele><time>2026-04-12T07:29:02.999Z</time></trkpt><trkpt lat="43.58624719107564" lon="12.264411588897707"><ele>990.6666666666666</ele><time>2026-04-12T07:29:03.999Z</time></trkpt><trkpt lat="43.58629792205227" lon="12.26433075025111"><ele>990.0</ele><time>2026-04-12T07:29:04.999Z</time></trkpt><trkpt lat="43.58634310476804" lon="12.264258609898485"><ele>994.8333333333334</ele><time>2026-04-12T07:29:05.999Z</time></trkpt><trkpt lat="43.58640680911461" lon="12.264144825474405"><ele>999.6666666666667</ele><time>2026-04-12T07:29:07.999Z</time></trkpt><trkpt lat="43.586438169972546" lon="12.264064806780246"><ele>1004.5</ele><time>2026-04-12T07:29:08.999Z</time></trkpt><trkpt lat="43.58642770593005" lon="12.263954005535767"><ele>1009.3333333333334</ele><time>2026-04-12T07:29:09.999Z</time></trkpt><trkpt lat="43.586422086898565" lon="12.263825762356463"><ele>1014.1666666666667</ele><time>2026-04-12T07:29:10.999Z</time></trkpt><trkpt lat="43.586386003446094" lon="12.263693454786168"><ele>1019.0</ele><time>2026-04-12T07:29:11.999Z</time></trkpt><trkpt lat="43.58637096051529" lon="12.263573317610211"><ele>1019.0000000000001</ele><time>2026-04-12T07:29:12.999Z</time></trkpt><trkpt lat="43.58638519148009" lon="12.263471766191547"><ele>1019.0</ele><time>2026-04-12T07:29:13.999Z</time></trkpt><trkpt lat="43.58641049011094" lon="12.26336271080787"><ele>1019.0</ele><time>2026-04-12T07:29:14.999Z</time></trkpt><trkpt lat="43.58644291256837" lon="12.263268837419238"><ele>1019.0</ele><time>2026-04-12T07:29:15.999Z</time></trkpt><trkpt lat="43.58648759406465" lon="12.26316522984088"><ele>1019.0000000000001</ele><time>2026-04-12T07:29:16.999Z</time></trkpt><trkpt lat="43.58650897694047" lon="12.263074627259051"><ele>1019.0</ele><time>2026-04-12T07:29:17.999Z</time></trkpt><trkpt lat="43.58651903221882" lon="12.262884471712372"><ele>1017.2</ele><time>2026-04-12T07:29:19.999Z</time></trkpt><trkpt lat="43.586535919259184" lon="12.26276986477846"><ele>1015.4000000000001</ele><time>2026-04-12T07:29:20.999Z</time></trkpt><trkpt lat="43.586564314944795" lon="12.262685699989467"><ele>1013.6</ele><time>2026-04-12T07:29:21.999Z</time></trkpt><trkpt lat="43.58665532663166" lon="12.262575027538078"><ele>1011.8</ele><time>2026-04-12T07:29:23.999Z</time></trkpt><trkpt lat="43.58680301632808" lon="12.262460141061304"><ele>1010.0</ele><time>2026-04-12T07:29:25.999Z</time></trkpt><trkpt lat="43.58686777742808" lon="12.262392498749346"><ele>1010.0</ele><time>2026-04-12T07:29:26.999Z</time></trkpt><trkpt lat="43.586978058727134" lon="12.262345241713152"><ele>1010.0</ele><time>2026-04-12T07:29:27.999Z</time></trkpt><trkpt lat="43.58706889179171" lon="12.262321899096317"><ele>1010.0</ele><time>2026-04-12T07:29:28.999Z</time></trkpt><trkpt lat="43.58714458114162" lon="12.262310878585685"><ele>1010.0</ele><time>2026-04-12T07:29:29.999Z</time></trkpt><trkpt lat="43.58725998636643" lon="12.26227002739436"><ele>1010.0</ele><time>2026-04-12T07:29:31.999Z</time></trkpt><trkpt lat="43.587324513723985" lon="12.262229411329528"><ele>1011.4</ele><time>2026-04-12T07:29:32.999Z</time></trkpt><trkpt lat="43.587435859446046" lon="12.262173776253416"><ele>1012.8</ele><time>2026-04-12T07:29:34.998Z</time></trkpt><trkpt lat="43.58752561184231" lon="12.262117306407985"><ele>1014.2</ele><time>2026-04-12T07:29:35.998Z</time></trkpt><trkpt lat="43.5875912627425" lon="12.262050235489552"><ele>1015.6</ele><time>2026-04-12T07:29:36.998Z</time></trkpt><trkpt lat="43.58764800304855" lon="12.26197942217786"><ele>1017.0</ele><time>2026-04-12T07:29:37.998Z</time></trkpt><trkpt lat="43.58768563869316" lon="12.261868948177625"><ele>1017.0</ele><time>2026-04-12T07:29:38.998Z</time></trkpt><trkpt lat="43.58770806734805" lon="12.26174828168751"><ele>1017.0</ele><time>2026-04-12T07:29:39.998Z</time></trkpt><trkpt lat="43.58771303786944" lon="12.261601212602251"><ele>1017.0</ele><time>2026-04-12T07:29:40.998Z</time></trkpt><trkpt lat="43.58772382512506" lon="12.261450946466969"><ele>1017.0</ele><time>2026-04-12T07:29:41.998Z</time></trkpt><trkpt lat="43.58773819489326" lon="12.261286355154564"><ele>1017.0</ele><time>2026-04-12T07:29:42.998Z</time></trkpt><trkpt lat="43.587736076123214" lon="12.26113387482731"><ele>1017.0</ele><time>2026-04-12T07:29:43.998Z</time></trkpt><trkpt lat="43.5877172578179" lon="12.260988268219485"><ele>1017.0</ele><time>2026-04-12T07:29:44.998Z</time></trkpt><trkpt lat="43.587689138116566" lon="12.260828863835588"><ele>1017.0</ele><time>2026-04-12T07:29:45.998Z</time></trkpt><trkpt lat="43.587674664260014" lon="12.260716701357785"><ele>1017.0</ele><time>2026-04-12T07:29:46.998Z</time></trkpt><trkpt lat="43.587690048436194" lon="12.260573423686981"><ele>1017.0</ele><time>2026-04-12T07:29:48.998Z</time></trkpt><trkpt lat="43.58772916692741" lon="12.260491837051054"><ele>1016.8</ele><time>2026-04-12T07:29:49.998Z</time></trkpt><trkpt lat="43.58776462350455" lon="12.260386442393488"><ele>1016.6</ele><time>2026-04-12T07:29:50.998Z</time></trkpt><trkpt lat="43.58779787255749" lon="12.260243118474225"><ele>1016.3999999999999</ele><time>2026-04-12T07:29:51.998Z</time></trkpt><trkpt lat="43.58783727733807" lon="12.260096157550958"><ele>1016.1999999999999</ele><time>2026-04-12T07:29:53Z</time></trkpt><trkpt lat="43.58786982716266" lon="12.259921853841213"><ele>1016.0</ele><time>2026-04-12T07:29:54Z</time></trkpt><trkpt lat="43.587901941547145" lon="12.259769017758936"><ele>1018.1666666666667</ele><time>2026-04-12T07:29:55Z</time></trkpt><trkpt lat="43.587908995169514" lon="12.259639257590562"><ele>1020.3333333333334</ele><time>2026-04-12T07:29:56Z</time></trkpt><trkpt lat="43.58791646603309" lon="12.25953537610891"><ele>1022.5</ele><time>2026-04-12T07:29:57Z</time></trkpt><trkpt lat="43.58794272571056" lon="12.259421798780563"><ele>1024.6666666666667</ele><time>2026-04-12T07:29:58Z</time></trkpt><trkpt lat="43.58798604487395" lon="12.259305956737277"><ele>1026.8333333333333</ele><time>2026-04-12T07:29:59Z</time></trkpt><trkpt lat="43.58801136296516" lon="12.259200176598435"><ele>1029.0</ele><time>2026-04-12T07:30:00Z</time></trkpt><trkpt lat="43.58805051802325" lon="12.259088733118913"><ele>1029.0</ele><time>2026-04-12T07:30:01Z</time></trkpt><trkpt lat="43.588108771854756" lon="12.259020178929738"><ele>1029.0</ele><time>2026-04-12T07:30:02Z</time></trkpt><trkpt lat="43.58816954838659" lon="12.25891673022038"><ele>1029.0</ele><time>2026-04-12T07:30:03Z</time></trkpt><trkpt lat="43.588212753727355" lon="12.258788638035814"><ele>1029.0</ele><time>2026-04-12T07:30:04Z</time></trkpt><trkpt lat="43.58821654531333" lon="12.258673867996881"><ele>1029.0</ele><time>2026-04-12T07:30:05Z</time></trkpt><trkpt lat="43.58819178792006" lon="12.258533668490106"><ele>1028.2</ele><time>2026-04-12T07:30:06Z</time></trkpt><trkpt lat="43.58814633503765" lon="12.258406935391928"><ele>1027.4</ele><time>2026-04-12T07:30:07Z</time></trkpt><trkpt lat="43.588100966626556" lon="12.258278095243595"><ele>1026.6</ele><time>2026-04-12T07:30:08Z</time></trkpt><trkpt lat="43.58804645098194" lon="12.258173359763964"><ele>1025.8</ele><time>2026-04-12T07:30:09Z</time></trkpt><trkpt lat="43.58801804203532" lon="12.258063886223473"><ele>1025.0</ele><time>2026-04-12T07:30:10Z</time></trkpt><trkpt lat="43.587983424685945" lon="12.25793554480098"><ele>1024.8</ele><time>2026-04-12T07:30:11Z</time></trkpt><trkpt lat="43.587961553287776" lon="12.257830517109968"><ele>1024.6</ele><time>2026-04-12T07:30:12Z</time></trkpt><trkpt lat="43.5879381446892" lon="12.257727479801787"><ele>1024.4</ele><time>2026-04-12T07:30:13Z</time></trkpt><trkpt lat="43.58791395877662" lon="12.25760119932218"><ele>1024.2</ele><time>2026-04-12T07:30:14Z</time></trkpt><trkpt lat="43.58789743375682" lon="12.257456536697552"><ele>1024.0</ele><time>2026-04-12T07:30:15Z</time></trkpt><trkpt lat="43.587877907970565" lon="12.257327798123164"><ele>1022.9999999999999</ele><time>2026-04-12T07:30:16Z</time></trkpt><trkpt lat="43.587853898423575" lon="12.257213393903388"><ele>1022.0</ele><time>2026-04-12T07:30:17Z</time></trkpt><trkpt lat="43.58783632111935" lon="12.257116847785749"><ele>1021.0</ele><time>2026-04-12T07:30:18Z</time></trkpt><trkpt lat="43.58781655865313" lon="12.257011923197961"><ele>1020.0</ele><time>2026-04-12T07:30:19Z</time></trkpt><trkpt lat="43.58781798843564" lon="12.256907025780134"><ele>1018.9999999999999</ele><time>2026-04-12T07:30:20Z</time></trkpt><trkpt lat="43.58783142822334" lon="12.256796809953203"><ele>1018.0</ele><time>2026-04-12T07:30:21Z</time></trkpt><trkpt lat="43.5878998500693" lon="12.256684225299468"><ele>1017.9999999999999</ele><time>2026-04-12T07:30:23Z</time></trkpt><trkpt lat="43.58795549690146" lon="12.256607196303245"><ele>1018.0</ele><time>2026-04-12T07:30:24Z</time></trkpt><trkpt lat="43.588027045647735" lon="12.256536144824086"><ele>1018.0</ele><time>2026-04-12T07:30:25Z</time></trkpt><trkpt lat="43.5881215781037" lon="12.256473258494925"><ele>1018.0</ele><time>2026-04-12T07:30:26Z</time></trkpt><trkpt lat="43.58819762731422" lon="12.256435070404802"><ele>1017.9999999999999</ele><time>2026-04-12T07:30:27Z</time></trkpt><trkpt lat="43.588263795478596" lon="12.256409244802956"><ele>1018.0</ele><time>2026-04-12T07:30:28Z</time></trkpt><trkpt lat="43.58833220581729" lon="12.256387204845941"><ele>1016.4</ele><time>2026-04-12T07:30:29Z</time></trkpt><trkpt lat="43.588426293379385" lon="12.256366568038727"><ele>1014.8</ele><time>2026-04-12T07:30:30Z</time></trkpt><trkpt lat="43.58850946511482" lon="12.256328494745262"><ele>1013.2</ele><time>2026-04-12T07:30:31Z</time></trkpt><trkpt lat="43.58859346902061" lon="12.256267444530753"><ele>1011.6</ele><time>2026-04-12T07:30:32Z</time></trkpt><trkpt lat="43.58866232892008" lon="12.25622153349237"><ele>1010.0</ele><time>2026-04-12T07:30:33Z</time></trkpt><trkpt lat="43.5887918748161" lon="12.25615602327706"><ele>1010.0000000000001</ele><time>2026-04-12T07:30:35Z</time></trkpt><trkpt lat="43.58886386228077" lon="12.256134085476559"><ele>1010.0</ele><time>2026-04-12T07:30:36Z</time></trkpt><trkpt lat="43.588941185764995" lon="12.256095793619698"><ele>1010.0</ele><time>2026-04-12T07:30:37Z</time></trkpt><trkpt lat="43.5890156525223" lon="12.256068674444622"><ele>1010.0</ele><time>2026-04-12T07:30:38Z</time></trkpt><trkpt lat="43.58909810366929" lon="12.256056725728833"><ele>1010.0000000000001</ele><time>2026-04-12T07:30:38.999Z</time></trkpt><trkpt lat="43.58919250156034" lon="12.256037342580159"><ele>1010.0</ele><time>2026-04-12T07:30:39.999Z</time></trkpt><trkpt lat="43.58927806340457" lon="12.255997007940096"><ele>1010.0</ele><time>2026-04-12T07:30:40.999Z</time></trkpt><trkpt lat="43.58935643439295" lon="12.255949495925337"><ele>1010.0</ele><time>2026-04-12T07:30:41.999Z</time></trkpt><trkpt lat="43.589434630489805" lon="12.255860263925033"><ele>1010.0</ele><time>2026-04-12T07:30:42.999Z</time></trkpt><trkpt lat="43.58950631115718" lon="12.255746636698868"><ele>1010.0</ele><time>2026-04-12T07:30:43.999Z</time></trkpt><trkpt lat="43.58957159279627" lon="12.255615578629754"><ele>1010.0</ele><time>2026-04-12T07:30:44.999Z</time></trkpt><trkpt lat="43.58964118643237" lon="12.255509680003128"><ele>1010.2</ele><time>2026-04-12T07:30:45.999Z</time></trkpt><trkpt lat="43.589692602934264" lon="12.255413148617999"><ele>1010.4</ele><time>2026-04-12T07:30:46.999Z</time></trkpt><trkpt lat="43.58972202498019" lon="12.255284836280772"><ele>1010.5999999999999</ele><time>2026-04-12T07:30:47.999Z</time></trkpt><trkpt lat="43.58973673613318" lon="12.25514488317464"><ele>1010.8</ele><time>2026-04-12T07:30:48.999Z</time></trkpt><trkpt lat="43.5897356773515" lon="12.25501875499524"><ele>1011.0</ele><time>2026-04-12T07:30:49.999Z</time></trkpt><trkpt lat="43.58975344125757" lon="12.25487060043806"><ele>1008.3333333333334</ele><time>2026-04-12T07:30:50.999Z</time></trkpt><trkpt lat="43.5897711478391" lon="12.254778199384146"><ele>1005.6666666666667</ele><time>2026-04-12T07:30:51.999Z</time></trkpt><trkpt lat="43.58980748933669" lon="12.25469128004233"><ele>1003.0</ele><time>2026-04-12T07:30:52.999Z</time></trkpt><trkpt lat="43.58985296050584" lon="12.254593848517823"><ele>1000.3333333333334</ele><time>2026-04-12T07:30:53.999Z</time></trkpt><trkpt lat="43.589912325131046" lon="12.254475790926293"><ele>997.6666666666667</ele><time>2026-04-12T07:30:54.999Z</time></trkpt><trkpt lat="43.589988255338625" lon="12.254381640836534"><ele>995.0</ele><time>2026-04-12T07:30:55.999Z</time></trkpt><trkpt lat="43.59003193372853" lon="12.254300830552907"><ele>995.0</ele><time>2026-04-12T07:30:56.999Z</time></trkpt><trkpt lat="43.59006602964313" lon="12.254203006056292"><ele>995.0</ele><time>2026-04-12T07:30:57.999Z</time></trkpt><trkpt lat="43.590106338602375" lon="12.254071760653106"><ele>995.0</ele><time>2026-04-12T07:30:58.999Z</time></trkpt><trkpt lat="43.590137253168955" lon="12.25393680428265"><ele>995.0</ele><time>2026-04-12T07:30:59.999Z</time></trkpt><trkpt lat="43.59016266676171" lon="12.253790340140513"><ele>995.0</ele><time>2026-04-12T07:31:00.999Z</time></trkpt><trkpt lat="43.59019737791768" lon="12.253634183779011"><ele>992.6</ele><time>2026-04-12T07:31:01.999Z</time></trkpt><trkpt lat="43.590232281866" lon="12.253479553390239"><ele>990.2</ele><time>2026-04-12T07:31:02.999Z</time></trkpt><trkpt lat="43.590242417593586" lon="12.253342711983356"><ele>987.8</ele><time>2026-04-12T07:31:03.999Z</time></trkpt><trkpt lat="43.59025277237862" lon="12.25321124411519"><ele>985.4</ele><time>2026-04-12T07:31:04.999Z</time></trkpt><trkpt lat="43.59026568118344" lon="12.2530804492011"><ele>983.0</ele><time>2026-04-12T07:31:05.999Z</time></trkpt><trkpt lat="43.590282746383664" lon="12.252943480607104"><ele>982.3333333333334</ele><time>2026-04-12T07:31:06.999Z</time></trkpt><trkpt lat="43.59029468996705" lon="12.252812657174735"><ele>981.6666666666667</ele><time>2026-04-12T07:31:07.999Z</time></trkpt><trkpt lat="43.59030841426363" lon="12.252698970557917"><ele>981.0</ele><time>2026-04-12T07:31:08.999Z</time></trkpt><trkpt lat="43.59032171610849" lon="12.252581160971545"><ele>980.3333333333333</ele><time>2026-04-12T07:31:09.999Z</time></trkpt><trkpt lat="43.59031000825774" lon="12.25248784054888"><ele>979.6666666666666</ele><time>2026-04-12T07:31:10.999Z</time></trkpt><trkpt lat="43.59026873159029" lon="12.25241226989128"><ele>979.0</ele><time>2026-04-12T07:31:11.999Z</time></trkpt><trkpt lat="43.59020259077871" lon="12.252408999392625"><ele>978.9999999999999</ele><time>2026-04-12T07:31:12.999Z</time></trkpt><trkpt lat="43.590116612205264" lon="12.252404383358828"><ele>979.0</ele><time>2026-04-12T07:31:13.999Z</time></trkpt><trkpt lat="43.590013686097116" lon="12.252440543485543"><ele>979.0</ele><time>2026-04-12T07:31:14.999Z</time></trkpt><trkpt lat="43.5899262842792" lon="12.252470935972841"><ele>979.0</ele><time>2026-04-12T07:31:15.999Z</time></trkpt><trkpt lat="43.589838274294486" lon="12.252485238333833"><ele>978.9999999999999</ele><time>2026-04-12T07:31:16.999Z</time></trkpt><trkpt lat="43.58977898541414" lon="12.2524429495472"><ele>979.0</ele><time>2026-04-12T07:31:17.999Z</time></trkpt><trkpt lat="43.58974370996279" lon="12.25234643674732"><ele>974.6</ele><time>2026-04-12T07:31:18.999Z</time></trkpt><trkpt lat="43.589755607340095" lon="12.252233691064767"><ele>970.2</ele><time>2026-04-12T07:31:19.999Z</time></trkpt><trkpt lat="43.58981626702436" lon="12.252142664584289"><ele>965.8000000000001</ele><time>2026-04-12T07:31:20.999Z</time></trkpt><trkpt lat="43.58990168255845" lon="12.25210607043497"><ele>961.4000000000001</ele><time>2026-04-12T07:31:21.999Z</time></trkpt><trkpt lat="43.590005821221965" lon="12.252090151483232"><ele>957.0</ele><time>2026-04-12T07:31:22.999Z</time></trkpt><trkpt lat="43.59013618210976" lon="12.252067556281421"><ele>957.0</ele><time>2026-04-12T07:31:23.999Z</time></trkpt><trkpt lat="43.590248381663784" lon="12.252024342352119"><ele>957.0</ele><time>2026-04-12T07:31:24.999Z</time></trkpt><trkpt lat="43.590346180516065" lon="12.251962353406658"><ele>957.0</ele><time>2026-04-12T07:31:25.999Z</time></trkpt><trkpt lat="43.590455060431445" lon="12.25191589510925"><ele>957.0</ele><time>2026-04-12T07:31:26.999Z</time></trkpt><trkpt lat="43.59055753045417" lon="12.25187453519115"><ele>957.0</ele><time>2026-04-12T07:31:27.999Z</time></trkpt><trkpt lat="43.59064671888959" lon="12.251835303596938"><ele>958.5</ele><time>2026-04-12T07:31:28.999Z</time></trkpt><trkpt lat="43.59073967078299" lon="12.251820702456692"><ele>960.0</ele><time>2026-04-12T07:31:29.999Z</time></trkpt><trkpt lat="43.590832717855875" lon="12.25180284522463"><ele>961.5</ele><time>2026-04-12T07:31:30.999Z</time></trkpt><trkpt lat="43.59089270304218" lon="12.251744207159089"><ele>963.0</ele><time>2026-04-12T07:31:31.999Z</time></trkpt><trkpt lat="43.5909329073296" lon="12.251662728289759"><ele>964.5</ele><time>2026-04-12T07:31:32.999Z</time></trkpt><trkpt lat="43.59094629755191" lon="12.251563163660606"><ele>966.0</ele><time>2026-04-12T07:31:33.999Z</time></trkpt><trkpt lat="43.59093724856851" lon="12.251461483505546"><ele>963.1999999999999</ele><time>2026-04-12T07:31:34.999Z</time></trkpt><trkpt lat="43.59093387770067" lon="12.251332508369801"><ele>960.3999999999999</ele><time>2026-04-12T07:31:35.999Z</time></trkpt><trkpt lat="43.590952842329074" lon="12.251220831962819"><ele>957.6</ele><time>2026-04-12T07:31:36.999Z</time></trkpt><trkpt lat="43.59100067093599" lon="12.25109690363389"><ele>954.8</ele><time>2026-04-12T07:31:37.999Z</time></trkpt><trkpt lat="43.5910452197171" lon="12.250976302245817"><ele>952.0</ele><time>2026-04-12T07:31:38.999Z</time></trkpt><trkpt lat="43.59107668798694" lon="12.250858767358938"><ele>951.9999999999999</ele><time>2026-04-12T07:31:39.999Z</time></trkpt><trkpt lat="43.59110752150871" lon="12.250758490208417"><ele>952.0</ele><time>2026-04-12T07:31:40.999Z</time></trkpt><trkpt lat="43.59112900072412" lon="12.250660299215086"><ele>952.0</ele><time>2026-04-12T07:31:41.999Z</time></trkpt><trkpt lat="43.59115529307617" lon="12.250571071830505"><ele>952.0</ele><time>2026-04-12T07:31:42.998Z</time></trkpt><trkpt lat="43.59118369310256" lon="12.250456794026395"><ele>951.9999999999999</ele><time>2026-04-12T07:31:43.998Z</time></trkpt><trkpt lat="43.59119797731788" lon="12.250333942006584"><ele>952.0</ele><time>2026-04-12T07:31:44.998Z</time></trkpt><trkpt lat="43.59122894428732" lon="12.250216675814137"><ele>954.4000000000001</ele><time>2026-04-12T07:31:45.998Z</time></trkpt><trkpt lat="43.59125579353651" lon="12.250094829949637"><ele>956.8000000000001</ele><time>2026-04-12T07:31:46.998Z</time></trkpt><trkpt lat="43.5912891317526" lon="12.249962556935097"><ele>959.2</ele><time>2026-04-12T07:31:47.998Z</time></trkpt><trkpt lat="43.59134181410054" lon="12.24985624649822"><ele>961.6</ele><time>2026-04-12T07:31:48.998Z</time></trkpt><trkpt lat="43.59138268018619" lon="12.2497458417157"><ele>964.0</ele><time>2026-04-12T07:31:49.998Z</time></trkpt><trkpt lat="43.59139693012097" lon="12.24964243996295"><ele>966.8000000000001</ele><time>2026-04-12T07:31:50.998Z</time></trkpt><trkpt lat="43.5913885242766" lon="12.249536874775567"><ele>969.6000000000001</ele><time>2026-04-12T07:31:51.998Z</time></trkpt><trkpt lat="43.59136544869918" lon="12.249440939632496"><ele>972.4</ele><time>2026-04-12T07:31:52.998Z</time></trkpt><trkpt lat="43.591351621471055" lon="12.249281409657083"><ele>975.2</ele><time>2026-04-12T07:31:53.998Z</time></trkpt><trkpt lat="43.59135387130551" lon="12.249134713488635"><ele>978.0</ele><time>2026-04-12T07:31:54.998Z</time></trkpt><trkpt lat="43.5913556674382" lon="12.248990053709521"><ele>980.4</ele><time>2026-04-12T07:31:55.998Z</time></trkpt><trkpt lat="43.591369683864684" lon="12.248848426001048"><ele>982.8</ele><time>2026-04-12T07:31:56.998Z</time></trkpt><trkpt lat="43.591409689153224" lon="12.248741821974013"><ele>985.2</ele><time>2026-04-12T07:31:57.998Z</time></trkpt><trkpt lat="43.59145374336198" lon="12.248621075379777"><ele>987.6</ele><time>2026-04-12T07:31:59Z</time></trkpt><trkpt lat="43.59148578235079" lon="12.248501650592333"><ele>990.0</ele><time>2026-04-12T07:32:00Z</time></trkpt><trkpt lat="43.591519146979266" lon="12.248383013990198"><ele>990.0</ele><time>2026-04-12T07:32:01Z</time></trkpt><trkpt lat="43.591517247989614" lon="12.248268998414531"><ele>990.0</ele><time>2026-04-12T07:32:02Z</time></trkpt><trkpt lat="43.59149569005655" lon="12.248162752668739"><ele>990.0</ele><time>2026-04-12T07:32:03Z</time></trkpt><trkpt lat="43.591432476577985" lon="12.248046294055788"><ele>990.0</ele><time>2026-04-12T07:32:04Z</time></trkpt><trkpt lat="43.59136560716934" lon="12.247935759892936"><ele>990.0</ele><time>2026-04-12T07:32:05Z</time></trkpt><trkpt lat="43.59129797706195" lon="12.247799527793308"><ele>987.75</ele><time>2026-04-12T07:32:06Z</time></trkpt><trkpt lat="43.591235452003986" lon="12.247653401307566"><ele>985.5</ele><time>2026-04-12T07:32:07Z</time></trkpt><trkpt lat="43.59117243794323" lon="12.247518305526937"><ele>983.25</ele><time>2026-04-12T07:32:08Z</time></trkpt><trkpt lat="43.591097786666616" lon="12.247399946234102"><ele>981.0</ele><time>2026-04-12T07:32:09Z</time></trkpt><trkpt lat="43.5910039058885" lon="12.247298584417734"><ele>990.0</ele><time>2026-04-12T07:32:10Z</time></trkpt><trkpt lat="43.59089911034046" lon="12.24721268569218"><ele>999.0</ele><time>2026-04-12T07:32:11Z</time></trkpt><trkpt lat="43.590798600634244" lon="12.247117221467656"><ele>1008.0</ele><time>2026-04-12T07:32:12Z</time></trkpt><trkpt lat="43.5907182265552" lon="12.246997753683877"><ele>1017.0</ele><time>2026-04-12T07:32:13Z</time></trkpt><trkpt lat="43.590639111373186" lon="12.246869186942"><ele>1017.0</ele><time>2026-04-12T07:32:14Z</time></trkpt><trkpt lat="43.59055762131634" lon="12.246752551357647"><ele>1017.0</ele><time>2026-04-12T07:32:15Z</time></trkpt><trkpt lat="43.59047420566388" lon="12.246638204621037"><ele>1017.0</ele><time>2026-04-12T07:32:16Z</time></trkpt><trkpt lat="43.590400759039895" lon="12.246565465201055"><ele>1017.0</ele><time>2026-04-12T07:32:17Z</time></trkpt><trkpt lat="43.59034544935854" lon="12.246509685138033"><ele>1017.0</ele><time>2026-04-12T07:32:18Z</time></trkpt><trkpt lat="43.59027656996563" lon="12.246459212146153"><ele>1015.8</ele><time>2026-04-12T07:32:19Z</time></trkpt><trkpt lat="43.590187244187895" lon="12.246422094437296"><ele>1014.6</ele><time>2026-04-12T07:32:20Z</time></trkpt><trkpt lat="43.59008019440279" lon="12.246411088115122"><ele>1013.3999999999999</ele><time>2026-04-12T07:32:21Z</time></trkpt><trkpt lat="43.58998133809083" lon="12.24645978907488"><ele>1012.1999999999999</ele><time>2026-04-12T07:32:22Z</time></trkpt><trkpt lat="43.58990285144681" lon="12.246499968614227"><ele>1011.0</ele><time>2026-04-12T07:32:23Z</time></trkpt><trkpt lat="43.58983304150238" lon="12.246512051763103"><ele>1011.0</ele><time>2026-04-12T07:32:24Z</time></trkpt><trkpt lat="43.5897664107578" lon="12.246478374835087"><ele>1011.0</ele><time>2026-04-12T07:32:25Z</time></trkpt><trkpt lat="43.589710317730905" lon="12.246412786856258"><ele>1011.0</ele><time>2026-04-12T07:32:26Z</time></trkpt><trkpt lat="43.58969066656873" lon="12.24632699093019"><ele>1011.0</ele><time>2026-04-12T07:32:27Z</time></trkpt><trkpt lat="43.589687790564255" lon="12.246217565600336"><ele>1011.0</ele><time>2026-04-12T07:32:28Z</time></trkpt><trkpt lat="43.58970806003248" lon="12.246081104771376"><ele>1011.0</ele><time>2026-04-12T07:32:29Z</time></trkpt><trkpt lat="43.58973457502094" lon="12.245944658796107"><ele>1011.0</ele><time>2026-04-12T07:32:30Z</time></trkpt><trkpt lat="43.58972336674658" lon="12.2458089541944"><ele>1010.9999999999999</ele><time>2026-04-12T07:32:31Z</time></trkpt><trkpt lat="43.58968406476687" lon="12.245663966546164"><ele>1010.9999999999999</ele><time>2026-04-12T07:32:32Z</time></trkpt><trkpt lat="43.589629865253585" lon="12.245520728784763"><ele>1011.0</ele><time>2026-04-12T07:32:33Z</time></trkpt><trkpt lat="43.58956944821632" lon="12.245390589474344"><ele>1011.0</ele><time>2026-04-12T07:32:34Z</time></trkpt><trkpt lat="43.589524362457915" lon="12.245277881329475"><ele>1008.6666666666666</ele><time>2026-04-12T07:32:35Z</time></trkpt><trkpt lat="43.58948303515231" lon="12.24514268197943"><ele>1006.3333333333333</ele><time>2026-04-12T07:32:36Z</time></trkpt><trkpt lat="43.589434028320724" lon="12.24505600290232"><ele>1004.0</ele><time>2026-04-12T07:32:37Z</time></trkpt><trkpt lat="43.58937326878255" lon="12.24497933640971"><ele>1001.6666666666666</ele><time>2026-04-12T07:32:38Z</time></trkpt><trkpt lat="43.58932525182417" lon="12.244884986374046"><ele>999.3333333333333</ele><time>2026-04-12T07:32:39Z</time></trkpt><trkpt lat="43.58929253253021" lon="12.244771972294663"><ele>997.0</ele><time>2026-04-12T07:32:40Z</time></trkpt><trkpt lat="43.58923096040147" lon="12.244672518400131"><ele>997.0</ele><time>2026-04-12T07:32:41Z</time></trkpt><trkpt lat="43.58916445098221" lon="12.244576988887435"><ele>997.0</ele><time>2026-04-12T07:32:42Z</time></trkpt><trkpt lat="43.58913644881329" lon="12.244456831810414"><ele>997.0</ele><time>2026-04-12T07:32:43Z</time></trkpt><trkpt lat="43.589120371786315" lon="12.244316694153225"><ele>997.0</ele><time>2026-04-12T07:32:44Z</time></trkpt><trkpt lat="43.58909996935944" lon="12.24420423518043"><ele>997.0</ele><time>2026-04-12T07:32:45Z</time></trkpt><trkpt lat="43.5890719320784" lon="12.244104473453827"><ele>997.0</ele><time>2026-04-12T07:32:46Z</time></trkpt><trkpt lat="43.58904892615831" lon="12.244023225301882"><ele>997.0</ele><time>2026-04-12T07:32:46.999Z</time></trkpt><trkpt lat="43.58897800789786" lon="12.243940318781258"><ele>997.0</ele><time>2026-04-12T07:32:47.999Z</time></trkpt><trkpt lat="43.58889241907768" lon="12.243830024488577"><ele>997.0</ele><time>2026-04-12T07:32:48.999Z</time></trkpt><trkpt lat="43.588783603625195" lon="12.243740650153379"><ele>997.0</ele><time>2026-04-12T07:32:49.999Z</time></trkpt><trkpt lat="43.588638306515776" lon="12.243666554824372"><ele>997.25</ele><time>2026-04-12T07:32:50.999Z</time></trkpt><trkpt lat="43.588492291717635" lon="12.243626726877318"><ele>997.5</ele><time>2026-04-12T07:32:51.999Z</time></trkpt><trkpt lat="43.588361702348585" lon="12.24361913017592"><ele>997.75</ele><time>2026-04-12T07:32:52.999Z</time></trkpt><trkpt lat="43.588259585626616" lon="12.243641577180659"><ele>998.0</ele><time>2026-04-12T07:32:53.999Z</time></trkpt><trkpt lat="43.58816433969661" lon="12.24363618392828"><ele>998.0</ele><time>2026-04-12T07:32:54.999Z</time></trkpt><trkpt lat="43.58809671267301" lon="12.24356427385536"><ele>998.0</ele><time>2026-04-12T07:32:55.999Z</time></trkpt><trkpt lat="43.58803611902541" lon="12.243460679804187"><ele>998.0</ele><time>2026-04-12T07:32:56.999Z</time></trkpt><trkpt lat="43.5879674686269" lon="12.243340904315403"><ele>998.0</ele><time>2026-04-12T07:32:57.999Z</time></trkpt><trkpt lat="43.58788089241907" lon="12.243276017890608"><ele>998.0</ele><time>2026-04-12T07:32:58.999Z</time></trkpt><trkpt lat="43.5877721924273" lon="12.243265044513599"><ele>993.5</ele><time>2026-04-12T07:32:59.999Z</time></trkpt><trkpt lat="43.58762957474853" lon="12.243267040417965"><ele>989.0</ele><time>2026-04-12T07:33:00.999Z</time></trkpt><trkpt lat="43.587477097574684" lon="12.243288080027092"><ele>984.5</ele><time>2026-04-12T07:33:01.999Z</time></trkpt><trkpt lat="43.587356996586024" lon="12.243330147410681"><ele>980.0</ele><time>2026-04-12T07:33:02.999Z</time></trkpt><trkpt lat="43.58724921169299" lon="12.243364970704945"><ele>980.0</ele><time>2026-04-12T07:33:03.999Z</time></trkpt><trkpt lat="43.58713519661057" lon="12.243411321350212"><ele>980.0</ele><time>2026-04-12T07:33:04.999Z</time></trkpt><trkpt lat="43.58703310975342" lon="12.243432539962372"><ele>980.0</ele><time>2026-04-12T07:33:05.999Z</time></trkpt><trkpt lat="43.586957857728486" lon="12.243422978217371"><ele>980.0</ele><time>2026-04-12T07:33:06.999Z</time></trkpt><trkpt lat="43.58689539356796" lon="12.243370590495312"><ele>980.0</ele><time>2026-04-12T07:33:07.999Z</time></trkpt><trkpt lat="43.58684158296432" lon="12.243273130249062"><ele>979.75</ele><time>2026-04-12T07:33:08.999Z</time></trkpt><trkpt lat="43.58680450082569" lon="12.243134134601616"><ele>979.5</ele><time>2026-04-12T07:33:09.999Z</time></trkpt><trkpt lat="43.586788040040666" lon="12.242985956927381"><ele>979.25</ele><time>2026-04-12T07:33:10.999Z</time></trkpt><trkpt lat="43.586764584863516" lon="12.242811708866883"><ele>979.0</ele><time>2026-04-12T07:33:11.999Z</time></trkpt><trkpt lat="43.58671806498298" lon="12.242633527999999"><ele>979.0</ele><time>2026-04-12T07:33:12.999Z</time></trkpt><trkpt lat="43.5866670245839" lon="12.242468525060533"><ele>979.0000000000001</ele><time>2026-04-12T07:33:13.999Z</time></trkpt><trkpt lat="43.58664196362271" lon="12.242317815641874"><ele>979.0000000000001</ele><time>2026-04-12T07:33:14.999Z</time></trkpt><trkpt lat="43.58658958162471" lon="12.242201806977636"><ele>979.0</ele><time>2026-04-12T07:33:15.999Z</time></trkpt><trkpt lat="43.586513695916004" lon="12.242120742580735"><ele>979.0</ele><time>2026-04-12T07:33:16.999Z</time></trkpt><trkpt lat="43.58642188339209" lon="12.242091030132048"><ele>979.2</ele><time>2026-04-12T07:33:17.999Z</time></trkpt><trkpt lat="43.586313826253914" lon="12.24207517942082"><ele>979.4000000000001</ele><time>2026-04-12T07:33:18.999Z</time></trkpt><trkpt lat="43.586192446228445" lon="12.242083238610395"><ele>979.6</ele><time>2026-04-12T07:33:19.999Z</time></trkpt><trkpt lat="43.58611154706177" lon="12.242074968860829"><ele>979.8</ele><time>2026-04-12T07:33:20.999Z</time></trkpt><trkpt lat="43.5860388760434" lon="12.242019233516336"><ele>980.0</ele><time>2026-04-12T07:33:21.999Z</time></trkpt><trkpt lat="43.585972601503535" lon="12.241905743768296"><ele>980.0</ele><time>2026-04-12T07:33:22.999Z</time></trkpt><trkpt lat="43.58589123346671" lon="12.241771425237188"><ele>980.0</ele><time>2026-04-12T07:33:23.999Z</time></trkpt><trkpt lat="43.58577054849047" lon="12.241665641230139"><ele>980.0</ele><time>2026-04-12T07:33:24.999Z</time></trkpt><trkpt lat="43.585628807158386" lon="12.241611228616408"><ele>980.0</ele><time>2026-04-12T07:33:25.999Z</time></trkpt><trkpt lat="43.58548413310336" lon="12.241566379562835"><ele>980.0</ele><time>2026-04-12T07:33:26.999Z</time></trkpt><trkpt lat="43.58535691053731" lon="12.241548816092726"><ele>980.0</ele><time>2026-04-12T07:33:27.999Z</time></trkpt><trkpt lat="43.58525166650538" lon="12.24152613703086"><ele>980.0</ele><time>2026-04-12T07:33:28.999Z</time></trkpt><trkpt lat="43.585151477954454" lon="12.24152074200905"><ele>980.0</ele><time>2026-04-12T07:33:29.999Z</time></trkpt><trkpt lat="43.58504419342639" lon="12.241556488593043"><ele>980.0</ele><time>2026-04-12T07:33:30.999Z</time></trkpt><trkpt lat="43.584934994902504" lon="12.241631528964596"><ele>978.8</ele><time>2026-04-12T07:33:31.999Z</time></trkpt><trkpt lat="43.58482890394869" lon="12.241710260910839"><ele>977.6</ele><time>2026-04-12T07:33:32.999Z</time></trkpt><trkpt lat="43.584747289575" lon="12.241771045144054"><ele>976.4000000000001</ele><time>2026-04-12T07:33:33.999Z</time></trkpt><trkpt lat="43.584681138915975" lon="12.241897725115608"><ele>975.2</ele><time>2026-04-12T07:33:34.999Z</time></trkpt><trkpt lat="43.584622160795774" lon="12.242020561676169"><ele>974.0</ele><time>2026-04-12T07:33:35.999Z</time></trkpt><trkpt lat="43.58458853924815" lon="12.242127602144597"><ele>974.4000000000001</ele><time>2026-04-12T07:33:36.999Z</time></trkpt><trkpt lat="43.58449665926137" lon="12.24222719189381"><ele>974.8000000000001</ele><time>2026-04-12T07:33:38.999Z</time></trkpt><trkpt lat="43.58440749964401" lon="12.24223022986834"><ele>975.1999999999999</ele><time>2026-04-12T07:33:39.999Z</time></trkpt><trkpt lat="43.58432611254025" lon="12.24223328456732"><ele>975.5999999999999</ele><time>2026-04-12T07:33:40.999Z</time></trkpt><trkpt lat="43.584245603046405" lon="12.24220755843098"><ele>976.0</ele><time>2026-04-12T07:33:41.999Z</time></trkpt><trkpt lat="43.58418236678867" lon="12.242121441277995"><ele>976.0</ele><time>2026-04-12T07:33:42.999Z</time></trkpt><trkpt lat="43.58411523556977" lon="12.2420094262614"><ele>976.0</ele><time>2026-04-12T07:33:43.999Z</time></trkpt><trkpt lat="43.584055102996814" lon="12.241865376935715"><ele>976.0</ele><time>2026-04-12T07:33:44.999Z</time></trkpt><trkpt lat="43.58397405442403" lon="12.241747197765388"><ele>976.0</ele><time>2026-04-12T07:33:45.999Z</time></trkpt><trkpt lat="43.583892884831165" lon="12.241641400275181"><ele>976.0</ele><time>2026-04-12T07:33:46.999Z</time></trkpt><trkpt lat="43.58382390697303" lon="12.241533251315577"><ele>975.9999999999999</ele><time>2026-04-12T07:33:47.999Z</time></trkpt><trkpt lat="43.58377008751985" lon="12.241424970735247"><ele>975.9999999999999</ele><time>2026-04-12T07:33:48.999Z</time></trkpt><trkpt lat="43.58373898578063" lon="12.241306338862378"><ele>976.0</ele><time>2026-04-12T07:33:49.999Z</time></trkpt><trkpt lat="43.583729358405556" lon="12.241196750526148"><ele>976.0</ele><time>2026-04-12T07:33:50.998Z</time></trkpt><trkpt lat="43.583730183511705" lon="12.241063706055002"><ele>978.4</ele><time>2026-04-12T07:33:51.998Z</time></trkpt><trkpt lat="43.58373832154289" lon="12.240920570256543"><ele>980.8</ele><time>2026-04-12T07:33:52.998Z</time></trkpt><trkpt lat="43.58375258145568" lon="12.240778343948735"><ele>983.1999999999999</ele><time>2026-04-12T07:33:53.998Z</time></trkpt><trkpt lat="43.58377162852552" lon="12.240621443515971"><ele>985.5999999999999</ele><time>2026-04-12T07:33:54.998Z</time></trkpt><trkpt lat="43.58377569488668" lon="12.24047015551568"><ele>988.0</ele><time>2026-04-12T07:33:55.998Z</time></trkpt><trkpt lat="43.58376838345613" lon="12.240321321543245"><ele>988.0</ele><time>2026-04-12T07:33:56.998Z</time></trkpt><trkpt lat="43.583765144348966" lon="12.24018426396261"><ele>988.0</ele><time>2026-04-12T07:33:57.998Z</time></trkpt><trkpt lat="43.583771994950624" lon="12.240045127103475"><ele>988.0</ele><time>2026-04-12T07:33:58.998Z</time></trkpt><trkpt lat="43.58378150586404" lon="12.23990103046256"><ele>988.0</ele><time>2026-04-12T07:33:59.998Z</time></trkpt><trkpt lat="43.58380603744095" lon="12.239757395394163"><ele>988.0</ele><time>2026-04-12T07:34:00.998Z</time></trkpt><trkpt lat="43.583826310867565" lon="12.239611311565188"><ele>987.5999999999999</ele><time>2026-04-12T07:34:01.998Z</time></trkpt><trkpt lat="43.5838166514117" lon="12.23944124597037"><ele>987.1999999999999</ele><time>2026-04-12T07:34:02.998Z</time></trkpt><trkpt lat="43.5838245199183" lon="12.239314611465124"><ele>986.8</ele><time>2026-04-12T07:34:03.998Z</time></trkpt><trkpt lat="43.58380160015671" lon="12.23920307147939"><ele>986.4</ele><time>2026-04-12T07:34:05Z</time></trkpt><trkpt lat="43.58376417629616" lon="12.239095400422334"><ele>986.0</ele><time>2026-04-12T07:34:06Z</time></trkpt><trkpt lat="43.583699244968756" lon="12.238995292837215"><ele>979.75</ele><time>2026-04-12T07:34:07Z</time></trkpt><trkpt lat="43.58360573444515" lon="12.238889373021529"><ele>973.5</ele><time>2026-04-12T07:34:08Z</time></trkpt><trkpt lat="43.58351320045061" lon="12.23878914215177"><ele>967.25</ele><time>2026-04-12T07:34:09Z</time></trkpt><trkpt lat="43.58342458671747" lon="12.238690461252446"><ele>961.0</ele><time>2026-04-12T07:34:10Z</time></trkpt><trkpt lat="43.58334270115232" lon="12.238617044088327"><ele>960.9999999999999</ele><time>2026-04-12T07:34:11Z</time></trkpt><trkpt lat="43.583267849287424" lon="12.23856077442316"><ele>961.0</ele><time>2026-04-12T07:34:12Z</time></trkpt><trkpt lat="43.583216563643305" lon="12.238431873712397"><ele>961.0</ele><time>2026-04-12T07:34:14Z</time></trkpt><trkpt lat="43.58324896506111" lon="12.238350359311111"><ele>961.0</ele><time>2026-04-12T07:34:16Z</time></trkpt><trkpt lat="43.58332170379057" lon="12.238349887773996"><ele>960.9999999999999</ele><time>2026-04-12T07:34:19Z</time></trkpt><trkpt lat="43.58340699452907" lon="12.238294886010802"><ele>961.0</ele><time>2026-04-12T07:34:34Z</time></trkpt><trkpt lat="43.58353010012426" lon="12.238203360675715"><ele>960.9999999999999</ele><time>2026-04-12T07:34:36Z</time></trkpt><trkpt lat="43.583595614988845" lon="12.238157724520734"><ele>961.0</ele><time>2026-04-12T07:34:37Z</time></trkpt><trkpt lat="43.58366835578188" lon="12.238135307049145"><ele>961.0</ele><time>2026-04-12T07:34:38Z</time></trkpt><trkpt lat="43.583757335483284" lon="12.238124293819146"><ele>961.0</ele><time>2026-04-12T07:34:39Z</time></trkpt><trkpt lat="43.58384752950682" lon="12.238109504826141"><ele>960.9999999999999</ele><time>2026-04-12T07:34:40Z</time></trkpt><trkpt lat="43.58392265116779" lon="12.238082207160273"><ele>961.0</ele><time>2026-04-12T07:34:41Z</time></trkpt><trkpt lat="43.584011217647266" lon="12.238056913869388"><ele>957.4</ele><time>2026-04-12T07:34:42Z</time></trkpt><trkpt lat="43.584115407656626" lon="12.238035136398967"><ele>953.8</ele><time>2026-04-12T07:34:43Z</time></trkpt><trkpt lat="43.58419572818572" lon="12.23801658489374"><ele>950.1999999999999</ele><time>2026-04-12T07:34:44Z</time></trkpt><trkpt lat="43.584276919350096" lon="12.238007555223337"><ele>946.5999999999999</ele><time>2026-04-12T07:34:45Z</time></trkpt><trkpt lat="43.58437916600409" lon="12.237996210760949"><ele>943.0</ele><time>2026-04-12T07:34:46Z</time></trkpt><trkpt lat="43.584480188364765" lon="12.238011341410457"><ele>944.4</ele><time>2026-04-12T07:34:47Z</time></trkpt><trkpt lat="43.584565597923955" lon="12.238052896133548"><ele>945.8</ele><time>2026-04-12T07:34:48Z</time></trkpt><trkpt lat="43.58463821443543" lon="12.238074043741829"><ele>947.2</ele><time>2026-04-12T07:34:48.999Z</time></trkpt><trkpt lat="43.58473216930246" lon="12.238110530984036"><ele>948.6</ele><time>2026-04-12T07:34:50.999Z</time></trkpt><trkpt lat="43.58484987978359" lon="12.238155247654566"><ele>950.0</ele><time>2026-04-12T07:34:52.999Z</time></trkpt><trkpt lat="43.5849375603958" lon="12.238194869399521"><ele>954.6</ele><time>2026-04-12T07:34:53.999Z</time></trkpt><trkpt lat="43.58502607336491" lon="12.238193856758063"><ele>959.2</ele><time>2026-04-12T07:34:54.999Z</time></trkpt><trkpt lat="43.58514267800151" lon="12.238176556414105"><ele>963.8</ele><time>2026-04-12T07:34:55.999Z</time></trkpt><trkpt lat="43.58522561978528" lon="12.238175363021696"><ele>968.4</ele><time>2026-04-12T07:34:56.999Z</time></trkpt><trkpt lat="43.585328726320824" lon="12.238158431708584"><ele>973.0</ele><time>2026-04-12T07:34:57.999Z</time></trkpt><trkpt lat="43.58543769819147" lon="12.238147602627823"><ele>974.2</ele><time>2026-04-12T07:34:58.999Z</time></trkpt><trkpt lat="43.58554317813258" lon="12.238134927388444"><ele>975.4</ele><time>2026-04-12T07:34:59.999Z</time></trkpt><trkpt lat="43.58565530711875" lon="12.238152434721306"><ele>976.6000000000001</ele><time>2026-04-12T07:35:00.999Z</time></trkpt><trkpt lat="43.5857550413017" lon="12.238166078998582"><ele>977.8000000000001</ele><time>2026-04-12T07:35:01.999Z</time></trkpt><trkpt lat="43.58585680146039" lon="12.238190491655446"><ele>979.0</ele><time>2026-04-12T07:35:02.999Z</time></trkpt><trkpt lat="43.585948667711634" lon="12.238212827901686"><ele>978.9999999999999</ele><time>2026-04-12T07:35:03.999Z</time></trkpt><trkpt lat="43.58601819472261" lon="12.23821845063397"><ele>979.0</ele><time>2026-04-12T07:35:04.999Z</time></trkpt><trkpt lat="43.58608699445772" lon="12.238196389860422"><ele>979.0</ele><time>2026-04-12T07:35:05.999Z</time></trkpt><trkpt lat="43.58615027322129" lon="12.23813810637483"><ele>979.0</ele><time>2026-04-12T07:35:06.999Z</time></trkpt><trkpt lat="43.586215365443856" lon="12.238092098670776"><ele>978.9999999999999</ele><time>2026-04-12T07:35:07.999Z</time></trkpt><trkpt lat="43.586290475843" lon="12.23805953658528"><ele>979.0</ele><time>2026-04-12T07:35:08.999Z</time></trkpt><trkpt lat="43.58638380105347" lon="12.23806525368184"><ele>973.0</ele><time>2026-04-12T07:35:09.999Z</time></trkpt><trkpt lat="43.58647763740468" lon="12.238060256378288"><ele>967.0000000000001</ele><time>2026-04-12T07:35:10.999Z</time></trkpt><trkpt lat="43.58657687801136" lon="12.238049165132246"><ele>961.0000000000001</ele><time>2026-04-12T07:35:11.999Z</time></trkpt><trkpt lat="43.58666540620067" lon="12.238065168933145"><ele>955.0</ele><time>2026-04-12T07:35:12.999Z</time></trkpt><trkpt lat="43.58675675308289" lon="12.238079854633197"><ele>949.0</ele><time>2026-04-12T07:35:13.999Z</time></trkpt><trkpt lat="43.586848780895245" lon="12.238109023126505"><ele>951.4000000000001</ele><time>2026-04-12T07:35:14.999Z</time></trkpt><trkpt lat="43.58694135561179" lon="12.238142569249192"><ele>953.8000000000001</ele><time>2026-04-12T07:35:15.999Z</time></trkpt><trkpt lat="43.58704065566358" lon="12.238169842176022"><ele>956.1999999999999</ele><time>2026-04-12T07:35:16.999Z</time></trkpt><trkpt lat="43.587129474455125" lon="12.238169662259889"><ele>958.5999999999999</ele><time>2026-04-12T07:35:17.999Z</time></trkpt><trkpt lat="43.58723041028003" lon="12.238182850189698"><ele>961.0</ele><time>2026-04-12T07:35:18.999Z</time></trkpt><trkpt lat="43.58733187052745" lon="12.238200927952304"><ele>960.9999999999999</ele><time>2026-04-12T07:35:19.999Z</time></trkpt><trkpt lat="43.58740303418173" lon="12.238229975663957"><ele>961.0</ele><time>2026-04-12T07:35:20.999Z</time></trkpt><trkpt lat="43.58745577521287" lon="12.23830772823509"><ele>961.0</ele><time>2026-04-12T07:35:21.999Z</time></trkpt><trkpt lat="43.5875047635895" lon="12.238407632781506"><ele>961.0</ele><time>2026-04-12T07:35:22.999Z</time></trkpt><trkpt lat="43.58756008756589" lon="12.238495497495316"><ele>960.9999999999999</ele><time>2026-04-12T07:35:23.999Z</time></trkpt><trkpt lat="43.58760261813715" lon="12.238563621748005"><ele>961.0</ele><time>2026-04-12T07:35:24.999Z</time></trkpt><trkpt lat="43.58765507966176" lon="12.23862903763224"><ele>960.9999999999999</ele><time>2026-04-12T07:35:25.999Z</time></trkpt><trkpt lat="43.58771368519124" lon="12.238677764826543"><ele>961.0</ele><time>2026-04-12T07:35:26.999Z</time></trkpt><trkpt lat="43.58778932392324" lon="12.238742346024912"><ele>961.0</ele><time>2026-04-12T07:35:28.999Z</time></trkpt><trkpt lat="43.58784198439413" lon="12.238793197362668"><ele>961.0</ele><time>2026-04-12T07:35:29.999Z</time></trkpt><trkpt lat="43.587911323164434" lon="12.238828630961054"><ele>960.9999999999999</ele><time>2026-04-12T07:35:30.999Z</time></trkpt><trkpt lat="43.587993715006235" lon="12.238855263495001"><ele>961.0</ele><time>2026-04-12T07:35:31.999Z</time></trkpt><trkpt lat="43.58808045692552" lon="12.238899354220354"><ele>961.8</ele><time>2026-04-12T07:35:32.999Z</time></trkpt><trkpt lat="43.58816693541849" lon="12.238931818012237"><ele>962.5999999999999</ele><time>2026-04-12T07:35:33.999Z</time></trkpt><trkpt lat="43.58826858974521" lon="12.238963992996176"><ele>963.4</ele><time>2026-04-12T07:35:34.999Z</time></trkpt><trkpt lat="43.588380160005606" lon="12.2390214348828"><ele>964.2</ele><time>2026-04-12T07:35:35.999Z</time></trkpt><trkpt lat="43.588469755140686" lon="12.239092830917514"><ele>965.0</ele><time>2026-04-12T07:35:36.999Z</time></trkpt><trkpt lat="43.588558978862416" lon="12.23914649739638"><ele>965.0000000000001</ele><time>2026-04-12T07:35:37.999Z</time></trkpt><trkpt lat="43.58863961491995" lon="12.23916857340718"><ele>965.0</ele><time>2026-04-12T07:35:38.999Z</time></trkpt><trkpt lat="43.58871250258086" lon="12.239194262914443"><ele>965.0</ele><time>2026-04-12T07:35:39.999Z</time></trkpt><trkpt lat="43.58878950099991" lon="12.23922192936725"><ele>965.0</ele><time>2026-04-12T07:35:40.999Z</time></trkpt><trkpt lat="43.588863814454854" lon="12.239246150824966"><ele>965.0000000000001</ele><time>2026-04-12T07:35:41.999Z</time></trkpt><trkpt lat="43.58896852539549" lon="12.239245606433098"><ele>965.0</ele><time>2026-04-12T07:35:43.999Z</time></trkpt><trkpt lat="43.58905060813635" lon="12.23923673430422"><ele>964.4285714285713</ele><time>2026-04-12T07:35:45.999Z</time></trkpt><trkpt lat="43.58911970606648" lon="12.239216622146188"><ele>963.8571428571429</ele><time>2026-04-12T07:35:47.999Z</time></trkpt><trkpt lat="43.58918256296357" lon="12.239192431485183"><ele>963.2857142857142</ele><time>2026-04-12T07:35:49.999Z</time></trkpt><trkpt lat="43.589245553031304" lon="12.239137750024051"><ele>962.7142857142857</ele><time>2026-04-12T07:35:51.999Z</time></trkpt><trkpt lat="43.589303408698534" lon="12.239098046368987"><ele>962.1428571428571</ele><time>2026-04-12T07:35:53.998Z</time></trkpt><trkpt lat="43.58937455767903" lon="12.239042073128482"><ele>961.5714285714286</ele><time>2026-04-12T07:35:57.998Z</time></trkpt><trkpt lat="43.58943933832794" lon="12.239003479842252"><ele>961.0</ele><time>2026-04-12T07:36:00.998Z</time></trkpt><trkpt lat="43.589501146597115" lon="12.238972453481324"><ele>957.0</ele><time>2026-04-12T07:36:02.998Z</time></trkpt><trkpt lat="43.5895775391225" lon="12.238908553118302"><ele>952.9999999999999</ele><time>2026-04-12T07:36:06.998Z</time></trkpt><trkpt lat="43.58966246808647" lon="12.238838368442133"><ele>948.9999999999999</ele><time>2026-04-12T07:36:09.998Z</time></trkpt><trkpt lat="43.58973000009181" lon="12.23879332275047"><ele>945.0</ele><time>2026-04-12T07:36:12Z</time></trkpt><trkpt lat="43.589877097862924" lon="12.238707027088166"><ele>941.0</ele><time>2026-04-12T07:36:14Z</time></trkpt><trkpt lat="43.58995608020525" lon="12.23865951336572"><ele>941.0000000000001</ele><time>2026-04-12T07:36:15Z</time></trkpt><trkpt lat="43.590025985246115" lon="12.238624750554653"><ele>941.0</ele><time>2026-04-12T07:36:16Z</time></trkpt><trkpt lat="43.590107244905546" lon="12.238576161280822"><ele>941.0</ele><time>2026-04-12T07:36:17Z</time></trkpt><trkpt lat="43.59019085204214" lon="12.238526655112747"><ele>941.0</ele><time>2026-04-12T07:36:18Z</time></trkpt><trkpt lat="43.59025489726086" lon="12.238487833513052"><ele>941.0000000000001</ele><time>2026-04-12T07:36:19Z</time></trkpt><trkpt lat="43.59031644656886" lon="12.238466492704426"><ele>941.0</ele><time>2026-04-12T07:36:20Z</time></trkpt><trkpt lat="43.59043556528823" lon="12.238382110001902"><ele>940.8</ele><time>2026-04-12T07:36:22Z</time></trkpt><trkpt lat="43.59048264231186" lon="12.238287371966672"><ele>940.5999999999999</ele><time>2026-04-12T07:36:23Z</time></trkpt><trkpt lat="43.59053974792123" lon="12.238175439423618"><ele>940.4</ele><time>2026-04-12T07:36:24Z</time></trkpt><trkpt lat="43.59058203088178" lon="12.238070018131612"><ele>940.2</ele><time>2026-04-12T07:36:25Z</time></trkpt><trkpt lat="43.59061970332813" lon="12.237940787290041"><ele>940.0</ele><time>2026-04-12T07:36:26Z</time></trkpt><trkpt lat="43.59064009326782" lon="12.237826871592809"><ele>939.9999999999999</ele><time>2026-04-12T07:36:27Z</time></trkpt><trkpt lat="43.59067117724432" lon="12.237671686146227"><ele>940.0</ele><time>2026-04-12T07:36:29Z</time></trkpt><trkpt lat="43.59074643738266" lon="12.23756247246679"><ele>940.0</ele><time>2026-04-12T07:36:31Z</time></trkpt><trkpt lat="43.59080865178054" lon="12.2375429606563"><ele>940.0</ele><time>2026-04-12T07:36:32Z</time></trkpt><trkpt lat="43.59088867460643" lon="12.237538858012663"><ele>939.9999999999999</ele><time>2026-04-12T07:36:33Z</time></trkpt><trkpt lat="43.590966082045746" lon="12.237529404797343"><ele>940.0</ele><time>2026-04-12T07:36:34Z</time></trkpt><trkpt lat="43.59105448005314" lon="12.237511816279957"><ele>939.9999999999999</ele><time>2026-04-12T07:36:35Z</time></trkpt><trkpt lat="43.59113107615845" lon="12.237483469993776"><ele>940.0</ele><time>2026-04-12T07:36:36Z</time></trkpt><trkpt lat="43.59120028172258" lon="12.237448070807687"><ele>940.0</ele><time>2026-04-12T07:36:37Z</time></trkpt><trkpt lat="43.591267159376685" lon="12.237389409426681"><ele>940.0</ele><time>2026-04-12T07:36:38Z</time></trkpt><trkpt lat="43.59132032238917" lon="12.237302315884188"><ele>939.9999999999999</ele><time>2026-04-12T07:36:39Z</time></trkpt><trkpt lat="43.5913730139431" lon="12.237209464142238"><ele>940.0</ele><time>2026-04-12T07:36:40Z</time></trkpt><trkpt lat="43.59143340856552" lon="12.237098660179202"><ele>940.4</ele><time>2026-04-12T07:36:41Z</time></trkpt><trkpt lat="43.591504892246796" lon="12.236968614751545"><ele>940.8</ele><time>2026-04-12T07:36:42Z</time></trkpt><trkpt lat="43.591557041209306" lon="12.236853489786196"><ele>941.2</ele><time>2026-04-12T07:36:43Z</time></trkpt><trkpt lat="43.59158253752691" lon="12.236735859813173"><ele>941.6</ele><time>2026-04-12T07:36:44Z</time></trkpt><trkpt lat="43.59157765114148" lon="12.236584959513626"><ele>942.0</ele><time>2026-04-12T07:36:45Z</time></trkpt><trkpt lat="43.59154883064845" lon="12.23644906295203"><ele>942.0</ele><time>2026-04-12T07:36:46Z</time></trkpt><trkpt lat="43.591502578007805" lon="12.236318527352127"><ele>942.0</ele><time>2026-04-12T07:36:47Z</time></trkpt><trkpt lat="43.5914668182046" lon="12.236214739119786"><ele>942.0</ele><time>2026-04-12T07:36:48Z</time></trkpt><trkpt lat="43.59145959637726" lon="12.23612272477977"><ele>942.0</ele><time>2026-04-12T07:36:49Z</time></trkpt><trkpt lat="43.59146420905447" lon="12.236036011973843"><ele>942.0</ele><time>2026-04-12T07:36:50Z</time></trkpt><trkpt lat="43.59148257857389" lon="12.235909419625502"><ele>942.0</ele><time>2026-04-12T07:36:52Z</time></trkpt><trkpt lat="43.591498725804186" lon="12.23578752385964"><ele>942.0</ele><time>2026-04-12T07:36:54Z</time></trkpt><trkpt lat="43.59150696381151" lon="12.235701306748892"><ele>942.0</ele><time>2026-04-12T07:36:55Z</time></trkpt><trkpt lat="43.59151456315081" lon="12.235534307360714"><ele>942.0</ele><time>2026-04-12T07:36:56.999Z</time></trkpt><trkpt lat="43.591515758534946" lon="12.235428520481348"><ele>942.0</ele><time>2026-04-12T07:36:57.999Z</time></trkpt><trkpt lat="43.59149038237972" lon="12.235274865830208"><ele>942.0</ele><time>2026-04-12T07:36:59.999Z</time></trkpt><trkpt lat="43.59141355017874" lon="12.23517744640613"><ele>942.0</ele><time>2026-04-12T07:37:01.999Z</time></trkpt><trkpt lat="43.59135559935565" lon="12.235114491945623"><ele>942.0</ele><time>2026-04-12T07:37:02.999Z</time></trkpt><trkpt lat="43.59129373189093" lon="12.235049811555832"><ele>942.0</ele><time>2026-04-12T07:37:03.999Z</time></trkpt><trkpt lat="43.591231570468445" lon="12.234977067533665"><ele>942.0</ele><time>2026-04-12T07:37:04.999Z</time></trkpt><trkpt lat="43.591169683964736" lon="12.234888513868691"><ele>942.0</ele><time>2026-04-12T07:37:05.999Z</time></trkpt><trkpt lat="43.591123477131696" lon="12.234812618160014"><ele>942.0</ele><time>2026-04-12T07:37:06.999Z</time></trkpt><trkpt lat="43.5910217386802" lon="12.234722710766356"><ele>942.0</ele><time>2026-04-12T07:37:08.999Z</time></trkpt><trkpt lat="43.590921835204085" lon="12.234672762744532"><ele>942.0</ele><time>2026-04-12T07:37:10.999Z</time></trkpt><trkpt lat="43.59083417099959" lon="12.234644549422542"><ele>942.0</ele><time>2026-04-12T07:37:12.999Z</time></trkpt><trkpt lat="43.590736154059776" lon="12.23462850013844"><ele>942.0</ele><time>2026-04-12T07:37:14.999Z</time></trkpt><trkpt lat="43.59067833925554" lon="12.234587898958457"><ele>942.0</ele><time>2026-04-12T07:37:15.999Z</time></trkpt><trkpt lat="43.59060983271892" lon="12.234533689936635"><ele>942.0</ele><time>2026-04-12T07:37:16.999Z</time></trkpt><trkpt lat="43.59054312038451" lon="12.234480871661601"><ele>942.0</ele><time>2026-04-12T07:37:17.999Z</time></trkpt><trkpt lat="43.59046480887609" lon="12.234434214389395"><ele>942.0</ele><time>2026-04-12T07:37:18.999Z</time></trkpt><trkpt lat="43.590397185296034" lon="12.234399872704055"><ele>942.0</ele><time>2026-04-12T07:37:19.999Z</time></trkpt><trkpt lat="43.59031637908486" lon="12.234384735600617"><ele>942.0</ele><time>2026-04-12T07:37:20.999Z</time></trkpt><trkpt lat="43.59024200048925" lon="12.234356102481218"><ele>942.0</ele><time>2026-04-12T07:37:21.999Z</time></trkpt><trkpt lat="43.59016856167594" lon="12.234308108810511"><ele>942.0</ele><time>2026-04-12T07:37:22.999Z</time></trkpt><trkpt lat="43.59010532726837" lon="12.234256396081863"><ele>940.5</ele><time>2026-04-12T07:37:23.999Z</time></trkpt><trkpt lat="43.590026347619734" lon="12.234221652544424"><ele>939.0</ele><time>2026-04-12T07:37:24.999Z</time></trkpt><trkpt lat="43.5899455483351" lon="12.234195035592842"><ele>937.5</ele><time>2026-04-12T07:37:25.999Z</time></trkpt><trkpt lat="43.589887963712286" lon="12.234128415378411"><ele>936.0</ele><time>2026-04-12T07:37:26.999Z</time></trkpt><trkpt lat="43.58985279029708" lon="12.234026908853096"><ele>934.5</ele><time>2026-04-12T07:37:27.999Z</time></trkpt><trkpt lat="43.58982307690834" lon="12.23388662745403"><ele>933.0</ele><time>2026-04-12T07:37:28.999Z</time></trkpt><trkpt lat="43.589777667643155" lon="12.2337587277313"><ele>933.0</ele><time>2026-04-12T07:37:29.999Z</time></trkpt><trkpt lat="43.58972716082584" lon="12.233659000066586"><ele>933.0</ele><time>2026-04-12T07:37:30.999Z</time></trkpt><trkpt lat="43.589672479231815" lon="12.233582066472792"><ele>933.0</ele><time>2026-04-12T07:37:31.999Z</time></trkpt><trkpt lat="43.589606209169006" lon="12.23350521279435"><ele>933.0</ele><time>2026-04-12T07:37:32.999Z</time></trkpt><trkpt lat="43.58953932326018" lon="12.23344428719614"><ele>933.0</ele><time>2026-04-12T07:37:33.999Z</time></trkpt><trkpt lat="43.5894708003752" lon="12.233390058031416"><ele>933.0</ele><time>2026-04-12T07:37:34.999Z</time></trkpt><trkpt lat="43.589409516654456" lon="12.233361383031262"><ele>927.1666666666666</ele><time>2026-04-12T07:37:35.999Z</time></trkpt><trkpt lat="43.58930897102831" lon="12.233329950318812"><ele>921.3333333333333</ele><time>2026-04-12T07:37:37.999Z</time></trkpt><trkpt lat="43.5892434258044" lon="12.233288799701677"><ele>915.5</ele><time>2026-04-12T07:37:40.999Z</time></trkpt><trkpt lat="43.589183838895124" lon="12.233253677248804"><ele>909.6666666666666</ele><time>2026-04-12T07:38:01.998Z</time></trkpt><trkpt lat="43.589195768580524" lon="12.233349847246245"><ele>903.8333333333333</ele><time>2026-04-12T07:38:05.998Z</time></trkpt><trkpt lat="43.58925043599523" lon="12.233410275649083"><ele>898.0</ele><time>2026-04-12T07:38:07.998Z</time></trkpt><trkpt lat="43.58931800202713" lon="12.233441309253397"><ele>897.9999999999999</ele><time>2026-04-12T07:38:09.998Z</time></trkpt><trkpt lat="43.589405837188735" lon="12.233493185285726"><ele>898.0</ele><time>2026-04-12T07:38:10.998Z</time></trkpt><trkpt lat="43.589480702410725" lon="12.23354853966637"><ele>898.0</ele><time>2026-04-12T07:38:11.998Z</time></trkpt><trkpt lat="43.58955277635915" lon="12.233665687365201"><ele>898.0</ele><time>2026-04-12T07:38:13.998Z</time></trkpt><trkpt lat="43.58957722575019" lon="12.233756167509751"><ele>897.9999999999999</ele><time>2026-04-12T07:38:14.998Z</time></trkpt><trkpt lat="43.58957860518815" lon="12.23385434682715"><ele>898.0</ele><time>2026-04-12T07:38:15.998Z</time></trkpt><trkpt lat="43.58959228602695" lon="12.233944741813877"><ele>900.4</ele><time>2026-04-12T07:38:17Z</time></trkpt><trkpt lat="43.58963802284144" lon="12.234112338137267"><ele>902.8</ele><time>2026-04-12T07:38:19Z</time></trkpt><trkpt lat="43.58965613519907" lon="12.234256811343592"><ele>905.2</ele><time>2026-04-12T07:38:21Z</time></trkpt><trkpt lat="43.589661882771466" lon="12.234347007510442"><ele>907.6</ele><time>2026-04-12T07:38:23Z</time></trkpt><trkpt lat="43.58965872561377" lon="12.234478339168911"><ele>910.0</ele><time>2026-04-12T07:38:25Z</time></trkpt><trkpt lat="43.589618047332735" lon="12.234609248867345"><ele>910.0</ele><time>2026-04-12T07:38:27Z</time></trkpt><trkpt lat="43.58957002753597" lon="12.234697768641034"><ele>910.0</ele><time>2026-04-12T07:38:29Z</time></trkpt><trkpt lat="43.58955829180317" lon="12.234793932662482"><ele>910.0</ele><time>2026-04-12T07:38:33Z</time></trkpt><trkpt lat="43.58953450115677" lon="12.2348951792635"><ele>910.0</ele><time>2026-04-12T07:38:36Z</time></trkpt><trkpt lat="43.589532616252875" lon="12.234982806884094"><ele>910.0</ele><time>2026-04-12T07:38:39Z</time></trkpt><trkpt lat="43.58951368630127" lon="12.235078481819071"><ele>910.0</ele><time>2026-04-12T07:38:41Z</time></trkpt><trkpt lat="43.58949473013741" lon="12.23518647227039"><ele>910.0</ele><time>2026-04-12T07:38:44Z</time></trkpt><trkpt lat="43.589474923053686" lon="12.235289578828466"><ele>905.8571428571429</ele><time>2026-04-12T07:38:48Z</time></trkpt><trkpt lat="43.589418618571756" lon="12.23534375091659"><ele>901.7142857142858</ele><time>2026-04-12T07:38:53Z</time></trkpt><trkpt lat="43.58934628627223" lon="12.235335597782804"><ele>897.5714285714286</ele><time>2026-04-12T07:38:57Z</time></trkpt><trkpt lat="43.589289300796814" lon="12.235285767741805"><ele>893.4285714285714</ele><time>2026-04-12T07:39:00Z</time></trkpt><trkpt lat="43.589226758310176" lon="12.235257590146334"><ele>889.2857142857143</ele><time>2026-04-12T07:39:02.999Z</time></trkpt><trkpt lat="43.589160330148424" lon="12.235239876486123"><ele>885.1428571428571</ele><time>2026-04-12T07:39:06.999Z</time></trkpt><trkpt lat="43.58909749339713" lon="12.235254964158802"><ele>881.0</ele><time>2026-04-12T07:39:12.999Z</time></trkpt><trkpt lat="43.58902953014475" lon="12.235235453082629"><ele>881.0000000000001</ele><time>2026-04-12T07:39:16.999Z</time></trkpt><trkpt lat="43.58894334188922" lon="12.235214007810262"><ele>881.0</ele><time>2026-04-12T07:39:18.999Z</time></trkpt><trkpt lat="43.58885461541274" lon="12.235151599139567"><ele>881.0</ele><time>2026-04-12T07:39:20.999Z</time></trkpt><trkpt lat="43.588783467977834" lon="12.235098534144175"><ele>881.0</ele><time>2026-04-12T07:39:22.999Z</time></trkpt><trkpt lat="43.588718277581144" lon="12.235056695704024"><ele>881.0000000000001</ele><time>2026-04-12T07:39:24.999Z</time></trkpt><trkpt lat="43.588656458362536" lon="12.235039539024566"><ele>881.0</ele><time>2026-04-12T07:39:26.999Z</time></trkpt><trkpt lat="43.58861836513587" lon="12.234949297852896"><ele>880.1666666666667</ele><time>2026-04-12T07:39:29.999Z</time></trkpt><trkpt lat="43.58861348744634" lon="12.234853257966657"><ele>879.3333333333334</ele><time>2026-04-12T07:39:35.999Z</time></trkpt><trkpt lat="43.58860689238322" lon="12.234765808410602"><ele>878.5</ele><time>2026-04-12T07:39:38.999Z</time></trkpt><trkpt lat="43.58858223462915" lon="12.234680499315848"><ele>877.6666666666667</ele><time>2026-04-12T07:39:40.999Z</time></trkpt><trkpt lat="43.58855227079257" lon="12.234512045466747"><ele>876.8333333333334</ele><time>2026-04-12T07:39:42.999Z</time></trkpt><trkpt lat="43.58853396548541" lon="12.234361892436928"><ele>876.0</ele><time>2026-04-12T07:39:44.999Z</time></trkpt><trkpt lat="43.588510725036905" lon="12.234240474740401"><ele>875.8333333333334</ele><time>2026-04-12T07:39:46.999Z</time></trkpt><trkpt lat="43.58846066872508" lon="12.234109544391819"><ele>875.6666666666667</ele><time>2026-04-12T07:39:49.999Z</time></trkpt><trkpt lat="43.588429132568635" lon="12.234031601336737"><ele>875.5</ele><time>2026-04-12T07:39:51.999Z</time></trkpt><trkpt lat="43.58839286945718" lon="12.233927348589646"><ele>875.3333333333334</ele><time>2026-04-12T07:40:11.998Z</time></trkpt><trkpt lat="43.5883446025494" lon="12.233852635957033"><ele>875.1666666666667</ele><time>2026-04-12T07:40:12.998Z</time></trkpt><trkpt lat="43.58829880491518" lon="12.233783771185783"><ele>875.0</ele><time>2026-04-12T07:40:13.998Z</time></trkpt><trkpt lat="43.58820514114882" lon="12.233697347465146"><ele>875.0</ele><time>2026-04-12T07:40:15.998Z</time></trkpt><trkpt lat="43.58812066517088" lon="12.233627659491436"><ele>875.0</ele><time>2026-04-12T07:40:17.998Z</time></trkpt><trkpt lat="43.58803648643125" lon="12.233560496160495"><ele>875.0</ele><time>2026-04-12T07:40:19.998Z</time></trkpt><trkpt lat="43.58795468783462" lon="12.233501825372773"><ele>875.0</ele><time>2026-04-12T07:40:21.998Z</time></trkpt><trkpt lat="43.58786385001383" lon="12.23348072744894"><ele>875.0</ele><time>2026-04-12T07:40:24Z</time></trkpt><trkpt lat="43.58777477152054" lon="12.233504543367578"><ele>870.8333333333334</ele><time>2026-04-12T07:40:26Z</time></trkpt><trkpt lat="43.587699924901756" lon="12.233512399565912"><ele>866.6666666666667</ele><time>2026-04-12T07:40:29Z</time></trkpt><trkpt lat="43.58763650800632" lon="12.233488952530086"><ele>862.5</ele><time>2026-04-12T07:40:31Z</time></trkpt><trkpt lat="43.58757095376811" lon="12.233478452474674"><ele>858.3333333333333</ele><time>2026-04-12T07:40:35Z</time></trkpt><trkpt lat="43.587489748330285" lon="12.233488461854007"><ele>854.1666666666666</ele><time>2026-04-12T07:40:37Z</time></trkpt><trkpt lat="43.58740877161649" lon="12.233475500645776"><ele>850.0</ele><time>2026-04-12T07:40:39Z</time></trkpt><trkpt lat="43.58732628889609" lon="12.233403165193424"><ele>849.9999999999999</ele><time>2026-04-12T07:40:42Z</time></trkpt><trkpt lat="43.58725641134361" lon="12.233348476537627"><ele>850.0</ele><time>2026-04-12T07:40:44Z</time></trkpt><trkpt lat="43.58719791092747" lon="12.233297928226607"><ele>850.0</ele><time>2026-04-12T07:40:46Z</time></trkpt><trkpt lat="43.58713355902813" lon="12.233268276900507"><ele>850.0</ele><time>2026-04-12T07:40:48Z</time></trkpt><trkpt lat="43.58705937846626" lon="12.23324076796678"><ele>849.9999999999999</ele><time>2026-04-12T07:41:00Z</time></trkpt><trkpt lat="43.58698334270896" lon="12.233209901441006"><ele>850.0</ele><time>2026-04-12T07:41:04Z</time></trkpt><trkpt lat="43.58690378725646" lon="12.233218904572055"><ele>849.1666666666666</ele><time>2026-04-12T07:41:29.999Z</time></trkpt><trkpt lat="43.58683480501255" lon="12.233189683563161"><ele>848.3333333333333</ele><time>2026-04-12T07:41:32.999Z</time></trkpt><trkpt lat="43.58678893059195" lon="12.233128276068587"><ele>847.5</ele><time>2026-04-12T07:41:36.999Z</time></trkpt><trkpt lat="43.58671008695183" lon="12.233070331154229"><ele>846.6666666666667</ele><time>2026-04-12T07:41:38.999Z</time></trkpt><trkpt lat="43.5865914955468" lon="12.23303131328239"><ele>845.8333333333334</ele><time>2026-04-12T07:41:40.999Z</time></trkpt><trkpt lat="43.586512282364204" lon="12.232979814324931"><ele>845.0</ele><time>2026-04-12T07:41:42.999Z</time></trkpt><trkpt lat="43.58644750403073" lon="12.232914475986423"><ele>843.6</ele><time>2026-04-12T07:41:44.999Z</time></trkpt><trkpt lat="43.58640643309172" lon="12.232842510080811"><ele>842.2</ele><time>2026-04-12T07:41:46.999Z</time></trkpt><trkpt lat="43.58635193184172" lon="12.232766028816316"><ele>840.8</ele><time>2026-04-12T07:41:48.999Z</time></trkpt><trkpt lat="43.586281580583304" lon="12.232680047491634"><ele>839.4</ele><time>2026-04-12T07:41:50.999Z</time></trkpt><trkpt lat="43.5862090270201" lon="12.232579241601519"><ele>838.0</ele><time>2026-04-12T07:41:52.999Z</time></trkpt><trkpt lat="43.586100825999644" lon="12.232517484793982"><ele>838.0</ele><time>2026-04-12T07:41:55.999Z</time></trkpt><trkpt lat="43.58603203436975" lon="12.232446760891248"><ele>838.0</ele><time>2026-04-12T07:41:57.999Z</time></trkpt><trkpt lat="43.58598450782547" lon="12.232387099856702"><ele>838.0</ele><time>2026-04-12T07:50:14.999Z</time></trkpt><trkpt lat="43.58592197583711" lon="12.232342074743146"><ele>838.0</ele><time>2026-04-12T07:50:16.999Z</time></trkpt><trkpt lat="43.58579330025136" lon="12.232239927396833"><ele>838.0</ele><time>2026-04-12T07:50:18.999Z</time></trkpt><trkpt lat="43.58572639974971" lon="12.232174908317637"><ele>834.4</ele><time>2026-04-12T07:50:20.999Z</time></trkpt><trkpt lat="43.5856402644483" lon="12.232083456604627"><ele>830.8</ele><time>2026-04-12T07:50:22.999Z</time></trkpt><trkpt lat="43.58557913571793" lon="12.232027111611828"><ele>827.2</ele><time>2026-04-12T07:50:23.999Z</time></trkpt><trkpt lat="43.58552920442992" lon="12.231970832775884"><ele>823.6</ele><time>2026-04-12T07:50:24.999Z</time></trkpt><trkpt lat="43.58546027017174" lon="12.23184247480682"><ele>820.0</ele><time>2026-04-12T07:50:26.999Z</time></trkpt><trkpt lat="43.58538430868518" lon="12.231705529928874"><ele>819.7142857142858</ele><time>2026-04-12T07:50:28.999Z</time></trkpt><trkpt lat="43.58534024616481" lon="12.23163609169785"><ele>819.4285714285713</ele><time>2026-04-12T07:50:29.999Z</time></trkpt><trkpt lat="43.585291688582686" lon="12.231569551560879"><ele>819.1428571428571</ele><time>2026-04-12T07:50:30.999Z</time></trkpt><trkpt lat="43.58523453692475" lon="12.23151795509863"><ele>818.8571428571429</ele><time>2026-04-12T07:50:31.999Z</time></trkpt><trkpt lat="43.58517105572403" lon="12.231478026685954"><ele>818.5714285714287</ele><time>2026-04-12T07:50:32.999Z</time></trkpt><trkpt lat="43.58510774951257" lon="12.231453257243361"><ele>818.2857142857142</ele><time>2026-04-12T07:50:33.999Z</time></trkpt><trkpt lat="43.58502981009485" lon="12.231450823275178"><ele>818.0</ele><time>2026-04-12T07:50:34.998Z</time></trkpt><trkpt lat="43.584939507479476" lon="12.23145267963236"><ele>818.0</ele><time>2026-04-12T07:50:35.998Z</time></trkpt><trkpt lat="43.58487212568882" lon="12.23147006684423"><ele>818.0</ele><time>2026-04-12T07:50:36.998Z</time></trkpt><trkpt lat="43.584808571796486" lon="12.231471334506663"><ele>818.0</ele><time>2026-04-12T07:50:37.998Z</time></trkpt><trkpt lat="43.58473827172721" lon="12.231458210599634"><ele>818.0</ele><time>2026-04-12T07:50:38.998Z</time></trkpt><trkpt lat="43.58466081700093" lon="12.231463163869751"><ele>818.0</ele><time>2026-04-12T07:50:39.998Z</time></trkpt><trkpt lat="43.58459089600828" lon="12.23147088478297"><ele>818.0</ele><time>2026-04-12T07:50:40.998Z</time></trkpt><trkpt lat="43.5845313343374" lon="12.231509762513124"><ele>818.0</ele><time>2026-04-12T07:50:41.998Z</time></trkpt><trkpt lat="43.58443522280878" lon="12.23157113396848"><ele>819.8</ele><time>2026-04-12T07:50:43.998Z</time></trkpt><trkpt lat="43.5843617196732" lon="12.231582094568408"><ele>821.5999999999999</ele><time>2026-04-12T07:50:45.998Z</time></trkpt><trkpt lat="43.584252076668605" lon="12.231577767960786"><ele>823.4000000000001</ele><time>2026-04-12T07:50:47.998Z</time></trkpt><trkpt lat="43.58418666346842" lon="12.231581432759626"><ele>825.2</ele><time>2026-04-12T07:50:48.998Z</time></trkpt><trkpt lat="43.58408649064549" lon="12.231555307985658"><ele>827.0</ele><time>2026-04-12T07:50:50.998Z</time></trkpt><trkpt lat="43.58397758865097" lon="12.231521955973523"><ele>827.0</ele><time>2026-04-12T07:50:53Z</time></trkpt><trkpt lat="43.58385918964366" lon="12.231523173023627"><ele>827.0</ele><time>2026-04-12T07:50:55Z</time></trkpt><trkpt lat="43.58373602738174" lon="12.231531040773167"><ele>827.0</ele><time>2026-04-12T07:50:57Z</time></trkpt><trkpt lat="43.583671587549084" lon="12.231518415444135"><ele>827.0</ele><time>2026-04-12T07:50:58Z</time></trkpt><trkpt lat="43.58359964181385" lon="12.231522007562212"><ele>827.0</ele><time>2026-04-12T07:50:59Z</time></trkpt><trkpt lat="43.583520426120614" lon="12.231534000875815"><ele>827.1666666666667</ele><time>2026-04-12T07:51:00Z</time></trkpt><trkpt lat="43.58343279581355" lon="12.231527231473017"><ele>827.3333333333334</ele><time>2026-04-12T07:51:01Z</time></trkpt><trkpt lat="43.58335353081514" lon="12.231490761465276"><ele>827.5</ele><time>2026-04-12T07:51:02Z</time></trkpt><trkpt lat="43.583292173186855" lon="12.231464611259094"><ele>827.6666666666667</ele><time>2026-04-12T07:51:03Z</time></trkpt><trkpt lat="43.58318216172217" lon="12.231449858111722"><ele>827.8333333333334</ele><time>2026-04-12T07:51:05Z</time></trkpt><trkpt lat="43.58311838146657" lon="12.231464707693066"><ele>828.0</ele><time>2026-04-12T07:51:06Z</time></trkpt><trkpt lat="43.582999550923304" lon="12.231419114592258"><ele>827.2</ele><time>2026-04-12T07:51:08Z</time></trkpt><trkpt lat="43.58288189874243" lon="12.231327781165827"><ele>826.4</ele><time>2026-04-12T07:51:10Z</time></trkpt><trkpt lat="43.582820585073506" lon="12.231269734009329"><ele>825.6</ele><time>2026-04-12T07:51:11Z</time></trkpt><trkpt lat="43.5827667669067" lon="12.231167962602893"><ele>824.8000000000001</ele><time>2026-04-12T07:51:13Z</time></trkpt><trkpt lat="43.582769691527176" lon="12.231041829425955"><ele>824.0</ele><time>2026-04-12T07:51:15Z</time></trkpt><trkpt lat="43.58279295571019" lon="12.230918001331121"><ele>823.8333333333334</ele><time>2026-04-12T07:51:17Z</time></trkpt><trkpt lat="43.58280753112625" lon="12.230808952113627"><ele>823.6666666666667</ele><time>2026-04-12T07:51:19Z</time></trkpt><trkpt lat="43.58284673528223" lon="12.230645570814307"><ele>823.5</ele><time>2026-04-12T07:51:21Z</time></trkpt><trkpt lat="43.58287665687016" lon="12.230562838279472"><ele>823.3333333333333</ele><time>2026-04-12T07:51:22Z</time></trkpt><trkpt lat="43.58290532112171" lon="12.230482351828423"><ele>823.1666666666666</ele><time>2026-04-12T07:51:23Z</time></trkpt><trkpt lat="43.582918455625254" lon="12.230382081818357"><ele>823.0</ele><time>2026-04-12T07:51:24Z</time></trkpt><trkpt lat="43.58294095325634" lon="12.23027460111292"><ele>820.8</ele><time>2026-04-12T07:51:25Z</time></trkpt><trkpt lat="43.58297741310818" lon="12.230097889293011"><ele>818.5999999999999</ele><time>2026-04-12T07:51:27Z</time></trkpt><trkpt lat="43.583003123561554" lon="12.229959282146602"><ele>816.4000000000001</ele><time>2026-04-12T07:51:28Z</time></trkpt><trkpt lat="43.583031393355924" lon="12.22984931124694"><ele>814.2</ele><time>2026-04-12T07:51:29Z</time></trkpt><trkpt lat="43.58307585482624" lon="12.229748431382111"><ele>812.0</ele><time>2026-04-12T07:51:30Z</time></trkpt><trkpt lat="43.58310667776882" lon="12.229658206722922"><ele>810.1666666666667</ele><time>2026-04-12T07:51:31Z</time></trkpt><trkpt lat="43.583132472373656" lon="12.229561863489563"><ele>808.3333333333334</ele><time>2026-04-12T07:51:32Z</time></trkpt><trkpt lat="43.5831655852149" lon="12.229458823469713"><ele>806.5</ele><time>2026-04-12T07:51:33Z</time></trkpt><trkpt lat="43.58321187110204" lon="12.229379010745886"><ele>804.6666666666667</ele><time>2026-04-12T07:51:34Z</time></trkpt><trkpt lat="43.583270981748555" lon="12.229304269022096"><ele>802.8333333333334</ele><time>2026-04-12T07:51:35Z</time></trkpt><trkpt lat="43.583314277704574" lon="12.229230938722958"><ele>801.0</ele><time>2026-04-12T07:51:36Z</time></trkpt><trkpt lat="43.5833548961529" lon="12.229128502116415"><ele>801.0</ele><time>2026-04-12T07:51:37Z</time></trkpt><trkpt lat="43.58339127375579" lon="12.22904985605115"><ele>801.0</ele><time>2026-04-12T07:51:38Z</time></trkpt><trkpt lat="43.5834324984742" lon="12.228966779333014"><ele>801.0</ele><time>2026-04-12T07:51:38.999Z</time></trkpt><trkpt lat="43.583465487582956" lon="12.228883546446562"><ele>801.0</ele><time>2026-04-12T07:51:39.999Z</time></trkpt><trkpt lat="43.583527368446546" lon="12.228735091398969"><ele>801.0</ele><time>2026-04-12T07:51:41.999Z</time></trkpt><trkpt lat="43.58355191177667" lon="12.22865194150238"><ele>801.0</ele><time>2026-04-12T07:51:42.999Z</time></trkpt><trkpt lat="43.58354779360259" lon="12.228559625921974"><ele>797.8</ele><time>2026-04-12T07:51:43.999Z</time></trkpt><trkpt lat="43.583514354518975" lon="12.228459240192347"><ele>794.5999999999999</ele><time>2026-04-12T07:51:44.999Z</time></trkpt><trkpt lat="43.583472680779046" lon="12.228383331648235"><ele>791.4</ele><time>2026-04-12T07:51:45.999Z</time></trkpt><trkpt lat="43.58333603010072" lon="12.228334493831301"><ele>788.2</ele><time>2026-04-12T07:51:47.999Z</time></trkpt><trkpt lat="43.58323818001295" lon="12.22832072388372"><ele>785.0</ele><time>2026-04-12T07:51:48.999Z</time></trkpt><trkpt lat="43.583142635770265" lon="12.228313509187412"><ele>785.0000000000001</ele><time>2026-04-12T07:51:49.999Z</time></trkpt><trkpt lat="43.583056032523736" lon="12.228281496912254"><ele>785.0</ele><time>2026-04-12T07:51:50.999Z</time></trkpt><trkpt lat="43.582971675882106" lon="12.228264316721406"><ele>785.0</ele><time>2026-04-12T07:51:51.999Z</time></trkpt><trkpt lat="43.582891390931195" lon="12.228275113614504"><ele>785.0</ele><time>2026-04-12T07:51:52.999Z</time></trkpt><trkpt lat="43.582818357662035" lon="12.228296938954925"><ele>785.0000000000001</ele><time>2026-04-12T07:51:53.999Z</time></trkpt><trkpt lat="43.58274611620142" lon="12.228292563856082"><ele>785.0</ele><time>2026-04-12T07:51:54.999Z</time></trkpt><trkpt lat="43.58262684344606" lon="12.228237945679325"><ele>785.0000000000001</ele><time>2026-04-12T07:51:56.999Z</time></trkpt><trkpt lat="43.58256859406515" lon="12.228177394170315"><ele>785.0</ele><time>2026-04-12T07:51:57.999Z</time></trkpt><trkpt lat="43.58250783839455" lon="12.22811347413341"><ele>785.0</ele><time>2026-04-12T07:51:58.999Z</time></trkpt><trkpt lat="43.58241199140685" lon="12.228044886035855"><ele>785.0</ele><time>2026-04-12T07:51:59.999Z</time></trkpt><trkpt lat="43.582344233922974" lon="12.22799014682282"><ele>785.0000000000001</ele><time>2026-04-12T07:52:00.999Z</time></trkpt><trkpt lat="43.58226880648309" lon="12.227928623489676"><ele>785.0</ele><time>2026-04-12T07:52:01.999Z</time></trkpt><trkpt lat="43.5821809400781" lon="12.227871096707679"><ele>781.2</ele><time>2026-04-12T07:52:02.999Z</time></trkpt><trkpt lat="43.58209793114444" lon="12.227821998085679"><ele>777.4</ele><time>2026-04-12T07:52:03.999Z</time></trkpt><trkpt lat="43.58202022082074" lon="12.227792447981232"><ele>773.5999999999999</ele><time>2026-04-12T07:52:04.999Z</time></trkpt><trkpt lat="43.58195517438795" lon="12.22774789892615"><ele>769.8</ele><time>2026-04-12T07:52:05.999Z</time></trkpt><trkpt lat="43.58190788757146" lon="12.227666929440238"><ele>766.0</ele><time>2026-04-12T07:52:06.999Z</time></trkpt><trkpt lat="43.581857631614476" lon="12.227491931531203"><ele>765.6666666666667</ele><time>2026-04-12T07:52:08.999Z</time></trkpt><trkpt lat="43.58181165670478" lon="12.227411813151479"><ele>765.3333333333334</ele><time>2026-04-12T07:52:09.999Z</time></trkpt><trkpt lat="43.58175994829541" lon="12.227339712826582"><ele>765.0</ele><time>2026-04-12T07:52:10.999Z</time></trkpt><trkpt lat="43.581699939250846" lon="12.227259567695096"><ele>764.6666666666666</ele><time>2026-04-12T07:52:11.999Z</time></trkpt><trkpt lat="43.58163088836628" lon="12.227158232435778"><ele>764.3333333333333</ele><time>2026-04-12T07:52:12.999Z</time></trkpt><trkpt lat="43.58157208080866" lon="12.227061247875008"><ele>764.0</ele><time>2026-04-12T07:52:13.999Z</time></trkpt><trkpt lat="43.58150886275833" lon="12.226989847689193"><ele>760.4000000000001</ele><time>2026-04-12T07:52:14.999Z</time></trkpt><trkpt lat="43.58143241036341" lon="12.22695677132245"><ele>756.8</ele><time>2026-04-12T07:52:15.999Z</time></trkpt><trkpt lat="43.58133203744989" lon="12.227034217662682"><ele>753.2</ele><time>2026-04-12T07:52:17.999Z</time></trkpt><trkpt lat="43.581245967766044" lon="12.227140774957885"><ele>749.5999999999999</ele><time>2026-04-12T07:52:19.999Z</time></trkpt><trkpt lat="43.581189786896054" lon="12.227073375283661"><ele>746.0</ele><time>2026-04-12T07:52:21.999Z</time></trkpt><trkpt lat="43.5811905317675" lon="12.22691282119294"><ele>743.5999999999999</ele><time>2026-04-12T07:52:23.999Z</time></trkpt><trkpt lat="43.581167260481664" lon="12.226813049240368"><ele>741.2</ele><time>2026-04-12T07:52:24.999Z</time></trkpt><trkpt lat="43.581117644726085" lon="12.2266861679835"><ele>738.8</ele><time>2026-04-12T07:52:25.999Z</time></trkpt><trkpt lat="43.581051156697484" lon="12.22658791736282"><ele>736.4000000000001</ele><time>2026-04-12T07:52:26.999Z</time></trkpt><trkpt lat="43.58098158537679" lon="12.226525006569773"><ele>734.0</ele><time>2026-04-12T07:52:27.999Z</time></trkpt><trkpt lat="43.58088099393547" lon="12.22646043181464"><ele>734.0</ele><time>2026-04-12T07:52:28.999Z</time></trkpt><trkpt lat="43.58078551612019" lon="12.226406457823007"><ele>734.0</ele><time>2026-04-12T07:52:29.999Z</time></trkpt><trkpt lat="43.580717938917964" lon="12.226346048863586"><ele>734.0</ele><time>2026-04-12T07:52:30.999Z</time></trkpt><trkpt lat="43.5806433546185" lon="12.226251510946444"><ele>734.0</ele><time>2026-04-12T07:52:31.999Z</time></trkpt><trkpt lat="43.58059158846264" lon="12.226122241569174"><ele>734.0</ele><time>2026-04-12T07:52:32.999Z</time></trkpt><trkpt lat="43.58055182867954" lon="12.225991837940828"><ele>734.0</ele><time>2026-04-12T07:52:33.999Z</time></trkpt><trkpt lat="43.58050299655249" lon="12.22587792488795"><ele>734.0</ele><time>2026-04-12T07:52:34.999Z</time></trkpt><trkpt lat="43.580450629677145" lon="12.225791605006451"><ele>734.0</ele><time>2026-04-12T07:52:35.999Z</time></trkpt><trkpt lat="43.58039274009773" lon="12.225731500226432"><ele>734.0</ele><time>2026-04-12T07:52:36.999Z</time></trkpt><trkpt lat="43.58032853190279" lon="12.22570744210026"><ele>734.0</ele><time>2026-04-12T07:52:37.999Z</time></trkpt><trkpt lat="43.5802486607182" lon="12.225702400334997"><ele>734.0</ele><time>2026-04-12T07:52:38.999Z</time></trkpt><trkpt lat="43.580134375750774" lon="12.225705169541596"><ele>736.4000000000001</ele><time>2026-04-12T07:52:39.999Z</time></trkpt><trkpt lat="43.58003745529002" lon="12.225691735544787"><ele>738.8</ele><time>2026-04-12T07:52:40.998Z</time></trkpt><trkpt lat="43.5799484473952" lon="12.225681768655047"><ele>741.2</ele><time>2026-04-12T07:52:41.998Z</time></trkpt><trkpt lat="43.579861971016264" lon="12.225686416959917"><ele>743.5999999999999</ele><time>2026-04-12T07:52:42.998Z</time></trkpt><trkpt lat="43.57976104410256" lon="12.225698636357656"><ele>746.0</ele><time>2026-04-12T07:52:43.998Z</time></trkpt><trkpt lat="43.57967022782684" lon="12.225688960193935"><ele>746.0</ele><time>2026-04-12T07:52:44.998Z</time></trkpt><trkpt lat="43.57958606306244" lon="12.225649403894318"><ele>746.0</ele><time>2026-04-12T07:52:45.998Z</time></trkpt><trkpt lat="43.57952246193159" lon="12.22566138182057"><ele>746.0</ele><time>2026-04-12T07:52:46.998Z</time></trkpt><trkpt lat="43.57944446070267" lon="12.225790069444928"><ele>746.0</ele><time>2026-04-12T07:52:48.998Z</time></trkpt><trkpt lat="43.57941832317513" lon="12.225872904998063"><ele>746.0</ele><time>2026-04-12T07:52:49.998Z</time></trkpt><trkpt lat="43.579325162065985" lon="12.225905678592186"><ele>746.0</ele><time>2026-04-12T07:52:52.998Z</time></trkpt><trkpt lat="43.57925760728425" lon="12.22575710191708"><ele>745.6666666666666</ele><time>2026-04-12T07:52:54.998Z</time></trkpt><trkpt lat="43.57920336222759" lon="12.225680418811402"><ele>745.3333333333333</ele><time>2026-04-12T07:52:55.998Z</time></trkpt><trkpt lat="43.5791460856519" lon="12.22559601365212"><ele>745.0</ele><time>2026-04-12T07:52:56.998Z</time></trkpt><trkpt lat="43.57909720531312" lon="12.225516899573382"><ele>744.6666666666666</ele><time>2026-04-12T07:52:57.998Z</time></trkpt><trkpt lat="43.57907734872167" lon="12.225422010784007"><ele>744.3333333333334</ele><time>2026-04-12T07:52:59Z</time></trkpt><trkpt lat="43.57901427219467" lon="12.225318271713432"><ele>744.0</ele><time>2026-04-12T07:53:00Z</time></trkpt><trkpt lat="43.57897372293633" lon="12.225251724312441"><ele>740.5</ele><time>2026-04-12T07:53:01Z</time></trkpt><trkpt lat="43.578905306392315" lon="12.22517396955123"><ele>737.0</ele><time>2026-04-12T07:53:02Z</time></trkpt><trkpt lat="43.578852153870585" lon="12.225092676378583"><ele>733.5</ele><time>2026-04-12T07:53:03Z</time></trkpt><trkpt lat="43.578811209634324" lon="12.225023936443709"><ele>730.0</ele><time>2026-04-12T07:53:04Z</time></trkpt><trkpt lat="43.578713468731294" lon="12.224909371135102"><ele>726.5</ele><time>2026-04-12T07:53:06Z</time></trkpt><trkpt lat="43.57862950729985" lon="12.224902891088217"><ele>723.0</ele><time>2026-04-12T07:53:07Z</time></trkpt><trkpt lat="43.578514920025775" lon="12.224940538356142"><ele>723.0</ele><time>2026-04-12T07:53:09Z</time></trkpt><trkpt lat="43.57839873482241" lon="12.224927406588206"><ele>723.0</ele><time>2026-04-12T07:53:11Z</time></trkpt><trkpt lat="43.57825972211788" lon="12.224957292079317"><ele>723.0</ele><time>2026-04-12T07:53:13Z</time></trkpt><trkpt lat="43.57817446467679" lon="12.224957481959976"><ele>723.0</ele><time>2026-04-12T07:53:14Z</time></trkpt><trkpt lat="43.57808325288188" lon="12.224954943648482"><ele>723.0</ele><time>2026-04-12T07:53:15Z</time></trkpt><trkpt lat="43.57801536409849" lon="12.224945939534717"><ele>723.0</ele><time>2026-04-12T07:53:16Z</time></trkpt><trkpt lat="43.5779262913073" lon="12.224954023607397"><ele>723.0</ele><time>2026-04-12T07:53:17Z</time></trkpt><trkpt lat="43.577863679627896" lon="12.22499573727753"><ele>723.0</ele><time>2026-04-12T07:53:18Z</time></trkpt><trkpt lat="43.57777023672951" lon="12.22504935575405"><ele>723.0</ele><time>2026-04-12T07:53:19Z</time></trkpt><trkpt lat="43.57769977715406" lon="12.22507176840156"><ele>723.0</ele><time>2026-04-12T07:53:20Z</time></trkpt><trkpt lat="43.57761697027025" lon="12.22504821413787"><ele>723.0</ele><time>2026-04-12T07:53:21Z</time></trkpt><trkpt lat="43.57754335589759" lon="12.224991968831837"><ele>721.2</ele><time>2026-04-12T07:53:22Z</time></trkpt><trkpt lat="43.5774519075093" lon="12.22489454066654"><ele>719.4</ele><time>2026-04-12T07:53:23Z</time></trkpt><trkpt lat="43.57737609792488" lon="12.22484469867825"><ele>717.6</ele><time>2026-04-12T07:53:24Z</time></trkpt><trkpt lat="43.57724764875501" lon="12.224820382539376"><ele>715.8000000000001</ele><time>2026-04-12T07:53:26Z</time></trkpt><trkpt lat="43.57713425513445" lon="12.224797666464172"><ele>714.0</ele><time>2026-04-12T07:53:28Z</time></trkpt><trkpt lat="43.577017697334256" lon="12.224767056593679"><ele>710.3333333333334</ele><time>2026-04-12T07:53:30Z</time></trkpt><trkpt lat="43.576941347114065" lon="12.224742602669505"><ele>706.6666666666666</ele><time>2026-04-12T07:53:31Z</time></trkpt><trkpt lat="43.57687378426477" lon="12.224712626743955"><ele>703.0</ele><time>2026-04-12T07:53:32Z</time></trkpt><trkpt lat="43.57676044433435" lon="12.224594268208335"><ele>699.3333333333333</ele><time>2026-04-12T07:53:34Z</time></trkpt><trkpt lat="43.57669432045683" lon="12.224543250132543"><ele>695.6666666666666</ele><time>2026-04-12T07:53:35Z</time></trkpt><trkpt lat="43.57663967438896" lon="12.224492573125803"><ele>692.0</ele><time>2026-04-12T07:53:36Z</time></trkpt><trkpt lat="43.576606535714774" lon="12.22441180949784"><ele>692.0</ele><time>2026-04-12T07:53:37Z</time></trkpt><trkpt lat="43.576618967633536" lon="12.224254732916613"><ele>692.0</ele><time>2026-04-12T07:53:39Z</time></trkpt><trkpt lat="43.57662762222669" lon="12.224091622975585"><ele>692.0</ele><time>2026-04-12T07:53:41Z</time></trkpt><trkpt lat="43.5765923759158" lon="12.223996963862424"><ele>692.0</ele><time>2026-04-12T07:53:42Z</time></trkpt><trkpt lat="43.57654224296517" lon="12.223903557292788"><ele>692.0</ele><time>2026-04-12T07:53:43Z</time></trkpt><trkpt lat="43.576477396007654" lon="12.22383363178451"><ele>689.6666666666666</ele><time>2026-04-12T07:53:44Z</time></trkpt><trkpt lat="43.57642432014736" lon="12.223765839307665"><ele>687.3333333333333</ele><time>2026-04-12T07:53:45Z</time></trkpt><trkpt lat="43.57637285758717" lon="12.223692924347752"><ele>685.0</ele><time>2026-04-12T07:53:46Z</time></trkpt><trkpt lat="43.57632582812118" lon="12.223627557133133"><ele>682.6666666666666</ele><time>2026-04-12T07:53:46.999Z</time></trkpt><trkpt lat="43.576265813310094" lon="12.223549940327098"><ele>680.3333333333334</ele><time>2026-04-12T07:53:47.999Z</time></trkpt><trkpt lat="43.57621220579708" lon="12.223482554258425"><ele>678.0</ele><time>2026-04-12T07:53:48.999Z</time></trkpt><trkpt lat="43.5761089358762" lon="12.223415651552429"><ele>678.0</ele><time>2026-04-12T07:53:50.999Z</time></trkpt><trkpt lat="43.576041464205815" lon="12.223388173392896"><ele>678.0</ele><time>2026-04-12T07:53:51.999Z</time></trkpt><trkpt lat="43.57593240094972" lon="12.223372580344751"><ele>678.0</ele><time>2026-04-12T07:53:53.999Z</time></trkpt><trkpt lat="43.57585222534999" lon="12.223373591267094"><ele>678.0</ele><time>2026-04-12T07:53:54.999Z</time></trkpt><trkpt lat="43.57573407591972" lon="12.223311212350152"><ele>678.0</ele><time>2026-04-12T07:53:56.999Z</time></trkpt><trkpt lat="43.57567659848156" lon="12.223255053484163"><ele>678.0</ele><time>2026-04-12T07:53:57.999Z</time></trkpt><trkpt lat="43.57563328476804" lon="12.223185028671326"><ele>678.0</ele><time>2026-04-12T07:53:58.999Z</time></trkpt><trkpt lat="43.57558099459088" lon="12.223118018530448"><ele>678.0</ele><time>2026-04-12T07:53:59.999Z</time></trkpt><trkpt lat="43.57552662582462" lon="12.223074124485084"><ele>678.0</ele><time>2026-04-12T07:54:00.999Z</time></trkpt><trkpt lat="43.575412259975195" lon="12.223056335908373"><ele>678.0</ele><time>2026-04-12T07:54:02.999Z</time></trkpt><trkpt lat="43.575256733560586" lon="12.223090971462877"><ele>670.25</ele><time>2026-04-12T07:54:04.999Z</time></trkpt><trkpt lat="43.57513227620021" lon="12.223064056410992"><ele>662.5</ele><time>2026-04-12T07:54:05.999Z</time></trkpt><trkpt lat="43.575010653171994" lon="12.22300447170953"><ele>654.75</ele><time>2026-04-12T07:54:06.999Z</time></trkpt><trkpt lat="43.57490563644302" lon="12.222961327511177"><ele>647.0</ele><time>2026-04-12T07:54:07.999Z</time></trkpt><trkpt lat="43.574814102117315" lon="12.222928713457883"><ele>647.0</ele><time>2026-04-12T07:54:08.999Z</time></trkpt><trkpt lat="43.57472556592399" lon="12.222899479448246"><ele>647.0</ele><time>2026-04-12T07:54:09.999Z</time></trkpt><trkpt lat="43.574641861075634" lon="12.222851027928192"><ele>647.0</ele><time>2026-04-12T07:54:10.999Z</time></trkpt><trkpt lat="43.57455440040874" lon="12.222797119561935"><ele>647.0</ele><time>2026-04-12T07:54:11.999Z</time></trkpt><trkpt lat="43.57446752878381" lon="12.222754495079387"><ele>647.0</ele><time>2026-04-12T07:54:12.999Z</time></trkpt><trkpt lat="43.57437618562706" lon="12.222720056516959"><ele>648.0</ele><time>2026-04-12T07:54:13.999Z</time></trkpt><trkpt lat="43.574291716495985" lon="12.222708645714242"><ele>649.0</ele><time>2026-04-12T07:54:14.999Z</time></trkpt><trkpt lat="43.57420633807472" lon="12.2226808514919"><ele>650.0</ele><time>2026-04-12T07:54:15.999Z</time></trkpt><trkpt lat="43.574132930848926" lon="12.22262129300883"><ele>651.0</ele><time>2026-04-12T07:54:16.999Z</time></trkpt><trkpt lat="43.57408857265835" lon="12.22253229267329"><ele>652.0</ele><time>2026-04-12T07:54:17.999Z</time></trkpt><trkpt lat="43.57406703102507" lon="12.222445052492409"><ele>653.0</ele><time>2026-04-12T07:54:18.999Z</time></trkpt><trkpt lat="43.5740761301357" lon="12.222325718187369"><ele>648.5</ele><time>2026-04-12T07:54:20.999Z</time></trkpt><trkpt lat="43.57399015323391" lon="12.222222682035891"><ele>644.0</ele><time>2026-04-12T07:54:22.999Z</time></trkpt><trkpt lat="43.57386772849192" lon="12.222158658437921"><ele>639.5</ele><time>2026-04-12T07:54:24.999Z</time></trkpt><trkpt lat="43.57377386831684" lon="12.222081316003084"><ele>635.0</ele><time>2026-04-12T07:54:25.999Z</time></trkpt><trkpt lat="43.573688833152616" lon="12.221971721118784"><ele>636.8</ele><time>2026-04-12T07:54:26.999Z</time></trkpt><trkpt lat="43.573622155393515" lon="12.221875162786077"><ele>638.6</ele><time>2026-04-12T07:54:27.999Z</time></trkpt><trkpt lat="43.57355434135592" lon="12.221826547592107"><ele>640.4000000000001</ele><time>2026-04-12T07:54:28.999Z</time></trkpt><trkpt lat="43.57346189449902" lon="12.22179608643896"><ele>642.2</ele><time>2026-04-12T07:54:29.999Z</time></trkpt><trkpt lat="43.57336919882151" lon="12.221762098583506"><ele>644.0</ele><time>2026-04-12T07:54:30.999Z</time></trkpt><trkpt lat="43.573281796155136" lon="12.221723780433742"><ele>644.0</ele><time>2026-04-12T07:54:31.999Z</time></trkpt><trkpt lat="43.57320071385311" lon="12.221674761982893"><ele>644.0</ele><time>2026-04-12T07:54:32.999Z</time></trkpt><trkpt lat="43.573111809693614" lon="12.221645488045965"><ele>644.0</ele><time>2026-04-12T07:54:33.999Z</time></trkpt><trkpt lat="43.5730308426323" lon="12.22161731506769"><ele>644.0</ele><time>2026-04-12T07:54:34.999Z</time></trkpt><trkpt lat="43.57296189382455" lon="12.221564775442856"><ele>644.0</ele><time>2026-04-12T07:54:35.999Z</time></trkpt><trkpt lat="43.57287044069744" lon="12.221468538870514"><ele>640.8000000000001</ele><time>2026-04-12T07:54:37.999Z</time></trkpt><trkpt lat="43.57274348329646" lon="12.221382297659463"><ele>637.6</ele><time>2026-04-12T07:54:39.999Z</time></trkpt><trkpt lat="43.57266945310531" lon="12.221314148693256"><ele>634.4</ele><time>2026-04-12T07:54:40.999Z</time></trkpt><trkpt lat="43.572589861907126" lon="12.221236755331473"><ele>631.2</ele><time>2026-04-12T07:54:41.999Z</time></trkpt><trkpt lat="43.572519814494214" lon="12.221188021249795"><ele>628.0</ele><time>2026-04-12T07:54:42.999Z</time></trkpt><trkpt lat="43.572447846811485" lon="12.221151528348853"><ele>628.0</ele><time>2026-04-12T07:54:43.999Z</time></trkpt><trkpt lat="43.572383148330935" lon="12.221133953886639"><ele>628.0</ele><time>2026-04-12T07:54:44.999Z</time></trkpt><trkpt lat="43.5722768433061" lon="12.221072253003761"><ele>628.0</ele><time>2026-04-12T07:54:46.999Z</time></trkpt><trkpt lat="43.572169819740374" lon="12.220982558020102"><ele>628.0</ele><time>2026-04-12T07:54:48.998Z</time></trkpt><trkpt lat="43.57211296736425" lon="12.220926784346917"><ele>628.0</ele><time>2026-04-12T07:54:49.998Z</time></trkpt><trkpt lat="43.572060125369696" lon="12.22087465445429"><ele>628.0</ele><time>2026-04-12T07:54:50.998Z</time></trkpt><trkpt lat="43.57195056773801" lon="12.220766686451364"><ele>628.3333333333334</ele><time>2026-04-12T07:54:52.998Z</time></trkpt><trkpt lat="43.57189251117896" lon="12.220710616739664"><ele>628.6666666666667</ele><time>2026-04-12T07:54:53.998Z</time></trkpt><trkpt lat="43.57182838553344" lon="12.220655899214567"><ele>629.0</ele><time>2026-04-12T07:54:54.998Z</time></trkpt><trkpt lat="43.57170569797419" lon="12.220572069587881"><ele>629.3333333333334</ele><time>2026-04-12T07:54:56.998Z</time></trkpt><trkpt lat="43.57162997429529" lon="12.220539871244688"><ele>629.6666666666666</ele><time>2026-04-12T07:54:57.998Z</time></trkpt><trkpt lat="43.57156342496533" lon="12.220514768388524"><ele>630.0</ele><time>2026-04-12T07:54:58.998Z</time></trkpt><trkpt lat="43.57146893905612" lon="12.220511925687818"><ele>626.5</ele><time>2026-04-12T07:55:00.998Z</time></trkpt><trkpt lat="43.571409757102124" lon="12.22056324042518"><ele>623.0</ele><time>2026-04-12T07:55:02.998Z</time></trkpt><trkpt lat="43.57136406719865" lon="12.22062580327364"><ele>619.5</ele><time>2026-04-12T07:55:05Z</time></trkpt><trkpt lat="43.571288106618944" lon="12.220614625770752"><ele>616.0</ele><time>2026-04-12T07:55:07Z</time></trkpt><trkpt lat="43.57122823525024" lon="12.220642329494405"><ele>612.5</ele><time>2026-04-12T07:55:18Z</time></trkpt><trkpt lat="43.57124990947289" lon="12.220527477510943"><ele>609.0</ele><time>2026-04-12T07:55:28Z</time></trkpt><trkpt lat="43.57133039918131" lon="12.22043329794884"><ele>609.0</ele><time>2026-04-12T07:55:30Z</time></trkpt><trkpt lat="43.57140505482599" lon="12.220380420284544"><ele>609.0</ele><time>2026-04-12T07:55:32Z</time></trkpt><trkpt lat="43.571500934729016" lon="12.220332708326255"><ele>609.0</ele><time>2026-04-12T07:55:34Z</time></trkpt><trkpt lat="43.57161213037159" lon="12.220301531370676"><ele>609.0</ele><time>2026-04-12T07:55:36Z</time></trkpt><trkpt lat="43.571712308618935" lon="12.2202368588484"><ele>609.0</ele><time>2026-04-12T07:55:38Z</time></trkpt><trkpt lat="43.57179486744048" lon="12.22020670400592"><ele>609.0</ele><time>2026-04-12T07:55:40Z</time></trkpt><trkpt lat="43.57185525437111" lon="12.220167783355723"><ele>609.0</ele><time>2026-04-12T07:55:41Z</time></trkpt><trkpt lat="43.57196451004462" lon="12.22016138583669"><ele>609.0</ele><time>2026-04-12T07:55:43Z</time></trkpt><trkpt lat="43.57204189708971" lon="12.220132511276866"><ele>609.0</ele><time>2026-04-12T07:55:45Z</time></trkpt><trkpt lat="43.57210711501572" lon="12.220032692566456"><ele>609.0</ele><time>2026-04-12T07:55:47Z</time></trkpt><trkpt lat="43.5722027381488" lon="12.219934505982543"><ele>609.4</ele><time>2026-04-12T07:55:48.999Z</time></trkpt><trkpt lat="43.57228421470516" lon="12.219867373783936"><ele>609.8</ele><time>2026-04-12T07:55:50.999Z</time></trkpt><trkpt lat="43.572368764936684" lon="12.219825818280533"><ele>610.2</ele><time>2026-04-12T07:55:53.999Z</time></trkpt><trkpt lat="43.57241607743581" lon="12.219738487663152"><ele>610.6</ele><time>2026-04-12T07:55:56.999Z</time></trkpt><trkpt lat="43.572346365188494" lon="12.219627640396654"><ele>611.0</ele><time>2026-04-12T07:55:59.999Z</time></trkpt><trkpt lat="43.572312672219766" lon="12.219517574180843"><ele>611.5</ele><time>2026-04-12T07:56:01.999Z</time></trkpt><trkpt lat="43.5722909419315" lon="12.21939916431068"><ele>612.0</ele><time>2026-04-12T07:56:03.999Z</time></trkpt><trkpt lat="43.572284086768875" lon="12.219288510933675"><ele>612.5</ele><time>2026-04-12T07:56:05.999Z</time></trkpt><trkpt lat="43.57221257690173" lon="12.21920813495508"><ele>613.0</ele><time>2026-04-12T07:56:07.999Z</time></trkpt><trkpt lat="43.572153311459914" lon="12.21917570242134"><ele>613.5</ele><time>2026-04-12T07:56:08.999Z</time></trkpt><trkpt lat="43.57207996258321" lon="12.219121435744519"><ele>614.0</ele><time>2026-04-12T07:56:09.999Z</time></trkpt><trkpt lat="43.5720113557367" lon="12.219047010327097"><ele>614.0</ele><time>2026-04-12T07:56:10.999Z</time></trkpt><trkpt lat="43.57192432417512" lon="12.218989728550088"><ele>614.0</ele><time>2026-04-12T07:56:11.999Z</time></trkpt><trkpt lat="43.57184986808102" lon="12.218883131328624"><ele>614.0</ele><time>2026-04-12T07:56:12.999Z</time></trkpt><trkpt lat="43.57178341387586" lon="12.218859325329786"><ele>614.0</ele><time>2026-04-12T07:56:13.999Z</time></trkpt><trkpt lat="43.571652348919244" lon="12.218855871992389"><ele>614.0</ele><time>2026-04-12T07:56:15.999Z</time></trkpt><trkpt lat="43.57157832156707" lon="12.21886245216577"><ele>619.2</ele><time>2026-04-12T07:56:16.999Z</time></trkpt><trkpt lat="43.57147883496388" lon="12.218855756304183"><ele>624.4</ele><time>2026-04-12T07:56:17.999Z</time></trkpt><trkpt lat="43.57138009929722" lon="12.218839066835855"><ele>629.6</ele><time>2026-04-12T07:56:18.999Z</time></trkpt><trkpt lat="43.571286939927056" lon="12.218832239039067"><ele>634.8</ele><time>2026-04-12T07:56:19.999Z</time></trkpt><trkpt lat="43.57119886895063" lon="12.21881552585384"><ele>640.0</ele><time>2026-04-12T07:56:20.999Z</time></trkpt><trkpt lat="43.571115399349495" lon="12.218791688714072"><ele>640.0</ele><time>2026-04-12T07:56:21.999Z</time></trkpt><trkpt lat="43.57102471262156" lon="12.21877256707197"><ele>640.0</ele><time>2026-04-12T07:56:22.999Z</time></trkpt><trkpt lat="43.57093339494874" lon="12.21876061051048"><ele>640.0</ele><time>2026-04-12T07:56:23.999Z</time></trkpt><trkpt lat="43.570857782601564" lon="12.21872542856975"><ele>640.0</ele><time>2026-04-12T07:56:24.999Z</time></trkpt><trkpt lat="43.57077001396127" lon="12.218617813240401"><ele>640.0</ele><time>2026-04-12T07:56:26.999Z</time></trkpt><trkpt lat="43.57070205961637" lon="12.21851669950495"><ele>640.0</ele><time>2026-04-12T07:56:28.999Z</time></trkpt><trkpt lat="43.57063196118295" lon="12.218421351572939"><ele>640.0</ele><time>2026-04-12T07:56:31.999Z</time></trkpt><trkpt lat="43.570590765737414" lon="12.218334049057766"><ele>640.0</ele><time>2026-04-12T07:56:33.999Z</time></trkpt><trkpt lat="43.57056824260909" lon="12.218197258105523"><ele>640.0</ele><time>2026-04-12T07:56:35.999Z</time></trkpt><trkpt lat="43.570510971176034" lon="12.218067541714793"><ele>640.0</ele><time>2026-04-12T07:56:37.999Z</time></trkpt><trkpt lat="43.57049928813116" lon="12.21795823365013"><ele>639.8</ele><time>2026-04-12T07:56:39.999Z</time></trkpt><trkpt lat="43.57048364610368" lon="12.217807433606668"><ele>639.6</ele><time>2026-04-12T07:56:41.999Z</time></trkpt><trkpt lat="43.57046280305394" lon="12.217677989301716"><ele>639.4</ele><time>2026-04-12T07:56:43.999Z</time></trkpt><trkpt lat="43.57040716898717" lon="12.217573100158317"><ele>639.2</ele><time>2026-04-12T07:56:45.999Z</time></trkpt><trkpt lat="43.570312831579244" lon="12.217485381669492"><ele>639.0</ele><time>2026-04-12T07:56:47.999Z</time></trkpt><trkpt lat="43.5702108523413" lon="12.217400223519551"><ele>645.5</ele><time>2026-04-12T07:56:49.998Z</time></trkpt><trkpt lat="43.57014268035788" lon="12.217275211804935"><ele>652.0</ele><time>2026-04-12T07:56:51.998Z</time></trkpt><trkpt lat="43.57011100213404" lon="12.217148709167839"><ele>658.5</ele><time>2026-04-12T07:56:53.998Z</time></trkpt><trkpt lat="43.57006098597402" lon="12.21699001957569"><ele>665.0</ele><time>2026-04-12T07:56:55.998Z</time></trkpt><trkpt lat="43.57004058682325" lon="12.216823084535417"><ele>665.0</ele><time>2026-04-12T07:56:57.998Z</time></trkpt><trkpt lat="43.57002279354101" lon="12.216739463714854"><ele>665.0</ele><time>2026-04-12T07:56:58.998Z</time></trkpt><trkpt lat="43.569960224043314" lon="12.216603728152466"><ele>665.0</ele><time>2026-04-12T07:57:00.998Z</time></trkpt><trkpt lat="43.56985108599766" lon="12.216575008602502"><ele>665.0</ele><time>2026-04-12T07:57:02.998Z</time></trkpt><trkpt lat="43.56972402843857" lon="12.216549549368754"><ele>665.0</ele><time>2026-04-12T07:57:04.998Z</time></trkpt><trkpt lat="43.56962778027375" lon="12.216487725287694"><ele>661.4</ele><time>2026-04-12T07:57:06.998Z</time></trkpt><trkpt lat="43.569514784459706" lon="12.216492267748645"><ele>657.8</ele><time>2026-04-12T07:57:08.998Z</time></trkpt><trkpt lat="43.56943319064328" lon="12.216451268220332"><ele>654.2</ele><time>2026-04-12T07:57:11Z</time></trkpt><trkpt lat="43.56940323700588" lon="12.216301245913204"><ele>650.6</ele><time>2026-04-12T07:57:13Z</time></trkpt><trkpt lat="43.569418015910095" lon="12.216197119615442"><ele>647.0</ele><time>2026-04-12T07:57:14Z</time></trkpt><trkpt lat="43.56944538919195" lon="12.216082037860014"><ele>647.0</ele><time>2026-04-12T07:57:15Z</time></trkpt><trkpt lat="43.56946876223955" lon="12.215964595718043"><ele>647.0</ele><time>2026-04-12T07:57:16Z</time></trkpt><trkpt lat="43.56947459150912" lon="12.215844975902058"><ele>647.0</ele><time>2026-04-12T07:57:18Z</time></trkpt><trkpt lat="43.56945725753035" lon="12.215757606528259"><ele>647.0</ele><time>2026-04-12T07:57:21Z</time></trkpt><trkpt lat="43.5694653987222" lon="12.215634678948181"><ele>647.0</ele><time>2026-04-12T07:57:23Z</time></trkpt><trkpt lat="43.56950583444812" lon="12.2155460637697"><ele>647.0</ele><time>2026-04-12T07:57:25Z</time></trkpt><trkpt lat="43.56953242137044" lon="12.215464248238149"><ele>652.8333333333333</ele><time>2026-04-12T07:57:29Z</time></trkpt><trkpt lat="43.5695857736095" lon="12.215381726248244"><ele>658.6666666666666</ele><time>2026-04-12T07:57:31Z</time></trkpt><trkpt lat="43.56964400527787" lon="12.215340477801544"><ele>664.5</ele><time>2026-04-12T07:57:32Z</time></trkpt><trkpt lat="43.56967675926325" lon="12.21526436747548"><ele>670.3333333333334</ele><time>2026-04-12T07:57:33Z</time></trkpt><trkpt lat="43.56968752055031" lon="12.215177066083992"><ele>676.1666666666667</ele><time>2026-04-12T07:57:34Z</time></trkpt><trkpt lat="43.569713582433764" lon="12.21498774174518"><ele>682.0</ele><time>2026-04-12T07:57:36Z</time></trkpt><trkpt lat="43.56973111797179" lon="12.214903011327575"><ele>681.6666666666667</ele><time>2026-04-12T07:57:37Z</time></trkpt><trkpt lat="43.56981781378248" lon="12.214801895503008"><ele>681.3333333333334</ele><time>2026-04-12T07:57:39Z</time></trkpt><trkpt lat="43.569865974800116" lon="12.21473762107794"><ele>681.0</ele><time>2026-04-12T07:57:42Z</time></trkpt><trkpt lat="43.56990367980402" lon="12.21465908420185"><ele>680.6666666666666</ele><time>2026-04-12T07:57:44Z</time></trkpt><trkpt lat="43.56997098446514" lon="12.214559177522021"><ele>680.3333333333333</ele><time>2026-04-12T07:57:46Z</time></trkpt><trkpt lat="43.57003620177482" lon="12.214486377827447"><ele>680.0</ele><time>2026-04-12T07:57:47Z</time></trkpt><trkpt lat="43.570093716453634" lon="12.21442532891761"><ele>680.0</ele><time>2026-04-12T07:57:48Z</time></trkpt><trkpt lat="43.57015636168041" lon="12.214391317068332"><ele>680.0</ele><time>2026-04-12T07:57:49Z</time></trkpt><trkpt lat="43.570227983057094" lon="12.214343677783763"><ele>680.0</ele><time>2026-04-12T07:57:50Z</time></trkpt><trkpt lat="43.57029228396848" lon="12.214277996523917"><ele>680.0</ele><time>2026-04-12T07:57:51Z</time></trkpt><trkpt lat="43.57034187167247" lon="12.214159854680291"><ele>680.0</ele><time>2026-04-12T07:57:53Z</time></trkpt><trkpt lat="43.57035579854795" lon="12.214039152555255"><ele>680.0</ele><time>2026-04-12T07:57:55Z</time></trkpt><trkpt lat="43.57037655514101" lon="12.21393475275825"><ele>684.0</ele><time>2026-04-12T07:57:56Z</time></trkpt><trkpt lat="43.57041201239194" lon="12.213843047185808"><ele>688.0</ele><time>2026-04-12T07:57:57Z</time></trkpt><trkpt lat="43.57044551830531" lon="12.213741013727951"><ele>692.0</ele><time>2026-04-12T07:57:57.999Z</time></trkpt><trkpt lat="43.57047137056668" lon="12.213617531216192"><ele>696.0</ele><time>2026-04-12T07:57:58.999Z</time></trkpt><trkpt lat="43.57051322256808" lon="12.21353113952126"><ele>700.0</ele><time>2026-04-12T07:57:59.999Z</time></trkpt><trkpt lat="43.57057530859139" lon="12.213451823981172"><ele>704.0</ele><time>2026-04-12T07:58:00.999Z</time></trkpt><trkpt lat="43.57064851098879" lon="12.21334609186614"><ele>704.0</ele><time>2026-04-12T07:58:02.999Z</time></trkpt><trkpt lat="43.57069180583341" lon="12.213267085102714"><ele>704.0</ele><time>2026-04-12T08:05:31.998Z</time></trkpt><trkpt lat="43.570646624434836" lon="12.213154523015184"><ele>704.0</ele><time>2026-04-12T08:05:35Z</time></trkpt><trkpt lat="43.57054615209502" lon="12.213106771992516"><ele>704.0</ele><time>2026-04-12T08:05:37Z</time></trkpt><trkpt lat="43.57046272608664" lon="12.21303100046938"><ele>704.0</ele><time>2026-04-12T08:05:39Z</time></trkpt><trkpt lat="43.5703861366444" lon="12.213044327492616"><ele>704.0</ele><time>2026-04-12T08:05:41Z</time></trkpt><trkpt lat="43.57028513908433" lon="12.212972276880501"><ele>707.0</ele><time>2026-04-12T08:05:43Z</time></trkpt><trkpt lat="43.57023478916825" lon="12.212906639357596"><ele>710.0</ele><time>2026-04-12T08:05:44Z</time></trkpt><trkpt lat="43.570179450019445" lon="12.212853424065843"><ele>713.0</ele><time>2026-04-12T08:05:45Z</time></trkpt><trkpt lat="43.57009266458887" lon="12.212835580369086"><ele>716.0</ele><time>2026-04-12T08:05:47Z</time></trkpt><trkpt lat="43.57003335209946" lon="12.212867873647975"><ele>719.0</ele><time>2026-04-12T08:05:48Z</time></trkpt><trkpt lat="43.569955900291866" lon="12.212968254850077"><ele>722.0</ele><time>2026-04-12T08:05:50Z</time></trkpt><trkpt lat="43.56989489550679" lon="12.2130199658548"><ele>722.0</ele><time>2026-04-12T08:05:52Z</time></trkpt><trkpt lat="43.56982815312732" lon="12.213014552128149"><ele>722.0</ele><time>2026-04-12T08:05:54Z</time></trkpt><trkpt lat="43.569718118637304" lon="12.213062437958481"><ele>722.0</ele><time>2026-04-12T08:05:56Z</time></trkpt><trkpt lat="43.56963722614458" lon="12.213070818818624"><ele>722.0</ele><time>2026-04-12T08:05:58Z</time></trkpt><trkpt lat="43.56956710989172" lon="12.213054447190693"><ele>722.0</ele><time>2026-04-12T08:05:59Z</time></trkpt><trkpt lat="43.56949754707079" lon="12.213062397500057"><ele>722.0</ele><time>2026-04-12T08:06:00Z</time></trkpt><trkpt lat="43.569419460470755" lon="12.213103829633237"><ele>719.8333333333333</ele><time>2026-04-12T08:06:01Z</time></trkpt><trkpt lat="43.569352287730986" lon="12.213123865750209"><ele>717.6666666666666</ele><time>2026-04-12T08:06:02Z</time></trkpt><trkpt lat="43.56928527608839" lon="12.21312073011867"><ele>715.5</ele><time>2026-04-12T08:06:03Z</time></trkpt><trkpt lat="43.56922155744536" lon="12.213131924107847"><ele>713.3333333333334</ele><time>2026-04-12T08:06:04Z</time></trkpt><trkpt lat="43.569152696009596" lon="12.21314421869117"><ele>711.1666666666667</ele><time>2026-04-12T08:06:05Z</time></trkpt><trkpt lat="43.56903902251489" lon="12.213167454562038"><ele>709.0</ele><time>2026-04-12T08:06:07Z</time></trkpt><trkpt lat="43.56897493988788" lon="12.2131845605208"><ele>709.0</ele><time>2026-04-12T08:06:08Z</time></trkpt><trkpt lat="43.56890408380141" lon="12.213198246726815"><ele>709.0</ele><time>2026-04-12T08:06:09Z</time></trkpt><trkpt lat="43.56883747309938" lon="12.213193337064515"><ele>709.0</ele><time>2026-04-12T08:06:10Z</time></trkpt><trkpt lat="43.56876038738669" lon="12.213201354270241"><ele>709.0</ele><time>2026-04-12T08:06:11Z</time></trkpt><trkpt lat="43.56861281269039" lon="12.213214763524341"><ele>709.0</ele><time>2026-04-12T08:06:13Z</time></trkpt><trkpt lat="43.56853136498361" lon="12.213206476262592"><ele>709.0</ele><time>2026-04-12T08:06:14Z</time></trkpt><trkpt lat="43.568446019019724" lon="12.213211754701193"><ele>710.0</ele><time>2026-04-12T08:06:15Z</time></trkpt><trkpt lat="43.56835769804089" lon="12.213210773551841"><ele>711.0</ele><time>2026-04-12T08:06:16Z</time></trkpt><trkpt lat="43.56827589143337" lon="12.21318983687309"><ele>712.0</ele><time>2026-04-12T08:06:17Z</time></trkpt><trkpt lat="43.56821334388779" lon="12.21315257551646"><ele>713.0</ele><time>2026-04-12T08:06:18Z</time></trkpt><trkpt lat="43.56813841173211" lon="12.213040367897301"><ele>714.0</ele><time>2026-04-12T08:06:20Z</time></trkpt><trkpt lat="43.56807076145737" lon="12.212909008845404"><ele>714.6666666666666</ele><time>2026-04-12T08:06:21.999Z</time></trkpt><trkpt lat="43.567987309145195" lon="12.212786503445395"><ele>715.3333333333334</ele><time>2026-04-12T08:06:23.999Z</time></trkpt><trkpt lat="43.567937938541256" lon="12.212719796985954"><ele>716.0</ele><time>2026-04-12T08:06:24.999Z</time></trkpt><trkpt lat="43.56787887791105" lon="12.212677610401757"><ele>716.6666666666667</ele><time>2026-04-12T08:06:25.999Z</time></trkpt><trkpt lat="43.567753693122626" lon="12.212640121741629"><ele>717.3333333333334</ele><time>2026-04-12T08:06:27.999Z</time></trkpt><trkpt lat="43.56770634045572" lon="12.2125810445908"><ele>718.0</ele><time>2026-04-12T08:06:28.999Z</time></trkpt><trkpt lat="43.567667047697135" lon="12.212494757034815"><ele>718.0</ele><time>2026-04-12T08:06:29.999Z</time></trkpt><trkpt lat="43.56762693616385" lon="12.21240815497667"><ele>718.0</ele><time>2026-04-12T08:06:30.999Z</time></trkpt><trkpt lat="43.56753891061517" lon="12.21229390285788"><ele>718.0</ele><time>2026-04-12T08:06:32.999Z</time></trkpt><trkpt lat="43.56746459933446" lon="12.212147285449815"><ele>718.0</ele><time>2026-04-12T08:06:34.999Z</time></trkpt><trkpt lat="43.567446487097435" lon="12.21204369292086"><ele>718.0</ele><time>2026-04-12T08:06:35.999Z</time></trkpt><trkpt lat="43.56742712760226" lon="12.211946011122278"><ele>715.5999999999999</ele><time>2026-04-12T08:06:36.999Z</time></trkpt><trkpt lat="43.56738903335415" lon="12.211805270185623"><ele>713.1999999999999</ele><time>2026-04-12T08:06:38.999Z</time></trkpt><trkpt lat="43.56728255997889" lon="12.211737952972397"><ele>710.8</ele><time>2026-04-12T08:06:40.999Z</time></trkpt><trkpt lat="43.56721469902209" lon="12.211745801761966"><ele>708.4</ele><time>2026-04-12T08:06:41.999Z</time></trkpt><trkpt lat="43.56708582101838" lon="12.211644120669003"><ele>706.0</ele><time>2026-04-12T08:06:43.999Z</time></trkpt><trkpt lat="43.56700502915674" lon="12.211560077453965"><ele>708.5</ele><time>2026-04-12T08:06:44.999Z</time></trkpt><trkpt lat="43.566928979707114" lon="12.211481805333527"><ele>711.0</ele><time>2026-04-12T08:06:45.999Z</time></trkpt><trkpt lat="43.56684700310532" lon="12.211411260040517"><ele>713.5</ele><time>2026-04-12T08:06:46.999Z</time></trkpt><trkpt lat="43.56677469729923" lon="12.211337642691399"><ele>716.0</ele><time>2026-04-12T08:06:47.999Z</time></trkpt><trkpt lat="43.5667142897004" lon="12.21127326314906"><ele>718.5</ele><time>2026-04-12T08:06:48.999Z</time></trkpt><trkpt lat="43.566656116547556" lon="12.211202890607488"><ele>721.0</ele><time>2026-04-12T08:06:49.999Z</time></trkpt><trkpt lat="43.566587074203326" lon="12.211117561052127"><ele>721.0</ele><time>2026-04-12T08:06:50.999Z</time></trkpt><trkpt lat="43.56652042383365" lon="12.211043096543603"><ele>721.0</ele><time>2026-04-12T08:06:51.999Z</time></trkpt><trkpt lat="43.56648126242509" lon="12.21096610097345"><ele>721.0</ele><time>2026-04-12T08:06:52.999Z</time></trkpt><trkpt lat="43.56646924430614" lon="12.210869963808886"><ele>721.0</ele><time>2026-04-12T08:06:53.999Z</time></trkpt><trkpt lat="43.56646291702142" lon="12.21075189734862"><ele>721.0</ele><time>2026-04-12T08:06:54.999Z</time></trkpt><trkpt lat="43.56647564781552" lon="12.210650059607433"><ele>721.0</ele><time>2026-04-12T08:06:55.999Z</time></trkpt><trkpt lat="43.56649527189942" lon="12.21056208884788"><ele>722.8</ele><time>2026-04-12T08:06:56.999Z</time></trkpt><trkpt lat="43.5665039298562" lon="12.210462603726965"><ele>724.5999999999999</ele><time>2026-04-12T08:06:57.999Z</time></trkpt><trkpt lat="43.56650110366934" lon="12.210323707511693"><ele>726.4</ele><time>2026-04-12T08:06:59.999Z</time></trkpt><trkpt lat="43.56652687660665" lon="12.210152962612606"><ele>728.2</ele><time>2026-04-12T08:07:01.999Z</time></trkpt><trkpt lat="43.56654672529305" lon="12.21002417239906"><ele>730.0</ele><time>2026-04-12T08:07:03.999Z</time></trkpt><trkpt lat="43.56645666482332" lon="12.209946887876821"><ele>730.0</ele><time>2026-04-12T08:07:05.999Z</time></trkpt><trkpt lat="43.56634255723016" lon="12.209928480255234"><ele>730.0</ele><time>2026-04-12T08:07:07.999Z</time></trkpt><trkpt lat="43.566268052207725" lon="12.20990014054054"><ele>730.0</ele><time>2026-04-12T08:07:09.999Z</time></trkpt><trkpt lat="43.566181768918824" lon="12.209812829204754"><ele>730.0</ele><time>2026-04-12T08:07:11.999Z</time></trkpt><trkpt lat="43.566127523158855" lon="12.209727647835035"><ele>730.0</ele><time>2026-04-12T08:07:12.999Z</time></trkpt><trkpt lat="43.566072411638295" lon="12.209676341002439"><ele>730.0</ele><time>2026-04-12T08:07:13.999Z</time></trkpt><trkpt lat="43.56594531661674" lon="12.209714630557837"><ele>727.8333333333334</ele><time>2026-04-12T08:07:15.999Z</time></trkpt><trkpt lat="43.5658970286574" lon="12.209779283381431"><ele>725.6666666666667</ele><time>2026-04-12T08:07:16.999Z</time></trkpt><trkpt lat="43.56583954992204" lon="12.209836508065116"><ele>723.5</ele><time>2026-04-12T08:07:17.999Z</time></trkpt><trkpt lat="43.56577429184242" lon="12.209872950747087"><ele>721.3333333333334</ele><time>2026-04-12T08:07:19.999Z</time></trkpt><trkpt lat="43.56567363233722" lon="12.209918945454728"><ele>719.1666666666666</ele><time>2026-04-12T08:07:21.998Z</time></trkpt><trkpt lat="43.56554571878851" lon="12.209957628513031"><ele>717.0</ele><time>2026-04-12T08:07:23.998Z</time></trkpt><trkpt lat="43.56545008054161" lon="12.209988003072063"><ele>717.0</ele><time>2026-04-12T08:07:24.998Z</time></trkpt><trkpt lat="43.56538039321646" lon="12.209999953579302"><ele>717.0</ele><time>2026-04-12T08:07:25.998Z</time></trkpt><trkpt lat="43.56526600829033" lon="12.210065595277387"><ele>717.0</ele><time>2026-04-12T08:07:27.998Z</time></trkpt><trkpt lat="43.56520791597912" lon="12.21012362021054"><ele>717.0</ele><time>2026-04-12T08:07:28.998Z</time></trkpt><trkpt lat="43.56514902400129" lon="12.210161364808169"><ele>717.0</ele><time>2026-04-12T08:07:29.998Z</time></trkpt><trkpt lat="43.56504423480054" lon="12.210195731862308"><ele>717.0</ele><time>2026-04-12T08:07:30.998Z</time></trkpt><trkpt lat="43.564949673962964" lon="12.210193966118648"><ele>720.6</ele><time>2026-04-12T08:07:31.998Z</time></trkpt><trkpt lat="43.56483633956119" lon="12.210170359374999"><ele>724.2</ele><time>2026-04-12T08:07:32.998Z</time></trkpt><trkpt lat="43.56473139866056" lon="12.210148832475852"><ele>727.8</ele><time>2026-04-12T08:07:33.998Z</time></trkpt><trkpt lat="43.564648458625825" lon="12.210144211044199"><ele>731.4</ele><time>2026-04-12T08:07:34.998Z</time></trkpt><trkpt lat="43.564566704226614" lon="12.210141802046588"><ele>735.0</ele><time>2026-04-12T08:07:35.998Z</time></trkpt><trkpt lat="43.56448569116477" lon="12.210164557474368"><ele>736.8</ele><time>2026-04-12T08:07:36.998Z</time></trkpt><trkpt lat="43.56439823595739" lon="12.210252344270375"><ele>738.6</ele><time>2026-04-12T08:07:37.998Z</time></trkpt><trkpt lat="43.56430338171493" lon="12.210350776602626"><ele>740.4000000000001</ele><time>2026-04-12T08:07:38.998Z</time></trkpt><trkpt lat="43.56423179832974" lon="12.210437987481207"><ele>742.2</ele><time>2026-04-12T08:07:39.998Z</time></trkpt><trkpt lat="43.56413565609042" lon="12.210486431204163"><ele>744.0</ele><time>2026-04-12T08:07:41Z</time></trkpt><trkpt lat="43.56403221162693" lon="12.210525238746953"><ele>744.0</ele><time>2026-04-12T08:07:42Z</time></trkpt><trkpt lat="43.563932956059716" lon="12.21056360514431"><ele>744.0</ele><time>2026-04-12T08:07:43Z</time></trkpt><trkpt lat="43.56382547322351" lon="12.210592868561852"><ele>744.0</ele><time>2026-04-12T08:07:44Z</time></trkpt><trkpt lat="43.56370402613803" lon="12.210617325499719"><ele>744.0</ele><time>2026-04-12T08:07:45Z</time></trkpt><trkpt lat="43.56359638679017" lon="12.210653117794324"><ele>744.0</ele><time>2026-04-12T08:07:46Z</time></trkpt><trkpt lat="43.56351861119077" lon="12.210697033809568"><ele>743.8333333333334</ele><time>2026-04-12T08:07:47Z</time></trkpt><trkpt lat="43.5634333952529" lon="12.210718791268842"><ele>743.6666666666666</ele><time>2026-04-12T08:07:48Z</time></trkpt><trkpt lat="43.56333479857378" lon="12.210732291218935"><ele>743.5</ele><time>2026-04-12T08:07:49Z</time></trkpt><trkpt lat="43.5632448305714" lon="12.210739680916063"><ele>743.3333333333333</ele><time>2026-04-12T08:07:50Z</time></trkpt><trkpt lat="43.56317492993106" lon="12.210739249292917"><ele>743.1666666666666</ele><time>2026-04-12T08:07:51Z</time></trkpt><trkpt lat="43.56308283236233" lon="12.210688080328872"><ele>743.0</ele><time>2026-04-12T08:07:53Z</time></trkpt><trkpt lat="43.563037409611134" lon="12.210602105326013"><ele>743.0</ele><time>2026-04-12T08:08:16Z</time></trkpt><trkpt lat="43.56312075717883" lon="12.210611110014318"><ele>743.0</ele><time>2026-04-12T08:08:20Z</time></trkpt><trkpt lat="43.563234755396174" lon="12.210684202409366"><ele>743.0</ele><time>2026-04-12T08:08:22Z</time></trkpt><trkpt lat="43.56330847146822" lon="12.210673884051669"><ele>743.0</ele><time>2026-04-12T08:08:23Z</time></trkpt><trkpt lat="43.56339383259273" lon="12.210647046118154"><ele>743.0</ele><time>2026-04-12T08:08:23.999Z</time></trkpt><trkpt lat="43.56347408601533" lon="12.210608389989725"><ele>743.0</ele><time>2026-04-12T08:08:24.999Z</time></trkpt><trkpt lat="43.56355695968167" lon="12.210561411060647"><ele>743.0</ele><time>2026-04-12T08:08:25.999Z</time></trkpt><trkpt lat="43.56364190695763" lon="12.210515075038408"><ele>743.0</ele><time>2026-04-12T08:08:26.999Z</time></trkpt><trkpt lat="43.563730035306754" lon="12.210472176315923"><ele>743.0</ele><time>2026-04-12T08:08:27.999Z</time></trkpt><trkpt lat="43.563822871886984" lon="12.21042099763777"><ele>743.0</ele><time>2026-04-12T08:08:28.999Z</time></trkpt><trkpt lat="43.563912070997254" lon="12.210370104378141"><ele>743.2</ele><time>2026-04-12T08:08:29.999Z</time></trkpt><trkpt lat="43.56400471692396" lon="12.21031302220385"><ele>743.4</ele><time>2026-04-12T08:08:30.999Z</time></trkpt><trkpt lat="43.564093561669814" lon="12.210249628167718"><ele>743.6</ele><time>2026-04-12T08:08:31.999Z</time></trkpt><trkpt lat="43.56417880655093" lon="12.21016899952002"><ele>743.8000000000001</ele><time>2026-04-12T08:08:32.999Z</time></trkpt><trkpt lat="43.564259932770945" lon="12.21007166265895"><ele>744.0</ele><time>2026-04-12T08:08:33.999Z</time></trkpt><trkpt lat="43.564345275938095" lon="12.20996985635351"><ele>744.0</ele><time>2026-04-12T08:08:34.999Z</time></trkpt><trkpt lat="43.564430829423436" lon="12.209873339194223"><ele>744.0</ele><time>2026-04-12T08:08:35.999Z</time></trkpt><trkpt lat="43.56453123257169" lon="12.209781840422416"><ele>744.0</ele><time>2026-04-12T08:08:36.999Z</time></trkpt><trkpt lat="43.56464487675065" lon="12.209702817417305"><ele>744.0</ele><time>2026-04-12T08:08:37.999Z</time></trkpt><trkpt lat="43.56476689721423" lon="12.209639091747945"><ele>746.75</ele><time>2026-04-12T08:08:38.999Z</time></trkpt><trkpt lat="43.564890686060735" lon="12.209585404291524"><ele>749.5</ele><time>2026-04-12T08:08:39.999Z</time></trkpt><trkpt lat="43.56501627790986" lon="12.209518336716735"><ele>752.25</ele><time>2026-04-12T08:08:40.999Z</time></trkpt><trkpt lat="43.5651359676291" lon="12.209439811450883"><ele>755.0</ele><time>2026-04-12T08:08:41.999Z</time></trkpt><trkpt lat="43.56525471266015" lon="12.20934386556171"><ele>754.25</ele><time>2026-04-12T08:08:42.999Z</time></trkpt><trkpt lat="43.56536837914072" lon="12.209239920526938"><ele>753.5</ele><time>2026-04-12T08:08:43.999Z</time></trkpt><trkpt lat="43.56547622172175" lon="12.209127632870686"><ele>752.75</ele><time>2026-04-12T08:08:44.999Z</time></trkpt><trkpt lat="43.56558161630048" lon="12.209002726912177"><ele>752.0</ele><time>2026-04-12T08:08:45.999Z</time></trkpt><trkpt lat="43.56568167987362" lon="12.208876450114492"><ele>752.0</ele><time>2026-04-12T08:08:46.999Z</time></trkpt><trkpt lat="43.56578106754595" lon="12.208752437057523"><ele>752.0</ele><time>2026-04-12T08:08:47.999Z</time></trkpt><trkpt lat="43.56587761789201" lon="12.208631232900776"><ele>752.0</ele><time>2026-04-12T08:08:48.999Z</time></trkpt><trkpt lat="43.565966554486714" lon="12.20854665263847"><ele>752.0</ele><time>2026-04-12T08:08:49.999Z</time></trkpt><trkpt lat="43.5660598005194" lon="12.208509549196616"><ele>752.0</ele><time>2026-04-12T08:08:50.999Z</time></trkpt><trkpt lat="43.56616923365896" lon="12.208541517842853"><ele>752.0</ele><time>2026-04-12T08:08:51.999Z</time></trkpt><trkpt lat="43.566275379874" lon="12.208613048836163"><ele>752.0</ele><time>2026-04-12T08:08:52.999Z</time></trkpt><trkpt lat="43.56638629410519" lon="12.208696094528428"><ele>752.0</ele><time>2026-04-12T08:08:53.999Z</time></trkpt><trkpt lat="43.56650761981836" lon="12.208768558541927"><ele>753.5</ele><time>2026-04-12T08:08:54.999Z</time></trkpt><trkpt lat="43.566639617433175" lon="12.20882912193439"><ele>755.0</ele><time>2026-04-12T08:08:55.999Z</time></trkpt><trkpt lat="43.566773948869645" lon="12.208885793422697"><ele>756.5</ele><time>2026-04-12T08:08:56.999Z</time></trkpt><trkpt lat="43.56690531374781" lon="12.208944816406147"><ele>758.0</ele><time>2026-04-12T08:08:57.999Z</time></trkpt><trkpt lat="43.56703309593814" lon="12.209007287397341"><ele>759.5999999999999</ele><time>2026-04-12T08:08:58.999Z</time></trkpt><trkpt lat="43.56715999904036" lon="12.209067941554366"><ele>761.1999999999999</ele><time>2026-04-12T08:08:59.999Z</time></trkpt><trkpt lat="43.567271446141234" lon="12.209117985471535"><ele>762.8</ele><time>2026-04-12T08:09:00.999Z</time></trkpt><trkpt lat="43.56736322147088" lon="12.209175663222874"><ele>764.4</ele><time>2026-04-12T08:09:01.999Z</time></trkpt><trkpt lat="43.56742963420785" lon="12.209260712391162"><ele>766.0</ele><time>2026-04-12T08:09:02.999Z</time></trkpt><trkpt lat="43.56745871397115" lon="12.209383658284466"><ele>766.0</ele><time>2026-04-12T08:09:03.999Z</time></trkpt><trkpt lat="43.56746056880525" lon="12.20953613300796"><ele>766.0</ele><time>2026-04-12T08:09:04.999Z</time></trkpt><trkpt lat="43.56745701818048" lon="12.209698934150508"><ele>766.0</ele><time>2026-04-12T08:09:05.999Z</time></trkpt><trkpt lat="43.56747919995367" lon="12.209862045337113"><ele>766.0</ele><time>2026-04-12T08:09:06.999Z</time></trkpt><trkpt lat="43.567544587405585" lon="12.210010495091488"><ele>763.75</ele><time>2026-04-12T08:09:07.999Z</time></trkpt><trkpt lat="43.567644031719354" lon="12.210137086035134"><ele>761.5</ele><time>2026-04-12T08:09:08.999Z</time></trkpt><trkpt lat="43.567747791432474" lon="12.210258894395377"><ele>759.25</ele><time>2026-04-12T08:09:09.999Z</time></trkpt><trkpt lat="43.567852536877496" lon="12.210381770249427"><ele>757.0</ele><time>2026-04-12T08:09:10.999Z</time></trkpt><trkpt lat="43.567957969104214" lon="12.210505026171733"><ele>759.25</ele><time>2026-04-12T08:09:11.999Z</time></trkpt><trkpt lat="43.56806645634739" lon="12.21062470368023"><ele>761.5</ele><time>2026-04-12T08:09:12.999Z</time></trkpt><trkpt lat="43.56818371874815" lon="12.210743515062228"><ele>763.75</ele><time>2026-04-12T08:09:13.999Z</time></trkpt><trkpt lat="43.56829721590424" lon="12.210854281313349"><ele>766.0</ele><time>2026-04-12T08:09:14.999Z</time></trkpt><trkpt lat="43.568411814050364" lon="12.210957822729046"><ele>766.0</ele><time>2026-04-12T08:09:15.999Z</time></trkpt><trkpt lat="43.56852696001433" lon="12.211048508617383"><ele>766.0</ele><time>2026-04-12T08:09:16.999Z</time></trkpt><trkpt lat="43.56864251562054" lon="12.21111459567282"><ele>766.0</ele><time>2026-04-12T08:09:17.999Z</time></trkpt><trkpt lat="43.56876005057898" lon="12.211157922210141"><ele>766.0</ele><time>2026-04-12T08:09:18.999Z</time></trkpt><trkpt lat="43.56887604247624" lon="12.211174553900642"><ele>768.0</ele><time>2026-04-12T08:09:19.999Z</time></trkpt><trkpt lat="43.56898720378145" lon="12.21116864424808"><ele>770.0</ele><time>2026-04-12T08:09:20.999Z</time></trkpt><trkpt lat="43.569084758040646" lon="12.211142227883887"><ele>772.0</ele><time>2026-04-12T08:09:21.999Z</time></trkpt><trkpt lat="43.56916463624216" lon="12.211107764555658"><ele>774.0</ele><time>2026-04-12T08:09:22.998Z</time></trkpt><trkpt lat="43.56923475668052" lon="12.211062396120132"><ele>776.0</ele><time>2026-04-12T08:09:23.998Z</time></trkpt><trkpt lat="43.56930229403436" lon="12.211002633835204"><ele>776.0000000000001</ele><time>2026-04-12T08:09:24.998Z</time></trkpt><trkpt lat="43.569344717109836" lon="12.210932926875763"><ele>776.0</ele><time>2026-04-12T08:09:25.998Z</time></trkpt><trkpt lat="43.569357175014424" lon="12.210847240780211"><ele>776.0</ele><time>2026-04-12T08:09:26.998Z</time></trkpt><trkpt lat="43.5692833532128" lon="12.210708476856317"><ele>776.0</ele><time>2026-04-12T08:09:28.998Z</time></trkpt><trkpt lat="43.56918508705535" lon="12.210698565504357"><ele>776.0000000000001</ele><time>2026-04-12T08:09:29.998Z</time></trkpt><trkpt lat="43.5691087540671" lon="12.210715271234028"><ele>776.0</ele><time>2026-04-12T08:09:30.998Z</time></trkpt><trkpt lat="43.568999317168945" lon="12.210726348629422"><ele>776.0</ele><time>2026-04-12T08:09:31.998Z</time></trkpt><trkpt lat="43.56887723509857" lon="12.210708966678503"><ele>776.0</ele><time>2026-04-12T08:09:32.998Z</time></trkpt><trkpt lat="43.56877446160883" lon="12.210655147664065"><ele>776.0</ele><time>2026-04-12T08:09:33.998Z</time></trkpt><trkpt lat="43.568707188586636" lon="12.210586228139974"><ele>776.0</ele><time>2026-04-12T08:09:34.998Z</time></trkpt><trkpt lat="43.56864805074965" lon="12.21052069931479"><ele>776.0</ele><time>2026-04-12T08:09:35.998Z</time></trkpt><trkpt lat="43.5685729318559" lon="12.210449880481326"><ele>777.1999999999999</ele><time>2026-04-12T08:09:36.998Z</time></trkpt><trkpt lat="43.56850470385006" lon="12.210374856346576"><ele>778.4</ele><time>2026-04-12T08:09:37.998Z</time></trkpt><trkpt lat="43.56842994584427" lon="12.210297041572169"><ele>779.6</ele><time>2026-04-12T08:09:38.998Z</time></trkpt><trkpt lat="43.568352079253465" lon="12.210205487208025"><ele>780.8</ele><time>2026-04-12T08:09:39.998Z</time></trkpt><trkpt lat="43.568283641497764" lon="12.21010674205996"><ele>782.0</ele><time>2026-04-12T08:09:40.998Z</time></trkpt><trkpt lat="43.56822759254711" lon="12.210022014854985"><ele>782.0</ele><time>2026-04-12T08:09:41.998Z</time></trkpt><trkpt lat="43.568180224888856" lon="12.209942822890058"><ele>782.0</ele><time>2026-04-12T08:09:42.998Z</time></trkpt><trkpt lat="43.56812075660396" lon="12.209833183962756"><ele>782.0</ele><time>2026-04-12T08:09:43.998Z</time></trkpt><trkpt lat="43.56805294080826" lon="12.209710037831998"><ele>782.0</ele><time>2026-04-12T08:09:44.998Z</time></trkpt><trkpt lat="43.567993883125204" lon="12.20959047584842"><ele>782.0</ele><time>2026-04-12T08:09:45.998Z</time></trkpt><trkpt lat="43.56793549437678" lon="12.209476672072878"><ele>781.0000000000001</ele><time>2026-04-12T08:09:47Z</time></trkpt><trkpt lat="43.56788085042179" lon="12.209376240792748"><ele>780.0</ele><time>2026-04-12T08:09:48Z</time></trkpt><trkpt lat="43.5678340521654" lon="12.209293286768238"><ele>779.0</ele><time>2026-04-12T08:09:49Z</time></trkpt><trkpt lat="43.567793592574425" lon="12.209221252961525"><ele>778.0</ele><time>2026-04-12T08:09:50Z</time></trkpt><trkpt lat="43.567722134892676" lon="12.209085596553258"><ele>777.0000000000001</ele><time>2026-04-12T08:09:52Z</time></trkpt><trkpt lat="43.56767998977257" lon="12.20901249365435"><ele>776.0</ele><time>2026-04-12T08:09:53Z</time></trkpt><trkpt lat="43.567614277268326" lon="12.20890815249545"><ele>776.0</ele><time>2026-04-12T08:09:55Z</time></trkpt><trkpt lat="43.56756033116932" lon="12.208736397291897"><ele>776.0</ele><time>2026-04-12T08:09:57Z</time></trkpt><trkpt lat="43.56753090585596" lon="12.208605612631745"><ele>776.0</ele><time>2026-04-12T08:09:58Z</time></trkpt><trkpt lat="43.567515982981384" lon="12.208485296066163"><ele>776.0</ele><time>2026-04-12T08:09:59Z</time></trkpt><trkpt lat="43.56751920129125" lon="12.20836968692735"><ele>776.0</ele><time>2026-04-12T08:10:00Z</time></trkpt><trkpt lat="43.5675435782494" lon="12.20828732678417"><ele>776.0000000000001</ele><time>2026-04-12T08:10:01Z</time></trkpt><trkpt lat="43.567591412095126" lon="12.208218339187395"><ele>776.0</ele><time>2026-04-12T08:10:02Z</time></trkpt><trkpt lat="43.56765378962674" lon="12.208161518531567"><ele>776.0</ele><time>2026-04-12T08:10:03Z</time></trkpt><trkpt lat="43.56772306465071" lon="12.208110395611996"><ele>776.0</ele><time>2026-04-12T08:10:04Z</time></trkpt><trkpt lat="43.567785604727625" lon="12.20808629549512"><ele>776.0000000000001</ele><time>2026-04-12T08:10:05Z</time></trkpt><trkpt lat="43.567873613368896" lon="12.208090418121127"><ele>776.0</ele><time>2026-04-12T08:10:06Z</time></trkpt><trkpt lat="43.56796384507613" lon="12.208077423279384"><ele>774.4</ele><time>2026-04-12T08:10:07Z</time></trkpt><trkpt lat="43.56805551250987" lon="12.20805461548434"><ele>772.8</ele><time>2026-04-12T08:10:08Z</time></trkpt><trkpt lat="43.568145773415175" lon="12.20801727691489"><ele>771.1999999999999</ele><time>2026-04-12T08:10:09Z</time></trkpt><trkpt lat="43.56823850063152" lon="12.20799327789822"><ele>769.5999999999999</ele><time>2026-04-12T08:10:10Z</time></trkpt><trkpt lat="43.568323850718514" lon="12.207984015505351"><ele>768.0</ele><time>2026-04-12T08:10:11Z</time></trkpt><trkpt lat="43.56841102295983" lon="12.207948854770816"><ele>768.0</ele><time>2026-04-12T08:10:12Z</time></trkpt><trkpt lat="43.568491702010725" lon="12.20790729769782"><ele>768.0</ele><time>2026-04-12T08:10:13Z</time></trkpt><trkpt lat="43.56856646169295" lon="12.207870302119728"><ele>768.0</ele><time>2026-04-12T08:10:14Z</time></trkpt><trkpt lat="43.56865293967214" lon="12.207829765893706"><ele>768.0</ele><time>2026-04-12T08:10:15Z</time></trkpt><trkpt lat="43.56874729217029" lon="12.207801117272304"><ele>768.0</ele><time>2026-04-12T08:10:16Z</time></trkpt><trkpt lat="43.56884485896497" lon="12.207760393315098"><ele>771.5999999999999</ele><time>2026-04-12T08:10:17Z</time></trkpt><trkpt lat="43.56893935305632" lon="12.207711371940734"><ele>775.1999999999999</ele><time>2026-04-12T08:10:18Z</time></trkpt><trkpt lat="43.56902084184062" lon="12.207686302154244"><ele>778.8</ele><time>2026-04-12T08:10:19Z</time></trkpt><trkpt lat="43.569107523052544" lon="12.207665470197307"><ele>782.4</ele><time>2026-04-12T08:10:20Z</time></trkpt><trkpt lat="43.56919241464483" lon="12.207628476660686"><ele>786.0</ele><time>2026-04-12T08:10:21Z</time></trkpt><trkpt lat="43.56927600691373" lon="12.207576824302375"><ele>786.0</ele><time>2026-04-12T08:10:22Z</time></trkpt><trkpt lat="43.56936573508659" lon="12.207529242861606"><ele>786.0</ele><time>2026-04-12T08:10:23Z</time></trkpt><trkpt lat="43.569475161156795" lon="12.207481531140646"><ele>786.0</ele><time>2026-04-12T08:10:24Z</time></trkpt><trkpt lat="43.569579565664746" lon="12.20745075982206"><ele>786.0</ele><time>2026-04-12T08:10:25Z</time></trkpt><trkpt lat="43.5696905313965" lon="12.207422286710989"><ele>786.0</ele><time>2026-04-12T08:10:26Z</time></trkpt><trkpt lat="43.56978894515561" lon="12.2073844289572"><ele>787.5999999999999</ele><time>2026-04-12T08:10:27Z</time></trkpt><trkpt lat="43.569900893674394" lon="12.207346413426611"><ele>789.2</ele><time>2026-04-12T08:10:27.999Z</time></trkpt><trkpt lat="43.569992695036426" lon="12.20729655264995"><ele>790.8</ele><time>2026-04-12T08:10:28.999Z</time></trkpt><trkpt lat="43.57008985590872" lon="12.207259065090295"><ele>792.4000000000001</ele><time>2026-04-12T08:10:29.999Z</time></trkpt><trkpt lat="43.570189831146074" lon="12.20721582415556"><ele>794.0</ele><time>2026-04-12T08:10:30.999Z</time></trkpt><trkpt lat="43.570316245657615" lon="12.207162774794188"><ele>791.5</ele><time>2026-04-12T08:10:31.999Z</time></trkpt><trkpt lat="43.57042780936864" lon="12.207099622429713"><ele>789.0</ele><time>2026-04-12T08:10:32.999Z</time></trkpt><trkpt lat="43.570548027405934" lon="12.207064025451796"><ele>786.5</ele><time>2026-04-12T08:10:33.999Z</time></trkpt><trkpt lat="43.570661337678416" lon="12.207021560046691"><ele>784.0</ele><time>2026-04-12T08:10:34.999Z</time></trkpt><trkpt lat="43.570777060295285" lon="12.206956939480119"><ele>784.0</ele><time>2026-04-12T08:10:35.999Z</time></trkpt><trkpt lat="43.57088565759045" lon="12.206891479248062"><ele>784.0</ele><time>2026-04-12T08:10:36.999Z</time></trkpt><trkpt lat="43.5710054545208" lon="12.206834990221207"><ele>784.0</ele><time>2026-04-12T08:10:37.999Z</time></trkpt><trkpt lat="43.57112602857829" lon="12.206784693498406"><ele>784.0</ele><time>2026-04-12T08:10:38.999Z</time></trkpt><trkpt lat="43.571250177359126" lon="12.206730458061749"><ele>786.5</ele><time>2026-04-12T08:10:39.999Z</time></trkpt><trkpt lat="43.571372266293096" lon="12.206675962862569"><ele>789.0</ele><time>2026-04-12T08:10:40.999Z</time></trkpt><trkpt lat="43.57149711943025" lon="12.206617466217864"><ele>791.5</ele><time>2026-04-12T08:10:41.999Z</time></trkpt><trkpt lat="43.571618128987154" lon="12.206560339355601"><ele>794.0</ele><time>2026-04-12T08:10:42.999Z</time></trkpt><trkpt lat="43.57173874257078" lon="12.20650757438793"><ele>791.4000000000001</ele><time>2026-04-12T08:10:43.999Z</time></trkpt><trkpt lat="43.57185768333565" lon="12.206456237029059"><ele>788.8</ele><time>2026-04-12T08:10:44.999Z</time></trkpt><trkpt lat="43.571971884406686" lon="12.206418548506589"><ele>786.2</ele><time>2026-04-12T08:10:45.999Z</time></trkpt><trkpt lat="43.57204004300869" lon="12.20638572171365"><ele>783.5999999999999</ele><time>2026-04-12T08:10:46.999Z</time></trkpt><trkpt lat="43.57212453092022" lon="12.20632975382146"><ele>781.0</ele><time>2026-04-12T08:10:48.999Z</time></trkpt><trkpt lat="43.572252207391784" lon="12.206287733878513"><ele>780.9999999999999</ele><time>2026-04-12T08:10:50.999Z</time></trkpt><trkpt lat="43.57233505553449" lon="12.206267389872588"><ele>781.0</ele><time>2026-04-12T08:10:51.999Z</time></trkpt><trkpt lat="43.572401484268866" lon="12.206277241304988"><ele>781.0</ele><time>2026-04-12T08:10:52.999Z</time></trkpt><trkpt lat="43.57246761945819" lon="12.20630221253605"><ele>781.0</ele><time>2026-04-12T08:10:53.999Z</time></trkpt><trkpt lat="43.57254246114812" lon="12.206345678125539"><ele>780.9999999999999</ele><time>2026-04-12T08:10:54.999Z</time></trkpt><trkpt lat="43.57263119986116" lon="12.206399814134826"><ele>781.0</ele><time>2026-04-12T08:10:55.999Z</time></trkpt><trkpt lat="43.57272932572255" lon="12.206483981068592"><ele>782.75</ele><time>2026-04-12T08:10:56.999Z</time></trkpt><trkpt lat="43.572823065780405" lon="12.206575192466202"><ele>784.5</ele><time>2026-04-12T08:10:57.999Z</time></trkpt><trkpt lat="43.57291846433681" lon="12.206662808043681"><ele>786.25</ele><time>2026-04-12T08:10:58.999Z</time></trkpt><trkpt lat="43.57301625386404" lon="12.20676378569182"><ele>788.0</ele><time>2026-04-12T08:10:59.999Z</time></trkpt><trkpt lat="43.57310338541743" lon="12.206846973374297"><ele>788.0</ele><time>2026-04-12T08:11:00.999Z</time></trkpt><trkpt lat="43.57319310259421" lon="12.206927360451184"><ele>788.0</ele><time>2026-04-12T08:11:01.999Z</time></trkpt><trkpt lat="43.573270484938384" lon="12.207003904253682"><ele>788.0</ele><time>2026-04-12T08:11:02.999Z</time></trkpt><trkpt lat="43.57335486203684" lon="12.207087805568587"><ele>788.0</ele><time>2026-04-12T08:11:03.999Z</time></trkpt><trkpt lat="43.57344592617581" lon="12.207172333386119"><ele>788.0</ele><time>2026-04-12T08:11:04.999Z</time></trkpt><trkpt lat="43.57353540096721" lon="12.207259684488651"><ele>786.8</ele><time>2026-04-12T08:11:05.999Z</time></trkpt><trkpt lat="43.573622549480234" lon="12.207341303220968"><ele>785.5999999999999</ele><time>2026-04-12T08:11:06.999Z</time></trkpt><trkpt lat="43.573721201976234" lon="12.20742644316127"><ele>784.4000000000001</ele><time>2026-04-12T08:11:07.999Z</time></trkpt><trkpt lat="43.5738110339508" lon="12.207526933039679"><ele>783.2</ele><time>2026-04-12T08:11:08.999Z</time></trkpt><trkpt lat="43.57389529876284" lon="12.207618707492282"><ele>782.0</ele><time>2026-04-12T08:11:09.999Z</time></trkpt><trkpt lat="43.57399317072397" lon="12.207716488534427"><ele>782.0</ele><time>2026-04-12T08:11:10.999Z</time></trkpt><trkpt lat="43.574089219497615" lon="12.207807602127534"><ele>782.0</ele><time>2026-04-12T08:11:11.999Z</time></trkpt><trkpt lat="43.57418048176918" lon="12.207903376263191"><ele>782.0</ele><time>2026-04-12T08:11:12.999Z</time></trkpt><trkpt lat="43.57427591955281" lon="12.208001737818227"><ele>782.0</ele><time>2026-04-12T08:11:13.999Z</time></trkpt><trkpt lat="43.574368951669335" lon="12.208086239527"><ele>782.0</ele><time>2026-04-12T08:11:14.999Z</time></trkpt><trkpt lat="43.57446026910911" lon="12.208155921190365"><ele>782.0</ele><time>2026-04-12T08:11:15.999Z</time></trkpt><trkpt lat="43.574562548743835" lon="12.208236927661899"><ele>782.0</ele><time>2026-04-12T08:11:16.999Z</time></trkpt><trkpt lat="43.574656688915" lon="12.208325548609697"><ele>782.0</ele><time>2026-04-12T08:11:17.999Z</time></trkpt><trkpt lat="43.57474680642972" lon="12.20841252888764"><ele>782.0</ele><time>2026-04-12T08:11:18.999Z</time></trkpt><trkpt lat="43.574818789757295" lon="12.20850341565756"><ele>781.5</ele><time>2026-04-12T08:11:19.999Z</time></trkpt><trkpt lat="43.57490464275601" lon="12.208590440702437"><ele>781.0</ele><time>2026-04-12T08:11:20.999Z</time></trkpt><trkpt lat="43.57498479427157" lon="12.208711584612615"><ele>780.5</ele><time>2026-04-12T08:11:21.999Z</time></trkpt><trkpt lat="43.57507044966762" lon="12.208846382897454"><ele>780.0</ele><time>2026-04-12T08:11:22.999Z</time></trkpt><trkpt lat="43.57515097745034" lon="12.208943571690646"><ele>781.25</ele><time>2026-04-12T08:11:23.999Z</time></trkpt><trkpt lat="43.57524301381719" lon="12.209031478324551"><ele>782.5</ele><time>2026-04-12T08:11:24.999Z</time></trkpt><trkpt lat="43.57535281015478" lon="12.209115898899954"><ele>783.75</ele><time>2026-04-12T08:11:25.999Z</time></trkpt><trkpt lat="43.57545328730054" lon="12.209206661731185"><ele>785.0</ele><time>2026-04-12T08:11:26.998Z</time></trkpt><trkpt lat="43.57555782603805" lon="12.209283763671014"><ele>785.0</ele><time>2026-04-12T08:11:27.998Z</time></trkpt><trkpt lat="43.575665215312625" lon="12.209372894855658"><ele>785.0</ele><time>2026-04-12T08:11:28.998Z</time></trkpt><trkpt lat="43.575764174232276" lon="12.20946898599284"><ele>785.0</ele><time>2026-04-12T08:11:29.998Z</time></trkpt><trkpt lat="43.57587083422345" lon="12.20955425122619"><ele>785.0</ele><time>2026-04-12T08:11:30.998Z</time></trkpt><trkpt lat="43.575969919003626" lon="12.209631080260914"><ele>785.0</ele><time>2026-04-12T08:11:31.998Z</time></trkpt><trkpt lat="43.57606335993364" lon="12.209706160522446"><ele>785.0</ele><time>2026-04-12T08:11:32.998Z</time></trkpt><trkpt lat="43.57617986904284" lon="12.20976690458831"><ele>785.0</ele><time>2026-04-12T08:11:33.998Z</time></trkpt><trkpt lat="43.57628686949559" lon="12.209821955590598"><ele>785.0</ele><time>2026-04-12T08:11:34.998Z</time></trkpt><trkpt lat="43.57638604566301" lon="12.209880183189492"><ele>787.0</ele><time>2026-04-12T08:11:35.998Z</time></trkpt><trkpt lat="43.576463935730736" lon="12.209949905376646"><ele>789.0</ele><time>2026-04-12T08:11:36.998Z</time></trkpt><trkpt lat="43.576535758959565" lon="12.210028862172285"><ele>791.0</ele><time>2026-04-12T08:11:37.998Z</time></trkpt><trkpt lat="43.57660731315944" lon="12.210132144022174"><ele>793.0</ele><time>2026-04-12T08:11:38.998Z</time></trkpt><trkpt lat="43.576699173573076" lon="12.210203125514289"><ele>795.0</ele><time>2026-04-12T08:11:39.998Z</time></trkpt><trkpt lat="43.57681479252674" lon="12.210256090914433"><ele>795.0</ele><time>2026-04-12T08:11:40.998Z</time></trkpt><trkpt lat="43.5769390135633" lon="12.21030453776602"><ele>795.0</ele><time>2026-04-12T08:11:41.998Z</time></trkpt><trkpt lat="43.57705694289648" lon="12.21032113251323"><ele>795.0</ele><time>2026-04-12T08:11:42.998Z</time></trkpt><trkpt lat="43.577182709786584" lon="12.21030208418303"><ele>795.0</ele><time>2026-04-12T08:11:43.998Z</time></trkpt><trkpt lat="43.57730994556673" lon="12.210289894851599"><ele>796.25</ele><time>2026-04-12T08:11:44.998Z</time></trkpt><trkpt lat="43.57742434583037" lon="12.210287873677244"><ele>797.5</ele><time>2026-04-12T08:11:45.998Z</time></trkpt><trkpt lat="43.57753884152391" lon="12.210310602257973"><ele>798.75</ele><time>2026-04-12T08:11:46.998Z</time></trkpt><trkpt lat="43.57764982947686" lon="12.210310992314769"><ele>800.0</ele><time>2026-04-12T08:11:47.998Z</time></trkpt><trkpt lat="43.577762778154465" lon="12.210314945956526"><ele>800.75</ele><time>2026-04-12T08:11:48.998Z</time></trkpt><trkpt lat="43.57787975082285" lon="12.21031739461546"><ele>801.5</ele><time>2026-04-12T08:11:49.998Z</time></trkpt><trkpt lat="43.57798939087547" lon="12.210334881204629"><ele>802.25</ele><time>2026-04-12T08:11:50.998Z</time></trkpt><trkpt lat="43.578107259188506" lon="12.210379577176251"><ele>803.0</ele><time>2026-04-12T08:11:51.998Z</time></trkpt><trkpt lat="43.578222753787294" lon="12.210453744397295"><ele>803.0</ele><time>2026-04-12T08:11:53Z</time></trkpt><trkpt lat="43.578328340311764" lon="12.210523876001197"><ele>803.0</ele><time>2026-04-12T08:11:54Z</time></trkpt><trkpt lat="43.57842647622036" lon="12.210611939849445"><ele>803.0</ele><time>2026-04-12T08:11:55Z</time></trkpt><trkpt lat="43.57851570969992" lon="12.210701851628365"><ele>803.0</ele><time>2026-04-12T08:11:56Z</time></trkpt><trkpt lat="43.57860738259122" lon="12.210801666191324"><ele>803.0</ele><time>2026-04-12T08:11:57Z</time></trkpt><trkpt lat="43.578679294771035" lon="12.210906837813246"><ele>803.0</ele><time>2026-04-12T08:11:58Z</time></trkpt><trkpt lat="43.578765260576425" lon="12.211004748332124"><ele>803.0</ele><time>2026-04-12T08:11:59Z</time></trkpt><trkpt lat="43.578865964007214" lon="12.211091399146188"><ele>803.0</ele><time>2026-04-12T08:12:00Z</time></trkpt><trkpt lat="43.57896368748902" lon="12.211157667306377"><ele>803.0</ele><time>2026-04-12T08:12:01Z</time></trkpt><trkpt lat="43.57906575345491" lon="12.211212870351813"><ele>803.0</ele><time>2026-04-12T08:12:02Z</time></trkpt><trkpt lat="43.57916975799037" lon="12.211247065262215"><ele>803.0</ele><time>2026-04-12T08:12:03Z</time></trkpt><trkpt lat="43.57927758122368" lon="12.211296550042082"><ele>803.0</ele><time>2026-04-12T08:12:04Z</time></trkpt><trkpt lat="43.57936936669306" lon="12.21135763648008"><ele>803.0</ele><time>2026-04-12T08:12:05Z</time></trkpt><trkpt lat="43.57948561765698" lon="12.211416928762809"><ele>803.0</ele><time>2026-04-12T08:12:06Z</time></trkpt><trkpt lat="43.57959401477089" lon="12.2114567662388"><ele>803.0</ele><time>2026-04-12T08:12:07Z</time></trkpt><trkpt lat="43.57971574874585" lon="12.211486406576142"><ele>803.0</ele><time>2026-04-12T08:12:08Z</time></trkpt><trkpt lat="43.57982268937754" lon="12.211507817486446"><ele>803.0</ele><time>2026-04-12T08:12:09Z</time></trkpt><trkpt lat="43.57993080458344" lon="12.21153605317583"><ele>803.0</ele><time>2026-04-12T08:12:10Z</time></trkpt><trkpt lat="43.580156964417824" lon="12.211593531519567"><ele>803.5999999999999</ele><time>2026-04-12T08:12:12Z</time></trkpt><trkpt lat="43.580243850408074" lon="12.211591712241889"><ele>804.1999999999999</ele><time>2026-04-12T08:12:13Z</time></trkpt><trkpt lat="43.58033425844752" lon="12.211573113037968"><ele>804.8</ele><time>2026-04-12T08:12:14Z</time></trkpt><trkpt lat="43.58042037908358" lon="12.211539081114099"><ele>805.4</ele><time>2026-04-12T08:12:15Z</time></trkpt><trkpt lat="43.58051965438597" lon="12.211491326155915"><ele>806.0</ele><time>2026-04-12T08:12:16Z</time></trkpt><trkpt lat="43.58063317142429" lon="12.2114499290135"><ele>806.0</ele><time>2026-04-12T08:12:17Z</time></trkpt><trkpt lat="43.5807544703275" lon="12.211425350817333"><ele>806.0</ele><time>2026-04-12T08:12:18Z</time></trkpt><trkpt lat="43.58086675975064" lon="12.211406462010933"><ele>806.0</ele><time>2026-04-12T08:12:19Z</time></trkpt><trkpt lat="43.58097210728095" lon="12.21135816863715"><ele>806.0</ele><time>2026-04-12T08:12:20Z</time></trkpt><trkpt lat="43.58108678550692" lon="12.211312512542907"><ele>807.4</ele><time>2026-04-12T08:12:21Z</time></trkpt><trkpt lat="43.581204671366564" lon="12.211308566934655"><ele>808.8</ele><time>2026-04-12T08:12:22Z</time></trkpt><trkpt lat="43.5812944742009" lon="12.21129753884116"><ele>810.1999999999999</ele><time>2026-04-12T08:12:23Z</time></trkpt><trkpt lat="43.58138961046004" lon="12.211260343965314"><ele>811.5999999999999</ele><time>2026-04-12T08:12:24Z</time></trkpt><trkpt lat="43.58148144852264" lon="12.211200170008292"><ele>813.0</ele><time>2026-04-12T08:12:25Z</time></trkpt><trkpt lat="43.58159234986802" lon="12.211158401295814"><ele>813.0</ele><time>2026-04-12T08:12:26Z</time></trkpt><trkpt lat="43.58171038778447" lon="12.211111088898932"><ele>813.0</ele><time>2026-04-12T08:12:27Z</time></trkpt><trkpt lat="43.58180594409983" lon="12.211091459847879"><ele>813.0</ele><time>2026-04-12T08:12:28Z</time></trkpt><trkpt lat="43.58189645653141" lon="12.211069171495186"><ele>813.0</ele><time>2026-04-12T08:12:29Z</time></trkpt><trkpt lat="43.58197682509127" lon="12.211073730302735"><ele>813.0</ele><time>2026-04-12T08:12:30Z</time></trkpt><trkpt lat="43.58205995046199" lon="12.211088988482638"><ele>814.2</ele><time>2026-04-12T08:12:31Z</time></trkpt><trkpt lat="43.582128495804035" lon="12.211119779727486"><ele>815.4</ele><time>2026-04-12T08:12:32Z</time></trkpt><trkpt lat="43.58224508074322" lon="12.211128031758102"><ele>816.6</ele><time>2026-04-12T08:12:34Z</time></trkpt><trkpt lat="43.58236616876068" lon="12.211088291459097"><ele>817.8000000000001</ele><time>2026-04-12T08:12:35.999Z</time></trkpt><trkpt lat="43.58246164267186" lon="12.210991595591794"><ele>819.0</ele><time>2026-04-12T08:12:37.999Z</time></trkpt><trkpt lat="43.58251067305616" lon="12.210915036432333"><ele>819.0</ele><time>2026-04-12T08:12:38.999Z</time></trkpt><trkpt lat="43.58256180474504" lon="12.210842105405991"><ele>819.0</ele><time>2026-04-12T08:12:39.999Z</time></trkpt><trkpt lat="43.5826142562224" lon="12.210782255140893"><ele>819.0</ele><time>2026-04-12T08:12:40.999Z</time></trkpt><trkpt lat="43.58270256840318" lon="12.210695312725296"><ele>819.0</ele><time>2026-04-12T08:12:42.999Z</time></trkpt><trkpt lat="43.58282110782668" lon="12.210612107081218"><ele>819.0</ele><time>2026-04-12T08:12:44.999Z</time></trkpt><trkpt lat="43.58290206378813" lon="12.210579623415391"><ele>818.3333333333334</ele><time>2026-04-12T08:12:45.999Z</time></trkpt><trkpt lat="43.58298802971161" lon="12.21056181251178"><ele>817.6666666666667</ele><time>2026-04-12T08:12:46.999Z</time></trkpt><trkpt lat="43.58306857280755" lon="12.210543065383378"><ele>817.0</ele><time>2026-04-12T08:12:47.999Z</time></trkpt><trkpt lat="43.583137644401724" lon="12.210532324877269"><ele>816.3333333333334</ele><time>2026-04-12T08:12:48.999Z</time></trkpt><trkpt lat="43.58321540957002" lon="12.210553546984462"><ele>815.6666666666667</ele><time>2026-04-12T08:12:49.999Z</time></trkpt><trkpt lat="43.583273193890605" lon="12.210615952333491"><ele>815.0</ele><time>2026-04-12T08:12:50.999Z</time></trkpt><trkpt lat="43.583319098317695" lon="12.21070895878962"><ele>815.0000000000001</ele><time>2026-04-12T08:12:51.999Z</time></trkpt><trkpt lat="43.58338558883728" lon="12.210820549644604"><ele>815.0</ele><time>2026-04-12T08:12:52.999Z</time></trkpt><trkpt lat="43.583437546610476" lon="12.210920551913189"><ele>815.0</ele><time>2026-04-12T08:12:53.999Z</time></trkpt><trkpt lat="43.58348255295584" lon="12.211008844780963"><ele>815.0</ele><time>2026-04-12T08:12:54.999Z</time></trkpt><trkpt lat="43.58351972210458" lon="12.211082682266655"><ele>815.0000000000001</ele><time>2026-04-12T08:12:55.999Z</time></trkpt><trkpt lat="43.583614092421726" lon="12.211114305226378"><ele>815.0</ele><time>2026-04-12T08:12:57.999Z</time></trkpt><trkpt lat="43.58370114489782" lon="12.210949097683672"><ele>816.0</ele><time>2026-04-12T08:12:59.999Z</time></trkpt><trkpt lat="43.5837838407521" lon="12.210793701134554"><ele>817.0</ele><time>2026-04-12T08:13:00.999Z</time></trkpt><trkpt lat="43.58386671043475" lon="12.210632967090879"><ele>818.0</ele><time>2026-04-12T08:13:01.999Z</time></trkpt><trkpt lat="43.58394319102027" lon="12.21049998465467"><ele>819.0</ele><time>2026-04-12T08:13:02.999Z</time></trkpt><trkpt lat="43.58399201928725" lon="12.210365869189237"><ele>815.8000000000001</ele><time>2026-04-12T08:13:03.999Z</time></trkpt><trkpt lat="43.584037488841176" lon="12.210241221796593"><ele>812.6</ele><time>2026-04-12T08:13:04.999Z</time></trkpt><trkpt lat="43.584090201521136" lon="12.210117642814184"><ele>809.4</ele><time>2026-04-12T08:13:05.999Z</time></trkpt><trkpt lat="43.584161494432585" lon="12.210004830639464"><ele>806.2</ele><time>2026-04-12T08:13:06.999Z</time></trkpt><trkpt lat="43.58425557758526" lon="12.20990009612178"><ele>803.0</ele><time>2026-04-12T08:13:07.999Z</time></trkpt><trkpt lat="43.584343825402165" lon="12.209817166914538"><ele>802.2</ele><time>2026-04-12T08:13:08.999Z</time></trkpt><trkpt lat="43.5844188860506" lon="12.20974187031071"><ele>801.4</ele><time>2026-04-12T08:13:09.999Z</time></trkpt><trkpt lat="43.58450066159722" lon="12.209643615775295"><ele>800.6</ele><time>2026-04-12T08:13:10.999Z</time></trkpt><trkpt lat="43.584573416306974" lon="12.209545613955443"><ele>799.8000000000001</ele><time>2026-04-12T08:13:11.999Z</time></trkpt><trkpt lat="43.58464805711507" lon="12.209463009076487"><ele>799.0</ele><time>2026-04-12T08:13:12.999Z</time></trkpt><trkpt lat="43.584729353265814" lon="12.209406853496091"><ele>799.0</ele><time>2026-04-12T08:13:13.999Z</time></trkpt><trkpt lat="43.58481828446094" lon="12.209359648724357"><ele>799.0</ele><time>2026-04-12T08:13:14.999Z</time></trkpt><trkpt lat="43.584918682473834" lon="12.209338149616155"><ele>799.0</ele><time>2026-04-12T08:13:15.999Z</time></trkpt><trkpt lat="43.58498547718195" lon="12.209308579853074"><ele>799.0</ele><time>2026-04-12T08:13:16.999Z</time></trkpt><trkpt lat="43.58505406438757" lon="12.209184159679307"><ele>799.0</ele><time>2026-04-12T08:13:18.999Z</time></trkpt><trkpt lat="43.58507155423748" lon="12.20907580852008"><ele>799.8000000000001</ele><time>2026-04-12T08:13:19.999Z</time></trkpt><trkpt lat="43.58509471238019" lon="12.208943747089496"><ele>800.6</ele><time>2026-04-12T08:13:20.999Z</time></trkpt><trkpt lat="43.58512777321921" lon="12.208811979503238"><ele>801.4</ele><time>2026-04-12T08:13:21.999Z</time></trkpt><trkpt lat="43.5851947603625" lon="12.208685195118658"><ele>802.2</ele><time>2026-04-12T08:13:22.999Z</time></trkpt><trkpt lat="43.58527946831905" lon="12.208566478643444"><ele>803.0</ele><time>2026-04-12T08:13:23.999Z</time></trkpt><trkpt lat="43.585364047162166" lon="12.208455361430342"><ele>803.0</ele><time>2026-04-12T08:13:24.999Z</time></trkpt><trkpt lat="43.58546845102932" lon="12.208402237095768"><ele>803.0</ele><time>2026-04-12T08:13:25.999Z</time></trkpt><trkpt lat="43.58556122721758" lon="12.208336814353721"><ele>803.0</ele><time>2026-04-12T08:13:26.999Z</time></trkpt><trkpt lat="43.5856686371238" lon="12.20825851376771"><ele>803.0</ele><time>2026-04-12T08:13:27.999Z</time></trkpt><trkpt lat="43.58577268774892" lon="12.208168777769925"><ele>798.0</ele><time>2026-04-12T08:13:28.999Z</time></trkpt><trkpt lat="43.5858753094225" lon="12.208063048107814"><ele>793.0</ele><time>2026-04-12T08:13:29.999Z</time></trkpt><trkpt lat="43.58598667986385" lon="12.2079370405051"><ele>788.0</ele><time>2026-04-12T08:13:30.999Z</time></trkpt><trkpt lat="43.58606303723783" lon="12.207832835731855"><ele>783.0</ele><time>2026-04-12T08:13:31.999Z</time></trkpt><trkpt lat="43.5861342214603" lon="12.207704767180536"><ele>786.2</ele><time>2026-04-12T08:13:32.999Z</time></trkpt><trkpt lat="43.58619516768117" lon="12.207583214790798"><ele>789.4</ele><time>2026-04-12T08:13:33.999Z</time></trkpt><trkpt lat="43.58625392075977" lon="12.207470070425186"><ele>792.6</ele><time>2026-04-12T08:13:34.999Z</time></trkpt><trkpt lat="43.58632349517086" lon="12.207411457311832"><ele>795.8000000000001</ele><time>2026-04-12T08:13:35.998Z</time></trkpt><trkpt lat="43.58640050417384" lon="12.207379000098987"><ele>799.0</ele><time>2026-04-12T08:13:36.998Z</time></trkpt><trkpt lat="43.58648075423501" lon="12.207368521698339"><ele>798.9999999999999</ele><time>2026-04-12T08:13:37.998Z</time></trkpt><trkpt lat="43.58655130866249" lon="12.207400718194352"><ele>799.0</ele><time>2026-04-12T08:13:38.998Z</time></trkpt><trkpt lat="43.58663134882117" lon="12.207450740664228"><ele>799.0</ele><time>2026-04-12T08:13:39.998Z</time></trkpt><trkpt lat="43.5867031071423" lon="12.207521499480515"><ele>799.0</ele><time>2026-04-12T08:13:40.998Z</time></trkpt><trkpt lat="43.58676837134891" lon="12.207591026263428"><ele>798.9999999999999</ele><time>2026-04-12T08:13:41.998Z</time></trkpt><trkpt lat="43.586844007167805" lon="12.207665475076414"><ele>799.0</ele><time>2026-04-12T08:13:42.998Z</time></trkpt><trkpt lat="43.58691717837853" lon="12.207742199754625"><ele>798.9999999999999</ele><time>2026-04-12T08:13:43.998Z</time></trkpt><trkpt lat="43.58698898960169" lon="12.207813728197886"><ele>799.0</ele><time>2026-04-12T08:13:44.998Z</time></trkpt><trkpt lat="43.5870730672182" lon="12.207866774015471"><ele>799.0</ele><time>2026-04-12T08:13:45.998Z</time></trkpt><trkpt lat="43.58715133556314" lon="12.207874472791982"><ele>799.0</ele><time>2026-04-12T08:13:46.998Z</time></trkpt><trkpt lat="43.587229364617045" lon="12.207851551413981"><ele>798.9999999999999</ele><time>2026-04-12T08:13:47.998Z</time></trkpt><trkpt lat="43.587288981138876" lon="12.20779181403054"><ele>799.0</ele><time>2026-04-12T08:13:48.998Z</time></trkpt><trkpt lat="43.587346206618946" lon="12.20770552527883"><ele>798.8000000000001</ele><time>2026-04-12T08:13:49.998Z</time></trkpt><trkpt lat="43.587413221992286" lon="12.207587282012431"><ele>798.6</ele><time>2026-04-12T08:13:50.998Z</time></trkpt><trkpt lat="43.58747065249555" lon="12.2074806944588"><ele>798.4</ele><time>2026-04-12T08:13:51.998Z</time></trkpt><trkpt lat="43.58754355629916" lon="12.20739869452742"><ele>798.2</ele><time>2026-04-12T08:13:52.998Z</time></trkpt><trkpt lat="43.58762907729914" lon="12.207310578770128"><ele>798.0</ele><time>2026-04-12T08:13:53.998Z</time></trkpt><trkpt lat="43.58770657279054" lon="12.207233383946432"><ele>798.0</ele><time>2026-04-12T08:13:54.998Z</time></trkpt><trkpt lat="43.587781619180504" lon="12.207194667521938"><ele>798.0</ele><time>2026-04-12T08:13:55.998Z</time></trkpt><trkpt lat="43.58785951267939" lon="12.207182718163772"><ele>798.0</ele><time>2026-04-12T08:13:56.998Z</time></trkpt><trkpt lat="43.587934426047156" lon="12.20720906191163"><ele>798.0</ele><time>2026-04-12T08:13:57.998Z</time></trkpt><trkpt lat="43.588011716057004" lon="12.207261166723317"><ele>798.0</ele><time>2026-04-12T08:13:59Z</time></trkpt><trkpt lat="43.58810206687348" lon="12.207309304373808"><ele>798.0</ele><time>2026-04-12T08:14:00Z</time></trkpt><trkpt lat="43.58820215009819" lon="12.207347722881469"><ele>798.5</ele><time>2026-04-12T08:14:01Z</time></trkpt><trkpt lat="43.58828996078765" lon="12.20736885427286"><ele>799.0</ele><time>2026-04-12T08:14:02Z</time></trkpt><trkpt lat="43.58836692378236" lon="12.207352881955181"><ele>799.5</ele><time>2026-04-12T08:14:03Z</time></trkpt><trkpt lat="43.588456870361995" lon="12.20732315764657"><ele>800.0</ele><time>2026-04-12T08:14:04Z</time></trkpt><trkpt lat="43.58854348869507" lon="12.207273773264173"><ele>800.5</ele><time>2026-04-12T08:14:05Z</time></trkpt><trkpt lat="43.588614747499456" lon="12.207216491379327"><ele>801.0</ele><time>2026-04-12T08:14:06Z</time></trkpt><trkpt lat="43.58867833001509" lon="12.207132897560037"><ele>802.4</ele><time>2026-04-12T08:14:07Z</time></trkpt><trkpt lat="43.58872898955111" lon="12.207035396872639"><ele>803.8</ele><time>2026-04-12T08:14:08Z</time></trkpt><trkpt lat="43.588799356432276" lon="12.206935169107325"><ele>805.1999999999999</ele><time>2026-04-12T08:14:09Z</time></trkpt><trkpt lat="43.58886870709132" lon="12.206869986430531"><ele>806.5999999999999</ele><time>2026-04-12T08:14:10Z</time></trkpt><trkpt lat="43.588957450736956" lon="12.206833064951212"><ele>808.0</ele><time>2026-04-12T08:14:11Z</time></trkpt><trkpt lat="43.589043869900785" lon="12.20684417609884"><ele>807.9999999999999</ele><time>2026-04-12T08:14:12Z</time></trkpt><trkpt lat="43.58911735292148" lon="12.206861451226185"><ele>808.0</ele><time>2026-04-12T08:14:13Z</time></trkpt><trkpt lat="43.58918750612651" lon="12.206919403976649"><ele>808.0</ele><time>2026-04-12T08:14:14Z</time></trkpt><trkpt lat="43.589269478417364" lon="12.206963529150904"><ele>808.0</ele><time>2026-04-12T08:14:15Z</time></trkpt><trkpt lat="43.58936453025725" lon="12.207007745524848"><ele>807.9999999999999</ele><time>2026-04-12T08:14:16Z</time></trkpt><trkpt lat="43.58943872632746" lon="12.207013637442055"><ele>808.0</ele><time>2026-04-12T08:14:17Z</time></trkpt><trkpt lat="43.58953387039417" lon="12.206958714033512"><ele>808.8333333333333</ele><time>2026-04-12T08:14:19Z</time></trkpt><trkpt lat="43.5895861316696" lon="12.206907693188823"><ele>809.6666666666666</ele><time>2026-04-12T08:14:20Z</time></trkpt><trkpt lat="43.58965863250989" lon="12.206852713628612"><ele>810.5</ele><time>2026-04-12T08:14:21Z</time></trkpt><trkpt lat="43.589740828106834" lon="12.206817979824347"><ele>811.3333333333333</ele><time>2026-04-12T08:14:22Z</time></trkpt><trkpt lat="43.58980776479938" lon="12.206803805595442"><ele>812.1666666666666</ele><time>2026-04-12T08:14:23Z</time></trkpt><trkpt lat="43.58990670759899" lon="12.206751607473478"><ele>813.0</ele><time>2026-04-12T08:14:25Z</time></trkpt><trkpt lat="43.59000171633938" lon="12.206690563719874"><ele>813.0</ele><time>2026-04-12T08:14:27Z</time></trkpt><trkpt lat="43.59010251869381" lon="12.206618462945574"><ele>813.0</ele><time>2026-04-12T08:14:29Z</time></trkpt><trkpt lat="43.590157616750034" lon="12.206570488357121"><ele>813.0</ele><time>2026-04-12T08:14:30Z</time></trkpt><trkpt lat="43.59025210066862" lon="12.206533691668806"><ele>813.0</ele><time>2026-04-12T08:14:32Z</time></trkpt><trkpt lat="43.59034630839745" lon="12.206536281304098"><ele>813.0</ele><time>2026-04-12T08:14:42Z</time></trkpt><trkpt lat="43.59048066620081" lon="12.20656112856346"><ele>813.6666666666666</ele><time>2026-04-12T08:14:44Z</time></trkpt><trkpt lat="43.590558191529325" lon="12.206620255652762"><ele>814.3333333333333</ele><time>2026-04-12T08:14:44.999Z</time></trkpt><trkpt lat="43.590612174829594" lon="12.206708016747767"><ele>815.0</ele><time>2026-04-12T08:14:45.999Z</time></trkpt><trkpt lat="43.59067575829493" lon="12.206782240312174"><ele>815.6666666666666</ele><time>2026-04-12T08:14:46.999Z</time></trkpt><trkpt lat="43.59074568945651" lon="12.20682921670999"><ele>816.3333333333333</ele><time>2026-04-12T08:14:47.999Z</time></trkpt><trkpt lat="43.59081455404013" lon="12.206851886821584"><ele>817.0</ele><time>2026-04-12T08:14:48.999Z</time></trkpt><trkpt lat="43.59089864905709" lon="12.206851361357876"><ele>816.9999999999999</ele><time>2026-04-12T08:14:49.999Z</time></trkpt><trkpt lat="43.59097980728831" lon="12.206836670183595"><ele>817.0</ele><time>2026-04-12T08:14:50.999Z</time></trkpt><trkpt lat="43.59104819505848" lon="12.206819541057179"><ele>817.0</ele><time>2026-04-12T08:14:51.999Z</time></trkpt><trkpt lat="43.591126163029635" lon="12.20682893338534"><ele>817.0</ele><time>2026-04-12T08:14:52.999Z</time></trkpt><trkpt lat="43.591179823320324" lon="12.20687632726021"><ele>816.9999999999999</ele><time>2026-04-12T08:14:53.999Z</time></trkpt><trkpt lat="43.59124972849642" lon="12.206938089812056"><ele>817.0</ele><time>2026-04-12T08:14:54.999Z</time></trkpt><trkpt lat="43.59133954220541" lon="12.20699325069716"><ele>817.3333333333333</ele><time>2026-04-12T08:14:56.999Z</time></trkpt><trkpt lat="43.591387998942324" lon="12.207077666929944"><ele>817.6666666666666</ele><time>2026-04-12T08:14:58.999Z</time></trkpt><trkpt lat="43.59145830777847" lon="12.20708520307079"><ele>818.0</ele><time>2026-04-12T08:15:02.999Z</time></trkpt><trkpt lat="43.59139633633195" lon="12.206987685220177"><ele>818.3333333333333</ele><time>2026-04-12T08:15:07.999Z</time></trkpt><trkpt lat="43.591327914476054" lon="12.206969518309498"><ele>818.6666666666666</ele><time>2026-04-12T08:15:08.999Z</time></trkpt><trkpt lat="43.591251935112794" lon="12.206937460500056"><ele>819.0</ele><time>2026-04-12T08:15:09.999Z</time></trkpt><trkpt lat="43.59117792693627" lon="12.20690311862729"><ele>818.6</ele><time>2026-04-12T08:15:10.999Z</time></trkpt><trkpt lat="43.59111335806004" lon="12.206873671204631"><ele>818.2</ele><time>2026-04-12T08:15:11.999Z</time></trkpt><trkpt lat="43.591003678883965" lon="12.20680817527248"><ele>817.8000000000001</ele><time>2026-04-12T08:15:13.999Z</time></trkpt><trkpt lat="43.590911104942684" lon="12.20678693254164"><ele>817.4000000000001</ele><time>2026-04-12T08:15:15.999Z</time></trkpt><trkpt lat="43.59079335450571" lon="12.206812513385103"><ele>817.0</ele><time>2026-04-12T08:15:17.999Z</time></trkpt><trkpt lat="43.59067722671327" lon="12.20680412377994"><ele>817.0</ele><time>2026-04-12T08:15:19.999Z</time></trkpt><trkpt lat="43.59059231293805" lon="12.206725577947344"><ele>817.0</ele><time>2026-04-12T08:15:21.999Z</time></trkpt><trkpt lat="43.59052236597683" lon="12.206625663874012"><ele>817.0</ele><time>2026-04-12T08:15:23.999Z</time></trkpt><trkpt lat="43.590425743744866" lon="12.206549700259815"><ele>817.0</ele><time>2026-04-12T08:15:25.999Z</time></trkpt><trkpt lat="43.590345347626176" lon="12.20654024753163"><ele>817.0</ele><time>2026-04-12T08:15:26.999Z</time></trkpt><trkpt lat="43.59022642008421" lon="12.206539056997507"><ele>816.2</ele><time>2026-04-12T08:15:28.999Z</time></trkpt><trkpt lat="43.59015652525799" lon="12.20657384622065"><ele>815.4000000000001</ele><time>2026-04-12T08:15:29.999Z</time></trkpt><trkpt lat="43.590072671438215" lon="12.206626851711192"><ele>814.5999999999999</ele><time>2026-04-12T08:15:30.999Z</time></trkpt><trkpt lat="43.58998651345168" lon="12.206707951797629"><ele>813.8</ele><time>2026-04-12T08:15:31.999Z</time></trkpt><trkpt lat="43.58989912610736" lon="12.20677039017223"><ele>813.0</ele><time>2026-04-12T08:15:32.999Z</time></trkpt><trkpt lat="43.58980147027215" lon="12.206815987422651"><ele>813.0</ele><time>2026-04-12T08:15:33.999Z</time></trkpt><trkpt lat="43.589699626264675" lon="12.206859177312483"><ele>813.0</ele><time>2026-04-12T08:15:34.999Z</time></trkpt><trkpt lat="43.589610393803284" lon="12.20690465861342"><ele>813.0</ele><time>2026-04-12T08:15:35.999Z</time></trkpt><trkpt lat="43.58955002231186" lon="12.206943194816109"><ele>813.0</ele><time>2026-04-12T08:15:36.999Z</time></trkpt><trkpt lat="43.58949748509221" lon="12.206994557707525"><ele>813.0</ele><time>2026-04-12T08:15:37.999Z</time></trkpt><trkpt lat="43.589491448594934" lon="12.206881189953435"><ele>813.0</ele><time>2026-04-12T08:15:41.999Z</time></trkpt><trkpt lat="43.589546880599585" lon="12.206817521461973"><ele>813.0</ele><time>2026-04-12T08:15:42.999Z</time></trkpt><trkpt lat="43.58961955674017" lon="12.206772546521337"><ele>813.0</ele><time>2026-04-12T08:15:43.999Z</time></trkpt><trkpt lat="43.589703227728826" lon="12.206762194963764"><ele>813.0</ele><time>2026-04-12T08:15:44.999Z</time></trkpt><trkpt lat="43.5897837915135" lon="12.206749860971993"><ele>813.0</ele><time>2026-04-12T08:15:45.998Z</time></trkpt><trkpt lat="43.589905637152235" lon="12.206691031905548"><ele>813.0</ele><time>2026-04-12T08:15:47.998Z</time></trkpt><trkpt lat="43.589987724137934" lon="12.20660694266727"><ele>813.0</ele><time>2026-04-12T08:15:48.998Z</time></trkpt><trkpt lat="43.59006899150301" lon="12.206526892920841"><ele>813.0</ele><time>2026-04-12T08:15:49.998Z</time></trkpt><trkpt lat="43.59011994436092" lon="12.206448475102968"><ele>813.0</ele><time>2026-04-12T08:15:50.998Z</time></trkpt><trkpt lat="43.5901684119297" lon="12.206358164733462"><ele>813.0</ele><time>2026-04-12T08:15:51.998Z</time></trkpt><trkpt lat="43.59020752551857" lon="12.206270332674114"><ele>813.0</ele><time>2026-04-12T08:15:52.998Z</time></trkpt><trkpt lat="43.59026601856976" lon="12.206190781527631"><ele>813.0</ele><time>2026-04-12T08:15:53.998Z</time></trkpt><trkpt lat="43.59034997268646" lon="12.206134310980342"><ele>811.4</ele><time>2026-04-12T08:15:54.998Z</time></trkpt><trkpt lat="43.59044277373145" lon="12.20605729806072"><ele>809.8</ele><time>2026-04-12T08:15:55.998Z</time></trkpt><trkpt lat="43.590532017999436" lon="12.205983239974787"><ele>808.2</ele><time>2026-04-12T08:15:56.998Z</time></trkpt><trkpt lat="43.59060400457886" lon="12.205903738791147"><ele>806.6</ele><time>2026-04-12T08:15:57.998Z</time></trkpt><trkpt lat="43.59067355674048" lon="12.205823128040777"><ele>805.0</ele><time>2026-04-12T08:15:58.998Z</time></trkpt><trkpt lat="43.590742292637266" lon="12.205733147434671"><ele>802.0</ele><time>2026-04-12T08:15:59.998Z</time></trkpt><trkpt lat="43.590823326671966" lon="12.205631793439109"><ele>799.0</ele><time>2026-04-12T08:16:00.998Z</time></trkpt><trkpt lat="43.59090798410555" lon="12.205525009867008"><ele>796.0</ele><time>2026-04-12T08:16:01.998Z</time></trkpt><trkpt lat="43.59100661569424" lon="12.20541296635101"><ele>793.0</ele><time>2026-04-12T08:16:02.998Z</time></trkpt><trkpt lat="43.59109329087784" lon="12.20533123454189"><ele>792.9999999999999</ele><time>2026-04-12T08:16:03.998Z</time></trkpt><trkpt lat="43.59116287173996" lon="12.205262275239784"><ele>793.0</ele><time>2026-04-12T08:16:05Z</time></trkpt><trkpt lat="43.591231959685935" lon="12.205182899178112"><ele>793.0</ele><time>2026-04-12T08:16:06Z</time></trkpt><trkpt lat="43.59127159888981" lon="12.205087048637058"><ele>793.0</ele><time>2026-04-12T08:16:07Z</time></trkpt><trkpt lat="43.59128844439203" lon="12.204975818052432"><ele>792.9999999999999</ele><time>2026-04-12T08:16:08Z</time></trkpt><trkpt lat="43.59130692868701" lon="12.20486284622856"><ele>793.0</ele><time>2026-04-12T08:16:09Z</time></trkpt><trkpt lat="43.59136792194672" lon="12.20478352221964"><ele>792.2</ele><time>2026-04-12T08:16:10Z</time></trkpt><trkpt lat="43.59144052921348" lon="12.20471807234497"><ele>791.4</ele><time>2026-04-12T08:16:11Z</time></trkpt><trkpt lat="43.59153241985374" lon="12.204648167090353"><ele>790.6</ele><time>2026-04-12T08:16:12Z</time></trkpt><trkpt lat="43.59159955317638" lon="12.204559190751569"><ele>789.8000000000001</ele><time>2026-04-12T08:16:13Z</time></trkpt><trkpt lat="43.591679098810275" lon="12.204453580470979"><ele>789.0</ele><time>2026-04-12T08:16:14Z</time></trkpt><trkpt lat="43.5917593136982" lon="12.20435363037164"><ele>789.0</ele><time>2026-04-12T08:16:15Z</time></trkpt><trkpt lat="43.591826575175055" lon="12.204256702885147"><ele>789.0</ele><time>2026-04-12T08:16:16Z</time></trkpt><trkpt lat="43.59190808209417" lon="12.204155217694975"><ele>789.0</ele><time>2026-04-12T08:16:17Z</time></trkpt><trkpt lat="43.59199836815791" lon="12.204038279551396"><ele>789.0</ele><time>2026-04-12T08:16:18Z</time></trkpt><trkpt lat="43.592089290107424" lon="12.203922116389073"><ele>787.4000000000001</ele><time>2026-04-12T08:16:19Z</time></trkpt><trkpt lat="43.592183533274266" lon="12.203826411147544"><ele>785.8</ele><time>2026-04-12T08:16:20Z</time></trkpt><trkpt lat="43.59226188445886" lon="12.203759744874807"><ele>784.2</ele><time>2026-04-12T08:16:21Z</time></trkpt><trkpt lat="43.59234376973867" lon="12.203690946842926"><ele>782.5999999999999</ele><time>2026-04-12T08:16:22Z</time></trkpt><trkpt lat="43.59242970411328" lon="12.203600133896881"><ele>781.0</ele><time>2026-04-12T08:16:23Z</time></trkpt><trkpt lat="43.592491246774834" lon="12.203522945120268"><ele>780.9999999999999</ele><time>2026-04-12T08:16:24Z</time></trkpt><trkpt lat="43.592552113419174" lon="12.203440629597155"><ele>781.0</ele><time>2026-04-12T08:16:25Z</time></trkpt><trkpt lat="43.59260332224185" lon="12.20335460370579"><ele>781.0</ele><time>2026-04-12T08:16:26Z</time></trkpt><trkpt lat="43.59266292248733" lon="12.20327367223316"><ele>781.0</ele><time>2026-04-12T08:16:27Z</time></trkpt><trkpt lat="43.59272379209673" lon="12.203188053525873"><ele>780.9999999999999</ele><time>2026-04-12T08:16:28Z</time></trkpt><trkpt lat="43.592779571771736" lon="12.20311583688492"><ele>781.0</ele><time>2026-04-12T08:16:29Z</time></trkpt><trkpt lat="43.592813756145425" lon="12.203032450281896"><ele>780.9999999999999</ele><time>2026-04-12T08:16:30Z</time></trkpt><trkpt lat="43.59283115627219" lon="12.202933596855008"><ele>781.0</ele><time>2026-04-12T08:16:31Z</time></trkpt><trkpt lat="43.59286708119353" lon="12.202820217781793"><ele>781.0</ele><time>2026-04-12T08:16:33Z</time></trkpt><trkpt lat="43.59297419595352" lon="12.202795116684577"><ele>781.0</ele><time>2026-04-12T08:16:35Z</time></trkpt><trkpt lat="43.593063310320346" lon="12.202814724622892"><ele>780.9999999999999</ele><time>2026-04-12T08:16:37Z</time></trkpt><trkpt lat="43.59313804955653" lon="12.202834376574485"><ele>781.0</ele><time>2026-04-12T08:16:39Z</time></trkpt><trkpt lat="43.593211389598494" lon="12.202876524843678"><ele>783.3333333333333</ele><time>2026-04-12T08:16:41Z</time></trkpt><trkpt lat="43.593281783625095" lon="12.202908358214557"><ele>785.6666666666666</ele><time>2026-04-12T08:16:43Z</time></trkpt><trkpt lat="43.593344800193655" lon="12.20290044562137"><ele>788.0</ele><time>2026-04-12T08:16:46Z</time></trkpt><trkpt lat="43.59338797066184" lon="12.202802366521404"><ele>790.3333333333333</ele><time>2026-04-12T08:16:49Z</time></trkpt><trkpt lat="43.59331333204004" lon="12.202717569268605"><ele>792.6666666666666</ele><time>2026-04-12T08:16:50.999Z</time></trkpt><trkpt lat="43.59324071861424" lon="12.202646670469033"><ele>795.0</ele><time>2026-04-12T08:16:51.999Z</time></trkpt><trkpt lat="43.593169291011534" lon="12.202581342630697"><ele>795.0</ele><time>2026-04-12T08:16:52.999Z</time></trkpt><trkpt lat="43.59308210707577" lon="12.202526146290442"><ele>795.0</ele><time>2026-04-12T08:16:53.999Z</time></trkpt><trkpt lat="43.5930216464266" lon="12.202464830791811"><ele>795.0</ele><time>2026-04-12T08:16:54.999Z</time></trkpt><trkpt lat="43.592977684191105" lon="12.202388460104713"><ele>795.0</ele><time>2026-04-12T08:16:55.999Z</time></trkpt><trkpt lat="43.592903382617514" lon="12.20231286152147"><ele>795.0</ele><time>2026-04-12T08:16:56.999Z</time></trkpt><trkpt lat="43.59282203059684" lon="12.202287199598306"><ele>795.0</ele><time>2026-04-12T08:16:57.999Z</time></trkpt><trkpt lat="43.59271700312931" lon="12.202286964852341"><ele>792.5</ele><time>2026-04-12T08:16:58.999Z</time></trkpt><trkpt lat="43.59263044209587" lon="12.202277126354547"><ele>790.0</ele><time>2026-04-12T08:16:59.999Z</time></trkpt><trkpt lat="43.59255916334949" lon="12.202259039991544"><ele>787.5</ele><time>2026-04-12T08:17:00.999Z</time></trkpt><trkpt lat="43.592473613425994" lon="12.202264283247986"><ele>785.0</ele><time>2026-04-12T08:17:01.999Z</time></trkpt><trkpt lat="43.592420910025716" lon="12.202179373480122"><ele>782.5</ele><time>2026-04-12T08:17:03.999Z</time></trkpt><trkpt lat="43.59248017936401" lon="12.202047051181303"><ele>780.0</ele><time>2026-04-12T08:17:05.999Z</time></trkpt><trkpt lat="43.59250339526176" lon="12.201965412887734"><ele>780.0</ele><time>2026-04-12T08:17:06.999Z</time></trkpt><trkpt lat="43.592555685327866" lon="12.201843283872492"><ele>780.0</ele><time>2026-04-12T08:17:08.999Z</time></trkpt><trkpt lat="43.592608704492875" lon="12.201746443103774"><ele>780.0</ele><time>2026-04-12T08:17:10.999Z</time></trkpt><trkpt lat="43.59266200494189" lon="12.201673168966112"><ele>780.0</ele><time>2026-04-12T08:17:12.999Z</time></trkpt><trkpt lat="43.59270892835958" lon="12.2015934408331"><ele>780.0</ele><time>2026-04-12T08:17:14.999Z</time></trkpt><trkpt lat="43.5927573238937" lon="12.201520072019997"><ele>780.0</ele><time>2026-04-12T08:17:16.999Z</time></trkpt><trkpt lat="43.5928130388652" lon="12.20143869172763"><ele>782.3333333333334</ele><time>2026-04-12T08:17:18.999Z</time></trkpt><trkpt lat="43.592858976785266" lon="12.201366518270726"><ele>784.6666666666667</ele><time>2026-04-12T08:17:19.999Z</time></trkpt><trkpt lat="43.59291493247374" lon="12.201219410660908"><ele>787.0</ele><time>2026-04-12T08:17:21.999Z</time></trkpt><trkpt lat="43.592957105877744" lon="12.201118266508944"><ele>789.3333333333334</ele><time>2026-04-12T08:17:22.999Z</time></trkpt><trkpt lat="43.59299064302578" lon="12.200994593021925"><ele>791.6666666666667</ele><time>2026-04-12T08:17:23.999Z</time></trkpt><trkpt lat="43.593012998454164" lon="12.200906233232082"><ele>794.0</ele><time>2026-04-12T08:17:24.999Z</time></trkpt><trkpt lat="43.5929525767905" lon="12.200819116429145"><ele>791.5</ele><time>2026-04-12T08:17:26.999Z</time></trkpt><trkpt lat="43.59282082812037" lon="12.200767493494197"><ele>789.0</ele><time>2026-04-12T08:17:28.999Z</time></trkpt><trkpt lat="43.592712192285106" lon="12.200774043944143"><ele>786.5</ele><time>2026-04-12T08:17:29.999Z</time></trkpt><trkpt lat="43.59260376935293" lon="12.200824430625811"><ele>784.0</ele><time>2026-04-12T08:17:30.999Z</time></trkpt><trkpt lat="43.59251434606023" lon="12.20088009665002"><ele>783.9999999999999</ele><time>2026-04-12T08:17:31.999Z</time></trkpt><trkpt lat="43.59242981146283" lon="12.20095731541034"><ele>784.0</ele><time>2026-04-12T08:17:32.999Z</time></trkpt><trkpt lat="43.59236087781265" lon="12.201001296297543"><ele>784.0</ele><time>2026-04-12T08:17:33.999Z</time></trkpt><trkpt lat="43.59227945572159" lon="12.200991698626492"><ele>784.0</ele><time>2026-04-12T08:17:34.999Z</time></trkpt><trkpt lat="43.592189398727236" lon="12.200945678416355"><ele>783.9999999999999</ele><time>2026-04-12T08:17:35.999Z</time></trkpt><trkpt lat="43.59210927042087" lon="12.20091120405211"><ele>784.0</ele><time>2026-04-12T08:17:36.999Z</time></trkpt><trkpt lat="43.59204226406549" lon="12.200842997792671"><ele>783.8000000000001</ele><time>2026-04-12T08:17:37.999Z</time></trkpt><trkpt lat="43.591989872036" lon="12.200758101811035"><ele>783.6</ele><time>2026-04-12T08:17:38.999Z</time></trkpt><trkpt lat="43.59194892060457" lon="12.200641023210569"><ele>783.4</ele><time>2026-04-12T08:17:39.999Z</time></trkpt><trkpt lat="43.59193070917107" lon="12.200510743261052"><ele>783.2</ele><time>2026-04-12T08:17:40.999Z</time></trkpt><trkpt lat="43.59189985169076" lon="12.200383510339096"><ele>783.0</ele><time>2026-04-12T08:17:41.999Z</time></trkpt><trkpt lat="43.591869302125964" lon="12.200254202032426"><ele>783.0</ele><time>2026-04-12T08:17:42.999Z</time></trkpt><trkpt lat="43.59184841716393" lon="12.200131030180467"><ele>783.0</ele><time>2026-04-12T08:17:43.999Z</time></trkpt><trkpt lat="43.591829714014935" lon="12.200031650644913"><ele>783.0</ele><time>2026-04-12T08:17:44.999Z</time></trkpt><trkpt lat="43.5918316572855" lon="12.19992308997147"><ele>783.0</ele><time>2026-04-12T08:17:45.999Z</time></trkpt><trkpt lat="43.591811799473" lon="12.199789502658497"><ele>783.0</ele><time>2026-04-12T08:17:47.999Z</time></trkpt><trkpt lat="43.59171720216486" lon="12.199805577399353"><ele>783.0</ele><time>2026-04-12T08:17:49.999Z</time></trkpt><trkpt lat="43.59164254716858" lon="12.199896195274402"><ele>783.0</ele><time>2026-04-12T08:17:51.998Z</time></trkpt><trkpt lat="43.591609957348766" lon="12.200009270161058"><ele>783.0</ele><time>2026-04-12T08:17:52.998Z</time></trkpt><trkpt lat="43.59158111019917" lon="12.200146259112097"><ele>783.0</ele><time>2026-04-12T08:17:53.998Z</time></trkpt><trkpt lat="43.59154299032668" lon="12.20024920290541"><ele>783.0</ele><time>2026-04-12T08:17:54.998Z</time></trkpt><trkpt lat="43.59149309294435" lon="12.2003405892267"><ele>783.0</ele><time>2026-04-12T08:17:55.998Z</time></trkpt><trkpt lat="43.59142435659502" lon="12.200489870929612"><ele>783.0</ele><time>2026-04-12T08:17:57.998Z</time></trkpt><trkpt lat="43.59139917903307" lon="12.200608404702026"><ele>783.0</ele><time>2026-04-12T08:17:58.998Z</time></trkpt><trkpt lat="43.5913564460354" lon="12.200723712966923"><ele>783.0</ele><time>2026-04-12T08:17:59.998Z</time></trkpt><trkpt lat="43.591296669936696" lon="12.200804667185393"><ele>783.0</ele><time>2026-04-12T08:18:00.998Z</time></trkpt><trkpt lat="43.59124020138894" lon="12.200854526273877"><ele>783.0</ele><time>2026-04-12T08:18:01.998Z</time></trkpt><trkpt lat="43.59117960596916" lon="12.200900668993162"><ele>783.0</ele><time>2026-04-12T08:18:02.998Z</time></trkpt><trkpt lat="43.59110678373738" lon="12.200928813436988"><ele>783.6666666666666</ele><time>2026-04-12T08:18:03.998Z</time></trkpt><trkpt lat="43.59103307534766" lon="12.200985548337554"><ele>784.3333333333333</ele><time>2026-04-12T08:18:04.998Z</time></trkpt><trkpt lat="43.590956022337885" lon="12.201041810732084"><ele>785.0</ele><time>2026-04-12T08:18:05.998Z</time></trkpt><trkpt lat="43.5908670511275" lon="12.201041329654549"><ele>785.6666666666666</ele><time>2026-04-12T08:18:06.998Z</time></trkpt><trkpt lat="43.59077452532509" lon="12.201031322571676"><ele>786.3333333333333</ele><time>2026-04-12T08:18:07.998Z</time></trkpt><trkpt lat="43.59069256127949" lon="12.20099762642512"><ele>787.0</ele><time>2026-04-12T08:18:08.998Z</time></trkpt><trkpt lat="43.59058914129893" lon="12.200952449394183"><ele>787.0</ele><time>2026-04-12T08:18:09.998Z</time></trkpt><trkpt lat="43.590497666548465" lon="12.20091432843593"><ele>787.0</ele><time>2026-04-12T08:18:11Z</time></trkpt><trkpt lat="43.59039566240044" lon="12.20092839905222"><ele>787.0</ele><time>2026-04-12T08:18:12Z</time></trkpt><trkpt lat="43.59027860060705" lon="12.200973952972511"><ele>787.0</ele><time>2026-04-12T08:18:13Z</time></trkpt><trkpt lat="43.59016319710562" lon="12.20100556998549"><ele>787.0</ele><time>2026-04-12T08:18:14Z</time></trkpt><trkpt lat="43.59006715886538" lon="12.20103108649111"><ele>787.4999999999999</ele><time>2026-04-12T08:18:15Z</time></trkpt><trkpt lat="43.590001799654786" lon="12.2010437433578"><ele>788.0</ele><time>2026-04-12T08:18:16Z</time></trkpt><trkpt lat="43.58993529134064" lon="12.20100333480778"><ele>788.5</ele><time>2026-04-12T08:18:17Z</time></trkpt><trkpt lat="43.58986582199129" lon="12.20093688859492"><ele>789.0</ele><time>2026-04-12T08:18:18Z</time></trkpt><trkpt lat="43.589789700401944" lon="12.20084660039649"><ele>789.4999999999999</ele><time>2026-04-12T08:18:19Z</time></trkpt><trkpt lat="43.58973605661269" lon="12.200781742583645"><ele>790.0</ele><time>2026-04-12T08:18:20Z</time></trkpt><trkpt lat="43.589714780325494" lon="12.20067865180222"><ele>793.6</ele><time>2026-04-12T08:18:32Z</time></trkpt><trkpt lat="43.589695671824195" lon="12.200576440922942"><ele>797.2</ele><time>2026-04-12T08:18:33Z</time></trkpt><trkpt lat="43.58967088291856" lon="12.200452329345184"><ele>800.8</ele><time>2026-04-12T08:18:34Z</time></trkpt><trkpt lat="43.58961692202995" lon="12.200332705969421"><ele>804.4</ele><time>2026-04-12T08:18:35Z</time></trkpt><trkpt lat="43.58955037985551" lon="12.200229650811998"><ele>808.0</ele><time>2026-04-12T08:18:36Z</time></trkpt><trkpt lat="43.58951516197823" lon="12.200117830986029"><ele>808.1428571428571</ele><time>2026-04-12T08:18:37Z</time></trkpt><trkpt lat="43.589491969614635" lon="12.200002085152352"><ele>808.2857142857142</ele><time>2026-04-12T08:18:38Z</time></trkpt><trkpt lat="43.58945877691842" lon="12.199909697651721"><ele>808.4285714285714</ele><time>2026-04-12T08:18:39Z</time></trkpt><trkpt lat="43.589424307716456" lon="12.199825595620393"><ele>808.5714285714286</ele><time>2026-04-12T08:18:40Z</time></trkpt><trkpt lat="43.58941652466778" lon="12.199735604631721"><ele>808.7142857142858</ele><time>2026-04-12T08:18:41Z</time></trkpt><trkpt lat="43.58944129512387" lon="12.199639392303538"><ele>808.8571428571429</ele><time>2026-04-12T08:18:42Z</time></trkpt><trkpt lat="43.58948469532085" lon="12.199562768052601"><ele>809.0</ele><time>2026-04-12T08:18:43Z</time></trkpt><trkpt lat="43.589555041322065" lon="12.199575215053176"><ele>809.0</ele><time>2026-04-12T08:18:45Z</time></trkpt><trkpt lat="43.58960019992382" lon="12.199732399330811"><ele>809.0</ele><time>2026-04-12T08:18:47Z</time></trkpt><trkpt lat="43.58966886819694" lon="12.199759596387583"><ele>809.0</ele><time>2026-04-12T08:18:49Z</time></trkpt><trkpt lat="43.58969539385102" lon="12.199633821670163"><ele>809.0</ele><time>2026-04-12T08:18:51Z</time></trkpt><trkpt lat="43.589690502886526" lon="12.19951310294524"><ele>809.0</ele><time>2026-04-12T08:18:53Z</time></trkpt><trkpt lat="43.58976919299579" lon="12.19949541347115"><ele>809.0000000000001</ele><time>2026-04-12T08:18:54.999Z</time></trkpt><trkpt lat="43.58983341350496" lon="12.199491676624197"><ele>809.0</ele><time>2026-04-12T08:18:55.999Z</time></trkpt><trkpt lat="43.58994290254057" lon="12.19942963876225"><ele>809.0</ele><time>2026-04-12T08:18:57.999Z</time></trkpt><trkpt lat="43.58999852042786" lon="12.199380602833903"><ele>809.0</ele><time>2026-04-12T08:18:58.999Z</time></trkpt><trkpt lat="43.59005506204459" lon="12.199333017753215"><ele>809.0000000000001</ele><time>2026-04-12T08:18:59.999Z</time></trkpt><trkpt lat="43.590113326327305" lon="12.199277446177028"><ele>809.0</ele><time>2026-04-12T08:19:00.999Z</time></trkpt><trkpt lat="43.5901782123182" lon="12.199224950662803"><ele>809.0000000000001</ele><time>2026-04-12T08:19:01.999Z</time></trkpt><trkpt lat="43.59026424974063" lon="12.199193144772472"><ele>809.0</ele><time>2026-04-12T08:19:02.999Z</time></trkpt><trkpt lat="43.59033945843063" lon="12.19917069330519"><ele>809.0</ele><time>2026-04-12T08:19:03.999Z</time></trkpt><trkpt lat="43.59037003390525" lon="12.199072675344333"><ele>809.0</ele><time>2026-04-12T08:19:05.999Z</time></trkpt><trkpt lat="43.590343196901" lon="12.198982011208146"><ele>809.0000000000001</ele><time>2026-04-12T08:19:06.999Z</time></trkpt><trkpt lat="43.59031099809262" lon="12.198891122670812"><ele>809.0</ele><time>2026-04-12T08:19:07.999Z</time></trkpt><trkpt lat="43.59033319510939" lon="12.198723572636133"><ele>810.2</ele><time>2026-04-12T08:19:09.999Z</time></trkpt><trkpt lat="43.5902826307029" lon="12.198536008607421"><ele>811.4000000000001</ele><time>2026-04-12T08:19:11.999Z</time></trkpt><trkpt lat="43.59025793559361" lon="12.198402897923632"><ele>812.6</ele><time>2026-04-12T08:19:12.999Z</time></trkpt><trkpt lat="43.590237723719554" lon="12.198269771338238"><ele>813.8</ele><time>2026-04-12T08:19:13.999Z</time></trkpt><trkpt lat="43.590225089184834" lon="12.198133528939142"><ele>815.0</ele><time>2026-04-12T08:19:14.999Z</time></trkpt><trkpt lat="43.59020526171523" lon="12.19799573926681"><ele>816.8</ele><time>2026-04-12T08:19:15.999Z</time></trkpt><trkpt lat="43.590207637189465" lon="12.197906088118293"><ele>818.6</ele><time>2026-04-12T08:19:16.999Z</time></trkpt><trkpt lat="43.590214843552246" lon="12.197782387562633"><ele>820.4000000000001</ele><time>2026-04-12T08:19:17.999Z</time></trkpt><trkpt lat="43.59025178972929" lon="12.19765767532802"><ele>822.2</ele><time>2026-04-12T08:19:18.999Z</time></trkpt><trkpt lat="43.590302851068515" lon="12.197562663721078"><ele>824.0</ele><time>2026-04-12T08:19:19.999Z</time></trkpt><trkpt lat="43.59029841773596" lon="12.197352517415748"><ele>826.0000000000001</ele><time>2026-04-12T08:19:21.999Z</time></trkpt><trkpt lat="43.59028893634252" lon="12.197196191558048"><ele>828.0</ele><time>2026-04-12T08:19:22.999Z</time></trkpt><trkpt lat="43.5902835420353" lon="12.197083216660006"><ele>830.0</ele><time>2026-04-12T08:19:23.999Z</time></trkpt><trkpt lat="43.59026333826658" lon="12.196988393506516"><ele>832.0</ele><time>2026-04-12T08:19:24.999Z</time></trkpt><trkpt lat="43.590225232598314" lon="12.196895567105274"><ele>834.0000000000001</ele><time>2026-04-12T08:19:25.999Z</time></trkpt><trkpt lat="43.59019507510961" lon="12.196772588100954"><ele>836.0</ele><time>2026-04-12T08:19:26.999Z</time></trkpt><trkpt lat="43.590199724936575" lon="12.196652021635835"><ele>836.0000000000001</ele><time>2026-04-12T08:19:27.999Z</time></trkpt><trkpt lat="43.59020409456199" lon="12.19652835139669"><ele>836.0</ele><time>2026-04-12T08:19:28.999Z</time></trkpt><trkpt lat="43.59018106342007" lon="12.196401764884298"><ele>836.0</ele><time>2026-04-12T08:19:29.999Z</time></trkpt><trkpt lat="43.5901365102177" lon="12.196298502515253"><ele>836.0</ele><time>2026-04-12T08:19:30.999Z</time></trkpt><trkpt lat="43.590075388016565" lon="12.196222702213289"><ele>836.0000000000001</ele><time>2026-04-12T08:19:31.999Z</time></trkpt><trkpt lat="43.59001015659626" lon="12.196175430038169"><ele>836.0</ele><time>2026-04-12T08:19:32.999Z</time></trkpt><trkpt lat="43.58992311202949" lon="12.196096333026263"><ele>838.1999999999999</ele><time>2026-04-12T08:19:33.999Z</time></trkpt><trkpt lat="43.58984935607703" lon="12.195993680583882"><ele>840.4</ele><time>2026-04-12T08:19:34.999Z</time></trkpt><trkpt lat="43.58978963286281" lon="12.19587584349352"><ele>842.6</ele><time>2026-04-12T08:19:35.999Z</time></trkpt><trkpt lat="43.58972544226853" lon="12.195761671506586"><ele>844.8</ele><time>2026-04-12T08:19:36.999Z</time></trkpt><trkpt lat="43.58965122453285" lon="12.195644290175904"><ele>847.0</ele><time>2026-04-12T08:19:37.999Z</time></trkpt><trkpt lat="43.58959186949064" lon="12.195513136827863"><ele>848.0</ele><time>2026-04-12T08:19:38.999Z</time></trkpt><trkpt lat="43.58953264566423" lon="12.195377152861559"><ele>849.0</ele><time>2026-04-12T08:19:39.999Z</time></trkpt><trkpt lat="43.58947438741767" lon="12.195303630271807"><ele>850.0</ele><time>2026-04-12T08:19:40.999Z</time></trkpt><trkpt lat="43.58938254633826" lon="12.195256060292605"><ele>851.0</ele><time>2026-04-12T08:19:41.999Z</time></trkpt><trkpt lat="43.58927387599242" lon="12.195236457761423"><ele>852.0</ele><time>2026-04-12T08:19:42.999Z</time></trkpt><trkpt lat="43.58919048047848" lon="12.195221147847223"><ele>852.0</ele><time>2026-04-12T08:19:43.999Z</time></trkpt><trkpt lat="43.58912484303295" lon="12.19520171726956"><ele>852.0</ele><time>2026-04-12T08:19:44.999Z</time></trkpt><trkpt lat="43.589060416466616" lon="12.195150772877492"><ele>852.0</ele><time>2026-04-12T08:19:45.999Z</time></trkpt><trkpt lat="43.58898658284576" lon="12.195058097878086"><ele>852.0</ele><time>2026-04-12T08:19:46.999Z</time></trkpt><trkpt lat="43.58891641192272" lon="12.19496084293178"><ele>852.0</ele><time>2026-04-12T08:19:47.999Z</time></trkpt><trkpt lat="43.58887061333198" lon="12.194875799619233"><ele>852.0</ele><time>2026-04-12T08:19:48.999Z</time></trkpt><trkpt lat="43.588847113810395" lon="12.194792427383291"><ele>851.6666666666666</ele><time>2026-04-12T08:19:49.999Z</time></trkpt><trkpt lat="43.5888760390243" lon="12.194694545065573"><ele>851.3333333333333</ele><time>2026-04-12T08:22:04.998Z</time></trkpt><trkpt lat="43.5888467469818" lon="12.194602375813163"><ele>851.0</ele><time>2026-04-12T08:22:06.998Z</time></trkpt><trkpt lat="43.58879671626317" lon="12.19452669901339"><ele>850.6666666666666</ele><time>2026-04-12T08:22:08.998Z</time></trkpt><trkpt lat="43.58875289647702" lon="12.19445921048133"><ele>850.3333333333333</ele><time>2026-04-12T08:22:10.998Z</time></trkpt><trkpt lat="43.588706981707276" lon="12.194377434017584"><ele>850.0</ele><time>2026-04-12T08:22:20.998Z</time></trkpt><trkpt lat="43.588677642539174" lon="12.194245511158522"><ele>850.4999999999999</ele><time>2026-04-12T08:22:24Z</time></trkpt><trkpt lat="43.58865798715858" lon="12.194153311793873"><ele>851.0</ele><time>2026-04-12T08:22:25Z</time></trkpt><trkpt lat="43.58863615757826" lon="12.19407005235897"><ele>851.5</ele><time>2026-04-12T08:22:26Z</time></trkpt><trkpt lat="43.58856318017184" lon="12.193966524050445"><ele>852.0</ele><time>2026-04-12T08:22:28Z</time></trkpt><trkpt lat="43.58847246767648" lon="12.19393982370991"><ele>852.4999999999999</ele><time>2026-04-12T08:22:30Z</time></trkpt><trkpt lat="43.588397896293046" lon="12.193863363163516"><ele>853.0</ele><time>2026-04-12T08:22:32Z</time></trkpt><trkpt lat="43.588318856335334" lon="12.193785627686509"><ele>853.0</ele><time>2026-04-12T08:22:34Z</time></trkpt><trkpt lat="43.588255273972926" lon="12.193700163588609"><ele>853.0</ele><time>2026-04-12T08:22:35Z</time></trkpt><trkpt lat="43.58817903834624" lon="12.193630582579711"><ele>853.0</ele><time>2026-04-12T08:22:36Z</time></trkpt><trkpt lat="43.588107264501886" lon="12.193562478668515"><ele>853.0</ele><time>2026-04-12T08:22:37Z</time></trkpt><trkpt lat="43.58804219894871" lon="12.193493556448741"><ele>853.0</ele><time>2026-04-12T08:22:38Z</time></trkpt><trkpt lat="43.58796196069426" lon="12.193389036405557"><ele>852.9999999999999</ele><time>2026-04-12T08:22:39Z</time></trkpt><trkpt lat="43.58789945591285" lon="12.193291236487932"><ele>853.0</ele><time>2026-04-12T08:22:40Z</time></trkpt><trkpt lat="43.58784840506952" lon="12.193207071512546"><ele>853.0</ele><time>2026-04-12T08:22:41Z</time></trkpt><trkpt lat="43.5877974387255" lon="12.193118497784827"><ele>853.0</ele><time>2026-04-12T08:22:42Z</time></trkpt><trkpt lat="43.58774747281457" lon="12.193025337277511"><ele>852.9999999999999</ele><time>2026-04-12T08:22:43Z</time></trkpt><trkpt lat="43.58769370617452" lon="12.192941741388665"><ele>853.0</ele><time>2026-04-12T08:22:44Z</time></trkpt><trkpt lat="43.587652816708534" lon="12.192849250230537"><ele>852.6666666666666</ele><time>2026-04-12T08:22:45Z</time></trkpt><trkpt lat="43.58761838690767" lon="12.192742409261193"><ele>852.3333333333333</ele><time>2026-04-12T08:22:46Z</time></trkpt><trkpt lat="43.58758451779889" lon="12.19263211922675"><ele>852.0</ele><time>2026-04-12T08:22:47Z</time></trkpt><trkpt lat="43.587559164340526" lon="12.192539193217481"><ele>851.6666666666667</ele><time>2026-04-12T08:22:48Z</time></trkpt><trkpt lat="43.587523050558524" lon="12.192424354960425"><ele>851.3333333333334</ele><time>2026-04-12T08:22:49Z</time></trkpt><trkpt lat="43.587474532574106" lon="12.192328419887435"><ele>851.0</ele><time>2026-04-12T08:22:50Z</time></trkpt><trkpt lat="43.58741466207959" lon="12.192237790567596"><ele>849.8</ele><time>2026-04-12T08:22:51Z</time></trkpt><trkpt lat="43.58735771531448" lon="12.192142945902397"><ele>848.5999999999999</ele><time>2026-04-12T08:22:52Z</time></trkpt><trkpt lat="43.58731305096394" lon="12.19202718858619"><ele>847.4</ele><time>2026-04-12T08:22:53Z</time></trkpt><trkpt lat="43.587276687323836" lon="12.191919550849125"><ele>846.2</ele><time>2026-04-12T08:22:54Z</time></trkpt><trkpt lat="43.58719498670894" lon="12.191829286839495"><ele>845.0</ele><time>2026-04-12T08:22:56Z</time></trkpt><trkpt lat="43.58711901791028" lon="12.191837753740039"><ele>845.8</ele><time>2026-04-12T08:22:58Z</time></trkpt><trkpt lat="43.5870001740224" lon="12.19177851683935"><ele>846.6</ele><time>2026-04-12T08:23:00Z</time></trkpt><trkpt lat="43.58693779769544" lon="12.191683449158214"><ele>847.4000000000001</ele><time>2026-04-12T08:23:01Z</time></trkpt><trkpt lat="43.5868932966545" lon="12.19158788734999"><ele>848.2</ele><time>2026-04-12T08:23:02Z</time></trkpt><trkpt lat="43.586843953315395" lon="12.191476837238785"><ele>849.0</ele><time>2026-04-12T08:23:03Z</time></trkpt><trkpt lat="43.58680054856159" lon="12.191360132405782"><ele>849.0</ele><time>2026-04-12T08:23:04Z</time></trkpt><trkpt lat="43.586766628911576" lon="12.19125224132537"><ele>849.0</ele><time>2026-04-12T08:23:05Z</time></trkpt><trkpt lat="43.586742650272605" lon="12.191142864735781"><ele>849.0</ele><time>2026-04-12T08:23:06Z</time></trkpt><trkpt lat="43.58674272175619" lon="12.19102078190322"><ele>849.0</ele><time>2026-04-12T08:23:07Z</time></trkpt><trkpt lat="43.586743362654744" lon="12.190888499985176"><ele>849.0</ele><time>2026-04-12T08:23:08Z</time></trkpt><trkpt lat="43.586743393832485" lon="12.190758553456806"><ele>849.0</ele><time>2026-04-12T08:23:08.999Z</time></trkpt><trkpt lat="43.58673189083309" lon="12.190640744094935"><ele>848.4000000000001</ele><time>2026-04-12T08:23:09.999Z</time></trkpt><trkpt lat="43.58670663732905" lon="12.190517845411986"><ele>847.8</ele><time>2026-04-12T08:23:10.999Z</time></trkpt><trkpt lat="43.58669366426696" lon="12.19037017848063"><ele>847.2</ele><time>2026-04-12T08:23:11.999Z</time></trkpt><trkpt lat="43.58669578046323" lon="12.190230407509661"><ele>846.5999999999999</ele><time>2026-04-12T08:23:12.999Z</time></trkpt><trkpt lat="43.586716856930686" lon="12.19011939629014"><ele>846.0</ele><time>2026-04-12T08:23:13.999Z</time></trkpt><trkpt lat="43.586749953828445" lon="12.190032096071205"><ele>846.0</ele><time>2026-04-12T08:23:14.999Z</time></trkpt><trkpt lat="43.58680042444715" lon="12.18991970095547"><ele>846.0</ele><time>2026-04-12T08:23:16.999Z</time></trkpt><trkpt lat="43.586836702969165" lon="12.189831797449468"><ele>846.0</ele><time>2026-04-12T08:23:25.999Z</time></trkpt><trkpt lat="43.586858535000566" lon="12.189743855031136"><ele>846.0</ele><time>2026-04-12T08:23:42.999Z</time></trkpt><trkpt lat="43.586794512688755" lon="12.18966544173442"><ele>846.0</ele><time>2026-04-12T08:23:46.999Z</time></trkpt><trkpt lat="43.58678169605266" lon="12.189546903601412"><ele>846.0</ele><time>2026-04-12T08:23:49.999Z</time></trkpt><trkpt lat="43.58675362002013" lon="12.18946342575249"><ele>845.1428571428571</ele><time>2026-04-12T08:23:51.999Z</time></trkpt><trkpt lat="43.58675660286351" lon="12.189354480425921"><ele>844.2857142857143</ele><time>2026-04-12T08:23:53.999Z</time></trkpt><trkpt lat="43.58673882852045" lon="12.189270776257931"><ele>843.4285714285714</ele><time>2026-04-12T08:23:58.999Z</time></trkpt><trkpt lat="43.58670782400154" lon="12.189186998804214"><ele>842.5714285714286</ele><time>2026-04-12T08:24:01.999Z</time></trkpt><trkpt lat="43.58666505475325" lon="12.189102332335285"><ele>841.7142857142858</ele><time>2026-04-12T08:24:06.999Z</time></trkpt><trkpt lat="43.5866052250141" lon="12.189134970013061"><ele>840.8571428571429</ele><time>2026-04-12T08:24:32Z</time></trkpt><trkpt lat="43.586543015920505" lon="12.189167743099409"><ele>840.0</ele><time>2026-04-12T08:24:36Z</time></trkpt><trkpt lat="43.586492519802384" lon="12.189102670313387"><ele>840.0</ele><time>2026-04-12T08:24:39Z</time></trkpt><trkpt lat="43.58643988896853" lon="12.18903316761581"><ele>840.0</ele><time>2026-04-12T08:26:24.998Z</time></trkpt><trkpt lat="43.586404321913754" lon="12.188950764536624"><ele>840.0</ele><time>2026-04-12T08:26:43Z</time></trkpt><trkpt lat="43.58633424902121" lon="12.188974930224168"><ele>840.0</ele><time>2026-04-12T08:26:52Z</time></trkpt><trkpt lat="43.586330484066465" lon="12.189072220258481"><ele>840.0</ele><time>2026-04-12T08:27:13Z</time></trkpt><trkpt lat="43.586337861816176" lon="12.18916512206309"><ele>840.0</ele><time>2026-04-12T08:27:19.999Z</time></trkpt><trkpt lat="43.58631378708446" lon="12.189246633282655"><ele>840.0</ele><time>2026-04-12T08:27:23.999Z</time></trkpt><trkpt lat="43.5863081220238" lon="12.189335399823715"><ele>840.0</ele><time>2026-04-12T08:27:33.999Z</time></trkpt><trkpt lat="43.586222743807554" lon="12.189328410912527"><ele>840.0</ele><time>2026-04-12T08:28:19.998Z</time></trkpt><trkpt lat="43.586236793937985" lon="12.189242510784256"><ele>840.0</ele><time>2026-04-12T08:29:34.999Z</time></trkpt><trkpt lat="43.58618630394298" lon="12.189181439528312"><ele>840.0</ele><time>2026-04-12T08:29:54.999Z</time></trkpt><trkpt lat="43.586134989175875" lon="12.189102403885192"><ele>840.0</ele><time>2026-04-12T08:30:06.999Z</time></trkpt><trkpt lat="43.586078083111964" lon="12.189045718327773"><ele>840.0</ele><time>2026-04-12T08:30:09.999Z</time></trkpt><trkpt lat="43.586043264779924" lon="12.188973186119092"><ele>840.0</ele><time>2026-04-12T08:30:11.999Z</time></trkpt><trkpt lat="43.586007676415115" lon="12.188879939690132"><ele>832.1666666666666</ele><time>2026-04-12T08:30:17.999Z</time></trkpt><trkpt lat="43.58596312301113" lon="12.188811121183779"><ele>824.3333333333333</ele><time>2026-04-12T08:30:19.999Z</time></trkpt><trkpt lat="43.585927027847006" lon="12.188730411098144"><ele>816.5</ele><time>2026-04-12T08:30:22.999Z</time></trkpt><trkpt lat="43.58590011644567" lon="12.188647915589602"><ele>808.6666666666666</ele><time>2026-04-12T08:30:25.999Z</time></trkpt><trkpt lat="43.585898250300026" lon="12.188554792316966"><ele>800.8333333333333</ele><time>2026-04-12T08:30:28.998Z</time></trkpt><trkpt lat="43.58589970964965" lon="12.188426345391068"><ele>793.0</ele><time>2026-04-12T08:30:37.998Z</time></trkpt><trkpt lat="43.58591340057335" lon="12.188297560621718"><ele>792.9999999999999</ele><time>2026-04-12T08:30:41.998Z</time></trkpt><trkpt lat="43.58590265232512" lon="12.188191424343547"><ele>793.0</ele><time>2026-04-12T08:30:43.998Z</time></trkpt><trkpt lat="43.58589449091058" lon="12.188081561756892"><ele>793.0</ele><time>2026-04-12T08:30:45.998Z</time></trkpt><trkpt lat="43.58590374983833" lon="12.18795557006018"><ele>793.0</ele><time>2026-04-12T08:30:49Z</time></trkpt><trkpt lat="43.58587034591326" lon="12.187878608863999"><ele>792.9999999999999</ele><time>2026-04-12T08:30:52Z</time></trkpt><trkpt lat="43.58582499958759" lon="12.187768507192391"><ele>793.0</ele><time>2026-04-12T08:31:01Z</time></trkpt><trkpt lat="43.58578925173019" lon="12.187679230190342"><ele>791.7142857142858</ele><time>2026-04-12T08:31:06Z</time></trkpt><trkpt lat="43.585777995967575" lon="12.187579254489998"><ele>790.4285714285714</ele><time>2026-04-12T08:31:08Z</time></trkpt><trkpt lat="43.58575217778288" lon="12.187498282208967"><ele>789.1428571428571</ele><time>2026-04-12T08:31:11Z</time></trkpt><trkpt lat="43.58572779949218" lon="12.18740963737612"><ele>787.8571428571429</ele><time>2026-04-12T08:31:15Z</time></trkpt><trkpt lat="43.585678859957255" lon="12.187352192282777"><ele>786.5714285714286</ele><time>2026-04-12T08:31:19Z</time></trkpt><trkpt lat="43.58564066710111" lon="12.187275485122727"><ele>785.2857142857143</ele><time>2026-04-12T08:31:23Z</time></trkpt><trkpt lat="43.585626668862474" lon="12.187183556131968"><ele>784.0</ele><time>2026-04-12T08:31:26Z</time></trkpt><trkpt lat="43.58561265274077" lon="12.18709600875722"><ele>780.2857142857143</ele><time>2026-04-12T08:31:30Z</time></trkpt><trkpt lat="43.58556091961317" lon="12.187163459090174"><ele>776.5714285714286</ele><time>2026-04-12T08:31:33.999Z</time></trkpt><trkpt lat="43.585499538630174" lon="12.187141361591564"><ele>772.8571428571429</ele><time>2026-04-12T08:31:39.999Z</time></trkpt><trkpt lat="43.5854837105238" lon="12.187043183785613"><ele>769.1428571428571</ele><time>2026-04-12T08:31:42.999Z</time></trkpt><trkpt lat="43.58545844757671" lon="12.186942873180314"><ele>765.4285714285714</ele><time>2026-04-12T08:31:46.999Z</time></trkpt><trkpt lat="43.58544006511156" lon="12.18684519896427"><ele>761.7142857142858</ele><time>2026-04-12T08:31:53.999Z</time></trkpt><trkpt lat="43.58538599417256" lon="12.186891175753777"><ele>758.0</ele><time>2026-04-12T08:32:00.999Z</time></trkpt><trkpt lat="43.585316700090196" lon="12.186828419372523"><ele>756.5714285714287</ele><time>2026-04-12T08:39:40Z</time></trkpt><trkpt lat="43.58530379034896" lon="12.186735771531142"><ele>755.1428571428571</ele><time>2026-04-12T08:39:46Z</time></trkpt><trkpt lat="43.585299175999666" lon="12.186620200662173"><ele>753.7142857142858</ele><time>2026-04-12T08:40:35.999Z</time></trkpt><trkpt lat="43.58526569377181" lon="12.18654289948276"><ele>752.2857142857143</ele><time>2026-04-12T08:41:46Z</time></trkpt><trkpt lat="43.585213323302206" lon="12.186622680079058"><ele>750.8571428571429</ele><time>2026-04-12T08:41:59Z</time></trkpt><trkpt lat="43.58517026737711" lon="12.186689556169359"><ele>749.4285714285714</ele><time>2026-04-12T08:42:25.999Z</time></trkpt><trkpt lat="43.585130113649655" lon="12.186759111493592"><ele>748.0</ele><time>2026-04-12T08:42:36.999Z</time></trkpt><trkpt lat="43.585088901765786" lon="12.186832000851966"><ele>748.0</ele><time>2026-04-12T08:42:50.999Z</time></trkpt><trkpt lat="43.58503745337382" lon="12.18676052934634"><ele>748.0</ele><time>2026-04-12T08:43:22Z</time></trkpt><trkpt lat="43.584980362590244" lon="12.186637708485092"><ele>748.0</ele><time>2026-04-12T08:43:26Z</time></trkpt><trkpt lat="43.584964018939644" lon="12.18654051299812"><ele>748.0</ele><time>2026-04-12T08:43:29Z</time></trkpt><trkpt lat="43.58498397184599" lon="12.186454684689696"><ele>748.0</ele><time>2026-04-12T08:43:31Z</time></trkpt><trkpt lat="43.58501298617252" lon="12.186347276256395"><ele>748.0</ele><time>2026-04-12T08:43:34Z</time></trkpt><trkpt lat="43.58496641411196" lon="12.18626229704964"><ele>746.1666666666667</ele><time>2026-04-12T08:43:38Z</time></trkpt><trkpt lat="43.58486273067074" lon="12.186193116159593"><ele>744.3333333333334</ele><time>2026-04-12T08:43:40Z</time></trkpt><trkpt lat="43.58478640966149" lon="12.18618638354252"><ele>742.5</ele><time>2026-04-12T08:43:42Z</time></trkpt><trkpt lat="43.58476055341091" lon="12.186101643024095"><ele>740.6666666666666</ele><time>2026-04-12T08:51:50Z</time></trkpt><trkpt lat="43.584770015958775" lon="12.186190168778072"><ele>738.8333333333333</ele><time>2026-04-12T08:54:43.999Z</time></trkpt><trkpt lat="43.58470934441413" lon="12.186238752062593"><ele>737.0</ele><time>2026-04-12T08:54:47.999Z</time></trkpt><trkpt lat="43.58464121248767" lon="12.186280197857977"><ele>737.0000000000001</ele><time>2026-04-12T08:54:50.999Z</time></trkpt><trkpt lat="43.58457246185027" lon="12.18631565018839"><ele>737.0</ele><time>2026-04-12T08:54:53.999Z</time></trkpt><trkpt lat="43.58450611399611" lon="12.186356080831153"><ele>737.0</ele><time>2026-04-12T08:54:56.999Z</time></trkpt><trkpt lat="43.58442843033054" lon="12.186401368934577"><ele>737.0</ele><time>2026-04-12T08:55:00.999Z</time></trkpt><trkpt lat="43.58437394010965" lon="12.186451690226752"><ele>737.0</ele><time>2026-04-12T08:55:02.999Z</time></trkpt><trkpt lat="43.584310824462285" lon="12.186499652769228"><ele>737.0000000000001</ele><time>2026-04-12T08:55:06.999Z</time></trkpt><trkpt lat="43.58423877345147" lon="12.18653837946272"><ele>737.0</ele><time>2026-04-12T08:56:27Z</time></trkpt><trkpt lat="43.58416125225725" lon="12.18651859308115"><ele>733.8333333333333</ele><time>2026-04-12T08:56:29Z</time></trkpt><trkpt lat="43.58409851717807" lon="12.186546097368563"><ele>730.6666666666666</ele><time>2026-04-12T08:56:31Z</time></trkpt><trkpt lat="43.58403445602093" lon="12.186581050622276"><ele>727.5</ele><time>2026-04-12T08:56:33Z</time></trkpt><trkpt lat="43.58397046302067" lon="12.186636563497519"><ele>724.3333333333334</ele><time>2026-04-12T08:56:35Z</time></trkpt><trkpt lat="43.583882857738175" lon="12.186681800009028"><ele>721.1666666666667</ele><time>2026-04-12T08:56:37Z</time></trkpt><trkpt lat="43.583793588826104" lon="12.186722124481381"><ele>718.0</ele><time>2026-04-12T08:56:39Z</time></trkpt><trkpt lat="43.58370650859202" lon="12.18673838060123"><ele>714.0</ele><time>2026-04-12T08:56:41Z</time></trkpt><trkpt lat="43.58360955781406" lon="12.186761397673914"><ele>710.0</ele><time>2026-04-12T08:56:42.999Z</time></trkpt><trkpt lat="43.58349981716642" lon="12.186738612175281"><ele>706.0</ele><time>2026-04-12T08:56:44.999Z</time></trkpt><trkpt lat="43.58340627543281" lon="12.18679164072326"><ele>702.0</ele><time>2026-04-12T08:56:46.999Z</time></trkpt><trkpt lat="43.583298861139525" lon="12.186861571282662"><ele>698.0</ele><time>2026-04-12T08:56:48.999Z</time></trkpt><trkpt lat="43.583201808335296" lon="12.186925860182477"><ele>698.0</ele><time>2026-04-12T08:56:50.999Z</time></trkpt><trkpt lat="43.583146632681725" lon="12.186971903991614"><ele>698.0</ele><time>2026-04-12T08:56:51.999Z</time></trkpt><trkpt lat="43.58304415245571" lon="12.187043707902797"><ele>698.0</ele><time>2026-04-12T08:56:53.999Z</time></trkpt><trkpt lat="43.58298323126267" lon="12.187081302931608"><ele>698.0</ele><time>2026-04-12T08:56:54.999Z</time></trkpt><trkpt lat="43.582921457542604" lon="12.18715392540391"><ele>698.0</ele><time>2026-04-12T08:56:55.999Z</time></trkpt><trkpt lat="43.58284998463479" lon="12.187218179118483"><ele>698.0</ele><time>2026-04-12T08:56:56.999Z</time></trkpt><trkpt lat="43.582775944734706" lon="12.187267967862596"><ele>695.8333333333333</ele><time>2026-04-12T08:56:57.999Z</time></trkpt><trkpt lat="43.58269822350675" lon="12.187300873018549"><ele>693.6666666666666</ele><time>2026-04-12T08:56:58.999Z</time></trkpt><trkpt lat="43.58261594137942" lon="12.187342349331496"><ele>691.5</ele><time>2026-04-12T08:56:59.999Z</time></trkpt><trkpt lat="43.582546931924995" lon="12.187395216806099"><ele>689.3333333333334</ele><time>2026-04-12T08:57:00.999Z</time></trkpt><trkpt lat="43.58244567865994" lon="12.187478753748218"><ele>687.1666666666667</ele><time>2026-04-12T08:57:02.999Z</time></trkpt><trkpt lat="43.58238653441997" lon="12.187523637397344"><ele>685.0</ele><time>2026-04-12T08:57:03.999Z</time></trkpt><trkpt lat="43.58229852561388" lon="12.187614949940594"><ele>680.8333333333334</ele><time>2026-04-12T08:57:05.999Z</time></trkpt><trkpt lat="43.58227324162973" lon="12.187738412643759"><ele>676.6666666666667</ele><time>2026-04-12T08:57:07.999Z</time></trkpt><trkpt lat="43.58222021514347" lon="12.187822964813087"><ele>672.5</ele><time>2026-04-12T08:57:09.999Z</time></trkpt><trkpt lat="43.582126585413754" lon="12.187841519446126"><ele>668.3333333333334</ele><time>2026-04-12T08:57:11.999Z</time></trkpt><trkpt lat="43.58206208522188" lon="12.187848307313397"><ele>664.1666666666666</ele><time>2026-04-12T08:57:12.999Z</time></trkpt><trkpt lat="43.58197502875376" lon="12.187864872009035"><ele>660.0</ele><time>2026-04-12T08:57:13.999Z</time></trkpt><trkpt lat="43.581893843319904" lon="12.187865736942625"><ele>658.8333333333334</ele><time>2026-04-12T08:57:14.999Z</time></trkpt><trkpt lat="43.58181435925772" lon="12.187847996651001"><ele>657.6666666666666</ele><time>2026-04-12T08:57:15.999Z</time></trkpt><trkpt lat="43.58174964561207" lon="12.187799372710993"><ele>656.5</ele><time>2026-04-12T08:57:16.999Z</time></trkpt><trkpt lat="43.581687588448794" lon="12.187751147084077"><ele>655.3333333333333</ele><time>2026-04-12T08:57:17.999Z</time></trkpt><trkpt lat="43.58159716094521" lon="12.187672697721933"><ele>654.1666666666666</ele><time>2026-04-12T08:57:19.999Z</time></trkpt><trkpt lat="43.581517776896995" lon="12.187734837641198"><ele>653.0</ele><time>2026-04-12T08:57:21.999Z</time></trkpt><trkpt lat="43.58149339605642" lon="12.187846534310763"><ele>653.0</ele><time>2026-04-12T08:57:23.999Z</time></trkpt><trkpt lat="43.58146074229516" lon="12.187924173544488"><ele>653.0</ele><time>2026-04-12T08:57:24.999Z</time></trkpt><trkpt lat="43.58141751024599" lon="12.187989695692231"><ele>653.0</ele><time>2026-04-12T08:57:25.999Z</time></trkpt><trkpt lat="43.58135838348902" lon="12.188044022944197"><ele>653.0</ele><time>2026-04-12T08:57:26.999Z</time></trkpt><trkpt lat="43.58130241801351" lon="12.188107407152076"><ele>653.0</ele><time>2026-04-12T08:57:27.999Z</time></trkpt><trkpt lat="43.581215909013245" lon="12.188171997129793"><ele>653.0</ele><time>2026-04-12T08:57:28.999Z</time></trkpt><trkpt lat="43.581107409838275" lon="12.188235112844755"><ele>649.1666666666666</ele><time>2026-04-12T08:57:29.999Z</time></trkpt><trkpt lat="43.581018445631514" lon="12.188285728582322"><ele>645.3333333333333</ele><time>2026-04-12T08:57:30.999Z</time></trkpt><trkpt lat="43.58093311693753" lon="12.18832564462511"><ele>641.5</ele><time>2026-04-12T08:57:31.999Z</time></trkpt><trkpt lat="43.580850789564465" lon="12.188364376050975"><ele>637.6666666666666</ele><time>2026-04-12T08:57:32.999Z</time></trkpt><trkpt lat="43.580777698260704" lon="12.188406380118622"><ele>633.8333333333334</ele><time>2026-04-12T08:57:33.999Z</time></trkpt><trkpt lat="43.58071017342726" lon="12.188438960101081"><ele>630.0</ele><time>2026-04-12T08:57:34.999Z</time></trkpt><trkpt lat="43.58063720763628" lon="12.188436696806122"><ele>630.0</ele><time>2026-04-12T08:57:36.999Z</time></trkpt><trkpt lat="43.580574656776406" lon="12.188415390056168"><ele>630.0</ele><time>2026-04-12T08:57:46.998Z</time></trkpt><trkpt lat="43.58050874263248" lon="12.188437254483452"><ele>630.0</ele><time>2026-04-12T08:57:49.998Z</time></trkpt><trkpt lat="43.58044503011568" lon="12.188472005227409"><ele>630.0</ele><time>2026-04-12T08:57:51.998Z</time></trkpt><trkpt lat="43.58038257293969" lon="12.188490808313217"><ele>630.0</ele><time>2026-04-12T08:58:11Z</time></trkpt><trkpt lat="43.58031620314507" lon="12.188480689459391"><ele>630.0</ele><time>2026-04-12T08:58:42Z</time></trkpt><trkpt lat="43.580198305147555" lon="12.188553167848395"><ele>628.8</ele><time>2026-04-12T08:58:44Z</time></trkpt><trkpt lat="43.58010690158835" lon="12.1886344618506"><ele>627.6</ele><time>2026-04-12T08:58:45.999Z</time></trkpt><trkpt lat="43.580021892813804" lon="12.188674133528124"><ele>626.4</ele><time>2026-04-12T08:58:47.999Z</time></trkpt><trkpt lat="43.57994086958883" lon="12.18872864053117"><ele>625.2</ele><time>2026-04-12T08:58:49.999Z</time></trkpt><trkpt lat="43.57983373191979" lon="12.188796458292453"><ele>624.0</ele><time>2026-04-12T08:58:51.999Z</time></trkpt><trkpt lat="43.57976412490374" lon="12.188835659998878"><ele>624.0</ele><time>2026-04-12T08:58:52.999Z</time></trkpt><trkpt lat="43.5796999600625" lon="12.188871035997279"><ele>624.0</ele><time>2026-04-12T08:58:53.999Z</time></trkpt><trkpt lat="43.5795874294406" lon="12.188930284460476"><ele>624.0</ele><time>2026-04-12T08:58:55.999Z</time></trkpt><trkpt lat="43.57952823370501" lon="12.188961910598548"><ele>624.0</ele><time>2026-04-12T08:58:56.999Z</time></trkpt><trkpt lat="43.579454310299354" lon="12.18899356280948"><ele>624.0</ele><time>2026-04-12T08:58:57.999Z</time></trkpt><trkpt lat="43.57938873359503" lon="12.189020984867753"><ele>624.0</ele><time>2026-04-12T08:58:58.999Z</time></trkpt><trkpt lat="43.57931779400335" lon="12.189050497555098"><ele>623.3333333333334</ele><time>2026-04-12T08:58:59.999Z</time></trkpt><trkpt lat="43.57921719457384" lon="12.189071757415249"><ele>622.6666666666666</ele><time>2026-04-12T08:59:00.999Z</time></trkpt><trkpt lat="43.57912598314764" lon="12.189078681830319"><ele>622.0</ele><time>2026-04-12T08:59:01.999Z</time></trkpt><trkpt lat="43.5790534700956" lon="12.18906145749546"><ele>621.3333333333333</ele><time>2026-04-12T08:59:02.999Z</time></trkpt><trkpt lat="43.57899237874197" lon="12.189019846501548"><ele>620.6666666666666</ele><time>2026-04-12T08:59:03.999Z</time></trkpt><trkpt lat="43.578884707706244" lon="12.189001998929427"><ele>620.0</ele><time>2026-04-12T08:59:05.999Z</time></trkpt><trkpt lat="43.578803984164054" lon="12.189042249643796"><ele>617.4</ele><time>2026-04-12T08:59:06.999Z</time></trkpt><trkpt lat="43.57872556731046" lon="12.18911751465722"><ele>614.8</ele><time>2026-04-12T08:59:07.999Z</time></trkpt><trkpt lat="43.57862957098119" lon="12.189222239029684"><ele>612.2</ele><time>2026-04-12T08:59:08.999Z</time></trkpt><trkpt lat="43.578559511777165" lon="12.189305814129659"><ele>609.6</ele><time>2026-04-12T08:59:09.999Z</time></trkpt><trkpt lat="43.57848539227362" lon="12.189398260064952"><ele>607.0</ele><time>2026-04-12T08:59:10.999Z</time></trkpt><trkpt lat="43.57842917596118" lon="12.189475747871137"><ele>606.8333333333334</ele><time>2026-04-12T08:59:11.999Z</time></trkpt><trkpt lat="43.57837847611781" lon="12.189528708990894"><ele>606.6666666666667</ele><time>2026-04-12T08:59:12.999Z</time></trkpt><trkpt lat="43.578316017465546" lon="12.18956576700783"><ele>606.5</ele><time>2026-04-12T08:59:13.999Z</time></trkpt><trkpt lat="43.578249868418595" lon="12.18957462869065"><ele>606.3333333333334</ele><time>2026-04-12T08:59:14.999Z</time></trkpt><trkpt lat="43.578112199866204" lon="12.189611005665423"><ele>606.1666666666666</ele><time>2026-04-12T08:59:16.999Z</time></trkpt><trkpt lat="43.578028285566496" lon="12.189641617504847"><ele>606.0</ele><time>2026-04-12T08:59:17.999Z</time></trkpt><trkpt lat="43.57793609827294" lon="12.189669539920983"><ele>604.0</ele><time>2026-04-12T08:59:18.999Z</time></trkpt><trkpt lat="43.5778395596871" lon="12.189665244489287"><ele>602.0</ele><time>2026-04-12T08:59:19.999Z</time></trkpt><trkpt lat="43.5777345457733" lon="12.189666377423734"><ele>600.0</ele><time>2026-04-12T08:59:20.999Z</time></trkpt><trkpt lat="43.577649244339305" lon="12.189706541840144"><ele>598.0</ele><time>2026-04-12T08:59:21.999Z</time></trkpt><trkpt lat="43.57755396082874" lon="12.189737590545482"><ele>596.0</ele><time>2026-04-12T08:59:22.999Z</time></trkpt><trkpt lat="43.577464626788675" lon="12.189755613951643"><ele>596.0</ele><time>2026-04-12T08:59:23.999Z</time></trkpt><trkpt lat="43.577374214619795" lon="12.18977594863934"><ele>596.0</ele><time>2026-04-12T08:59:24.999Z</time></trkpt><trkpt lat="43.577298860661045" lon="12.189785997705327"><ele>596.0</ele><time>2026-04-12T08:59:25.999Z</time></trkpt><trkpt lat="43.5772037896531" lon="12.189814639385016"><ele>596.0</ele><time>2026-04-12T08:59:26.999Z</time></trkpt><trkpt lat="43.57712949015211" lon="12.189866070719443"><ele>596.0</ele><time>2026-04-12T08:59:27.999Z</time></trkpt><trkpt lat="43.57706469800617" lon="12.189929562238369"><ele>596.0</ele><time>2026-04-12T08:59:28.999Z</time></trkpt><trkpt lat="43.577011993996535" lon="12.190007818101542"><ele>592.5</ele><time>2026-04-12T08:59:29.999Z</time></trkpt><trkpt lat="43.57695548315939" lon="12.190107143005472"><ele>589.0</ele><time>2026-04-12T08:59:30.999Z</time></trkpt><trkpt lat="43.576890089843644" lon="12.190205828319835"><ele>585.5</ele><time>2026-04-12T08:59:31.999Z</time></trkpt><trkpt lat="43.576826440710214" lon="12.190266252994952"><ele>582.0</ele><time>2026-04-12T08:59:32.999Z</time></trkpt><trkpt lat="43.57675869398068" lon="12.190304224784274"><ele>578.5</ele><time>2026-04-12T08:59:33.999Z</time></trkpt><trkpt lat="43.57667079785546" lon="12.190339640219872"><ele>575.0</ele><time>2026-04-12T08:59:34.999Z</time></trkpt><trkpt lat="43.5765798937216" lon="12.190379826102758"><ele>575.0</ele><time>2026-04-12T08:59:35.999Z</time></trkpt><trkpt lat="43.57648784883577" lon="12.190418842676474"><ele>575.0</ele><time>2026-04-12T08:59:36.999Z</time></trkpt><trkpt lat="43.576381718223345" lon="12.190458780639686"><ele>575.0</ele><time>2026-04-12T08:59:37.999Z</time></trkpt><trkpt lat="43.57627690557983" lon="12.190492065108506"><ele>575.0</ele><time>2026-04-12T08:59:38.999Z</time></trkpt><trkpt lat="43.57620531984542" lon="12.190517795822942"><ele>575.0</ele><time>2026-04-12T08:59:39.999Z</time></trkpt><trkpt lat="43.57614272971532" lon="12.190559216637235"><ele>575.4</ele><time>2026-04-12T08:59:41.999Z</time></trkpt><trkpt lat="43.576064017571206" lon="12.190616373204168"><ele>575.8</ele><time>2026-04-12T08:59:51.998Z</time></trkpt><trkpt lat="43.57595460386005" lon="12.190702890323056"><ele>576.2</ele><time>2026-04-12T08:59:53.998Z</time></trkpt><trkpt lat="43.57589649814461" lon="12.190736530567063"><ele>576.6</ele><time>2026-04-12T08:59:54.998Z</time></trkpt><trkpt lat="43.575779173417985" lon="12.19078754638073"><ele>577.0</ele><time>2026-04-12T08:59:56.998Z</time></trkpt><trkpt lat="43.57569934486091" lon="12.190808555733756"><ele>577.8000000000001</ele><time>2026-04-12T08:59:57.998Z</time></trkpt><trkpt lat="43.57562654904122" lon="12.190820808509086"><ele>578.6</ele><time>2026-04-12T08:59:58.998Z</time></trkpt><trkpt lat="43.575520437717756" lon="12.190782216811655"><ele>579.4000000000001</ele><time>2026-04-12T09:00:00.998Z</time></trkpt><trkpt lat="43.57542924189596" lon="12.190701208914327"><ele>580.2</ele><time>2026-04-12T09:00:02.998Z</time></trkpt><trkpt lat="43.57532508201313" lon="12.19064445171936"><ele>581.0</ele><time>2026-04-12T09:00:04.998Z</time></trkpt><trkpt lat="43.575262447339284" lon="12.190611064572218"><ele>581.0</ele><time>2026-04-12T09:00:05.998Z</time></trkpt><trkpt lat="43.57518253367781" lon="12.190579039340403"><ele>581.0</ele><time>2026-04-12T09:00:06.998Z</time></trkpt><trkpt lat="43.57510684937654" lon="12.190566332265458"><ele>581.0</ele><time>2026-04-12T09:00:07.998Z</time></trkpt><trkpt lat="43.57500802528119" lon="12.190591368480625"><ele>581.0</ele><time>2026-04-12T09:00:10Z</time></trkpt><trkpt lat="43.57511058902036" lon="12.190547541652968"><ele>581.0</ele><time>2026-04-12T09:00:41Z</time></trkpt><trkpt lat="43.575185969883144" lon="12.19057244159296"><ele>581.0</ele><time>2026-04-12T09:00:42Z</time></trkpt><trkpt lat="43.575258990957984" lon="12.190587464844633"><ele>580.3333333333333</ele><time>2026-04-12T09:00:43Z</time></trkpt><trkpt lat="43.57536923224073" lon="12.190614579736073"><ele>579.6666666666666</ele><time>2026-04-12T09:00:45Z</time></trkpt><trkpt lat="43.57540010012554" lon="12.19069642459401"><ele>579.0</ele><time>2026-04-12T09:00:49Z</time></trkpt><trkpt lat="43.575379392783915" lon="12.190824480577817"><ele>578.3333333333334</ele><time>2026-04-12T09:00:54Z</time></trkpt><trkpt lat="43.57536000983272" lon="12.19090850385313"><ele>577.6666666666667</ele><time>2026-04-12T09:01:09.999Z</time></trkpt><trkpt lat="43.575360678606025" lon="12.190999193270866"><ele>577.0</ele><time>2026-04-12T09:01:12.999Z</time></trkpt><trkpt lat="43.57530998602637" lon="12.19106987086317"><ele>574.5</ele><time>2026-04-12T09:01:15.999Z</time></trkpt><trkpt lat="43.575250360080474" lon="12.191039084523409"><ele>572.0</ele><time>2026-04-12T09:01:17.999Z</time></trkpt><trkpt lat="43.57518178823956" lon="12.19100134252384"><ele>569.5</ele><time>2026-04-12T09:01:19.999Z</time></trkpt><trkpt lat="43.5750889836098" lon="12.191020862892003"><ele>567.0</ele><time>2026-04-12T09:01:21.999Z</time></trkpt><trkpt lat="43.574964877478244" lon="12.19101805738839"><ele>564.5</ele><time>2026-04-12T09:01:23.999Z</time></trkpt><trkpt lat="43.57487727661619" lon="12.191007553048491"><ele>562.0</ele><time>2026-04-12T09:01:24.999Z</time></trkpt><trkpt lat="43.574746156244274" lon="12.190979711739535"><ele>562.0</ele><time>2026-04-12T09:01:26.999Z</time></trkpt><trkpt lat="43.57467420270288" lon="12.190966973082576"><ele>562.0</ele><time>2026-04-12T09:01:27.999Z</time></trkpt><trkpt lat="43.57460375902461" lon="12.190955613645253"><ele>562.0</ele><time>2026-04-12T09:01:28.999Z</time></trkpt><trkpt lat="43.574527972589635" lon="12.190940912591607"><ele>562.0</ele><time>2026-04-12T09:01:29.999Z</time></trkpt><trkpt lat="43.574438447610625" lon="12.190924535055986"><ele>562.0</ele><time>2026-04-12T09:01:30.999Z</time></trkpt><trkpt lat="43.57436725963167" lon="12.190917450275863"><ele>562.0</ele><time>2026-04-12T09:01:31.999Z</time></trkpt><trkpt lat="43.57424924538854" lon="12.19094738193425"><ele>561.8333333333334</ele><time>2026-04-12T09:01:33.999Z</time></trkpt><trkpt lat="43.57418554252931" lon="12.190979215616974"><ele>561.6666666666667</ele><time>2026-04-12T09:01:34.999Z</time></trkpt><trkpt lat="43.574109447145815" lon="12.191015340882567"><ele>561.5</ele><time>2026-04-12T09:01:35.999Z</time></trkpt><trkpt lat="43.57402260691941" lon="12.19105383326217"><ele>561.3333333333334</ele><time>2026-04-12T09:01:36.999Z</time></trkpt><trkpt lat="43.57394231697778" lon="12.191069874150068"><ele>561.1666666666666</ele><time>2026-04-12T09:01:37.999Z</time></trkpt><trkpt lat="43.5738754442949" lon="12.191082756643148"><ele>561.0</ele><time>2026-04-12T09:01:38.999Z</time></trkpt><trkpt lat="43.57379559407492" lon="12.191141115343102"><ele>561.0</ele><time>2026-04-12T09:01:40.999Z</time></trkpt><trkpt lat="43.57371990403043" lon="12.19121763848984"><ele>561.0</ele><time>2026-04-12T09:01:42.999Z</time></trkpt><trkpt lat="43.57366245658207" lon="12.191272906849248"><ele>561.0</ele><time>2026-04-12T09:01:43.999Z</time></trkpt><trkpt lat="43.57358438969058" lon="12.19134168780307"><ele>561.0</ele><time>2026-04-12T09:01:44.999Z</time></trkpt><trkpt lat="43.57348564453179" lon="12.191422388749542"><ele>561.0</ele><time>2026-04-12T09:01:45.999Z</time></trkpt><trkpt lat="43.57340516509769" lon="12.191483069203576"><ele>561.8333333333334</ele><time>2026-04-12T09:01:46.999Z</time></trkpt><trkpt lat="43.57334237855199" lon="12.191526496545093"><ele>562.6666666666666</ele><time>2026-04-12T09:01:47.999Z</time></trkpt><trkpt lat="43.573259656185705" lon="12.191546972369787"><ele>563.5</ele><time>2026-04-12T09:01:48.999Z</time></trkpt><trkpt lat="43.57317401135549" lon="12.191544962253907"><ele>564.3333333333333</ele><time>2026-04-12T09:01:49.999Z</time></trkpt><trkpt lat="43.57308846081474" lon="12.191508338568333"><ele>565.1666666666666</ele><time>2026-04-12T09:01:50.999Z</time></trkpt><trkpt lat="43.573022846131" lon="12.191445345674405"><ele>566.0</ele><time>2026-04-12T09:01:51.999Z</time></trkpt><trkpt lat="43.572963887963944" lon="12.191367596963865"><ele>566.0</ele><time>2026-04-12T09:01:52.999Z</time></trkpt><trkpt lat="43.57292059105636" lon="12.19128803102395"><ele>566.0</ele><time>2026-04-12T09:01:53.999Z</time></trkpt><trkpt lat="43.572873773689096" lon="12.191179216133673"><ele>566.0</ele><time>2026-04-12T09:01:54.998Z</time></trkpt><trkpt lat="43.57281979883555" lon="12.191066998477952"><ele>566.0</ele><time>2026-04-12T09:01:55.998Z</time></trkpt><trkpt lat="43.572751861029346" lon="12.190983041020417"><ele>566.0</ele><time>2026-04-12T09:01:56.998Z</time></trkpt><trkpt lat="43.572681616419075" lon="12.19094164327751"><ele>566.0</ele><time>2026-04-12T09:01:57.998Z</time></trkpt><trkpt lat="43.57260734407034" lon="12.190935371501523"><ele>569.1666666666666</ele><time>2026-04-12T09:01:58.998Z</time></trkpt><trkpt lat="43.57253666509134" lon="12.190967396658172"><ele>572.3333333333333</ele><time>2026-04-12T09:01:59.998Z</time></trkpt><trkpt lat="43.57247170593249" lon="12.190972682547352"><ele>575.5</ele><time>2026-04-12T09:02:00.998Z</time></trkpt><trkpt lat="43.57240827975548" lon="12.190929800080195"><ele>578.6666666666666</ele><time>2026-04-12T09:02:01.998Z</time></trkpt><trkpt lat="43.57235442879926" lon="12.19083677434405"><ele>581.8333333333334</ele><time>2026-04-12T09:02:02.998Z</time></trkpt><trkpt lat="43.57230851632651" lon="12.190715892879652"><ele>585.0</ele><time>2026-04-12T09:02:03.998Z</time></trkpt><trkpt lat="43.572237534279914" lon="12.190585937630363"><ele>585.0</ele><time>2026-04-12T09:02:04.998Z</time></trkpt><trkpt lat="43.572149362242726" lon="12.190434853318637"><ele>585.0</ele><time>2026-04-12T09:02:05.998Z</time></trkpt><trkpt lat="43.57206817294896" lon="12.190275550225438"><ele>585.0</ele><time>2026-04-12T09:02:06.998Z</time></trkpt><trkpt lat="43.57198843438697" lon="12.190158693801116"><ele>585.0</ele><time>2026-04-12T09:02:07.998Z</time></trkpt><trkpt lat="43.5719049426023" lon="12.190082685657435"><ele>579.1666666666666</ele><time>2026-04-12T09:02:08.998Z</time></trkpt><trkpt lat="43.57182547242737" lon="12.190045662362905"><ele>573.3333333333334</ele><time>2026-04-12T09:02:09.998Z</time></trkpt><trkpt lat="43.571744300366866" lon="12.190036617570064"><ele>567.5</ele><time>2026-04-12T09:02:10.998Z</time></trkpt><trkpt lat="43.57164603891945" lon="12.190057402383658"><ele>561.6666666666667</ele><time>2026-04-12T09:02:11.998Z</time></trkpt><trkpt lat="43.57154118958371" lon="12.19007737742955"><ele>555.8333333333334</ele><time>2026-04-12T09:02:12.998Z</time></trkpt><trkpt lat="43.57146618928537" lon="12.19006238049782"><ele>550.0</ele><time>2026-04-12T09:02:13.998Z</time></trkpt><trkpt lat="43.57140204744752" lon="12.189963871658644"><ele>550.0</ele><time>2026-04-12T09:02:16Z</time></trkpt><trkpt lat="43.57139920846249" lon="12.189873070610387"><ele>550.0</ele><time>2026-04-12T09:02:17Z</time></trkpt><trkpt lat="43.57138791381593" lon="12.18974794403235"><ele>550.0</ele><time>2026-04-12T09:02:18Z</time></trkpt><trkpt lat="43.57136214642853" lon="12.189630426745232"><ele>550.0</ele><time>2026-04-12T09:02:19Z</time></trkpt><trkpt lat="43.571311069996014" lon="12.189547709953466"><ele>550.0</ele><time>2026-04-12T09:02:20Z</time></trkpt><trkpt lat="43.57123333449213" lon="12.189501345313658"><ele>550.0</ele><time>2026-04-12T09:02:21Z</time></trkpt><trkpt lat="43.5711209636343" lon="12.189454081003449"><ele>548.2</ele><time>2026-04-12T09:02:22Z</time></trkpt><trkpt lat="43.57098946300271" lon="12.189415110719743"><ele>546.4</ele><time>2026-04-12T09:02:23Z</time></trkpt><trkpt lat="43.570893426355674" lon="12.189393748027545"><ele>544.6</ele><time>2026-04-12T09:02:24Z</time></trkpt><trkpt lat="43.57081071220272" lon="12.189363320774675"><ele>542.8</ele><time>2026-04-12T09:02:25Z</time></trkpt><trkpt lat="43.57073344415099" lon="12.189298637222358"><ele>541.0</ele><time>2026-04-12T09:02:26Z</time></trkpt><trkpt lat="43.57068301819884" lon="12.18920913060878"><ele>541.0</ele><time>2026-04-12T09:02:27Z</time></trkpt><trkpt lat="43.57064466543626" lon="12.18910290377605"><ele>541.0</ele><time>2026-04-12T09:02:28Z</time></trkpt><trkpt lat="43.570615806323495" lon="12.18899148548021"><ele>541.0</ele><time>2026-04-12T09:02:29Z</time></trkpt><trkpt lat="43.57060290747938" lon="12.188856132192155"><ele>541.0</ele><time>2026-04-12T09:02:30Z</time></trkpt><trkpt lat="43.57059647759407" lon="12.18869432725548"><ele>541.0</ele><time>2026-04-12T09:02:31Z</time></trkpt><trkpt lat="43.570576838420884" lon="12.188542509238564"><ele>538.0</ele><time>2026-04-12T09:02:32Z</time></trkpt><trkpt lat="43.57053693460117" lon="12.18842456948755"><ele>535.0</ele><time>2026-04-12T09:02:33Z</time></trkpt><trkpt lat="43.57047946667271" lon="12.188306122182988"><ele>532.0</ele><time>2026-04-12T09:02:34Z</time></trkpt><trkpt lat="43.570409325899305" lon="12.188200123171178"><ele>529.0</ele><time>2026-04-12T09:02:35Z</time></trkpt><trkpt lat="43.570343049069315" lon="12.188155577215271"><ele>526.0</ele><time>2026-04-12T09:02:36Z</time></trkpt><trkpt lat="43.5702449931225" lon="12.188085584568608"><ele>526.0</ele><time>2026-04-12T09:02:37Z</time></trkpt><trkpt lat="43.57017774122493" lon="12.188027519877943"><ele>526.0</ele><time>2026-04-12T09:02:38Z</time></trkpt><trkpt lat="43.57014501787717" lon="12.18788890066153"><ele>526.0</ele><time>2026-04-12T09:02:40Z</time></trkpt><trkpt lat="43.57018182733929" lon="12.187790839685832"><ele>526.0</ele><time>2026-04-12T09:02:41Z</time></trkpt><trkpt lat="43.57022948889327" lon="12.187670567349"><ele>526.0</ele><time>2026-04-12T09:02:42Z</time></trkpt><trkpt lat="43.57022875666877" lon="12.187543281341105"><ele>526.0</ele><time>2026-04-12T09:02:43Z</time></trkpt><trkpt lat="43.57020202904312" lon="12.18739595401822"><ele>526.0</ele><time>2026-04-12T09:02:44Z</time></trkpt><trkpt lat="43.57016428471634" lon="12.187286502970714"><ele>526.0</ele><time>2026-04-12T09:02:45Z</time></trkpt><trkpt lat="43.570107485135914" lon="12.187210426725589"><ele>526.0</ele><time>2026-04-12T09:02:46Z</time></trkpt><trkpt lat="43.57001835500173" lon="12.187152720212985"><ele>526.0</ele><time>2026-04-12T09:02:47Z</time></trkpt><trkpt lat="43.56992318061018" lon="12.187094989728067"><ele>527.5</ele><time>2026-04-12T09:02:48Z</time></trkpt><trkpt lat="43.56983659391347" lon="12.18703331382795"><ele>529.0</ele><time>2026-04-12T09:02:49Z</time></trkpt><trkpt lat="43.56976615408313" lon="12.186993440843061"><ele>530.5</ele><time>2026-04-12T09:02:50Z</time></trkpt><trkpt lat="43.5696934198947" lon="12.1869544115381"><ele>532.0</ele><time>2026-04-12T09:02:51Z</time></trkpt><trkpt lat="43.56963674295668" lon="12.186911980456149"><ele>533.5</ele><time>2026-04-12T09:02:52Z</time></trkpt><trkpt lat="43.56958463520353" lon="12.186853090839659"><ele>535.0</ele><time>2026-04-12T09:02:53Z</time></trkpt><trkpt lat="43.569531028547026" lon="12.186792729735776"><ele>531.4285714285714</ele><time>2026-04-12T09:02:54Z</time></trkpt><trkpt lat="43.56946751842947" lon="12.186763950266739"><ele>527.8571428571429</ele><time>2026-04-12T09:02:55Z</time></trkpt><trkpt lat="43.569395655507854" lon="12.186753197539621"><ele>524.2857142857143</ele><time>2026-04-12T09:02:56Z</time></trkpt><trkpt lat="43.56933365044656" lon="12.186720502472982"><ele>520.7142857142858</ele><time>2026-04-12T09:02:57Z</time></trkpt><trkpt lat="43.569275502626354" lon="12.186652998129949"><ele>517.1428571428572</ele><time>2026-04-12T09:02:57.999Z</time></trkpt><trkpt lat="43.56923196882942" lon="12.186569054233296"><ele>513.5714285714286</ele><time>2026-04-12T09:02:58.999Z</time></trkpt><trkpt lat="43.56921891349977" lon="12.186475689269612"><ele>510.0</ele><time>2026-04-12T09:02:59.999Z</time></trkpt><trkpt lat="43.56926080498902" lon="12.186325595276907"><ele>509.4</ele><time>2026-04-12T09:03:01.999Z</time></trkpt><trkpt lat="43.569258220194875" lon="12.186163516016865"><ele>508.8</ele><time>2026-04-12T09:03:18.999Z</time></trkpt><trkpt lat="43.56927294799973" lon="12.186066799851508"><ele>508.20000000000005</ele><time>2026-04-12T09:03:19.999Z</time></trkpt><trkpt lat="43.56930972905294" lon="12.185971778554299"><ele>507.6</ele><time>2026-04-12T09:03:20.999Z</time></trkpt><trkpt lat="43.56935637709827" lon="12.185824613654614"><ele>507.0</ele><time>2026-04-12T09:03:22.999Z</time></trkpt><trkpt lat="43.569312825712444" lon="12.185661482945934"><ele>504.0</ele><time>2026-04-12T09:03:24.999Z</time></trkpt><trkpt lat="43.56925244162434" lon="12.185611973656759"><ele>501.0</ele><time>2026-04-12T09:03:25.999Z</time></trkpt><trkpt lat="43.56916800138746" lon="12.18557477211175"><ele>498.0</ele><time>2026-04-12T09:03:26.999Z</time></trkpt><trkpt lat="43.569092850404914" lon="12.185550008294271"><ele>495.0</ele><time>2026-04-12T09:03:27.999Z</time></trkpt><trkpt lat="43.56901611996217" lon="12.185536786630928"><ele>492.0</ele><time>2026-04-12T09:03:28.999Z</time></trkpt><trkpt lat="43.5689375611094" lon="12.185550274166664"><ele>489.0</ele><time>2026-04-12T09:03:29.999Z</time></trkpt><trkpt lat="43.568866728717204" lon="12.185600293796501"><ele>488.79999999999995</ele><time>2026-04-12T09:03:30.999Z</time></trkpt><trkpt lat="43.56880157686958" lon="12.185689633874514"><ele>488.59999999999997</ele><time>2026-04-12T09:03:31.999Z</time></trkpt><trkpt lat="43.568742154075636" lon="12.185802634934905"><ele>488.4</ele><time>2026-04-12T09:03:32.999Z</time></trkpt><trkpt lat="43.56867981354196" lon="12.185928837083265"><ele>488.2</ele><time>2026-04-12T09:03:33.999Z</time></trkpt><trkpt lat="43.56861647566725" lon="12.186065486580087"><ele>488.0</ele><time>2026-04-12T09:03:34.999Z</time></trkpt><trkpt lat="43.568569322948726" lon="12.18619614172927"><ele>487.99999999999994</ele><time>2026-04-12T09:03:35.999Z</time></trkpt><trkpt lat="43.56853296745428" lon="12.186311155581432"><ele>488.0</ele><time>2026-04-12T09:03:36.999Z</time></trkpt><trkpt lat="43.56850073256061" lon="12.18641933875049"><ele>488.0</ele><time>2026-04-12T09:03:37.999Z</time></trkpt><trkpt lat="43.568471581138795" lon="12.186519794305617"><ele>488.0</ele><time>2026-04-12T09:03:38.999Z</time></trkpt><trkpt lat="43.568438860996075" lon="12.186623289554289"><ele>487.99999999999994</ele><time>2026-04-12T09:03:39.999Z</time></trkpt><trkpt lat="43.568414949300085" lon="12.186720662696564"><ele>488.0</ele><time>2026-04-12T09:03:40.999Z</time></trkpt><trkpt lat="43.56838622794398" lon="12.186815877993991"><ele>487.99999999999994</ele><time>2026-04-12T09:03:41.999Z</time></trkpt><trkpt lat="43.568354058175544" lon="12.186907277027242"><ele>488.0</ele><time>2026-04-12T09:03:42.999Z</time></trkpt><trkpt lat="43.56830733532858" lon="12.186981558663096"><ele>488.0</ele><time>2026-04-12T09:03:43.999Z</time></trkpt><trkpt lat="43.56824583429862" lon="12.187032803374889"><ele>488.0</ele><time>2026-04-12T09:03:44.999Z</time></trkpt><trkpt lat="43.56817104195129" lon="12.187037935622069"><ele>487.99999999999994</ele><time>2026-04-12T09:03:45.999Z</time></trkpt><trkpt lat="43.568093382164356" lon="12.187018273746167"><ele>488.0</ele><time>2026-04-12T09:03:46.999Z</time></trkpt><trkpt lat="43.56801740559015" lon="12.186986504376438"><ele>487.99999999999994</ele><time>2026-04-12T09:03:47.999Z</time></trkpt><trkpt lat="43.56794703435624" lon="12.1869691347728"><ele>488.0</ele><time>2026-04-12T09:03:48.999Z</time></trkpt><trkpt lat="43.56786673003627" lon="12.186962696542956"><ele>488.0</ele><time>2026-04-12T09:03:49.999Z</time></trkpt><trkpt lat="43.56779004098649" lon="12.186949048234423"><ele>488.0</ele><time>2026-04-12T09:03:50.999Z</time></trkpt><trkpt lat="43.56771388035809" lon="12.186926997716109"><ele>487.99999999999994</ele><time>2026-04-12T09:03:51.999Z</time></trkpt><trkpt lat="43.56763500261001" lon="12.186881496785132"><ele>488.0</ele><time>2026-04-12T09:03:52.999Z</time></trkpt><trkpt lat="43.56756745740339" lon="12.1868302233265"><ele>485.49999999999994</ele><time>2026-04-12T09:03:53.999Z</time></trkpt><trkpt lat="43.567508769012875" lon="12.18674847262643"><ele>483.0</ele><time>2026-04-12T09:03:54.999Z</time></trkpt><trkpt lat="43.56746320017709" lon="12.1866550841761"><ele>480.5</ele><time>2026-04-12T09:03:55.999Z</time></trkpt><trkpt lat="43.56743210683715" lon="12.186559262108421"><ele>478.0</ele><time>2026-04-12T09:03:56.999Z</time></trkpt><trkpt lat="43.567413818704075" lon="12.186443746530092"><ele>475.49999999999994</ele><time>2026-04-12T09:03:57.998Z</time></trkpt><trkpt lat="43.567406110668344" lon="12.186315866880753"><ele>473.0</ele><time>2026-04-12T09:03:58.998Z</time></trkpt><trkpt lat="43.567415417398465" lon="12.186160114347174"><ele>472.2</ele><time>2026-04-12T09:03:59.998Z</time></trkpt><trkpt lat="43.56743135902725" lon="12.1860040476049"><ele>471.4</ele><time>2026-04-12T09:04:00.998Z</time></trkpt><trkpt lat="43.567439734828305" lon="12.185861270906777"><ele>470.59999999999997</ele><time>2026-04-12T09:04:01.998Z</time></trkpt><trkpt lat="43.56744399410842" lon="12.18571115046966"><ele>469.79999999999995</ele><time>2026-04-12T09:04:02.998Z</time></trkpt><trkpt lat="43.56744211040364" lon="12.185552299566837"><ele>469.0</ele><time>2026-04-12T09:04:03.998Z</time></trkpt><trkpt lat="43.56744428289846" lon="12.185411484916653"><ele>467.50000000000006</ele><time>2026-04-12T09:04:04.998Z</time></trkpt><trkpt lat="43.567456734879144" lon="12.18528607930585"><ele>466.0</ele><time>2026-04-12T09:04:05.998Z</time></trkpt><trkpt lat="43.5674767800926" lon="12.185161160317785"><ele>464.5</ele><time>2026-04-12T09:04:06.998Z</time></trkpt><trkpt lat="43.5674929625888" lon="12.185039461259807"><ele>463.0</ele><time>2026-04-12T09:04:07.998Z</time></trkpt><trkpt lat="43.56751677258158" lon="12.184930065049256"><ele>461.50000000000006</ele><time>2026-04-12T09:04:08.998Z</time></trkpt><trkpt lat="43.56755633985614" lon="12.184814909361693"><ele>460.0</ele><time>2026-04-12T09:04:09.998Z</time></trkpt><trkpt lat="43.56760471011032" lon="12.184680846116857"><ele>458.8</ele><time>2026-04-12T09:04:10.998Z</time></trkpt><trkpt lat="43.56764156293455" lon="12.18452982344037"><ele>457.6</ele><time>2026-04-12T09:04:11.998Z</time></trkpt><trkpt lat="43.56767280166495" lon="12.184392678709454"><ele>456.4</ele><time>2026-04-12T09:04:12.998Z</time></trkpt><trkpt lat="43.56770486664033" lon="12.184265614314931"><ele>455.2</ele><time>2026-04-12T09:04:13.998Z</time></trkpt><trkpt lat="43.5677296874995" lon="12.184149242751937"><ele>454.0</ele><time>2026-04-12T09:04:14.998Z</time></trkpt><trkpt lat="43.56772065269294" lon="12.184050251458961"><ele>454.0</ele><time>2026-04-12T09:04:15.998Z</time></trkpt><trkpt lat="43.56763134094677" lon="12.183970275839387"><ele>454.0</ele><time>2026-04-12T09:04:17.998Z</time></trkpt><trkpt lat="43.56753578169179" lon="12.184072265602179"><ele>454.0</ele><time>2026-04-12T09:04:19.998Z</time></trkpt><trkpt lat="43.56746438724753" lon="12.184149587787426"><ele>454.0</ele><time>2026-04-12T09:04:22Z</time></trkpt><trkpt lat="43.56739627519966" lon="12.184214637652108"><ele>454.0</ele><time>2026-04-12T09:04:24Z</time></trkpt><trkpt lat="43.56729873525785" lon="12.18430050334686"><ele>454.0</ele><time>2026-04-12T09:04:26Z</time></trkpt><trkpt lat="43.567206286709386" lon="12.184399835161438"><ele>454.0</ele><time>2026-04-12T09:04:28Z</time></trkpt><trkpt lat="43.56711189442714" lon="12.184490673853857"><ele>454.0</ele><time>2026-04-12T09:04:30Z</time></trkpt><trkpt lat="43.56705920531724" lon="12.184546864088185"><ele>454.0</ele><time>2026-04-12T09:04:31Z</time></trkpt><trkpt lat="43.56700028583251" lon="12.184615189099503"><ele>454.0</ele><time>2026-04-12T09:04:32Z</time></trkpt><trkpt lat="43.56694292669838" lon="12.184688598397376"><ele>454.00000000000006</ele><time>2026-04-12T09:04:33Z</time></trkpt><trkpt lat="43.56688590326208" lon="12.18476762543674"><ele>454.0</ele><time>2026-04-12T09:04:34Z</time></trkpt><trkpt lat="43.56682529434254" lon="12.18484624187622"><ele>454.0</ele><time>2026-04-12T09:04:35Z</time></trkpt><trkpt lat="43.56676291704914" lon="12.184930177500146"><ele>454.0</ele><time>2026-04-12T09:04:36Z</time></trkpt><trkpt lat="43.566703171431854" lon="12.18502441203575"><ele>454.00000000000006</ele><time>2026-04-12T09:04:37Z</time></trkpt><trkpt lat="43.56664066342832" lon="12.18511442857366"><ele>454.0</ele><time>2026-04-12T09:04:38Z</time></trkpt><trkpt lat="43.56658641562245" lon="12.185180128719221"><ele>452.50000000000006</ele><time>2026-04-12T09:04:39Z</time></trkpt><trkpt lat="43.56653070220073" lon="12.185242868624128"><ele>451.0</ele><time>2026-04-12T09:04:40Z</time></trkpt><trkpt lat="43.566474600675086" lon="12.185309184086858"><ele>449.5</ele><time>2026-04-12T09:04:41Z</time></trkpt><trkpt lat="43.566414175634364" lon="12.185381881553417"><ele>448.0</ele><time>2026-04-12T09:04:42Z</time></trkpt><trkpt lat="43.56635702920664" lon="12.185449339205682"><ele>446.50000000000006</ele><time>2026-04-12T09:04:43Z</time></trkpt><trkpt lat="43.5662965646219" lon="12.185518510463458"><ele>445.0</ele><time>2026-04-12T09:04:44Z</time></trkpt><trkpt lat="43.566232200143695" lon="12.185592653152229"><ele>444.6666666666667</ele><time>2026-04-12T09:04:45Z</time></trkpt><trkpt lat="43.56616413159477" lon="12.185670241956007"><ele>444.33333333333337</ele><time>2026-04-12T09:04:46Z</time></trkpt><trkpt lat="43.56609831205296" lon="12.185747218283772"><ele>444.0</ele><time>2026-04-12T09:04:47Z</time></trkpt><trkpt lat="43.56603441290478" lon="12.1858178974953"><ele>443.66666666666663</ele><time>2026-04-12T09:04:48Z</time></trkpt><trkpt lat="43.56596023648318" lon="12.185903424747936"><ele>443.3333333333333</ele><time>2026-04-12T09:04:49Z</time></trkpt><trkpt lat="43.565890750440865" lon="12.185984917143989"><ele>443.0</ele><time>2026-04-12T09:04:50Z</time></trkpt><trkpt lat="43.565827910917946" lon="12.186061741141913"><ele>441.99999999999994</ele><time>2026-04-12T09:04:51Z</time></trkpt><trkpt lat="43.565763089086786" lon="12.186145235764581"><ele>441.0</ele><time>2026-04-12T09:04:52Z</time></trkpt><trkpt lat="43.565702477709266" lon="12.186226812381475"><ele>440.0</ele><time>2026-04-12T09:04:53Z</time></trkpt><trkpt lat="43.56564251533909" lon="12.18631765346539"><ele>439.0</ele><time>2026-04-12T09:04:54Z</time></trkpt><trkpt lat="43.56559184185206" lon="12.18640515541495"><ele>437.99999999999994</ele><time>2026-04-12T09:04:55Z</time></trkpt><trkpt lat="43.565543705700854" lon="12.18649592134702"><ele>437.0</ele><time>2026-04-12T09:04:56Z</time></trkpt><trkpt lat="43.56548813603954" lon="12.186593045672927"><ele>436.99999999999994</ele><time>2026-04-12T09:04:57Z</time></trkpt><trkpt lat="43.56542482854123" lon="12.186676919037371"><ele>437.0</ele><time>2026-04-12T09:04:58Z</time></trkpt><trkpt lat="43.56535041349568" lon="12.186720456729988"><ele>437.0</ele><time>2026-04-12T09:04:59Z</time></trkpt><trkpt lat="43.56526094562013" lon="12.186730751922314"><ele>437.0</ele><time>2026-04-12T09:05:00Z</time></trkpt><trkpt lat="43.565192003024066" lon="12.186709656090535"><ele>436.99999999999994</ele><time>2026-04-12T09:05:01Z</time></trkpt><trkpt lat="43.56512259588005" lon="12.186699084503864"><ele>437.0</ele><time>2026-04-12T09:05:02Z</time></trkpt><trkpt lat="43.565056671042086" lon="12.186697600466431"><ele>435.16666666666663</ele><time>2026-04-12T09:05:02.999Z</time></trkpt><trkpt lat="43.564988802484066" lon="12.186697367296466"><ele>433.3333333333333</ele><time>2026-04-12T09:05:03.999Z</time></trkpt><trkpt lat="43.564904048083" lon="12.186696517364954"><ele>431.5</ele><time>2026-04-12T09:05:04.999Z</time></trkpt><trkpt lat="43.564813163573945" lon="12.186685196418052"><ele>429.66666666666663</ele><time>2026-04-12T09:05:05.999Z</time></trkpt><trkpt lat="43.56471655154421" lon="12.186659707268793"><ele>427.8333333333333</ele><time>2026-04-12T09:05:06.999Z</time></trkpt><trkpt lat="43.56462782841104" lon="12.186611918415675"><ele>426.0</ele><time>2026-04-12T09:05:07.999Z</time></trkpt><trkpt lat="43.564544561767356" lon="12.186549992003531"><ele>424.4</ele><time>2026-04-12T09:05:08.999Z</time></trkpt><trkpt lat="43.564460981551576" lon="12.186495213851233"><ele>422.8</ele><time>2026-04-12T09:05:09.999Z</time></trkpt><trkpt lat="43.5643794871195" lon="12.186444258243371"><ele>421.2</ele><time>2026-04-12T09:05:10.999Z</time></trkpt><trkpt lat="43.564296994123985" lon="12.186391842156238"><ele>419.59999999999997</ele><time>2026-04-12T09:05:11.999Z</time></trkpt><trkpt lat="43.5642101274642" lon="12.18634018822048"><ele>418.0</ele><time>2026-04-12T09:05:12.999Z</time></trkpt><trkpt lat="43.56411902874283" lon="12.186285787521367"><ele>418.0</ele><time>2026-04-12T09:05:13.999Z</time></trkpt><trkpt lat="43.564025245013" lon="12.186230545828206"><ele>418.0</ele><time>2026-04-12T09:05:14.999Z</time></trkpt><trkpt lat="43.56392736275481" lon="12.186174845276645"><ele>418.0</ele><time>2026-04-12T09:05:15.999Z</time></trkpt><trkpt lat="43.56382903816045" lon="12.1861228011759"><ele>418.0</ele><time>2026-04-12T09:05:16.999Z</time></trkpt><trkpt lat="43.56373713545489" lon="12.186068304997764"><ele>418.0</ele><time>2026-04-12T09:05:17.999Z</time></trkpt><trkpt lat="43.5636471190943" lon="12.186016886266263"><ele>415.2</ele><time>2026-04-12T09:05:18.999Z</time></trkpt><trkpt lat="43.563549088831984" lon="12.185961237910655"><ele>412.4</ele><time>2026-04-12T09:05:19.999Z</time></trkpt><trkpt lat="43.56344903741888" lon="12.185908771248847"><ele>409.59999999999997</ele><time>2026-04-12T09:05:20.999Z</time></trkpt><trkpt lat="43.56334290737453" lon="12.185856768017194"><ele>406.79999999999995</ele><time>2026-04-12T09:05:21.999Z</time></trkpt><trkpt lat="43.56324146072394" lon="12.185811843790363"><ele>404.0</ele><time>2026-04-12T09:05:22.999Z</time></trkpt><trkpt lat="43.56314759007594" lon="12.185767546518807"><ele>404.0</ele><time>2026-04-12T09:05:23.999Z</time></trkpt><trkpt lat="43.56306049363539" lon="12.185713103757163"><ele>404.0</ele><time>2026-04-12T09:05:24.999Z</time></trkpt><trkpt lat="43.56296905083593" lon="12.185646258756602"><ele>404.0</ele><time>2026-04-12T09:05:25.999Z</time></trkpt><trkpt lat="43.56287703208858" lon="12.185559937044088"><ele>404.0</ele><time>2026-04-12T09:05:26.999Z</time></trkpt><trkpt lat="43.56278110631166" lon="12.185478031050392"><ele>404.0</ele><time>2026-04-12T09:05:27.999Z</time></trkpt><trkpt lat="43.56268667623228" lon="12.185401500959934"><ele>403.0</ele><time>2026-04-12T09:05:28.999Z</time></trkpt><trkpt lat="43.562589769010906" lon="12.185312517287308"><ele>402.0</ele><time>2026-04-12T09:05:29.999Z</time></trkpt><trkpt lat="43.56250821090165" lon="12.185247715986181"><ele>401.0</ele><time>2026-04-12T09:05:30.999Z</time></trkpt><trkpt lat="43.56242041082698" lon="12.185174261434465"><ele>400.0</ele><time>2026-04-12T09:05:31.999Z</time></trkpt><trkpt lat="43.562336133242226" lon="12.185097099137508"><ele>399.0</ele><time>2026-04-12T09:05:32.999Z</time></trkpt><trkpt lat="43.56225668688857" lon="12.185001934820175"><ele>399.0</ele><time>2026-04-12T09:05:33.999Z</time></trkpt><trkpt lat="43.562190378337434" lon="12.184881969019187"><ele>399.0</ele><time>2026-04-12T09:05:34.999Z</time></trkpt><trkpt lat="43.56214482243967" lon="12.184737332876518"><ele>399.0</ele><time>2026-04-12T09:05:35.999Z</time></trkpt><trkpt lat="43.56211102495408" lon="12.184588858707542"><ele>399.0</ele><time>2026-04-12T09:05:36.999Z</time></trkpt><trkpt lat="43.56209398018397" lon="12.184426048054993"><ele>398.5</ele><time>2026-04-12T09:05:37.999Z</time></trkpt><trkpt lat="43.56208460231401" lon="12.18429251205846"><ele>398.0</ele><time>2026-04-12T09:05:38.999Z</time></trkpt><trkpt lat="43.56207819710071" lon="12.184192291519473"><ele>397.5</ele><time>2026-04-12T09:05:39.999Z</time></trkpt><trkpt lat="43.562074085076404" lon="12.18410496537522"><ele>397.0</ele><time>2026-04-12T09:05:40.999Z</time></trkpt><trkpt lat="43.56204302635148" lon="12.183964908989637"><ele>396.5</ele><time>2026-04-12T09:05:42.999Z</time></trkpt><trkpt lat="43.561934685813654" lon="12.183986362733418"><ele>396.0</ele><time>2026-04-12T09:05:44.999Z</time></trkpt><trkpt lat="43.561902967183485" lon="12.184062960652138"><ele>395.4</ele><time>2026-04-12T09:05:45.999Z</time></trkpt><trkpt lat="43.56189934213646" lon="12.184221748985953"><ele>394.8</ele><time>2026-04-12T09:05:47.999Z</time></trkpt><trkpt lat="43.561821230767514" lon="12.184319300972188"><ele>394.2</ele><time>2026-04-12T09:05:49.999Z</time></trkpt><trkpt lat="43.56175460052579" lon="12.184354738932857"><ele>393.59999999999997</ele><time>2026-04-12T09:05:50.999Z</time></trkpt><trkpt lat="43.561678596004676" lon="12.184374120267867"><ele>393.0</ele><time>2026-04-12T09:05:51.999Z</time></trkpt><trkpt lat="43.56159836998602" lon="12.184354800856514"><ele>393.0</ele><time>2026-04-12T09:05:52.999Z</time></trkpt><trkpt lat="43.56152442118335" lon="12.184298882718954"><ele>393.0</ele><time>2026-04-12T09:05:53.999Z</time></trkpt><trkpt lat="43.56146488202727" lon="12.184213553076832"><ele>393.0</ele><time>2026-04-12T09:05:54.999Z</time></trkpt><trkpt lat="43.56139541713623" lon="12.184135585113543"><ele>393.0</ele><time>2026-04-12T09:05:55.999Z</time></trkpt><trkpt lat="43.56131258125672" lon="12.184059411966787"><ele>393.0</ele><time>2026-04-12T09:05:56.999Z</time></trkpt><trkpt lat="43.56122127808731" lon="12.183983586967306"><ele>392.5</ele><time>2026-04-12T09:05:57.999Z</time></trkpt><trkpt lat="43.56112503016968" lon="12.183898858204204"><ele>392.0</ele><time>2026-04-12T09:05:58.999Z</time></trkpt><trkpt lat="43.56102981357791" lon="12.183811925493282"><ele>391.5</ele><time>2026-04-12T09:05:59.999Z</time></trkpt><trkpt lat="43.56093193466003" lon="12.183721489530198"><ele>391.0</ele><time>2026-04-12T09:06:00.999Z</time></trkpt><trkpt lat="43.56082580096305" lon="12.18362065120647"><ele>391.0</ele><time>2026-04-12T09:06:01.999Z</time></trkpt><trkpt lat="43.56071554959328" lon="12.183514097652049"><ele>391.0</ele><time>2026-04-12T09:06:02.998Z</time></trkpt><trkpt lat="43.56061234486372" lon="12.183416496536568"><ele>391.0</ele><time>2026-04-12T09:06:03.998Z</time></trkpt><trkpt lat="43.560512857018416" lon="12.183327512193877"><ele>391.0</ele><time>2026-04-12T09:06:04.998Z</time></trkpt><trkpt lat="43.56040927353292" lon="12.183247030111197"><ele>391.0</ele><time>2026-04-12T09:06:05.998Z</time></trkpt><trkpt lat="43.56031163533765" lon="12.183202939901664"><ele>391.0</ele><time>2026-04-12T09:06:06.998Z</time></trkpt><trkpt lat="43.560220260855836" lon="12.183201066014778"><ele>391.0</ele><time>2026-04-12T09:06:07.998Z</time></trkpt><trkpt lat="43.5601485320978" lon="12.183200878624213"><ele>391.0</ele><time>2026-04-12T09:06:08.998Z</time></trkpt><trkpt lat="43.56004958301444" lon="12.183170270219618"><ele>391.0</ele><time>2026-04-12T09:06:10.998Z</time></trkpt><trkpt lat="43.55997564042827" lon="12.183115875148593"><ele>389.0</ele><time>2026-04-12T09:06:12.998Z</time></trkpt><trkpt lat="43.55988867350424" lon="12.183053387486249"><ele>387.0</ele><time>2026-04-12T09:06:14.998Z</time></trkpt><trkpt lat="43.559769443197084" lon="12.182963987071224"><ele>385.0</ele><time>2026-04-12T09:06:16.998Z</time></trkpt><trkpt lat="43.559692048073615" lon="12.182931024779807"><ele>383.0</ele><time>2026-04-12T09:06:17.998Z</time></trkpt><trkpt lat="43.559599959467455" lon="12.182898675563022"><ele>381.0</ele><time>2026-04-12T09:06:18.998Z</time></trkpt><trkpt lat="43.55949470508219" lon="12.182861884472343"><ele>380.25</ele><time>2026-04-12T09:06:19.998Z</time></trkpt><trkpt lat="43.55938541388956" lon="12.182820691563995"><ele>379.5</ele><time>2026-04-12T09:06:20.998Z</time></trkpt><trkpt lat="43.559275245651584" lon="12.182775268233554"><ele>378.75</ele><time>2026-04-12T09:06:21.998Z</time></trkpt><trkpt lat="43.55916680499619" lon="12.182734284378752"><ele>378.0</ele><time>2026-04-12T09:06:22.998Z</time></trkpt><trkpt lat="43.55905456986431" lon="12.182686977978445"><ele>378.0</ele><time>2026-04-12T09:06:23.998Z</time></trkpt><trkpt lat="43.5589351944463" lon="12.182636230253289"><ele>378.0</ele><time>2026-04-12T09:06:24.998Z</time></trkpt><trkpt lat="43.55881169809039" lon="12.182576238014494"><ele>378.0</ele><time>2026-04-12T09:06:25.998Z</time></trkpt><trkpt lat="43.55869296940749" lon="12.18251079046945"><ele>378.0</ele><time>2026-04-12T09:06:26.998Z</time></trkpt><trkpt lat="43.55857460123205" lon="12.182440911998734"><ele>377.5</ele><time>2026-04-12T09:06:28Z</time></trkpt><trkpt lat="43.55846473568243" lon="12.182353850499087"><ele>377.0</ele><time>2026-04-12T09:06:29Z</time></trkpt><trkpt lat="43.55835878668129" lon="12.182264579902292"><ele>376.5</ele><time>2026-04-12T09:06:30Z</time></trkpt><trkpt lat="43.55825552908507" lon="12.18217599545643"><ele>376.0</ele><time>2026-04-12T09:06:31Z</time></trkpt><trkpt lat="43.55814775076673" lon="12.182083098356534"><ele>373.5</ele><time>2026-04-12T09:06:32Z</time></trkpt><trkpt lat="43.558041030991525" lon="12.181994829614395"><ele>371.0</ele><time>2026-04-12T09:06:33Z</time></trkpt><trkpt lat="43.55793436305728" lon="12.181904018170515"><ele>368.5</ele><time>2026-04-12T09:06:34Z</time></trkpt><trkpt lat="43.55783154812519" lon="12.181818014645453"><ele>366.0</ele><time>2026-04-12T09:06:35Z</time></trkpt><trkpt lat="43.55772613619965" lon="12.18172813237939"><ele>366.0</ele><time>2026-04-12T09:06:36Z</time></trkpt><trkpt lat="43.55762599245441" lon="12.181646123956089"><ele>366.0</ele><time>2026-04-12T09:06:37Z</time></trkpt><trkpt lat="43.55751955596086" lon="12.18157943153358"><ele>366.0</ele><time>2026-04-12T09:06:38Z</time></trkpt><trkpt lat="43.55740246468155" lon="12.181534986531851"><ele>366.0</ele><time>2026-04-12T09:06:39Z</time></trkpt><trkpt lat="43.557276693870406" lon="12.181501398074342"><ele>365.5</ele><time>2026-04-12T09:06:40Z</time></trkpt><trkpt lat="43.55715632978042" lon="12.181459527508594"><ele>365.0</ele><time>2026-04-12T09:06:41Z</time></trkpt><trkpt lat="43.5570438707937" lon="12.181416289334829"><ele>364.5</ele><time>2026-04-12T09:06:42Z</time></trkpt><trkpt lat="43.55693270850079" lon="12.181362477304859"><ele>364.0</ele><time>2026-04-12T09:06:43Z</time></trkpt><trkpt lat="43.55682804718988" lon="12.181285054003995"><ele>363.4</ele><time>2026-04-12T09:06:44Z</time></trkpt><trkpt lat="43.55674200640775" lon="12.181190380173117"><ele>362.79999999999995</ele><time>2026-04-12T09:06:45Z</time></trkpt><trkpt lat="43.556668231255664" lon="12.181092356226996"><ele>362.20000000000005</ele><time>2026-04-12T09:06:46Z</time></trkpt><trkpt lat="43.556582080448486" lon="12.181017050047032"><ele>361.6</ele><time>2026-04-12T09:06:47Z</time></trkpt><trkpt lat="43.556468625899036" lon="12.180975063882462"><ele>361.0</ele><time>2026-04-12T09:06:48Z</time></trkpt><trkpt lat="43.5563390970472" lon="12.180975702198847"><ele>361.0</ele><time>2026-04-12T09:06:49Z</time></trkpt><trkpt lat="43.55620647815362" lon="12.181001611105465"><ele>361.0</ele><time>2026-04-12T09:06:50Z</time></trkpt><trkpt lat="43.55608176750794" lon="12.181015142971"><ele>361.0</ele><time>2026-04-12T09:06:51Z</time></trkpt><trkpt lat="43.55596662808677" lon="12.181017229261215"><ele>361.0</ele><time>2026-04-12T09:06:52Z</time></trkpt><trkpt lat="43.555850339358635" lon="12.181006129528305"><ele>360.25</ele><time>2026-04-12T09:06:53Z</time></trkpt><trkpt lat="43.55573298663096" lon="12.18097809107158"><ele>359.5</ele><time>2026-04-12T09:06:54Z</time></trkpt><trkpt lat="43.55561691852958" lon="12.180924807845905"><ele>358.75</ele><time>2026-04-12T09:06:55Z</time></trkpt><trkpt lat="43.55550692392907" lon="12.180848653071267"><ele>358.0</ele><time>2026-04-12T09:06:56Z</time></trkpt><trkpt lat="43.55541247068733" lon="12.180754290085785"><ele>356.79999999999995</ele><time>2026-04-12T09:06:57Z</time></trkpt><trkpt lat="43.55533677492273" lon="12.180654941748918"><ele>355.6</ele><time>2026-04-12T09:06:58Z</time></trkpt><trkpt lat="43.55528975766101" lon="12.180534178097808"><ele>354.4</ele><time>2026-04-12T09:06:59Z</time></trkpt><trkpt lat="43.55525672330722" lon="12.180401481615888"><ele>353.20000000000005</ele><time>2026-04-12T09:07:00Z</time></trkpt><trkpt lat="43.55522480818474" lon="12.180255753667598"><ele>352.0</ele><time>2026-04-12T09:07:01Z</time></trkpt><trkpt lat="43.55518078918476" lon="12.180115215027477"><ele>352.0</ele><time>2026-04-12T09:07:02Z</time></trkpt><trkpt lat="43.555127741824876" lon="12.179970371059245"><ele>352.0</ele><time>2026-04-12T09:07:03Z</time></trkpt><trkpt lat="43.555067605410045" lon="12.179817041099053"><ele>352.0</ele><time>2026-04-12T09:07:04Z</time></trkpt><trkpt lat="43.55500642656168" lon="12.17966427611409"><ele>352.0</ele><time>2026-04-12T09:07:05Z</time></trkpt><trkpt lat="43.5549480360764" lon="12.179509944118559"><ele>352.75</ele><time>2026-04-12T09:07:06Z</time></trkpt><trkpt lat="43.554888745315715" lon="12.179354353738884"><ele>353.5</ele><time>2026-04-12T09:07:07Z</time></trkpt><trkpt lat="43.554832616840166" lon="12.17919080665125"><ele>354.25</ele><time>2026-04-12T09:07:08Z</time></trkpt><trkpt lat="43.55477544938059" lon="12.179026970426506"><ele>355.0</ele><time>2026-04-12T09:07:09Z</time></trkpt><trkpt lat="43.554724810778545" lon="12.178878631015445"><ele>354.25</ele><time>2026-04-12T09:07:10Z</time></trkpt><trkpt lat="43.55467203375025" lon="12.178748091550654"><ele>353.5</ele><time>2026-04-12T09:07:11Z</time></trkpt><trkpt lat="43.554597022105646" lon="12.178642519328655"><ele>352.75</ele><time>2026-04-12T09:07:11.999Z</time></trkpt><trkpt lat="43.55449935891119" lon="12.178562823605485"><ele>352.0</ele><time>2026-04-12T09:07:12.999Z</time></trkpt><trkpt lat="43.55438986113209" lon="12.1784920373875"><ele>352.0</ele><time>2026-04-12T09:07:13.999Z</time></trkpt><trkpt lat="43.55428924645256" lon="12.178409271637452"><ele>352.0</ele><time>2026-04-12T09:07:14.999Z</time></trkpt><trkpt lat="43.55419673984942" lon="12.178317645825086"><ele>352.0</ele><time>2026-04-12T09:07:15.999Z</time></trkpt><trkpt lat="43.55411330377749" lon="12.17822455271691"><ele>352.0</ele><time>2026-04-12T09:07:16.999Z</time></trkpt><trkpt lat="43.55402994804763" lon="12.17813991153372"><ele>352.0</ele><time>2026-04-12T09:07:17.999Z</time></trkpt><trkpt lat="43.55394624756948" lon="12.178052215072771"><ele>351.40000000000003</ele><time>2026-04-12T09:07:18.999Z</time></trkpt><trkpt lat="43.55386041373955" lon="12.177967485838296"><ele>350.8</ele><time>2026-04-12T09:07:19.999Z</time></trkpt><trkpt lat="43.5537720779859" lon="12.177881005779817"><ele>350.2</ele><time>2026-04-12T09:07:20.999Z</time></trkpt><trkpt lat="43.55367373545193" lon="12.17780029413763"><ele>349.6</ele><time>2026-04-12T09:07:21.999Z</time></trkpt><trkpt lat="43.553561094277" lon="12.177738491399502"><ele>349.0</ele><time>2026-04-12T09:07:22.999Z</time></trkpt><trkpt lat="43.55343852835691" lon="12.177690974502028"><ele>349.0</ele><time>2026-04-12T09:07:23.999Z</time></trkpt><trkpt lat="43.553327736286846" lon="12.177638961747197"><ele>349.0</ele><time>2026-04-12T09:07:24.999Z</time></trkpt><trkpt lat="43.553225294371636" lon="12.17758837058424"><ele>349.0</ele><time>2026-04-12T09:07:25.999Z</time></trkpt><trkpt lat="43.55312143993984" lon="12.17753328486818"><ele>349.0</ele><time>2026-04-12T09:07:26.999Z</time></trkpt><trkpt lat="43.55301228727334" lon="12.177482616611119"><ele>349.0</ele><time>2026-04-12T09:07:27.999Z</time></trkpt><trkpt lat="43.55290142089457" lon="12.177429480950119"><ele>349.0</ele><time>2026-04-12T09:07:28.999Z</time></trkpt><trkpt lat="43.55280342751215" lon="12.177390922785763"><ele>349.0</ele><time>2026-04-12T09:07:29.999Z</time></trkpt><trkpt lat="43.552702783571085" lon="12.17737184752148"><ele>349.0</ele><time>2026-04-12T09:07:30.999Z</time></trkpt><trkpt lat="43.55259148715122" lon="12.177370581824954"><ele>349.0</ele><time>2026-04-12T09:07:31.999Z</time></trkpt><trkpt lat="43.55247490216957" lon="12.17738135831101"><ele>347.79999999999995</ele><time>2026-04-12T09:07:32.999Z</time></trkpt><trkpt lat="43.55236759943989" lon="12.177400386212492"><ele>346.59999999999997</ele><time>2026-04-12T09:07:33.999Z</time></trkpt><trkpt lat="43.552271227552176" lon="12.177412080394483"><ele>345.4</ele><time>2026-04-12T09:07:34.999Z</time></trkpt><trkpt lat="43.55218306078852" lon="12.17742650984512"><ele>344.2</ele><time>2026-04-12T09:07:35.999Z</time></trkpt><trkpt lat="43.55209422950769" lon="12.177439638233523"><ele>343.0</ele><time>2026-04-12T09:07:36.999Z</time></trkpt><trkpt lat="43.55200823762997" lon="12.17745385211953"><ele>342.2</ele><time>2026-04-12T09:07:37.999Z</time></trkpt><trkpt lat="43.55191468657736" lon="12.17748153164855"><ele>341.4</ele><time>2026-04-12T09:07:38.999Z</time></trkpt><trkpt lat="43.55181908653035" lon="12.177497639497854"><ele>340.59999999999997</ele><time>2026-04-12T09:07:39.999Z</time></trkpt><trkpt lat="43.551713512461596" lon="12.177497510068058"><ele>339.79999999999995</ele><time>2026-04-12T09:07:40.999Z</time></trkpt><trkpt lat="43.55161550136162" lon="12.177483549018742"><ele>339.0</ele><time>2026-04-12T09:07:41.999Z</time></trkpt><trkpt lat="43.55151586820708" lon="12.177484860322519"><ele>339.0</ele><time>2026-04-12T09:07:42.999Z</time></trkpt><trkpt lat="43.55142728493853" lon="12.177484396983138"><ele>339.0</ele><time>2026-04-12T09:07:43.999Z</time></trkpt><trkpt lat="43.551337147322606" lon="12.177483563029272"><ele>339.0</ele><time>2026-04-12T09:07:44.999Z</time></trkpt><trkpt lat="43.55126249939117" lon="12.177479967288265"><ele>339.0</ele><time>2026-04-12T09:07:45.999Z</time></trkpt><trkpt lat="43.551188558021195" lon="12.177484021534468"><ele>339.0</ele><time>2026-04-12T09:07:46.999Z</time></trkpt><trkpt lat="43.551117485803985" lon="12.177470020388323"><ele>339.0</ele><time>2026-04-12T09:07:47.999Z</time></trkpt><trkpt lat="43.55102773461904" lon="12.177357914324205"><ele>338.6</ele><time>2026-04-12T09:07:49.999Z</time></trkpt><trkpt lat="43.55098403810834" lon="12.177272342101114"><ele>338.2</ele><time>2026-04-12T09:07:50.999Z</time></trkpt><trkpt lat="43.550924417180156" lon="12.177185298836923"><ele>337.8</ele><time>2026-04-12T09:07:51.999Z</time></trkpt><trkpt lat="43.550859738463366" lon="12.177098787171689"><ele>337.40000000000003</ele><time>2026-04-12T09:07:52.999Z</time></trkpt><trkpt lat="43.550795388504504" lon="12.17700965342942"><ele>337.0</ele><time>2026-04-12T09:07:53.999Z</time></trkpt><trkpt lat="43.550719598908955" lon="12.176903194476127"><ele>337.0</ele><time>2026-04-12T09:07:54.999Z</time></trkpt><trkpt lat="43.55064739485854" lon="12.176780316061325"><ele>337.0</ele><time>2026-04-12T09:07:55.999Z</time></trkpt><trkpt lat="43.55059069863704" lon="12.176660801663152"><ele>337.0</ele><time>2026-04-12T09:07:56.999Z</time></trkpt><trkpt lat="43.55053855854539" lon="12.176546091180642"><ele>337.0</ele><time>2026-04-12T09:07:57.999Z</time></trkpt><trkpt lat="43.55049263286008" lon="12.176425704252553"><ele>337.0</ele><time>2026-04-12T09:07:58.999Z</time></trkpt><trkpt lat="43.55044457880483" lon="12.176329687311418"><ele>336.5</ele><time>2026-04-12T09:07:59.999Z</time></trkpt><trkpt lat="43.550393903009265" lon="12.176239184505771"><ele>336.0</ele><time>2026-04-12T09:08:00.999Z</time></trkpt><trkpt lat="43.550347150295806" lon="12.17615221411795"><ele>335.5</ele><time>2026-04-12T09:08:01.999Z</time></trkpt><trkpt lat="43.55030719994484" lon="12.176052942012797"><ele>335.0</ele><time>2026-04-12T09:08:02.999Z</time></trkpt><trkpt lat="43.55027890488993" lon="12.17594113165011"><ele>334.5</ele><time>2026-04-12T09:08:03.999Z</time></trkpt><trkpt lat="43.55025545617208" lon="12.175835346157042"><ele>334.0</ele><time>2026-04-12T09:08:04.999Z</time></trkpt><trkpt lat="43.550246160716355" lon="12.175738860338999"><ele>333.5</ele><time>2026-04-12T09:08:05.999Z</time></trkpt><trkpt lat="43.55020066693472" lon="12.175586705840097"><ele>333.0</ele><time>2026-04-12T09:08:07.999Z</time></trkpt><trkpt lat="43.5501315231364" lon="12.175533068934639"><ele>332.5</ele><time>2026-04-12T09:08:08.999Z</time></trkpt><trkpt lat="43.55007477156905" lon="12.175453545544142"><ele>332.0</ele><time>2026-04-12T09:08:09.999Z</time></trkpt><trkpt lat="43.55001746858937" lon="12.175390254713435"><ele>331.5</ele><time>2026-04-12T09:08:10.999Z</time></trkpt><trkpt lat="43.54996364360565" lon="12.175331762957605"><ele>331.0</ele><time>2026-04-12T09:08:11.998Z</time></trkpt><trkpt lat="43.54989150695422" lon="12.175226060982734"><ele>331.0</ele><time>2026-04-12T09:08:13.998Z</time></trkpt><trkpt lat="43.54985128081403" lon="12.175136894488897"><ele>331.0</ele><time>2026-04-12T09:08:27.998Z</time></trkpt><trkpt lat="43.54990907482925" lon="12.174995444555128"><ele>331.0</ele><time>2026-04-12T09:08:30.998Z</time></trkpt><trkpt lat="43.54996468149372" lon="12.174932629175217"><ele>331.0</ele><time>2026-04-12T09:08:31.998Z</time></trkpt><trkpt lat="43.550018508614464" lon="12.174859121345182"><ele>331.0</ele><time>2026-04-12T09:08:32.998Z</time></trkpt><trkpt lat="43.55006920362639" lon="12.174787139339392"><ele>331.0</ele><time>2026-04-12T09:08:34Z</time></trkpt><trkpt lat="43.550130745488595" lon="12.174691915138155"><ele>330.8</ele><time>2026-04-12T09:08:35Z</time></trkpt><trkpt lat="43.550202676875145" lon="12.174595308007817"><ele>330.6</ele><time>2026-04-12T09:08:36Z</time></trkpt><trkpt lat="43.55027050054344" lon="12.174497807060845"><ele>330.4</ele><time>2026-04-12T09:08:37Z</time></trkpt><trkpt lat="43.55033895667309" lon="12.1744078526142"><ele>330.2</ele><time>2026-04-12T09:08:38Z</time></trkpt><trkpt lat="43.55041106828932" lon="12.174307111624374"><ele>330.0</ele><time>2026-04-12T09:08:39Z</time></trkpt><trkpt lat="43.55049244184289" lon="12.174193867006519"><ele>330.0</ele><time>2026-04-12T09:08:40Z</time></trkpt><trkpt lat="43.550577309065886" lon="12.174073796695728"><ele>330.0</ele><time>2026-04-12T09:08:41Z</time></trkpt><trkpt lat="43.55066804103115" lon="12.173949469103082"><ele>330.0</ele><time>2026-04-12T09:08:42Z</time></trkpt><trkpt lat="43.55075463902047" lon="12.173831394096533"><ele>330.0</ele><time>2026-04-12T09:08:43Z</time></trkpt><trkpt lat="43.55083118664377" lon="12.173724658473382"><ele>329.6</ele><time>2026-04-12T09:08:44Z</time></trkpt><trkpt lat="43.550905091167735" lon="12.173628692828073"><ele>329.2</ele><time>2026-04-12T09:08:45Z</time></trkpt><trkpt lat="43.550974625339194" lon="12.173529928568506"><ele>328.79999999999995</ele><time>2026-04-12T09:08:46Z</time></trkpt><trkpt lat="43.551048015699955" lon="12.173431275144637"><ele>328.4</ele><time>2026-04-12T09:08:47Z</time></trkpt><trkpt lat="43.551122156517934" lon="12.173327654506798"><ele>328.0</ele><time>2026-04-12T09:08:48Z</time></trkpt><trkpt lat="43.5511983301389" lon="12.173221522141072"><ele>328.0</ele><time>2026-04-12T09:08:49Z</time></trkpt><trkpt lat="43.55127474431559" lon="12.173116942340451"><ele>328.0</ele><time>2026-04-12T09:08:50Z</time></trkpt><trkpt lat="43.55134206085986" lon="12.173017919935784"><ele>328.0</ele><time>2026-04-12T09:08:51Z</time></trkpt><trkpt lat="43.55140750654483" lon="12.172919820275135"><ele>328.0</ele><time>2026-04-12T09:08:52Z</time></trkpt><trkpt lat="43.55148225328683" lon="12.172816931025144"><ele>328.0</ele><time>2026-04-12T09:08:53Z</time></trkpt><trkpt lat="43.55155939393793" lon="12.172709362555105"><ele>328.0</ele><time>2026-04-12T09:08:54Z</time></trkpt><trkpt lat="43.55162972420841" lon="12.172604343376623"><ele>328.0</ele><time>2026-04-12T09:08:55Z</time></trkpt><trkpt lat="43.55170352878565" lon="12.172500395348125"><ele>328.0</ele><time>2026-04-12T09:08:56Z</time></trkpt><trkpt lat="43.55177664924444" lon="12.172395470837419"><ele>328.0</ele><time>2026-04-12T09:08:57Z</time></trkpt><trkpt lat="43.551849050671386" lon="12.17229615249259"><ele>328.0</ele><time>2026-04-12T09:08:58Z</time></trkpt><trkpt lat="43.55191658311356" lon="12.172206420627727"><ele>327.8333333333333</ele><time>2026-04-12T09:08:59Z</time></trkpt><trkpt lat="43.551980320056764" lon="12.172122827571616"><ele>327.66666666666663</ele><time>2026-04-12T09:09:00Z</time></trkpt><trkpt lat="43.55203350113017" lon="12.172046878331054"><ele>327.5</ele><time>2026-04-12T09:09:01Z</time></trkpt><trkpt lat="43.55208116388349" lon="12.171979359209658"><ele>327.3333333333333</ele><time>2026-04-12T09:09:02Z</time></trkpt><trkpt lat="43.55217646899818" lon="12.171893524863693"><ele>327.1666666666667</ele><time>2026-04-12T09:09:04Z</time></trkpt><trkpt lat="43.552255112744" lon="12.171885528209566"><ele>327.0</ele><time>2026-04-12T09:09:06Z</time></trkpt><trkpt lat="43.55231946624229" lon="12.171845188543774"><ele>327.0</ele><time>2026-04-12T09:13:22Z</time></trkpt><trkpt lat="43.552390985827635" lon="12.171807239507306"><ele>327.0</ele><time>2026-04-12T09:15:10Z</time></trkpt><trkpt lat="43.552407049715676" lon="12.171722077924395"><ele>327.0</ele><time>2026-04-12T09:19:01.998Z</time></trkpt><trkpt lat="43.552389920152635" lon="12.171625309314715"><ele>327.0</ele><time>2026-04-12T09:19:23Z</time></trkpt><trkpt lat="43.55239755171564" lon="12.171503883613235"><ele>327.0</ele><time>2026-04-12T09:19:26Z</time></trkpt><trkpt lat="43.552463360261015" lon="12.171396372037107"><ele>327.0</ele><time>2026-04-12T09:19:28Z</time></trkpt><trkpt lat="43.55254413154637" lon="12.171296469663268"><ele>327.2857142857143</ele><time>2026-04-12T09:19:30Z</time></trkpt><trkpt lat="43.55259436497432" lon="12.171221394200836"><ele>327.57142857142856</ele><time>2026-04-12T09:19:31Z</time></trkpt><trkpt lat="43.552648328815366" lon="12.171146808447144"><ele>327.8571428571429</ele><time>2026-04-12T09:19:32Z</time></trkpt><trkpt lat="43.55269690848704" lon="12.171076451315312"><ele>328.1428571428571</ele><time>2026-04-12T09:19:33Z</time></trkpt><trkpt lat="43.552744881670606" lon="12.171010211350518"><ele>328.42857142857144</ele><time>2026-04-12T09:19:34Z</time></trkpt><trkpt lat="43.5528000221868" lon="12.170936741598988"><ele>328.7142857142857</ele><time>2026-04-12T09:19:35Z</time></trkpt><trkpt lat="43.5528508084822" lon="12.170874368685304"><ele>329.0</ele><time>2026-04-12T09:19:36Z</time></trkpt><trkpt lat="43.55290154415806" lon="12.170794659534373"><ele>329.2</ele><time>2026-04-12T09:19:37Z</time></trkpt><trkpt lat="43.55296183934769" lon="12.170712751778293"><ele>329.4</ele><time>2026-04-12T09:19:38Z</time></trkpt><trkpt lat="43.55301783308249" lon="12.170622395105436"><ele>329.6</ele><time>2026-04-12T09:19:39Z</time></trkpt><trkpt lat="43.55307748559818" lon="12.170532254306455"><ele>329.8</ele><time>2026-04-12T09:19:40Z</time></trkpt><trkpt lat="43.55314460047514" lon="12.170435371239373"><ele>330.0</ele><time>2026-04-12T09:19:41Z</time></trkpt><trkpt lat="43.55321055347465" lon="12.17034105370254"><ele>329.6</ele><time>2026-04-12T09:19:42Z</time></trkpt><trkpt lat="43.55328524641589" lon="12.17024990868085"><ele>329.2</ele><time>2026-04-12T09:19:43Z</time></trkpt><trkpt lat="43.553370231392535" lon="12.17015499352453"><ele>328.79999999999995</ele><time>2026-04-12T09:19:44Z</time></trkpt><trkpt lat="43.55345704555209" lon="12.170071110997213"><ele>328.4</ele><time>2026-04-12T09:19:45Z</time></trkpt><trkpt lat="43.55354798816921" lon="12.169970745137123"><ele>328.0</ele><time>2026-04-12T09:19:46Z</time></trkpt><trkpt lat="43.553644608697795" lon="12.169865481004777"><ele>327.75</ele><time>2026-04-12T09:19:47Z</time></trkpt><trkpt lat="43.55373842115369" lon="12.16977114579637"><ele>327.5</ele><time>2026-04-12T09:19:48Z</time></trkpt><trkpt lat="43.5538377614451" lon="12.169671474056182"><ele>327.25</ele><time>2026-04-12T09:19:48.999Z</time></trkpt><trkpt lat="43.5539392637273" lon="12.169567373561753"><ele>327.0</ele><time>2026-04-12T09:19:49.999Z</time></trkpt><trkpt lat="43.55404456217391" lon="12.169462964911428"><ele>327.0</ele><time>2026-04-12T09:19:50.999Z</time></trkpt><trkpt lat="43.554143157902345" lon="12.169364293291846"><ele>327.0</ele><time>2026-04-12T09:19:51.999Z</time></trkpt><trkpt lat="43.55424112372195" lon="12.169268903279486"><ele>327.0</ele><time>2026-04-12T09:19:52.999Z</time></trkpt><trkpt lat="43.55434318824341" lon="12.169166476115203"><ele>327.0</ele><time>2026-04-12T09:19:53.999Z</time></trkpt><trkpt lat="43.5544470014672" lon="12.169060891187112"><ele>327.75</ele><time>2026-04-12T09:19:54.999Z</time></trkpt><trkpt lat="43.5545513612541" lon="12.168952228356122"><ele>328.5</ele><time>2026-04-12T09:19:55.999Z</time></trkpt><trkpt lat="43.554657313168796" lon="12.168840968751637"><ele>329.25</ele><time>2026-04-12T09:19:56.999Z</time></trkpt><trkpt lat="43.554759753376" lon="12.168734280641555"><ele>330.0</ele><time>2026-04-12T09:19:57.999Z</time></trkpt><trkpt lat="43.55486397130167" lon="12.168628928980107"><ele>330.0</ele><time>2026-04-12T09:19:58.999Z</time></trkpt><trkpt lat="43.55496882979368" lon="12.16852012222683"><ele>330.0</ele><time>2026-04-12T09:19:59.999Z</time></trkpt><trkpt lat="43.55507508779302" lon="12.168414670359988"><ele>330.0</ele><time>2026-04-12T09:20:00.999Z</time></trkpt><trkpt lat="43.55518038165136" lon="12.168304670131517"><ele>330.0</ele><time>2026-04-12T09:20:01.999Z</time></trkpt><trkpt lat="43.55528363150571" lon="12.168197130602671"><ele>330.25</ele><time>2026-04-12T09:20:02.999Z</time></trkpt><trkpt lat="43.555384875240954" lon="12.168090738285587"><ele>330.5</ele><time>2026-04-12T09:20:03.999Z</time></trkpt><trkpt lat="43.55548564482979" lon="12.167986346079335"><ele>330.75</ele><time>2026-04-12T09:20:04.999Z</time></trkpt><trkpt lat="43.55558487109215" lon="12.167874544864475"><ele>331.0</ele><time>2026-04-12T09:20:05.999Z</time></trkpt><trkpt lat="43.55569752192159" lon="12.167777206304235"><ele>331.0</ele><time>2026-04-12T09:20:06.999Z</time></trkpt><trkpt lat="43.555808198816784" lon="12.16767306388207"><ele>331.0</ele><time>2026-04-12T09:20:07.999Z</time></trkpt><trkpt lat="43.55591551016253" lon="12.167559660842334"><ele>331.0</ele><time>2026-04-12T09:20:08.999Z</time></trkpt><trkpt lat="43.5560240576762" lon="12.167445016751156"><ele>331.0</ele><time>2026-04-12T09:20:09.999Z</time></trkpt><trkpt lat="43.55613411421731" lon="12.167337518212287"><ele>330.75</ele><time>2026-04-12T09:20:10.999Z</time></trkpt><trkpt lat="43.5562415924071" lon="12.167229139776651"><ele>330.5</ele><time>2026-04-12T09:20:11.999Z</time></trkpt><trkpt lat="43.556347498337246" lon="12.167115612330118"><ele>330.25</ele><time>2026-04-12T09:20:12.999Z</time></trkpt><trkpt lat="43.55645326244504" lon="12.167005010975672"><ele>330.0</ele><time>2026-04-12T09:20:13.999Z</time></trkpt><trkpt lat="43.55655977168192" lon="12.166892817446119"><ele>330.0</ele><time>2026-04-12T09:20:14.999Z</time></trkpt><trkpt lat="43.55666889439632" lon="12.166779388542968"><ele>330.0</ele><time>2026-04-12T09:20:15.999Z</time></trkpt><trkpt lat="43.556778943380266" lon="12.16666886128884"><ele>330.0</ele><time>2026-04-12T09:20:16.999Z</time></trkpt><trkpt lat="43.55688854367885" lon="12.166558849085707"><ele>330.0</ele><time>2026-04-12T09:20:17.999Z</time></trkpt><trkpt lat="43.556993814836986" lon="12.166449831956378"><ele>329.75</ele><time>2026-04-12T09:20:18.999Z</time></trkpt><trkpt lat="43.557086559012674" lon="12.166350883669564"><ele>329.5</ele><time>2026-04-12T09:20:19.999Z</time></trkpt><trkpt lat="43.55718460734604" lon="12.16626715117445"><ele>329.25</ele><time>2026-04-12T09:20:20.999Z</time></trkpt><trkpt lat="43.55727882383546" lon="12.166170324119033"><ele>329.0</ele><time>2026-04-12T09:20:21.999Z</time></trkpt><trkpt lat="43.55737433026663" lon="12.166067780613416"><ele>329.0</ele><time>2026-04-12T09:20:22.999Z</time></trkpt><trkpt lat="43.55746885130938" lon="12.165964755751908"><ele>329.0</ele><time>2026-04-12T09:20:23.999Z</time></trkpt><trkpt lat="43.55756379007259" lon="12.165865226569673"><ele>329.0</ele><time>2026-04-12T09:20:24.999Z</time></trkpt><trkpt lat="43.55765961110825" lon="12.165770588321513"><ele>329.0</ele><time>2026-04-12T09:20:25.999Z</time></trkpt><trkpt lat="43.55775359352281" lon="12.165672342684799"><ele>328.75</ele><time>2026-04-12T09:20:26.999Z</time></trkpt><trkpt lat="43.55784817697275" lon="12.165571027463024"><ele>328.5</ele><time>2026-04-12T09:20:27.999Z</time></trkpt><trkpt lat="43.55794655713469" lon="12.165468621343042"><ele>328.25</ele><time>2026-04-12T09:20:28.999Z</time></trkpt><trkpt lat="43.55804610287041" lon="12.165374706337976"><ele>328.0</ele><time>2026-04-12T09:20:29.999Z</time></trkpt><trkpt lat="43.55814593511482" lon="12.165275661549723"><ele>328.0</ele><time>2026-04-12T09:20:30.999Z</time></trkpt><trkpt lat="43.55824627292797" lon="12.165171634323585"><ele>328.0</ele><time>2026-04-12T09:20:31.999Z</time></trkpt><trkpt lat="43.558346342918696" lon="12.165070784548702"><ele>328.0</ele><time>2026-04-12T09:20:32.999Z</time></trkpt><trkpt lat="43.55845015380936" lon="12.164968573335608"><ele>328.0</ele><time>2026-04-12T09:20:33.999Z</time></trkpt><trkpt lat="43.55855301936281" lon="12.16486339643724"><ele>328.0</ele><time>2026-04-12T09:20:34.999Z</time></trkpt><trkpt lat="43.55865529551646" lon="12.164760190109956"><ele>328.0</ele><time>2026-04-12T09:20:35.999Z</time></trkpt><trkpt lat="43.558756372106245" lon="12.164657328155542"><ele>328.0</ele><time>2026-04-12T09:20:36.999Z</time></trkpt><trkpt lat="43.558860804710505" lon="12.164553003776195"><ele>328.0</ele><time>2026-04-12T09:20:37.999Z</time></trkpt><trkpt lat="43.55896019043152" lon="12.16444514268006"><ele>328.0</ele><time>2026-04-12T09:20:38.999Z</time></trkpt><trkpt lat="43.559062396008244" lon="12.164337790805126"><ele>328.0</ele><time>2026-04-12T09:20:39.999Z</time></trkpt><trkpt lat="43.559170533911264" lon="12.16422968050713"><ele>328.0</ele><time>2026-04-12T09:20:40.999Z</time></trkpt><trkpt lat="43.559276869535005" lon="12.164122957722578"><ele>328.0</ele><time>2026-04-12T09:20:41.999Z</time></trkpt><trkpt lat="43.55938246542691" lon="12.164014179357519"><ele>328.0</ele><time>2026-04-12T09:20:42.999Z</time></trkpt><trkpt lat="43.55948957085848" lon="12.163903221072454"><ele>328.0</ele><time>2026-04-12T09:20:43.999Z</time></trkpt><trkpt lat="43.559593947717644" lon="12.163796202115453"><ele>328.0</ele><time>2026-04-12T09:20:44.999Z</time></trkpt><trkpt lat="43.55969455926019" lon="12.163686780379773"><ele>328.0</ele><time>2026-04-12T09:20:45.999Z</time></trkpt><trkpt lat="43.55979151074692" lon="12.163590442672598"><ele>328.25</ele><time>2026-04-12T09:20:46.999Z</time></trkpt><trkpt lat="43.5598870264684" lon="12.16349500187879"><ele>328.5</ele><time>2026-04-12T09:20:47.999Z</time></trkpt><trkpt lat="43.55998240586741" lon="12.163398045785668"><ele>328.75</ele><time>2026-04-12T09:20:48.998Z</time></trkpt><trkpt lat="43.560077740403884" lon="12.16330055978274"><ele>329.0</ele><time>2026-04-12T09:20:49.998Z</time></trkpt><trkpt lat="43.56017524391926" lon="12.163200589977324"><ele>329.25</ele><time>2026-04-12T09:20:50.998Z</time></trkpt><trkpt lat="43.56027053921959" lon="12.163102434783358"><ele>329.5</ele><time>2026-04-12T09:20:51.998Z</time></trkpt><trkpt lat="43.56036523388458" lon="12.163004930370029"><ele>329.75</ele><time>2026-04-12T09:20:52.998Z</time></trkpt><trkpt lat="43.56046006373869" lon="12.16290703228082"><ele>330.0</ele><time>2026-04-12T09:20:53.998Z</time></trkpt><trkpt lat="43.56055629930542" lon="12.162813155175222"><ele>330.0</ele><time>2026-04-12T09:20:54.998Z</time></trkpt><trkpt lat="43.560653431537254" lon="12.162711096164335"><ele>330.0</ele><time>2026-04-12T09:20:55.998Z</time></trkpt><trkpt lat="43.5607494465611" lon="12.162611604241134"><ele>330.0</ele><time>2026-04-12T09:20:56.998Z</time></trkpt><trkpt lat="43.56084344239631" lon="12.162520915233916"><ele>330.0</ele><time>2026-04-12T09:20:57.998Z</time></trkpt><trkpt lat="43.560925206725095" lon="12.16243755883045"><ele>329.8</ele><time>2026-04-12T09:20:58.998Z</time></trkpt><trkpt lat="43.561008366310396" lon="12.162350321511086"><ele>329.6</ele><time>2026-04-12T09:20:59.998Z</time></trkpt><trkpt lat="43.56109988657662" lon="12.162265285544498"><ele>329.4</ele><time>2026-04-12T09:21:00.998Z</time></trkpt><trkpt lat="43.56119415693666" lon="12.16218758832355"><ele>329.2</ele><time>2026-04-12T09:21:01.998Z</time></trkpt><trkpt lat="43.5612951314984" lon="12.162135298910094"><ele>329.0</ele><time>2026-04-12T09:21:02.998Z</time></trkpt><trkpt lat="43.56139538281104" lon="12.162074875774367"><ele>329.0</ele><time>2026-04-12T09:21:03.998Z</time></trkpt><trkpt lat="43.56148343364591" lon="12.161986132836144"><ele>329.0</ele><time>2026-04-12T09:21:04.998Z</time></trkpt><trkpt lat="43.56156504033767" lon="12.16187494106966"><ele>329.0</ele><time>2026-04-12T09:21:05.998Z</time></trkpt><trkpt lat="43.56163916036065" lon="12.161750562923697"><ele>329.0</ele><time>2026-04-12T09:21:06.998Z</time></trkpt><trkpt lat="43.561726524704305" lon="12.161630362222798"><ele>328.75</ele><time>2026-04-12T09:21:07.998Z</time></trkpt><trkpt lat="43.561829159707756" lon="12.161517225306664"><ele>328.5</ele><time>2026-04-12T09:21:08.998Z</time></trkpt><trkpt lat="43.561940714905866" lon="12.16140893962529"><ele>328.25</ele><time>2026-04-12T09:21:10Z</time></trkpt><trkpt lat="43.562050251829966" lon="12.161299916403246"><ele>328.0</ele><time>2026-04-12T09:21:11Z</time></trkpt><trkpt lat="43.56216098240314" lon="12.161179281183744"><ele>328.75</ele><time>2026-04-12T09:21:12Z</time></trkpt><trkpt lat="43.56227569531075" lon="12.161059753951234"><ele>329.5</ele><time>2026-04-12T09:21:13Z</time></trkpt><trkpt lat="43.562390223987734" lon="12.160943598839184"><ele>330.25</ele><time>2026-04-12T09:21:14Z</time></trkpt><trkpt lat="43.56250546365106" lon="12.160826923152277"><ele>331.0</ele><time>2026-04-12T09:21:15Z</time></trkpt><trkpt lat="43.56261493448454" lon="12.160713005408516"><ele>331.0</ele><time>2026-04-12T09:21:16Z</time></trkpt><trkpt lat="43.56272516074559" lon="12.160593467198401"><ele>331.0</ele><time>2026-04-12T09:21:17Z</time></trkpt><trkpt lat="43.562835894757825" lon="12.160479210945281"><ele>331.0</ele><time>2026-04-12T09:21:18Z</time></trkpt><trkpt lat="43.56294592407552" lon="12.160369139377393"><ele>331.0</ele><time>2026-04-12T09:21:19Z</time></trkpt><trkpt lat="43.563054531672684" lon="12.160261416406708"><ele>331.0</ele><time>2026-04-12T09:21:20Z</time></trkpt><trkpt lat="43.5631620087523" lon="12.160149295582096"><ele>331.0</ele><time>2026-04-12T09:21:21Z</time></trkpt><trkpt lat="43.56327000274047" lon="12.160036823649422"><ele>331.0</ele><time>2026-04-12T09:21:22Z</time></trkpt><trkpt lat="43.563378708036744" lon="12.159925683232341"><ele>331.0</ele><time>2026-04-12T09:21:23Z</time></trkpt><trkpt lat="43.56348743899897" lon="12.159814048967453"><ele>330.75</ele><time>2026-04-12T09:21:24Z</time></trkpt><trkpt lat="43.56359664095842" lon="12.15970352473941"><ele>330.5</ele><time>2026-04-12T09:21:25Z</time></trkpt><trkpt lat="43.563708876785235" lon="12.15958633515299"><ele>330.25</ele><time>2026-04-12T09:21:26Z</time></trkpt><trkpt lat="43.5638173823022" lon="12.159471788434328"><ele>330.0</ele><time>2026-04-12T09:21:27Z</time></trkpt><trkpt lat="43.56392897983692" lon="12.1593527777771"><ele>330.0</ele><time>2026-04-12T09:21:28Z</time></trkpt><trkpt lat="43.56404083034383" lon="12.159234567216835"><ele>330.0</ele><time>2026-04-12T09:21:29Z</time></trkpt><trkpt lat="43.56415552223982" lon="12.159112274856204"><ele>330.0</ele><time>2026-04-12T09:21:30Z</time></trkpt><trkpt lat="43.56426685797229" lon="12.158990691311981"><ele>330.0</ele><time>2026-04-12T09:21:31Z</time></trkpt><trkpt lat="43.564381584840326" lon="12.158868521113085"><ele>329.5</ele><time>2026-04-12T09:21:32Z</time></trkpt><trkpt lat="43.56449162235224" lon="12.158747259549529"><ele>329.0</ele><time>2026-04-12T09:21:33Z</time></trkpt><trkpt lat="43.56460159453769" lon="12.158621551332867"><ele>328.5</ele><time>2026-04-12T09:21:34Z</time></trkpt><trkpt lat="43.56470230151956" lon="12.158478419200712"><ele>328.0</ele><time>2026-04-12T09:21:35Z</time></trkpt><trkpt lat="43.56478109899677" lon="12.158315501213522"><ele>328.75</ele><time>2026-04-12T09:21:36Z</time></trkpt><trkpt lat="43.56483831221147" lon="12.158131201679355"><ele>329.5</ele><time>2026-04-12T09:21:37Z</time></trkpt><trkpt lat="43.5648850341613" lon="12.157941097033037"><ele>330.25</ele><time>2026-04-12T09:21:38Z</time></trkpt><trkpt lat="43.56493318710957" lon="12.157747322859196"><ele>331.0</ele><time>2026-04-12T09:21:39Z</time></trkpt><trkpt lat="43.5649880935792" lon="12.15756261355845"><ele>331.0</ele><time>2026-04-12T09:21:40Z</time></trkpt><trkpt lat="43.56504702191861" lon="12.157376651871019"><ele>331.0</ele><time>2026-04-12T09:21:41Z</time></trkpt><trkpt lat="43.56511005126852" lon="12.157189259009522"><ele>331.0</ele><time>2026-04-12T09:21:42Z</time></trkpt><trkpt lat="43.5651745875659" lon="12.157003111086697"><ele>331.0</ele><time>2026-04-12T09:21:43Z</time></trkpt><trkpt lat="43.56523777698039" lon="12.156816126373501"><ele>331.25</ele><time>2026-04-12T09:21:44Z</time></trkpt><trkpt lat="43.565301404525464" lon="12.156626380928014"><ele>331.5</ele><time>2026-04-12T09:21:45Z</time></trkpt><trkpt lat="43.565364863649336" lon="12.156448217356571"><ele>331.75</ele><time>2026-04-12T09:21:46Z</time></trkpt><trkpt lat="43.56542750334499" lon="12.156273012262838"><ele>332.0</ele><time>2026-04-12T09:21:47Z</time></trkpt><trkpt lat="43.565488977031045" lon="12.156094576975537"><ele>332.5</ele><time>2026-04-12T09:21:48Z</time></trkpt><trkpt lat="43.565549871366834" lon="12.155919561403357"><ele>333.0</ele><time>2026-04-12T09:21:49Z</time></trkpt><trkpt lat="43.56560929218156" lon="12.15573982500697"><ele>333.5</ele><time>2026-04-12T09:21:50Z</time></trkpt><trkpt lat="43.5656686387627" lon="12.15556579977476"><ele>334.0</ele><time>2026-04-12T09:21:51Z</time></trkpt><trkpt lat="43.56572798443341" lon="12.155391983739415"><ele>334.0</ele><time>2026-04-12T09:21:52Z</time></trkpt><trkpt lat="43.56578687906639" lon="12.155221606511345"><ele>334.0</ele><time>2026-04-12T09:21:52.999Z</time></trkpt><trkpt lat="43.56584552905727" lon="12.155050354926313"><ele>334.0</ele><time>2026-04-12T09:21:53.999Z</time></trkpt><trkpt lat="43.565905943424724" lon="12.1548711797067"><ele>334.0</ele><time>2026-04-12T09:21:54.999Z</time></trkpt><trkpt lat="43.56596676564075" lon="12.154697678691445"><ele>334.0</ele><time>2026-04-12T09:21:55.999Z</time></trkpt><trkpt lat="43.56603126432056" lon="12.154521323377521"><ele>334.0</ele><time>2026-04-12T09:21:56.999Z</time></trkpt><trkpt lat="43.56609715313532" lon="12.154341223286515"><ele>334.0</ele><time>2026-04-12T09:21:57.999Z</time></trkpt><trkpt lat="43.56616064209015" lon="12.154156820948293"><ele>334.0</ele><time>2026-04-12T09:21:58.999Z</time></trkpt><trkpt lat="43.566223291389726" lon="12.153972379069211"><ele>334.25</ele><time>2026-04-12T09:21:59.999Z</time></trkpt><trkpt lat="43.566283918175706" lon="12.153791025059842"><ele>334.5</ele><time>2026-04-12T09:22:00.999Z</time></trkpt><trkpt lat="43.566347287311515" lon="12.153602592805361"><ele>334.75</ele><time>2026-04-12T09:22:01.999Z</time></trkpt><trkpt lat="43.56641086087816" lon="12.153412693123155"><ele>335.0</ele><time>2026-04-12T09:22:02.999Z</time></trkpt><trkpt lat="43.566474790392384" lon="12.153223678759861"><ele>334.5</ele><time>2026-04-12T09:22:03.999Z</time></trkpt><trkpt lat="43.56654022457851" lon="12.153051334544964"><ele>334.0</ele><time>2026-04-12T09:22:04.999Z</time></trkpt><trkpt lat="43.56659649910691" lon="12.152888397366798"><ele>333.5</ele><time>2026-04-12T09:22:05.999Z</time></trkpt><trkpt lat="43.56664833827511" lon="12.15274142268656"><ele>333.0</ele><time>2026-04-12T09:22:06.999Z</time></trkpt><trkpt lat="43.566701561273334" lon="12.152593785385411"><ele>333.0</ele><time>2026-04-12T09:22:07.999Z</time></trkpt><trkpt lat="43.566758866022965" lon="12.152443639693724"><ele>333.0</ele><time>2026-04-12T09:22:08.999Z</time></trkpt><trkpt lat="43.56681595513127" lon="12.152292854957473"><ele>333.0</ele><time>2026-04-12T09:22:09.999Z</time></trkpt><trkpt lat="43.56686948772091" lon="12.152135752965226"><ele>333.0</ele><time>2026-04-12T09:22:10.999Z</time></trkpt><trkpt lat="43.56692459143447" lon="12.151992150114175"><ele>333.0</ele><time>2026-04-12T09:22:11.999Z</time></trkpt><trkpt lat="43.566982895765406" lon="12.151869436677556"><ele>333.0</ele><time>2026-04-12T09:22:12.999Z</time></trkpt><trkpt lat="43.56706212586893" lon="12.151785319004576"><ele>333.0</ele><time>2026-04-12T09:22:13.999Z</time></trkpt><trkpt lat="43.56716081544529" lon="12.151727136204142"><ele>333.0</ele><time>2026-04-12T09:22:14.999Z</time></trkpt><trkpt lat="43.56724683984355" lon="12.151659847468839"><ele>333.0</ele><time>2026-04-12T09:22:15.999Z</time></trkpt><trkpt lat="43.567302909549355" lon="12.151563009668179"><ele>333.1666666666667</ele><time>2026-04-12T09:22:16.999Z</time></trkpt><trkpt lat="43.56732890608823" lon="12.151454807288438"><ele>333.3333333333333</ele><time>2026-04-12T09:22:17.999Z</time></trkpt><trkpt lat="43.56733089211381" lon="12.151350614315097"><ele>333.5</ele><time>2026-04-12T09:22:18.999Z</time></trkpt><trkpt lat="43.567323989954296" lon="12.151257529496627"><ele>333.66666666666663</ele><time>2026-04-12T09:22:19.999Z</time></trkpt><trkpt lat="43.56731976584903" lon="12.151114486332995"><ele>333.8333333333333</ele><time>2026-04-12T09:22:21.999Z</time></trkpt><trkpt lat="43.567334084013766" lon="12.151006138065632"><ele>334.0</ele><time>2026-04-12T09:22:23.999Z</time></trkpt><trkpt lat="43.56742581456591" lon="12.150936491005226"><ele>334.0</ele><time>2026-04-12T09:22:25.999Z</time></trkpt><trkpt lat="43.56749342761304" lon="12.150917229211773"><ele>334.0</ele><time>2026-04-12T09:22:26.999Z</time></trkpt><trkpt lat="43.567561205166704" lon="12.150850387476853"><ele>334.0</ele><time>2026-04-12T09:22:28.999Z</time></trkpt><trkpt lat="43.56761447002038" lon="12.150780238085229"><ele>334.0</ele><time>2026-04-12T09:22:29.999Z</time></trkpt><trkpt lat="43.5676797084937" lon="12.150691842862662"><ele>334.0</ele><time>2026-04-12T09:22:30.999Z</time></trkpt><trkpt lat="43.56774989718029" lon="12.15059507357205"><ele>334.0</ele><time>2026-04-12T09:22:31.999Z</time></trkpt><trkpt lat="43.567825701099025" lon="12.150493977821418"><ele>334.2</ele><time>2026-04-12T09:22:32.999Z</time></trkpt><trkpt lat="43.5678996991714" lon="12.150392442740726"><ele>334.4</ele><time>2026-04-12T09:22:33.999Z</time></trkpt><trkpt lat="43.567979196631306" lon="12.150274844366752"><ele>334.6</ele><time>2026-04-12T09:22:34.999Z</time></trkpt><trkpt lat="43.56806329787695" lon="12.150169564435338"><ele>334.8</ele><time>2026-04-12T09:22:35.999Z</time></trkpt><trkpt lat="43.56814166082746" lon="12.150072353947477"><ele>335.0</ele><time>2026-04-12T09:22:36.999Z</time></trkpt><trkpt lat="43.56821770904011" lon="12.14997249822964"><ele>334.8</ele><time>2026-04-12T09:22:37.999Z</time></trkpt><trkpt lat="43.56829071166194" lon="12.149866671598748"><ele>334.6</ele><time>2026-04-12T09:22:38.999Z</time></trkpt><trkpt lat="43.56836790294676" lon="12.149766719014082"><ele>334.4</ele><time>2026-04-12T09:22:39.999Z</time></trkpt><trkpt lat="43.56844816977268" lon="12.149663865517132"><ele>334.2</ele><time>2026-04-12T09:22:40.999Z</time></trkpt><trkpt lat="43.568525378708884" lon="12.14955791935836"><ele>334.0</ele><time>2026-04-12T09:22:41.999Z</time></trkpt><trkpt lat="43.56860547823055" lon="12.149453223071438"><ele>334.0</ele><time>2026-04-12T09:22:42.999Z</time></trkpt><trkpt lat="43.568688045733886" lon="12.149345216487605"><ele>334.0</ele><time>2026-04-12T09:22:43.999Z</time></trkpt><trkpt lat="43.568768834267175" lon="12.149237251093206"><ele>334.0</ele><time>2026-04-12T09:22:44.999Z</time></trkpt><trkpt lat="43.56884663325231" lon="12.149131981452818"><ele>334.0</ele><time>2026-04-12T09:22:45.999Z</time></trkpt><trkpt lat="43.56892564701578" lon="12.14901751924006"><ele>334.25</ele><time>2026-04-12T09:22:46.999Z</time></trkpt><trkpt lat="43.56900671393183" lon="12.148898902274208"><ele>334.5</ele><time>2026-04-12T09:22:47.999Z</time></trkpt><trkpt lat="43.56909053524598" lon="12.148791755431668"><ele>334.75</ele><time>2026-04-12T09:22:48.999Z</time></trkpt><trkpt lat="43.56917847589015" lon="12.14868065197037"><ele>335.0</ele><time>2026-04-12T09:22:49.999Z</time></trkpt><trkpt lat="43.56926215049522" lon="12.148567332206405"><ele>335.0</ele><time>2026-04-12T09:22:50.999Z</time></trkpt><trkpt lat="43.569345301592186" lon="12.148455353694228"><ele>335.0</ele><time>2026-04-12T09:22:51.999Z</time></trkpt><trkpt lat="43.56943293970602" lon="12.148340840883755"><ele>335.0</ele><time>2026-04-12T09:22:52.998Z</time></trkpt><trkpt lat="43.56951965340522" lon="12.148226792615253"><ele>335.0</ele><time>2026-04-12T09:22:53.998Z</time></trkpt><trkpt lat="43.56960616663355" lon="12.148106664160819"><ele>336.25</ele><time>2026-04-12T09:22:54.998Z</time></trkpt><trkpt lat="43.56969269628205" lon="12.147991822448446"><ele>337.5</ele><time>2026-04-12T09:22:55.998Z</time></trkpt><trkpt lat="43.569780299801" lon="12.14787638575722"><ele>338.75</ele><time>2026-04-12T09:22:56.998Z</time></trkpt><trkpt lat="43.56986773721099" lon="12.147757414300898"><ele>340.0</ele><time>2026-04-12T09:22:57.998Z</time></trkpt><trkpt lat="43.56995737162048" lon="12.14763834133931"><ele>340.0</ele><time>2026-04-12T09:22:58.998Z</time></trkpt><trkpt lat="43.570046417995805" lon="12.147520008538782"><ele>340.0</ele><time>2026-04-12T09:22:59.998Z</time></trkpt><trkpt lat="43.570132793434226" lon="12.147404430949917"><ele>340.0</ele><time>2026-04-12T09:23:00.998Z</time></trkpt><trkpt lat="43.57022670957457" lon="12.147282639946127"><ele>340.0</ele><time>2026-04-12T09:23:01.998Z</time></trkpt><trkpt lat="43.570322759205325" lon="12.14716466944629"><ele>341.0</ele><time>2026-04-12T09:23:02.998Z</time></trkpt><trkpt lat="43.57041127522142" lon="12.147041121039429"><ele>342.0</ele><time>2026-04-12T09:23:03.998Z</time></trkpt><trkpt lat="43.57049919913026" lon="12.146901875678196"><ele>343.0</ele><time>2026-04-12T09:23:04.998Z</time></trkpt><trkpt lat="43.570587227712906" lon="12.14675976128146"><ele>344.0</ele><time>2026-04-12T09:23:05.998Z</time></trkpt><trkpt lat="43.570669830484235" lon="12.146613049818829"><ele>344.5</ele><time>2026-04-12T09:23:06.998Z</time></trkpt><trkpt lat="43.57074892340112" lon="12.146449924722111"><ele>345.0</ele><time>2026-04-12T09:23:07.998Z</time></trkpt><trkpt lat="43.5708244903962" lon="12.146287666584902"><ele>345.5</ele><time>2026-04-12T09:23:08.998Z</time></trkpt><trkpt lat="43.57089581837806" lon="12.146118940713189"><ele>346.0</ele><time>2026-04-12T09:23:09.998Z</time></trkpt><trkpt lat="43.57096301969761" lon="12.14594362846332"><ele>346.0</ele><time>2026-04-12T09:23:10.998Z</time></trkpt><trkpt lat="43.571028020042014" lon="12.145767695470514"><ele>346.0</ele><time>2026-04-12T09:23:11.998Z</time></trkpt><trkpt lat="43.5710960551781" lon="12.145578231132573"><ele>346.0</ele><time>2026-04-12T09:23:12.998Z</time></trkpt><trkpt lat="43.57116074578358" lon="12.145396706172468"><ele>346.0</ele><time>2026-04-12T09:23:13.998Z</time></trkpt><trkpt lat="43.571222949621806" lon="12.14523264815251"><ele>345.5</ele><time>2026-04-12T09:23:14.998Z</time></trkpt><trkpt lat="43.571277104243514" lon="12.145075125174571"><ele>345.0</ele><time>2026-04-12T09:23:16Z</time></trkpt><trkpt lat="43.571329593462785" lon="12.144928102634525"><ele>344.5</ele><time>2026-04-12T09:23:17Z</time></trkpt><trkpt lat="43.57138849576234" lon="12.144779079587567"><ele>344.0</ele><time>2026-04-12T09:23:18Z</time></trkpt><trkpt lat="43.57144526487469" lon="12.14462583580836"><ele>344.0</ele><time>2026-04-12T09:23:19Z</time></trkpt><trkpt lat="43.571501760052776" lon="12.144469922285962"><ele>344.0</ele><time>2026-04-12T09:23:20Z</time></trkpt><trkpt lat="43.57156596506822" lon="12.144314647998307"><ele>344.0</ele><time>2026-04-12T09:23:21Z</time></trkpt><trkpt lat="43.57163605226532" lon="12.144160009678258"><ele>344.0</ele><time>2026-04-12T09:23:22Z</time></trkpt><trkpt lat="43.571706550868036" lon="12.144006731999479"><ele>343.25</ele><time>2026-04-12T09:23:23Z</time></trkpt><trkpt lat="43.57178148597346" lon="12.143849833946472"><ele>342.5</ele><time>2026-04-12T09:23:24Z</time></trkpt><trkpt lat="43.57186155778579" lon="12.143686830345942"><ele>341.75</ele><time>2026-04-12T09:23:25Z</time></trkpt><trkpt lat="43.571937378678065" lon="12.14353382523813"><ele>341.0</ele><time>2026-04-12T09:23:26Z</time></trkpt><trkpt lat="43.57201081896757" lon="12.143369151925812"><ele>341.20000000000005</ele><time>2026-04-12T09:23:27Z</time></trkpt><trkpt lat="43.57207913974797" lon="12.14323282431928"><ele>341.40000000000003</ele><time>2026-04-12T09:23:28Z</time></trkpt><trkpt lat="43.57214217837233" lon="12.14311145540314"><ele>341.6</ele><time>2026-04-12T09:23:29Z</time></trkpt><trkpt lat="43.57219941519689" lon="12.142998193782812"><ele>341.8</ele><time>2026-04-12T09:23:30Z</time></trkpt><trkpt lat="43.57224860705627" lon="12.14288667761013"><ele>342.0</ele><time>2026-04-12T09:23:31Z</time></trkpt><trkpt lat="43.57229654672249" lon="12.142784880709808"><ele>342.0</ele><time>2026-04-12T09:23:32Z</time></trkpt><trkpt lat="43.57233833891687" lon="12.142710129922936"><ele>342.0</ele><time>2026-04-12T09:23:33Z</time></trkpt><trkpt lat="43.572391410002766" lon="12.142641941628463"><ele>342.0</ele><time>2026-04-12T09:23:34Z</time></trkpt><trkpt lat="43.57244574692258" lon="12.14254457216654"><ele>342.0</ele><time>2026-04-12T09:23:35Z</time></trkpt><trkpt lat="43.572490072510504" lon="12.142392500337515"><ele>342.0</ele><time>2026-04-12T09:23:36Z</time></trkpt><trkpt lat="43.57254618336879" lon="12.142245054653285"><ele>340.75</ele><time>2026-04-12T09:23:37Z</time></trkpt><trkpt lat="43.572624022023945" lon="12.142117696798469"><ele>339.5</ele><time>2026-04-12T09:23:38Z</time></trkpt><trkpt lat="43.57269678050298" lon="12.141971968765587"><ele>338.25</ele><time>2026-04-12T09:23:39Z</time></trkpt><trkpt lat="43.57276657215956" lon="12.141823082151701"><ele>337.0</ele><time>2026-04-12T09:23:40Z</time></trkpt><trkpt lat="43.572838780959486" lon="12.141676795747399"><ele>337.0</ele><time>2026-04-12T09:23:41Z</time></trkpt><trkpt lat="43.5729136548629" lon="12.141521252259027"><ele>337.0</ele><time>2026-04-12T09:23:42Z</time></trkpt><trkpt lat="43.57299022084586" lon="12.141370786962291"><ele>337.0</ele><time>2026-04-12T09:23:43Z</time></trkpt><trkpt lat="43.573066099531175" lon="12.141210617838949"><ele>337.0</ele><time>2026-04-12T09:23:44Z</time></trkpt><trkpt lat="43.57314336021359" lon="12.141053112917104"><ele>337.0</ele><time>2026-04-12T09:23:45Z</time></trkpt><trkpt lat="43.57322365659396" lon="12.140891747118285"><ele>337.0</ele><time>2026-04-12T09:23:46Z</time></trkpt><trkpt lat="43.573303629742654" lon="12.140725834549736"><ele>337.0</ele><time>2026-04-12T09:23:47Z</time></trkpt><trkpt lat="43.57338524819566" lon="12.14055986916055"><ele>337.0</ele><time>2026-04-12T09:23:48Z</time></trkpt><trkpt lat="43.57346214855794" lon="12.140390388931841"><ele>337.0</ele><time>2026-04-12T09:23:49Z</time></trkpt><trkpt lat="43.57352980151052" lon="12.140215071178268"><ele>337.0</ele><time>2026-04-12T09:23:50Z</time></trkpt><trkpt lat="43.57359337144758" lon="12.140040928444177"><ele>337.0</ele><time>2026-04-12T09:23:51Z</time></trkpt><trkpt lat="43.57364989455988" lon="12.139879799444618"><ele>337.0</ele><time>2026-04-12T09:23:52Z</time></trkpt><trkpt lat="43.57369755513438" lon="12.139731215568593"><ele>337.0</ele><time>2026-04-12T09:23:53Z</time></trkpt><trkpt lat="43.573742532415054" lon="12.139595752274781"><ele>337.0</ele><time>2026-04-12T09:23:54Z</time></trkpt><trkpt lat="43.57378142673552" lon="12.139468312234886"><ele>337.0</ele><time>2026-04-12T09:23:55Z</time></trkpt><trkpt lat="43.57381787870866" lon="12.139358221696137"><ele>337.0</ele><time>2026-04-12T09:23:56Z</time></trkpt><trkpt lat="43.57384241350055" lon="12.139264425125157"><ele>337.0</ele><time>2026-04-12T09:23:57Z</time></trkpt><trkpt lat="43.57386414030843" lon="12.139175072772474"><ele>337.0</ele><time>2026-04-12T09:23:58Z</time></trkpt><trkpt lat="43.57388746648226" lon="12.139060732850968"><ele>336.6</ele><time>2026-04-12T09:24:00Z</time></trkpt><trkpt lat="43.57391381610923" lon="12.138957678016348"><ele>336.20000000000005</ele><time>2026-04-12T09:24:06.999Z</time></trkpt><trkpt lat="43.57394340552107" lon="12.138799026493515"><ele>335.8</ele><time>2026-04-12T09:24:08.999Z</time></trkpt><trkpt lat="43.573961682325965" lon="12.138670150463756"><ele>335.4</ele><time>2026-04-12T09:24:09.999Z</time></trkpt><trkpt lat="43.573980466974675" lon="12.138517040436524"><ele>335.0</ele><time>2026-04-12T09:24:10.999Z</time></trkpt><trkpt lat="43.574003892555936" lon="12.138345183053222"><ele>334.0</ele><time>2026-04-12T09:24:11.999Z</time></trkpt><trkpt lat="43.57403362829804" lon="12.138160297760233"><ele>333.0</ele><time>2026-04-12T09:24:12.999Z</time></trkpt><trkpt lat="43.574060794377246" lon="12.137978940199787"><ele>332.0</ele><time>2026-04-12T09:24:13.999Z</time></trkpt><trkpt lat="43.57409479129207" lon="12.137788343631337"><ele>331.0</ele><time>2026-04-12T09:24:14.999Z</time></trkpt><trkpt lat="43.574123105442226" lon="12.137604633819436"><ele>331.0</ele><time>2026-04-12T09:24:15.999Z</time></trkpt><trkpt lat="43.5741491129462" lon="12.13743249306482"><ele>331.0</ele><time>2026-04-12T09:24:16.999Z</time></trkpt><trkpt lat="43.5741730907414" lon="12.1372700225648"><ele>331.0</ele><time>2026-04-12T09:24:17.999Z</time></trkpt><trkpt lat="43.57420046956384" lon="12.137109615341345"><ele>331.0</ele><time>2026-04-12T09:24:18.999Z</time></trkpt><trkpt lat="43.57422827143841" lon="12.1369480887074"><ele>330.75</ele><time>2026-04-12T09:24:19.999Z</time></trkpt><trkpt lat="43.574255021947984" lon="12.136784204337415"><ele>330.5</ele><time>2026-04-12T09:24:20.999Z</time></trkpt><trkpt lat="43.57428336225665" lon="12.136623278578417"><ele>330.25</ele><time>2026-04-12T09:24:21.999Z</time></trkpt><trkpt lat="43.57431153317456" lon="12.136467394043217"><ele>330.0</ele><time>2026-04-12T09:24:22.999Z</time></trkpt><trkpt lat="43.57433600793005" lon="12.136312048505191"><ele>329.4</ele><time>2026-04-12T09:24:23.999Z</time></trkpt><trkpt lat="43.57435824168979" lon="12.136166203887495"><ele>328.8</ele><time>2026-04-12T09:24:24.999Z</time></trkpt><trkpt lat="43.57438409333449" lon="12.13601994432737"><ele>328.20000000000005</ele><time>2026-04-12T09:24:25.999Z</time></trkpt><trkpt lat="43.57440824315408" lon="12.135879374242545"><ele>327.6</ele><time>2026-04-12T09:24:26.999Z</time></trkpt><trkpt lat="43.57443126690313" lon="12.135746399648417"><ele>327.0</ele><time>2026-04-12T09:24:27.999Z</time></trkpt><trkpt lat="43.57445560443979" lon="12.135635005288707"><ele>326.8333333333333</ele><time>2026-04-12T09:24:28.999Z</time></trkpt><trkpt lat="43.57449514615059" lon="12.13550591449592"><ele>326.6666666666667</ele><time>2026-04-12T09:24:30.999Z</time></trkpt><trkpt lat="43.57450498330435" lon="12.135358615734098"><ele>326.5</ele><time>2026-04-12T09:24:32.999Z</time></trkpt><trkpt lat="43.5744934259535" lon="12.135257693180847"><ele>326.33333333333337</ele><time>2026-04-12T09:24:33.999Z</time></trkpt><trkpt lat="43.57446109743062" lon="12.135170042186965"><ele>326.1666666666667</ele><time>2026-04-12T09:24:34.999Z</time></trkpt><trkpt lat="43.57439680570498" lon="12.13510608343983"><ele>326.0</ele><time>2026-04-12T09:24:35.999Z</time></trkpt><trkpt lat="43.57433326407269" lon="12.135078832891429"><ele>326.0</ele><time>2026-04-12T09:24:36.999Z</time></trkpt><trkpt lat="43.57426924479457" lon="12.135070046969657"><ele>326.0</ele><time>2026-04-12T09:24:37.999Z</time></trkpt><trkpt lat="43.57418859939601" lon="12.13506939882591"><ele>326.0</ele><time>2026-04-12T09:24:38.999Z</time></trkpt><trkpt lat="43.57409355667872" lon="12.135083319381884"><ele>326.0</ele><time>2026-04-12T09:24:39.999Z</time></trkpt><trkpt lat="43.57401001781144" lon="12.135086540682195"><ele>326.0</ele><time>2026-04-12T09:24:40.999Z</time></trkpt><trkpt lat="43.57392291680185" lon="12.135068849553335"><ele>326.0</ele><time>2026-04-12T09:24:41.999Z</time></trkpt><trkpt lat="43.573832674051175" lon="12.135043788782973"><ele>326.0</ele><time>2026-04-12T09:24:42.999Z</time></trkpt><trkpt lat="43.573746069761164" lon="12.135013158581517"><ele>326.0</ele><time>2026-04-12T09:24:43.999Z</time></trkpt><trkpt lat="43.57365841474697" lon="12.134966692353485"><ele>326.0</ele><time>2026-04-12T09:24:44.999Z</time></trkpt><trkpt lat="43.57356670747815" lon="12.13489853162714"><ele>326.0</ele><time>2026-04-12T09:24:45.999Z</time></trkpt><trkpt lat="43.57347892687375" lon="12.134825484854607"><ele>326.0</ele><time>2026-04-12T09:24:46.999Z</time></trkpt><trkpt lat="43.573393857696644" lon="12.13474554006013"><ele>325.20000000000005</ele><time>2026-04-12T09:24:47.999Z</time></trkpt><trkpt lat="43.57330883882394" lon="12.134651682608991"><ele>324.40000000000003</ele><time>2026-04-12T09:24:48.999Z</time></trkpt><trkpt lat="43.5732362279563" lon="12.134555291013427"><ele>323.6</ele><time>2026-04-12T09:24:49.999Z</time></trkpt><trkpt lat="43.57317900403035" lon="12.134457299347252"><ele>322.8</ele><time>2026-04-12T09:24:50.999Z</time></trkpt><trkpt lat="43.57313466143839" lon="12.134350322679078"><ele>322.0</ele><time>2026-04-12T09:24:51.999Z</time></trkpt><trkpt lat="43.57309696840442" lon="12.134239434055395"><ele>322.0</ele><time>2026-04-12T09:24:52.999Z</time></trkpt><trkpt lat="43.57304255039867" lon="12.13413284019143"><ele>322.0</ele><time>2026-04-12T09:24:53.999Z</time></trkpt><trkpt lat="43.572990377280846" lon="12.13400167389435"><ele>322.0</ele><time>2026-04-12T09:24:54.999Z</time></trkpt><trkpt lat="43.5729374346261" lon="12.133872938112482"><ele>322.0</ele><time>2026-04-12T09:24:55.999Z</time></trkpt><trkpt lat="43.57287375694132" lon="12.13373887535956"><ele>322.0</ele><time>2026-04-12T09:24:56.999Z</time></trkpt><trkpt lat="43.572812066154725" lon="12.133596278040507"><ele>321.75</ele><time>2026-04-12T09:24:57.999Z</time></trkpt><trkpt lat="43.57274460364549" lon="12.13344559186444"><ele>321.5</ele><time>2026-04-12T09:24:58.999Z</time></trkpt><trkpt lat="43.572680364582006" lon="12.133293281401675"><ele>321.25</ele><time>2026-04-12T09:24:59.999Z</time></trkpt><trkpt lat="43.57261501355163" lon="12.13314185148893"><ele>321.0</ele><time>2026-04-12T09:25:00.999Z</time></trkpt><trkpt lat="43.57256122215585" lon="12.133007653445405"><ele>321.6</ele><time>2026-04-12T09:25:01.998Z</time></trkpt><trkpt lat="43.572513589743686" lon="12.132888526025614"><ele>322.20000000000005</ele><time>2026-04-12T09:25:02.998Z</time></trkpt><trkpt lat="43.57246761471883" lon="12.132781295627398"><ele>322.79999999999995</ele><time>2026-04-12T09:25:03.998Z</time></trkpt><trkpt lat="43.572422284421535" lon="12.132684912582937"><ele>323.4</ele><time>2026-04-12T09:25:04.998Z</time></trkpt><trkpt lat="43.572379033803784" lon="12.13260481009323"><ele>324.0</ele><time>2026-04-12T09:25:05.998Z</time></trkpt><trkpt lat="43.57231040475482" lon="12.132490843974082"><ele>324.0</ele><time>2026-04-12T09:25:07.998Z</time></trkpt><trkpt lat="43.57225667473238" lon="12.132409254413258"><ele>324.0</ele><time>2026-04-12T09:25:09.998Z</time></trkpt><trkpt lat="43.572235398902144" lon="12.132313618138722"><ele>324.0</ele><time>2026-04-12T09:25:11.998Z</time></trkpt><trkpt lat="43.5721919233125" lon="12.132235227375586"><ele>324.0</ele><time>2026-04-12T09:25:15.998Z</time></trkpt><trkpt lat="43.572164685108554" lon="12.132147810644213"><ele>324.0</ele><time>2026-04-12T09:25:25Z</time></trkpt><trkpt lat="43.572120309051016" lon="12.132038921093551"><ele>324.0</ele><time>2026-04-12T09:25:34Z</time></trkpt><trkpt lat="43.57208516111238" lon="12.131955052229186"><ele>323.6</ele><time>2026-04-12T09:25:35Z</time></trkpt><trkpt lat="43.572045201949656" lon="12.131861390338221"><ele>323.2</ele><time>2026-04-12T09:25:36Z</time></trkpt><trkpt lat="43.57199896262688" lon="12.131756150615116"><ele>322.8</ele><time>2026-04-12T09:25:37Z</time></trkpt><trkpt lat="43.571949576957756" lon="12.131633092788498"><ele>322.40000000000003</ele><time>2026-04-12T09:25:38Z</time></trkpt><trkpt lat="43.57189301486272" lon="12.131498876097384"><ele>322.0</ele><time>2026-04-12T09:25:39Z</time></trkpt><trkpt lat="43.57183893260409" lon="12.131371330593938"><ele>321.8</ele><time>2026-04-12T09:25:40Z</time></trkpt><trkpt lat="43.571785174621645" lon="12.131241724628838"><ele>321.6</ele><time>2026-04-12T09:25:41Z</time></trkpt><trkpt lat="43.5717304360499" lon="12.131114847159374"><ele>321.40000000000003</ele><time>2026-04-12T09:25:42Z</time></trkpt><trkpt lat="43.57167333295242" lon="12.13098447821034"><ele>321.20000000000005</ele><time>2026-04-12T09:25:43Z</time></trkpt><trkpt lat="43.571612158502624" lon="12.130844635696528"><ele>321.0</ele><time>2026-04-12T09:25:44Z</time></trkpt><trkpt lat="43.571547906317804" lon="12.130705273862334"><ele>320.75</ele><time>2026-04-12T09:25:45Z</time></trkpt><trkpt lat="43.57148049999373" lon="12.130553570841432"><ele>320.5</ele><time>2026-04-12T09:25:46Z</time></trkpt><trkpt lat="43.57141874440296" lon="12.13042343275658"><ele>320.25</ele><time>2026-04-12T09:25:47Z</time></trkpt><trkpt lat="43.571361470628794" lon="12.130297249492507"><ele>320.0</ele><time>2026-04-12T09:25:48Z</time></trkpt><trkpt lat="43.57130060376463" lon="12.13016331169675"><ele>320.0</ele><time>2026-04-12T09:25:49Z</time></trkpt><trkpt lat="43.57123981446708" lon="12.130018894193865"><ele>320.0</ele><time>2026-04-12T09:25:50Z</time></trkpt><trkpt lat="43.57118018121292" lon="12.12987437616844"><ele>320.0</ele><time>2026-04-12T09:25:51Z</time></trkpt><trkpt lat="43.57111976078126" lon="12.129729922492592"><ele>320.0</ele><time>2026-04-12T09:25:52Z</time></trkpt><trkpt lat="43.57105351844396" lon="12.129581996025939"><ele>319.75</ele><time>2026-04-12T09:25:53Z</time></trkpt><trkpt lat="43.57098874342426" lon="12.129433129496725"><ele>319.5</ele><time>2026-04-12T09:25:54Z</time></trkpt><trkpt lat="43.570924871935965" lon="12.129284917656538"><ele>319.25</ele><time>2026-04-12T09:25:55Z</time></trkpt><trkpt lat="43.57086069921537" lon="12.129133459577782"><ele>319.0</ele><time>2026-04-12T09:25:56Z</time></trkpt><trkpt lat="43.57079753509919" lon="12.128991768286687"><ele>319.3333333333333</ele><time>2026-04-12T09:25:57Z</time></trkpt><trkpt lat="43.57074033545335" lon="12.128862494957547"><ele>319.66666666666663</ele><time>2026-04-12T09:25:58Z</time></trkpt><trkpt lat="43.57068481453504" lon="12.128752693784417"><ele>320.0</ele><time>2026-04-12T09:25:59Z</time></trkpt><trkpt lat="43.57062802381636" lon="12.12865487786052"><ele>320.3333333333333</ele><time>2026-04-12T09:26:00Z</time></trkpt><trkpt lat="43.57057564329273" lon="12.128569516803525"><ele>320.6666666666667</ele><time>2026-04-12T09:26:01Z</time></trkpt><trkpt lat="43.57053326067985" lon="12.128491535972016"><ele>321.0</ele><time>2026-04-12T09:26:02Z</time></trkpt><trkpt lat="43.57050212374589" lon="12.128408720649624"><ele>321.0</ele><time>2026-04-12T09:26:03Z</time></trkpt><trkpt lat="43.570471492585284" lon="12.128321083029656"><ele>321.0</ele><time>2026-04-12T09:26:04Z</time></trkpt><trkpt lat="43.57043904772434" lon="12.128225015375143"><ele>321.0</ele><time>2026-04-12T09:26:05Z</time></trkpt><trkpt lat="43.57040089264368" lon="12.128122359959528"><ele>321.0</ele><time>2026-04-12T09:26:06Z</time></trkpt><trkpt lat="43.57035455669065" lon="12.128004365609085"><ele>321.0</ele><time>2026-04-12T09:26:07Z</time></trkpt><trkpt lat="43.57029308993488" lon="12.127862985709454"><ele>321.0</ele><time>2026-04-12T09:26:07.999Z</time></trkpt><trkpt lat="43.57023673574389" lon="12.12771414168401"><ele>319.25</ele><time>2026-04-12T09:26:08.999Z</time></trkpt><trkpt lat="43.570176576987215" lon="12.127558927138054"><ele>317.5</ele><time>2026-04-12T09:26:09.999Z</time></trkpt><trkpt lat="43.570110116157586" lon="12.127401099366795"><ele>315.75</ele><time>2026-04-12T09:26:10.999Z</time></trkpt><trkpt lat="43.57004315214717" lon="12.12724571458322"><ele>314.0</ele><time>2026-04-12T09:26:11.999Z</time></trkpt><trkpt lat="43.56997937161833" lon="12.127097926524309"><ele>313.75</ele><time>2026-04-12T09:26:12.999Z</time></trkpt><trkpt lat="43.569912689280144" lon="12.126944798758444"><ele>313.5</ele><time>2026-04-12T09:26:13.999Z</time></trkpt><trkpt lat="43.56984442612912" lon="12.126789444840353"><ele>313.25</ele><time>2026-04-12T09:26:14.999Z</time></trkpt><trkpt lat="43.56977448759352" lon="12.12663104432044"><ele>313.0</ele><time>2026-04-12T09:26:15.999Z</time></trkpt><trkpt lat="43.569706847546016" lon="12.126468346569348"><ele>313.0</ele><time>2026-04-12T09:26:16.999Z</time></trkpt><trkpt lat="43.569638706310535" lon="12.126306862101709"><ele>313.0</ele><time>2026-04-12T09:26:17.999Z</time></trkpt><trkpt lat="43.569570600890124" lon="12.126142614588414"><ele>313.0</ele><time>2026-04-12T09:26:18.999Z</time></trkpt><trkpt lat="43.56950175974033" lon="12.12597976472241"><ele>313.0</ele><time>2026-04-12T09:26:19.999Z</time></trkpt><trkpt lat="43.56943568202056" lon="12.125821481429611"><ele>313.5</ele><time>2026-04-12T09:26:20.999Z</time></trkpt><trkpt lat="43.56936589477199" lon="12.125659288838529"><ele>314.0</ele><time>2026-04-12T09:26:21.999Z</time></trkpt><trkpt lat="43.56929606619213" lon="12.125502968948739"><ele>314.5</ele><time>2026-04-12T09:26:22.999Z</time></trkpt><trkpt lat="43.56922975724347" lon="12.125344858218076"><ele>315.0</ele><time>2026-04-12T09:26:23.999Z</time></trkpt><trkpt lat="43.56916635500416" lon="12.125185157238503"><ele>315.0</ele><time>2026-04-12T09:26:24.999Z</time></trkpt><trkpt lat="43.56910827431264" lon="12.125021190612834"><ele>315.0</ele><time>2026-04-12T09:26:25.999Z</time></trkpt><trkpt lat="43.56906197035139" lon="12.124868754879309"><ele>315.0</ele><time>2026-04-12T09:26:26.999Z</time></trkpt><trkpt lat="43.569025464458775" lon="12.124725100600177"><ele>315.0</ele><time>2026-04-12T09:26:27.999Z</time></trkpt><trkpt lat="43.568998129672586" lon="12.124590574959003"><ele>314.6666666666667</ele><time>2026-04-12T09:26:28.999Z</time></trkpt><trkpt lat="43.56898254973166" lon="12.124464018716974"><ele>314.3333333333333</ele><time>2026-04-12T09:26:29.999Z</time></trkpt><trkpt lat="43.56897712129876" lon="12.124350993175318"><ele>314.0</ele><time>2026-04-12T09:26:30.999Z</time></trkpt><trkpt lat="43.56895546127437" lon="12.124252111622654"><ele>313.66666666666663</ele><time>2026-04-12T09:26:31.999Z</time></trkpt><trkpt lat="43.56891268566576" lon="12.124156051888226"><ele>313.3333333333333</ele><time>2026-04-12T09:26:32.999Z</time></trkpt><trkpt lat="43.56884813477289" lon="12.124069418537964"><ele>313.0</ele><time>2026-04-12T09:26:33.999Z</time></trkpt><trkpt lat="43.568768941365256" lon="12.124008631714132"><ele>312.6</ele><time>2026-04-12T09:26:34.999Z</time></trkpt><trkpt lat="43.568686914618084" lon="12.12393675046307"><ele>312.20000000000005</ele><time>2026-04-12T09:26:35.999Z</time></trkpt><trkpt lat="43.568616051753885" lon="12.123850603911261"><ele>311.8</ele><time>2026-04-12T09:26:36.999Z</time></trkpt><trkpt lat="43.568553882775184" lon="12.123750593132874"><ele>311.40000000000003</ele><time>2026-04-12T09:26:37.999Z</time></trkpt><trkpt lat="43.56850550902604" lon="12.123644312210931"><ele>311.0</ele><time>2026-04-12T09:26:38.999Z</time></trkpt><trkpt lat="43.568458874541385" lon="12.123531616688515"><ele>311.0</ele><time>2026-04-12T09:26:39.999Z</time></trkpt><trkpt lat="43.56840820812777" lon="12.123413555790588"><ele>311.0</ele><time>2026-04-12T09:26:40.999Z</time></trkpt><trkpt lat="43.56835092702474" lon="12.12329222402506"><ele>311.0</ele><time>2026-04-12T09:26:41.999Z</time></trkpt><trkpt lat="43.56829351679677" lon="12.123160771481128"><ele>311.0</ele><time>2026-04-12T09:26:42.999Z</time></trkpt><trkpt lat="43.568234968437054" lon="12.12303183834717"><ele>311.0</ele><time>2026-04-12T09:26:43.999Z</time></trkpt><trkpt lat="43.56817279900098" lon="12.122903673646954"><ele>311.0</ele><time>2026-04-12T09:26:44.999Z</time></trkpt><trkpt lat="43.56809726117255" lon="12.12277652923217"><ele>311.0</ele><time>2026-04-12T09:26:45.999Z</time></trkpt><trkpt lat="43.568027475438065" lon="12.122649636429422"><ele>311.0</ele><time>2026-04-12T09:26:46.999Z</time></trkpt><trkpt lat="43.567960330686056" lon="12.122527059266655"><ele>311.0</ele><time>2026-04-12T09:26:47.999Z</time></trkpt><trkpt lat="43.5679051765805" lon="12.122414334522631"><ele>311.0</ele><time>2026-04-12T09:26:48.999Z</time></trkpt><trkpt lat="43.56787068200531" lon="12.1223076939591"><ele>311.0</ele><time>2026-04-12T09:26:49.999Z</time></trkpt><trkpt lat="43.56786028273557" lon="12.122191194811979"><ele>311.0</ele><time>2026-04-12T09:26:50.999Z</time></trkpt><trkpt lat="43.567871772253206" lon="12.122070334668848"><ele>311.0</ele><time>2026-04-12T09:26:51.999Z</time></trkpt><trkpt lat="43.567887321692346" lon="12.12196332267126"><ele>311.0</ele><time>2026-04-12T09:26:52.999Z</time></trkpt><trkpt lat="43.567885086667346" lon="12.121876143783544"><ele>311.0</ele><time>2026-04-12T09:26:53.999Z</time></trkpt><trkpt lat="43.567853615933906" lon="12.121792284748938"><ele>311.0</ele><time>2026-04-12T09:26:54.999Z</time></trkpt><trkpt lat="43.56779299672217" lon="12.121720085246476"><ele>310.5</ele><time>2026-04-12T09:26:55.999Z</time></trkpt><trkpt lat="43.5677123304839" lon="12.121666467105372"><ele>310.0</ele><time>2026-04-12T09:26:56.999Z</time></trkpt><trkpt lat="43.567624928473194" lon="12.121605373612615"><ele>309.5</ele><time>2026-04-12T09:26:57.999Z</time></trkpt><trkpt lat="43.567560996616706" lon="12.121529340991067"><ele>309.0</ele><time>2026-04-12T09:26:58.999Z</time></trkpt><trkpt lat="43.567514655430166" lon="12.121452729804954"><ele>308.5</ele><time>2026-04-12T09:26:59.999Z</time></trkpt><trkpt lat="43.56747342749929" lon="12.121379015993583"><ele>308.0</ele><time>2026-04-12T09:27:00.999Z</time></trkpt><trkpt lat="43.56740690869801" lon="12.121249211741972"><ele>308.0</ele><time>2026-04-12T09:27:02.999Z</time></trkpt><trkpt lat="43.56735147835316" lon="12.121143326338974"><ele>308.0</ele><time>2026-04-12T09:27:04.999Z</time></trkpt><trkpt lat="43.567314679176754" lon="12.121044206739763"><ele>308.0</ele><time>2026-04-12T09:27:06.999Z</time></trkpt><trkpt lat="43.56726674397663" lon="12.120936867929233"><ele>308.0</ele><time>2026-04-12T09:27:08.998Z</time></trkpt><trkpt lat="43.567217429627526" lon="12.120784929012544"><ele>308.0</ele><time>2026-04-12T09:27:10.998Z</time></trkpt><trkpt lat="43.567188557754804" lon="12.120697855673455"><ele>308.1666666666667</ele><time>2026-04-12T09:27:11.998Z</time></trkpt><trkpt lat="43.567153642144056" lon="12.120610395974472"><ele>308.33333333333337</ele><time>2026-04-12T09:27:12.998Z</time></trkpt><trkpt lat="43.56711189343434" lon="12.12051296742379"><ele>308.5</ele><time>2026-04-12T09:27:13.998Z</time></trkpt><trkpt lat="43.567073741638296" lon="12.12042286434987"><ele>308.6666666666667</ele><time>2026-04-12T09:27:14.998Z</time></trkpt><trkpt lat="43.5670328655827" lon="12.120331883071554"><ele>308.8333333333333</ele><time>2026-04-12T09:27:15.998Z</time></trkpt><trkpt lat="43.56699188314083" lon="12.120246066497884"><ele>309.0</ele><time>2026-04-12T09:27:16.998Z</time></trkpt><trkpt lat="43.56695663762956" lon="12.120156652826202"><ele>309.0</ele><time>2026-04-12T09:27:17.998Z</time></trkpt><trkpt lat="43.566917980939664" lon="12.120060175589034"><ele>309.0</ele><time>2026-04-12T09:27:18.998Z</time></trkpt><trkpt lat="43.566878747590245" lon="12.119964900760694"><ele>309.0</ele><time>2026-04-12T09:27:19.998Z</time></trkpt><trkpt lat="43.566833701749644" lon="12.119859850900141"><ele>309.0</ele><time>2026-04-12T09:27:20.998Z</time></trkpt><trkpt lat="43.56679199641176" lon="12.119754767530644"><ele>309.0</ele><time>2026-04-12T09:27:21.998Z</time></trkpt><trkpt lat="43.566749134491175" lon="12.119633140788867"><ele>309.0</ele><time>2026-04-12T09:27:22.998Z</time></trkpt><trkpt lat="43.56671236003594" lon="12.119511805381817"><ele>309.1666666666667</ele><time>2026-04-12T09:27:23.998Z</time></trkpt><trkpt lat="43.566680776885555" lon="12.119403202557528"><ele>309.3333333333333</ele><time>2026-04-12T09:27:24.998Z</time></trkpt><trkpt lat="43.56664830769609" lon="12.119300720066903"><ele>309.5</ele><time>2026-04-12T09:27:25.998Z</time></trkpt><trkpt lat="43.56661351170272" lon="12.119202893830883"><ele>309.66666666666663</ele><time>2026-04-12T09:27:26.998Z</time></trkpt><trkpt lat="43.56657446993225" lon="12.119089079661524"><ele>309.8333333333333</ele><time>2026-04-12T09:27:28Z</time></trkpt><trkpt lat="43.56654063969886" lon="12.118974236839353"><ele>310.0</ele><time>2026-04-12T09:27:29Z</time></trkpt><trkpt lat="43.56652704351737" lon="12.11886876592306"><ele>310.0</ele><time>2026-04-12T09:27:30Z</time></trkpt><trkpt lat="43.56655013607375" lon="12.118686373979521"><ele>310.0</ele><time>2026-04-12T09:27:32Z</time></trkpt><trkpt lat="43.56658877970944" lon="12.118570336134889"><ele>310.0</ele><time>2026-04-12T09:27:33Z</time></trkpt><trkpt lat="43.56665294377705" lon="12.1184522184824"><ele>310.0</ele><time>2026-04-12T09:27:34Z</time></trkpt><trkpt lat="43.56674348633306" lon="12.118351464575797"><ele>310.0</ele><time>2026-04-12T09:27:35Z</time></trkpt><trkpt lat="43.5668290381926" lon="12.118251683724695"><ele>310.0</ele><time>2026-04-12T09:27:36Z</time></trkpt><trkpt lat="43.566901662744826" lon="12.118169193767415"><ele>310.0</ele><time>2026-04-12T09:27:37Z</time></trkpt><trkpt lat="43.566966715336314" lon="12.118062111145235"><ele>310.0</ele><time>2026-04-12T09:27:38Z</time></trkpt><trkpt lat="43.567013492148696" lon="12.117930965946808"><ele>310.0</ele><time>2026-04-12T09:27:39Z</time></trkpt><trkpt lat="43.567037072876914" lon="12.117776573476977"><ele>310.0</ele><time>2026-04-12T09:27:40Z</time></trkpt><trkpt lat="43.567047172793" lon="12.117592337018342"><ele>310.0</ele><time>2026-04-12T09:27:41Z</time></trkpt><trkpt lat="43.567048918260724" lon="12.117423086611748"><ele>310.0</ele><time>2026-04-12T09:27:42Z</time></trkpt><trkpt lat="43.56704332316195" lon="12.117268450597992"><ele>310.0</ele><time>2026-04-12T09:27:43Z</time></trkpt><trkpt lat="43.567032596317844" lon="12.117120684159811"><ele>309.25</ele><time>2026-04-12T09:27:44Z</time></trkpt><trkpt lat="43.567015838542375" lon="12.116965847422659"><ele>308.5</ele><time>2026-04-12T09:27:45Z</time></trkpt><trkpt lat="43.56700373053863" lon="12.116804254412799"><ele>307.75</ele><time>2026-04-12T09:27:46Z</time></trkpt><trkpt lat="43.566995519207154" lon="12.116645076014946"><ele>307.0</ele><time>2026-04-12T09:27:47Z</time></trkpt><trkpt lat="43.56698963753281" lon="12.116491738973263"><ele>307.0</ele><time>2026-04-12T09:27:48Z</time></trkpt><trkpt lat="43.56698908333261" lon="12.116335295210932"><ele>307.0</ele><time>2026-04-12T09:27:49Z</time></trkpt><trkpt lat="43.56698556532904" lon="12.116179464466994"><ele>307.0</ele><time>2026-04-12T09:27:50Z</time></trkpt><trkpt lat="43.56697799717919" lon="12.116015389088897"><ele>307.0</ele><time>2026-04-12T09:27:51Z</time></trkpt><trkpt lat="43.56697244969227" lon="12.115855367552921"><ele>307.25</ele><time>2026-04-12T09:27:52Z</time></trkpt><trkpt lat="43.566965552111185" lon="12.115686400535191"><ele>307.5</ele><time>2026-04-12T09:27:53Z</time></trkpt><trkpt lat="43.56695668698433" lon="12.115513607347905"><ele>307.75</ele><time>2026-04-12T09:27:54Z</time></trkpt><trkpt lat="43.5669549016962" lon="12.115341522379246"><ele>308.0</ele><time>2026-04-12T09:27:55Z</time></trkpt><trkpt lat="43.566953867829085" lon="12.115173531991953"><ele>308.0</ele><time>2026-04-12T09:27:56Z</time></trkpt><trkpt lat="43.566951634884994" lon="12.115014947003772"><ele>308.0</ele><time>2026-04-12T09:27:57Z</time></trkpt><trkpt lat="43.56695083241767" lon="12.114846457576816"><ele>308.0</ele><time>2026-04-12T09:27:58Z</time></trkpt><trkpt lat="43.56694837205175" lon="12.114677944486134"><ele>308.0</ele><time>2026-04-12T09:27:59Z</time></trkpt><trkpt lat="43.566943121937584" lon="12.114510413530537"><ele>308.0</ele><time>2026-04-12T09:28:00Z</time></trkpt><trkpt lat="43.56694842216119" lon="12.114320244887255"><ele>308.0</ele><time>2026-04-12T09:28:01Z</time></trkpt><trkpt lat="43.566951828707886" lon="12.114163855426611"><ele>308.0</ele><time>2026-04-12T09:28:02Z</time></trkpt><trkpt lat="43.566956890871914" lon="12.113997883905071"><ele>308.0</ele><time>2026-04-12T09:28:03Z</time></trkpt><trkpt lat="43.56695364692056" lon="12.113851701369187"><ele>308.0</ele><time>2026-04-12T09:28:04Z</time></trkpt><trkpt lat="43.5669646643304" lon="12.113708127288483"><ele>308.0</ele><time>2026-04-12T09:28:05Z</time></trkpt><trkpt lat="43.56698958754605" lon="12.11356544020725"><ele>308.0</ele><time>2026-04-12T09:28:06Z</time></trkpt><trkpt lat="43.56702097334797" lon="12.113426763681762"><ele>308.0</ele><time>2026-04-12T09:28:07Z</time></trkpt><trkpt lat="43.56703061059127" lon="12.113272789811806"><ele>308.0</ele><time>2026-04-12T09:28:08Z</time></trkpt><trkpt lat="43.56704394145959" lon="12.113102865530553"><ele>308.0</ele><time>2026-04-12T09:28:09Z</time></trkpt><trkpt lat="43.56706488885696" lon="12.112927979101736"><ele>308.0</ele><time>2026-04-12T09:28:10Z</time></trkpt><trkpt lat="43.56709937784505" lon="12.11277968180422"><ele>308.0</ele><time>2026-04-12T09:28:10.999Z</time></trkpt><trkpt lat="43.567123733232556" lon="12.112638081365828"><ele>308.0</ele><time>2026-04-12T09:28:11.999Z</time></trkpt><trkpt lat="43.56713708871939" lon="12.112493796678105"><ele>308.0</ele><time>2026-04-12T09:28:12.999Z</time></trkpt><trkpt lat="43.56714836136314" lon="12.112339901621235"><ele>308.0</ele><time>2026-04-12T09:28:13.999Z</time></trkpt><trkpt lat="43.567168434819614" lon="12.112189611739764"><ele>308.0</ele><time>2026-04-12T09:28:14.999Z</time></trkpt><trkpt lat="43.567191320339745" lon="12.112032143411643"><ele>308.0</ele><time>2026-04-12T09:28:15.999Z</time></trkpt><trkpt lat="43.56721270920055" lon="12.11187195199107"><ele>308.0</ele><time>2026-04-12T09:28:16.999Z</time></trkpt><trkpt lat="43.56723472664067" lon="12.111715626136283"><ele>308.0</ele><time>2026-04-12T09:28:17.999Z</time></trkpt><trkpt lat="43.56726907349798" lon="12.11157172557156"><ele>308.0</ele><time>2026-04-12T09:28:18.999Z</time></trkpt><trkpt lat="43.56729710089421" lon="12.111426749443588"><ele>308.0</ele><time>2026-04-12T09:28:19.999Z</time></trkpt><trkpt lat="43.567322819288385" lon="12.111267178504104"><ele>308.25</ele><time>2026-04-12T09:28:20.999Z</time></trkpt><trkpt lat="43.5673579874136" lon="12.111107101069738"><ele>308.5</ele><time>2026-04-12T09:28:21.999Z</time></trkpt><trkpt lat="43.5673924641162" lon="12.11094229173276"><ele>308.75</ele><time>2026-04-12T09:28:22.999Z</time></trkpt><trkpt lat="43.56742821912593" lon="12.110783880322755"><ele>309.0</ele><time>2026-04-12T09:28:23.999Z</time></trkpt><trkpt lat="43.56746659022195" lon="12.110625755840132"><ele>309.0</ele><time>2026-04-12T09:28:24.999Z</time></trkpt><trkpt lat="43.56750371450087" lon="12.110467820533932"><ele>309.0</ele><time>2026-04-12T09:28:25.999Z</time></trkpt><trkpt lat="43.56753605146157" lon="12.110313041786338"><ele>309.0</ele><time>2026-04-12T09:28:26.999Z</time></trkpt><trkpt lat="43.567577554818556" lon="12.110164426654853"><ele>309.0</ele><time>2026-04-12T09:28:27.999Z</time></trkpt><trkpt lat="43.56762629238311" lon="12.11002588229879"><ele>308.5</ele><time>2026-04-12T09:28:28.999Z</time></trkpt><trkpt lat="43.56767840258732" lon="12.109875128923655"><ele>308.0</ele><time>2026-04-12T09:28:29.999Z</time></trkpt><trkpt lat="43.56773559617931" lon="12.109727459333161"><ele>307.5</ele><time>2026-04-12T09:28:30.999Z</time></trkpt><trkpt lat="43.567791618769654" lon="12.109567228650107"><ele>307.0</ele><time>2026-04-12T09:28:31.999Z</time></trkpt><trkpt lat="43.56784538932705" lon="12.109419098036591"><ele>307.75</ele><time>2026-04-12T09:28:32.999Z</time></trkpt><trkpt lat="43.56789934629662" lon="12.109272190243642"><ele>308.5</ele><time>2026-04-12T09:28:33.999Z</time></trkpt><trkpt lat="43.567954549160284" lon="12.109131339122507"><ele>309.25</ele><time>2026-04-12T09:28:34.999Z</time></trkpt><trkpt lat="43.56801817592971" lon="12.108994485194088"><ele>310.0</ele><time>2026-04-12T09:28:35.999Z</time></trkpt><trkpt lat="43.568089063934885" lon="12.108856807514488"><ele>310.0</ele><time>2026-04-12T09:28:36.999Z</time></trkpt><trkpt lat="43.568148765471456" lon="12.108707246368992"><ele>310.0</ele><time>2026-04-12T09:28:37.999Z</time></trkpt><trkpt lat="43.56820074791897" lon="12.108573838728095"><ele>310.0</ele><time>2026-04-12T09:28:38.999Z</time></trkpt><trkpt lat="43.56824777075261" lon="12.10845352595229"><ele>310.0</ele><time>2026-04-12T09:28:39.999Z</time></trkpt><trkpt lat="43.56830388084259" lon="12.108330469326257"><ele>310.0</ele><time>2026-04-12T09:28:40.999Z</time></trkpt><trkpt lat="43.56836781184304" lon="12.108187160367532"><ele>309.5</ele><time>2026-04-12T09:28:41.999Z</time></trkpt><trkpt lat="43.568440771842916" lon="12.108056993835259"><ele>309.0</ele><time>2026-04-12T09:28:42.999Z</time></trkpt><trkpt lat="43.56851891602068" lon="12.107931734125263"><ele>308.5</ele><time>2026-04-12T09:28:43.999Z</time></trkpt><trkpt lat="43.56859371357457" lon="12.107810391862392"><ele>308.0</ele><time>2026-04-12T09:28:44.999Z</time></trkpt><trkpt lat="43.568660642607945" lon="12.107680328924335"><ele>308.5</ele><time>2026-04-12T09:28:45.999Z</time></trkpt><trkpt lat="43.56873373542234" lon="12.107547180961273"><ele>309.0</ele><time>2026-04-12T09:28:46.999Z</time></trkpt><trkpt lat="43.5688110393689" lon="12.107422369524732"><ele>309.5</ele><time>2026-04-12T09:28:47.999Z</time></trkpt><trkpt lat="43.56888639163524" lon="12.107293021142793"><ele>310.0</ele><time>2026-04-12T09:28:48.999Z</time></trkpt><trkpt lat="43.56896962898673" lon="12.1071497351861"><ele>310.0</ele><time>2026-04-12T09:28:49.999Z</time></trkpt><trkpt lat="43.56905420912973" lon="12.107001313315148"><ele>310.0</ele><time>2026-04-12T09:28:50.999Z</time></trkpt><trkpt lat="43.56915035531674" lon="12.106869405565073"><ele>310.0</ele><time>2026-04-12T09:28:51.999Z</time></trkpt><trkpt lat="43.569218502632594" lon="12.106738952294073"><ele>310.0</ele><time>2026-04-12T09:28:52.999Z</time></trkpt><trkpt lat="43.56929744605881" lon="12.106613324957191"><ele>310.0</ele><time>2026-04-12T09:28:53.999Z</time></trkpt><trkpt lat="43.569379388244464" lon="12.106504001142355"><ele>310.0</ele><time>2026-04-12T09:28:54.999Z</time></trkpt><trkpt lat="43.56946610314611" lon="12.106408546313009"><ele>310.0</ele><time>2026-04-12T09:28:55.999Z</time></trkpt><trkpt lat="43.56955255568585" lon="12.106312906324158"><ele>310.0</ele><time>2026-04-12T09:28:56.999Z</time></trkpt><trkpt lat="43.56963611140327" lon="12.106221775377756"><ele>310.0</ele><time>2026-04-12T09:28:57.999Z</time></trkpt><trkpt lat="43.56970655078032" lon="12.10613114292985"><ele>310.0</ele><time>2026-04-12T09:28:58.999Z</time></trkpt><trkpt lat="43.56979206904576" lon="12.106038397630757"><ele>310.0</ele><time>2026-04-12T09:28:59.999Z</time></trkpt><trkpt lat="43.56987433238074" lon="12.105928715447886"><ele>310.0</ele><time>2026-04-12T09:29:00.999Z</time></trkpt><trkpt lat="43.56996178267851" lon="12.105832551024923"><ele>310.0</ele><time>2026-04-12T09:29:01.999Z</time></trkpt><trkpt lat="43.57005093931134" lon="12.105743086156991"><ele>310.0</ele><time>2026-04-12T09:29:02.999Z</time></trkpt><trkpt lat="43.5701397169802" lon="12.105649317727563"><ele>310.0</ele><time>2026-04-12T09:29:03.999Z</time></trkpt><trkpt lat="43.57022937758782" lon="12.105544624625333"><ele>310.0</ele><time>2026-04-12T09:29:04.999Z</time></trkpt><trkpt lat="43.57030247486579" lon="12.105446456768338"><ele>310.0</ele><time>2026-04-12T09:29:05.999Z</time></trkpt><trkpt lat="43.570377242461134" lon="12.105345736625788"><ele>310.0</ele><time>2026-04-12T09:29:06.999Z</time></trkpt><trkpt lat="43.570457384775004" lon="12.105260397950625"><ele>310.0</ele><time>2026-04-12T09:29:07.999Z</time></trkpt><trkpt lat="43.57053271905177" lon="12.105181505994267"><ele>310.16666666666663</ele><time>2026-04-12T09:29:08.999Z</time></trkpt><trkpt lat="43.57057717348974" lon="12.105080703115467"><ele>310.3333333333333</ele><time>2026-04-12T09:29:09.999Z</time></trkpt><trkpt lat="43.57062064759252" lon="12.1049707478284"><ele>310.5</ele><time>2026-04-12T09:29:10.998Z</time></trkpt><trkpt lat="43.570679589430824" lon="12.104868238400416"><ele>310.6666666666667</ele><time>2026-04-12T09:29:11.998Z</time></trkpt><trkpt lat="43.570743649450726" lon="12.104800211932709"><ele>310.83333333333337</ele><time>2026-04-12T09:29:12.998Z</time></trkpt><trkpt lat="43.57079841671772" lon="12.104751449299183"><ele>311.0</ele><time>2026-04-12T09:29:13.998Z</time></trkpt><trkpt lat="43.5708869905518" lon="12.104640352198127"><ele>311.0</ele><time>2026-04-12T09:29:15.998Z</time></trkpt><trkpt lat="43.570967443167014" lon="12.104559566533265"><ele>311.0</ele><time>2026-04-12T09:29:17.998Z</time></trkpt><trkpt lat="43.57107052617524" lon="12.104441980184655"><ele>311.0</ele><time>2026-04-12T09:29:19.998Z</time></trkpt><trkpt lat="43.571131687444385" lon="12.104359140884268"><ele>311.0</ele><time>2026-04-12T09:29:20.998Z</time></trkpt><trkpt lat="43.571206415941425" lon="12.10423513060178"><ele>311.0</ele><time>2026-04-12T09:29:22.998Z</time></trkpt><trkpt lat="43.571250366962715" lon="12.104148786853475"><ele>311.2</ele><time>2026-04-12T09:29:23.998Z</time></trkpt><trkpt lat="43.571294408880405" lon="12.104021814815221"><ele>311.40000000000003</ele><time>2026-04-12T09:29:24.998Z</time></trkpt><trkpt lat="43.57134150558956" lon="12.103882146308399"><ele>311.6</ele><time>2026-04-12T09:29:25.998Z</time></trkpt><trkpt lat="43.57137989811884" lon="12.103753621214059"><ele>311.8</ele><time>2026-04-12T09:29:26.998Z</time></trkpt><trkpt lat="43.571417054351855" lon="12.10363518114114"><ele>312.0</ele><time>2026-04-12T09:29:27.998Z</time></trkpt><trkpt lat="43.571449447629654" lon="12.103549858544353"><ele>312.0</ele><time>2026-04-12T09:29:28.998Z</time></trkpt><trkpt lat="43.57150328486313" lon="12.103401128619344"><ele>312.0</ele><time>2026-04-12T09:29:30.998Z</time></trkpt><trkpt lat="43.57154669149723" lon="12.103257461320666"><ele>312.0</ele><time>2026-04-12T09:29:32.998Z</time></trkpt><trkpt lat="43.571594249504685" lon="12.10314062504294"><ele>312.0</ele><time>2026-04-12T09:29:35Z</time></trkpt><trkpt lat="43.57164189726345" lon="12.102990154878734"><ele>312.0</ele><time>2026-04-12T09:29:37Z</time></trkpt><trkpt lat="43.57168978195265" lon="12.102851653883397"><ele>312.0</ele><time>2026-04-12T09:29:39Z</time></trkpt><trkpt lat="43.57172613455909" lon="12.102750158549581"><ele>312.0</ele><time>2026-04-12T09:29:40Z</time></trkpt><trkpt lat="43.5717624900554" lon="12.102612641606074"><ele>312.0</ele><time>2026-04-12T09:29:41Z</time></trkpt><trkpt lat="43.57179898229243" lon="12.102467658235897"><ele>312.0</ele><time>2026-04-12T09:29:42Z</time></trkpt><trkpt lat="43.57183357572841" lon="12.102322630104718"><ele>312.0</ele><time>2026-04-12T09:29:43Z</time></trkpt><trkpt lat="43.57186975030666" lon="12.102163478985053"><ele>311.75</ele><time>2026-04-12T09:29:44Z</time></trkpt><trkpt lat="43.57190288955707" lon="12.101996689070383"><ele>311.5</ele><time>2026-04-12T09:29:45Z</time></trkpt><trkpt lat="43.57192806448868" lon="12.101813458825259"><ele>311.25</ele><time>2026-04-12T09:29:46Z</time></trkpt><trkpt lat="43.57193398529574" lon="12.101658320261663"><ele>311.0</ele><time>2026-04-12T09:29:47Z</time></trkpt><trkpt lat="43.57193730220686" lon="12.101489873017302"><ele>311.0</ele><time>2026-04-12T09:29:48Z</time></trkpt><trkpt lat="43.57194006179804" lon="12.101329646635866"><ele>311.0</ele><time>2026-04-12T09:29:49Z</time></trkpt><trkpt lat="43.57194180257642" lon="12.101166991084597"><ele>311.0</ele><time>2026-04-12T09:29:50Z</time></trkpt><trkpt lat="43.571939826058816" lon="12.10100919988933"><ele>311.0</ele><time>2026-04-12T09:29:51Z</time></trkpt><trkpt lat="43.571925356566794" lon="12.100853190786866"><ele>311.5</ele><time>2026-04-12T09:29:52Z</time></trkpt><trkpt lat="43.57191315486623" lon="12.100673132920546"><ele>312.0</ele><time>2026-04-12T09:29:53Z</time></trkpt><trkpt lat="43.57190538642252" lon="12.100491577000808"><ele>312.5</ele><time>2026-04-12T09:29:54Z</time></trkpt><trkpt lat="43.57191017299757" lon="12.100300975226116"><ele>313.0</ele><time>2026-04-12T09:29:55Z</time></trkpt><trkpt lat="43.57191746777483" lon="12.100082153494151"><ele>313.0</ele><time>2026-04-12T09:29:56Z</time></trkpt><trkpt lat="43.57192158012425" lon="12.099854391587566"><ele>313.0</ele><time>2026-04-12T09:29:57Z</time></trkpt><trkpt lat="43.57192284195102" lon="12.099626360593927"><ele>313.0</ele><time>2026-04-12T09:29:58Z</time></trkpt><trkpt lat="43.57192551101707" lon="12.09944041417813"><ele>313.0</ele><time>2026-04-12T09:29:59Z</time></trkpt><trkpt lat="43.57193359307047" lon="12.099255011413481"><ele>313.0</ele><time>2026-04-12T09:30:00Z</time></trkpt><trkpt lat="43.57194188717602" lon="12.099086959748124"><ele>313.0</ele><time>2026-04-12T09:30:01Z</time></trkpt><trkpt lat="43.571943322490675" lon="12.098908747454455"><ele>313.0</ele><time>2026-04-12T09:30:02Z</time></trkpt><trkpt lat="43.571936442794815" lon="12.098748429206271"><ele>312.6</ele><time>2026-04-12T09:30:03Z</time></trkpt><trkpt lat="43.57194210596047" lon="12.09861461675816"><ele>312.20000000000005</ele><time>2026-04-12T09:30:04Z</time></trkpt><trkpt lat="43.57194709587851" lon="12.09847741822443"><ele>311.8</ele><time>2026-04-12T09:30:05Z</time></trkpt><trkpt lat="43.57193723103657" lon="12.098342978108287"><ele>311.40000000000003</ele><time>2026-04-12T09:30:06Z</time></trkpt><trkpt lat="43.57192270880013" lon="12.098199792243545"><ele>311.0</ele><time>2026-04-12T09:30:07Z</time></trkpt><trkpt lat="43.57191618997527" lon="12.09802727812906"><ele>311.0</ele><time>2026-04-12T09:30:08Z</time></trkpt><trkpt lat="43.57192710778061" lon="12.09785824231687"><ele>311.0</ele><time>2026-04-12T09:30:09Z</time></trkpt><trkpt lat="43.571936028891585" lon="12.097704736345706"><ele>311.0</ele><time>2026-04-12T09:30:10Z</time></trkpt><trkpt lat="43.57192938202315" lon="12.097533484846908"><ele>311.0</ele><time>2026-04-12T09:30:11Z</time></trkpt><trkpt lat="43.5719163703746" lon="12.09735182750991"><ele>311.0</ele><time>2026-04-12T09:30:12Z</time></trkpt><trkpt lat="43.57191651384408" lon="12.097157812305301"><ele>311.0</ele><time>2026-04-12T09:30:13Z</time></trkpt><trkpt lat="43.57193250565599" lon="12.096967055405111"><ele>311.0</ele><time>2026-04-12T09:30:14Z</time></trkpt><trkpt lat="43.57195542979239" lon="12.096764964418005"><ele>311.0</ele><time>2026-04-12T09:30:15Z</time></trkpt><trkpt lat="43.571980641122124" lon="12.096576202339499"><ele>311.25</ele><time>2026-04-12T09:30:16Z</time></trkpt><trkpt lat="43.571994349943886" lon="12.096419427016773"><ele>311.5</ele><time>2026-04-12T09:30:17Z</time></trkpt><trkpt lat="43.57199580314399" lon="12.09627073669448"><ele>311.75</ele><time>2026-04-12T09:30:17.999Z</time></trkpt><trkpt lat="43.57198934798301" lon="12.09611713982486"><ele>312.0</ele><time>2026-04-12T09:30:18.999Z</time></trkpt><trkpt lat="43.57198729837732" lon="12.095941507884515"><ele>312.5</ele><time>2026-04-12T09:30:19.999Z</time></trkpt><trkpt lat="43.57198947847662" lon="12.095742182488104"><ele>313.0</ele><time>2026-04-12T09:30:20.999Z</time></trkpt><trkpt lat="43.571992364467" lon="12.095555556723655"><ele>313.5</ele><time>2026-04-12T09:30:21.999Z</time></trkpt><trkpt lat="43.57199800579964" lon="12.095394403995902"><ele>314.0</ele><time>2026-04-12T09:30:22.999Z</time></trkpt><trkpt lat="43.572006022128626" lon="12.095251721956043"><ele>314.0</ele><time>2026-04-12T09:30:23.999Z</time></trkpt><trkpt lat="43.5720107193687" lon="12.095121732309082"><ele>314.0</ele><time>2026-04-12T09:30:24.999Z</time></trkpt><trkpt lat="43.5720139894978" lon="12.095009902589483"><ele>314.0</ele><time>2026-04-12T09:30:25.999Z</time></trkpt><trkpt lat="43.57201958143665" lon="12.09489827561441"><ele>314.0</ele><time>2026-04-12T09:30:26.999Z</time></trkpt><trkpt lat="43.57201007732772" lon="12.094790215521556"><ele>314.0</ele><time>2026-04-12T09:30:27.999Z</time></trkpt><trkpt lat="43.571975514923935" lon="12.09471064623851"><ele>314.0</ele><time>2026-04-12T09:30:28.999Z</time></trkpt><trkpt lat="43.57188568517759" lon="12.094717150513329"><ele>314.1666666666667</ele><time>2026-04-12T09:30:30.999Z</time></trkpt><trkpt lat="43.571814544621965" lon="12.094628130079657"><ele>314.33333333333337</ele><time>2026-04-12T09:30:40.999Z</time></trkpt><trkpt lat="43.57173389214014" lon="12.094558872626786"><ele>314.5</ele><time>2026-04-12T09:30:42.999Z</time></trkpt><trkpt lat="43.57168152274855" lon="12.094491266152819"><ele>314.6666666666667</ele><time>2026-04-12T09:30:44.999Z</time></trkpt><trkpt lat="43.57162532961211" lon="12.094394069644682"><ele>314.8333333333333</ele><time>2026-04-12T09:30:46.999Z</time></trkpt><trkpt lat="43.57158295887064" lon="12.094302920935721"><ele>315.0</ele><time>2026-04-12T09:30:49.999Z</time></trkpt><trkpt lat="43.571563003239504" lon="12.094202948266943"><ele>315.0</ele><time>2026-04-12T09:30:52.999Z</time></trkpt><trkpt lat="43.571564735144904" lon="12.094098326678564"><ele>315.0</ele><time>2026-04-12T09:30:56.999Z</time></trkpt><trkpt lat="43.57156625447238" lon="12.094217923957876"><ele>315.0</ele><time>2026-04-12T09:31:02.999Z</time></trkpt><trkpt lat="43.57157054230267" lon="12.094379063048102"><ele>315.0</ele><time>2026-04-12T09:31:04.999Z</time></trkpt><trkpt lat="43.57162553050863" lon="12.094469564574956"><ele>315.0</ele><time>2026-04-12T09:31:07.999Z</time></trkpt><trkpt lat="43.571715311896995" lon="12.094555397885449"><ele>315.0</ele><time>2026-04-12T09:31:09.999Z</time></trkpt><trkpt lat="43.57178206602876" lon="12.094622449681527"><ele>315.0</ele><time>2026-04-12T09:31:10.999Z</time></trkpt><trkpt lat="43.571829535640084" lon="12.094695744083829"><ele>315.0</ele><time>2026-04-12T09:31:11.999Z</time></trkpt><trkpt lat="43.57190170206987" lon="12.094747019783336"><ele>315.0</ele><time>2026-04-12T09:31:12.999Z</time></trkpt><trkpt lat="43.5720031733074" lon="12.09469497074511"><ele>315.0</ele><time>2026-04-12T09:31:14.999Z</time></trkpt><trkpt lat="43.57204400343159" lon="12.094620566180371"><ele>315.0</ele><time>2026-04-12T09:31:15.999Z</time></trkpt><trkpt lat="43.57206004181608" lon="12.094536355850977"><ele>315.0</ele><time>2026-04-12T09:31:17.999Z</time></trkpt><trkpt lat="43.572007522288324" lon="12.094481450277076"><ele>315.0</ele><time>2026-04-12T09:31:19.998Z</time></trkpt><trkpt lat="43.571948305004916" lon="12.094559273904318"><ele>315.0</ele><time>2026-04-12T09:31:21.998Z</time></trkpt><trkpt lat="43.571979805742345" lon="12.094662607976224"><ele>315.0</ele><time>2026-04-12T09:31:24.998Z</time></trkpt><trkpt lat="43.57194565586655" lon="12.094737010190787"><ele>315.0</ele><time>2026-04-12T09:31:26.998Z</time></trkpt><trkpt lat="43.57187097307911" lon="12.09474176703465"><ele>315.0</ele><time>2026-04-12T09:31:30.998Z</time></trkpt><trkpt lat="43.57181910223797" lon="12.09466961965062"><ele>315.0</ele><time>2026-04-12T09:31:32.998Z</time></trkpt><trkpt lat="43.57174922680001" lon="12.094581764071748"><ele>315.0</ele><time>2026-04-12T09:31:34.998Z</time></trkpt><trkpt lat="43.57168474644126" lon="12.09451429704211"><ele>315.0</ele><time>2026-04-12T09:31:35.998Z</time></trkpt><trkpt lat="43.57162095508944" lon="12.09443207722152"><ele>315.0</ele><time>2026-04-12T09:31:36.998Z</time></trkpt><trkpt lat="43.57158956375005" lon="12.09430739346176"><ele>315.0</ele><time>2026-04-12T09:31:38.998Z</time></trkpt><trkpt lat="43.57157327765135" lon="12.094166602937749"><ele>315.0</ele><time>2026-04-12T09:31:41Z</time></trkpt><trkpt lat="43.571543800183896" lon="12.094016245412108"><ele>315.0</ele><time>2026-04-12T09:31:43Z</time></trkpt><trkpt lat="43.57151599734396" lon="12.093848472741485"><ele>315.0</ele><time>2026-04-12T09:31:45Z</time></trkpt><trkpt lat="43.571442293099814" lon="12.093750980009489"><ele>315.0</ele><time>2026-04-12T09:31:47Z</time></trkpt><trkpt lat="43.571312347847076" lon="12.093750793244531"><ele>315.0</ele><time>2026-04-12T09:31:49Z</time></trkpt><trkpt lat="43.571241626893126" lon="12.093783119738001"><ele>315.0</ele><time>2026-04-12T09:31:50Z</time></trkpt><trkpt lat="43.57117728097337" lon="12.093790424513413"><ele>315.0</ele><time>2026-04-12T09:31:52Z</time></trkpt><trkpt lat="43.57119297252146" lon="12.093909298419575"><ele>315.0</ele><time>2026-04-12T09:32:11Z</time></trkpt><trkpt lat="43.571186775584714" lon="12.094016413990362"><ele>315.0</ele><time>2026-04-12T09:32:14Z</time></trkpt><trkpt lat="43.571111443409514" lon="12.093952161740727"><ele>315.0</ele><time>2026-04-12T09:34:52.999Z</time></trkpt><trkpt lat="43.57103882592825" lon="12.093903119692342"><ele>315.0</ele><time>2026-04-12T09:34:55.999Z</time></trkpt><trkpt lat="43.570988677966135" lon="12.093824408933397"><ele>315.0</ele><time>2026-04-12T09:35:52Z</time></trkpt><trkpt lat="43.570940769201165" lon="12.093738638129915"><ele>314.8333333333333</ele><time>2026-04-12T09:35:55Z</time></trkpt><trkpt lat="43.57088168198868" lon="12.093707926269062"><ele>314.6666666666667</ele><time>2026-04-12T09:35:59Z</time></trkpt><trkpt lat="43.5708352487116" lon="12.09377204486998"><ele>314.5</ele><time>2026-04-12T09:36:35Z</time></trkpt><trkpt lat="43.57076513965748" lon="12.09383208598691"><ele>314.33333333333337</ele><time>2026-04-12T09:38:33Z</time></trkpt><trkpt lat="43.57065499662882" lon="12.093902477306854"><ele>314.1666666666667</ele><time>2026-04-12T09:38:35Z</time></trkpt><trkpt lat="43.57058776273555" lon="12.093950873240376"><ele>314.0</ele><time>2026-04-12T09:38:37Z</time></trkpt><trkpt lat="43.57053097220982" lon="12.094020094336724"><ele>314.0</ele><time>2026-04-12T09:38:39Z</time></trkpt><trkpt lat="43.57048528216573" lon="12.094148773596263"><ele>314.0</ele><time>2026-04-12T09:38:40.999Z</time></trkpt><trkpt lat="43.57041210197343" lon="12.094281648008677"><ele>314.0</ele><time>2026-04-12T09:38:42.999Z</time></trkpt><trkpt lat="43.57041185100324" lon="12.09438938328379"><ele>314.0</ele><time>2026-04-12T09:38:43.999Z</time></trkpt><trkpt lat="43.57040065097473" lon="12.094541625655127"><ele>314.0</ele><time>2026-04-12T09:38:45.999Z</time></trkpt><trkpt lat="43.57031234847637" lon="12.094632618940597"><ele>314.6666666666667</ele><time>2026-04-12T09:38:47.999Z</time></trkpt><trkpt lat="43.57020904100789" lon="12.09456966322485"><ele>315.33333333333337</ele><time>2026-04-12T09:38:49.999Z</time></trkpt><trkpt lat="43.57018431181361" lon="12.094472013752988"><ele>316.0</ele><time>2026-04-12T09:38:50.999Z</time></trkpt><trkpt lat="43.570178546327504" lon="12.094359521531025"><ele>316.6666666666667</ele><time>2026-04-12T09:38:51.999Z</time></trkpt><trkpt lat="43.570174095056096" lon="12.09424861970149"><ele>317.3333333333333</ele><time>2026-04-12T09:38:52.999Z</time></trkpt><trkpt lat="43.57015835096655" lon="12.094149276462746"><ele>318.0</ele><time>2026-04-12T09:38:53.999Z</time></trkpt><trkpt lat="43.57013652391198" lon="12.094061577559655"><ele>318.1666666666667</ele><time>2026-04-12T09:38:54.999Z</time></trkpt><trkpt lat="43.57010880478072" lon="12.093966849428885"><ele>318.3333333333333</ele><time>2026-04-12T09:38:55.999Z</time></trkpt><trkpt lat="43.5700648526194" lon="12.093883859499519"><ele>318.5</ele><time>2026-04-12T09:38:56.999Z</time></trkpt><trkpt lat="43.57001260735813" lon="12.093814435244122"><ele>318.66666666666663</ele><time>2026-04-12T09:38:57.999Z</time></trkpt><trkpt lat="43.56995371161756" lon="12.093770187796562"><ele>318.8333333333333</ele><time>2026-04-12T09:38:58.999Z</time></trkpt><trkpt lat="43.56990669676804" lon="12.093680730459177"><ele>319.0</ele><time>2026-04-12T09:39:00.999Z</time></trkpt><trkpt lat="43.569956926736936" lon="12.093545917066667"><ele>319.0</ele><time>2026-04-12T09:39:02.999Z</time></trkpt><trkpt lat="43.569992392808" lon="12.09343557934121"><ele>319.0</ele><time>2026-04-12T09:39:03.999Z</time></trkpt><trkpt lat="43.5700130758661" lon="12.093331877702795"><ele>319.0</ele><time>2026-04-12T09:39:04.999Z</time></trkpt><trkpt lat="43.57002995499064" lon="12.093226346771283"><ele>319.0</ele><time>2026-04-12T09:39:05.999Z</time></trkpt><trkpt lat="43.57002646746025" lon="12.09312250390279"><ele>319.0</ele><time>2026-04-12T09:39:06.999Z</time></trkpt><trkpt lat="43.569990306722445" lon="12.093021824089682"><ele>319.0</ele><time>2026-04-12T09:39:07.999Z</time></trkpt><trkpt lat="43.56995194102552" lon="12.092932718678801"><ele>319.0</ele><time>2026-04-12T09:39:08.999Z</time></trkpt><trkpt lat="43.56992953880247" lon="12.09283613864312"><ele>319.0</ele><time>2026-04-12T09:39:09.999Z</time></trkpt><trkpt lat="43.569894598899005" lon="12.092733598090092"><ele>319.0</ele><time>2026-04-12T09:39:10.999Z</time></trkpt><trkpt lat="43.569867293744146" lon="12.092627898807477"><ele>319.0</ele><time>2026-04-12T09:39:11.999Z</time></trkpt><trkpt lat="43.569836889544824" lon="12.092521600710628"><ele>319.0</ele><time>2026-04-12T09:39:12.999Z</time></trkpt><trkpt lat="43.56980517686396" lon="12.09240280963414"><ele>319.0</ele><time>2026-04-12T09:39:13.999Z</time></trkpt><trkpt lat="43.569777826174736" lon="12.092299563967432"><ele>318.66666666666663</ele><time>2026-04-12T09:39:14.999Z</time></trkpt><trkpt lat="43.56975500253242" lon="12.092201895973025"><ele>318.3333333333333</ele><time>2026-04-12T09:39:15.999Z</time></trkpt><trkpt lat="43.56973803035007" lon="12.092115200772415"><ele>318.0</ele><time>2026-04-12T09:39:16.999Z</time></trkpt><trkpt lat="43.569703353254" lon="12.09195633198564"><ele>317.6666666666667</ele><time>2026-04-12T09:39:18.999Z</time></trkpt><trkpt lat="43.56967629197529" lon="12.091846326884255"><ele>317.33333333333337</ele><time>2026-04-12T09:39:19.999Z</time></trkpt><trkpt lat="43.56965749969518" lon="12.091742391540388"><ele>317.0</ele><time>2026-04-12T09:39:20.999Z</time></trkpt><trkpt lat="43.569634138942526" lon="12.091627070851809"><ele>317.0</ele><time>2026-04-12T09:39:21.999Z</time></trkpt><trkpt lat="43.56961549695422" lon="12.091515704385522"><ele>317.0</ele><time>2026-04-12T09:39:22.999Z</time></trkpt><trkpt lat="43.56958863835264" lon="12.091397046895583"><ele>317.0</ele><time>2026-04-12T09:39:23.999Z</time></trkpt><trkpt lat="43.569559163197056" lon="12.091276934557415"><ele>317.0</ele><time>2026-04-12T09:39:24.999Z</time></trkpt><trkpt lat="43.569537592615966" lon="12.091152396571472"><ele>317.0</ele><time>2026-04-12T09:39:25.999Z</time></trkpt><trkpt lat="43.56951862040264" lon="12.091030238677863"><ele>317.0</ele><time>2026-04-12T09:39:26.999Z</time></trkpt><trkpt lat="43.56949283879261" lon="12.090898110736498"><ele>317.1666666666667</ele><time>2026-04-12T09:39:27.999Z</time></trkpt><trkpt lat="43.56946597036344" lon="12.090776421079095"><ele>317.33333333333337</ele><time>2026-04-12T09:39:28.999Z</time></trkpt><trkpt lat="43.56943952707813" lon="12.090655929744289"><ele>317.5</ele><time>2026-04-12T09:39:29.999Z</time></trkpt><trkpt lat="43.56941757302547" lon="12.09052965138824"><ele>317.6666666666667</ele><time>2026-04-12T09:39:30.999Z</time></trkpt><trkpt lat="43.56939431351667" lon="12.090416808795215"><ele>317.8333333333333</ele><time>2026-04-12T09:39:31.999Z</time></trkpt><trkpt lat="43.56936064760511" lon="12.090320503382928"><ele>318.0</ele><time>2026-04-12T09:39:32.999Z</time></trkpt><trkpt lat="43.56932581249546" lon="12.09020757928833"><ele>318.0</ele><time>2026-04-12T09:39:33.999Z</time></trkpt><trkpt lat="43.56930020191453" lon="12.090091237214676"><ele>318.0</ele><time>2026-04-12T09:39:34.999Z</time></trkpt><trkpt lat="43.56927300938718" lon="12.08996024932728"><ele>318.0</ele><time>2026-04-12T09:39:35.999Z</time></trkpt><trkpt lat="43.56924566404249" lon="12.089847890753028"><ele>318.0</ele><time>2026-04-12T09:39:36.999Z</time></trkpt><trkpt lat="43.56921628719123" lon="12.08970194512007"><ele>318.0</ele><time>2026-04-12T09:39:37.999Z</time></trkpt><trkpt lat="43.56919068911306" lon="12.089564798333146"><ele>318.0</ele><time>2026-04-12T09:39:38.999Z</time></trkpt><trkpt lat="43.56916079056655" lon="12.089425061288233"><ele>318.0</ele><time>2026-04-12T09:39:39.998Z</time></trkpt><trkpt lat="43.56913703721874" lon="12.089288405169695"><ele>318.0</ele><time>2026-04-12T09:39:40.998Z</time></trkpt><trkpt lat="43.56910538132165" lon="12.089147375257875"><ele>318.0</ele><time>2026-04-12T09:39:41.998Z</time></trkpt><trkpt lat="43.56907392646679" lon="12.088996734818906"><ele>318.0</ele><time>2026-04-12T09:39:42.998Z</time></trkpt><trkpt lat="43.56904435247902" lon="12.088859804354838"><ele>318.0</ele><time>2026-04-12T09:39:43.998Z</time></trkpt><trkpt lat="43.56901572368798" lon="12.08873770047603"><ele>318.0</ele><time>2026-04-12T09:39:44.998Z</time></trkpt><trkpt lat="43.56898459931279" lon="12.088600312586905"><ele>318.0</ele><time>2026-04-12T09:39:45.998Z</time></trkpt><trkpt lat="43.56895654557719" lon="12.088458743140508"><ele>318.0</ele><time>2026-04-12T09:39:46.998Z</time></trkpt><trkpt lat="43.56892614403047" lon="12.08831276928438"><ele>318.0</ele><time>2026-04-12T09:39:47.998Z</time></trkpt><trkpt lat="43.568895679735064" lon="12.088173879860305"><ele>317.8</ele><time>2026-04-12T09:39:48.998Z</time></trkpt><trkpt lat="43.56886087988345" lon="12.088026503040936"><ele>317.6</ele><time>2026-04-12T09:39:49.998Z</time></trkpt><trkpt lat="43.56882493054807" lon="12.087877086914713"><ele>317.4</ele><time>2026-04-12T09:39:50.998Z</time></trkpt><trkpt lat="43.56878922286042" lon="12.087724824739455"><ele>317.2</ele><time>2026-04-12T09:39:51.998Z</time></trkpt><trkpt lat="43.56875597322522" lon="12.087588461843273"><ele>317.0</ele><time>2026-04-12T09:39:52.998Z</time></trkpt><trkpt lat="43.56871803842235" lon="12.087443807731614"><ele>317.5</ele><time>2026-04-12T09:39:53.998Z</time></trkpt><trkpt lat="43.568686726115715" lon="12.087288240189475"><ele>318.0</ele><time>2026-04-12T09:39:54.998Z</time></trkpt><trkpt lat="43.5686555695099" lon="12.087127601369179"><ele>318.5</ele><time>2026-04-12T09:39:55.998Z</time></trkpt><trkpt lat="43.56862416645909" lon="12.08696634292101"><ele>319.0</ele><time>2026-04-12T09:39:56.998Z</time></trkpt><trkpt lat="43.56859790439712" lon="12.086810779039837"><ele>319.0</ele><time>2026-04-12T09:39:57.998Z</time></trkpt><trkpt lat="43.568569288737905" lon="12.08665387250665"><ele>319.0</ele><time>2026-04-12T09:39:58.998Z</time></trkpt><trkpt lat="43.56853338305169" lon="12.086497821656627"><ele>319.0</ele><time>2026-04-12T09:39:59.998Z</time></trkpt><trkpt lat="43.56849830201718" lon="12.086355633096355"><ele>319.0</ele><time>2026-04-12T09:40:00.998Z</time></trkpt><trkpt lat="43.56846777757975" lon="12.086217080495842"><ele>319.0</ele><time>2026-04-12T09:40:01.998Z</time></trkpt><trkpt lat="43.568437297119644" lon="12.086071731610136"><ele>319.0</ele><time>2026-04-12T09:40:03Z</time></trkpt><trkpt lat="43.568401708147704" lon="12.085911084469295"><ele>319.0</ele><time>2026-04-12T09:40:04Z</time></trkpt><trkpt lat="43.56837312207763" lon="12.085762499023181"><ele>319.0</ele><time>2026-04-12T09:40:05Z</time></trkpt><trkpt lat="43.5683620667258" lon="12.085639416742467"><ele>319.0</ele><time>2026-04-12T09:40:06Z</time></trkpt><trkpt lat="43.56832254056517" lon="12.08551915661595"><ele>319.5</ele><time>2026-04-12T09:40:07Z</time></trkpt><trkpt lat="43.5682736936504" lon="12.085390849295415"><ele>320.0</ele><time>2026-04-12T09:40:08Z</time></trkpt><trkpt lat="43.56824314078507" lon="12.085242389844357"><ele>320.5</ele><time>2026-04-12T09:40:09Z</time></trkpt><trkpt lat="43.56821921599572" lon="12.085084931183347"><ele>321.0</ele><time>2026-04-12T09:40:10Z</time></trkpt><trkpt lat="43.56818118047952" lon="12.084924558726946"><ele>321.25</ele><time>2026-04-12T09:40:11Z</time></trkpt><trkpt lat="43.568147915585165" lon="12.084766328151094"><ele>321.5</ele><time>2026-04-12T09:40:12Z</time></trkpt><trkpt lat="43.56812251270866" lon="12.084603804569818"><ele>321.75</ele><time>2026-04-12T09:40:13Z</time></trkpt><trkpt lat="43.56808632236006" lon="12.084446860532468"><ele>322.0</ele><time>2026-04-12T09:40:14Z</time></trkpt><trkpt lat="43.56804433539859" lon="12.084293810369747"><ele>322.0</ele><time>2026-04-12T09:40:15Z</time></trkpt><trkpt lat="43.568006934168" lon="12.084141292045638"><ele>322.0</ele><time>2026-04-12T09:40:16Z</time></trkpt><trkpt lat="43.56797379667337" lon="12.08399821875891"><ele>322.0</ele><time>2026-04-12T09:40:17Z</time></trkpt><trkpt lat="43.56794469793449" lon="12.083855076195738"><ele>322.0</ele><time>2026-04-12T09:40:18Z</time></trkpt><trkpt lat="43.56791963605315" lon="12.083724756587408"><ele>322.0</ele><time>2026-04-12T09:40:19Z</time></trkpt><trkpt lat="43.56789630007437" lon="12.083572454599286"><ele>322.0</ele><time>2026-04-12T09:40:20Z</time></trkpt><trkpt lat="43.5678754388032" lon="12.083411606500439"><ele>322.0</ele><time>2026-04-12T09:40:21Z</time></trkpt><trkpt lat="43.56784188774769" lon="12.083246321775029"><ele>322.0</ele><time>2026-04-12T09:40:22Z</time></trkpt><trkpt lat="43.567799310286496" lon="12.08308536057266"><ele>322.0</ele><time>2026-04-12T09:40:23Z</time></trkpt><trkpt lat="43.56776186131936" lon="12.0829143712384"><ele>322.25</ele><time>2026-04-12T09:40:24Z</time></trkpt><trkpt lat="43.56773039516079" lon="12.082741192725697"><ele>322.5</ele><time>2026-04-12T09:40:25Z</time></trkpt><trkpt lat="43.567700195825665" lon="12.082566884339004"><ele>322.75</ele><time>2026-04-12T09:40:26Z</time></trkpt><trkpt lat="43.56767212066659" lon="12.082398149054788"><ele>323.0</ele><time>2026-04-12T09:40:27Z</time></trkpt><trkpt lat="43.56763262761696" lon="12.082224566194212"><ele>323.0</ele><time>2026-04-12T09:40:28Z</time></trkpt><trkpt lat="43.56759564160442" lon="12.08203899630289"><ele>323.0</ele><time>2026-04-12T09:40:29Z</time></trkpt><trkpt lat="43.567553786969796" lon="12.081835325913866"><ele>323.0</ele><time>2026-04-12T09:40:30Z</time></trkpt><trkpt lat="43.567517732853254" lon="12.081624087387821"><ele>323.33333333333337</ele><time>2026-04-12T09:40:31Z</time></trkpt><trkpt lat="43.56746884612812" lon="12.081378706681175"><ele>323.6666666666667</ele><time>2026-04-12T09:40:32Z</time></trkpt><trkpt lat="43.56743466672938" lon="12.081168969768662"><ele>324.0</ele><time>2026-04-12T09:40:33Z</time></trkpt><trkpt lat="43.56740469909769" lon="12.080978680239593"><ele>324.0</ele><time>2026-04-12T09:40:34Z</time></trkpt><trkpt lat="43.56737356484722" lon="12.080797608159623"><ele>324.0</ele><time>2026-04-12T09:40:35Z</time></trkpt><trkpt lat="43.56734068955721" lon="12.080623005289034"><ele>324.0</ele><time>2026-04-12T09:40:36Z</time></trkpt><trkpt lat="43.56731150252418" lon="12.080437993585083"><ele>324.0</ele><time>2026-04-12T09:40:37Z</time></trkpt><trkpt lat="43.56727420306401" lon="12.080254459977724"><ele>324.25</ele><time>2026-04-12T09:40:38Z</time></trkpt><trkpt lat="43.567239625109444" lon="12.080061362800992"><ele>324.5</ele><time>2026-04-12T09:40:39Z</time></trkpt><trkpt lat="43.56720887929963" lon="12.079859301182337"><ele>324.75</ele><time>2026-04-12T09:40:40Z</time></trkpt><trkpt lat="43.56717403967312" lon="12.079656610205687"><ele>325.0</ele><time>2026-04-12T09:40:41Z</time></trkpt><trkpt lat="43.56714378994527" lon="12.079460888781279"><ele>324.5</ele><time>2026-04-12T09:40:42Z</time></trkpt><trkpt lat="43.56711270807546" lon="12.07927450153375"><ele>324.0</ele><time>2026-04-12T09:40:43Z</time></trkpt><trkpt lat="43.567077218869855" lon="12.079108577599753"><ele>323.5</ele><time>2026-04-12T09:40:44Z</time></trkpt><trkpt lat="43.567053777666466" lon="12.078952927454692"><ele>323.0</ele><time>2026-04-12T09:40:44.999Z</time></trkpt><trkpt lat="43.567029359136626" lon="12.078804977686984"><ele>323.5</ele><time>2026-04-12T09:40:45.999Z</time></trkpt><trkpt lat="43.567000658482065" lon="12.0786464447024"><ele>324.0</ele><time>2026-04-12T09:40:46.999Z</time></trkpt><trkpt lat="43.56696686543452" lon="12.07848348012454"><ele>324.5</ele><time>2026-04-12T09:40:47.999Z</time></trkpt><trkpt lat="43.56693468988777" lon="12.078338015870889"><ele>325.0</ele><time>2026-04-12T09:40:48.999Z</time></trkpt><trkpt lat="43.566897172943875" lon="12.078199170002549"><ele>325.0</ele><time>2026-04-12T09:40:49.999Z</time></trkpt><trkpt lat="43.56685290583622" lon="12.07804888629019"><ele>325.0</ele><time>2026-04-12T09:40:50.999Z</time></trkpt><trkpt lat="43.56680672966657" lon="12.07789327052141"><ele>325.0</ele><time>2026-04-12T09:40:51.999Z</time></trkpt><trkpt lat="43.56676763657642" lon="12.077735877230193"><ele>325.0</ele><time>2026-04-12T09:40:52.999Z</time></trkpt><trkpt lat="43.56672307863197" lon="12.077572018471727"><ele>325.0</ele><time>2026-04-12T09:40:53.999Z</time></trkpt><trkpt lat="43.56667274232778" lon="12.077403443513512"><ele>325.0</ele><time>2026-04-12T09:40:54.999Z</time></trkpt><trkpt lat="43.56662561460463" lon="12.07723685193876"><ele>325.0</ele><time>2026-04-12T09:40:55.999Z</time></trkpt><trkpt lat="43.566580225404124" lon="12.077076002684569"><ele>325.0</ele><time>2026-04-12T09:40:56.999Z</time></trkpt><trkpt lat="43.56653485926413" lon="12.0769082903616"><ele>325.0</ele><time>2026-04-12T09:40:57.999Z</time></trkpt><trkpt lat="43.566495708620025" lon="12.076752822107675"><ele>325.0</ele><time>2026-04-12T09:40:58.999Z</time></trkpt><trkpt lat="43.56645884216313" lon="12.076601823908177"><ele>325.0</ele><time>2026-04-12T09:40:59.999Z</time></trkpt><trkpt lat="43.56641737468551" lon="12.076438170119934"><ele>325.0</ele><time>2026-04-12T09:41:00.999Z</time></trkpt><trkpt lat="43.5663771064265" lon="12.076265994219137"><ele>325.0</ele><time>2026-04-12T09:41:01.999Z</time></trkpt><trkpt lat="43.5663522343164" lon="12.076116539086252"><ele>325.0</ele><time>2026-04-12T09:41:02.999Z</time></trkpt><trkpt lat="43.566349561078425" lon="12.075947933223837"><ele>325.0</ele><time>2026-04-12T09:41:03.999Z</time></trkpt><trkpt lat="43.56637208754621" lon="12.075777707121361"><ele>325.0</ele><time>2026-04-12T09:41:04.999Z</time></trkpt><trkpt lat="43.56640879796615" lon="12.075610251473687"><ele>325.0</ele><time>2026-04-12T09:41:05.999Z</time></trkpt><trkpt lat="43.56646561234462" lon="12.075450029440564"><ele>325.0</ele><time>2026-04-12T09:41:06.999Z</time></trkpt><trkpt lat="43.56651371847829" lon="12.07528011637624"><ele>325.0</ele><time>2026-04-12T09:41:07.999Z</time></trkpt><trkpt lat="43.56656017546767" lon="12.075112858812652"><ele>325.0</ele><time>2026-04-12T09:41:08.999Z</time></trkpt><trkpt lat="43.566609354346575" lon="12.07493703301924"><ele>325.0</ele><time>2026-04-12T09:41:09.999Z</time></trkpt><trkpt lat="43.56665804013497" lon="12.074763047627656"><ele>325.0</ele><time>2026-04-12T09:41:10.999Z</time></trkpt><trkpt lat="43.56671063724423" lon="12.074594384649254"><ele>325.0</ele><time>2026-04-12T09:41:11.999Z</time></trkpt><trkpt lat="43.56675423840327" lon="12.074426042824708"><ele>325.0</ele><time>2026-04-12T09:41:12.999Z</time></trkpt><trkpt lat="43.56680156300826" lon="12.0742592941492"><ele>325.0</ele><time>2026-04-12T09:41:13.999Z</time></trkpt><trkpt lat="43.566852881461514" lon="12.074087727681443"><ele>325.0</ele><time>2026-04-12T09:41:14.999Z</time></trkpt><trkpt lat="43.56689950210641" lon="12.073909947795237"><ele>325.0</ele><time>2026-04-12T09:41:15.999Z</time></trkpt><trkpt lat="43.566949278272645" lon="12.073732149129949"><ele>325.0</ele><time>2026-04-12T09:41:16.999Z</time></trkpt><trkpt lat="43.566999715455154" lon="12.073561629155348"><ele>325.0</ele><time>2026-04-12T09:41:17.999Z</time></trkpt><trkpt lat="43.56704777320422" lon="12.073389076845167"><ele>325.0</ele><time>2026-04-12T09:41:18.999Z</time></trkpt><trkpt lat="43.56709767548257" lon="12.073205966601263"><ele>325.0</ele><time>2026-04-12T09:41:19.999Z</time></trkpt><trkpt lat="43.567140809147865" lon="12.073030827155554"><ele>325.0</ele><time>2026-04-12T09:41:20.999Z</time></trkpt><trkpt lat="43.56719370546989" lon="12.072859655827807"><ele>325.0</ele><time>2026-04-12T09:41:21.999Z</time></trkpt><trkpt lat="43.56724111857996" lon="12.072680047658555"><ele>325.0</ele><time>2026-04-12T09:41:22.999Z</time></trkpt><trkpt lat="43.56729029280602" lon="12.07250365196801"><ele>325.0</ele><time>2026-04-12T09:41:23.999Z</time></trkpt><trkpt lat="43.56734086587022" lon="12.07232463323374"><ele>325.0</ele><time>2026-04-12T09:41:24.999Z</time></trkpt><trkpt lat="43.567391944842356" lon="12.07214940113702"><ele>325.0</ele><time>2026-04-12T09:41:25.999Z</time></trkpt><trkpt lat="43.56743868020018" lon="12.07198231659384"><ele>325.0</ele><time>2026-04-12T09:41:26.999Z</time></trkpt><trkpt lat="43.567486251019524" lon="12.071816287039193"><ele>325.0</ele><time>2026-04-12T09:41:27.999Z</time></trkpt><trkpt lat="43.56753029813678" lon="12.071654510725693"><ele>325.0</ele><time>2026-04-12T09:41:28.999Z</time></trkpt><trkpt lat="43.56757643749883" lon="12.071492125052012"><ele>325.25</ele><time>2026-04-12T09:41:29.999Z</time></trkpt><trkpt lat="43.56762306287794" lon="12.071324312388183"><ele>325.5</ele><time>2026-04-12T09:41:30.999Z</time></trkpt><trkpt lat="43.56766907254072" lon="12.071159503644076"><ele>325.75</ele><time>2026-04-12T09:41:31.999Z</time></trkpt><trkpt lat="43.56771635431299" lon="12.070998598063206"><ele>326.0</ele><time>2026-04-12T09:41:32.999Z</time></trkpt><trkpt lat="43.56776054815935" lon="12.070826866270771"><ele>326.25</ele><time>2026-04-12T09:41:33.999Z</time></trkpt><trkpt lat="43.567806266842396" lon="12.070661615744596"><ele>326.5</ele><time>2026-04-12T09:41:34.999Z</time></trkpt><trkpt lat="43.56785809418874" lon="12.070496677552374"><ele>326.75</ele><time>2026-04-12T09:41:35.999Z</time></trkpt><trkpt lat="43.56790772908924" lon="12.070322165446424"><ele>327.0</ele><time>2026-04-12T09:41:36.999Z</time></trkpt><trkpt lat="43.56795438427729" lon="12.070154750318137"><ele>326.75</ele><time>2026-04-12T09:41:37.999Z</time></trkpt><trkpt lat="43.568001232434824" lon="12.06997706811901"><ele>326.5</ele><time>2026-04-12T09:41:38.999Z</time></trkpt><trkpt lat="43.568057016989066" lon="12.06980882793337"><ele>326.25</ele><time>2026-04-12T09:41:39.999Z</time></trkpt><trkpt lat="43.568107201413454" lon="12.069639571268352"><ele>326.0</ele><time>2026-04-12T09:41:40.999Z</time></trkpt><trkpt lat="43.56815384270899" lon="12.069480733697782"><ele>326.0</ele><time>2026-04-12T09:41:41.999Z</time></trkpt><trkpt lat="43.568190762086566" lon="12.069320217840616"><ele>326.0</ele><time>2026-04-12T09:41:42.999Z</time></trkpt><trkpt lat="43.56823265054069" lon="12.069170645953568"><ele>326.0</ele><time>2026-04-12T09:41:43.998Z</time></trkpt><trkpt lat="43.56827274978159" lon="12.069003173230676"><ele>326.0</ele><time>2026-04-12T09:41:44.998Z</time></trkpt><trkpt lat="43.56831879809036" lon="12.068836996905224"><ele>326.0</ele><time>2026-04-12T09:41:45.998Z</time></trkpt><trkpt lat="43.56836539179813" lon="12.068664271373777"><ele>326.0</ele><time>2026-04-12T09:41:46.998Z</time></trkpt><trkpt lat="43.56841335201471" lon="12.068491730591544"><ele>326.0</ele><time>2026-04-12T09:41:47.998Z</time></trkpt><trkpt lat="43.56846721489204" lon="12.068317523528597"><ele>326.0</ele><time>2026-04-12T09:41:48.998Z</time></trkpt><trkpt lat="43.568524060980636" lon="12.068135526235443"><ele>326.0</ele><time>2026-04-12T09:41:49.998Z</time></trkpt><trkpt lat="43.56857814717459" lon="12.067945141210117"><ele>326.0</ele><time>2026-04-12T09:41:50.998Z</time></trkpt><trkpt lat="43.568629504521645" lon="12.06776569127381"><ele>326.0</ele><time>2026-04-12T09:41:51.998Z</time></trkpt><trkpt lat="43.56868353009625" lon="12.067583856205976"><ele>326.0</ele><time>2026-04-12T09:41:52.998Z</time></trkpt><trkpt lat="43.56873923960158" lon="12.067393960010344"><ele>326.5</ele><time>2026-04-12T09:41:53.998Z</time></trkpt><trkpt lat="43.568794297577035" lon="12.067212301874168"><ele>327.0</ele><time>2026-04-12T09:41:54.998Z</time></trkpt><trkpt lat="43.568852716612206" lon="12.067031928431451"><ele>327.5</ele><time>2026-04-12T09:41:55.998Z</time></trkpt><trkpt lat="43.56890337711156" lon="12.066859294101413"><ele>328.0</ele><time>2026-04-12T09:41:56.998Z</time></trkpt><trkpt lat="43.56896317951808" lon="12.06668218256915"><ele>328.25</ele><time>2026-04-12T09:41:57.998Z</time></trkpt><trkpt lat="43.56902278261335" lon="12.066506638182346"><ele>328.5</ele><time>2026-04-12T09:41:58.998Z</time></trkpt><trkpt lat="43.569082386389574" lon="12.066331867103772"><ele>328.75</ele><time>2026-04-12T09:41:59.998Z</time></trkpt><trkpt lat="43.5691411329971" lon="12.06615232551089"><ele>329.0</ele><time>2026-04-12T09:42:00.998Z</time></trkpt><trkpt lat="43.56920737675718" lon="12.065981696711388"><ele>329.0</ele><time>2026-04-12T09:42:01.998Z</time></trkpt><trkpt lat="43.56927589624529" lon="12.065801493332737"><ele>329.0</ele><time>2026-04-12T09:42:02.998Z</time></trkpt><trkpt lat="43.569333520420706" lon="12.065628059133378"><ele>329.0</ele><time>2026-04-12T09:42:03.998Z</time></trkpt><trkpt lat="43.56940181144468" lon="12.065446903623224"><ele>329.0</ele><time>2026-04-12T09:42:04.998Z</time></trkpt><trkpt lat="43.56946978588788" lon="12.065270476759613"><ele>329.0</ele><time>2026-04-12T09:42:05.998Z</time></trkpt><trkpt lat="43.56953537362143" lon="12.06509547520568"><ele>329.0</ele><time>2026-04-12T09:42:06.998Z</time></trkpt><trkpt lat="43.56959607419357" lon="12.064915096802002"><ele>329.0</ele><time>2026-04-12T09:42:07.998Z</time></trkpt><trkpt lat="43.569664524190955" lon="12.064742884624666"><ele>329.0</ele><time>2026-04-12T09:42:09Z</time></trkpt><trkpt lat="43.56972247244296" lon="12.064582808362989"><ele>329.33333333333337</ele><time>2026-04-12T09:42:10Z</time></trkpt><trkpt lat="43.56985425088913" lon="12.06424632915604"><ele>329.6666666666667</ele><time>2026-04-12T09:42:12Z</time></trkpt><trkpt lat="43.56992044709343" lon="12.06407857055837"><ele>330.0</ele><time>2026-04-12T09:42:13Z</time></trkpt><trkpt lat="43.56998612036562" lon="12.06390985083093"><ele>330.0</ele><time>2026-04-12T09:42:14Z</time></trkpt><trkpt lat="43.570047637202364" lon="12.063739793240506"><ele>330.0</ele><time>2026-04-12T09:42:15Z</time></trkpt><trkpt lat="43.57011553047871" lon="12.063586997519792"><ele>330.0</ele><time>2026-04-12T09:42:16Z</time></trkpt><trkpt lat="43.57018882909945" lon="12.063423971236436"><ele>330.0</ele><time>2026-04-12T09:42:17Z</time></trkpt><trkpt lat="43.570248674391934" lon="12.063264604999313"><ele>330.25</ele><time>2026-04-12T09:42:18Z</time></trkpt><trkpt lat="43.57031455029987" lon="12.063098088707608"><ele>330.5</ele><time>2026-04-12T09:42:19Z</time></trkpt><trkpt lat="43.570380418967886" lon="12.062932453049724"><ele>330.75</ele><time>2026-04-12T09:42:20Z</time></trkpt><trkpt lat="43.57044344259737" lon="12.062765420228143"><ele>331.0</ele><time>2026-04-12T09:42:21Z</time></trkpt><trkpt lat="43.57050848038953" lon="12.062601491862791"><ele>331.0</ele><time>2026-04-12T09:42:22Z</time></trkpt><trkpt lat="43.57057005825135" lon="12.062434809647812"><ele>331.0</ele><time>2026-04-12T09:42:23Z</time></trkpt><trkpt lat="43.57063571320159" lon="12.062259541772706"><ele>331.0</ele><time>2026-04-12T09:42:24Z</time></trkpt><trkpt lat="43.57069936464616" lon="12.062100771267348"><ele>331.0</ele><time>2026-04-12T09:42:25Z</time></trkpt><trkpt lat="43.57075090083755" lon="12.06195190074678"><ele>331.0</ele><time>2026-04-12T09:42:26Z</time></trkpt><trkpt lat="43.57080062402815" lon="12.06180241364113"><ele>331.0</ele><time>2026-04-12T09:42:27Z</time></trkpt><trkpt lat="43.57081905398879" lon="12.061670242660226"><ele>331.0</ele><time>2026-04-12T09:42:28Z</time></trkpt><trkpt lat="43.57081676197935" lon="12.061545208590788"><ele>331.0</ele><time>2026-04-12T09:42:29Z</time></trkpt><trkpt lat="43.57078991811386" lon="12.061408942530491"><ele>331.0</ele><time>2026-04-12T09:42:30Z</time></trkpt><trkpt lat="43.57075096300295" lon="12.061277951018953"><ele>330.75</ele><time>2026-04-12T09:42:31Z</time></trkpt><trkpt lat="43.570704976706736" lon="12.061122396703961"><ele>330.5</ele><time>2026-04-12T09:42:32Z</time></trkpt><trkpt lat="43.570666858709004" lon="12.060960007874579"><ele>330.25</ele><time>2026-04-12T09:42:33Z</time></trkpt><trkpt lat="43.57064883263287" lon="12.060795321607454"><ele>330.0</ele><time>2026-04-12T09:42:34Z</time></trkpt><trkpt lat="43.570666714639195" lon="12.060609524953499"><ele>330.0</ele><time>2026-04-12T09:42:35Z</time></trkpt><trkpt lat="43.570700793310024" lon="12.06043806271166"><ele>330.0</ele><time>2026-04-12T09:42:36Z</time></trkpt><trkpt lat="43.57075038733232" lon="12.060263852428495"><ele>330.0</ele><time>2026-04-12T09:42:37Z</time></trkpt><trkpt lat="43.57080911898135" lon="12.060078092279921"><ele>330.0</ele><time>2026-04-12T09:42:38Z</time></trkpt><trkpt lat="43.570864592717136" lon="12.059899129815928"><ele>330.5</ele><time>2026-04-12T09:42:39Z</time></trkpt><trkpt lat="43.570922534486286" lon="12.059749639059604"><ele>331.0</ele><time>2026-04-12T09:42:40Z</time></trkpt><trkpt lat="43.57098359217998" lon="12.059608273364688"><ele>331.5</ele><time>2026-04-12T09:42:41Z</time></trkpt><trkpt lat="43.57104705380179" lon="12.05948064662786"><ele>332.0</ele><time>2026-04-12T09:42:42Z</time></trkpt><trkpt lat="43.57110786715655" lon="12.05934400718215"><ele>332.0</ele><time>2026-04-12T09:42:43Z</time></trkpt><trkpt lat="43.57117656045411" lon="12.059198206838584"><ele>332.0</ele><time>2026-04-12T09:42:44Z</time></trkpt><trkpt lat="43.571240900079005" lon="12.059036167552737"><ele>332.0</ele><time>2026-04-12T09:42:45Z</time></trkpt><trkpt lat="43.57131527880361" lon="12.05888052076572"><ele>332.0</ele><time>2026-04-12T09:42:46Z</time></trkpt><trkpt lat="43.5714034427259" lon="12.058732196435699"><ele>332.25</ele><time>2026-04-12T09:42:47Z</time></trkpt><trkpt lat="43.57147630393353" lon="12.058578051181136"><ele>332.5</ele><time>2026-04-12T09:42:48Z</time></trkpt><trkpt lat="43.57154662152384" lon="12.058428704290476"><ele>332.75</ele><time>2026-04-12T09:42:49Z</time></trkpt><trkpt lat="43.571599838180234" lon="12.058314348576353"><ele>333.0</ele><time>2026-04-12T09:42:50Z</time></trkpt><trkpt lat="43.57167400851595" lon="12.058212460724054"><ele>333.2</ele><time>2026-04-12T09:42:51Z</time></trkpt><trkpt lat="43.57173277186069" lon="12.058125365845447"><ele>333.4</ele><time>2026-04-12T09:42:52Z</time></trkpt><trkpt lat="43.571791668449606" lon="12.058014292777813"><ele>333.59999999999997</ele><time>2026-04-12T09:42:52.999Z</time></trkpt><trkpt lat="43.571838673412316" lon="12.057877123449458"><ele>333.79999999999995</ele><time>2026-04-12T09:42:53.999Z</time></trkpt><trkpt lat="43.57187884610363" lon="12.057729638807672"><ele>334.0</ele><time>2026-04-12T09:42:54.999Z</time></trkpt><trkpt lat="43.57191221544079" lon="12.057584886855704"><ele>333.75</ele><time>2026-04-12T09:42:55.999Z</time></trkpt><trkpt lat="43.57195588205445" lon="12.057435006009962"><ele>333.5</ele><time>2026-04-12T09:42:56.999Z</time></trkpt><trkpt lat="43.57200482676849" lon="12.057271478498956"><ele>333.25</ele><time>2026-04-12T09:42:57.999Z</time></trkpt><trkpt lat="43.57206689474309" lon="12.057116495232604"><ele>333.0</ele><time>2026-04-12T09:42:58.999Z</time></trkpt><trkpt lat="43.57214316157173" lon="12.056960898013873"><ele>333.0</ele><time>2026-04-12T09:42:59.999Z</time></trkpt><trkpt lat="43.572222749775094" lon="12.056816667383735"><ele>333.0</ele><time>2026-04-12T09:43:00.999Z</time></trkpt><trkpt lat="43.572315019757184" lon="12.05666883357087"><ele>333.0</ele><time>2026-04-12T09:43:01.999Z</time></trkpt><trkpt lat="43.5724077433383" lon="12.056521833036845"><ele>333.0</ele><time>2026-04-12T09:43:02.999Z</time></trkpt><trkpt lat="43.572496358981404" lon="12.0563747072875"><ele>333.5</ele><time>2026-04-12T09:43:03.999Z</time></trkpt><trkpt lat="43.57259384928174" lon="12.056240847242503"><ele>334.0</ele><time>2026-04-12T09:43:04.999Z</time></trkpt><trkpt lat="43.572689244845925" lon="12.05613395723475"><ele>334.5</ele><time>2026-04-12T09:43:05.999Z</time></trkpt><trkpt lat="43.57279274920567" lon="12.056023338358939"><ele>335.0</ele><time>2026-04-12T09:43:06.999Z</time></trkpt><trkpt lat="43.57289553136141" lon="12.055915636285356"><ele>335.0</ele><time>2026-04-12T09:43:07.999Z</time></trkpt><trkpt lat="43.57299853302255" lon="12.055797824443106"><ele>335.0</ele><time>2026-04-12T09:43:08.999Z</time></trkpt><trkpt lat="43.57308090974131" lon="12.055701131859022"><ele>335.0</ele><time>2026-04-12T09:43:09.999Z</time></trkpt><trkpt lat="43.5731568891211" lon="12.055584056782392"><ele>335.0</ele><time>2026-04-12T09:43:10.999Z</time></trkpt><trkpt lat="43.57323586023926" lon="12.0554468497743"><ele>335.25</ele><time>2026-04-12T09:43:11.999Z</time></trkpt><trkpt lat="43.573320208726315" lon="12.055301050749472"><ele>335.5</ele><time>2026-04-12T09:43:12.999Z</time></trkpt><trkpt lat="43.573410601483246" lon="12.055160121499135"><ele>335.75</ele><time>2026-04-12T09:43:13.999Z</time></trkpt><trkpt lat="43.573517194202346" lon="12.055037490984617"><ele>336.0</ele><time>2026-04-12T09:43:14.999Z</time></trkpt><trkpt lat="43.573623544277" lon="12.05495695106084"><ele>336.4</ele><time>2026-04-12T09:43:15.999Z</time></trkpt><trkpt lat="43.57371416524805" lon="12.054901391494948"><ele>336.8</ele><time>2026-04-12T09:43:16.999Z</time></trkpt><trkpt lat="43.573798165473974" lon="12.054836550213546"><ele>337.2</ele><time>2026-04-12T09:43:17.999Z</time></trkpt><trkpt lat="43.57388686019701" lon="12.054773183142771"><ele>337.59999999999997</ele><time>2026-04-12T09:43:18.999Z</time></trkpt><trkpt lat="43.57397992452806" lon="12.054698311840829"><ele>338.0</ele><time>2026-04-12T09:43:19.999Z</time></trkpt><trkpt lat="43.57407395408916" lon="12.054607338436666"><ele>338.0</ele><time>2026-04-12T09:43:20.999Z</time></trkpt><trkpt lat="43.57414881902591" lon="12.054495758197717"><ele>338.0</ele><time>2026-04-12T09:43:21.999Z</time></trkpt><trkpt lat="43.57420942837755" lon="12.054370141054092"><ele>338.0</ele><time>2026-04-12T09:43:22.999Z</time></trkpt><trkpt lat="43.57426193308136" lon="12.054224708789212"><ele>338.0</ele><time>2026-04-12T09:43:23.999Z</time></trkpt><trkpt lat="43.574311244977444" lon="12.054073493704644"><ele>337.5</ele><time>2026-04-12T09:43:24.999Z</time></trkpt><trkpt lat="43.57436507077445" lon="12.053903322296465"><ele>337.0</ele><time>2026-04-12T09:43:25.999Z</time></trkpt><trkpt lat="43.574420065674246" lon="12.053730514782277"><ele>336.5</ele><time>2026-04-12T09:43:26.999Z</time></trkpt><trkpt lat="43.57447915715322" lon="12.05357175126369"><ele>336.0</ele><time>2026-04-12T09:43:27.999Z</time></trkpt><trkpt lat="43.57453836087939" lon="12.053422641176427"><ele>336.0</ele><time>2026-04-12T09:43:28.999Z</time></trkpt><trkpt lat="43.5746056474893" lon="12.053265113621189"><ele>336.0</ele><time>2026-04-12T09:43:29.999Z</time></trkpt><trkpt lat="43.57467558454646" lon="12.053094831922126"><ele>336.0</ele><time>2026-04-12T09:43:30.999Z</time></trkpt><trkpt lat="43.5747406060747" lon="12.052954881170322"><ele>336.0</ele><time>2026-04-12T09:43:31.999Z</time></trkpt><trkpt lat="43.57479807876643" lon="12.052824529039592"><ele>336.0</ele><time>2026-04-12T09:43:32.999Z</time></trkpt><trkpt lat="43.574851171063344" lon="12.05268131050256"><ele>336.0</ele><time>2026-04-12T09:43:33.999Z</time></trkpt><trkpt lat="43.57490295015885" lon="12.052524916225233"><ele>336.0</ele><time>2026-04-12T09:43:34.999Z</time></trkpt><trkpt lat="43.574962173637985" lon="12.052367434530572"><ele>336.0</ele><time>2026-04-12T09:43:35.999Z</time></trkpt><trkpt lat="43.57502252331479" lon="12.05220654423959"><ele>336.25</ele><time>2026-04-12T09:43:36.999Z</time></trkpt><trkpt lat="43.57508464130569" lon="12.052051139926204"><ele>336.5</ele><time>2026-04-12T09:43:37.999Z</time></trkpt><trkpt lat="43.57515209021213" lon="12.051890543918635"><ele>336.75</ele><time>2026-04-12T09:43:38.999Z</time></trkpt><trkpt lat="43.575213089900394" lon="12.05172809278101"><ele>337.0</ele><time>2026-04-12T09:43:39.999Z</time></trkpt><trkpt lat="43.57527158228493" lon="12.051564195751967"><ele>337.25</ele><time>2026-04-12T09:43:40.999Z</time></trkpt><trkpt lat="43.57532145547464" lon="12.051405734594772"><ele>337.5</ele><time>2026-04-12T09:43:41.999Z</time></trkpt><trkpt lat="43.57535900525501" lon="12.051247843439985"><ele>337.75</ele><time>2026-04-12T09:43:42.999Z</time></trkpt><trkpt lat="43.57541199978939" lon="12.051063887112925"><ele>338.0</ele><time>2026-04-12T09:43:43.999Z</time></trkpt><trkpt lat="43.575454304678615" lon="12.050903002595847"><ele>338.0</ele><time>2026-04-12T09:43:44.999Z</time></trkpt><trkpt lat="43.57549504401543" lon="12.050745209115489"><ele>338.0</ele><time>2026-04-12T09:43:45.999Z</time></trkpt><trkpt lat="43.57551152451503" lon="12.050595706920975"><ele>338.0</ele><time>2026-04-12T09:43:46.999Z</time></trkpt><trkpt lat="43.57552711865399" lon="12.050415387558871"><ele>338.0</ele><time>2026-04-12T09:43:47.999Z</time></trkpt><trkpt lat="43.5755432275872" lon="12.050243879149209"><ele>338.0</ele><time>2026-04-12T09:43:48.999Z</time></trkpt><trkpt lat="43.57556294756809" lon="12.05008035506371"><ele>338.0</ele><time>2026-04-12T09:43:49.999Z</time></trkpt><trkpt lat="43.57557803232" lon="12.049912477428062"><ele>338.0</ele><time>2026-04-12T09:43:50.999Z</time></trkpt><trkpt lat="43.575588768994464" lon="12.049770274198695"><ele>338.0</ele><time>2026-04-12T09:43:51.999Z</time></trkpt><trkpt lat="43.57559386958402" lon="12.049637787569779"><ele>338.0</ele><time>2026-04-12T09:43:52.998Z</time></trkpt><trkpt lat="43.57559050238371" lon="12.049496050953996"><ele>338.2</ele><time>2026-04-12T09:43:53.998Z</time></trkpt><trkpt lat="43.57557969765589" lon="12.049349077075895"><ele>338.4</ele><time>2026-04-12T09:43:54.998Z</time></trkpt><trkpt lat="43.575574371730276" lon="12.04920953957182"><ele>338.59999999999997</ele><time>2026-04-12T09:43:55.998Z</time></trkpt><trkpt lat="43.57557748672609" lon="12.049047023636023"><ele>338.79999999999995</ele><time>2026-04-12T09:43:56.998Z</time></trkpt><trkpt lat="43.57558122610413" lon="12.048888617550395"><ele>339.0</ele><time>2026-04-12T09:43:57.998Z</time></trkpt><trkpt lat="43.575592696529334" lon="12.04872479686246"><ele>339.0</ele><time>2026-04-12T09:43:58.998Z</time></trkpt><trkpt lat="43.57561901606143" lon="12.048589664703986"><ele>339.0</ele><time>2026-04-12T09:43:59.998Z</time></trkpt><trkpt lat="43.57563875036136" lon="12.048455288330963"><ele>339.0</ele><time>2026-04-12T09:44:00.998Z</time></trkpt><trkpt lat="43.57566329966632" lon="12.048329984239297"><ele>339.0</ele><time>2026-04-12T09:44:01.998Z</time></trkpt><trkpt lat="43.575695835741776" lon="12.048230805595798"><ele>339.0</ele><time>2026-04-12T09:44:02.998Z</time></trkpt><trkpt lat="43.575732145565276" lon="12.048145325298213"><ele>339.0</ele><time>2026-04-12T09:44:03.998Z</time></trkpt><trkpt lat="43.57576234269233" lon="12.048060783763754"><ele>339.1666666666667</ele><time>2026-04-12T09:44:04.998Z</time></trkpt><trkpt lat="43.57579556906994" lon="12.047980559884136"><ele>339.3333333333333</ele><time>2026-04-12T09:44:05.998Z</time></trkpt><trkpt lat="43.57583486280325" lon="12.047899076231616"><ele>339.5</ele><time>2026-04-12T09:44:06.998Z</time></trkpt><trkpt lat="43.57587975461313" lon="12.047799806569312"><ele>339.66666666666663</ele><time>2026-04-12T09:44:07.998Z</time></trkpt><trkpt lat="43.57593045672053" lon="12.04769458522099"><ele>339.8333333333333</ele><time>2026-04-12T09:44:08.998Z</time></trkpt><trkpt lat="43.57595459408253" lon="12.04760211353646"><ele>340.0</ele><time>2026-04-12T09:44:09.998Z</time></trkpt><trkpt lat="43.57595920006269" lon="12.047504117741738"><ele>340.0</ele><time>2026-04-12T09:44:10.998Z</time></trkpt><trkpt lat="43.57594432857593" lon="12.047388569355874"><ele>340.0</ele><time>2026-04-12T09:44:11.998Z</time></trkpt><trkpt lat="43.575915862969175" lon="12.047278568288942"><ele>340.0</ele><time>2026-04-12T09:44:12.998Z</time></trkpt><trkpt lat="43.57587033260469" lon="12.047178808538524"><ele>340.0</ele><time>2026-04-12T09:44:13.998Z</time></trkpt><trkpt lat="43.57582094597853" lon="12.047084192321668"><ele>340.0</ele><time>2026-04-12T09:44:15Z</time></trkpt><trkpt lat="43.575777153687426" lon="12.04699296168697"><ele>340.0</ele><time>2026-04-12T09:44:16Z</time></trkpt><trkpt lat="43.57574230407197" lon="12.046884495088463"><ele>340.0</ele><time>2026-04-12T09:44:17Z</time></trkpt><trkpt lat="43.57572666381097" lon="12.046765934884712"><ele>340.0</ele><time>2026-04-12T09:44:18Z</time></trkpt><trkpt lat="43.57571676210548" lon="12.046648478030903"><ele>340.0</ele><time>2026-04-12T09:44:19Z</time></trkpt><trkpt lat="43.57573483060987" lon="12.046507379011741"><ele>340.0</ele><time>2026-04-12T09:44:20Z</time></trkpt><trkpt lat="43.57577036288284" lon="12.046380963937704"><ele>340.0</ele><time>2026-04-12T09:44:21Z</time></trkpt><trkpt lat="43.575810773349545" lon="12.046250951522248"><ele>340.2</ele><time>2026-04-12T09:44:22Z</time></trkpt><trkpt lat="43.57585473744038" lon="12.046130206207085"><ele>340.4</ele><time>2026-04-12T09:44:23Z</time></trkpt><trkpt lat="43.5758996498198" lon="12.046006198283253"><ele>340.6</ele><time>2026-04-12T09:44:24Z</time></trkpt><trkpt lat="43.57594423513107" lon="12.04589028708068"><ele>340.8</ele><time>2026-04-12T09:44:25Z</time></trkpt><trkpt lat="43.57598310975165" lon="12.045782401421269"><ele>341.0</ele><time>2026-04-12T09:44:26Z</time></trkpt><trkpt lat="43.576019778921776" lon="12.045666500034296"><ele>341.20000000000005</ele><time>2026-04-12T09:44:27Z</time></trkpt><trkpt lat="43.57605958206745" lon="12.045541364324475"><ele>341.40000000000003</ele><time>2026-04-12T09:44:28Z</time></trkpt><trkpt lat="43.57609826165368" lon="12.045404383411634"><ele>341.6</ele><time>2026-04-12T09:44:29Z</time></trkpt><trkpt lat="43.57613426530624" lon="12.045260199614958"><ele>341.8</ele><time>2026-04-12T09:44:30Z</time></trkpt><trkpt lat="43.57617247271954" lon="12.045109193766475"><ele>342.0</ele><time>2026-04-12T09:44:31Z</time></trkpt><trkpt lat="43.57621666886206" lon="12.044939120617126"><ele>342.0</ele><time>2026-04-12T09:44:32Z</time></trkpt><trkpt lat="43.57626875318856" lon="12.044769053352478"><ele>342.0</ele><time>2026-04-12T09:44:33Z</time></trkpt><trkpt lat="43.57633556009898" lon="12.044625853980905"><ele>342.0</ele><time>2026-04-12T09:44:34Z</time></trkpt><trkpt lat="43.57642371705253" lon="12.044491369406568"><ele>342.0</ele><time>2026-04-12T09:44:35Z</time></trkpt><trkpt lat="43.576523109132545" lon="12.044380505588219"><ele>342.0</ele><time>2026-04-12T09:44:36Z</time></trkpt><trkpt lat="43.57660951949171" lon="12.044266388060445"><ele>342.0</ele><time>2026-04-12T09:44:37Z</time></trkpt><trkpt lat="43.57667716031404" lon="12.044152992812586"><ele>342.0</ele><time>2026-04-12T09:44:38Z</time></trkpt><trkpt lat="43.57671869027762" lon="12.04403340893092"><ele>342.0</ele><time>2026-04-12T09:44:39Z</time></trkpt><trkpt lat="43.57673282454443" lon="12.043909620880667"><ele>342.0</ele><time>2026-04-12T09:44:40Z</time></trkpt><trkpt lat="43.5767356491714" lon="12.043769829432282"><ele>342.25</ele><time>2026-04-12T09:44:41Z</time></trkpt><trkpt lat="43.57673181976771" lon="12.043605878044806"><ele>342.5</ele><time>2026-04-12T09:44:42Z</time></trkpt><trkpt lat="43.57675326641501" lon="12.043452186670983"><ele>342.75</ele><time>2026-04-12T09:44:43Z</time></trkpt><trkpt lat="43.57680812902418" lon="12.043299952676666"><ele>343.0</ele><time>2026-04-12T09:44:44Z</time></trkpt><trkpt lat="43.5768843977225" lon="12.043151184159576"><ele>343.5</ele><time>2026-04-12T09:44:45Z</time></trkpt><trkpt lat="43.57696677550065" lon="12.043004380038123"><ele>344.0</ele><time>2026-04-12T09:44:46Z</time></trkpt><trkpt lat="43.57704983684915" lon="12.042862488404898"><ele>344.5</ele><time>2026-04-12T09:44:47Z</time></trkpt><trkpt lat="43.57712031275933" lon="12.042743961430716"><ele>345.0</ele><time>2026-04-12T09:44:48Z</time></trkpt><trkpt lat="43.57718230072227" lon="12.042626168210157"><ele>345.0</ele><time>2026-04-12T09:44:49Z</time></trkpt><trkpt lat="43.57723183379179" lon="12.042490926992656"><ele>345.0</ele><time>2026-04-12T09:44:50Z</time></trkpt><trkpt lat="43.577259445827785" lon="12.042353856120096"><ele>345.0</ele><time>2026-04-12T09:44:51Z</time></trkpt><trkpt lat="43.57727412884246" lon="12.04218928287224"><ele>345.0</ele><time>2026-04-12T09:44:52Z</time></trkpt><trkpt lat="43.57726895120145" lon="12.042023216128186"><ele>344.75</ele><time>2026-04-12T09:44:53Z</time></trkpt><trkpt lat="43.57726804683136" lon="12.041857568878704"><ele>344.5</ele><time>2026-04-12T09:44:54Z</time></trkpt><trkpt lat="43.57727035940941" lon="12.041682088984846"><ele>344.25</ele><time>2026-04-12T09:44:55Z</time></trkpt><trkpt lat="43.577272079416645" lon="12.041506949539073"><ele>344.0</ele><time>2026-04-12T09:44:56Z</time></trkpt><trkpt lat="43.577276158189406" lon="12.041328232503762"><ele>344.5</ele><time>2026-04-12T09:44:57Z</time></trkpt><trkpt lat="43.57728394577134" lon="12.041151076678851"><ele>345.0</ele><time>2026-04-12T09:44:57.999Z</time></trkpt><trkpt lat="43.57728867468725" lon="12.040992225804251"><ele>345.5</ele><time>2026-04-12T09:44:58.999Z</time></trkpt><trkpt lat="43.57728207375235" lon="12.040845746155208"><ele>346.0</ele><time>2026-04-12T09:44:59.999Z</time></trkpt><trkpt lat="43.57727109801145" lon="12.040699715940987"><ele>346.5</ele><time>2026-04-12T09:45:00.999Z</time></trkpt><trkpt lat="43.57725791155136" lon="12.040538361362952"><ele>347.0</ele><time>2026-04-12T09:45:01.999Z</time></trkpt><trkpt lat="43.5772407837316" lon="12.040377229259652"><ele>347.5</ele><time>2026-04-12T09:45:02.999Z</time></trkpt><trkpt lat="43.57722805527235" lon="12.040208839434026"><ele>348.0</ele><time>2026-04-12T09:45:03.999Z</time></trkpt><trkpt lat="43.577225070213686" lon="12.040035363515294"><ele>347.79999999999995</ele><time>2026-04-12T09:45:04.999Z</time></trkpt><trkpt lat="43.57722716364223" lon="12.039860440262695"><ele>347.6</ele><time>2026-04-12T09:45:05.999Z</time></trkpt><trkpt lat="43.577233285653854" lon="12.039711271656184"><ele>347.4</ele><time>2026-04-12T09:45:06.999Z</time></trkpt><trkpt lat="43.57724659971826" lon="12.039581973270506"><ele>347.20000000000005</ele><time>2026-04-12T09:45:07.999Z</time></trkpt><trkpt lat="43.577270068358644" lon="12.039440643880052"><ele>347.0</ele><time>2026-04-12T09:45:08.999Z</time></trkpt><trkpt lat="43.5772984465288" lon="12.039296624899801"><ele>347.0</ele><time>2026-04-12T09:45:09.999Z</time></trkpt><trkpt lat="43.57733269925916" lon="12.039166439969257"><ele>347.0</ele><time>2026-04-12T09:45:10.999Z</time></trkpt><trkpt lat="43.57736938957029" lon="12.039072855200349"><ele>347.0</ele><time>2026-04-12T09:45:11.999Z</time></trkpt><trkpt lat="43.57740123257824" lon="12.038994522110459"><ele>347.0</ele><time>2026-04-12T09:45:12.999Z</time></trkpt><trkpt lat="43.577424866348586" lon="12.038899900009232"><ele>347.0</ele><time>2026-04-12T09:45:14.999Z</time></trkpt><trkpt lat="43.577370217149856" lon="12.038828668359574"><ele>347.0</ele><time>2026-04-12T09:45:16.999Z</time></trkpt><trkpt lat="43.57729898810911" lon="12.038830796436397"><ele>347.6666666666667</ele><time>2026-04-12T09:45:18.999Z</time></trkpt><trkpt lat="43.57723113811114" lon="12.038820074814245"><ele>348.33333333333337</ele><time>2026-04-12T09:45:20.999Z</time></trkpt><trkpt lat="43.57716704658688" lon="12.038824709256318"><ele>349.0</ele><time>2026-04-12T09:45:32.999Z</time></trkpt><trkpt lat="43.57706413508979" lon="12.038857383060673"><ele>349.6666666666667</ele><time>2026-04-12T09:45:35.999Z</time></trkpt><trkpt lat="43.57694357564558" lon="12.03885211174636"><ele>350.3333333333333</ele><time>2026-04-12T09:45:37.999Z</time></trkpt><trkpt lat="43.576877004444526" lon="12.038875120733962"><ele>351.0</ele><time>2026-04-12T09:45:38.999Z</time></trkpt><trkpt lat="43.57680817678704" lon="12.038884573588795"><ele>351.1666666666667</ele><time>2026-04-12T09:45:39.999Z</time></trkpt><trkpt lat="43.576738775859944" lon="12.038891346065858"><ele>351.3333333333333</ele><time>2026-04-12T09:45:40.999Z</time></trkpt><trkpt lat="43.576663316909084" lon="12.038900091518702"><ele>351.5</ele><time>2026-04-12T09:45:41.999Z</time></trkpt><trkpt lat="43.5765808448737" lon="12.038902058088507"><ele>351.66666666666663</ele><time>2026-04-12T09:45:42.999Z</time></trkpt><trkpt lat="43.5765000067018" lon="12.038897592093779"><ele>351.8333333333333</ele><time>2026-04-12T09:45:43.999Z</time></trkpt><trkpt lat="43.57641746636332" lon="12.038906277895789"><ele>352.0</ele><time>2026-04-12T09:45:44.999Z</time></trkpt><trkpt lat="43.576342634716426" lon="12.038918125157844"><ele>352.0</ele><time>2026-04-12T09:45:45.999Z</time></trkpt><trkpt lat="43.57626409212409" lon="12.038935800300546"><ele>352.0</ele><time>2026-04-12T09:45:46.999Z</time></trkpt><trkpt lat="43.57616664751237" lon="12.03896262234977"><ele>352.0</ele><time>2026-04-12T09:45:47.999Z</time></trkpt><trkpt lat="43.57606979647572" lon="12.038976868810218"><ele>352.0</ele><time>2026-04-12T09:45:48.999Z</time></trkpt><trkpt lat="43.57596856587829" lon="12.038989181669736"><ele>352.0</ele><time>2026-04-12T09:45:49.999Z</time></trkpt><trkpt lat="43.57586843779768" lon="12.039007461883427"><ele>352.0</ele><time>2026-04-12T09:45:50.999Z</time></trkpt><trkpt lat="43.57577247223156" lon="12.039036538505947"><ele>352.0</ele><time>2026-04-12T09:45:51.999Z</time></trkpt><trkpt lat="43.57567974305795" lon="12.039061810286606"><ele>352.0</ele><time>2026-04-12T09:45:52.999Z</time></trkpt><trkpt lat="43.57558027930106" lon="12.039088278129293"><ele>352.0</ele><time>2026-04-12T09:45:53.999Z</time></trkpt><trkpt lat="43.57547844853299" lon="12.039121788386039"><ele>352.0</ele><time>2026-04-12T09:45:54.999Z</time></trkpt><trkpt lat="43.57538124087598" lon="12.03914817859548"><ele>351.6</ele><time>2026-04-12T09:45:55.999Z</time></trkpt><trkpt lat="43.57529507123731" lon="12.039158132289808"><ele>351.20000000000005</ele><time>2026-04-12T09:45:56.999Z</time></trkpt><trkpt lat="43.57522423866718" lon="12.03916562619916"><ele>350.8</ele><time>2026-04-12T09:45:57.998Z</time></trkpt><trkpt lat="43.57511181835777" lon="12.039182953631341"><ele>350.4</ele><time>2026-04-12T09:45:59.998Z</time></trkpt><trkpt lat="43.57501079169463" lon="12.039192516021"><ele>350.0</ele><time>2026-04-12T09:46:01.998Z</time></trkpt><trkpt lat="43.574926655515114" lon="12.039123741832697"><ele>350.6666666666667</ele><time>2026-04-12T09:46:03.998Z</time></trkpt><trkpt lat="43.574874718795876" lon="12.03897260389901"><ele>351.33333333333337</ele><time>2026-04-12T09:46:05.998Z</time></trkpt><trkpt lat="43.574849880951064" lon="12.038884576598406"><ele>352.0</ele><time>2026-04-12T09:46:06.998Z</time></trkpt><trkpt lat="43.57482043429962" lon="12.038789104869904"><ele>352.6666666666667</ele><time>2026-04-12T09:46:07.998Z</time></trkpt><trkpt lat="43.57479088503485" lon="12.038694148508581"><ele>353.3333333333333</ele><time>2026-04-12T09:46:08.998Z</time></trkpt><trkpt lat="43.57475765294337" lon="12.038597948959184"><ele>354.0</ele><time>2026-04-12T09:46:09.998Z</time></trkpt><trkpt lat="43.5747233788546" lon="12.038503974887105"><ele>354.0</ele><time>2026-04-12T09:46:10.998Z</time></trkpt><trkpt lat="43.57468500982369" lon="12.038399171639337"><ele>354.0</ele><time>2026-04-12T09:46:11.998Z</time></trkpt><trkpt lat="43.57465833921104" lon="12.038302295250357"><ele>354.0</ele><time>2026-04-12T09:46:12.998Z</time></trkpt><trkpt lat="43.57463118772857" lon="12.038199028254057"><ele>354.0</ele><time>2026-04-12T09:46:13.998Z</time></trkpt><trkpt lat="43.574602569178566" lon="12.038089621510776"><ele>354.0</ele><time>2026-04-12T09:46:14.998Z</time></trkpt><trkpt lat="43.57457615053519" lon="12.037983221240404"><ele>354.0</ele><time>2026-04-12T09:46:15.998Z</time></trkpt><trkpt lat="43.574544240580984" lon="12.037867020518927"><ele>354.8333333333333</ele><time>2026-04-12T09:46:16.998Z</time></trkpt><trkpt lat="43.57451421778865" lon="12.037753486791694"><ele>355.6666666666667</ele><time>2026-04-12T09:46:17.998Z</time></trkpt><trkpt lat="43.57449522839379" lon="12.037635052132224"><ele>356.5</ele><time>2026-04-12T09:46:18.998Z</time></trkpt><trkpt lat="43.57449270382662" lon="12.037520894563347"><ele>357.33333333333337</ele><time>2026-04-12T09:46:19.998Z</time></trkpt><trkpt lat="43.57450020185481" lon="12.037410088096328"><ele>358.1666666666667</ele><time>2026-04-12T09:46:21Z</time></trkpt><trkpt lat="43.57449986514344" lon="12.03730219635654"><ele>359.0</ele><time>2026-04-12T09:46:22Z</time></trkpt><trkpt lat="43.57449827864658" lon="12.037197073744489"><ele>359.2</ele><time>2026-04-12T09:46:23Z</time></trkpt><trkpt lat="43.57448503671265" lon="12.037048729287324"><ele>359.4</ele><time>2026-04-12T09:46:25Z</time></trkpt><trkpt lat="43.57451014060703" lon="12.036964028544123"><ele>359.6</ele><time>2026-04-12T09:46:27Z</time></trkpt><trkpt lat="43.574623030708956" lon="12.03691033815895"><ele>359.8</ele><time>2026-04-12T09:46:29Z</time></trkpt><trkpt lat="43.57470855129375" lon="12.036881136190628"><ele>360.0</ele><time>2026-04-12T09:46:30Z</time></trkpt><trkpt lat="43.574810887034026" lon="12.036864779438865"><ele>360.0</ele><time>2026-04-12T09:46:31Z</time></trkpt><trkpt lat="43.57492138425696" lon="12.036839389544218"><ele>360.0</ele><time>2026-04-12T09:46:32Z</time></trkpt><trkpt lat="43.57503507587987" lon="12.03680614962527"><ele>360.0</ele><time>2026-04-12T09:46:33Z</time></trkpt><trkpt lat="43.57514707656713" lon="12.036770405774808"><ele>360.0</ele><time>2026-04-12T09:46:34Z</time></trkpt><trkpt lat="43.57526596533242" lon="12.036732653973527"><ele>360.0</ele><time>2026-04-12T09:46:35Z</time></trkpt><trkpt lat="43.57538798468964" lon="12.036693028871893"><ele>360.0</ele><time>2026-04-12T09:46:36Z</time></trkpt><trkpt lat="43.5755126667602" lon="12.03665334947332"><ele>360.0</ele><time>2026-04-12T09:46:37Z</time></trkpt><trkpt lat="43.57564249876235" lon="12.03661838503004"><ele>360.0</ele><time>2026-04-12T09:46:38Z</time></trkpt><trkpt lat="43.5757660022671" lon="12.036582483946912"><ele>360.2</ele><time>2026-04-12T09:46:39Z</time></trkpt><trkpt lat="43.57587853102455" lon="12.036551147674762"><ele>360.4</ele><time>2026-04-12T09:46:40Z</time></trkpt><trkpt lat="43.57597988721633" lon="12.036524741496784"><ele>360.6</ele><time>2026-04-12T09:46:41Z</time></trkpt><trkpt lat="43.576064795272046" lon="12.036502464792584"><ele>360.8</ele><time>2026-04-12T09:46:42Z</time></trkpt><trkpt lat="43.57613489833835" lon="12.036501942123463"><ele>361.0</ele><time>2026-04-12T09:46:43Z</time></trkpt><trkpt lat="43.5762479646558" lon="12.036506621129877"><ele>361.0</ele><time>2026-04-12T09:46:45Z</time></trkpt><trkpt lat="43.5762826094764" lon="12.0364295682331"><ele>361.0</ele><time>2026-04-12T09:46:50Z</time></trkpt><trkpt lat="43.576177201898375" lon="12.036380380511519"><ele>361.0</ele><time>2026-04-12T09:51:41.999Z</time></trkpt><trkpt lat="43.576113034972906" lon="12.036417591446995"><ele>361.0</ele><time>2026-04-12T09:51:42.999Z</time></trkpt><trkpt lat="43.57604247099202" lon="12.036455506824963"><ele>361.0</ele><time>2026-04-12T09:51:43.999Z</time></trkpt><trkpt lat="43.57596856977336" lon="12.036479921503966"><ele>361.0</ele><time>2026-04-12T09:51:44.999Z</time></trkpt><trkpt lat="43.57588723556189" lon="12.036504963490318"><ele>360.8</ele><time>2026-04-12T09:51:45.999Z</time></trkpt><trkpt lat="43.5758013209934" lon="12.03653095678538"><ele>360.6</ele><time>2026-04-12T09:51:46.999Z</time></trkpt><trkpt lat="43.57569966655626" lon="12.036562919352432"><ele>360.4</ele><time>2026-04-12T09:51:47.999Z</time></trkpt><trkpt lat="43.57560421153944" lon="12.036591477663768"><ele>360.2</ele><time>2026-04-12T09:51:48.999Z</time></trkpt><trkpt lat="43.57551160548949" lon="12.03661529523418"><ele>360.0</ele><time>2026-04-12T09:51:49.999Z</time></trkpt><trkpt lat="43.57541490291672" lon="12.036638769499623"><ele>360.0</ele><time>2026-04-12T09:51:50.999Z</time></trkpt><trkpt lat="43.57532695010853" lon="12.036667742833062"><ele>360.0</ele><time>2026-04-12T09:51:51.999Z</time></trkpt><trkpt lat="43.575233730184095" lon="12.036702148901972"><ele>360.0</ele><time>2026-04-12T09:51:52.999Z</time></trkpt><trkpt lat="43.57513572420637" lon="12.036728096289703"><ele>360.0</ele><time>2026-04-12T09:51:53.999Z</time></trkpt><trkpt lat="43.575028457527736" lon="12.036757592416835"><ele>360.0</ele><time>2026-04-12T09:51:54.999Z</time></trkpt><trkpt lat="43.5749262533023" lon="12.036789381551166"><ele>360.0</ele><time>2026-04-12T09:51:55.999Z</time></trkpt><trkpt lat="43.574832476906" lon="12.03681675850108"><ele>360.0</ele><time>2026-04-12T09:51:56.999Z</time></trkpt><trkpt lat="43.57473227992902" lon="12.036846663460643"><ele>360.0</ele><time>2026-04-12T09:51:57.999Z</time></trkpt><trkpt lat="43.57462856281586" lon="12.03688006051844"><ele>360.0</ele><time>2026-04-12T09:51:58.999Z</time></trkpt><trkpt lat="43.57452242774809" lon="12.036905792125328"><ele>360.0</ele><time>2026-04-12T09:51:59.999Z</time></trkpt><trkpt lat="43.574413525369856" lon="12.03693375414699"><ele>361.0</ele><time>2026-04-12T09:52:00.999Z</time></trkpt><trkpt lat="43.574301405589594" lon="12.036964575653544"><ele>362.0</ele><time>2026-04-12T09:52:01.999Z</time></trkpt><trkpt lat="43.57418524169587" lon="12.036998390685216"><ele>363.0</ele><time>2026-04-12T09:52:02.999Z</time></trkpt><trkpt lat="43.57406623057246" lon="12.03702935659891"><ele>364.0</ele><time>2026-04-12T09:52:03.999Z</time></trkpt><trkpt lat="43.57394342686329" lon="12.037068749564543"><ele>364.0</ele><time>2026-04-12T09:52:04.999Z</time></trkpt><trkpt lat="43.573821794501505" lon="12.037106369433799"><ele>364.0</ele><time>2026-04-12T09:52:05.999Z</time></trkpt><trkpt lat="43.5737000933544" lon="12.037141532686132"><ele>364.0</ele><time>2026-04-12T09:52:06.999Z</time></trkpt><trkpt lat="43.573573037337724" lon="12.0371783824029"><ele>364.0</ele><time>2026-04-12T09:52:07.999Z</time></trkpt><trkpt lat="43.57344504766174" lon="12.037220113538998"><ele>364.0</ele><time>2026-04-12T09:52:08.999Z</time></trkpt><trkpt lat="43.57331416639981" lon="12.037264943961988"><ele>364.0</ele><time>2026-04-12T09:52:09.999Z</time></trkpt><trkpt lat="43.57318278629115" lon="12.03731066245237"><ele>364.0</ele><time>2026-04-12T09:52:10.999Z</time></trkpt><trkpt lat="43.57305361558921" lon="12.03735913948546"><ele>364.0</ele><time>2026-04-12T09:52:11.999Z</time></trkpt><trkpt lat="43.572930034925236" lon="12.037422644908851"><ele>363.5</ele><time>2026-04-12T09:52:12.999Z</time></trkpt><trkpt lat="43.572808653551874" lon="12.037496025894212"><ele>363.0</ele><time>2026-04-12T09:52:13.999Z</time></trkpt><trkpt lat="43.57268807490965" lon="12.037573301805873"><ele>362.5</ele><time>2026-04-12T09:52:14.999Z</time></trkpt><trkpt lat="43.57257209474011" lon="12.037655051430502"><ele>362.0</ele><time>2026-04-12T09:52:15.999Z</time></trkpt><trkpt lat="43.57245839329507" lon="12.037742583630264"><ele>362.0</ele><time>2026-04-12T09:52:16.999Z</time></trkpt><trkpt lat="43.57234331996" lon="12.037835320810057"><ele>362.0</ele><time>2026-04-12T09:52:17.998Z</time></trkpt><trkpt lat="43.572226632233885" lon="12.03793161700293"><ele>362.0</ele><time>2026-04-12T09:52:18.998Z</time></trkpt><trkpt lat="43.572109751353764" lon="12.03802879237829"><ele>362.0</ele><time>2026-04-12T09:52:19.998Z</time></trkpt><trkpt lat="43.571996016781924" lon="12.038126370150751"><ele>363.0</ele><time>2026-04-12T09:52:20.998Z</time></trkpt><trkpt lat="43.57189666931396" lon="12.038207478086923"><ele>364.0</ele><time>2026-04-12T09:52:21.998Z</time></trkpt><trkpt lat="43.571796249807655" lon="12.038273130980642"><ele>365.0</ele><time>2026-04-12T09:52:22.998Z</time></trkpt><trkpt lat="43.571680579850586" lon="12.038309928626344"><ele>366.0</ele><time>2026-04-12T09:52:23.998Z</time></trkpt><trkpt lat="43.571564030396594" lon="12.038331062138031"><ele>364.0</ele><time>2026-04-12T09:52:24.998Z</time></trkpt><trkpt lat="43.57143027640616" lon="12.038346817440805"><ele>362.0</ele><time>2026-04-12T09:52:25.998Z</time></trkpt><trkpt lat="43.571297051098156" lon="12.038378857867933"><ele>360.0</ele><time>2026-04-12T09:52:26.998Z</time></trkpt><trkpt lat="43.57116209605268" lon="12.03841138730992"><ele>358.0</ele><time>2026-04-12T09:52:27.998Z</time></trkpt><trkpt lat="43.5710169913456" lon="12.038444988273579"><ele>358.0</ele><time>2026-04-12T09:52:28.998Z</time></trkpt><trkpt lat="43.57086906416962" lon="12.038481845345464"><ele>358.0</ele><time>2026-04-12T09:52:29.998Z</time></trkpt><trkpt lat="43.57072063604045" lon="12.038513697511702"><ele>358.0</ele><time>2026-04-12T09:52:30.998Z</time></trkpt><trkpt lat="43.57056899882921" lon="12.03854221511116"><ele>358.0</ele><time>2026-04-12T09:52:31.998Z</time></trkpt><trkpt lat="43.570424475121044" lon="12.038569780486359"><ele>358.0</ele><time>2026-04-12T09:52:32.998Z</time></trkpt><trkpt lat="43.57027202283733" lon="12.03860780262179"><ele>358.0</ele><time>2026-04-12T09:52:33.998Z</time></trkpt><trkpt lat="43.57012988850118" lon="12.038639662992555"><ele>358.0</ele><time>2026-04-12T09:52:34.998Z</time></trkpt><trkpt lat="43.56999010458572" lon="12.03867311535364"><ele>358.0</ele><time>2026-04-12T09:52:35.998Z</time></trkpt><trkpt lat="43.569851586351035" lon="12.038712018523675"><ele>358.0</ele><time>2026-04-12T09:52:36.998Z</time></trkpt><trkpt lat="43.56971200659712" lon="12.038757239475881"><ele>358.0</ele><time>2026-04-12T09:52:37.998Z</time></trkpt><trkpt lat="43.56956907436591" lon="12.038804917152035"><ele>358.0</ele><time>2026-04-12T09:52:39Z</time></trkpt><trkpt lat="43.56943007904108" lon="12.038854500474606"><ele>358.75</ele><time>2026-04-12T09:52:40Z</time></trkpt><trkpt lat="43.56929297692218" lon="12.038902345773762"><ele>359.5</ele><time>2026-04-12T09:52:41Z</time></trkpt><trkpt lat="43.56915980167016" lon="12.038950035473713"><ele>360.25</ele><time>2026-04-12T09:52:42Z</time></trkpt><trkpt lat="43.56902000391177" lon="12.039001377839973"><ele>361.0</ele><time>2026-04-12T09:52:43Z</time></trkpt><trkpt lat="43.56887532385529" lon="12.03905574119649"><ele>361.0</ele><time>2026-04-12T09:52:44Z</time></trkpt><trkpt lat="43.56873083074847" lon="12.039109591850044"><ele>361.0</ele><time>2026-04-12T09:52:45Z</time></trkpt><trkpt lat="43.56858773174199" lon="12.039177815971053"><ele>361.0</ele><time>2026-04-12T09:52:46Z</time></trkpt><trkpt lat="43.56844482579402" lon="12.039256611300027"><ele>360.0</ele><time>2026-04-12T09:52:47Z</time></trkpt><trkpt lat="43.568307802957534" lon="12.039334193923956"><ele>359.0</ele><time>2026-04-12T09:52:48Z</time></trkpt><trkpt lat="43.56817667704483" lon="12.039422494271562"><ele>358.0</ele><time>2026-04-12T09:52:49Z</time></trkpt><trkpt lat="43.5680421448088" lon="12.039516218772068"><ele>357.0</ele><time>2026-04-12T09:52:50Z</time></trkpt><trkpt lat="43.56791317492969" lon="12.039609521119237"><ele>359.3333333333333</ele><time>2026-04-12T09:52:51Z</time></trkpt><trkpt lat="43.56778313287879" lon="12.039713768182866"><ele>361.66666666666663</ele><time>2026-04-12T09:52:52Z</time></trkpt><trkpt lat="43.5676507395849" lon="12.039819113471237"><ele>364.0</ele><time>2026-04-12T09:52:53Z</time></trkpt><trkpt lat="43.567518211514255" lon="12.039927376309357"><ele>361.0</ele><time>2026-04-12T09:52:54Z</time></trkpt><trkpt lat="43.56738140010613" lon="12.040032336955296"><ele>358.0</ele><time>2026-04-12T09:52:55Z</time></trkpt><trkpt lat="43.56724680119943" lon="12.040134605079349"><ele>355.0</ele><time>2026-04-12T09:52:56Z</time></trkpt><trkpt lat="43.56710910541218" lon="12.040244774660518"><ele>357.66666666666663</ele><time>2026-04-12T09:52:57Z</time></trkpt><trkpt lat="43.566979030666246" lon="12.040352339716275"><ele>360.3333333333333</ele><time>2026-04-12T09:52:58Z</time></trkpt><trkpt lat="43.56684396693994" lon="12.04045267266884"><ele>363.0</ele><time>2026-04-12T09:52:59Z</time></trkpt><trkpt lat="43.56670849120273" lon="12.040552815349836"><ele>363.0</ele><time>2026-04-12T09:53:00Z</time></trkpt><trkpt lat="43.56657286562089" lon="12.0406536136301"><ele>363.0</ele><time>2026-04-12T09:53:01Z</time></trkpt><trkpt lat="43.56643356437157" lon="12.040752239278985"><ele>363.0</ele><time>2026-04-12T09:53:02Z</time></trkpt><trkpt lat="43.566293800874824" lon="12.040865996313478"><ele>360.6666666666667</ele><time>2026-04-12T09:53:03Z</time></trkpt><trkpt lat="43.566156835537676" lon="12.040971943287428"><ele>358.33333333333337</ele><time>2026-04-12T09:53:04Z</time></trkpt><trkpt lat="43.56601979680414" lon="12.041080489203361"><ele>356.0</ele><time>2026-04-12T09:53:05Z</time></trkpt><trkpt lat="43.56587639618789" lon="12.041190843217136"><ele>356.0</ele><time>2026-04-12T09:53:06Z</time></trkpt><trkpt lat="43.56573410939165" lon="12.041296562183204"><ele>356.0</ele><time>2026-04-12T09:53:07Z</time></trkpt><trkpt lat="43.56559317117682" lon="12.041403362911918"><ele>356.0</ele><time>2026-04-12T09:53:08Z</time></trkpt><trkpt lat="43.565457224287094" lon="12.041506974943148"><ele>357.0</ele><time>2026-04-12T09:53:09Z</time></trkpt><trkpt lat="43.56533267202434" lon="12.041605379585445"><ele>358.0</ele><time>2026-04-12T09:53:10Z</time></trkpt><trkpt lat="43.565196383106894" lon="12.041717646832533"><ele>359.0</ele><time>2026-04-12T09:53:11Z</time></trkpt><trkpt lat="43.56506196963265" lon="12.041840802778115"><ele>357.0</ele><time>2026-04-12T09:53:12Z</time></trkpt><trkpt lat="43.5649381691466" lon="12.041970892741237"><ele>355.0</ele><time>2026-04-12T09:53:13Z</time></trkpt><trkpt lat="43.5648269482639" lon="12.042107751164682"><ele>353.0</ele><time>2026-04-12T09:53:14Z</time></trkpt><trkpt lat="43.56470898241283" lon="12.042246839492304"><ele>353.0</ele><time>2026-04-12T09:53:15Z</time></trkpt><trkpt lat="43.56459194577286" lon="12.04238273638348"><ele>353.0</ele><time>2026-04-12T09:53:15.999Z</time></trkpt><trkpt lat="43.56447669002357" lon="12.04252500682281"><ele>353.0</ele><time>2026-04-12T09:53:16.999Z</time></trkpt><trkpt lat="43.56435950662333" lon="12.042660328261869"><ele>353.75</ele><time>2026-04-12T09:53:17.999Z</time></trkpt><trkpt lat="43.56424789929448" lon="12.042785259016025"><ele>354.5</ele><time>2026-04-12T09:53:18.999Z</time></trkpt><trkpt lat="43.56413284092346" lon="12.04292715612515"><ele>355.25</ele><time>2026-04-12T09:53:19.999Z</time></trkpt><trkpt lat="43.56402148601074" lon="12.043068400042857"><ele>356.0</ele><time>2026-04-12T09:53:20.999Z</time></trkpt><trkpt lat="43.56390817007831" lon="12.043225662304765"><ele>357.33333333333337</ele><time>2026-04-12T09:53:21.999Z</time></trkpt><trkpt lat="43.56380237518944" lon="12.04338124167697"><ele>358.6666666666667</ele><time>2026-04-12T09:53:22.999Z</time></trkpt><trkpt lat="43.56369417572328" lon="12.043552482422118"><ele>360.0</ele><time>2026-04-12T09:53:23.999Z</time></trkpt><trkpt lat="43.56358948101779" lon="12.043720706334708"><ele>360.0</ele><time>2026-04-12T09:53:24.999Z</time></trkpt><trkpt lat="43.56348909903252" lon="12.043893414200996"><ele>360.0</ele><time>2026-04-12T09:53:25.999Z</time></trkpt><trkpt lat="43.56338231323275" lon="12.04406759104209"><ele>360.0</ele><time>2026-04-12T09:53:26.999Z</time></trkpt><trkpt lat="43.56328149309761" lon="12.044237456403344"><ele>356.6666666666667</ele><time>2026-04-12T09:53:27.999Z</time></trkpt><trkpt lat="43.563180072324535" lon="12.044414373372028"><ele>353.33333333333337</ele><time>2026-04-12T09:53:28.999Z</time></trkpt><trkpt lat="43.563081358761345" lon="12.04458732939299"><ele>350.0</ele><time>2026-04-12T09:53:29.999Z</time></trkpt><trkpt lat="43.56298290385502" lon="12.044764570693626"><ele>350.0</ele><time>2026-04-12T09:53:30.999Z</time></trkpt><trkpt lat="43.56288869061734" lon="12.044932195999046"><ele>350.0</ele><time>2026-04-12T09:53:31.999Z</time></trkpt><trkpt lat="43.562794371450536" lon="12.04509512285026"><ele>350.0</ele><time>2026-04-12T09:53:32.999Z</time></trkpt><trkpt lat="43.562689438646004" lon="12.045261891994864"><ele>352.0</ele><time>2026-04-12T09:53:33.999Z</time></trkpt><trkpt lat="43.56258192802705" lon="12.045419899910588"><ele>354.0</ele><time>2026-04-12T09:53:34.999Z</time></trkpt><trkpt lat="43.56247395781168" lon="12.045571558294466"><ele>356.0</ele><time>2026-04-12T09:53:35.999Z</time></trkpt><trkpt lat="43.562357527317054" lon="12.045710567166823"><ele>356.33333333333337</ele><time>2026-04-12T09:53:36.999Z</time></trkpt><trkpt lat="43.562242377609294" lon="12.045851035987111"><ele>356.6666666666667</ele><time>2026-04-12T09:53:37.999Z</time></trkpt><trkpt lat="43.562121092060316" lon="12.04598520067831"><ele>357.0</ele><time>2026-04-12T09:53:38.999Z</time></trkpt><trkpt lat="43.56199882130619" lon="12.046121549863773"><ele>357.0</ele><time>2026-04-12T09:53:39.999Z</time></trkpt><trkpt lat="43.5618738835222" lon="12.046260393758164"><ele>357.0</ele><time>2026-04-12T09:53:40.999Z</time></trkpt><trkpt lat="43.56174747727757" lon="12.046395157018031"><ele>357.0</ele><time>2026-04-12T09:53:41.999Z</time></trkpt><trkpt lat="43.56162278565075" lon="12.046522116101725"><ele>354.3333333333333</ele><time>2026-04-12T09:53:42.999Z</time></trkpt><trkpt lat="43.56148616056646" lon="12.046652755025027"><ele>351.66666666666663</ele><time>2026-04-12T09:53:43.999Z</time></trkpt><trkpt lat="43.56135400231403" lon="12.046776476687683"><ele>349.0</ele><time>2026-04-12T09:53:44.999Z</time></trkpt><trkpt lat="43.561216639792654" lon="12.04689783009875"><ele>350.0</ele><time>2026-04-12T09:53:45.999Z</time></trkpt><trkpt lat="43.56108130583405" lon="12.047011138255488"><ele>351.0</ele><time>2026-04-12T09:53:46.999Z</time></trkpt><trkpt lat="43.560943224084276" lon="12.047120412775813"><ele>352.0</ele><time>2026-04-12T09:53:47.999Z</time></trkpt><trkpt lat="43.56082606553718" lon="12.047202950542573"><ele>353.0</ele><time>2026-04-12T09:53:48.999Z</time></trkpt><trkpt lat="43.56072485779148" lon="12.047270490010135"><ele>353.0</ele><time>2026-04-12T09:53:49.999Z</time></trkpt><trkpt lat="43.56063604176288" lon="12.047337662468061"><ele>353.0</ele><time>2026-04-12T09:53:50.999Z</time></trkpt><trkpt lat="43.56054550545423" lon="12.04739781673916"><ele>353.0</ele><time>2026-04-12T09:53:51.999Z</time></trkpt><trkpt lat="43.56046555820355" lon="12.04745237260481"><ele>353.0</ele><time>2026-04-12T09:53:52.999Z</time></trkpt><trkpt lat="43.560395088757986" lon="12.047501750782587"><ele>353.0</ele><time>2026-04-12T09:53:53.999Z</time></trkpt><trkpt lat="43.56031860310682" lon="12.047550257923271"><ele>352.6666666666667</ele><time>2026-04-12T09:53:54.999Z</time></trkpt><trkpt lat="43.56023399766306" lon="12.047611856425073"><ele>352.33333333333337</ele><time>2026-04-12T09:53:55.999Z</time></trkpt><trkpt lat="43.56016213217208" lon="12.047670471247475"><ele>352.0</ele><time>2026-04-12T09:53:56.999Z</time></trkpt><trkpt lat="43.560096409366466" lon="12.047721632308777"><ele>351.6666666666667</ele><time>2026-04-12T09:53:57.999Z</time></trkpt><trkpt lat="43.560015501274094" lon="12.047771570731605"><ele>351.3333333333333</ele><time>2026-04-12T09:53:58.999Z</time></trkpt><trkpt lat="43.559919819980955" lon="12.047832580956404"><ele>351.0</ele><time>2026-04-12T09:53:59.999Z</time></trkpt><trkpt lat="43.55981374516865" lon="12.047905335398303"><ele>351.0</ele><time>2026-04-12T09:54:00.999Z</time></trkpt><trkpt lat="43.55970099533257" lon="12.0479828173358"><ele>351.0</ele><time>2026-04-12T09:54:01.999Z</time></trkpt><trkpt lat="43.559586112910914" lon="12.048063953141547"><ele>351.0</ele><time>2026-04-12T09:54:02.999Z</time></trkpt><trkpt lat="43.5594668940595" lon="12.04814911578907"><ele>351.0</ele><time>2026-04-12T09:54:03.999Z</time></trkpt><trkpt lat="43.559351877871165" lon="12.048227140204386"><ele>350.25</ele><time>2026-04-12T09:54:04.999Z</time></trkpt><trkpt lat="43.55922900605024" lon="12.048312247367225"><ele>349.5</ele><time>2026-04-12T09:54:05.999Z</time></trkpt><trkpt lat="43.559102777549064" lon="12.048400606210102"><ele>348.75</ele><time>2026-04-12T09:54:06.999Z</time></trkpt><trkpt lat="43.558980098981166" lon="12.048486425913923"><ele>348.0</ele><time>2026-04-12T09:54:07.999Z</time></trkpt><trkpt lat="43.55886181906643" lon="12.04856856313397"><ele>348.0</ele><time>2026-04-12T09:54:08.999Z</time></trkpt><trkpt lat="43.55874204059547" lon="12.048651102433508"><ele>348.0</ele><time>2026-04-12T09:54:09.999Z</time></trkpt><trkpt lat="43.558623245276976" lon="12.048734260451019"><ele>348.0</ele><time>2026-04-12T09:54:10.999Z</time></trkpt><trkpt lat="43.55850186363656" lon="12.04882340397683"><ele>348.0</ele><time>2026-04-12T09:54:11.999Z</time></trkpt><trkpt lat="43.55837638884083" lon="12.04891429906411"><ele>347.0</ele><time>2026-04-12T09:54:12.999Z</time></trkpt><trkpt lat="43.55825369995217" lon="12.048992186293479"><ele>346.0</ele><time>2026-04-12T09:54:13.999Z</time></trkpt><trkpt lat="43.558126595343104" lon="12.049077565254532"><ele>345.0</ele><time>2026-04-12T09:54:14.999Z</time></trkpt><trkpt lat="43.558005058203435" lon="12.049163840861963"><ele>344.0</ele><time>2026-04-12T09:54:15.999Z</time></trkpt><trkpt lat="43.55789352748023" lon="12.049243303999749"><ele>344.5</ele><time>2026-04-12T09:54:16.999Z</time></trkpt><trkpt lat="43.55779512328827" lon="12.049308955466527"><ele>345.0</ele><time>2026-04-12T09:54:17.999Z</time></trkpt><trkpt lat="43.557711150659955" lon="12.049368722161367"><ele>345.5</ele><time>2026-04-12T09:54:18.998Z</time></trkpt><trkpt lat="43.55763967520082" lon="12.049420834396903"><ele>346.0</ele><time>2026-04-12T09:54:19.998Z</time></trkpt><trkpt lat="43.557569196193846" lon="12.049466895384324"><ele>346.5</ele><time>2026-04-12T09:54:20.998Z</time></trkpt><trkpt lat="43.557511212977786" lon="12.049504138703567"><ele>347.0</ele><time>2026-04-12T09:54:21.998Z</time></trkpt><trkpt lat="43.557420387337324" lon="12.049573137178019"><ele>347.0</ele><time>2026-04-12T09:54:23.998Z</time></trkpt><trkpt lat="43.55735676165175" lon="12.049613213271181"><ele>347.0</ele><time>2026-04-12T09:54:25.998Z</time></trkpt><trkpt lat="43.55731019695562" lon="12.049548381536324"><ele>347.0</ele><time>2026-04-12T09:54:29.998Z</time></trkpt><trkpt lat="43.55725977160426" lon="12.04949621160525"><ele>347.0</ele><time>2026-04-12T09:55:04Z</time></trkpt><trkpt lat="43.55732273728745" lon="12.049562611758036"><ele>347.0</ele><time>2026-04-12T09:55:12Z</time></trkpt><trkpt lat="43.557395420893734" lon="12.049605622015045"><ele>347.0</ele><time>2026-04-12T09:55:15Z</time></trkpt><trkpt lat="43.557562679561244" lon="12.049518123636068"><ele>347.0</ele><time>2026-04-12T09:55:17Z</time></trkpt><trkpt lat="43.55765898059499" lon="12.04945121465006"><ele>347.0</ele><time>2026-04-12T09:55:18Z</time></trkpt><trkpt lat="43.55775910669235" lon="12.049381592847745"><ele>347.0</ele><time>2026-04-12T09:55:19Z</time></trkpt><trkpt lat="43.557879831694194" lon="12.049295685041558"><ele>347.0</ele><time>2026-04-12T09:55:20Z</time></trkpt><trkpt lat="43.55800794936054" lon="12.049205707794572"><ele>348.5</ele><time>2026-04-12T09:55:21Z</time></trkpt><trkpt lat="43.5581305630112" lon="12.04911989876558"><ele>350.0</ele><time>2026-04-12T09:55:22Z</time></trkpt><trkpt lat="43.55825132366577" lon="12.049033705782591"><ele>351.5</ele><time>2026-04-12T09:55:23Z</time></trkpt><trkpt lat="43.55837665728323" lon="12.048945112093888"><ele>353.0</ele><time>2026-04-12T09:55:23.999Z</time></trkpt><trkpt lat="43.558503284240466" lon="12.048854671103994"><ele>353.0</ele><time>2026-04-12T09:55:24.999Z</time></trkpt><trkpt lat="43.55863147417267" lon="12.048766062485695"><ele>353.0</ele><time>2026-04-12T09:55:25.999Z</time></trkpt><trkpt lat="43.55876163675913" lon="12.048674523758436"><ele>353.0</ele><time>2026-04-12T09:55:26.999Z</time></trkpt><trkpt lat="43.55888949362582" lon="12.04858739810399"><ele>353.0</ele><time>2026-04-12T09:55:27.999Z</time></trkpt><trkpt lat="43.559017014541794" lon="12.048491079620844"><ele>351.75</ele><time>2026-04-12T09:55:28.999Z</time></trkpt><trkpt lat="43.55914695402359" lon="12.048397365653583"><ele>350.5</ele><time>2026-04-12T09:55:29.999Z</time></trkpt><trkpt lat="43.559273902540696" lon="12.048310902008176"><ele>349.25</ele><time>2026-04-12T09:55:30.999Z</time></trkpt><trkpt lat="43.55940334603209" lon="12.048221060539747"><ele>348.0</ele><time>2026-04-12T09:55:31.999Z</time></trkpt><trkpt lat="43.55952720124377" lon="12.048139102683106"><ele>348.75</ele><time>2026-04-12T09:55:32.999Z</time></trkpt><trkpt lat="43.55965346494871" lon="12.048050762946339"><ele>349.5</ele><time>2026-04-12T09:55:33.999Z</time></trkpt><trkpt lat="43.55976728224137" lon="12.047969423224066"><ele>350.25</ele><time>2026-04-12T09:55:34.999Z</time></trkpt><trkpt lat="43.55987326802314" lon="12.047893933874636"><ele>351.0</ele><time>2026-04-12T09:55:35.999Z</time></trkpt><trkpt lat="43.55997179936402" lon="12.047825132734934"><ele>351.0</ele><time>2026-04-12T09:55:36.999Z</time></trkpt><trkpt lat="43.56006476915176" lon="12.047761425516681"><ele>351.0</ele><time>2026-04-12T09:55:37.999Z</time></trkpt><trkpt lat="43.56015886265799" lon="12.047695679216808"><ele>351.0</ele><time>2026-04-12T09:55:38.999Z</time></trkpt><trkpt lat="43.56024330643749" lon="12.047626034851094"><ele>351.0</ele><time>2026-04-12T09:55:39.999Z</time></trkpt><trkpt lat="43.56030150639116" lon="12.04753725969615"><ele>351.0</ele><time>2026-04-12T09:55:40.999Z</time></trkpt><trkpt lat="43.560331260338565" lon="12.047424728214027"><ele>352.5</ele><time>2026-04-12T09:55:41.999Z</time></trkpt><trkpt lat="43.560342501414624" lon="12.047289305043314"><ele>354.0</ele><time>2026-04-12T09:55:42.999Z</time></trkpt><trkpt lat="43.560334932318646" lon="12.047133950481443"><ele>355.5</ele><time>2026-04-12T09:55:43.999Z</time></trkpt><trkpt lat="43.56032022262067" lon="12.046967176926248"><ele>357.0</ele><time>2026-04-12T09:55:44.999Z</time></trkpt><trkpt lat="43.560288230612876" lon="12.046794364431335"><ele>357.0</ele><time>2026-04-12T09:55:45.999Z</time></trkpt><trkpt lat="43.560247004177704" lon="12.046649242494082"><ele>357.0</ele><time>2026-04-12T09:55:46.999Z</time></trkpt><trkpt lat="43.560209235829404" lon="12.046542368431531"><ele>357.0</ele><time>2026-04-12T09:55:47.999Z</time></trkpt><trkpt lat="43.56018108338376" lon="12.0464543679908"><ele>357.0</ele><time>2026-04-12T09:55:48.999Z</time></trkpt><trkpt lat="43.560150248224616" lon="12.046322228396287"><ele>357.0</ele><time>2026-04-12T09:55:50.999Z</time></trkpt><trkpt lat="43.56015671824149" lon="12.046203533642936"><ele>357.0</ele><time>2026-04-12T09:55:52.999Z</time></trkpt><trkpt lat="43.56022657772379" lon="12.046128802404137"><ele>357.0</ele><time>2026-04-12T09:55:54.999Z</time></trkpt><trkpt lat="43.560331317139074" lon="12.046110989763925"><ele>357.0</ele><time>2026-04-12T09:55:56.999Z</time></trkpt><trkpt lat="43.56039993324788" lon="12.04608783176439"><ele>357.0</ele><time>2026-04-12T09:55:57.999Z</time></trkpt><trkpt lat="43.56048387414542" lon="12.0460614262498"><ele>357.0</ele><time>2026-04-12T09:55:58.999Z</time></trkpt><trkpt lat="43.56057809005714" lon="12.046020804456848"><ele>357.0</ele><time>2026-04-12T09:55:59.999Z</time></trkpt><trkpt lat="43.56066761283126" lon="12.04597935523486"><ele>357.0</ele><time>2026-04-12T09:56:00.999Z</time></trkpt><trkpt lat="43.56075721662721" lon="12.045947269413064"><ele>357.0</ele><time>2026-04-12T09:56:01.999Z</time></trkpt><trkpt lat="43.56085147052318" lon="12.045916807860854"><ele>357.0</ele><time>2026-04-12T09:56:02.999Z</time></trkpt><trkpt lat="43.560946075073126" lon="12.045890082392566"><ele>357.0</ele><time>2026-04-12T09:56:03.999Z</time></trkpt><trkpt lat="43.56103837657597" lon="12.045857382642128"><ele>357.0</ele><time>2026-04-12T09:56:04.999Z</time></trkpt><trkpt lat="43.56113051300676" lon="12.045821526512167"><ele>358.40000000000003</ele><time>2026-04-12T09:56:05.999Z</time></trkpt><trkpt lat="43.56121659338212" lon="12.045764347751803"><ele>359.8</ele><time>2026-04-12T09:56:06.999Z</time></trkpt><trkpt lat="43.561291613276126" lon="12.045667545447035"><ele>361.2</ele><time>2026-04-12T09:56:07.999Z</time></trkpt><trkpt lat="43.56132874791503" lon="12.045548293330857"><ele>362.6</ele><time>2026-04-12T09:56:08.999Z</time></trkpt><trkpt lat="43.561354749727016" lon="12.045411812277303"><ele>364.0</ele><time>2026-04-12T09:56:09.999Z</time></trkpt><trkpt lat="43.561382105366796" lon="12.045266095865685"><ele>364.0</ele><time>2026-04-12T09:56:10.999Z</time></trkpt><trkpt lat="43.56141103197535" lon="12.045122166633906"><ele>364.0</ele><time>2026-04-12T09:56:11.999Z</time></trkpt><trkpt lat="43.56142308612312" lon="12.044969373622472"><ele>364.0</ele><time>2026-04-12T09:56:12.999Z</time></trkpt><trkpt lat="43.56139942790318" lon="12.044809652426418"><ele>364.0</ele><time>2026-04-12T09:56:13.999Z</time></trkpt><trkpt lat="43.56137994397805" lon="12.04466916206307"><ele>364.0</ele><time>2026-04-12T09:56:14.999Z</time></trkpt><trkpt lat="43.56137595621441" lon="12.044544885264376"><ele>364.79999999999995</ele><time>2026-04-12T09:56:15.999Z</time></trkpt><trkpt lat="43.56138842887026" lon="12.044415307607451"><ele>365.59999999999997</ele><time>2026-04-12T09:56:16.999Z</time></trkpt><trkpt lat="43.561430767173654" lon="12.044285190396398"><ele>366.4</ele><time>2026-04-12T09:56:17.999Z</time></trkpt><trkpt lat="43.56149362669514" lon="12.044163141666811"><ele>367.2</ele><time>2026-04-12T09:56:18.999Z</time></trkpt><trkpt lat="43.56157002872858" lon="12.044046529963277"><ele>368.0</ele><time>2026-04-12T09:56:19.999Z</time></trkpt><trkpt lat="43.5616362034259" lon="12.043935583903364"><ele>369.0</ele><time>2026-04-12T09:56:20.999Z</time></trkpt><trkpt lat="43.56170133819927" lon="12.04381602718953"><ele>370.0</ele><time>2026-04-12T09:56:21.999Z</time></trkpt><trkpt lat="43.561764861468255" lon="12.043699800686118"><ele>371.0</ele><time>2026-04-12T09:56:22.999Z</time></trkpt><trkpt lat="43.56183497224222" lon="12.043581176474309"><ele>372.0</ele><time>2026-04-12T09:56:23.999Z</time></trkpt><trkpt lat="43.56191468592605" lon="12.043468256179535"><ele>373.0</ele><time>2026-04-12T09:56:24.999Z</time></trkpt><trkpt lat="43.56201224333141" lon="12.043377131899707"><ele>371.75</ele><time>2026-04-12T09:56:25.999Z</time></trkpt><trkpt lat="43.56212397942195" lon="12.043307148818277"><ele>370.5</ele><time>2026-04-12T09:56:26.999Z</time></trkpt><trkpt lat="43.56223658538593" lon="12.043235842886304"><ele>369.25</ele><time>2026-04-12T09:56:27.999Z</time></trkpt><trkpt lat="43.56234689643271" lon="12.043158741595603"><ele>368.0</ele><time>2026-04-12T09:56:28.999Z</time></trkpt><trkpt lat="43.56245673709312" lon="12.043076800089262"><ele>368.0</ele><time>2026-04-12T09:56:29.999Z</time></trkpt><trkpt lat="43.56256634658435" lon="12.04298939235903"><ele>368.0</ele><time>2026-04-12T09:56:30.999Z</time></trkpt><trkpt lat="43.56267682709126" lon="12.042908707700848"><ele>368.0</ele><time>2026-04-12T09:56:31.999Z</time></trkpt><trkpt lat="43.56278096709789" lon="12.042846259395256"><ele>368.0</ele><time>2026-04-12T09:56:32.998Z</time></trkpt><trkpt lat="43.56286816735762" lon="12.042782336260546"><ele>368.0</ele><time>2026-04-12T09:56:33.998Z</time></trkpt><trkpt lat="43.5629303553945" lon="12.04267323294109"><ele>368.0</ele><time>2026-04-12T09:56:34.998Z</time></trkpt><trkpt lat="43.562961480522674" lon="12.042531293805055"><ele>368.0</ele><time>2026-04-12T09:56:35.998Z</time></trkpt><trkpt lat="43.56298143871343" lon="12.04237725945979"><ele>368.0</ele><time>2026-04-12T09:56:36.998Z</time></trkpt><trkpt lat="43.56299572276673" lon="12.04221329690868"><ele>368.0</ele><time>2026-04-12T09:56:37.998Z</time></trkpt><trkpt lat="43.56302622322582" lon="12.042042130615338"><ele>369.25</ele><time>2026-04-12T09:56:38.998Z</time></trkpt><trkpt lat="43.563069200552754" lon="12.041867210588606"><ele>370.5</ele><time>2026-04-12T09:56:39.998Z</time></trkpt><trkpt lat="43.563114194710764" lon="12.041679195945662"><ele>371.75</ele><time>2026-04-12T09:56:40.998Z</time></trkpt><trkpt lat="43.56316321056869" lon="12.04154612318965"><ele>373.0</ele><time>2026-04-12T09:56:41.998Z</time></trkpt><trkpt lat="43.5632145160497" lon="12.041424126195622"><ele>373.66666666666663</ele><time>2026-04-12T09:56:42.998Z</time></trkpt><trkpt lat="43.56325524391842" lon="12.041322646816287"><ele>374.3333333333333</ele><time>2026-04-12T09:56:43.998Z</time></trkpt><trkpt lat="43.5632899842353" lon="12.041232279352652"><ele>375.0</ele><time>2026-04-12T09:56:44.998Z</time></trkpt><trkpt lat="43.56334946903659" lon="12.041109248664869"><ele>375.6666666666667</ele><time>2026-04-12T09:56:46.998Z</time></trkpt><trkpt lat="43.56338942258832" lon="12.041034596341119"><ele>376.33333333333337</ele><time>2026-04-12T09:56:47.998Z</time></trkpt><trkpt lat="43.56343177002503" lon="12.04095436374584"><ele>377.0</ele><time>2026-04-12T09:56:48.998Z</time></trkpt><trkpt lat="43.56348036489275" lon="12.040852263781737"><ele>376.83333333333337</ele><time>2026-04-12T09:56:49.998Z</time></trkpt><trkpt lat="43.56352869700882" lon="12.04075897320546"><ele>376.6666666666667</ele><time>2026-04-12T09:56:51Z</time></trkpt><trkpt lat="43.56357194714361" lon="12.040681345333706"><ele>376.5</ele><time>2026-04-12T09:56:52Z</time></trkpt><trkpt lat="43.5636466682221" lon="12.04061592953921"><ele>376.3333333333333</ele><time>2026-04-12T09:56:54Z</time></trkpt><trkpt lat="43.56371959206729" lon="12.040622578154005"><ele>376.16666666666663</ele><time>2026-04-12T09:57:06Z</time></trkpt><trkpt lat="43.5637786641965" lon="12.040582731985982"><ele>376.0</ele><time>2026-04-12T09:57:09Z</time></trkpt><trkpt lat="43.56379730620825" lon="12.04047959489779"><ele>376.0</ele><time>2026-04-12T09:57:11Z</time></trkpt><trkpt lat="43.563822315410285" lon="12.040344053871145"><ele>376.0</ele><time>2026-04-12T09:57:13Z</time></trkpt><trkpt lat="43.56386473887276" lon="12.040180624926947"><ele>376.0</ele><time>2026-04-12T09:57:15Z</time></trkpt><trkpt lat="43.5638870355846" lon="12.04008410154588"><ele>376.0</ele><time>2026-04-12T09:57:16Z</time></trkpt><trkpt lat="43.56391232676215" lon="12.039984987393536"><ele>376.0</ele><time>2026-04-12T09:57:17Z</time></trkpt><trkpt lat="43.56393684163231" lon="12.03988038269587"><ele>378.16666666666663</ele><time>2026-04-12T09:57:18Z</time></trkpt><trkpt lat="43.56396359810969" lon="12.039765408394032"><ele>380.3333333333333</ele><time>2026-04-12T09:57:19Z</time></trkpt><trkpt lat="43.563992235008186" lon="12.039656726977967"><ele>382.5</ele><time>2026-04-12T09:57:20Z</time></trkpt><trkpt lat="43.56402001563246" lon="12.03954937269264"><ele>384.66666666666663</ele><time>2026-04-12T09:57:21Z</time></trkpt><trkpt lat="43.56404523566791" lon="12.039445192539702"><ele>386.8333333333333</ele><time>2026-04-12T09:57:21.999Z</time></trkpt><trkpt lat="43.564068846128194" lon="12.039332108299124"><ele>389.0</ele><time>2026-04-12T09:57:22.999Z</time></trkpt><trkpt lat="43.56409350083917" lon="12.039226773774288"><ele>392.2</ele><time>2026-04-12T09:57:23.999Z</time></trkpt><trkpt lat="43.564109634882996" lon="12.03911157065846"><ele>395.4</ele><time>2026-04-12T09:57:24.999Z</time></trkpt><trkpt lat="43.564124263367134" lon="12.039013048131316"><ele>398.6</ele><time>2026-04-12T09:57:25.999Z</time></trkpt><trkpt lat="43.5641753933417" lon="12.038848517630056"><ele>401.8</ele><time>2026-04-12T09:57:27.999Z</time></trkpt><trkpt lat="43.56420982251161" lon="12.038744141174037"><ele>405.0</ele><time>2026-04-12T09:57:28.999Z</time></trkpt><trkpt lat="43.56424468744497" lon="12.038619919638005"><ele>405.0</ele><time>2026-04-12T09:57:29.999Z</time></trkpt><trkpt lat="43.56426522941165" lon="12.038481087655283"><ele>405.0</ele><time>2026-04-12T09:57:30.999Z</time></trkpt><trkpt lat="43.56428290969714" lon="12.038341206566777"><ele>405.0</ele><time>2026-04-12T09:57:31.999Z</time></trkpt><trkpt lat="43.56430440833739" lon="12.038209154429433"><ele>405.0</ele><time>2026-04-12T09:57:32.999Z</time></trkpt><trkpt lat="43.564347474644606" lon="12.038071917134626"><ele>405.0</ele><time>2026-04-12T09:57:33.999Z</time></trkpt><trkpt lat="43.564423113041904" lon="12.037938647810064"><ele>405.25</ele><time>2026-04-12T09:57:34.999Z</time></trkpt><trkpt lat="43.56450365385264" lon="12.037812743068661"><ele>405.5</ele><time>2026-04-12T09:57:35.999Z</time></trkpt><trkpt lat="43.56458030827665" lon="12.037707458791276"><ele>405.75</ele><time>2026-04-12T09:57:36.999Z</time></trkpt><trkpt lat="43.5646558873806" lon="12.037598250157801"><ele>406.0</ele><time>2026-04-12T09:57:37.999Z</time></trkpt><trkpt lat="43.564741491585956" lon="12.037499442314601"><ele>410.0</ele><time>2026-04-12T09:57:38.999Z</time></trkpt><trkpt lat="43.56483262352628" lon="12.037433374207335"><ele>414.0</ele><time>2026-04-12T09:57:39.999Z</time></trkpt><trkpt lat="43.564909847897525" lon="12.037341235535038"><ele>418.0</ele><time>2026-04-12T09:57:40.999Z</time></trkpt><trkpt lat="43.56495172459247" lon="12.03723354685723"><ele>422.0</ele><time>2026-04-12T09:57:41.999Z</time></trkpt><trkpt lat="43.56499118096284" lon="12.037109148021596"><ele>426.0</ele><time>2026-04-12T09:57:42.999Z</time></trkpt><trkpt lat="43.565035468315564" lon="12.0369679681402"><ele>426.0</ele><time>2026-04-12T09:57:43.999Z</time></trkpt><trkpt lat="43.565070254733754" lon="12.036818575063098"><ele>426.0</ele><time>2026-04-12T09:57:44.999Z</time></trkpt><trkpt lat="43.56509419629377" lon="12.036683106476833"><ele>426.0</ele><time>2026-04-12T09:57:45.999Z</time></trkpt><trkpt lat="43.56513472977142" lon="12.036580955334106"><ele>426.0</ele><time>2026-04-12T09:57:46.999Z</time></trkpt><trkpt lat="43.565163788408874" lon="12.036439002029946"><ele>426.0</ele><time>2026-04-12T09:57:47.999Z</time></trkpt><trkpt lat="43.56520944074436" lon="12.036304692051516"><ele>429.6</ele><time>2026-04-12T09:57:48.999Z</time></trkpt><trkpt lat="43.56524851341193" lon="12.03617827720982"><ele>433.20000000000005</ele><time>2026-04-12T09:57:49.999Z</time></trkpt><trkpt lat="43.565301043995014" lon="12.035994198815166"><ele>436.79999999999995</ele><time>2026-04-12T09:57:50.999Z</time></trkpt><trkpt lat="43.56534853244654" lon="12.035894633032735"><ele>440.4</ele><time>2026-04-12T09:57:51.999Z</time></trkpt><trkpt lat="43.56535492609967" lon="12.03580383100323"><ele>444.0</ele><time>2026-04-12T09:57:52.999Z</time></trkpt><trkpt lat="43.565351061084996" lon="12.0356885813863"><ele>446.6</ele><time>2026-04-12T09:57:53.999Z</time></trkpt><trkpt lat="43.56537087861084" lon="12.03554426185498"><ele>449.2</ele><time>2026-04-12T09:57:54.999Z</time></trkpt><trkpt lat="43.56539796107853" lon="12.035402548363463"><ele>451.80000000000007</ele><time>2026-04-12T09:57:55.999Z</time></trkpt><trkpt lat="43.5654225187241" lon="12.035298279520134"><ele>454.40000000000003</ele><time>2026-04-12T09:57:57.999Z</time></trkpt><trkpt lat="43.56546301139709" lon="12.03520604521109"><ele>457.0</ele><time>2026-04-12T09:57:59.999Z</time></trkpt><trkpt lat="43.5655552479995" lon="12.035210245697774"><ele>457.00000000000006</ele><time>2026-04-12T09:58:01.999Z</time></trkpt><trkpt lat="43.56563005648371" lon="12.035253764614104"><ele>457.0</ele><time>2026-04-12T09:58:02.999Z</time></trkpt><trkpt lat="43.5657029186543" lon="12.035275855166995"><ele>457.0</ele><time>2026-04-12T09:58:03.999Z</time></trkpt><trkpt lat="43.565775299084414" lon="12.035204531505869"><ele>457.0</ele><time>2026-04-12T09:58:05.999Z</time></trkpt><trkpt lat="43.56581796378692" lon="12.03512576682047"><ele>457.00000000000006</ele><time>2026-04-12T09:58:07.999Z</time></trkpt><trkpt lat="43.56587070215192" lon="12.035070691994338"><ele>457.0</ele><time>2026-04-12T09:58:08.999Z</time></trkpt><trkpt lat="43.5660175207807" lon="12.035106404363871"><ele>457.00000000000006</ele><time>2026-04-12T09:58:10.999Z</time></trkpt><trkpt lat="43.56608786321927" lon="12.035084127923785"><ele>457.0</ele><time>2026-04-12T09:58:11.999Z</time></trkpt><trkpt lat="43.56616583371167" lon="12.035039000446366"><ele>457.0</ele><time>2026-04-12T09:58:12.999Z</time></trkpt><trkpt lat="43.56622931350477" lon="12.03497220825523"><ele>457.0</ele><time>2026-04-12T09:58:13.999Z</time></trkpt><trkpt lat="43.56628925597924" lon="12.03486936140902"><ele>457.00000000000006</ele><time>2026-04-12T09:58:14.999Z</time></trkpt><trkpt lat="43.566354878396616" lon="12.03478387466333"><ele>457.0</ele><time>2026-04-12T09:58:15.999Z</time></trkpt><trkpt lat="43.56642660984329" lon="12.034680938776399"><ele>460.5</ele><time>2026-04-12T09:58:16.999Z</time></trkpt><trkpt lat="43.56650568339587" lon="12.034537325129321"><ele>464.0</ele><time>2026-04-12T09:58:17.999Z</time></trkpt><trkpt lat="43.566577839847824" lon="12.03439365024366"><ele>467.5</ele><time>2026-04-12T09:58:18.999Z</time></trkpt><trkpt lat="43.56666908501528" lon="12.03424938531397"><ele>471.0</ele><time>2026-04-12T09:58:19.999Z</time></trkpt><trkpt lat="43.56674106878904" lon="12.034113316882"><ele>473.8333333333333</ele><time>2026-04-12T09:58:20.999Z</time></trkpt><trkpt lat="43.56680994561437" lon="12.03401612016731"><ele>476.66666666666663</ele><time>2026-04-12T09:58:21.999Z</time></trkpt><trkpt lat="43.56689375330941" lon="12.033944574629707"><ele>479.5</ele><time>2026-04-12T09:58:22.999Z</time></trkpt><trkpt lat="43.566958072109564" lon="12.033855367921412"><ele>482.3333333333333</ele><time>2026-04-12T09:58:23.999Z</time></trkpt><trkpt lat="43.56698516061857" lon="12.033765561328778"><ele>485.16666666666663</ele><time>2026-04-12T09:58:24.999Z</time></trkpt><trkpt lat="43.566989607150376" lon="12.0336740113706"><ele>488.0</ele><time>2026-04-12T09:58:25.999Z</time></trkpt><trkpt lat="43.56699417495956" lon="12.03355775871416"><ele>487.99999999999994</ele><time>2026-04-12T09:58:26.999Z</time></trkpt><trkpt lat="43.566988840620084" lon="12.033440032749883"><ele>488.0</ele><time>2026-04-12T09:58:27.999Z</time></trkpt><trkpt lat="43.5670097584547" lon="12.033325470692006"><ele>488.0</ele><time>2026-04-12T09:58:28.999Z</time></trkpt><trkpt lat="43.56705765595473" lon="12.03322482225818"><ele>488.0</ele><time>2026-04-12T09:58:29.999Z</time></trkpt><trkpt lat="43.56712966207129" lon="12.033150620771103"><ele>487.99999999999994</ele><time>2026-04-12T09:58:30.999Z</time></trkpt><trkpt lat="43.56719985715178" lon="12.033068552629311"><ele>488.0</ele><time>2026-04-12T09:58:31.999Z</time></trkpt><trkpt lat="43.567245092829985" lon="12.032987870451255"><ele>486.0</ele><time>2026-04-12T09:58:32.999Z</time></trkpt><trkpt lat="43.56728158143571" lon="12.032852151562734"><ele>483.99999999999994</ele><time>2026-04-12T09:58:34.999Z</time></trkpt><trkpt lat="43.56727919580874" lon="12.032765156775087"><ele>481.99999999999994</ele><time>2026-04-12T09:58:38.998Z</time></trkpt><trkpt lat="43.567214919580714" lon="12.032719524687206"><ele>480.0</ele><time>2026-04-12T09:58:42.998Z</time></trkpt><trkpt lat="43.56714767451161" lon="12.032802958448318"><ele>478.0</ele><time>2026-04-12T09:58:45.998Z</time></trkpt><trkpt lat="43.567041475246725" lon="12.03288354237899"><ele>481.33333333333337</ele><time>2026-04-12T09:58:47.998Z</time></trkpt><trkpt lat="43.566975631480375" lon="12.032918901568346"><ele>484.6666666666667</ele><time>2026-04-12T09:58:48.998Z</time></trkpt><trkpt lat="43.56685793109195" lon="12.032992782249552"><ele>488.0</ele><time>2026-04-12T09:58:50.998Z</time></trkpt><trkpt lat="43.566797140530845" lon="12.033048019921472"><ele>491.33333333333337</ele><time>2026-04-12T09:58:51.998Z</time></trkpt><trkpt lat="43.56674387216199" lon="12.033097175895278"><ele>494.6666666666667</ele><time>2026-04-12T09:58:52.998Z</time></trkpt><trkpt lat="43.5666794020944" lon="12.033161208999894"><ele>498.0</ele><time>2026-04-12T09:58:53.998Z</time></trkpt><trkpt lat="43.566573398322596" lon="12.033243423305501"><ele>498.0</ele><time>2026-04-12T09:58:55.998Z</time></trkpt><trkpt lat="43.56650800602845" lon="12.033253555931632"><ele>498.0</ele><time>2026-04-12T09:58:56.999Z</time></trkpt><trkpt lat="43.56643921487369" lon="12.033222522483788"><ele>498.0</ele><time>2026-04-12T09:58:57.999Z</time></trkpt><trkpt lat="43.566394314630536" lon="12.033124636783446"><ele>498.0</ele><time>2026-04-12T09:58:58.999Z</time></trkpt><trkpt lat="43.56638912308727" lon="12.03299212397503"><ele>498.0</ele><time>2026-04-12T09:58:59.999Z</time></trkpt><trkpt lat="43.56637280051763" lon="12.032893215597742"><ele>498.0</ele><time>2026-04-12T09:59:00.999Z</time></trkpt><trkpt lat="43.56638815394543" lon="12.032721826762945"><ele>498.0</ele><time>2026-04-12T09:59:03Z</time></trkpt><trkpt lat="43.56643288033694" lon="12.032612966665377"><ele>497.99999999999994</ele><time>2026-04-12T09:59:04Z</time></trkpt><trkpt lat="43.56647678690802" lon="12.032501397197494"><ele>497.99999999999994</ele><time>2026-04-12T09:59:05Z</time></trkpt><trkpt lat="43.566516453469035" lon="12.03237472879847"><ele>498.0</ele><time>2026-04-12T09:59:06Z</time></trkpt><trkpt lat="43.56656107627109" lon="12.032250167145568"><ele>498.0</ele><time>2026-04-12T09:59:07Z</time></trkpt><trkpt lat="43.566610394315866" lon="12.032114979412956"><ele>498.79999999999995</ele><time>2026-04-12T09:59:08Z</time></trkpt><trkpt lat="43.566648196816544" lon="12.031986290949279"><ele>499.59999999999997</ele><time>2026-04-12T09:59:09Z</time></trkpt><trkpt lat="43.56669534924377" lon="12.031862163471388"><ele>500.40000000000003</ele><time>2026-04-12T09:59:10Z</time></trkpt><trkpt lat="43.566743372973846" lon="12.031736848573448"><ele>501.20000000000005</ele><time>2026-04-12T09:59:11Z</time></trkpt><trkpt lat="43.56677614964908" lon="12.0316111706778"><ele>502.0</ele><time>2026-04-12T09:59:12Z</time></trkpt><trkpt lat="43.56678798915679" lon="12.03147790721793"><ele>503.0</ele><time>2026-04-12T09:59:13Z</time></trkpt><trkpt lat="43.56681699036593" lon="12.03135940747159"><ele>504.00000000000006</ele><time>2026-04-12T09:59:14Z</time></trkpt><trkpt lat="43.56685999265662" lon="12.031231348353542"><ele>505.00000000000006</ele><time>2026-04-12T09:59:15Z</time></trkpt><trkpt lat="43.56690246778631" lon="12.031105642754852"><ele>506.0</ele><time>2026-04-12T09:59:16Z</time></trkpt><trkpt lat="43.56693897691405" lon="12.030985804543901"><ele>507.0</ele><time>2026-04-12T09:59:17Z</time></trkpt><trkpt lat="43.566970274189174" lon="12.030871228637379"><ele>507.0</ele><time>2026-04-12T09:59:18Z</time></trkpt><trkpt lat="43.56700827678138" lon="12.030769449867028"><ele>507.00000000000006</ele><time>2026-04-12T09:59:19Z</time></trkpt><trkpt lat="43.56704005059792" lon="12.030660473102428"><ele>507.00000000000006</ele><time>2026-04-12T09:59:20Z</time></trkpt><trkpt lat="43.567083263486026" lon="12.030530369315619"><ele>507.0</ele><time>2026-04-12T09:59:21Z</time></trkpt><trkpt lat="43.567123235367866" lon="12.030401037364493"><ele>507.0</ele><time>2026-04-12T09:59:22Z</time></trkpt><trkpt lat="43.567167503767756" lon="12.030304548103837"><ele>507.20000000000005</ele><time>2026-04-12T09:59:23Z</time></trkpt><trkpt lat="43.56722279996325" lon="12.030205042065596"><ele>507.40000000000003</ele><time>2026-04-12T09:59:24Z</time></trkpt><trkpt lat="43.56729048913321" lon="12.0301008800003"><ele>507.59999999999997</ele><time>2026-04-12T09:59:25Z</time></trkpt><trkpt lat="43.56735925196921" lon="12.029993790132966"><ele>507.79999999999995</ele><time>2026-04-12T09:59:26Z</time></trkpt><trkpt lat="43.567428275349" lon="12.029889429981056"><ele>508.0</ele><time>2026-04-12T09:59:26.999Z</time></trkpt><trkpt lat="43.56749426574263" lon="12.029789490159741"><ele>508.79999999999995</ele><time>2026-04-12T09:59:27.999Z</time></trkpt><trkpt lat="43.56755654171154" lon="12.029694592995439"><ele>509.59999999999997</ele><time>2026-04-12T09:59:28.999Z</time></trkpt><trkpt lat="43.567621033324784" lon="12.029596287032415"><ele>510.40000000000003</ele><time>2026-04-12T09:59:29.999Z</time></trkpt><trkpt lat="43.5676884007622" lon="12.029502102657206"><ele>511.20000000000005</ele><time>2026-04-12T09:59:30.999Z</time></trkpt><trkpt lat="43.56774748037954" lon="12.029392833529247"><ele>512.0</ele><time>2026-04-12T09:59:31.999Z</time></trkpt><trkpt lat="43.567799722207766" lon="12.029268911591789"><ele>513.0</ele><time>2026-04-12T09:59:32.999Z</time></trkpt><trkpt lat="43.56786503581158" lon="12.029149121498593"><ele>514.0</ele><time>2026-04-12T09:59:33.999Z</time></trkpt><trkpt lat="43.5679225928429" lon="12.029035623238302"><ele>515.0</ele><time>2026-04-12T09:59:34.999Z</time></trkpt><trkpt lat="43.567972229390705" lon="12.028926616122972"><ele>516.0</ele><time>2026-04-12T09:59:35.999Z</time></trkpt><trkpt lat="43.56800930456354" lon="12.02881348437571"><ele>517.0</ele><time>2026-04-12T09:59:36.999Z</time></trkpt><trkpt lat="43.568037851946166" lon="12.028689900872438"><ele>517.1666666666667</ele><time>2026-04-12T09:59:37.999Z</time></trkpt><trkpt lat="43.568057907824496" lon="12.028600976171669"><ele>517.3333333333334</ele><time>2026-04-12T09:59:38.999Z</time></trkpt><trkpt lat="43.56804505651882" lon="12.028471489270858"><ele>517.5</ele><time>2026-04-12T09:59:48.999Z</time></trkpt><trkpt lat="43.56804280135324" lon="12.028376168679936"><ele>517.6666666666666</ele><time>2026-04-12T09:59:51.999Z</time></trkpt><trkpt lat="43.56801656205268" lon="12.028290049971496"><ele>517.8333333333333</ele><time>2026-04-12T09:59:53.999Z</time></trkpt><trkpt lat="43.5679570156001" lon="12.028354520920177"><ele>518.0</ele><time>2026-04-12T09:59:56.999Z</time></trkpt><trkpt lat="43.56796700544081" lon="12.028469320445234"><ele>518.0</ele><time>2026-04-12T09:59:59.999Z</time></trkpt><trkpt lat="43.56802004218962" lon="12.0285383630431"><ele>518.0</ele><time>2026-04-12T10:00:01.999Z</time></trkpt><trkpt lat="43.56810490053102" lon="12.028548044259827"><ele>518.0</ele><time>2026-04-12T10:00:34.999Z</time></trkpt><trkpt lat="43.56804590484023" lon="12.028517125055174"><ele>518.0</ele><time>2026-04-12T10:00:42.999Z</time></trkpt><trkpt lat="43.567972674791605" lon="12.02845910196168"><ele>518.0</ele><time>2026-04-12T10:00:44.999Z</time></trkpt><trkpt lat="43.56785027467272" lon="12.028372806236534"><ele>518.0</ele><time>2026-04-12T10:00:46.999Z</time></trkpt><trkpt lat="43.56777852849624" lon="12.028329934982365"><ele>516.8333333333333</ele><time>2026-04-12T10:00:47.999Z</time></trkpt><trkpt lat="43.56770983726634" lon="12.028297593727832"><ele>515.6666666666666</ele><time>2026-04-12T10:00:48.999Z</time></trkpt><trkpt lat="43.567602119609035" lon="12.028259354058713"><ele>514.5</ele><time>2026-04-12T10:00:50.999Z</time></trkpt><trkpt lat="43.567561293760825" lon="12.028192422954291"><ele>513.3333333333334</ele><time>2026-04-12T10:00:51.999Z</time></trkpt><trkpt lat="43.56753790232659" lon="12.02809967087513"><ele>512.1666666666667</ele><time>2026-04-12T10:00:52.998Z</time></trkpt><trkpt lat="43.56748996126186" lon="12.027960841241248"><ele>511.0</ele><time>2026-04-12T10:00:53.998Z</time></trkpt><trkpt lat="43.56742611847057" lon="12.027852034939064"><ele>511.00000000000006</ele><time>2026-04-12T10:00:54.998Z</time></trkpt><trkpt lat="43.56737188185491" lon="12.027768507944891"><ele>511.0</ele><time>2026-04-12T10:00:55.998Z</time></trkpt><trkpt lat="43.56731648998188" lon="12.027702954165559"><ele>511.0</ele><time>2026-04-12T10:00:56.998Z</time></trkpt><trkpt lat="43.56724732129724" lon="12.027629037296082"><ele>511.0</ele><time>2026-04-12T10:00:57.998Z</time></trkpt><trkpt lat="43.56717453931238" lon="12.027543256266203"><ele>511.00000000000006</ele><time>2026-04-12T10:00:58.998Z</time></trkpt><trkpt lat="43.56712164057913" lon="12.027471744014056"><ele>511.0</ele><time>2026-04-12T10:00:59.998Z</time></trkpt><trkpt lat="43.56706704791565" lon="12.027415375717704"><ele>509.00000000000006</ele><time>2026-04-12T10:01:00.998Z</time></trkpt><trkpt lat="43.56700866137928" lon="12.027375089764469"><ele>507.0</ele><time>2026-04-12T10:01:01.998Z</time></trkpt><trkpt lat="43.566944946366014" lon="12.027347211801525"><ele>505.0</ele><time>2026-04-12T10:01:03Z</time></trkpt><trkpt lat="43.566868816012295" lon="12.027339322771294"><ele>503.0</ele><time>2026-04-12T10:01:04Z</time></trkpt><trkpt lat="43.56679209040195" lon="12.02734401554102"><ele>501.00000000000006</ele><time>2026-04-12T10:01:05Z</time></trkpt><trkpt lat="43.56672780835883" lon="12.027351016898042"><ele>499.0</ele><time>2026-04-12T10:01:06Z</time></trkpt><trkpt lat="43.56661306589969" lon="12.027344740316064"><ele>499.0</ele><time>2026-04-12T10:01:08Z</time></trkpt><trkpt lat="43.56650203900351" lon="12.02732826676806"><ele>499.0</ele><time>2026-04-12T10:01:10Z</time></trkpt><trkpt lat="43.56637862333888" lon="12.0273389405698"><ele>499.0</ele><time>2026-04-12T10:01:12Z</time></trkpt><trkpt lat="43.566256377315" lon="12.027372673493797"><ele>499.0</ele><time>2026-04-12T10:01:14Z</time></trkpt><trkpt lat="43.56618558231012" lon="12.02737402478605"><ele>499.0</ele><time>2026-04-12T10:01:15Z</time></trkpt><trkpt lat="43.56605937118321" lon="12.027349693738698"><ele>496.2</ele><time>2026-04-12T10:01:17Z</time></trkpt><trkpt lat="43.56593374020405" lon="12.027354300232888"><ele>493.4</ele><time>2026-04-12T10:01:19Z</time></trkpt><trkpt lat="43.56583949742574" lon="12.02738049975309"><ele>490.6</ele><time>2026-04-12T10:01:21Z</time></trkpt><trkpt lat="43.565757190267675" lon="12.02739409859016"><ele>487.8</ele><time>2026-04-12T10:01:23Z</time></trkpt><trkpt lat="43.56568645958011" lon="12.027400496779"><ele>485.0</ele><time>2026-04-12T10:01:25Z</time></trkpt><trkpt lat="43.56560102370645" lon="12.027431212896255"><ele>485.0</ele><time>2026-04-12T10:01:27Z</time></trkpt><trkpt lat="43.56553821700534" lon="12.027384782315504"><ele>485.0</ele><time>2026-04-12T10:01:29Z</time></trkpt><trkpt lat="43.5655060719439" lon="12.027259351113027"><ele>485.0</ele><time>2026-04-12T10:01:31Z</time></trkpt><trkpt lat="43.56550916178949" lon="12.027133977110383"><ele>485.0</ele><time>2026-04-12T10:01:33Z</time></trkpt><trkpt lat="43.56551089733202" lon="12.026983999460123"><ele>485.0</ele><time>2026-04-12T10:01:35Z</time></trkpt><trkpt lat="43.5655164751123" lon="12.026858796016814"><ele>485.00000000000006</ele><time>2026-04-12T10:01:37Z</time></trkpt><trkpt lat="43.56552020544979" lon="12.02675950976127"><ele>485.0</ele><time>2026-04-12T10:01:39Z</time></trkpt><trkpt lat="43.56552942017324" lon="12.026654257638345"><ele>485.00000000000006</ele><time>2026-04-12T10:01:41Z</time></trkpt><trkpt lat="43.5655297402985" lon="12.02655159167341"><ele>485.00000000000006</ele><time>2026-04-12T10:01:43Z</time></trkpt><trkpt lat="43.56550446178864" lon="12.026467668103063"><ele>485.0</ele><time>2026-04-12T10:01:45Z</time></trkpt><trkpt lat="43.56545870100682" lon="12.026388816443939"><ele>485.00000000000006</ele><time>2026-04-12T10:01:48Z</time></trkpt><trkpt lat="43.565424314687306" lon="12.026309874758613"><ele>485.00000000000006</ele><time>2026-04-12T10:01:53Z</time></trkpt><trkpt lat="43.565507977108396" lon="12.026222664426296"><ele>483.99999999999994</ele><time>2026-04-12T10:01:55.999Z</time></trkpt><trkpt lat="43.56560868546302" lon="12.02613373135352"><ele>483.0</ele><time>2026-04-12T10:01:57.999Z</time></trkpt><trkpt lat="43.56566834917987" lon="12.026071673762056"><ele>482.0</ele><time>2026-04-12T10:01:58.999Z</time></trkpt><trkpt lat="43.56572623489312" lon="12.025996105192016"><ele>481.0</ele><time>2026-04-12T10:01:59.999Z</time></trkpt><trkpt lat="43.5657761341503" lon="12.025894247881617"><ele>479.99999999999994</ele><time>2026-04-12T10:02:00.999Z</time></trkpt><trkpt lat="43.565805398198414" lon="12.025797655550482"><ele>479.0</ele><time>2026-04-12T10:02:01.999Z</time></trkpt><trkpt lat="43.56585760715421" lon="12.02570002380729"><ele>479.66666666666663</ele><time>2026-04-12T10:02:02.999Z</time></trkpt><trkpt lat="43.56590762043733" lon="12.025611853153455"><ele>480.3333333333333</ele><time>2026-04-12T10:02:03.999Z</time></trkpt><trkpt lat="43.56597248386869" lon="12.025533788054272"><ele>481.0</ele><time>2026-04-12T10:02:04.999Z</time></trkpt><trkpt lat="43.566051685792075" lon="12.025513147620769"><ele>481.66666666666663</ele><time>2026-04-12T10:02:05.999Z</time></trkpt><trkpt lat="43.56614808700742" lon="12.0255297688698"><ele>482.3333333333333</ele><time>2026-04-12T10:02:06.999Z</time></trkpt><trkpt lat="43.56624835696087" lon="12.025527581576537"><ele>483.0</ele><time>2026-04-12T10:02:07.999Z</time></trkpt><trkpt lat="43.56634291425876" lon="12.025472958624864"><ele>483.0</ele><time>2026-04-12T10:02:08.999Z</time></trkpt><trkpt lat="43.566425151011046" lon="12.025381757787523"><ele>482.99999999999994</ele><time>2026-04-12T10:02:09.999Z</time></trkpt><trkpt lat="43.56649059763375" lon="12.02527007823037"><ele>482.99999999999994</ele><time>2026-04-12T10:02:10.999Z</time></trkpt><trkpt lat="43.5665605254475" lon="12.025161627162637"><ele>483.0</ele><time>2026-04-12T10:02:11.999Z</time></trkpt><trkpt lat="43.566636499353315" lon="12.025052965518404"><ele>483.0</ele><time>2026-04-12T10:02:12.999Z</time></trkpt><trkpt lat="43.56671535101942" lon="12.024946698936748"><ele>480.79999999999995</ele><time>2026-04-12T10:02:13.999Z</time></trkpt><trkpt lat="43.56679229840157" lon="12.024841592417669"><ele>478.59999999999997</ele><time>2026-04-12T10:02:14.999Z</time></trkpt><trkpt lat="43.5668595036622" lon="12.024712464703539"><ele>476.40000000000003</ele><time>2026-04-12T10:02:15.999Z</time></trkpt><trkpt lat="43.56689963920822" lon="12.02457120120877"><ele>474.20000000000005</ele><time>2026-04-12T10:02:16.999Z</time></trkpt><trkpt lat="43.56693191119299" lon="12.02444778391458"><ele>472.0</ele><time>2026-04-12T10:02:17.999Z</time></trkpt><trkpt lat="43.56696612439408" lon="12.024339899314095"><ele>473.6</ele><time>2026-04-12T10:02:18.999Z</time></trkpt><trkpt lat="43.56703075043701" lon="12.024238005513691"><ele>475.20000000000005</ele><time>2026-04-12T10:02:19.999Z</time></trkpt><trkpt lat="43.56712344738423" lon="12.024155266790148"><ele>476.8</ele><time>2026-04-12T10:02:20.999Z</time></trkpt><trkpt lat="43.56723358155673" lon="12.024132183859935"><ele>478.4</ele><time>2026-04-12T10:02:21.999Z</time></trkpt><trkpt lat="43.56735536755895" lon="12.024142183401086"><ele>480.0</ele><time>2026-04-12T10:02:22.999Z</time></trkpt><trkpt lat="43.567472933194274" lon="12.024170251704028"><ele>480.0</ele><time>2026-04-12T10:02:23.999Z</time></trkpt><trkpt lat="43.56758934492526" lon="12.024179001026187"><ele>480.0</ele><time>2026-04-12T10:02:24.999Z</time></trkpt><trkpt lat="43.56771262369826" lon="12.024172095807979"><ele>480.0</ele><time>2026-04-12T10:02:25.999Z</time></trkpt><trkpt lat="43.567828579052616" lon="12.024159405648776"><ele>480.0</ele><time>2026-04-12T10:02:26.999Z</time></trkpt><trkpt lat="43.56793933074683" lon="12.024141306550547"><ele>477.5</ele><time>2026-04-12T10:02:27.999Z</time></trkpt><trkpt lat="43.56805286325337" lon="12.024105824659356"><ele>475.0</ele><time>2026-04-12T10:02:28.999Z</time></trkpt><trkpt lat="43.56815848429663" lon="12.02403882339709"><ele>472.5</ele><time>2026-04-12T10:02:29.999Z</time></trkpt><trkpt lat="43.568261747018035" lon="12.023955622045326"><ele>470.0</ele><time>2026-04-12T10:02:30.999Z</time></trkpt><trkpt lat="43.568344458302036" lon="12.023864282281872"><ele>470.0</ele><time>2026-04-12T10:02:31.999Z</time></trkpt><trkpt lat="43.568427003903295" lon="12.02370652121759"><ele>470.0</ele><time>2026-04-12T10:02:32.999Z</time></trkpt><trkpt lat="43.568469596955545" lon="12.023577422303942"><ele>470.0</ele><time>2026-04-12T10:02:33.999Z</time></trkpt><trkpt lat="43.56848155915459" lon="12.02342652146454"><ele>470.0</ele><time>2026-04-12T10:02:34.999Z</time></trkpt><trkpt lat="43.56846892091959" lon="12.02327515236058"><ele>468.75</ele><time>2026-04-12T10:02:35.999Z</time></trkpt><trkpt lat="43.56842343086913" lon="12.023128358778765"><ele>467.5</ele><time>2026-04-12T10:02:36.999Z</time></trkpt><trkpt lat="43.568345300599056" lon="12.022991848565976"><ele>466.25</ele><time>2026-04-12T10:02:37.999Z</time></trkpt><trkpt lat="43.56824360322258" lon="12.02288348256351"><ele>465.0</ele><time>2026-04-12T10:02:38.999Z</time></trkpt><trkpt lat="43.56812205804188" lon="12.022785485805127"><ele>465.0</ele><time>2026-04-12T10:02:39.999Z</time></trkpt><trkpt lat="43.56799846150648" lon="12.022683328559758"><ele>465.0</ele><time>2026-04-12T10:02:40.999Z</time></trkpt><trkpt lat="43.56788800654589" lon="12.022586330934962"><ele>465.0</ele><time>2026-04-12T10:02:41.999Z</time></trkpt><trkpt lat="43.56778373295427" lon="12.022489465039309"><ele>465.0</ele><time>2026-04-12T10:02:42.999Z</time></trkpt><trkpt lat="43.56767086387279" lon="12.0223780592605"><ele>460.75</ele><time>2026-04-12T10:02:43.999Z</time></trkpt><trkpt lat="43.56756256948352" lon="12.022271307588142"><ele>456.5</ele><time>2026-04-12T10:02:44.999Z</time></trkpt><trkpt lat="43.5674597621373" lon="12.022152928261074"><ele>452.25</ele><time>2026-04-12T10:02:45.999Z</time></trkpt><trkpt lat="43.5673746165553" lon="12.02201600744875"><ele>448.0</ele><time>2026-04-12T10:02:46.999Z</time></trkpt><trkpt lat="43.567306617237044" lon="12.021862899377314"><ele>448.0</ele><time>2026-04-12T10:02:47.999Z</time></trkpt><trkpt lat="43.567257232218275" lon="12.021682949200517"><ele>448.0</ele><time>2026-04-12T10:02:48.999Z</time></trkpt><trkpt lat="43.56723331480904" lon="12.021496749199299"><ele>448.0</ele><time>2026-04-12T10:02:49.999Z</time></trkpt><trkpt lat="43.567247010995594" lon="12.02132281368813"><ele>448.0</ele><time>2026-04-12T10:02:50.999Z</time></trkpt><trkpt lat="43.5672966181574" lon="12.02115904863282"><ele>446.4</ele><time>2026-04-12T10:02:51.999Z</time></trkpt><trkpt lat="43.56734475973221" lon="12.02099927145254"><ele>444.79999999999995</ele><time>2026-04-12T10:02:52.999Z</time></trkpt><trkpt lat="43.56739698998843" lon="12.020858494944434"><ele>443.2</ele><time>2026-04-12T10:02:53.999Z</time></trkpt><trkpt lat="43.567464951612415" lon="12.020761649846952"><ele>441.6</ele><time>2026-04-12T10:02:54.999Z</time></trkpt><trkpt lat="43.56755292773622" lon="12.020713456343893"><ele>440.0</ele><time>2026-04-12T10:02:55.999Z</time></trkpt><trkpt lat="43.567644651167655" lon="12.020713466616634"><ele>440.0</ele><time>2026-04-12T10:02:56.999Z</time></trkpt><trkpt lat="43.567749295526326" lon="12.020763293043622"><ele>440.0</ele><time>2026-04-12T10:02:57.999Z</time></trkpt><trkpt lat="43.56785252746855" lon="12.020825623697357"><ele>440.0</ele><time>2026-04-12T10:02:58.999Z</time></trkpt><trkpt lat="43.56796959798882" lon="12.020871460499231"><ele>440.0</ele><time>2026-04-12T10:02:59.999Z</time></trkpt><trkpt lat="43.56808565909307" lon="12.020902280102968"><ele>438.25</ele><time>2026-04-12T10:03:00.999Z</time></trkpt><trkpt lat="43.568215007554215" lon="12.020922273553479"><ele>436.5</ele><time>2026-04-12T10:03:01.999Z</time></trkpt><trkpt lat="43.56832833799148" lon="12.020930260100954"><ele>434.75</ele><time>2026-04-12T10:03:02.999Z</time></trkpt><trkpt lat="43.56844337827945" lon="12.02092886126364"><ele>433.0</ele><time>2026-04-12T10:03:03.999Z</time></trkpt><trkpt lat="43.56856171610568" lon="12.020928441094119"><ele>433.0</ele><time>2026-04-12T10:03:04.999Z</time></trkpt><trkpt lat="43.56868351174125" lon="12.020916020326492"><ele>433.0</ele><time>2026-04-12T10:03:05.999Z</time></trkpt><trkpt lat="43.56879479686082" lon="12.020886848271411"><ele>433.0</ele><time>2026-04-12T10:03:06.999Z</time></trkpt><trkpt lat="43.56889403056877" lon="12.020826573022399"><ele>433.0</ele><time>2026-04-12T10:03:07.999Z</time></trkpt><trkpt lat="43.56899357870243" lon="12.020754121835278"><ele>429.5</ele><time>2026-04-12T10:03:09Z</time></trkpt><trkpt lat="43.56908403761595" lon="12.020656418846583"><ele>426.0</ele><time>2026-04-12T10:03:10Z</time></trkpt><trkpt lat="43.569164755338285" lon="12.020546738299299"><ele>422.5</ele><time>2026-04-12T10:03:11Z</time></trkpt><trkpt lat="43.56925029172738" lon="12.020425574806225"><ele>419.0</ele><time>2026-04-12T10:03:12Z</time></trkpt><trkpt lat="43.56933856167321" lon="12.02029578736205"><ele>419.0</ele><time>2026-04-12T10:03:13Z</time></trkpt><trkpt lat="43.569424476725274" lon="12.020157494152048"><ele>419.0</ele><time>2026-04-12T10:03:14Z</time></trkpt><trkpt lat="43.569513263549915" lon="12.020021831110633"><ele>419.0</ele><time>2026-04-12T10:03:15Z</time></trkpt><trkpt lat="43.56960592577254" lon="12.019886992694042"><ele>419.0</ele><time>2026-04-12T10:03:16Z</time></trkpt><trkpt lat="43.56969862868682" lon="12.019758072165448"><ele>415.75</ele><time>2026-04-12T10:03:17Z</time></trkpt><trkpt lat="43.56979248012212" lon="12.01963165367319"><ele>412.5</ele><time>2026-04-12T10:03:18Z</time></trkpt><trkpt lat="43.56988438188638" lon="12.019505693350647"><ele>409.25</ele><time>2026-04-12T10:03:19Z</time></trkpt><trkpt lat="43.56997204377872" lon="12.019379526614703"><ele>406.0</ele><time>2026-04-12T10:03:20Z</time></trkpt><trkpt lat="43.57006039673817" lon="12.019252153731776"><ele>408.5</ele><time>2026-04-12T10:03:21Z</time></trkpt><trkpt lat="43.570147634495044" lon="12.019131721489709"><ele>411.0</ele><time>2026-04-12T10:03:22Z</time></trkpt><trkpt lat="43.57023702871436" lon="12.019022948050281"><ele>413.5</ele><time>2026-04-12T10:03:23Z</time></trkpt><trkpt lat="43.57031214914752" lon="12.018912969151092"><ele>416.0</ele><time>2026-04-12T10:03:24Z</time></trkpt><trkpt lat="43.570382836354405" lon="12.018815351897294"><ele>418.0</ele><time>2026-04-12T10:03:25Z</time></trkpt><trkpt lat="43.57045121800935" lon="12.01872554075345"><ele>420.0</ele><time>2026-04-12T10:03:26Z</time></trkpt><trkpt lat="43.57051432334524" lon="12.018646886114956"><ele>422.0</ele><time>2026-04-12T10:03:27Z</time></trkpt><trkpt lat="43.57058799076036" lon="12.018568924466685"><ele>424.0</ele><time>2026-04-12T10:03:28Z</time></trkpt><trkpt lat="43.57067108273031" lon="12.018521807047323"><ele>426.0</ele><time>2026-04-12T10:03:29Z</time></trkpt><trkpt lat="43.57077205983627" lon="12.018523876207786"><ele>426.0</ele><time>2026-04-12T10:03:30Z</time></trkpt><trkpt lat="43.57087586210879" lon="12.018575103453397"><ele>426.0</ele><time>2026-04-12T10:03:31Z</time></trkpt><trkpt lat="43.57097788513967" lon="12.018657061217473"><ele>426.0</ele><time>2026-04-12T10:03:32Z</time></trkpt><trkpt lat="43.57107717774905" lon="12.018745983724752"><ele>426.0</ele><time>2026-04-12T10:03:33Z</time></trkpt><trkpt lat="43.5711835857208" lon="12.018833135786457"><ele>430.5</ele><time>2026-04-12T10:03:34Z</time></trkpt><trkpt lat="43.571300632667146" lon="12.018911627942822"><ele>435.0</ele><time>2026-04-12T10:03:35Z</time></trkpt><trkpt lat="43.571412947676784" lon="12.018970408758323"><ele>439.5</ele><time>2026-04-12T10:03:36Z</time></trkpt><trkpt lat="43.571524947039954" lon="12.019026713732117"><ele>444.0</ele><time>2026-04-12T10:03:37Z</time></trkpt><trkpt lat="43.571648010497846" lon="12.01906326106331"><ele>444.0</ele><time>2026-04-12T10:03:38Z</time></trkpt><trkpt lat="43.57177353599327" lon="12.019070858617924"><ele>444.0</ele><time>2026-04-12T10:03:39Z</time></trkpt><trkpt lat="43.571903261063746" lon="12.019063263960737"><ele>444.0</ele><time>2026-04-12T10:03:40Z</time></trkpt><trkpt lat="43.57202831891264" lon="12.019067425090983"><ele>444.0</ele><time>2026-04-12T10:03:41Z</time></trkpt><trkpt lat="43.57215539081543" lon="12.01907846972493"><ele>443.25</ele><time>2026-04-12T10:03:42Z</time></trkpt><trkpt lat="43.57227937991731" lon="12.019098229620887"><ele>442.5</ele><time>2026-04-12T10:03:43Z</time></trkpt><trkpt lat="43.5724070251975" lon="12.019117140747264"><ele>441.75</ele><time>2026-04-12T10:03:44Z</time></trkpt><trkpt lat="43.57252916602401" lon="12.019140504071645"><ele>441.0</ele><time>2026-04-12T10:03:45Z</time></trkpt><trkpt lat="43.57265645102767" lon="12.019164907792357"><ele>436.0</ele><time>2026-04-12T10:03:46Z</time></trkpt><trkpt lat="43.57276908410347" lon="12.019181413684722"><ele>431.0</ele><time>2026-04-12T10:03:47Z</time></trkpt><trkpt lat="43.57286561854706" lon="12.01917106880965"><ele>426.0</ele><time>2026-04-12T10:03:48Z</time></trkpt><trkpt lat="43.57294842762264" lon="12.019110475161549"><ele>421.0</ele><time>2026-04-12T10:03:49Z</time></trkpt><trkpt lat="43.57301044741306" lon="12.019000901281743"><ele>416.0</ele><time>2026-04-12T10:03:50Z</time></trkpt><trkpt lat="43.573049626321136" lon="12.018847959739691"><ele>415.5</ele><time>2026-04-12T10:03:51Z</time></trkpt><trkpt lat="43.57307584633757" lon="12.018686849699943"><ele>415.0</ele><time>2026-04-12T10:03:52Z</time></trkpt><trkpt lat="43.57312185986877" lon="12.018517267636849"><ele>414.5</ele><time>2026-04-12T10:03:53Z</time></trkpt><trkpt lat="43.5731912112242" lon="12.018360256106913"><ele>414.0</ele><time>2026-04-12T10:03:54Z</time></trkpt><trkpt lat="43.57329626213872" lon="12.018223994498113"><ele>415.5</ele><time>2026-04-12T10:03:55Z</time></trkpt><trkpt lat="43.57340745250187" lon="12.018113184914258"><ele>417.0</ele><time>2026-04-12T10:03:56Z</time></trkpt><trkpt lat="43.57351061068884" lon="12.017999651561992"><ele>418.5</ele><time>2026-04-12T10:03:57Z</time></trkpt><trkpt lat="43.573612395065595" lon="12.017878431781892"><ele>420.0</ele><time>2026-04-12T10:03:58Z</time></trkpt><trkpt lat="43.57371094804051" lon="12.017755889808164"><ele>420.0</ele><time>2026-04-12T10:03:59Z</time></trkpt><trkpt lat="43.57381103934574" lon="12.017624762475176"><ele>420.0</ele><time>2026-04-12T10:04:00Z</time></trkpt><trkpt lat="43.57391129303083" lon="12.017489298178619"><ele>420.0</ele><time>2026-04-12T10:04:01Z</time></trkpt><trkpt lat="43.57401512047876" lon="12.017353821368479"><ele>420.0</ele><time>2026-04-12T10:04:02Z</time></trkpt><trkpt lat="43.57411879488137" lon="12.017230856542529"><ele>421.25</ele><time>2026-04-12T10:04:03Z</time></trkpt><trkpt lat="43.57422374110871" lon="12.017127835567312"><ele>422.5</ele><time>2026-04-12T10:04:04Z</time></trkpt><trkpt lat="43.5743266950771" lon="12.017058812734433"><ele>423.75</ele><time>2026-04-12T10:04:05Z</time></trkpt><trkpt lat="43.57443854610691" lon="12.017039185990654"><ele>425.0</ele><time>2026-04-12T10:04:06Z</time></trkpt><trkpt lat="43.574552077057284" lon="12.01706305329524"><ele>425.0</ele><time>2026-04-12T10:04:07Z</time></trkpt><trkpt lat="43.57465767451641" lon="12.017076879820573"><ele>425.0</ele><time>2026-04-12T10:04:08Z</time></trkpt><trkpt lat="43.5747562006173" lon="12.017032375383659"><ele>425.0</ele><time>2026-04-12T10:04:09Z</time></trkpt><trkpt lat="43.574832291768814" lon="12.016940518457965"><ele>425.0</ele><time>2026-04-12T10:04:10Z</time></trkpt><trkpt lat="43.57491212053885" lon="12.01685787090884"><ele>425.0</ele><time>2026-04-12T10:04:10.999Z</time></trkpt><trkpt lat="43.57497444081871" lon="12.016761418481886"><ele>424.4</ele><time>2026-04-12T10:04:11.999Z</time></trkpt><trkpt lat="43.57502115797303" lon="12.01665210422221"><ele>423.8</ele><time>2026-04-12T10:04:12.999Z</time></trkpt><trkpt lat="43.57501378040038" lon="12.016517460216761"><ele>423.20000000000005</ele><time>2026-04-12T10:04:13.999Z</time></trkpt><trkpt lat="43.5749644050664" lon="12.016385344720458"><ele>422.6</ele><time>2026-04-12T10:04:14.999Z</time></trkpt><trkpt lat="43.57491249626179" lon="12.01624480329526"><ele>422.0</ele><time>2026-04-12T10:04:15.999Z</time></trkpt><trkpt lat="43.57487660519377" lon="12.016102583918444"><ele>422.0</ele><time>2026-04-12T10:04:16.999Z</time></trkpt><trkpt lat="43.574863084842534" lon="12.015947732298264"><ele>422.0</ele><time>2026-04-12T10:04:17.999Z</time></trkpt><trkpt lat="43.5748824025153" lon="12.015807666317738"><ele>422.0</ele><time>2026-04-12T10:04:18.999Z</time></trkpt><trkpt lat="43.57494105790906" lon="12.015699217845857"><ele>422.0</ele><time>2026-04-12T10:04:19.999Z</time></trkpt><trkpt lat="43.575027228581654" lon="12.015622620449314"><ele>422.0</ele><time>2026-04-12T10:04:20.999Z</time></trkpt><trkpt lat="43.57512239677083" lon="12.015547551244078"><ele>420.75</ele><time>2026-04-12T10:04:21.999Z</time></trkpt><trkpt lat="43.5752220540057" lon="12.01547313193739"><ele>419.5</ele><time>2026-04-12T10:04:22.999Z</time></trkpt><trkpt lat="43.575317861114655" lon="12.015390395645747"><ele>418.25</ele><time>2026-04-12T10:04:23.999Z</time></trkpt><trkpt lat="43.57540884286858" lon="12.015297768123213"><ele>417.0</ele><time>2026-04-12T10:04:24.999Z</time></trkpt><trkpt lat="43.57550299241556" lon="12.015207289977075"><ele>420.25</ele><time>2026-04-12T10:04:25.999Z</time></trkpt><trkpt lat="43.57560730167239" lon="12.015128225133472"><ele>423.5</ele><time>2026-04-12T10:04:26.999Z</time></trkpt><trkpt lat="43.57571838065927" lon="12.015068304092297"><ele>426.75</ele><time>2026-04-12T10:04:27.999Z</time></trkpt><trkpt lat="43.57583750712106" lon="12.015040645689687"><ele>430.0</ele><time>2026-04-12T10:04:28.999Z</time></trkpt><trkpt lat="43.57595267508367" lon="12.015055050913567"><ele>430.0</ele><time>2026-04-12T10:04:29.999Z</time></trkpt><trkpt lat="43.57605754185529" lon="12.01511424870183"><ele>430.0</ele><time>2026-04-12T10:04:30.999Z</time></trkpt><trkpt lat="43.57613927869718" lon="12.015225899437057"><ele>430.0</ele><time>2026-04-12T10:04:31.999Z</time></trkpt><trkpt lat="43.57620293493908" lon="12.015367702955551"><ele>430.0</ele><time>2026-04-12T10:04:32.999Z</time></trkpt><trkpt lat="43.576264940490994" lon="12.015492721605593"><ele>433.2</ele><time>2026-04-12T10:04:33.999Z</time></trkpt><trkpt lat="43.57633093034471" lon="12.015615045504687"><ele>436.4</ele><time>2026-04-12T10:04:34.999Z</time></trkpt><trkpt lat="43.576403186362434" lon="12.015721089184659"><ele>439.6</ele><time>2026-04-12T10:04:35.999Z</time></trkpt><trkpt lat="43.57647128913649" lon="12.015795423974852"><ele>442.8</ele><time>2026-04-12T10:04:36.999Z</time></trkpt><trkpt lat="43.576580730332964" lon="12.015784836700128"><ele>446.0</ele><time>2026-04-12T10:04:38.999Z</time></trkpt><trkpt lat="43.57662763694542" lon="12.015712725781054"><ele>446.0</ele><time>2026-04-12T10:04:39.999Z</time></trkpt><trkpt lat="43.576661221170006" lon="12.01560455117883"><ele>446.0</ele><time>2026-04-12T10:04:40.999Z</time></trkpt><trkpt lat="43.57667178292872" lon="12.015463568377061"><ele>446.0</ele><time>2026-04-12T10:04:41.999Z</time></trkpt><trkpt lat="43.57667188551012" lon="12.015302366297549"><ele>446.0</ele><time>2026-04-12T10:04:42.999Z</time></trkpt><trkpt lat="43.576663267432075" lon="12.015138899225962"><ele>446.0</ele><time>2026-04-12T10:04:43.999Z</time></trkpt><trkpt lat="43.57665229955117" lon="12.014978229253837"><ele>443.4</ele><time>2026-04-12T10:04:44.999Z</time></trkpt><trkpt lat="43.57664297619133" lon="12.014816165219264"><ele>440.8</ele><time>2026-04-12T10:04:45.999Z</time></trkpt><trkpt lat="43.576650196533" lon="12.014680111025326"><ele>438.19999999999993</ele><time>2026-04-12T10:04:46.999Z</time></trkpt><trkpt lat="43.57668412330927" lon="12.014576112985804"><ele>435.59999999999997</ele><time>2026-04-12T10:04:47.999Z</time></trkpt><trkpt lat="43.576752834857054" lon="12.014501112595747"><ele>433.0</ele><time>2026-04-12T10:04:48.999Z</time></trkpt><trkpt lat="43.57683847738258" lon="12.01443186002571"><ele>433.0</ele><time>2026-04-12T10:04:49.999Z</time></trkpt><trkpt lat="43.57693660945103" lon="12.014367409099618"><ele>433.0</ele><time>2026-04-12T10:04:50.999Z</time></trkpt><trkpt lat="43.57703642905122" lon="12.014295525711475"><ele>433.0</ele><time>2026-04-12T10:04:51.999Z</time></trkpt><trkpt lat="43.57712481329656" lon="12.014195605532898"><ele>433.0</ele><time>2026-04-12T10:04:52.999Z</time></trkpt><trkpt lat="43.57719679602569" lon="12.014072013327596"><ele>437.59999999999997</ele><time>2026-04-12T10:04:53.999Z</time></trkpt><trkpt lat="43.57725648268257" lon="12.013931108848448"><ele>442.19999999999993</ele><time>2026-04-12T10:04:54.999Z</time></trkpt><trkpt lat="43.57728838340908" lon="12.013780368765415"><ele>446.8</ele><time>2026-04-12T10:04:55.999Z</time></trkpt><trkpt lat="43.57730544544102" lon="12.013637560202255"><ele>451.4</ele><time>2026-04-12T10:04:56.999Z</time></trkpt><trkpt lat="43.577321371960544" lon="12.013491933810108"><ele>456.0</ele><time>2026-04-12T10:04:57.999Z</time></trkpt><trkpt lat="43.577330029428815" lon="12.013334483661849"><ele>453.5</ele><time>2026-04-12T10:04:58.999Z</time></trkpt><trkpt lat="43.57732557318618" lon="12.013165457424792"><ele>451.0</ele><time>2026-04-12T10:04:59.999Z</time></trkpt><trkpt lat="43.577314327297465" lon="12.013006801901831"><ele>448.5</ele><time>2026-04-12T10:05:00.999Z</time></trkpt><trkpt lat="43.577298607218864" lon="12.01285826434971"><ele>446.0</ele><time>2026-04-12T10:05:01.999Z</time></trkpt><trkpt lat="43.57728228323079" lon="12.012713761690424"><ele>446.0</ele><time>2026-04-12T10:05:02.999Z</time></trkpt><trkpt lat="43.57728044838264" lon="12.012570861668815"><ele>446.0</ele><time>2026-04-12T10:05:03.999Z</time></trkpt><trkpt lat="43.57729043478802" lon="12.012428457494845"><ele>446.0</ele><time>2026-04-12T10:05:04.999Z</time></trkpt><trkpt lat="43.5773197928839" lon="12.012292254081169"><ele>446.0</ele><time>2026-04-12T10:05:05.999Z</time></trkpt><trkpt lat="43.57738985079598" lon="12.012184738752074"><ele>446.0</ele><time>2026-04-12T10:05:06.999Z</time></trkpt><trkpt lat="43.57749054548066" lon="12.012087943980365"><ele>443.75</ele><time>2026-04-12T10:05:07.999Z</time></trkpt><trkpt lat="43.577601474777076" lon="12.011992931358614"><ele>441.5</ele><time>2026-04-12T10:05:08.999Z</time></trkpt><trkpt lat="43.5777052598795" lon="12.011887201447816"><ele>439.25</ele><time>2026-04-12T10:05:09.999Z</time></trkpt><trkpt lat="43.577808673988095" lon="12.011780332359486"><ele>437.0</ele><time>2026-04-12T10:05:10.999Z</time></trkpt><trkpt lat="43.57790501790586" lon="12.011674169752343"><ele>436.75</ele><time>2026-04-12T10:05:11.999Z</time></trkpt><trkpt lat="43.577995751864194" lon="12.011576938584296"><ele>436.5</ele><time>2026-04-12T10:05:12.999Z</time></trkpt><trkpt lat="43.57808902074472" lon="12.01147906109248"><ele>436.25</ele><time>2026-04-12T10:05:13.999Z</time></trkpt><trkpt lat="43.578179914382716" lon="12.01138192130694"><ele>436.0</ele><time>2026-04-12T10:05:15Z</time></trkpt><trkpt lat="43.57827167427643" lon="12.011292285215191"><ele>436.0</ele><time>2026-04-12T10:05:16Z</time></trkpt><trkpt lat="43.578371030175205" lon="12.01121340178911"><ele>436.0</ele><time>2026-04-12T10:05:17Z</time></trkpt><trkpt lat="43.57847384836822" lon="12.011137376808161"><ele>436.0</ele><time>2026-04-12T10:05:18Z</time></trkpt><trkpt lat="43.57857627513991" lon="12.01104025495858"><ele>436.0</ele><time>2026-04-12T10:05:19Z</time></trkpt><trkpt lat="43.57867191207689" lon="12.010933501696032"><ele>438.25</ele><time>2026-04-12T10:05:20Z</time></trkpt><trkpt lat="43.57875658316261" lon="12.010828357661941"><ele>440.5</ele><time>2026-04-12T10:05:21Z</time></trkpt><trkpt lat="43.57883065758598" lon="12.010727534128533"><ele>442.75</ele><time>2026-04-12T10:05:22Z</time></trkpt><trkpt lat="43.57890412506484" lon="12.010598838563942"><ele>445.0</ele><time>2026-04-12T10:05:23Z</time></trkpt><trkpt lat="43.578968463151526" lon="12.010439719921887"><ele>445.0</ele><time>2026-04-12T10:05:24Z</time></trkpt><trkpt lat="43.579024725905384" lon="12.01025434078188"><ele>445.0</ele><time>2026-04-12T10:05:25Z</time></trkpt><trkpt lat="43.579069094137246" lon="12.010057477594216"><ele>445.0</ele><time>2026-04-12T10:05:26Z</time></trkpt><trkpt lat="43.57914632572834" lon="12.009859670898939"><ele>441.6666666666667</ele><time>2026-04-12T10:05:27Z</time></trkpt><trkpt lat="43.57922942728537" lon="12.009644037407051"><ele>438.33333333333337</ele><time>2026-04-12T10:05:28Z</time></trkpt><trkpt lat="43.57929247080061" lon="12.009419029080306"><ele>435.0</ele><time>2026-04-12T10:05:29Z</time></trkpt><trkpt lat="43.57933212937177" lon="12.009183283498755"><ele>435.0</ele><time>2026-04-12T10:05:30Z</time></trkpt><trkpt lat="43.57935560224721" lon="12.008958878561966"><ele>435.0</ele><time>2026-04-12T10:05:31Z</time></trkpt><trkpt lat="43.579372089023" lon="12.008725615902364"><ele>435.0</ele><time>2026-04-12T10:05:32Z</time></trkpt><trkpt lat="43.57937006204447" lon="12.00849275599072"><ele>435.66666666666663</ele><time>2026-04-12T10:05:33Z</time></trkpt><trkpt lat="43.57936697276892" lon="12.008258094275018"><ele>436.3333333333333</ele><time>2026-04-12T10:05:34Z</time></trkpt><trkpt lat="43.579365099963425" lon="12.008036110109199"><ele>437.0</ele><time>2026-04-12T10:05:35Z</time></trkpt><trkpt lat="43.5793645352293" lon="12.007807896177878"><ele>437.0</ele><time>2026-04-12T10:05:36Z</time></trkpt><trkpt lat="43.579353131459804" lon="12.007586238978595"><ele>437.0</ele><time>2026-04-12T10:05:37Z</time></trkpt><trkpt lat="43.57932806400564" lon="12.007368987786897"><ele>437.0</ele><time>2026-04-12T10:05:38Z</time></trkpt><trkpt lat="43.57931940148079" lon="12.007160963461319"><ele>438.0</ele><time>2026-04-12T10:05:39Z</time></trkpt><trkpt lat="43.57934563489277" lon="12.00697569934914"><ele>439.0</ele><time>2026-04-12T10:05:40Z</time></trkpt><trkpt lat="43.57940415111843" lon="12.006802386949698"><ele>440.0</ele><time>2026-04-12T10:05:41Z</time></trkpt><trkpt lat="43.57948847651808" lon="12.006649827204443"><ele>441.0</ele><time>2026-04-12T10:05:42Z</time></trkpt><trkpt lat="43.57958667984558" lon="12.006499869679695"><ele>444.66666666666663</ele><time>2026-04-12T10:05:43Z</time></trkpt><trkpt lat="43.579676965894535" lon="12.006346274285406"><ele>448.3333333333333</ele><time>2026-04-12T10:05:44Z</time></trkpt><trkpt lat="43.57976604982996" lon="12.00616484288678"><ele>452.0</ele><time>2026-04-12T10:05:45Z</time></trkpt><trkpt lat="43.57983736199362" lon="12.005971095023549"><ele>453.66666666666663</ele><time>2026-04-12T10:05:46Z</time></trkpt><trkpt lat="43.57988949259102" lon="12.00575382371518"><ele>455.33333333333337</ele><time>2026-04-12T10:05:47Z</time></trkpt><trkpt lat="43.57993059154423" lon="12.005524293448222"><ele>457.0</ele><time>2026-04-12T10:05:48Z</time></trkpt><trkpt lat="43.57996903666845" lon="12.005303950018515"><ele>457.0</ele><time>2026-04-12T10:05:49Z</time></trkpt><trkpt lat="43.58001708033358" lon="12.005075970598087"><ele>457.0</ele><time>2026-04-12T10:05:50Z</time></trkpt><trkpt lat="43.58006042150841" lon="12.004848649537237"><ele>457.0</ele><time>2026-04-12T10:05:51Z</time></trkpt><trkpt lat="43.580101374949955" lon="12.004624538664263"><ele>457.6666666666667</ele><time>2026-04-12T10:05:52Z</time></trkpt><trkpt lat="43.580143722598024" lon="12.004400674626908"><ele>458.33333333333337</ele><time>2026-04-12T10:05:53Z</time></trkpt><trkpt lat="43.580184962225054" lon="12.004189002880658"><ele>459.0</ele><time>2026-04-12T10:05:54Z</time></trkpt><trkpt lat="43.58023199731639" lon="12.003981650506395"><ele>457.66666666666663</ele><time>2026-04-12T10:05:55Z</time></trkpt><trkpt lat="43.58029397126942" lon="12.003774526468979"><ele>456.3333333333333</ele><time>2026-04-12T10:05:56Z</time></trkpt><trkpt lat="43.58037370510569" lon="12.003580945215564"><ele>455.0</ele><time>2026-04-12T10:05:57Z</time></trkpt><trkpt lat="43.580465004991865" lon="12.003395218113463"><ele>460.66666666666663</ele><time>2026-04-12T10:05:58Z</time></trkpt><trkpt lat="43.58055624386879" lon="12.003203467737057"><ele>466.33333333333337</ele><time>2026-04-12T10:05:59Z</time></trkpt><trkpt lat="43.58064742671191" lon="12.00299944787701"><ele>472.0</ele><time>2026-04-12T10:06:00Z</time></trkpt><trkpt lat="43.58073327792499" lon="12.002794917055228"><ele>472.0</ele><time>2026-04-12T10:06:01Z</time></trkpt><trkpt lat="43.58081750976637" lon="12.00259341812282"><ele>472.0</ele><time>2026-04-12T10:06:02Z</time></trkpt><trkpt lat="43.58089745622656" lon="12.002405106006227"><ele>472.0</ele><time>2026-04-12T10:06:03Z</time></trkpt><trkpt lat="43.58098318359741" lon="12.002217328528358"><ele>473.6666666666667</ele><time>2026-04-12T10:06:04Z</time></trkpt><trkpt lat="43.5810861732653" lon="12.002034044466159"><ele>475.33333333333337</ele><time>2026-04-12T10:06:05Z</time></trkpt><trkpt lat="43.5812071403366" lon="12.001875725066707"><ele>477.0</ele><time>2026-04-12T10:06:06Z</time></trkpt><trkpt lat="43.581330129535225" lon="12.001740576290805"><ele>475.66666666666663</ele><time>2026-04-12T10:06:07Z</time></trkpt><trkpt lat="43.58146194583148" lon="12.001632908400481"><ele>474.3333333333333</ele><time>2026-04-12T10:06:08Z</time></trkpt><trkpt lat="43.581596010900924" lon="12.001519328321395"><ele>473.0</ele><time>2026-04-12T10:06:09Z</time></trkpt><trkpt lat="43.58172265544524" lon="12.001401355995036"><ele>473.0</ele><time>2026-04-12T10:06:10Z</time></trkpt><trkpt lat="43.58185576504434" lon="12.001283268151775"><ele>473.0</ele><time>2026-04-12T10:06:11Z</time></trkpt><trkpt lat="43.581979384416734" lon="12.001191094067803"><ele>473.0</ele><time>2026-04-12T10:06:12Z</time></trkpt><trkpt lat="43.582094398825326" lon="12.001104253051704"><ele>473.0</ele><time>2026-04-12T10:06:13Z</time></trkpt><trkpt lat="43.58218910589881" lon="12.001025248662394"><ele>475.79999999999995</ele><time>2026-04-12T10:06:14Z</time></trkpt><trkpt lat="43.5822464782167" lon="12.000940284494469"><ele>478.59999999999997</ele><time>2026-04-12T10:06:15Z</time></trkpt><trkpt lat="43.5822707550069" lon="12.000829180260268"><ele>481.40000000000003</ele><time>2026-04-12T10:06:16Z</time></trkpt><trkpt lat="43.5822567094508" lon="12.000709701175746"><ele>484.20000000000005</ele><time>2026-04-12T10:06:17Z</time></trkpt><trkpt lat="43.58221572890689" lon="12.00057627231211"><ele>487.0</ele><time>2026-04-12T10:06:18Z</time></trkpt><trkpt lat="43.58217739492471" lon="12.000425128123691"><ele>486.0</ele><time>2026-04-12T10:06:19Z</time></trkpt><trkpt lat="43.58213987446611" lon="12.000265870279534"><ele>485.0</ele><time>2026-04-12T10:06:20Z</time></trkpt><trkpt lat="43.58208869098717" lon="12.000101775688563"><ele>484.0</ele><time>2026-04-12T10:06:21Z</time></trkpt><trkpt lat="43.58201358302777" lon="11.999944330945365"><ele>483.0</ele><time>2026-04-12T10:06:22Z</time></trkpt><trkpt lat="43.58192002341799" lon="11.999805576255316"><ele>483.0</ele><time>2026-04-12T10:06:22.999Z</time></trkpt><trkpt lat="43.58181756851385" lon="11.999677122472054"><ele>483.0</ele><time>2026-04-12T10:06:23.999Z</time></trkpt><trkpt lat="43.581713741311816" lon="11.999537343439275"><ele>483.0</ele><time>2026-04-12T10:06:24.999Z</time></trkpt><trkpt lat="43.58162647756717" lon="11.99939047290538"><ele>483.0</ele><time>2026-04-12T10:06:25.999Z</time></trkpt><trkpt lat="43.581552232749985" lon="11.999229848518567"><ele>485.25</ele><time>2026-04-12T10:06:26.999Z</time></trkpt><trkpt lat="43.58149920783256" lon="11.999047790436864"><ele>487.5</ele><time>2026-04-12T10:06:27.999Z</time></trkpt><trkpt lat="43.581475489384665" lon="11.998852167224218"><ele>489.75</ele><time>2026-04-12T10:06:28.999Z</time></trkpt><trkpt lat="43.5814565325203" lon="11.998651002851094"><ele>492.0</ele><time>2026-04-12T10:06:29.999Z</time></trkpt><trkpt lat="43.58144391574657" lon="11.998466846913056"><ele>493.5</ele><time>2026-04-12T10:06:30.999Z</time></trkpt><trkpt lat="43.58145633039131" lon="11.998264750619088"><ele>495.0</ele><time>2026-04-12T10:06:31.999Z</time></trkpt><trkpt lat="43.581504043948996" lon="11.998091137884611"><ele>496.5</ele><time>2026-04-12T10:06:32.999Z</time></trkpt><trkpt lat="43.58158210529509" lon="11.99794507911812"><ele>498.0</ele><time>2026-04-12T10:06:33.999Z</time></trkpt><trkpt lat="43.58167628685407" lon="11.997821384977241"><ele>498.0</ele><time>2026-04-12T10:06:34.999Z</time></trkpt><trkpt lat="43.58174584598653" lon="11.997673533354181"><ele>498.0</ele><time>2026-04-12T10:06:35.999Z</time></trkpt><trkpt lat="43.581791510131836" lon="11.997504387773478"><ele>498.0</ele><time>2026-04-12T10:06:36.999Z</time></trkpt><trkpt lat="43.58179773367033" lon="11.997319795289206"><ele>498.0</ele><time>2026-04-12T10:06:37.999Z</time></trkpt><trkpt lat="43.581769388516236" lon="11.997145211636239"><ele>499.0</ele><time>2026-04-12T10:06:38.999Z</time></trkpt><trkpt lat="43.58170962828579" lon="11.996981326596515"><ele>499.99999999999994</ele><time>2026-04-12T10:06:39.999Z</time></trkpt><trkpt lat="43.58164689866992" lon="11.99684628268664"><ele>500.99999999999994</ele><time>2026-04-12T10:06:40.999Z</time></trkpt><trkpt lat="43.581602794515206" lon="11.996735676752134"><ele>502.0</ele><time>2026-04-12T10:06:41.999Z</time></trkpt><trkpt lat="43.5815962335517" lon="11.996625881230642"><ele>503.0</ele><time>2026-04-12T10:06:42.999Z</time></trkpt><trkpt lat="43.58162608310756" lon="11.996516355843811"><ele>503.79999999999995</ele><time>2026-04-12T10:06:43.999Z</time></trkpt><trkpt lat="43.58169606970794" lon="11.996414608791001"><ele>504.59999999999997</ele><time>2026-04-12T10:06:44.999Z</time></trkpt><trkpt lat="43.58177950625833" lon="11.996346811994837"><ele>505.40000000000003</ele><time>2026-04-12T10:06:45.999Z</time></trkpt><trkpt lat="43.58185445877083" lon="11.996342626940782"><ele>506.20000000000005</ele><time>2026-04-12T10:06:46.999Z</time></trkpt><trkpt lat="43.58193427557154" lon="11.99633096786855"><ele>507.0</ele><time>2026-04-12T10:06:48.999Z</time></trkpt><trkpt lat="43.58196651470195" lon="11.99619949337716"><ele>507.0</ele><time>2026-04-12T10:06:50.999Z</time></trkpt><trkpt lat="43.581985725197804" lon="11.996081793189175"><ele>507.00000000000006</ele><time>2026-04-12T10:06:51.999Z</time></trkpt><trkpt lat="43.58201135375075" lon="11.995939795178387"><ele>507.00000000000006</ele><time>2026-04-12T10:06:52.999Z</time></trkpt><trkpt lat="43.58204825006519" lon="11.995790036059713"><ele>507.0</ele><time>2026-04-12T10:06:53.999Z</time></trkpt><trkpt lat="43.5820856048968" lon="11.995634615354135"><ele>507.0</ele><time>2026-04-12T10:06:54.999Z</time></trkpt><trkpt lat="43.58212476514406" lon="11.995455637895166"><ele>507.75</ele><time>2026-04-12T10:06:55.999Z</time></trkpt><trkpt lat="43.582170202480846" lon="11.99525334248505"><ele>508.5</ele><time>2026-04-12T10:06:56.999Z</time></trkpt><trkpt lat="43.582215435684766" lon="11.995070729480855"><ele>509.25</ele><time>2026-04-12T10:06:57.999Z</time></trkpt><trkpt lat="43.58225716747603" lon="11.994907439698792"><ele>510.0</ele><time>2026-04-12T10:06:58.999Z</time></trkpt><trkpt lat="43.5822970613153" lon="11.99474698760638"><ele>510.0</ele><time>2026-04-12T10:06:59.999Z</time></trkpt><trkpt lat="43.58233896676926" lon="11.994591627819725"><ele>510.0</ele><time>2026-04-12T10:07:00.999Z</time></trkpt><trkpt lat="43.58237727121854" lon="11.994440931205965"><ele>510.0</ele><time>2026-04-12T10:07:01.999Z</time></trkpt><trkpt lat="43.582418158565936" lon="11.994303063744942"><ele>510.0</ele><time>2026-04-12T10:07:02.999Z</time></trkpt><trkpt lat="43.58245672668796" lon="11.994168848287275"><ele>510.0</ele><time>2026-04-12T10:07:03.999Z</time></trkpt><trkpt lat="43.58250694736391" lon="11.994030540876267"><ele>509.0</ele><time>2026-04-12T10:07:04.999Z</time></trkpt><trkpt lat="43.58255911776106" lon="11.993885668262328"><ele>508.0</ele><time>2026-04-12T10:07:05.999Z</time></trkpt><trkpt lat="43.582618507614285" lon="11.993738677032574"><ele>507.0</ele><time>2026-04-12T10:07:06.999Z</time></trkpt><trkpt lat="43.58267916005404" lon="11.993586910256756"><ele>506.0</ele><time>2026-04-12T10:07:07.999Z</time></trkpt><trkpt lat="43.582747896702315" lon="11.99344042858781"><ele>505.25</ele><time>2026-04-12T10:07:08.999Z</time></trkpt><trkpt lat="43.58281820873887" lon="11.993293411860833"><ele>504.5</ele><time>2026-04-12T10:07:09.999Z</time></trkpt><trkpt lat="43.582904087242454" lon="11.993161069577916"><ele>503.75</ele><time>2026-04-12T10:07:10.999Z</time></trkpt><trkpt lat="43.58300926640461" lon="11.9930566968444"><ele>503.0</ele><time>2026-04-12T10:07:11.999Z</time></trkpt><trkpt lat="43.583125496804975" lon="11.992968981322406"><ele>504.75</ele><time>2026-04-12T10:07:12.999Z</time></trkpt><trkpt lat="43.583249603351206" lon="11.99290878472307"><ele>506.5</ele><time>2026-04-12T10:07:13.999Z</time></trkpt><trkpt lat="43.583374324118545" lon="11.992855735008046"><ele>508.25</ele><time>2026-04-12T10:07:14.999Z</time></trkpt><trkpt lat="43.583500093207526" lon="11.992793661555714"><ele>510.0</ele><time>2026-04-12T10:07:15.999Z</time></trkpt><trkpt lat="43.583618289577906" lon="11.992714432835395"><ele>511.5</ele><time>2026-04-12T10:07:16.999Z</time></trkpt><trkpt lat="43.58374060119037" lon="11.992643969718026"><ele>513.0</ele><time>2026-04-12T10:07:17.999Z</time></trkpt><trkpt lat="43.583866076974616" lon="11.992591592692646"><ele>514.5</ele><time>2026-04-12T10:07:18.999Z</time></trkpt><trkpt lat="43.58398655812378" lon="11.992540975123799"><ele>516.0</ele><time>2026-04-12T10:07:19.999Z</time></trkpt><trkpt lat="43.58410740815885" lon="11.992480987894151"><ele>516.0</ele><time>2026-04-12T10:07:21Z</time></trkpt><trkpt lat="43.584223895703275" lon="11.992406270084567"><ele>516.0</ele><time>2026-04-12T10:07:22Z</time></trkpt><trkpt lat="43.58433078558948" lon="11.99231158284977"><ele>516.0</ele><time>2026-04-12T10:07:23Z</time></trkpt><trkpt lat="43.58442954253304" lon="11.992192544749825"><ele>516.0</ele><time>2026-04-12T10:07:24Z</time></trkpt><trkpt lat="43.584529779895504" lon="11.992066443638981"><ele>517.6</ele><time>2026-04-12T10:07:25Z</time></trkpt><trkpt lat="43.58461243420483" lon="11.991944870306328"><ele>519.2</ele><time>2026-04-12T10:07:26Z</time></trkpt><trkpt lat="43.58466634764626" lon="11.991814835608771"><ele>520.8</ele><time>2026-04-12T10:07:27Z</time></trkpt><trkpt lat="43.58468972464149" lon="11.99168688973985"><ele>522.4</ele><time>2026-04-12T10:07:28Z</time></trkpt><trkpt lat="43.58466996574238" lon="11.991543633689544"><ele>524.0</ele><time>2026-04-12T10:07:29Z</time></trkpt><trkpt lat="43.58461831235647" lon="11.991399022268835"><ele>524.0</ele><time>2026-04-12T10:07:30Z</time></trkpt><trkpt lat="43.584540375279445" lon="11.991257879697866"><ele>524.0</ele><time>2026-04-12T10:07:31Z</time></trkpt><trkpt lat="43.58445938207569" lon="11.991118776573657"><ele>524.0</ele><time>2026-04-12T10:07:32Z</time></trkpt><trkpt lat="43.58438236410682" lon="11.990965550146813"><ele>524.0</ele><time>2026-04-12T10:07:33Z</time></trkpt><trkpt lat="43.58431445272789" lon="11.990839950415996"><ele>523.0</ele><time>2026-04-12T10:07:34Z</time></trkpt><trkpt lat="43.58425087847702" lon="11.990722276007743"><ele>522.0</ele><time>2026-04-12T10:07:35Z</time></trkpt><trkpt lat="43.58417933499178" lon="11.990627848187536"><ele>521.0</ele><time>2026-04-12T10:07:36Z</time></trkpt><trkpt lat="43.584092985491594" lon="11.990575939715693"><ele>520.0</ele><time>2026-04-12T10:07:37Z</time></trkpt><trkpt lat="43.583997060453875" lon="11.990569887862085"><ele>519.0</ele><time>2026-04-12T10:07:38Z</time></trkpt><trkpt lat="43.58388547804073" lon="11.990645246251722"><ele>519.0</ele><time>2026-04-12T10:07:39Z</time></trkpt><trkpt lat="43.583800795976806" lon="11.990768840090222"><ele>519.0</ele><time>2026-04-12T10:07:40Z</time></trkpt><trkpt lat="43.58372916807623" lon="11.990900461799528"><ele>519.0</ele><time>2026-04-12T10:07:41Z</time></trkpt><trkpt lat="43.583650755994796" lon="11.990986168443618"><ele>519.0</ele><time>2026-04-12T10:07:42Z</time></trkpt><trkpt lat="43.583573478722336" lon="11.991013334074376"><ele>519.0</ele><time>2026-04-12T10:07:43Z</time></trkpt><trkpt lat="43.58350365076335" lon="11.99089798452239"><ele>519.0</ele><time>2026-04-12T10:07:45Z</time></trkpt><trkpt lat="43.583568159186306" lon="11.990718134323469"><ele>519.0</ele><time>2026-04-12T10:07:47Z</time></trkpt><trkpt lat="43.583637348882434" lon="11.990637434571587"><ele>519.0</ele><time>2026-04-12T10:07:48Z</time></trkpt><trkpt lat="43.583706226896716" lon="11.990546125339236"><ele>519.0</ele><time>2026-04-12T10:07:49Z</time></trkpt><trkpt lat="43.58377925388469" lon="11.990446411108012"><ele>519.0</ele><time>2026-04-12T10:07:50Z</time></trkpt><trkpt lat="43.5838446180044" lon="11.990342676701829"><ele>519.0</ele><time>2026-04-12T10:07:51Z</time></trkpt><trkpt lat="43.58391272493587" lon="11.990211520933883"><ele>519.0</ele><time>2026-04-12T10:07:52Z</time></trkpt><trkpt lat="43.58395376141055" lon="11.990069692444893"><ele>519.0</ele><time>2026-04-12T10:07:53Z</time></trkpt><trkpt lat="43.58397338604059" lon="11.989883322697903"><ele>519.0</ele><time>2026-04-12T10:07:54Z</time></trkpt><trkpt lat="43.58398826067558" lon="11.989711358401353"><ele>521.25</ele><time>2026-04-12T10:07:55Z</time></trkpt><trkpt lat="43.58398800748035" lon="11.98953700441422"><ele>523.5</ele><time>2026-04-12T10:07:56Z</time></trkpt><trkpt lat="43.58397606252571" lon="11.98937446030396"><ele>525.75</ele><time>2026-04-12T10:07:57Z</time></trkpt><trkpt lat="43.58394424223163" lon="11.989232288077817"><ele>528.0</ele><time>2026-04-12T10:07:58Z</time></trkpt><trkpt lat="43.58388524307149" lon="11.989112520601143"><ele>530.0</ele><time>2026-04-12T10:07:59Z</time></trkpt><trkpt lat="43.583805279453244" lon="11.989007864408478"><ele>532.0</ele><time>2026-04-12T10:08:00Z</time></trkpt><trkpt lat="43.58369979891174" lon="11.9889227838151"><ele>534.0</ele><time>2026-04-12T10:08:01Z</time></trkpt><trkpt lat="43.58358248125403" lon="11.988850645487068"><ele>536.0</ele><time>2026-04-12T10:08:02Z</time></trkpt><trkpt lat="43.58345943855639" lon="11.988782655316252"><ele>536.75</ele><time>2026-04-12T10:08:03Z</time></trkpt><trkpt lat="43.583336114238" lon="11.988713078810502"><ele>537.5</ele><time>2026-04-12T10:08:04Z</time></trkpt><trkpt lat="43.583216134215995" lon="11.988643215182037"><ele>538.25</ele><time>2026-04-12T10:08:05Z</time></trkpt><trkpt lat="43.583088373870524" lon="11.988573814023516"><ele>539.0</ele><time>2026-04-12T10:08:06Z</time></trkpt><trkpt lat="43.58295321987481" lon="11.98849544698422"><ele>538.0</ele><time>2026-04-12T10:08:07Z</time></trkpt><trkpt lat="43.58281455546244" lon="11.988411339427913"><ele>537.0</ele><time>2026-04-12T10:08:08Z</time></trkpt><trkpt lat="43.582674885969524" lon="11.988335778567535"><ele>536.0</ele><time>2026-04-12T10:08:09Z</time></trkpt><trkpt lat="43.582535772315346" lon="11.988262327503485"><ele>538.75</ele><time>2026-04-12T10:08:10Z</time></trkpt><trkpt lat="43.58239915321502" lon="11.988191887744312"><ele>541.5</ele><time>2026-04-12T10:08:11Z</time></trkpt><trkpt lat="43.5822723254505" lon="11.988124595914716"><ele>544.25</ele><time>2026-04-12T10:08:12Z</time></trkpt><trkpt lat="43.58216578937069" lon="11.988064853705252"><ele>547.0</ele><time>2026-04-12T10:08:13Z</time></trkpt><trkpt lat="43.58206497019826" lon="11.988006605657096"><ele>546.1666666666667</ele><time>2026-04-12T10:08:14Z</time></trkpt><trkpt lat="43.58197799658096" lon="11.98795835489417"><ele>545.3333333333334</ele><time>2026-04-12T10:08:15Z</time></trkpt><trkpt lat="43.58189946881688" lon="11.987923855316888"><ele>544.5</ele><time>2026-04-12T10:08:16Z</time></trkpt><trkpt lat="43.581833816386165" lon="11.987891177669816"><ele>543.6666666666666</ele><time>2026-04-12T10:08:17Z</time></trkpt><trkpt lat="43.581750615784905" lon="11.987804220860403"><ele>542.8333333333333</ele><time>2026-04-12T10:08:18.999Z</time></trkpt><trkpt lat="43.5817082290995" lon="11.98773173571839"><ele>542.0</ele><time>2026-04-12T10:08:20.999Z</time></trkpt><trkpt lat="43.58163592057681" lon="11.987673044329853"><ele>542.0</ele><time>2026-04-12T10:08:27.999Z</time></trkpt><trkpt lat="43.58151158369255" lon="11.987693576944759"><ele>542.0</ele><time>2026-04-12T10:08:29.999Z</time></trkpt><trkpt lat="43.58140057311579" lon="11.987736045833179"><ele>542.0</ele><time>2026-04-12T10:08:31.999Z</time></trkpt><trkpt lat="43.58128555102322" lon="11.987766647539305"><ele>542.0</ele><time>2026-04-12T10:08:33.999Z</time></trkpt><trkpt lat="43.58121894771423" lon="11.987781479243226"><ele>542.0</ele><time>2026-04-12T10:08:34.999Z</time></trkpt><trkpt lat="43.581109860075756" lon="11.987804481332688"><ele>541.3333333333333</ele><time>2026-04-12T10:08:36.999Z</time></trkpt><trkpt lat="43.58102884525773" lon="11.98779822249535"><ele>540.6666666666666</ele><time>2026-04-12T10:08:38.999Z</time></trkpt><trkpt lat="43.580965939251975" lon="11.98778907397592"><ele>540.0</ele><time>2026-04-12T10:08:40.999Z</time></trkpt><trkpt lat="43.580900041284345" lon="11.987776097069558"><ele>539.3333333333334</ele><time>2026-04-12T10:08:43.999Z</time></trkpt><trkpt lat="43.580826515846326" lon="11.98775246418389"><ele>538.6666666666667</ele><time>2026-04-12T10:08:46.999Z</time></trkpt><trkpt lat="43.580752497717825" lon="11.987717872076166"><ele>538.0</ele><time>2026-04-12T10:08:47.999Z</time></trkpt><trkpt lat="43.580675156597955" lon="11.987669237062708"><ele>538.0</ele><time>2026-04-12T10:08:48.999Z</time></trkpt><trkpt lat="43.58060698084117" lon="11.98760946281349"><ele>538.0</ele><time>2026-04-12T10:08:49.999Z</time></trkpt><trkpt lat="43.58055095302774" lon="11.987550663392554"><ele>538.0</ele><time>2026-04-12T10:08:50.999Z</time></trkpt><trkpt lat="43.58044187714459" lon="11.987494482796437"><ele>538.0</ele><time>2026-04-12T10:08:52.999Z</time></trkpt><trkpt lat="43.58037840972368" lon="11.987507213794942"><ele>538.0</ele><time>2026-04-12T10:08:53.999Z</time></trkpt><trkpt lat="43.580299325380345" lon="11.987525222807115"><ele>538.0</ele><time>2026-04-12T10:08:54.999Z</time></trkpt><trkpt lat="43.580228636167305" lon="11.987532966904377"><ele>536.3333333333334</ele><time>2026-04-12T10:08:55.999Z</time></trkpt><trkpt lat="43.58015296924743" lon="11.987531712976619"><ele>534.6666666666667</ele><time>2026-04-12T10:08:56.999Z</time></trkpt><trkpt lat="43.58004256289524" lon="11.987552204454808"><ele>533.0</ele><time>2026-04-12T10:08:58.999Z</time></trkpt><trkpt lat="43.57996190493799" lon="11.987573771771514"><ele>531.3333333333334</ele><time>2026-04-12T10:09:00.999Z</time></trkpt><trkpt lat="43.5798950293851" lon="11.987588578909017"><ele>529.6666666666666</ele><time>2026-04-12T10:09:01.999Z</time></trkpt><trkpt lat="43.57981158961711" lon="11.987617102947464"><ele>528.0</ele><time>2026-04-12T10:09:02.999Z</time></trkpt><trkpt lat="43.57973246399617" lon="11.987634489769157"><ele>528.0</ele><time>2026-04-12T10:09:03.999Z</time></trkpt><trkpt lat="43.579660704247594" lon="11.987651873631082"><ele>528.0</ele><time>2026-04-12T10:09:04.999Z</time></trkpt><trkpt lat="43.57960103793363" lon="11.987686772544738"><ele>528.0</ele><time>2026-04-12T10:09:05.999Z</time></trkpt><trkpt lat="43.57953131204436" lon="11.987665630950042"><ele>528.0</ele><time>2026-04-12T10:09:07.999Z</time></trkpt><trkpt lat="43.5794258407005" lon="11.987565339122135"><ele>528.0</ele><time>2026-04-12T10:09:09.999Z</time></trkpt><trkpt lat="43.57935143894945" lon="11.987539348977347"><ele>528.0</ele><time>2026-04-12T10:09:10.999Z</time></trkpt><trkpt lat="43.579246525830335" lon="11.987483872025562"><ele>526.1666666666666</ele><time>2026-04-12T10:09:12.999Z</time></trkpt><trkpt lat="43.57920062442544" lon="11.987407023154486"><ele>524.3333333333334</ele><time>2026-04-12T10:09:13.999Z</time></trkpt><trkpt lat="43.579158719083196" lon="11.987328125485769"><ele>522.5</ele><time>2026-04-12T10:09:14.999Z</time></trkpt><trkpt lat="43.57910780911153" lon="11.987243784740881"><ele>520.6666666666667</ele><time>2026-04-12T10:09:15.999Z</time></trkpt><trkpt lat="43.57906026499551" lon="11.987132924184094"><ele>518.8333333333334</ele><time>2026-04-12T10:09:16.999Z</time></trkpt><trkpt lat="43.579007292727944" lon="11.987007220142734"><ele>517.0</ele><time>2026-04-12T10:09:17.999Z</time></trkpt><trkpt lat="43.57896122129141" lon="11.98688081655652"><ele>517.0</ele><time>2026-04-12T10:09:18.999Z</time></trkpt><trkpt lat="43.57891358447811" lon="11.986767095358259"><ele>517.0</ele><time>2026-04-12T10:09:19.999Z</time></trkpt><trkpt lat="43.578870889070856" lon="11.986677031008448"><ele>517.0</ele><time>2026-04-12T10:09:20.999Z</time></trkpt><trkpt lat="43.57883748457387" lon="11.98658110183109"><ele>517.0</ele><time>2026-04-12T10:09:21.999Z</time></trkpt><trkpt lat="43.57878782727636" lon="11.986452556874502"><ele>517.0</ele><time>2026-04-12T10:09:23.998Z</time></trkpt><trkpt lat="43.57867278401912" lon="11.986439339877752"><ele>515.2857142857143</ele><time>2026-04-12T10:09:25.998Z</time></trkpt><trkpt lat="43.578601465242826" lon="11.986483291468732"><ele>513.5714285714287</ele><time>2026-04-12T10:09:27Z</time></trkpt><trkpt lat="43.578539265049486" lon="11.986510898519729"><ele>511.8571428571429</ele><time>2026-04-12T10:09:28Z</time></trkpt><trkpt lat="43.578478916115834" lon="11.986552423408225"><ele>510.1428571428571</ele><time>2026-04-12T10:09:29Z</time></trkpt><trkpt lat="43.5784043123391" lon="11.98656422940869"><ele>508.4285714285714</ele><time>2026-04-12T10:09:30Z</time></trkpt><trkpt lat="43.57833735239392" lon="11.98656506367991"><ele>506.71428571428567</ele><time>2026-04-12T10:09:31Z</time></trkpt><trkpt lat="43.57826073489546" lon="11.98655288075568"><ele>505.0</ele><time>2026-04-12T10:09:32Z</time></trkpt><trkpt lat="43.578190619108796" lon="11.986543112454788"><ele>505.00000000000006</ele><time>2026-04-12T10:09:33Z</time></trkpt><trkpt lat="43.57812643401119" lon="11.986560566182765"><ele>505.0</ele><time>2026-04-12T10:09:34Z</time></trkpt><trkpt lat="43.578080595903764" lon="11.986634096859008"><ele>505.0</ele><time>2026-04-12T10:09:35Z</time></trkpt><trkpt lat="43.57804749057943" lon="11.986726977996442"><ele>505.0</ele><time>2026-04-12T10:09:36Z</time></trkpt><trkpt lat="43.5779932159457" lon="11.986782617151329"><ele>505.00000000000006</ele><time>2026-04-12T10:09:37Z</time></trkpt><trkpt lat="43.57789337550389" lon="11.986737418490087"><ele>505.0</ele><time>2026-04-12T10:09:39Z</time></trkpt><trkpt lat="43.577809692035224" lon="11.986688016044926"><ele>503.2</ele><time>2026-04-12T10:09:40Z</time></trkpt><trkpt lat="43.57773165322063" lon="11.986661151674294"><ele>501.4</ele><time>2026-04-12T10:09:41Z</time></trkpt><trkpt lat="43.57764548455225" lon="11.986642495378797"><ele>499.6</ele><time>2026-04-12T10:09:42Z</time></trkpt><trkpt lat="43.5775520948274" lon="11.98667388917541"><ele>497.8</ele><time>2026-04-12T10:09:43Z</time></trkpt><trkpt lat="43.57743575486353" lon="11.986682072387268"><ele>496.0</ele><time>2026-04-12T10:09:44Z</time></trkpt><trkpt lat="43.57734450700206" lon="11.986672657414816"><ele>496.00000000000006</ele><time>2026-04-12T10:09:45Z</time></trkpt><trkpt lat="43.577263282646406" lon="11.986659882739678"><ele>496.0</ele><time>2026-04-12T10:09:46Z</time></trkpt><trkpt lat="43.577176919544364" lon="11.986634324533675"><ele>496.0</ele><time>2026-04-12T10:09:47Z</time></trkpt><trkpt lat="43.57709443571899" lon="11.986649793177978"><ele>496.0</ele><time>2026-04-12T10:09:48Z</time></trkpt><trkpt lat="43.577022870356295" lon="11.986695506264851"><ele>496.00000000000006</ele><time>2026-04-12T10:09:49Z</time></trkpt><trkpt lat="43.57696613111302" lon="11.986735273539313"><ele>496.0</ele><time>2026-04-12T10:09:50Z</time></trkpt><trkpt lat="43.57686093959251" lon="11.986752931566071"><ele>495.0</ele><time>2026-04-12T10:09:52Z</time></trkpt><trkpt lat="43.576749908154916" lon="11.986696650082598"><ele>494.0</ele><time>2026-04-12T10:09:54Z</time></trkpt><trkpt lat="43.576628479356366" lon="11.986609023440389"><ele>493.0</ele><time>2026-04-12T10:09:56Z</time></trkpt><trkpt lat="43.57656382618715" lon="11.986570650781271"><ele>492.0</ele><time>2026-04-12T10:09:57Z</time></trkpt><trkpt lat="43.57649537517075" lon="11.986558851328809"><ele>491.0</ele><time>2026-04-12T10:09:58Z</time></trkpt><trkpt lat="43.5764264538994" lon="11.986544054857902"><ele>490.99999999999994</ele><time>2026-04-12T10:09:59Z</time></trkpt><trkpt lat="43.576366537052266" lon="11.986516456312502"><ele>491.0</ele><time>2026-04-12T10:10:00Z</time></trkpt><trkpt lat="43.576303211197384" lon="11.98645865140686"><ele>491.0</ele><time>2026-04-12T10:10:02Z</time></trkpt><trkpt lat="43.57623363222185" lon="11.986399195930934"><ele>491.0</ele><time>2026-04-12T10:10:07Z</time></trkpt><trkpt lat="43.57617555904161" lon="11.986358753235537"><ele>490.99999999999994</ele><time>2026-04-12T10:10:10Z</time></trkpt><trkpt lat="43.57605778063109" lon="11.986340733373066"><ele>491.0</ele><time>2026-04-12T10:10:12Z</time></trkpt><trkpt lat="43.575979186816014" lon="11.986314138394713"><ele>492.0</ele><time>2026-04-12T10:10:13Z</time></trkpt><trkpt lat="43.57592434880339" lon="11.986237269540384"><ele>493.0</ele><time>2026-04-12T10:10:14Z</time></trkpt><trkpt lat="43.575882399991144" lon="11.986136374548998"><ele>494.0</ele><time>2026-04-12T10:10:15Z</time></trkpt><trkpt lat="43.575839371652165" lon="11.98600985053472"><ele>495.0</ele><time>2026-04-12T10:10:16Z</time></trkpt><trkpt lat="43.57578633027021" lon="11.985887243592767"><ele>496.0</ele><time>2026-04-12T10:10:17Z</time></trkpt><trkpt lat="43.575733504675206" lon="11.985769167180148"><ele>496.0</ele><time>2026-04-12T10:10:17.999Z</time></trkpt><trkpt lat="43.57563546304882" lon="11.985773486893047"><ele>496.0</ele><time>2026-04-12T10:10:19.999Z</time></trkpt><trkpt lat="43.57561086388686" lon="11.9859357492782"><ele>496.0</ele><time>2026-04-12T10:10:21.999Z</time></trkpt><trkpt lat="43.575604642656295" lon="11.986085911150031"><ele>496.0</ele><time>2026-04-12T10:10:22.999Z</time></trkpt><trkpt lat="43.57560053234132" lon="11.986262188991162"><ele>496.00000000000006</ele><time>2026-04-12T10:10:23.999Z</time></trkpt><trkpt lat="43.575594119886624" lon="11.986355161370366"><ele>496.0</ele><time>2026-04-12T10:10:24.999Z</time></trkpt><trkpt lat="43.57558995722867" lon="11.986464728541895"><ele>496.0</ele><time>2026-04-12T10:10:25.999Z</time></trkpt><trkpt lat="43.57559424864018" lon="11.986584442815655"><ele>496.0</ele><time>2026-04-12T10:10:26.999Z</time></trkpt><trkpt lat="43.57561061765073" lon="11.986764026303524"><ele>496.00000000000006</ele><time>2026-04-12T10:10:28.999Z</time></trkpt><trkpt lat="43.575615383730046" lon="11.986871201123789"><ele>496.0</ele><time>2026-04-12T10:10:29.999Z</time></trkpt><trkpt lat="43.575565918644" lon="11.986995082786098"><ele>496.0</ele><time>2026-04-12T10:10:31.999Z</time></trkpt><trkpt lat="43.57544608771012" lon="11.986985763175545"><ele>496.0</ele><time>2026-04-12T10:10:33.999Z</time></trkpt><trkpt lat="43.575415961681976" lon="11.986841864481047"><ele>496.0</ele><time>2026-04-12T10:10:35.999Z</time></trkpt><trkpt lat="43.5754053978723" lon="11.986716829489668"><ele>496.0</ele><time>2026-04-12T10:10:36.999Z</time></trkpt><trkpt lat="43.57536592965" lon="11.986628776065075"><ele>496.0</ele><time>2026-04-12T10:10:37.999Z</time></trkpt><trkpt lat="43.575313622245694" lon="11.986564463016778"><ele>500.20000000000005</ele><time>2026-04-12T10:10:38.999Z</time></trkpt><trkpt lat="43.5752131356568" lon="11.986608795528124"><ele>504.40000000000003</ele><time>2026-04-12T10:10:40.999Z</time></trkpt><trkpt lat="43.57518176822444" lon="11.98670000569629"><ele>508.6</ele><time>2026-04-12T10:10:41.999Z</time></trkpt><trkpt lat="43.575152229410286" lon="11.98677932106199"><ele>512.8000000000001</ele><time>2026-04-12T10:10:42.999Z</time></trkpt><trkpt lat="43.575128430442604" lon="11.98702040128503"><ele>517.0</ele><time>2026-04-12T10:10:44.999Z</time></trkpt><trkpt lat="43.575150985643056" lon="11.987132415601074"><ele>517.4</ele><time>2026-04-12T10:10:45.999Z</time></trkpt><trkpt lat="43.575084888340065" lon="11.987208782496579"><ele>517.8000000000001</ele><time>2026-04-12T10:10:47.999Z</time></trkpt><trkpt lat="43.574988394622835" lon="11.987119606487916"><ele>518.2</ele><time>2026-04-12T10:10:49.999Z</time></trkpt><trkpt lat="43.574970760069135" lon="11.987022211798962"><ele>518.6</ele><time>2026-04-12T10:10:50.999Z</time></trkpt><trkpt lat="43.57494001309162" lon="11.986892522814696"><ele>519.0</ele><time>2026-04-12T10:10:51.999Z</time></trkpt><trkpt lat="43.57487920172001" lon="11.986787242705095"><ele>519.0</ele><time>2026-04-12T10:10:52.999Z</time></trkpt><trkpt lat="43.574803741142674" lon="11.986714416719646"><ele>519.0</ele><time>2026-04-12T10:10:53.999Z</time></trkpt><trkpt lat="43.57473520933019" lon="11.986641964275451"><ele>519.0</ele><time>2026-04-12T10:10:54.999Z</time></trkpt><trkpt lat="43.574649803833665" lon="11.986570146522762"><ele>519.0</ele><time>2026-04-12T10:10:55.999Z</time></trkpt><trkpt lat="43.5745709724411" lon="11.986508779946433"><ele>519.0</ele><time>2026-04-12T10:10:56.999Z</time></trkpt><trkpt lat="43.57450407909115" lon="11.986448208249085"><ele>519.0</ele><time>2026-04-12T10:10:57.999Z</time></trkpt><trkpt lat="43.57443552457198" lon="11.986440547126827"><ele>521.5</ele><time>2026-04-12T10:10:58.999Z</time></trkpt><trkpt lat="43.57437589179565" lon="11.986496609859994"><ele>524.0</ele><time>2026-04-12T10:10:59.999Z</time></trkpt><trkpt lat="43.574365966588665" lon="11.986587729223995"><ele>526.5</ele><time>2026-04-12T10:11:00.999Z</time></trkpt><trkpt lat="43.57435140855132" lon="11.986710983786345"><ele>529.0</ele><time>2026-04-12T10:11:01.999Z</time></trkpt><trkpt lat="43.574311124424234" lon="11.986815051394247"><ele>531.5</ele><time>2026-04-12T10:11:02.999Z</time></trkpt><trkpt lat="43.574256100398706" lon="11.986918420757384"><ele>534.0</ele><time>2026-04-12T10:11:03.999Z</time></trkpt><trkpt lat="43.57420999364345" lon="11.987025647561575"><ele>534.0</ele><time>2026-04-12T10:11:04.999Z</time></trkpt><trkpt lat="43.57415051592374" lon="11.987130906546065"><ele>534.0</ele><time>2026-04-12T10:11:05.999Z</time></trkpt><trkpt lat="43.574091382379535" lon="11.98724842402268"><ele>534.0</ele><time>2026-04-12T10:11:06.999Z</time></trkpt><trkpt lat="43.57404230171423" lon="11.987356578954689"><ele>534.0</ele><time>2026-04-12T10:11:07.999Z</time></trkpt><trkpt lat="43.57398782020886" lon="11.987471236932217"><ele>534.0</ele><time>2026-04-12T10:11:08.999Z</time></trkpt><trkpt lat="43.57396740334158" lon="11.987617208855113"><ele>533.6666666666666</ele><time>2026-04-12T10:11:09.999Z</time></trkpt><trkpt lat="43.573923745317224" lon="11.987715800562771"><ele>533.3333333333334</ele><time>2026-04-12T10:11:10.999Z</time></trkpt><trkpt lat="43.573891128990184" lon="11.98779159157869"><ele>533.0</ele><time>2026-04-12T10:11:11.999Z</time></trkpt><trkpt lat="43.57376723906176" lon="11.987817953749436"><ele>532.6666666666667</ele><time>2026-04-12T10:11:13.999Z</time></trkpt><trkpt lat="43.5736834386174" lon="11.987792515165847"><ele>532.3333333333334</ele><time>2026-04-12T10:11:14.999Z</time></trkpt><trkpt lat="43.57361390755722" lon="11.987763921910615"><ele>532.0</ele><time>2026-04-12T10:11:15.999Z</time></trkpt><trkpt lat="43.5735415741138" lon="11.987742760445206"><ele>534.6</ele><time>2026-04-12T10:11:16.999Z</time></trkpt><trkpt lat="43.57342675676465" lon="11.987711003413935"><ele>537.2</ele><time>2026-04-12T10:11:17.999Z</time></trkpt><trkpt lat="43.57335059724051" lon="11.987708879488531"><ele>539.8</ele><time>2026-04-12T10:11:18.999Z</time></trkpt><trkpt lat="43.573232543743686" lon="11.98773649148463"><ele>542.4</ele><time>2026-04-12T10:11:19.999Z</time></trkpt><trkpt lat="43.57314074127422" lon="11.987790256142226"><ele>545.0</ele><time>2026-04-12T10:11:20.998Z</time></trkpt><trkpt lat="43.57305025743227" lon="11.987823982389118"><ele>545.0</ele><time>2026-04-12T10:11:21.998Z</time></trkpt><trkpt lat="43.572950515341965" lon="11.987872955865242"><ele>545.0</ele><time>2026-04-12T10:11:22.998Z</time></trkpt><trkpt lat="43.57285945657426" lon="11.987921342514264"><ele>545.0</ele><time>2026-04-12T10:11:23.998Z</time></trkpt><trkpt lat="43.572777800881404" lon="11.987952678953556"><ele>545.0</ele><time>2026-04-12T10:11:24.998Z</time></trkpt><trkpt lat="43.57267092434783" lon="11.987973308525618"><ele>545.0</ele><time>2026-04-12T10:11:26.998Z</time></trkpt><trkpt lat="43.57264296254539" lon="11.987849793157805"><ele>547.6666666666666</ele><time>2026-04-12T10:11:28.998Z</time></trkpt><trkpt lat="43.57265233263845" lon="11.987756547695875"><ele>550.3333333333333</ele><time>2026-04-12T10:11:29.998Z</time></trkpt><trkpt lat="43.572657686895866" lon="11.987631192983478"><ele>553.0</ele><time>2026-04-12T10:11:30.998Z</time></trkpt><trkpt lat="43.572643164223145" lon="11.987507654215078"><ele>555.6666666666666</ele><time>2026-04-12T10:11:31.998Z</time></trkpt><trkpt lat="43.572642570131656" lon="11.987379628382948"><ele>558.3333333333334</ele><time>2026-04-12T10:11:33Z</time></trkpt><trkpt lat="43.57264134510045" lon="11.987266499929433"><ele>561.0</ele><time>2026-04-12T10:11:34Z</time></trkpt><trkpt lat="43.57267949017762" lon="11.98710012937527"><ele>561.6666666666666</ele><time>2026-04-12T10:11:36Z</time></trkpt><trkpt lat="43.57271987783808" lon="11.986997242357697"><ele>562.3333333333334</ele><time>2026-04-12T10:11:37Z</time></trkpt><trkpt lat="43.57274365256667" lon="11.986893720483879"><ele>563.0</ele><time>2026-04-12T10:11:38Z</time></trkpt><trkpt lat="43.57275850850552" lon="11.986789095273652"><ele>563.6666666666667</ele><time>2026-04-12T10:11:39Z</time></trkpt><trkpt lat="43.57277215468315" lon="11.986675694455622"><ele>564.3333333333334</ele><time>2026-04-12T10:11:40Z</time></trkpt><trkpt lat="43.572810544334644" lon="11.986540818398048"><ele>565.0</ele><time>2026-04-12T10:11:41Z</time></trkpt><trkpt lat="43.57282992183115" lon="11.986411123161076"><ele>565.8333333333334</ele><time>2026-04-12T10:11:42Z</time></trkpt><trkpt lat="43.57281553336342" lon="11.986288704524029"><ele>566.6666666666667</ele><time>2026-04-12T10:11:43Z</time></trkpt><trkpt lat="43.572808136578296" lon="11.986158236308786"><ele>567.5</ele><time>2026-04-12T10:11:44Z</time></trkpt><trkpt lat="43.572776207466845" lon="11.986058586897885"><ele>568.3333333333334</ele><time>2026-04-12T10:11:45Z</time></trkpt><trkpt lat="43.57273104878154" lon="11.985986215394002"><ele>569.1666666666666</ele><time>2026-04-12T10:11:46Z</time></trkpt><trkpt lat="43.57266700491483" lon="11.985954387981405"><ele>570.0</ele><time>2026-04-12T10:11:47Z</time></trkpt><trkpt lat="43.572600455053" lon="11.985929953424067"><ele>570.0</ele><time>2026-04-12T10:11:48Z</time></trkpt><trkpt lat="43.57248469257993" lon="11.985870369749106"><ele>570.0</ele><time>2026-04-12T10:11:50Z</time></trkpt><trkpt lat="43.57245354299488" lon="11.985778054143404"><ele>570.0</ele><time>2026-04-12T10:11:51Z</time></trkpt><trkpt lat="43.572455622811205" lon="11.985663732178443"><ele>570.0</ele><time>2026-04-12T10:11:52Z</time></trkpt><trkpt lat="43.572489348567586" lon="11.985571518799475"><ele>570.0</ele><time>2026-04-12T10:11:53Z</time></trkpt><trkpt lat="43.57251371735289" lon="11.985434903266526"><ele>569.6</ele><time>2026-04-12T10:11:54Z</time></trkpt><trkpt lat="43.572563589000424" lon="11.985283936318217"><ele>569.2</ele><time>2026-04-12T10:11:55Z</time></trkpt><trkpt lat="43.57261193314171" lon="11.985155676887983"><ele>568.8</ele><time>2026-04-12T10:11:56Z</time></trkpt><trkpt lat="43.57267383427487" lon="11.985062627874708"><ele>568.4</ele><time>2026-04-12T10:11:57Z</time></trkpt><trkpt lat="43.57275830457567" lon="11.984987709590726"><ele>568.0</ele><time>2026-04-12T10:11:58Z</time></trkpt><trkpt lat="43.57286188348177" lon="11.984909554060884"><ele>568.0</ele><time>2026-04-12T10:11:59Z</time></trkpt><trkpt lat="43.572961310806704" lon="11.984791607773817"><ele>568.0</ele><time>2026-04-12T10:12:00Z</time></trkpt><trkpt lat="43.573038486377826" lon="11.984681187628793"><ele>568.0</ele><time>2026-04-12T10:12:01Z</time></trkpt><trkpt lat="43.57308736003624" lon="11.984574404941377"><ele>568.0</ele><time>2026-04-12T10:12:02Z</time></trkpt><trkpt lat="43.57309692012233" lon="11.984460767723744"><ele>568.0</ele><time>2026-04-12T10:12:03Z</time></trkpt><trkpt lat="43.573087589884686" lon="11.9842996530985"><ele>569.4</ele><time>2026-04-12T10:12:04Z</time></trkpt><trkpt lat="43.57308566759667" lon="11.984149791215069"><ele>570.8</ele><time>2026-04-12T10:12:05Z</time></trkpt><trkpt lat="43.57309912097938" lon="11.984013127621713"><ele>572.2</ele><time>2026-04-12T10:12:06Z</time></trkpt><trkpt lat="43.573120924849576" lon="11.983885952904986"><ele>573.6</ele><time>2026-04-12T10:12:07Z</time></trkpt><trkpt lat="43.57316259833629" lon="11.983770016325346"><ele>575.0</ele><time>2026-04-12T10:12:08Z</time></trkpt><trkpt lat="43.57321300550843" lon="11.983661801931568"><ele>575.0</ele><time>2026-04-12T10:12:09Z</time></trkpt><trkpt lat="43.573147208733495" lon="11.983432960945558"><ele>575.0</ele><time>2026-04-12T10:12:12Z</time></trkpt><trkpt lat="43.573074784795686" lon="11.983377667752082"><ele>575.0</ele><time>2026-04-12T10:12:13Z</time></trkpt><trkpt lat="43.5729761486797" lon="11.983318666148653"><ele>575.0</ele><time>2026-04-12T10:12:14Z</time></trkpt><trkpt lat="43.572878097301" lon="11.983324356972183"><ele>577.5</ele><time>2026-04-12T10:12:15Z</time></trkpt><trkpt lat="43.572783640546355" lon="11.983338436798986"><ele>580.0</ele><time>2026-04-12T10:12:16Z</time></trkpt><trkpt lat="43.57269525836555" lon="11.983347132482804"><ele>582.5</ele><time>2026-04-12T10:12:17Z</time></trkpt><trkpt lat="43.57261635497528" lon="11.983380643094565"><ele>585.0</ele><time>2026-04-12T10:12:18Z</time></trkpt><trkpt lat="43.57255665381323" lon="11.9834461458108"><ele>587.5</ele><time>2026-04-12T10:12:19Z</time></trkpt><trkpt lat="43.57247789230779" lon="11.983529366849721"><ele>590.0</ele><time>2026-04-12T10:12:20Z</time></trkpt><trkpt lat="43.57239848169716" lon="11.983622249662014"><ele>590.0</ele><time>2026-04-12T10:12:21Z</time></trkpt><trkpt lat="43.57232259495153" lon="11.983714550301418"><ele>590.0</ele><time>2026-04-12T10:12:22Z</time></trkpt><trkpt lat="43.5722474809773" lon="11.983769590322312"><ele>590.0</ele><time>2026-04-12T10:12:22.999Z</time></trkpt><trkpt lat="43.572165284438334" lon="11.983811455153024"><ele>590.0</ele><time>2026-04-12T10:12:23.999Z</time></trkpt><trkpt lat="43.572086300444106" lon="11.9838181886976"><ele>590.0</ele><time>2026-04-12T10:12:24.999Z</time></trkpt><trkpt lat="43.57202150827471" lon="11.983793145264064"><ele>590.0</ele><time>2026-04-12T10:12:25.999Z</time></trkpt><trkpt lat="43.572008043322846" lon="11.983670507758687"><ele>590.0</ele><time>2026-04-12T10:12:27.999Z</time></trkpt><trkpt lat="43.5720662507825" lon="11.983544757062791"><ele>590.0</ele><time>2026-04-12T10:12:29.999Z</time></trkpt><trkpt lat="43.57202342269433" lon="11.98346695096057"><ele>590.0</ele><time>2026-04-12T10:12:52.999Z</time></trkpt><trkpt lat="43.57196975925778" lon="11.98340770411265"><ele>590.0</ele><time>2026-04-12T10:12:53.999Z</time></trkpt><trkpt lat="43.571909108952426" lon="11.983355035226456"><ele>590.0</ele><time>2026-04-12T10:12:54.999Z</time></trkpt><trkpt lat="43.57182576273281" lon="11.983311758536136"><ele>590.0</ele><time>2026-04-12T10:12:55.999Z</time></trkpt><trkpt lat="43.571746182120435" lon="11.983312193983558"><ele>593.6666666666666</ele><time>2026-04-12T10:12:56.999Z</time></trkpt><trkpt lat="43.57164309369916" lon="11.983307359090063"><ele>597.3333333333333</ele><time>2026-04-12T10:12:57.999Z</time></trkpt><trkpt lat="43.57156523865053" lon="11.983280432528296"><ele>601.0</ele><time>2026-04-12T10:12:58.999Z</time></trkpt><trkpt lat="43.57148855199206" lon="11.98326612917583"><ele>604.6666666666666</ele><time>2026-04-12T10:12:59.999Z</time></trkpt><trkpt lat="43.57141306420893" lon="11.983285059749583"><ele>608.3333333333334</ele><time>2026-04-12T10:13:00.999Z</time></trkpt><trkpt lat="43.57134446833765" lon="11.983337127902374"><ele>612.0</ele><time>2026-04-12T10:13:01.999Z</time></trkpt><trkpt lat="43.57130024406087" lon="11.983273701481425"><ele>612.0</ele><time>2026-04-12T10:13:03.999Z</time></trkpt><trkpt lat="43.57132176133216" lon="11.983188258448532"><ele>612.0</ele><time>2026-04-12T10:13:04.999Z</time></trkpt><trkpt lat="43.57137655576718" lon="11.983106277511673"><ele>612.0</ele><time>2026-04-12T10:13:05.999Z</time></trkpt><trkpt lat="43.57143187607426" lon="11.982997614284198"><ele>612.0</ele><time>2026-04-12T10:13:07.999Z</time></trkpt><trkpt lat="43.5713622156369" lon="11.982905696545"><ele>612.0</ele><time>2026-04-12T10:13:09.999Z</time></trkpt><trkpt lat="43.571328248552746" lon="11.982808422222101"><ele>612.0</ele><time>2026-04-12T10:13:10.999Z</time></trkpt><trkpt lat="43.571306006810445" lon="11.982700085034136"><ele>612.0</ele><time>2026-04-12T10:13:11.999Z</time></trkpt><trkpt lat="43.57127575823116" lon="11.982584197073"><ele>612.0</ele><time>2026-04-12T10:13:12.999Z</time></trkpt><trkpt lat="43.571197064538765" lon="11.982515626036019"><ele>612.0</ele><time>2026-04-12T10:13:13.999Z</time></trkpt><trkpt lat="43.57110181772467" lon="11.98245698810423"><ele>612.0</ele><time>2026-04-12T10:13:14.999Z</time></trkpt><trkpt lat="43.57099462894656" lon="11.982394724881017"><ele>612.0</ele><time>2026-04-12T10:13:15.999Z</time></trkpt><trkpt lat="43.570924032412044" lon="11.98232612236295"><ele>616.4</ele><time>2026-04-12T10:13:16.999Z</time></trkpt><trkpt lat="43.57089124359131" lon="11.982250011674438"><ele>620.8000000000001</ele><time>2026-04-12T10:13:17.999Z</time></trkpt><trkpt lat="43.57077684222449" lon="11.982210829114612"><ele>625.2</ele><time>2026-04-12T10:13:19.999Z</time></trkpt><trkpt lat="43.57068148117515" lon="11.982187154606107"><ele>629.6</ele><time>2026-04-12T10:13:20.999Z</time></trkpt><trkpt lat="43.57058126530613" lon="11.982157834792337"><ele>634.0</ele><time>2026-04-12T10:13:21.999Z</time></trkpt><trkpt lat="43.57049825492463" lon="11.982083265764453"><ele>634.0</ele><time>2026-04-12T10:13:22.999Z</time></trkpt><trkpt lat="43.57039974024264" lon="11.981999274298861"><ele>634.0</ele><time>2026-04-12T10:13:23.999Z</time></trkpt><trkpt lat="43.57032869316781" lon="11.981924195025258"><ele>634.0</ele><time>2026-04-12T10:13:24.999Z</time></trkpt><trkpt lat="43.57023450904419" lon="11.98189677186296"><ele>634.0</ele><time>2026-04-12T10:13:25.998Z</time></trkpt><trkpt lat="43.57014243318183" lon="11.98185660815826"><ele>634.0</ele><time>2026-04-12T10:13:27.998Z</time></trkpt><trkpt lat="43.570069840642205" lon="11.981811225131791"><ele>634.8</ele><time>2026-04-12T10:13:28.998Z</time></trkpt><trkpt lat="43.56999411413482" lon="11.981744465050658"><ele>635.5999999999999</ele><time>2026-04-12T10:13:29.998Z</time></trkpt><trkpt lat="43.56991965966677" lon="11.981697564316852"><ele>636.4</ele><time>2026-04-12T10:13:30.998Z</time></trkpt><trkpt lat="43.56981592934972" lon="11.981578298960647"><ele>637.1999999999999</ele><time>2026-04-12T10:13:32.998Z</time></trkpt><trkpt lat="43.56971340845803" lon="11.981548872306343"><ele>638.0</ele><time>2026-04-12T10:13:34.998Z</time></trkpt><trkpt lat="43.5696497649746" lon="11.98152852275333"><ele>638.0</ele><time>2026-04-12T10:13:35.998Z</time></trkpt><trkpt lat="43.56960213856" lon="11.981451547010828"><ele>638.0</ele><time>2026-04-12T10:13:37.998Z</time></trkpt><trkpt lat="43.56953245920907" lon="11.98142662788211"><ele>638.0</ele><time>2026-04-12T10:13:39Z</time></trkpt><trkpt lat="43.56946378179018" lon="11.98145200296675"><ele>638.0</ele><time>2026-04-12T10:13:40Z</time></trkpt><trkpt lat="43.56940112419035" lon="11.981483588090233"><ele>638.0</ele><time>2026-04-12T10:13:41Z</time></trkpt><trkpt lat="43.569260353829996" lon="11.981380415102374"><ele>638.0</ele><time>2026-04-12T10:13:43Z</time></trkpt><trkpt lat="43.56916833189171" lon="11.981309982152151"><ele>640.6666666666666</ele><time>2026-04-12T10:13:44Z</time></trkpt><trkpt lat="43.56906967761136" lon="11.981240355453053"><ele>643.3333333333333</ele><time>2026-04-12T10:13:45Z</time></trkpt><trkpt lat="43.56901013918425" lon="11.981143774499495"><ele>646.0</ele><time>2026-04-12T10:13:46Z</time></trkpt><trkpt lat="43.56894904446569" lon="11.98105711583917"><ele>648.6666666666666</ele><time>2026-04-12T10:13:47Z</time></trkpt><trkpt lat="43.568872308914806" lon="11.981042401477584"><ele>651.3333333333334</ele><time>2026-04-12T10:13:48Z</time></trkpt><trkpt lat="43.56880668006523" lon="11.981042050054203"><ele>654.0</ele><time>2026-04-12T10:13:49Z</time></trkpt><trkpt lat="43.56867785873111" lon="11.981097375964927"><ele>653.6666666666666</ele><time>2026-04-12T10:13:51Z</time></trkpt><trkpt lat="43.56860386629488" lon="11.981063564877697"><ele>653.3333333333334</ele><time>2026-04-12T10:13:52Z</time></trkpt><trkpt lat="43.568542990782255" lon="11.980989179450896"><ele>653.0</ele><time>2026-04-12T10:13:53Z</time></trkpt><trkpt lat="43.56847612878156" lon="11.980948091468413"><ele>652.6666666666667</ele><time>2026-04-12T10:13:54Z</time></trkpt><trkpt lat="43.568384212102096" lon="11.98089602649845"><ele>652.3333333333334</ele><time>2026-04-12T10:13:56Z</time></trkpt><trkpt lat="43.568336477364866" lon="11.980836938397479"><ele>652.0</ele><time>2026-04-12T10:13:57Z</time></trkpt><trkpt lat="43.56824751716081" lon="11.980773659739857"><ele>652.0</ele><time>2026-04-12T10:13:58Z</time></trkpt><trkpt lat="43.568179773515986" lon="11.980662844536523"><ele>652.0</ele><time>2026-04-12T10:13:59Z</time></trkpt><trkpt lat="43.56813767141436" lon="11.980528312464386"><ele>652.0</ele><time>2026-04-12T10:14:00Z</time></trkpt><trkpt lat="43.5681139054673" lon="11.980422202965801"><ele>652.0</ele><time>2026-04-12T10:14:01Z</time></trkpt><trkpt lat="43.568079063180235" lon="11.980279404587256"><ele>652.0</ele><time>2026-04-12T10:14:02Z</time></trkpt><trkpt lat="43.56804508868161" lon="11.980114432019137"><ele>650.0</ele><time>2026-04-12T10:14:03Z</time></trkpt><trkpt lat="43.56802399549393" lon="11.979942626125457"><ele>648.0</ele><time>2026-04-12T10:14:04Z</time></trkpt><trkpt lat="43.5679963758049" lon="11.979817125419634"><ele>646.0</ele><time>2026-04-12T10:14:05Z</time></trkpt><trkpt lat="43.56795957258456" lon="11.979741333925801"><ele>644.0</ele><time>2026-04-12T10:14:06Z</time></trkpt><trkpt lat="43.56789909980903" lon="11.979690139939269"><ele>642.0</ele><time>2026-04-12T10:14:07Z</time></trkpt><trkpt lat="43.56779430105585" lon="11.979677513999878"><ele>647.5</ele><time>2026-04-12T10:14:08Z</time></trkpt><trkpt lat="43.56765055460531" lon="11.979664540958943"><ele>653.0</ele><time>2026-04-12T10:14:09Z</time></trkpt><trkpt lat="43.56752477334768" lon="11.979639664093899"><ele>658.5</ele><time>2026-04-12T10:14:10Z</time></trkpt><trkpt lat="43.567412080931845" lon="11.979614461140233"><ele>664.0</ele><time>2026-04-12T10:14:11Z</time></trkpt><trkpt lat="43.567315972003506" lon="11.97961029807498"><ele>664.0</ele><time>2026-04-12T10:14:12Z</time></trkpt><trkpt lat="43.56725387684349" lon="11.979587396326263"><ele>664.0</ele><time>2026-04-12T10:14:13Z</time></trkpt><trkpt lat="43.5672486969823" lon="11.979425811586529"><ele>664.0</ele><time>2026-04-12T10:14:15Z</time></trkpt><trkpt lat="43.567296795813064" lon="11.979312552985645"><ele>664.0</ele><time>2026-04-12T10:14:16Z</time></trkpt><trkpt lat="43.56733862745915" lon="11.979188029501522"><ele>664.0</ele><time>2026-04-12T10:14:17Z</time></trkpt><trkpt lat="43.56733229225427" lon="11.979075120375404"><ele>660.75</ele><time>2026-04-12T10:14:18Z</time></trkpt><trkpt lat="43.56728748086765" lon="11.978963244796434"><ele>657.5</ele><time>2026-04-12T10:14:19Z</time></trkpt><trkpt lat="43.56719047096588" lon="11.978863295428212"><ele>654.25</ele><time>2026-04-12T10:14:20Z</time></trkpt><trkpt lat="43.567089947621476" lon="11.978768520862284"><ele>651.0</ele><time>2026-04-12T10:14:21Z</time></trkpt><trkpt lat="43.56697222902404" lon="11.978696409026751"><ele>656.0</ele><time>2026-04-12T10:14:22Z</time></trkpt><trkpt lat="43.56688089900323" lon="11.978582842222352"><ele>661.0</ele><time>2026-04-12T10:14:23Z</time></trkpt><trkpt lat="43.5667870767438" lon="11.97845282908865"><ele>666.0</ele><time>2026-04-12T10:14:23.999Z</time></trkpt><trkpt lat="43.5666934762858" lon="11.978352983969659"><ele>671.0</ele><time>2026-04-12T10:14:24.999Z</time></trkpt><trkpt lat="43.566608172523566" lon="11.978266528169128"><ele>671.0</ele><time>2026-04-12T10:14:25.999Z</time></trkpt><trkpt lat="43.56651016461748" lon="11.978183733446036"><ele>671.0</ele><time>2026-04-12T10:14:26.999Z</time></trkpt><trkpt lat="43.566446896898306" lon="11.978103763220304"><ele>671.0</ele><time>2026-04-12T10:14:27.999Z</time></trkpt><trkpt lat="43.56642456088606" lon="11.977988605347777"><ele>671.0</ele><time>2026-04-12T10:14:28.999Z</time></trkpt><trkpt lat="43.56642191382754" lon="11.977866650147106"><ele>671.0</ele><time>2026-04-12T10:14:29.999Z</time></trkpt><trkpt lat="43.566408684968465" lon="11.977702891925768"><ele>671.0</ele><time>2026-04-12T10:14:30.999Z</time></trkpt><trkpt lat="43.56640470626477" lon="11.977549821238512"><ele>671.0</ele><time>2026-04-12T10:14:31.999Z</time></trkpt><trkpt lat="43.5663451136211" lon="11.977406965627932"><ele>671.0</ele><time>2026-04-12T10:14:32.999Z</time></trkpt><trkpt lat="43.566263825935025" lon="11.9772879726959"><ele>671.0</ele><time>2026-04-12T10:14:33.999Z</time></trkpt><trkpt lat="43.56618545290152" lon="11.977237191713332"><ele>671.0</ele><time>2026-04-12T10:14:34.999Z</time></trkpt><trkpt lat="43.56608989278678" lon="11.977207628093486"><ele>672.1999999999999</ele><time>2026-04-12T10:14:35.999Z</time></trkpt><trkpt lat="43.56599356533215" lon="11.977208711139781"><ele>673.4</ele><time>2026-04-12T10:14:36.999Z</time></trkpt><trkpt lat="43.565886715601515" lon="11.977199039558279"><ele>674.6</ele><time>2026-04-12T10:14:37.999Z</time></trkpt><trkpt lat="43.565786129741134" lon="11.977176065566434"><ele>675.8</ele><time>2026-04-12T10:14:38.999Z</time></trkpt><trkpt lat="43.56569467115469" lon="11.9771249839275"><ele>677.0</ele><time>2026-04-12T10:14:39.999Z</time></trkpt><trkpt lat="43.56559940593771" lon="11.977026317970463"><ele>677.0</ele><time>2026-04-12T10:14:40.999Z</time></trkpt><trkpt lat="43.565501386058635" lon="11.976898614456271"><ele>677.0</ele><time>2026-04-12T10:14:41.999Z</time></trkpt><trkpt lat="43.56542492491214" lon="11.976782381061762"><ele>677.0</ele><time>2026-04-12T10:14:42.999Z</time></trkpt><trkpt lat="43.56534940711813" lon="11.976673590816922"><ele>677.0</ele><time>2026-04-12T10:14:43.999Z</time></trkpt><trkpt lat="43.5652802090028" lon="11.97660501089394"><ele>677.0</ele><time>2026-04-12T10:14:44.999Z</time></trkpt><trkpt lat="43.56522757941406" lon="11.97652622522488"><ele>675.8333333333333</ele><time>2026-04-12T10:14:46.999Z</time></trkpt><trkpt lat="43.56517405448261" lon="11.976438034726883"><ele>674.6666666666666</ele><time>2026-04-12T10:24:15Z</time></trkpt><trkpt lat="43.56518542674634" lon="11.976350193202949"><ele>673.5</ele><time>2026-04-12T10:24:16Z</time></trkpt><trkpt lat="43.56517453821845" lon="11.976256883959628"><ele>672.3333333333334</ele><time>2026-04-12T10:24:17Z</time></trkpt><trkpt lat="43.565147537802375" lon="11.976140145593554"><ele>671.1666666666667</ele><time>2026-04-12T10:24:18Z</time></trkpt><trkpt lat="43.565115189922096" lon="11.976007616632382"><ele>670.0</ele><time>2026-04-12T10:24:19Z</time></trkpt><trkpt lat="43.565092938760976" lon="11.97586700150344"><ele>670.2</ele><time>2026-04-12T10:24:20Z</time></trkpt><trkpt lat="43.56508015436732" lon="11.975740389412852"><ele>670.4</ele><time>2026-04-12T10:24:21Z</time></trkpt><trkpt lat="43.565058685656865" lon="11.975586101164694"><ele>670.5999999999999</ele><time>2026-04-12T10:24:22Z</time></trkpt><trkpt lat="43.56504317620865" lon="11.975431718670514"><ele>670.8</ele><time>2026-04-12T10:24:23Z</time></trkpt><trkpt lat="43.56504363215492" lon="11.975289138300415"><ele>671.0</ele><time>2026-04-12T10:24:24Z</time></trkpt><trkpt lat="43.5650311939707" lon="11.97516872853028"><ele>671.0</ele><time>2026-04-12T10:24:25Z</time></trkpt><trkpt lat="43.565001625157635" lon="11.975074538088354"><ele>671.0</ele><time>2026-04-12T10:24:26Z</time></trkpt><trkpt lat="43.56493304360844" lon="11.974998841160012"><ele>671.0</ele><time>2026-04-12T10:24:27Z</time></trkpt><trkpt lat="43.56484825142197" lon="11.974908954919446"><ele>671.0</ele><time>2026-04-12T10:24:28Z</time></trkpt><trkpt lat="43.564778384886964" lon="11.974810075563125"><ele>671.0</ele><time>2026-04-12T10:24:29Z</time></trkpt><trkpt lat="43.56472055649923" lon="11.974679459971771"><ele>672.4</ele><time>2026-04-12T10:24:30Z</time></trkpt><trkpt lat="43.56468317218467" lon="11.974555697289212"><ele>673.8</ele><time>2026-04-12T10:24:31Z</time></trkpt><trkpt lat="43.56467822524873" lon="11.974432059215111"><ele>675.1999999999999</ele><time>2026-04-12T10:24:32Z</time></trkpt><trkpt lat="43.56468863979974" lon="11.974295948614454"><ele>676.5999999999999</ele><time>2026-04-12T10:24:33Z</time></trkpt><trkpt lat="43.56470188786444" lon="11.974134953457751"><ele>678.0</ele><time>2026-04-12T10:24:34Z</time></trkpt><trkpt lat="43.56470691972741" lon="11.973986128984986"><ele>676.5999999999999</ele><time>2026-04-12T10:24:35Z</time></trkpt><trkpt lat="43.5646770310751" lon="11.973837117965255"><ele>675.1999999999999</ele><time>2026-04-12T10:24:36Z</time></trkpt><trkpt lat="43.56461140841608" lon="11.97372673661294"><ele>673.8</ele><time>2026-04-12T10:24:37Z</time></trkpt><trkpt lat="43.56454165902503" lon="11.973627825869974"><ele>672.4</ele><time>2026-04-12T10:24:38Z</time></trkpt><trkpt lat="43.564472997241914" lon="11.97351930868486"><ele>671.0</ele><time>2026-04-12T10:24:39Z</time></trkpt><trkpt lat="43.56445090944207" lon="11.973388232994923"><ele>672.5</ele><time>2026-04-12T10:24:40Z</time></trkpt><trkpt lat="43.564428855854025" lon="11.973233924926443"><ele>674.0</ele><time>2026-04-12T10:24:41Z</time></trkpt><trkpt lat="43.56440285760388" lon="11.973128700882627"><ele>675.5</ele><time>2026-04-12T10:24:42Z</time></trkpt><trkpt lat="43.564368246062706" lon="11.973037887056197"><ele>677.0</ele><time>2026-04-12T10:24:43Z</time></trkpt><trkpt lat="43.56431789092726" lon="11.972953765125393"><ele>678.5</ele><time>2026-04-12T10:24:44Z</time></trkpt><trkpt lat="43.56424085598949" lon="11.972868994829131"><ele>680.0</ele><time>2026-04-12T10:24:45Z</time></trkpt><trkpt lat="43.56415619780165" lon="11.972775467917856"><ele>680.0</ele><time>2026-04-12T10:24:46Z</time></trkpt><trkpt lat="43.56408314525726" lon="11.972657135348623"><ele>680.0</ele><time>2026-04-12T10:24:47Z</time></trkpt><trkpt lat="43.564006036567726" lon="11.972516496221745"><ele>680.0</ele><time>2026-04-12T10:24:48Z</time></trkpt><trkpt lat="43.563926730459585" lon="11.972375898360772"><ele>680.0</ele><time>2026-04-12T10:24:49Z</time></trkpt><trkpt lat="43.56383774356361" lon="11.972226997403983"><ele>680.2</ele><time>2026-04-12T10:24:50Z</time></trkpt><trkpt lat="43.56375940697078" lon="11.972102660678331"><ele>680.4</ele><time>2026-04-12T10:24:51Z</time></trkpt><trkpt lat="43.56367932764011" lon="11.971999818506227"><ele>680.5999999999999</ele><time>2026-04-12T10:24:52Z</time></trkpt><trkpt lat="43.56360186963118" lon="11.971905586537076"><ele>680.8</ele><time>2026-04-12T10:24:53Z</time></trkpt><trkpt lat="43.5635268656085" lon="11.971794139100124"><ele>681.0</ele><time>2026-04-12T10:24:54Z</time></trkpt><trkpt lat="43.56346914688948" lon="11.971698182836338"><ele>678.75</ele><time>2026-04-12T10:24:55Z</time></trkpt><trkpt lat="43.56339228957945" lon="11.97161037643108"><ele>676.5</ele><time>2026-04-12T10:24:56Z</time></trkpt><trkpt lat="43.563300057438674" lon="11.971552631592385"><ele>674.25</ele><time>2026-04-12T10:24:56.999Z</time></trkpt><trkpt lat="43.56318943578297" lon="11.971488724778883"><ele>672.0</ele><time>2026-04-12T10:24:57.999Z</time></trkpt><trkpt lat="43.563072017295276" lon="11.97141397358521"><ele>672.0</ele><time>2026-04-12T10:24:58.999Z</time></trkpt><trkpt lat="43.56297262068203" lon="11.971336795922076"><ele>672.0</ele><time>2026-04-12T10:24:59.999Z</time></trkpt><trkpt lat="43.562888826818316" lon="11.971236666002058"><ele>672.0</ele><time>2026-04-12T10:25:00.999Z</time></trkpt><trkpt lat="43.562829685233" lon="11.971138408638877"><ele>672.0</ele><time>2026-04-12T10:25:01.999Z</time></trkpt><trkpt lat="43.56274554223553" lon="11.971003691693124"><ele>672.0</ele><time>2026-04-12T10:25:02.999Z</time></trkpt><trkpt lat="43.56266344766258" lon="11.97088782711459"><ele>670.4000000000001</ele><time>2026-04-12T10:25:03.999Z</time></trkpt><trkpt lat="43.562595843908575" lon="11.970760460297065"><ele>668.8000000000001</ele><time>2026-04-12T10:25:04.999Z</time></trkpt><trkpt lat="43.562529714154536" lon="11.9706480425494"><ele>667.2</ele><time>2026-04-12T10:25:05.999Z</time></trkpt><trkpt lat="43.562475025855015" lon="11.970526668446835"><ele>665.6</ele><time>2026-04-12T10:25:06.999Z</time></trkpt><trkpt lat="43.562422546704596" lon="11.970410754352251"><ele>664.0</ele><time>2026-04-12T10:25:07.999Z</time></trkpt><trkpt lat="43.56236760719459" lon="11.970265392371605"><ele>664.0</ele><time>2026-04-12T10:25:08.999Z</time></trkpt><trkpt lat="43.562303003859185" lon="11.970161073634731"><ele>664.0</ele><time>2026-04-12T10:25:09.999Z</time></trkpt><trkpt lat="43.562226275218435" lon="11.970014364297068"><ele>664.0</ele><time>2026-04-12T10:25:10.999Z</time></trkpt><trkpt lat="43.562157156244986" lon="11.969864101623145"><ele>664.0</ele><time>2026-04-12T10:25:11.999Z</time></trkpt><trkpt lat="43.56208738011786" lon="11.969723966544649"><ele>662.5</ele><time>2026-04-12T10:25:12.999Z</time></trkpt><trkpt lat="43.56202138135306" lon="11.969592060625885"><ele>661.0</ele><time>2026-04-12T10:25:13.999Z</time></trkpt><trkpt lat="43.561951079238604" lon="11.96944882822587"><ele>659.5</ele><time>2026-04-12T10:25:14.999Z</time></trkpt><trkpt lat="43.56186643818839" lon="11.969330725049335"><ele>658.0</ele><time>2026-04-12T10:25:15.999Z</time></trkpt><trkpt lat="43.56176538471073" lon="11.969231681589338"><ele>660.2</ele><time>2026-04-12T10:25:16.999Z</time></trkpt><trkpt lat="43.56166454847531" lon="11.969154373977979"><ele>662.4</ele><time>2026-04-12T10:25:17.999Z</time></trkpt><trkpt lat="43.56157433870867" lon="11.969088357906154"><ele>664.6</ele><time>2026-04-12T10:25:18.999Z</time></trkpt><trkpt lat="43.561478845343515" lon="11.969027766439073"><ele>666.8000000000001</ele><time>2026-04-12T10:25:19.999Z</time></trkpt><trkpt lat="43.561363511103565" lon="11.968993061303705"><ele>669.0</ele><time>2026-04-12T10:25:20.999Z</time></trkpt><trkpt lat="43.56124666305373" lon="11.968985343799236"><ele>667.2</ele><time>2026-04-12T10:25:21.999Z</time></trkpt><trkpt lat="43.56114462996343" lon="11.968975002622438"><ele>665.4000000000001</ele><time>2026-04-12T10:25:22.999Z</time></trkpt><trkpt lat="43.561054331715304" lon="11.968934096917529"><ele>663.6</ele><time>2026-04-12T10:25:23.999Z</time></trkpt><trkpt lat="43.560960045950374" lon="11.96886545695725"><ele>661.8</ele><time>2026-04-12T10:25:24.999Z</time></trkpt><trkpt lat="43.56087748767433" lon="11.968779268599903"><ele>660.0</ele><time>2026-04-12T10:25:25.999Z</time></trkpt><trkpt lat="43.560786799089435" lon="11.968665107039019"><ele>660.0</ele><time>2026-04-12T10:25:26.999Z</time></trkpt><trkpt lat="43.56069918432133" lon="11.968533529145343"><ele>660.0</ele><time>2026-04-12T10:25:27.999Z</time></trkpt><trkpt lat="43.56060683492865" lon="11.968411136553705"><ele>660.0</ele><time>2026-04-12T10:25:28.999Z</time></trkpt><trkpt lat="43.56050404035495" lon="11.968301928811776"><ele>660.0</ele><time>2026-04-12T10:25:29.999Z</time></trkpt><trkpt lat="43.560414466923696" lon="11.968219646684648"><ele>658.2</ele><time>2026-04-12T10:25:30.999Z</time></trkpt><trkpt lat="43.5603475987492" lon="11.968137037731069"><ele>656.4</ele><time>2026-04-12T10:25:31.999Z</time></trkpt><trkpt lat="43.56029502354061" lon="11.968040837540114"><ele>654.5999999999999</ele><time>2026-04-12T10:25:32.999Z</time></trkpt><trkpt lat="43.56027075156459" lon="11.96790780467101"><ele>652.8</ele><time>2026-04-12T10:25:33.999Z</time></trkpt><trkpt lat="43.560288995611295" lon="11.96777703159613"><ele>651.0</ele><time>2026-04-12T10:25:34.999Z</time></trkpt><trkpt lat="43.560336556530345" lon="11.967653225119355"><ele>651.5999999999999</ele><time>2026-04-12T10:25:35.999Z</time></trkpt><trkpt lat="43.560389561693306" lon="11.967535583264855"><ele>652.2</ele><time>2026-04-12T10:25:36.999Z</time></trkpt><trkpt lat="43.56042837380107" lon="11.967421892564014"><ele>652.8</ele><time>2026-04-12T10:25:37.999Z</time></trkpt><trkpt lat="43.56041579086025" lon="11.96730318029944"><ele>653.4000000000001</ele><time>2026-04-12T10:25:38.999Z</time></trkpt><trkpt lat="43.56036718752576" lon="11.967190555029468"><ele>654.0</ele><time>2026-04-12T10:25:39.999Z</time></trkpt><trkpt lat="43.56028493828655" lon="11.96710234595292"><ele>654.0</ele><time>2026-04-12T10:25:40.999Z</time></trkpt><trkpt lat="43.56018953206558" lon="11.967011450480433"><ele>654.0</ele><time>2026-04-12T10:25:41.999Z</time></trkpt><trkpt lat="43.56010243708322" lon="11.966899984577735"><ele>654.0</ele><time>2026-04-12T10:25:42.999Z</time></trkpt><trkpt lat="43.56002218389752" lon="11.966789151847427"><ele>654.0</ele><time>2026-04-12T10:25:43.999Z</time></trkpt><trkpt lat="43.559942138488466" lon="11.966684909111589"><ele>657.5</ele><time>2026-04-12T10:25:44.999Z</time></trkpt><trkpt lat="43.559853932676006" lon="11.966576645373562"><ele>661.0</ele><time>2026-04-12T10:25:45.999Z</time></trkpt><trkpt lat="43.55976325892917" lon="11.966465989539982"><ele>664.5</ele><time>2026-04-12T10:25:46.999Z</time></trkpt><trkpt lat="43.55967481199594" lon="11.966383801938893"><ele>668.0</ele><time>2026-04-12T10:25:47.999Z</time></trkpt><trkpt lat="43.55957715868453" lon="11.966305069643106"><ele>663.5999999999999</ele><time>2026-04-12T10:25:48.999Z</time></trkpt><trkpt lat="43.55948171803806" lon="11.966235704521162"><ele>659.1999999999999</ele><time>2026-04-12T10:25:49.999Z</time></trkpt><trkpt lat="43.55937161106475" lon="11.966186381614737"><ele>654.8</ele><time>2026-04-12T10:25:50.999Z</time></trkpt><trkpt lat="43.55925744226565" lon="11.966156230168679"><ele>650.4</ele><time>2026-04-12T10:25:51.999Z</time></trkpt><trkpt lat="43.55915040199608" lon="11.966143368644074"><ele>646.0</ele><time>2026-04-12T10:25:52.999Z</time></trkpt><trkpt lat="43.5590512009978" lon="11.966135608639322"><ele>646.0</ele><time>2026-04-12T10:25:53.999Z</time></trkpt><trkpt lat="43.558964854294295" lon="11.966123764323116"><ele>646.0</ele><time>2026-04-12T10:25:54.999Z</time></trkpt><trkpt lat="43.55888327211319" lon="11.966099826676091"><ele>646.0</ele><time>2026-04-12T10:25:55.999Z</time></trkpt><trkpt lat="43.55880773828469" lon="11.966071718208335"><ele>646.0</ele><time>2026-04-12T10:25:56.999Z</time></trkpt><trkpt lat="43.55873368305584" lon="11.966062213159068"><ele>646.0</ele><time>2026-04-12T10:25:57.999Z</time></trkpt><trkpt lat="43.55866742215239" lon="11.966104179214181"><ele>646.0</ele><time>2026-04-12T10:25:58.998Z</time></trkpt><trkpt lat="43.55858065373569" lon="11.96614924073248"><ele>644.5999999999999</ele><time>2026-04-12T10:25:59.998Z</time></trkpt><trkpt lat="43.55848224237734" lon="11.966186916062659"><ele>643.1999999999999</ele><time>2026-04-12T10:26:00.998Z</time></trkpt><trkpt lat="43.55837352612043" lon="11.966208527767071"><ele>641.8</ele><time>2026-04-12T10:26:01.998Z</time></trkpt><trkpt lat="43.558255550188946" lon="11.966204019143856"><ele>640.4</ele><time>2026-04-12T10:26:02.998Z</time></trkpt><trkpt lat="43.5581498974425" lon="11.966172760522607"><ele>639.0</ele><time>2026-04-12T10:26:03.998Z</time></trkpt><trkpt lat="43.558064077748" lon="11.966106244891384"><ele>639.0</ele><time>2026-04-12T10:26:04.998Z</time></trkpt><trkpt lat="43.55799279747318" lon="11.96603246895384"><ele>639.0</ele><time>2026-04-12T10:26:05.998Z</time></trkpt><trkpt lat="43.557921908794135" lon="11.965966185229373"><ele>639.0</ele><time>2026-04-12T10:26:06.998Z</time></trkpt><trkpt lat="43.55784936867096" lon="11.965903982911579"><ele>639.0</ele><time>2026-04-12T10:26:07.998Z</time></trkpt><trkpt lat="43.55777666574437" lon="11.965840297323892"><ele>639.0</ele><time>2026-04-12T10:26:08.998Z</time></trkpt><trkpt lat="43.55768910843628" lon="11.965762743705072"><ele>639.5</ele><time>2026-04-12T10:26:09.998Z</time></trkpt><trkpt lat="43.55758936163002" lon="11.965685066790835"><ele>640.0</ele><time>2026-04-12T10:26:10.998Z</time></trkpt><trkpt lat="43.55747827870935" lon="11.965632451195537"><ele>640.5</ele><time>2026-04-12T10:26:11.998Z</time></trkpt><trkpt lat="43.55736024735369" lon="11.965609883742703"><ele>641.0</ele><time>2026-04-12T10:26:12.998Z</time></trkpt><trkpt lat="43.55723803547671" lon="11.965612719464714"><ele>641.0</ele><time>2026-04-12T10:26:13.998Z</time></trkpt><trkpt lat="43.55711838584414" lon="11.965603705929691"><ele>641.0</ele><time>2026-04-12T10:26:15Z</time></trkpt><trkpt lat="43.557005349823356" lon="11.965563304428395"><ele>641.0</ele><time>2026-04-12T10:26:16Z</time></trkpt><trkpt lat="43.55688827332079" lon="11.965488245308162"><ele>641.0</ele><time>2026-04-12T10:26:17Z</time></trkpt><trkpt lat="43.55677602879216" lon="11.965406145143769"><ele>639.5</ele><time>2026-04-12T10:26:18Z</time></trkpt><trkpt lat="43.55667765777938" lon="11.965323308749692"><ele>638.0</ele><time>2026-04-12T10:26:19Z</time></trkpt><trkpt lat="43.556580224889345" lon="11.965257917437786"><ele>636.5</ele><time>2026-04-12T10:26:20Z</time></trkpt><trkpt lat="43.556463448611474" lon="11.965209727133512"><ele>635.0</ele><time>2026-04-12T10:26:21Z</time></trkpt><trkpt lat="43.556327247588904" lon="11.965177981962459"><ele>632.5</ele><time>2026-04-12T10:26:22Z</time></trkpt><trkpt lat="43.5561804984913" lon="11.96515073464626"><ele>630.0</ele><time>2026-04-12T10:26:23Z</time></trkpt><trkpt lat="43.55604087677972" lon="11.96512226193823"><ele>627.5</ele><time>2026-04-12T10:26:24Z</time></trkpt><trkpt lat="43.55591558644145" lon="11.965094033777067"><ele>625.0</ele><time>2026-04-12T10:26:25Z</time></trkpt><trkpt lat="43.55580168048838" lon="11.965068380935671"><ele>625.0</ele><time>2026-04-12T10:26:26Z</time></trkpt><trkpt lat="43.55570030665699" lon="11.965057941982748"><ele>625.0</ele><time>2026-04-12T10:26:27Z</time></trkpt><trkpt lat="43.555601811999956" lon="11.965064384627793"><ele>625.0</ele><time>2026-04-12T10:26:28Z</time></trkpt><trkpt lat="43.55551791612983" lon="11.965110530487147"><ele>625.0</ele><time>2026-04-12T10:26:29Z</time></trkpt><trkpt lat="43.55543161673453" lon="11.965173979561621"><ele>625.0</ele><time>2026-04-12T10:26:30Z</time></trkpt><trkpt lat="43.55533242168124" lon="11.965211478495611"><ele>621.0</ele><time>2026-04-12T10:26:31Z</time></trkpt><trkpt lat="43.55522158441861" lon="11.96521462192362"><ele>617.0</ele><time>2026-04-12T10:26:32Z</time></trkpt><trkpt lat="43.555104848887204" lon="11.965198127296775"><ele>613.0</ele><time>2026-04-12T10:26:33Z</time></trkpt><trkpt lat="43.55499597943446" lon="11.965179995120012"><ele>609.0</ele><time>2026-04-12T10:26:34Z</time></trkpt><trkpt lat="43.55488238595403" lon="11.965195308431221"><ele>609.0</ele><time>2026-04-12T10:26:35Z</time></trkpt><trkpt lat="43.5547789406369" lon="11.96522660630618"><ele>609.0</ele><time>2026-04-12T10:26:36Z</time></trkpt><trkpt lat="43.554677700863415" lon="11.965278792564986"><ele>609.0</ele><time>2026-04-12T10:26:37Z</time></trkpt><trkpt lat="43.55457765213772" lon="11.965329648348652"><ele>609.0</ele><time>2026-04-12T10:26:38Z</time></trkpt><trkpt lat="43.55447086233642" lon="11.965364933071118"><ele>609.0</ele><time>2026-04-12T10:26:39Z</time></trkpt><trkpt lat="43.55436088828891" lon="11.965400607242447"><ele>607.75</ele><time>2026-04-12T10:26:40Z</time></trkpt><trkpt lat="43.5542503800403" lon="11.965417046949886"><ele>606.5</ele><time>2026-04-12T10:26:41Z</time></trkpt><trkpt lat="43.554125933395255" lon="11.965412646786431"><ele>605.25</ele><time>2026-04-12T10:26:42Z</time></trkpt><trkpt lat="43.55399893260758" lon="11.965387402156516"><ele>604.0</ele><time>2026-04-12T10:26:43Z</time></trkpt><trkpt lat="43.55387926852085" lon="11.965337698057724"><ele>604.0</ele><time>2026-04-12T10:26:44Z</time></trkpt><trkpt lat="43.55376512468828" lon="11.965273399693892"><ele>604.0</ele><time>2026-04-12T10:26:45Z</time></trkpt><trkpt lat="43.55365126661961" lon="11.965203263173711"><ele>604.0</ele><time>2026-04-12T10:26:46Z</time></trkpt><trkpt lat="43.553549584910115" lon="11.965139577409484"><ele>604.0</ele><time>2026-04-12T10:26:47Z</time></trkpt><trkpt lat="43.55344940223854" lon="11.965087341526885"><ele>602.5</ele><time>2026-04-12T10:26:48Z</time></trkpt><trkpt lat="43.55334181719456" lon="11.96506328196076"><ele>601.0</ele><time>2026-04-12T10:26:49Z</time></trkpt><trkpt lat="43.55322853550633" lon="11.96506788901102"><ele>599.5</ele><time>2026-04-12T10:26:50Z</time></trkpt><trkpt lat="43.553116539704014" lon="11.965108481220456"><ele>598.0</ele><time>2026-04-12T10:26:51Z</time></trkpt><trkpt lat="43.553015446934914" lon="11.965194296349846"><ele>598.0</ele><time>2026-04-12T10:26:52Z</time></trkpt><trkpt lat="43.552927128155126" lon="11.965311774971143"><ele>598.0</ele><time>2026-04-12T10:26:53Z</time></trkpt><trkpt lat="43.552849203906995" lon="11.965447736252667"><ele>598.0</ele><time>2026-04-12T10:26:54Z</time></trkpt><trkpt lat="43.55277187231031" lon="11.965600598629408"><ele>598.0</ele><time>2026-04-12T10:26:55Z</time></trkpt><trkpt lat="43.552701617622546" lon="11.965751046223508"><ele>599.0</ele><time>2026-04-12T10:26:56Z</time></trkpt><trkpt lat="43.552627965117054" lon="11.965887824321408"><ele>600.0</ele><time>2026-04-12T10:26:57Z</time></trkpt><trkpt lat="43.552548866335705" lon="11.966020119783732"><ele>601.0</ele><time>2026-04-12T10:26:58Z</time></trkpt><trkpt lat="43.55245750795154" lon="11.966147038473917"><ele>602.0</ele><time>2026-04-12T10:26:59Z</time></trkpt><trkpt lat="43.552366889616" lon="11.966270943288652"><ele>602.0</ele><time>2026-04-12T10:27:00Z</time></trkpt><trkpt lat="43.5522578803538" lon="11.96639693084787"><ele>602.0</ele><time>2026-04-12T10:27:01Z</time></trkpt><trkpt lat="43.55214913325088" lon="11.966508355966514"><ele>602.0</ele><time>2026-04-12T10:27:02Z</time></trkpt><trkpt lat="43.55204300820163" lon="11.966630078152882"><ele>602.0</ele><time>2026-04-12T10:27:02.999Z</time></trkpt><trkpt lat="43.55194866047733" lon="11.96674345813673"><ele>601.4</ele><time>2026-04-12T10:27:03.999Z</time></trkpt><trkpt lat="43.55186793730437" lon="11.966855329997099"><ele>600.8000000000001</ele><time>2026-04-12T10:27:04.999Z</time></trkpt><trkpt lat="43.5517959102406" lon="11.966960667577686"><ele>600.2</ele><time>2026-04-12T10:27:05.999Z</time></trkpt><trkpt lat="43.55173559432104" lon="11.967064179245295"><ele>599.6</ele><time>2026-04-12T10:27:06.999Z</time></trkpt><trkpt lat="43.55168696060559" lon="11.967182991092379"><ele>599.0</ele><time>2026-04-12T10:27:07.999Z</time></trkpt><trkpt lat="43.551616432032304" lon="11.967306249475326"><ele>599.0</ele><time>2026-04-12T10:27:08.999Z</time></trkpt><trkpt lat="43.55153346658686" lon="11.967395451791894"><ele>599.0</ele><time>2026-04-12T10:27:09.999Z</time></trkpt><trkpt lat="43.55144887303293" lon="11.967514788472416"><ele>599.0</ele><time>2026-04-12T10:27:10.999Z</time></trkpt><trkpt lat="43.5513725225358" lon="11.967610200553501"><ele>599.0</ele><time>2026-04-12T10:27:11.999Z</time></trkpt><trkpt lat="43.551293571304704" lon="11.967687868175771"><ele>599.0</ele><time>2026-04-12T10:27:12.999Z</time></trkpt><trkpt lat="43.55119404268097" lon="11.967726996952836"><ele>597.8</ele><time>2026-04-12T10:27:13.999Z</time></trkpt><trkpt lat="43.55108767008466" lon="11.967733267414795"><ele>596.5999999999999</ele><time>2026-04-12T10:27:14.999Z</time></trkpt><trkpt lat="43.550993116441845" lon="11.967708827169618"><ele>595.4</ele><time>2026-04-12T10:27:15.999Z</time></trkpt><trkpt lat="43.550920809193165" lon="11.96762651898527"><ele>594.1999999999999</ele><time>2026-04-12T10:27:16.999Z</time></trkpt><trkpt lat="43.55085946873135" lon="11.967524247881258"><ele>593.0</ele><time>2026-04-12T10:27:17.999Z</time></trkpt><trkpt lat="43.55080785414479" lon="11.967413598295426"><ele>593.0</ele><time>2026-04-12T10:27:18.999Z</time></trkpt><trkpt lat="43.550757419829445" lon="11.967317631784374"><ele>593.0</ele><time>2026-04-12T10:27:19.999Z</time></trkpt><trkpt lat="43.550700812795576" lon="11.967219518795442"><ele>593.0</ele><time>2026-04-12T10:27:20.999Z</time></trkpt><trkpt lat="43.55063642598907" lon="11.967091746897239"><ele>593.0</ele><time>2026-04-12T10:27:21.999Z</time></trkpt><trkpt lat="43.550565416085114" lon="11.966967538972266"><ele>593.0</ele><time>2026-04-12T10:27:22.999Z</time></trkpt><trkpt lat="43.5504792062633" lon="11.966844987067223"><ele>593.0</ele><time>2026-04-12T10:27:23.999Z</time></trkpt><trkpt lat="43.55039029265327" lon="11.966721820789052"><ele>593.0</ele><time>2026-04-12T10:27:24.999Z</time></trkpt><trkpt lat="43.550298438222555" lon="11.966598944402978"><ele>593.0</ele><time>2026-04-12T10:27:25.999Z</time></trkpt><trkpt lat="43.55020350527937" lon="11.966484665623154"><ele>593.0</ele><time>2026-04-12T10:27:26.999Z</time></trkpt><trkpt lat="43.550109829142805" lon="11.966365809714421"><ele>592.8</ele><time>2026-04-12T10:27:27.999Z</time></trkpt><trkpt lat="43.55001399452071" lon="11.966253366365187"><ele>592.5999999999999</ele><time>2026-04-12T10:27:28.999Z</time></trkpt><trkpt lat="43.54993409648659" lon="11.96614951133129"><ele>592.4000000000001</ele><time>2026-04-12T10:27:29.999Z</time></trkpt><trkpt lat="43.54986610408824" lon="11.96604214832394"><ele>592.2</ele><time>2026-04-12T10:27:30.999Z</time></trkpt><trkpt lat="43.54978997019414" lon="11.965937237443987"><ele>592.0</ele><time>2026-04-12T10:27:31.999Z</time></trkpt><trkpt lat="43.54970738209259" lon="11.965843782285585"><ele>589.8000000000001</ele><time>2026-04-12T10:27:32.999Z</time></trkpt><trkpt lat="43.54960711814611" lon="11.965773384520176"><ele>587.6</ele><time>2026-04-12T10:27:33.999Z</time></trkpt><trkpt lat="43.54949359077884" lon="11.965740862687793"><ele>585.4000000000001</ele><time>2026-04-12T10:27:34.999Z</time></trkpt><trkpt lat="43.54939304468815" lon="11.965699720071937"><ele>583.2</ele><time>2026-04-12T10:27:35.999Z</time></trkpt><trkpt lat="43.54930692870068" lon="11.965642758580099"><ele>581.0</ele><time>2026-04-12T10:27:36.999Z</time></trkpt><trkpt lat="43.54922641509234" lon="11.965563657984882"><ele>580.8</ele><time>2026-04-12T10:27:37.999Z</time></trkpt><trkpt lat="43.54914484048552" lon="11.965457208247303"><ele>580.6</ele><time>2026-04-12T10:27:38.999Z</time></trkpt><trkpt lat="43.54907491885595" lon="11.965327730184764"><ele>580.4</ele><time>2026-04-12T10:27:39.999Z</time></trkpt><trkpt lat="43.5490053738507" lon="11.965209403845941"><ele>580.2</ele><time>2026-04-12T10:27:40.999Z</time></trkpt><trkpt lat="43.548945797572195" lon="11.965097068988031"><ele>580.0</ele><time>2026-04-12T10:27:41.999Z</time></trkpt><trkpt lat="43.54889407326727" lon="11.9649907835022"><ele>579.3333333333334</ele><time>2026-04-12T10:27:42.999Z</time></trkpt><trkpt lat="43.54883506828898" lon="11.96489550145663"><ele>578.6666666666667</ele><time>2026-04-12T10:27:43.999Z</time></trkpt><trkpt lat="43.54877280060138" lon="11.96482388756654"><ele>578.0</ele><time>2026-04-12T10:27:44.999Z</time></trkpt><trkpt lat="43.54870673746464" lon="11.964779626232328"><ele>577.3333333333334</ele><time>2026-04-12T10:27:45.999Z</time></trkpt><trkpt lat="43.54864618420187" lon="11.964744696437096"><ele>576.6666666666666</ele><time>2026-04-12T10:27:46.999Z</time></trkpt><trkpt lat="43.548550538811114" lon="11.964693800985067"><ele>576.0</ele><time>2026-04-12T10:27:48.999Z</time></trkpt><trkpt lat="43.548491671411455" lon="11.96465005326614"><ele>576.0</ele><time>2026-04-12T10:27:50.999Z</time></trkpt><trkpt lat="43.54840543736098" lon="11.964577001388113"><ele>576.0</ele><time>2026-04-12T10:27:55.999Z</time></trkpt><trkpt lat="43.548315617361595" lon="11.964544933295997"><ele>576.0</ele><time>2026-04-12T10:27:57.999Z</time></trkpt><trkpt lat="43.54825040982047" lon="11.964515645165326"><ele>576.0</ele><time>2026-04-12T10:28:00.999Z</time></trkpt><trkpt lat="43.54812660916802" lon="11.964429285045435"><ele>576.0</ele><time>2026-04-12T10:28:02.999Z</time></trkpt><trkpt lat="43.548060443027246" lon="11.964380795299762"><ele>576.0</ele><time>2026-04-12T10:28:03.999Z</time></trkpt><trkpt lat="43.54799183019152" lon="11.96433154113556"><ele>576.0</ele><time>2026-04-12T10:28:04.998Z</time></trkpt><trkpt lat="43.547918315919695" lon="11.964275386872634"><ele>576.0</ele><time>2026-04-12T10:28:05.998Z</time></trkpt><trkpt lat="43.547852047104584" lon="11.964215705580767"><ele>576.0</ele><time>2026-04-12T10:28:06.998Z</time></trkpt><trkpt lat="43.54777951170819" lon="11.964147773563639"><ele>576.0</ele><time>2026-04-12T10:28:07.998Z</time></trkpt><trkpt lat="43.5477110131202" lon="11.964055964786617"><ele>576.0</ele><time>2026-04-12T10:28:08.998Z</time></trkpt><trkpt lat="43.547651393202514" lon="11.963967291689864"><ele>577.0</ele><time>2026-04-12T10:28:09.998Z</time></trkpt><trkpt lat="43.54757377992276" lon="11.963893015078748"><ele>578.0</ele><time>2026-04-12T10:28:10.998Z</time></trkpt><trkpt lat="43.547480915397216" lon="11.963857250487623"><ele>579.0</ele><time>2026-04-12T10:28:11.998Z</time></trkpt><trkpt lat="43.54739099816911" lon="11.963874934697458"><ele>580.0</ele><time>2026-04-12T10:28:12.998Z</time></trkpt><trkpt lat="43.54728888086712" lon="11.963915124606327"><ele>581.0</ele><time>2026-04-12T10:28:13.998Z</time></trkpt><trkpt lat="43.54717713633208" lon="11.963938027403058"><ele>581.0</ele><time>2026-04-12T10:28:14.998Z</time></trkpt><trkpt lat="43.5470647733796" lon="11.963934241335357"><ele>581.0</ele><time>2026-04-12T10:28:15.998Z</time></trkpt><trkpt lat="43.546958915221474" lon="11.963901398190451"><ele>581.0</ele><time>2026-04-12T10:28:16.998Z</time></trkpt><trkpt lat="43.54685064248285" lon="11.963843985355982"><ele>581.0</ele><time>2026-04-12T10:28:17.998Z</time></trkpt><trkpt lat="43.54674507608436" lon="11.963763158885232"><ele>581.8</ele><time>2026-04-12T10:28:18.998Z</time></trkpt><trkpt lat="43.54665705462543" lon="11.963675031185044"><ele>582.6</ele><time>2026-04-12T10:28:19.998Z</time></trkpt><trkpt lat="43.54658939169123" lon="11.963583635583047"><ele>583.4</ele><time>2026-04-12T10:28:21Z</time></trkpt><trkpt lat="43.54653736484178" lon="11.963471371263845"><ele>584.2</ele><time>2026-04-12T10:28:22Z</time></trkpt><trkpt lat="43.546518128196816" lon="11.963340787242403"><ele>585.0</ele><time>2026-04-12T10:28:23Z</time></trkpt><trkpt lat="43.54650001674196" lon="11.963227301921968"><ele>584.6</ele><time>2026-04-12T10:28:24Z</time></trkpt><trkpt lat="43.54644695322902" lon="11.96313973649833"><ele>584.2</ele><time>2026-04-12T10:28:25Z</time></trkpt><trkpt lat="43.54636015030928" lon="11.963087129268313"><ele>583.8</ele><time>2026-04-12T10:28:26Z</time></trkpt><trkpt lat="43.54625653466365" lon="11.963070924250859"><ele>583.4</ele><time>2026-04-12T10:28:27Z</time></trkpt><trkpt lat="43.54613730628391" lon="11.963070966268102"><ele>583.0</ele><time>2026-04-12T10:28:28Z</time></trkpt><trkpt lat="43.546020149953875" lon="11.963071283887835"><ele>583.0</ele><time>2026-04-12T10:28:29Z</time></trkpt><trkpt lat="43.5459003182757" lon="11.963051741918619"><ele>583.0</ele><time>2026-04-12T10:28:30Z</time></trkpt><trkpt lat="43.54578126342555" lon="11.963013659537285"><ele>583.0</ele><time>2026-04-12T10:28:31Z</time></trkpt><trkpt lat="43.54565559037534" lon="11.962971753768954"><ele>583.0</ele><time>2026-04-12T10:28:32Z</time></trkpt><trkpt lat="43.545536201886385" lon="11.962935855153994"><ele>583.0</ele><time>2026-04-12T10:28:33Z</time></trkpt><trkpt lat="43.545426172432435" lon="11.96290772359728"><ele>583.0</ele><time>2026-04-12T10:28:34Z</time></trkpt><trkpt lat="43.54533715367532" lon="11.962910602119155"><ele>583.0</ele><time>2026-04-12T10:28:35Z</time></trkpt><trkpt lat="43.54524212093753" lon="11.962958983713422"><ele>583.0</ele><time>2026-04-12T10:28:36Z</time></trkpt><trkpt lat="43.545157603794244" lon="11.963064062704738"><ele>583.0</ele><time>2026-04-12T10:28:37Z</time></trkpt><trkpt lat="43.54510495723007" lon="11.963206671962368"><ele>583.25</ele><time>2026-04-12T10:28:38Z</time></trkpt><trkpt lat="43.545078756813155" lon="11.963369116889803"><ele>583.5</ele><time>2026-04-12T10:28:39Z</time></trkpt><trkpt lat="43.545039474219415" lon="11.963522417974882"><ele>583.75</ele><time>2026-04-12T10:28:40Z</time></trkpt><trkpt lat="43.54496284037254" lon="11.963638546964878"><ele>584.0</ele><time>2026-04-12T10:28:41Z</time></trkpt><trkpt lat="43.544851480132394" lon="11.963711706201531"><ele>584.0</ele><time>2026-04-12T10:28:42Z</time></trkpt><trkpt lat="43.54472552505745" lon="11.963776733187418"><ele>584.0</ele><time>2026-04-12T10:28:43Z</time></trkpt><trkpt lat="43.544598933253575" lon="11.963831716519877"><ele>584.0</ele><time>2026-04-12T10:28:44Z</time></trkpt><trkpt lat="43.54447275805789" lon="11.963888380411527"><ele>584.0</ele><time>2026-04-12T10:28:45Z</time></trkpt><trkpt lat="43.544343918131986" lon="11.963950611830901"><ele>584.25</ele><time>2026-04-12T10:28:46Z</time></trkpt><trkpt lat="43.544231442702085" lon="11.964037109529459"><ele>584.5</ele><time>2026-04-12T10:28:47Z</time></trkpt><trkpt lat="43.54412333085966" lon="11.964136595071354"><ele>584.75</ele><time>2026-04-12T10:28:48Z</time></trkpt><trkpt lat="43.54402653165038" lon="11.964224536710553"><ele>585.0</ele><time>2026-04-12T10:28:49Z</time></trkpt><trkpt lat="43.543921997836925" lon="11.964320558727866"><ele>587.5</ele><time>2026-04-12T10:28:50Z</time></trkpt><trkpt lat="43.54381635246544" lon="11.96442036611437"><ele>590.0</ele><time>2026-04-12T10:28:51Z</time></trkpt><trkpt lat="43.54372157259793" lon="11.96452416254887"><ele>592.5</ele><time>2026-04-12T10:28:52Z</time></trkpt><trkpt lat="43.54362946523214" lon="11.964619077877105"><ele>595.0</ele><time>2026-04-12T10:28:53Z</time></trkpt><trkpt lat="43.543525882350494" lon="11.964667323581885"><ele>595.0</ele><time>2026-04-12T10:28:54Z</time></trkpt><trkpt lat="43.543416798665945" lon="11.964665727688159"><ele>595.0</ele><time>2026-04-12T10:28:55Z</time></trkpt><trkpt lat="43.54330507929297" lon="11.96463677679187"><ele>595.0</ele><time>2026-04-12T10:28:56Z</time></trkpt><trkpt lat="43.5431872528009" lon="11.964605671083564"><ele>595.0</ele><time>2026-04-12T10:28:57Z</time></trkpt><trkpt lat="43.54306802319671" lon="11.964642815040065"><ele>595.0</ele><time>2026-04-12T10:28:58Z</time></trkpt><trkpt lat="43.54295999450895" lon="11.964738495897329"><ele>595.0</ele><time>2026-04-12T10:28:59Z</time></trkpt><trkpt lat="43.542875748035065" lon="11.964862606886294"><ele>595.0</ele><time>2026-04-12T10:29:00Z</time></trkpt><trkpt lat="43.54281346791663" lon="11.965011511635426"><ele>595.0</ele><time>2026-04-12T10:29:01Z</time></trkpt><trkpt lat="43.54275309104848" lon="11.965156511185185"><ele>595.5</ele><time>2026-04-12T10:29:02Z</time></trkpt><trkpt lat="43.54267875308272" lon="11.965294775055394"><ele>596.0</ele><time>2026-04-12T10:29:03Z</time></trkpt><trkpt lat="43.5425958254496" lon="11.965421507428097"><ele>596.5</ele><time>2026-04-12T10:29:04Z</time></trkpt><trkpt lat="43.542503794154634" lon="11.965532044972116"><ele>597.0</ele><time>2026-04-12T10:29:04.999Z</time></trkpt><trkpt lat="43.54240314058652" lon="11.965598236167581"><ele>597.0</ele><time>2026-04-12T10:29:05.999Z</time></trkpt><trkpt lat="43.54229447251887" lon="11.96561090789142"><ele>597.0</ele><time>2026-04-12T10:29:06.999Z</time></trkpt><trkpt lat="43.54220134777832" lon="11.965588566041005"><ele>597.0</ele><time>2026-04-12T10:29:07.999Z</time></trkpt><trkpt lat="43.54208518473796" lon="11.96559640874289"><ele>597.0</ele><time>2026-04-12T10:29:08.999Z</time></trkpt><trkpt lat="43.541983572588194" lon="11.965609430396524"><ele>597.0</ele><time>2026-04-12T10:29:09.999Z</time></trkpt><trkpt lat="43.54188634080284" lon="11.965630647406169"><ele>598.2</ele><time>2026-04-12T10:29:10.999Z</time></trkpt><trkpt lat="43.541788893461025" lon="11.965637969103627"><ele>599.4000000000001</ele><time>2026-04-12T10:29:11.999Z</time></trkpt><trkpt lat="43.54169545826132" lon="11.965637849763315"><ele>600.5999999999999</ele><time>2026-04-12T10:29:12.999Z</time></trkpt><trkpt lat="43.541590399971085" lon="11.965660196070846"><ele>601.8</ele><time>2026-04-12T10:29:13.999Z</time></trkpt><trkpt lat="43.54148580490899" lon="11.965689216400468"><ele>603.0</ele><time>2026-04-12T10:29:14.999Z</time></trkpt><trkpt lat="43.541387880554794" lon="11.965747015838724"><ele>603.0</ele><time>2026-04-12T10:29:15.999Z</time></trkpt><trkpt lat="43.54128345281951" lon="11.9658093841328"><ele>603.0</ele><time>2026-04-12T10:29:16.999Z</time></trkpt><trkpt lat="43.541177035511645" lon="11.965869960283445"><ele>603.0</ele><time>2026-04-12T10:29:17.999Z</time></trkpt><trkpt lat="43.54107061389604" lon="11.965930998977804"><ele>603.0</ele><time>2026-04-12T10:29:18.999Z</time></trkpt><trkpt lat="43.540965069147646" lon="11.965987870295727"><ele>604.25</ele><time>2026-04-12T10:29:19.999Z</time></trkpt><trkpt lat="43.540861710549265" lon="11.966044567197967"><ele>605.5</ele><time>2026-04-12T10:29:20.999Z</time></trkpt><trkpt lat="43.54075734219148" lon="11.96610868488024"><ele>606.75</ele><time>2026-04-12T10:29:21.999Z</time></trkpt><trkpt lat="43.5406474867967" lon="11.9661688437138"><ele>608.0</ele><time>2026-04-12T10:29:22.999Z</time></trkpt><trkpt lat="43.54053694060626" lon="11.96623296451103"><ele>608.0</ele><time>2026-04-12T10:29:23.999Z</time></trkpt><trkpt lat="43.54041442830916" lon="11.966306491628233"><ele>608.0</ele><time>2026-04-12T10:29:24.999Z</time></trkpt><trkpt lat="43.54030432306846" lon="11.96637105973726"><ele>608.0</ele><time>2026-04-12T10:29:25.999Z</time></trkpt><trkpt lat="43.5402007080869" lon="11.966424224608684"><ele>608.0</ele><time>2026-04-12T10:29:26.999Z</time></trkpt><trkpt lat="43.540102569143414" lon="11.966450668734419"><ele>608.1999999999999</ele><time>2026-04-12T10:29:27.999Z</time></trkpt><trkpt lat="43.5399987601481" lon="11.966465134354998"><ele>608.4</ele><time>2026-04-12T10:29:28.999Z</time></trkpt><trkpt lat="43.539891964897755" lon="11.966477956947841"><ele>608.5999999999999</ele><time>2026-04-12T10:29:29.999Z</time></trkpt><trkpt lat="43.539795120952746" lon="11.96651754815961"><ele>608.8</ele><time>2026-04-12T10:29:30.999Z</time></trkpt><trkpt lat="43.53970771856186" lon="11.96659437330774"><ele>609.0</ele><time>2026-04-12T10:29:31.999Z</time></trkpt><trkpt lat="43.539612837068375" lon="11.966664373710287"><ele>609.6</ele><time>2026-04-12T10:29:32.999Z</time></trkpt><trkpt lat="43.53951480998272" lon="11.96670504106146"><ele>610.2</ele><time>2026-04-12T10:29:33.999Z</time></trkpt><trkpt lat="43.539407038935366" lon="11.966718087449793"><ele>610.8000000000001</ele><time>2026-04-12T10:29:34.999Z</time></trkpt><trkpt lat="43.5392975604787" lon="11.966711888083704"><ele>611.4</ele><time>2026-04-12T10:29:35.999Z</time></trkpt><trkpt lat="43.53917188161925" lon="11.966698831313478"><ele>612.0</ele><time>2026-04-12T10:29:36.999Z</time></trkpt><trkpt lat="43.53905200613083" lon="11.966672198380277"><ele>612.0</ele><time>2026-04-12T10:29:37.999Z</time></trkpt><trkpt lat="43.538931509255775" lon="11.966631973232426"><ele>612.0</ele><time>2026-04-12T10:29:38.999Z</time></trkpt><trkpt lat="43.538810908138636" lon="11.966573980984352"><ele>612.0</ele><time>2026-04-12T10:29:39.999Z</time></trkpt><trkpt lat="43.53869431438943" lon="11.966506331197868"><ele>612.0</ele><time>2026-04-12T10:29:40.999Z</time></trkpt><trkpt lat="43.538585280977344" lon="11.96644294939126"><ele>613.8000000000001</ele><time>2026-04-12T10:29:41.999Z</time></trkpt><trkpt lat="43.53847476916096" lon="11.966389993423858"><ele>615.6</ele><time>2026-04-12T10:29:42.999Z</time></trkpt><trkpt lat="43.5383696271642" lon="11.966361827409504"><ele>617.4000000000001</ele><time>2026-04-12T10:29:43.999Z</time></trkpt><trkpt lat="43.53826521851027" lon="11.966356120121862"><ele>619.2</ele><time>2026-04-12T10:29:44.999Z</time></trkpt><trkpt lat="43.53816012106229" lon="11.96634622084107"><ele>621.0</ele><time>2026-04-12T10:29:45.999Z</time></trkpt><trkpt lat="43.53805108213303" lon="11.966336893663302"><ele>621.0</ele><time>2026-04-12T10:29:46.999Z</time></trkpt><trkpt lat="43.53794418028869" lon="11.966316890199876"><ele>621.0</ele><time>2026-04-12T10:29:47.999Z</time></trkpt><trkpt lat="43.537838486927555" lon="11.966271931290644"><ele>621.0</ele><time>2026-04-12T10:29:48.999Z</time></trkpt><trkpt lat="43.53775453174524" lon="11.966180762784367"><ele>621.0</ele><time>2026-04-12T10:29:49.999Z</time></trkpt><trkpt lat="43.53768937509317" lon="11.966075979421861"><ele>621.0</ele><time>2026-04-12T10:29:50.999Z</time></trkpt><trkpt lat="43.53762558309436" lon="11.965970396394669"><ele>620.8</ele><time>2026-04-12T10:29:51.999Z</time></trkpt><trkpt lat="43.5375470736569" lon="11.965872478228022"><ele>620.6</ele><time>2026-04-12T10:29:52.999Z</time></trkpt><trkpt lat="43.53744712988967" lon="11.965804873612218"><ele>620.4</ele><time>2026-04-12T10:29:53.999Z</time></trkpt><trkpt lat="43.53733778164601" lon="11.965761306490897"><ele>620.2</ele><time>2026-04-12T10:29:54.999Z</time></trkpt><trkpt lat="43.53722960784254" lon="11.965734003012969"><ele>620.0</ele><time>2026-04-12T10:29:55.999Z</time></trkpt><trkpt lat="43.53711485002045" lon="11.965713944939061"><ele>622.6</ele><time>2026-04-12T10:29:56.999Z</time></trkpt><trkpt lat="43.5370200188266" lon="11.965705473152859"><ele>625.2</ele><time>2026-04-12T10:29:57.999Z</time></trkpt><trkpt lat="43.53691545576944" lon="11.965683143559088"><ele>627.8</ele><time>2026-04-12T10:29:58.999Z</time></trkpt><trkpt lat="43.53681833863552" lon="11.965658331993357"><ele>630.4</ele><time>2026-04-12T10:29:59.999Z</time></trkpt><trkpt lat="43.53672521864302" lon="11.965620943041202"><ele>633.0</ele><time>2026-04-12T10:30:00.999Z</time></trkpt><trkpt lat="43.536626789778836" lon="11.96559642320518"><ele>633.0</ele><time>2026-04-12T10:30:01.999Z</time></trkpt><trkpt lat="43.53652264095142" lon="11.965579330617066"><ele>633.0</ele><time>2026-04-12T10:30:02.999Z</time></trkpt><trkpt lat="43.53642581420942" lon="11.965589141027886"><ele>633.0</ele><time>2026-04-12T10:30:03.999Z</time></trkpt><trkpt lat="43.53632615456929" lon="11.965615133122277"><ele>633.0</ele><time>2026-04-12T10:30:04.999Z</time></trkpt><trkpt lat="43.53622370782496" lon="11.9656505286124"><ele>633.0</ele><time>2026-04-12T10:30:05.999Z</time></trkpt><trkpt lat="43.53612257302311" lon="11.965671971595185"><ele>634.5999999999999</ele><time>2026-04-12T10:30:06.998Z</time></trkpt><trkpt lat="43.5360209173763" lon="11.965658025272052"><ele>636.1999999999999</ele><time>2026-04-12T10:30:07.998Z</time></trkpt><trkpt lat="43.53592654151457" lon="11.965618938538634"><ele>637.8</ele><time>2026-04-12T10:30:08.998Z</time></trkpt><trkpt lat="43.53582050802533" lon="11.96557112926918"><ele>639.4</ele><time>2026-04-12T10:30:09.998Z</time></trkpt><trkpt lat="43.53571726997519" lon="11.965507669542339"><ele>641.0</ele><time>2026-04-12T10:30:10.998Z</time></trkpt><trkpt lat="43.535602941282626" lon="11.965450826167421"><ele>641.0</ele><time>2026-04-12T10:30:11.998Z</time></trkpt><trkpt lat="43.535496432157125" lon="11.96537756313738"><ele>641.0</ele><time>2026-04-12T10:30:12.998Z</time></trkpt><trkpt lat="43.53540801535754" lon="11.965258648642136"><ele>641.0</ele><time>2026-04-12T10:30:13.998Z</time></trkpt><trkpt lat="43.53533553666261" lon="11.965113504441408"><ele>641.0</ele><time>2026-04-12T10:30:14.998Z</time></trkpt><trkpt lat="43.53525051594385" lon="11.965018793771538"><ele>640.0</ele><time>2026-04-12T10:30:15.998Z</time></trkpt><trkpt lat="43.535155387761975" lon="11.964966614561446"><ele>639.0</ele><time>2026-04-12T10:30:16.998Z</time></trkpt><trkpt lat="43.53504660737014" lon="11.964941972823073"><ele>638.0</ele><time>2026-04-12T10:30:17.998Z</time></trkpt><trkpt lat="43.534932687154104" lon="11.964920656602883"><ele>637.0</ele><time>2026-04-12T10:30:18.998Z</time></trkpt><trkpt lat="43.534813226604406" lon="11.964930516733773"><ele>636.0</ele><time>2026-04-12T10:30:19.998Z</time></trkpt><trkpt lat="43.53468698755776" lon="11.964952412060518"><ele>636.0</ele><time>2026-04-12T10:30:20.998Z</time></trkpt><trkpt lat="43.5345640043999" lon="11.964972212464218"><ele>636.0</ele><time>2026-04-12T10:30:21.998Z</time></trkpt><trkpt lat="43.53443254695078" lon="11.96498983359892"><ele>636.0</ele><time>2026-04-12T10:30:22.998Z</time></trkpt><trkpt lat="43.534305338290984" lon="11.965013980101192"><ele>636.0</ele><time>2026-04-12T10:30:23.998Z</time></trkpt><trkpt lat="43.53418149150099" lon="11.965030345221852"><ele>635.25</ele><time>2026-04-12T10:30:24.998Z</time></trkpt><trkpt lat="43.53405807590178" lon="11.965044525103085"><ele>634.5</ele><time>2026-04-12T10:30:25.998Z</time></trkpt><trkpt lat="43.53393433609644" lon="11.965042144885876"><ele>633.75</ele><time>2026-04-12T10:30:27Z</time></trkpt><trkpt lat="43.53380343005052" lon="11.965029269691227"><ele>633.0</ele><time>2026-04-12T10:30:28Z</time></trkpt><trkpt lat="43.53367974844904" lon="11.965008350831138"><ele>632.25</ele><time>2026-04-12T10:30:29Z</time></trkpt><trkpt lat="43.53355021324893" lon="11.964981874337152"><ele>631.5</ele><time>2026-04-12T10:30:30Z</time></trkpt><trkpt lat="43.53343629105471" lon="11.964935463655044"><ele>630.75</ele><time>2026-04-12T10:30:31Z</time></trkpt><trkpt lat="43.53332090066808" lon="11.9648720925307"><ele>630.0</ele><time>2026-04-12T10:30:32Z</time></trkpt><trkpt lat="43.53320293345101" lon="11.964802288375532"><ele>630.0</ele><time>2026-04-12T10:30:33Z</time></trkpt><trkpt lat="43.533080642858806" lon="11.964728193444017"><ele>630.0</ele><time>2026-04-12T10:30:34Z</time></trkpt><trkpt lat="43.53296092671963" lon="11.964657459804743"><ele>630.0</ele><time>2026-04-12T10:30:35Z</time></trkpt><trkpt lat="43.53284042486029" lon="11.964583117881697"><ele>630.0</ele><time>2026-04-12T10:30:36Z</time></trkpt><trkpt lat="43.53271922253703" lon="11.964514648427384"><ele>628.75</ele><time>2026-04-12T10:30:37Z</time></trkpt><trkpt lat="43.53259175162786" lon="11.96443864245967"><ele>627.5</ele><time>2026-04-12T10:30:38Z</time></trkpt><trkpt lat="43.53246390857217" lon="11.964372255184557"><ele>626.25</ele><time>2026-04-12T10:30:39Z</time></trkpt><trkpt lat="43.53233480760982" lon="11.964324284400178"><ele>625.0</ele><time>2026-04-12T10:30:40Z</time></trkpt><trkpt lat="43.532197151490095" lon="11.964288300403535"><ele>625.0</ele><time>2026-04-12T10:30:41Z</time></trkpt><trkpt lat="43.532062425395054" lon="11.964258279406748"><ele>625.0</ele><time>2026-04-12T10:30:42Z</time></trkpt><trkpt lat="43.53193398134837" lon="11.964218287074909"><ele>625.0</ele><time>2026-04-12T10:30:43Z</time></trkpt><trkpt lat="43.5317935976483" lon="11.964174740816471"><ele>625.0</ele><time>2026-04-12T10:30:44Z</time></trkpt><trkpt lat="43.53164626922295" lon="11.964140700282531"><ele>627.0</ele><time>2026-04-12T10:30:45Z</time></trkpt><trkpt lat="43.531496802989444" lon="11.964111150097157"><ele>629.0</ele><time>2026-04-12T10:30:46Z</time></trkpt><trkpt lat="43.531337643253686" lon="11.964082369149192"><ele>631.0</ele><time>2026-04-12T10:30:47Z</time></trkpt><trkpt lat="43.5311812348765" lon="11.964067580579483"><ele>632.3333333333334</ele><time>2026-04-12T10:30:48Z</time></trkpt><trkpt lat="43.53101944328158" lon="11.964064347722097"><ele>633.6666666666666</ele><time>2026-04-12T10:30:49Z</time></trkpt><trkpt lat="43.53084793494812" lon="11.964066529211921"><ele>635.0</ele><time>2026-04-12T10:30:50Z</time></trkpt><trkpt lat="43.53067963805085" lon="11.964061564329743"><ele>635.0</ele><time>2026-04-12T10:30:51Z</time></trkpt><trkpt lat="43.53050730953901" lon="11.964059278586811"><ele>635.0</ele><time>2026-04-12T10:30:52Z</time></trkpt><trkpt lat="43.53033267823916" lon="11.964072605873277"><ele>635.0</ele><time>2026-04-12T10:30:53Z</time></trkpt><trkpt lat="43.530182167881016" lon="11.964059869625013"><ele>637.25</ele><time>2026-04-12T10:30:54Z</time></trkpt><trkpt lat="43.53005580273444" lon="11.9640116418307"><ele>639.5</ele><time>2026-04-12T10:30:55Z</time></trkpt><trkpt lat="43.52994193218018" lon="11.963918315606923"><ele>641.75</ele><time>2026-04-12T10:30:56Z</time></trkpt><trkpt lat="43.52983554939812" lon="11.963797965828158"><ele>644.0</ele><time>2026-04-12T10:30:57Z</time></trkpt><trkpt lat="43.52973380095879" lon="11.963650080872377"><ele>644.0</ele><time>2026-04-12T10:30:58Z</time></trkpt><trkpt lat="43.52964039031491" lon="11.96348963676158"><ele>644.0</ele><time>2026-04-12T10:30:59Z</time></trkpt><trkpt lat="43.529539630975705" lon="11.963339475688276"><ele>644.0</ele><time>2026-04-12T10:31:00Z</time></trkpt><trkpt lat="43.5294272170824" lon="11.963192365160856"><ele>645.0</ele><time>2026-04-12T10:31:01Z</time></trkpt><trkpt lat="43.52929674821771" lon="11.963064492821697"><ele>646.0</ele><time>2026-04-12T10:31:02Z</time></trkpt><trkpt lat="43.52916397223832" lon="11.962952727251361"><ele>647.0</ele><time>2026-04-12T10:31:03Z</time></trkpt><trkpt lat="43.529019539890854" lon="11.962845606046887"><ele>647.0</ele><time>2026-04-12T10:31:04Z</time></trkpt><trkpt lat="43.52886823389224" lon="11.962764195021967"><ele>647.0</ele><time>2026-04-12T10:31:05Z</time></trkpt><trkpt lat="43.5287069781156" lon="11.962719210709905"><ele>647.0</ele><time>2026-04-12T10:31:06Z</time></trkpt><trkpt lat="43.52854474144874" lon="11.962678746249848"><ele>645.6666666666666</ele><time>2026-04-12T10:31:07Z</time></trkpt><trkpt lat="43.528377136113434" lon="11.962645982281396"><ele>644.3333333333334</ele><time>2026-04-12T10:31:08Z</time></trkpt><trkpt lat="43.52821190168968" lon="11.96262143137826"><ele>643.0</ele><time>2026-04-12T10:31:09Z</time></trkpt><trkpt lat="43.528057146598904" lon="11.962614768666498"><ele>643.0</ele><time>2026-04-12T10:31:10Z</time></trkpt><trkpt lat="43.52790517515008" lon="11.962624223325243"><ele>643.0</ele><time>2026-04-12T10:31:11Z</time></trkpt><trkpt lat="43.527752494036406" lon="11.962651143004916"><ele>643.0</ele><time>2026-04-12T10:31:12Z</time></trkpt><trkpt lat="43.52759906264675" lon="11.962687212339906"><ele>643.3333333333334</ele><time>2026-04-12T10:31:13Z</time></trkpt><trkpt lat="43.52745062304173" lon="11.962733722599594"><ele>643.6666666666666</ele><time>2026-04-12T10:31:14Z</time></trkpt><trkpt lat="43.527301955830396" lon="11.962780419259406"><ele>644.0</ele><time>2026-04-12T10:31:14.999Z</time></trkpt><trkpt lat="43.527156285213856" lon="11.962828598806631"><ele>646.5</ele><time>2026-04-12T10:31:15.999Z</time></trkpt><trkpt lat="43.52701646488489" lon="11.962888162884926"><ele>649.0</ele><time>2026-04-12T10:31:16.999Z</time></trkpt><trkpt lat="43.52689206293959" lon="11.962975562085497"><ele>651.5</ele><time>2026-04-12T10:31:17.999Z</time></trkpt><trkpt lat="43.5267750655186" lon="11.963089378541682"><ele>654.0</ele><time>2026-04-12T10:31:18.999Z</time></trkpt><trkpt lat="43.52667413936451" lon="11.963222851087293"><ele>654.0</ele><time>2026-04-12T10:31:19.999Z</time></trkpt><trkpt lat="43.52658215878744" lon="11.963355874133228"><ele>654.0</ele><time>2026-04-12T10:31:20.999Z</time></trkpt><trkpt lat="43.52650216879316" lon="11.96349950144341"><ele>654.0</ele><time>2026-04-12T10:31:21.999Z</time></trkpt><trkpt lat="43.526419302785236" lon="11.963635095418526"><ele>654.0</ele><time>2026-04-12T10:31:22.999Z</time></trkpt><trkpt lat="43.526330967042696" lon="11.963725288082468"><ele>654.2</ele><time>2026-04-12T10:31:23.999Z</time></trkpt><trkpt lat="43.5262328198116" lon="11.9637720801848"><ele>654.4000000000001</ele><time>2026-04-12T10:31:24.999Z</time></trkpt><trkpt lat="43.52613466962752" lon="11.963770430827607"><ele>654.6</ele><time>2026-04-12T10:31:25.999Z</time></trkpt><trkpt lat="43.5260357060208" lon="11.963727967417004"><ele>654.8</ele><time>2026-04-12T10:31:26.999Z</time></trkpt><trkpt lat="43.525942023365026" lon="11.963652747815802"><ele>655.0</ele><time>2026-04-12T10:31:27.999Z</time></trkpt><trkpt lat="43.52584892030207" lon="11.963581597354269"><ele>655.0</ele><time>2026-04-12T10:31:28.999Z</time></trkpt><trkpt lat="43.525763400926216" lon="11.963574858939308"><ele>655.0</ele><time>2026-04-12T10:31:29.999Z</time></trkpt><trkpt lat="43.52566735572988" lon="11.963608423980249"><ele>655.0</ele><time>2026-04-12T10:31:30.999Z</time></trkpt><trkpt lat="43.525588194487014" lon="11.963691672233333"><ele>655.0</ele><time>2026-04-12T10:31:31.999Z</time></trkpt><trkpt lat="43.525532413240526" lon="11.963812374424512"><ele>655.0</ele><time>2026-04-12T10:31:32.999Z</time></trkpt><trkpt lat="43.52548653615039" lon="11.963945268215506"><ele>655.0</ele><time>2026-04-12T10:31:33.999Z</time></trkpt><trkpt lat="43.52543187344668" lon="11.964082778750383"><ele>655.0</ele><time>2026-04-12T10:31:34.999Z</time></trkpt><trkpt lat="43.52537254645584" lon="11.964217050111621"><ele>655.0</ele><time>2026-04-12T10:31:35.999Z</time></trkpt><trkpt lat="43.52530020599896" lon="11.964334475956752"><ele>655.0</ele><time>2026-04-12T10:31:36.999Z</time></trkpt><trkpt lat="43.525197814909276" lon="11.964419510792181"><ele>655.0</ele><time>2026-04-12T10:31:37.999Z</time></trkpt><trkpt lat="43.52507756365379" lon="11.964472707939136"><ele>655.0</ele><time>2026-04-12T10:31:38.999Z</time></trkpt><trkpt lat="43.524945751099324" lon="11.964512404234881"><ele>655.0</ele><time>2026-04-12T10:31:39.999Z</time></trkpt><trkpt lat="43.52480555162535" lon="11.964539802548899"><ele>655.0</ele><time>2026-04-12T10:31:40.999Z</time></trkpt><trkpt lat="43.52466632915672" lon="11.9645705026145"><ele>655.0</ele><time>2026-04-12T10:31:41.999Z</time></trkpt><trkpt lat="43.5245260134654" lon="11.964600597227918"><ele>655.0</ele><time>2026-04-12T10:31:42.999Z</time></trkpt><trkpt lat="43.524392745204224" lon="11.964636042889001"><ele>655.0</ele><time>2026-04-12T10:31:43.999Z</time></trkpt><trkpt lat="43.52425080109622" lon="11.964668515021021"><ele>655.0</ele><time>2026-04-12T10:31:44.999Z</time></trkpt><trkpt lat="43.524106121432645" lon="11.964702908673612"><ele>655.0</ele><time>2026-04-12T10:31:45.999Z</time></trkpt><trkpt lat="43.52395583280829" lon="11.964734007990275"><ele>655.0</ele><time>2026-04-12T10:31:46.999Z</time></trkpt><trkpt lat="43.523802479661114" lon="11.964768747111144"><ele>655.0</ele><time>2026-04-12T10:31:47.999Z</time></trkpt><trkpt lat="43.52364550655348" lon="11.964798403274076"><ele>655.6666666666667</ele><time>2026-04-12T10:31:48.999Z</time></trkpt><trkpt lat="43.52349365141673" lon="11.96483552277286"><ele>656.3333333333334</ele><time>2026-04-12T10:31:49.999Z</time></trkpt><trkpt lat="43.52334263805928" lon="11.964886959054681"><ele>657.0</ele><time>2026-04-12T10:31:50.999Z</time></trkpt><trkpt lat="43.523187159566454" lon="11.964945185363133"><ele>657.0</ele><time>2026-04-12T10:31:51.999Z</time></trkpt><trkpt lat="43.5230315597264" lon="11.965014290872892"><ele>657.0</ele><time>2026-04-12T10:31:52.999Z</time></trkpt><trkpt lat="43.522879052304305" lon="11.965097402186686"><ele>657.0</ele><time>2026-04-12T10:31:53.999Z</time></trkpt><trkpt lat="43.52273359477741" lon="11.965181961498363"><ele>657.6666666666666</ele><time>2026-04-12T10:31:54.999Z</time></trkpt><trkpt lat="43.52258166246513" lon="11.965273292064666"><ele>658.3333333333333</ele><time>2026-04-12T10:31:55.999Z</time></trkpt><trkpt lat="43.522435766428664" lon="11.965349239766573"><ele>659.0</ele><time>2026-04-12T10:31:56.999Z</time></trkpt><trkpt lat="43.522302605281055" lon="11.965419713148746"><ele>659.0</ele><time>2026-04-12T10:31:57.999Z</time></trkpt><trkpt lat="43.52217059267166" lon="11.965493562445879"><ele>659.0</ele><time>2026-04-12T10:31:58.999Z</time></trkpt><trkpt lat="43.52204309674487" lon="11.965566124988406"><ele>659.0</ele><time>2026-04-12T10:31:59.999Z</time></trkpt><trkpt lat="43.52191411522254" lon="11.96564100902693"><ele>659.0</ele><time>2026-04-12T10:32:00.999Z</time></trkpt><trkpt lat="43.52179861315879" lon="11.96573969536919"><ele>662.25</ele><time>2026-04-12T10:32:01.999Z</time></trkpt><trkpt lat="43.52169734064156" lon="11.965864687526219"><ele>665.5</ele><time>2026-04-12T10:32:02.999Z</time></trkpt><trkpt lat="43.52162361959136" lon="11.966011612243891"><ele>668.75</ele><time>2026-04-12T10:32:03.999Z</time></trkpt><trkpt lat="43.52157028167764" lon="11.966172882005962"><ele>672.0</ele><time>2026-04-12T10:32:04.999Z</time></trkpt><trkpt lat="43.52153226930557" lon="11.966349503474435"><ele>672.0</ele><time>2026-04-12T10:32:05.999Z</time></trkpt><trkpt lat="43.521500673033586" lon="11.966533027005623"><ele>672.0</ele><time>2026-04-12T10:32:06.999Z</time></trkpt><trkpt lat="43.52146086703677" lon="11.966718611436162"><ele>672.0</ele><time>2026-04-12T10:32:07.999Z</time></trkpt><trkpt lat="43.521413973715774" lon="11.966902443651863"><ele>672.0</ele><time>2026-04-12T10:32:08.999Z</time></trkpt><trkpt lat="43.52137088236198" lon="11.967094400559382"><ele>670.3333333333334</ele><time>2026-04-12T10:32:09.999Z</time></trkpt><trkpt lat="43.52132508529339" lon="11.967290057706059"><ele>668.6666666666667</ele><time>2026-04-12T10:32:10.999Z</time></trkpt><trkpt lat="43.521270880901355" lon="11.967484712585918"><ele>667.0</ele><time>2026-04-12T10:32:11.999Z</time></trkpt><trkpt lat="43.52121091839964" lon="11.967676360606756"><ele>670.75</ele><time>2026-04-12T10:32:12.999Z</time></trkpt><trkpt lat="43.52115093524045" lon="11.967885222268873"><ele>674.5</ele><time>2026-04-12T10:32:13.999Z</time></trkpt><trkpt lat="43.52110127720865" lon="11.968074599947506"><ele>678.25</ele><time>2026-04-12T10:32:14.999Z</time></trkpt><trkpt lat="43.5210654352766" lon="11.968233091693875"><ele>682.0</ele><time>2026-04-12T10:32:15.998Z</time></trkpt><trkpt lat="43.52101411196685" lon="11.968354828384"><ele>679.6</ele><time>2026-04-12T10:32:16.998Z</time></trkpt><trkpt lat="43.52093647940549" lon="11.968446384585015"><ele>677.2</ele><time>2026-04-12T10:32:17.998Z</time></trkpt><trkpt lat="43.5208421539349" lon="11.968463287928394"><ele>674.8</ele><time>2026-04-12T10:32:18.998Z</time></trkpt><trkpt lat="43.520741398818835" lon="11.968451621719293"><ele>672.4</ele><time>2026-04-12T10:32:19.998Z</time></trkpt><trkpt lat="43.52064527076524" lon="11.968418565779393"><ele>670.0</ele><time>2026-04-12T10:32:20.998Z</time></trkpt><trkpt lat="43.52054836297025" lon="11.968397012373364"><ele>670.0</ele><time>2026-04-12T10:32:21.998Z</time></trkpt><trkpt lat="43.520452663560505" lon="11.968400307739017"><ele>670.0</ele><time>2026-04-12T10:32:22.998Z</time></trkpt><trkpt lat="43.52036424894848" lon="11.96841647076254"><ele>670.0</ele><time>2026-04-12T10:32:23.998Z</time></trkpt><trkpt lat="43.52026486068353" lon="11.968456867323384"><ele>670.0</ele><time>2026-04-12T10:32:24.998Z</time></trkpt><trkpt lat="43.520181816229424" lon="11.968526802222192"><ele>670.0</ele><time>2026-04-12T10:32:25.998Z</time></trkpt><trkpt lat="43.52010755982131" lon="11.96862931426964"><ele>671.75</ele><time>2026-04-12T10:32:26.998Z</time></trkpt><trkpt lat="43.52005377902658" lon="11.968761706621427"><ele>673.5</ele><time>2026-04-12T10:32:27.998Z</time></trkpt><trkpt lat="43.520013253687935" lon="11.968907764826207"><ele>675.25</ele><time>2026-04-12T10:32:28.998Z</time></trkpt><trkpt lat="43.519963860498954" lon="11.969059288480064"><ele>677.0</ele><time>2026-04-12T10:32:29.998Z</time></trkpt><trkpt lat="43.51991086962033" lon="11.969213328957649"><ele>677.0</ele><time>2026-04-12T10:32:30.998Z</time></trkpt><trkpt lat="43.519855335264914" lon="11.969373188167571"><ele>677.0</ele><time>2026-04-12T10:32:31.998Z</time></trkpt><trkpt lat="43.51979668756557" lon="11.969533460344152"><ele>677.0</ele><time>2026-04-12T10:32:33Z</time></trkpt><trkpt lat="43.51973671570287" lon="11.969688461169127"><ele>677.0</ele><time>2026-04-12T10:32:34Z</time></trkpt><trkpt lat="43.51967797897065" lon="11.969843904332066"><ele>677.0</ele><time>2026-04-12T10:32:35Z</time></trkpt><trkpt lat="43.51961913176686" lon="11.969992800874817"><ele>677.0</ele><time>2026-04-12T10:32:36Z</time></trkpt><trkpt lat="43.51956289508083" lon="11.97013552264276"><ele>677.0</ele><time>2026-04-12T10:32:37Z</time></trkpt><trkpt lat="43.51951180612021" lon="11.970261107934759"><ele>677.0</ele><time>2026-04-12T10:32:38Z</time></trkpt><trkpt lat="43.519468593302726" lon="11.970376383320804"><ele>677.0</ele><time>2026-04-12T10:32:39Z</time></trkpt><trkpt lat="43.5194323564564" lon="11.970478638478813"><ele>678.1666666666666</ele><time>2026-04-12T10:32:40Z</time></trkpt><trkpt lat="43.51940303515655" lon="11.970569749886389"><ele>679.3333333333333</ele><time>2026-04-12T10:32:41Z</time></trkpt><trkpt lat="43.519367020645966" lon="11.970719954471893"><ele>680.5</ele><time>2026-04-12T10:32:43Z</time></trkpt><trkpt lat="43.51935723065288" lon="11.9708526869822"><ele>681.6666666666666</ele><time>2026-04-12T10:32:45Z</time></trkpt><trkpt lat="43.51937429892289" lon="11.970970730181058"><ele>682.8333333333334</ele><time>2026-04-12T10:32:47Z</time></trkpt><trkpt lat="43.519400221757685" lon="11.971050666308008"><ele>684.0</ele><time>2026-04-12T10:32:51Z</time></trkpt><trkpt lat="43.51936670574396" lon="11.971182041056656"><ele>685.8571428571428</ele><time>2026-04-12T10:32:56Z</time></trkpt><trkpt lat="43.519291086230226" lon="11.971195529700406"><ele>687.7142857142857</ele><time>2026-04-12T10:32:57Z</time></trkpt><trkpt lat="43.51921592329733" lon="11.971201284252377"><ele>689.5714285714286</ele><time>2026-04-12T10:33:00Z</time></trkpt><trkpt lat="43.5191512191756" lon="11.971248492311686"><ele>691.4285714285713</ele><time>2026-04-12T10:33:05Z</time></trkpt><trkpt lat="43.519083310794684" lon="11.971294962862162"><ele>693.2857142857142</ele><time>2026-04-12T10:33:06Z</time></trkpt><trkpt lat="43.519016143020295" lon="11.971341367271284"><ele>695.1428571428571</ele><time>2026-04-12T10:33:07Z</time></trkpt><trkpt lat="43.51894977831493" lon="11.971358438916646"><ele>697.0</ele><time>2026-04-12T10:33:08Z</time></trkpt><trkpt lat="43.518866296365715" lon="11.971347549859223"><ele>697.0</ele><time>2026-04-12T10:33:09Z</time></trkpt><trkpt lat="43.518762604768156" lon="11.971311660785165"><ele>697.0</ele><time>2026-04-12T10:33:10Z</time></trkpt><trkpt lat="43.51868578400209" lon="11.97130513551381"><ele>697.0</ele><time>2026-04-12T10:33:11Z</time></trkpt><trkpt lat="43.518594922886514" lon="11.971307825624654"><ele>697.0</ele><time>2026-04-12T10:33:12Z</time></trkpt><trkpt lat="43.518514566452474" lon="11.971300001424037"><ele>697.0</ele><time>2026-04-12T10:33:13Z</time></trkpt><trkpt lat="43.51842390507517" lon="11.971276942809572"><ele>697.0</ele><time>2026-04-12T10:33:14Z</time></trkpt><trkpt lat="43.518339371600604" lon="11.971262297385708"><ele>699.0</ele><time>2026-04-12T10:33:15Z</time></trkpt><trkpt lat="43.51825840138347" lon="11.971260691278475"><ele>701.0</ele><time>2026-04-12T10:33:16Z</time></trkpt><trkpt lat="43.518188504440594" lon="11.971251166899892"><ele>703.0</ele><time>2026-04-12T10:33:17Z</time></trkpt><trkpt lat="43.518062592499675" lon="11.97124958016297"><ele>705.0</ele><time>2026-04-12T10:33:18.999Z</time></trkpt><trkpt lat="43.51798458732055" lon="11.97122880552684"><ele>707.0</ele><time>2026-04-12T10:33:19.999Z</time></trkpt><trkpt lat="43.51789772300595" lon="11.971222545849999"><ele>709.0</ele><time>2026-04-12T10:33:20.999Z</time></trkpt><trkpt lat="43.517824451583515" lon="11.97122382147747"><ele>709.8333333333334</ele><time>2026-04-12T10:33:21.999Z</time></trkpt><trkpt lat="43.517742800167014" lon="11.971229139320414"><ele>710.6666666666667</ele><time>2026-04-12T10:33:22.999Z</time></trkpt><trkpt lat="43.51764904613929" lon="11.971240585944624"><ele>711.5</ele><time>2026-04-12T10:33:23.999Z</time></trkpt><trkpt lat="43.517566959621774" lon="11.97127582783421"><ele>712.3333333333334</ele><time>2026-04-12T10:33:24.999Z</time></trkpt><trkpt lat="43.517503137308616" lon="11.971340576807618"><ele>713.1666666666666</ele><time>2026-04-12T10:33:25.999Z</time></trkpt><trkpt lat="43.51744855737989" lon="11.971436531742274"><ele>714.0</ele><time>2026-04-12T10:33:26.999Z</time></trkpt><trkpt lat="43.51741014671896" lon="11.971536898554778"><ele>714.0</ele><time>2026-04-12T10:33:27.999Z</time></trkpt><trkpt lat="43.517381907800754" lon="11.971624535490617"><ele>714.0</ele><time>2026-04-12T10:33:28.999Z</time></trkpt><trkpt lat="43.517309945012286" lon="11.971774429492163"><ele>714.0</ele><time>2026-04-12T10:33:30.999Z</time></trkpt><trkpt lat="43.517271131712086" lon="11.971859748090674"><ele>714.0</ele><time>2026-04-12T10:33:31.999Z</time></trkpt><trkpt lat="43.51721654070551" lon="11.971905468765247"><ele>714.0</ele><time>2026-04-12T10:33:32.999Z</time></trkpt><trkpt lat="43.51715091682465" lon="11.971903868390086"><ele>714.0</ele><time>2026-04-12T10:33:33.999Z</time></trkpt><trkpt lat="43.517079945802145" lon="11.971860986952118"><ele>713.8000000000001</ele><time>2026-04-12T10:33:34.999Z</time></trkpt><trkpt lat="43.517008869300625" lon="11.971789894041777"><ele>713.6</ele><time>2026-04-12T10:33:35.999Z</time></trkpt><trkpt lat="43.51693486593882" lon="11.971732075719215"><ele>713.4</ele><time>2026-04-12T10:33:36.999Z</time></trkpt><trkpt lat="43.51686193180143" lon="11.971683406482759"><ele>713.2</ele><time>2026-04-12T10:33:37.999Z</time></trkpt><trkpt lat="43.51675835879035" lon="11.971638019466065"><ele>713.0</ele><time>2026-04-12T10:33:38.999Z</time></trkpt><trkpt lat="43.51667303049322" lon="11.9715829484087"><ele>713.0</ele><time>2026-04-12T10:33:40.999Z</time></trkpt><trkpt lat="43.51660751105422" lon="11.971545370788114"><ele>713.0</ele><time>2026-04-12T10:33:42.999Z</time></trkpt><trkpt lat="43.51654584802421" lon="11.971523846239027"><ele>713.0</ele><time>2026-04-12T10:33:44.999Z</time></trkpt><trkpt lat="43.51645309589278" lon="11.97150041419934"><ele>713.0</ele><time>2026-04-12T10:33:46.999Z</time></trkpt><trkpt lat="43.5163411826004" lon="11.97150200256131"><ele>713.0</ele><time>2026-04-12T10:33:48.999Z</time></trkpt><trkpt lat="43.51626906897311" lon="11.971656856844232"><ele>712.8333333333333</ele><time>2026-04-12T10:33:50.999Z</time></trkpt><trkpt lat="43.516223250040234" lon="11.971746032809959"><ele>712.6666666666666</ele><time>2026-04-12T10:33:51.999Z</time></trkpt><trkpt lat="43.51616921150898" lon="11.97185168281742"><ele>712.5</ele><time>2026-04-12T10:33:52.999Z</time></trkpt><trkpt lat="43.516115501546224" lon="11.971940217872447"><ele>712.3333333333334</ele><time>2026-04-12T10:33:53.999Z</time></trkpt><trkpt lat="43.51607750234421" lon="11.972049221136992"><ele>712.1666666666667</ele><time>2026-04-12T10:33:54.999Z</time></trkpt><trkpt lat="43.51604950512848" lon="11.972159059123378"><ele>712.0</ele><time>2026-04-12T10:33:55.999Z</time></trkpt><trkpt lat="43.516019052250485" lon="11.972249669917337"><ele>712.0</ele><time>2026-04-12T10:33:56.999Z</time></trkpt><trkpt lat="43.515989700614625" lon="11.972355182424662"><ele>712.0</ele><time>2026-04-12T10:33:57.999Z</time></trkpt><trkpt lat="43.51598452924544" lon="11.972480164221546"><ele>712.0</ele><time>2026-04-12T10:33:58.999Z</time></trkpt><trkpt lat="43.5159878382884" lon="11.972596494686206"><ele>712.0</ele><time>2026-04-12T10:33:59.999Z</time></trkpt><trkpt lat="43.51601205306646" lon="11.972713176772842"><ele>712.0</ele><time>2026-04-12T10:34:00.999Z</time></trkpt><trkpt lat="43.516032254592" lon="11.97282122793275"><ele>712.0</ele><time>2026-04-12T10:34:01.999Z</time></trkpt><trkpt lat="43.51604460071077" lon="11.972938135275793"><ele>712.6666666666667</ele><time>2026-04-12T10:34:02.999Z</time></trkpt><trkpt lat="43.5160466971142" lon="11.973055452524225"><ele>713.3333333333334</ele><time>2026-04-12T10:34:03.999Z</time></trkpt><trkpt lat="43.51603849669856" lon="11.973180834453204"><ele>714.0</ele><time>2026-04-12T10:34:04.999Z</time></trkpt><trkpt lat="43.51605155040309" lon="11.973278122610452"><ele>714.6666666666666</ele><time>2026-04-12T10:34:05.999Z</time></trkpt><trkpt lat="43.51608827486474" lon="11.973391590277851"><ele>715.3333333333333</ele><time>2026-04-12T10:34:06.999Z</time></trkpt><trkpt lat="43.51613117227387" lon="11.973512721907541"><ele>716.0</ele><time>2026-04-12T10:34:07.999Z</time></trkpt><trkpt lat="43.51614406463571" lon="11.973645128915289"><ele>716.0</ele><time>2026-04-12T10:34:08.999Z</time></trkpt><trkpt lat="43.51614203289754" lon="11.973761453244196"><ele>716.0</ele><time>2026-04-12T10:34:09.999Z</time></trkpt><trkpt lat="43.51606659373126" lon="11.973862040583914"><ele>716.0</ele><time>2026-04-12T10:34:11.999Z</time></trkpt><trkpt lat="43.51597079067909" lon="11.973904829328347"><ele>716.0</ele><time>2026-04-12T10:34:13.999Z</time></trkpt><trkpt lat="43.51588874638441" lon="11.973936859364349"><ele>716.0</ele><time>2026-04-12T10:34:15.999Z</time></trkpt><trkpt lat="43.51582164743759" lon="11.97397840223476"><ele>716.0</ele><time>2026-04-12T10:34:16.999Z</time></trkpt><trkpt lat="43.51574432263814" lon="11.974033646906866"><ele>716.0</ele><time>2026-04-12T10:34:17.999Z</time></trkpt><trkpt lat="43.51567044646798" lon="11.974111869459605"><ele>716.0</ele><time>2026-04-12T10:34:18.999Z</time></trkpt><trkpt lat="43.51560686458465" lon="11.974220125891511"><ele>716.0</ele><time>2026-04-12T10:34:19.998Z</time></trkpt><trkpt lat="43.51554102170185" lon="11.974323025849236"><ele>716.0</ele><time>2026-04-12T10:34:20.998Z</time></trkpt><trkpt lat="43.51548847984236" lon="11.974430480742143"><ele>716.0</ele><time>2026-04-12T10:34:21.998Z</time></trkpt><trkpt lat="43.5154398787872" lon="11.974530240871513"><ele>716.5999999999999</ele><time>2026-04-12T10:34:22.998Z</time></trkpt><trkpt lat="43.51537765173567" lon="11.974631876781443"><ele>717.2</ele><time>2026-04-12T10:34:23.998Z</time></trkpt><trkpt lat="43.51529765604633" lon="11.974733970448439"><ele>717.8</ele><time>2026-04-12T10:34:24.998Z</time></trkpt><trkpt lat="43.515223570029136" lon="11.974823163071644"><ele>718.4000000000001</ele><time>2026-04-12T10:34:25.998Z</time></trkpt><trkpt lat="43.51515417007255" lon="11.97488204803098"><ele>719.0</ele><time>2026-04-12T10:34:26.998Z</time></trkpt><trkpt lat="43.51506756062911" lon="11.974920509403018"><ele>719.0</ele><time>2026-04-12T10:34:27.998Z</time></trkpt><trkpt lat="43.514952446073494" lon="11.974941399954153"><ele>719.0</ele><time>2026-04-12T10:34:28.998Z</time></trkpt><trkpt lat="43.51483669574142" lon="11.974959454562255"><ele>719.0</ele><time>2026-04-12T10:34:29.998Z</time></trkpt><trkpt lat="43.5147216934067" lon="11.974982204585125"><ele>719.0</ele><time>2026-04-12T10:34:30.998Z</time></trkpt><trkpt lat="43.51462856828073" lon="11.97499590824591"><ele>719.0</ele><time>2026-04-12T10:34:31.998Z</time></trkpt><trkpt lat="43.51455807195216" lon="11.97496394177762"><ele>720.6666666666666</ele><time>2026-04-12T10:34:32.998Z</time></trkpt><trkpt lat="43.51450090250636" lon="11.974902449270715"><ele>722.3333333333333</ele><time>2026-04-12T10:34:33.998Z</time></trkpt><trkpt lat="43.51444755400297" lon="11.974830375811237"><ele>724.0</ele><time>2026-04-12T10:34:34.998Z</time></trkpt><trkpt lat="43.514379199911474" lon="11.974798242840016"><ele>725.6666666666666</ele><time>2026-04-12T10:34:35.998Z</time></trkpt><trkpt lat="43.51429862823402" lon="11.97483122629097"><ele>727.3333333333334</ele><time>2026-04-12T10:34:36.998Z</time></trkpt><trkpt lat="43.5142302658511" lon="11.974899246700565"><ele>729.0</ele><time>2026-04-12T10:34:37.998Z</time></trkpt><trkpt lat="43.514153255037584" lon="11.974987776922458"><ele>728.6</ele><time>2026-04-12T10:34:39Z</time></trkpt><trkpt lat="43.51407725440524" lon="11.975064469953466"><ele>728.2</ele><time>2026-04-12T10:34:40Z</time></trkpt><trkpt lat="43.5139794574598" lon="11.975128167114523"><ele>727.8000000000001</ele><time>2026-04-12T10:34:41Z</time></trkpt><trkpt lat="43.513876418635796" lon="11.975199383185394"><ele>727.4000000000001</ele><time>2026-04-12T10:34:42Z</time></trkpt><trkpt lat="43.51375614582204" lon="11.975263815821524"><ele>727.0</ele><time>2026-04-12T10:34:43Z</time></trkpt><trkpt lat="43.51361871179188" lon="11.975315621638533"><ele>727.0</ele><time>2026-04-12T10:34:44Z</time></trkpt><trkpt lat="43.513506212857266" lon="11.97539817746028"><ele>727.0</ele><time>2026-04-12T10:34:45Z</time></trkpt><trkpt lat="43.51339359782899" lon="11.975481421296516"><ele>727.0</ele><time>2026-04-12T10:34:46Z</time></trkpt><trkpt lat="43.513274939017904" lon="11.975578575098638"><ele>727.0</ele><time>2026-04-12T10:34:47Z</time></trkpt><trkpt lat="43.5131745796362" lon="11.975667750924144"><ele>727.0</ele><time>2026-04-12T10:34:48Z</time></trkpt><trkpt lat="43.513099426746045" lon="11.975734226869216"><ele>727.0</ele><time>2026-04-12T10:34:49Z</time></trkpt><trkpt lat="43.51302940702159" lon="11.975776788606028"><ele>727.0</ele><time>2026-04-12T10:34:50Z</time></trkpt><trkpt lat="43.51294574905772" lon="11.975792718988062"><ele>727.0</ele><time>2026-04-12T10:34:51Z</time></trkpt><trkpt lat="43.51285122351423" lon="11.97575329124094"><ele>727.0</ele><time>2026-04-12T10:34:52Z</time></trkpt><trkpt lat="43.512769655881335" lon="11.97568152075201"><ele>727.0</ele><time>2026-04-12T10:34:53Z</time></trkpt><trkpt lat="43.512713128224206" lon="11.97558571841882"><ele>725.6</ele><time>2026-04-12T10:34:54Z</time></trkpt><trkpt lat="43.51264610712655" lon="11.975471902233723"><ele>724.2</ele><time>2026-04-12T10:34:55Z</time></trkpt><trkpt lat="43.51258791959637" lon="11.975355153830264"><ele>722.8</ele><time>2026-04-12T10:34:56Z</time></trkpt><trkpt lat="43.512524825823014" lon="11.975242419413188"><ele>721.4</ele><time>2026-04-12T10:34:57Z</time></trkpt><trkpt lat="43.512455777408334" lon="11.975116705769619"><ele>720.0</ele><time>2026-04-12T10:34:58Z</time></trkpt><trkpt lat="43.512387872946675" lon="11.97500130059365"><ele>722.5</ele><time>2026-04-12T10:34:59Z</time></trkpt><trkpt lat="43.512310191900724" lon="11.974893429250521"><ele>725.0</ele><time>2026-04-12T10:35:00Z</time></trkpt><trkpt lat="43.512223422482954" lon="11.97479447157438"><ele>727.5</ele><time>2026-04-12T10:35:01Z</time></trkpt><trkpt lat="43.51211076222865" lon="11.974725979850732"><ele>730.0</ele><time>2026-04-12T10:35:02Z</time></trkpt><trkpt lat="43.5119845891395" lon="11.974670548977336"><ele>730.0</ele><time>2026-04-12T10:35:03Z</time></trkpt><trkpt lat="43.51185556536637" lon="11.974633228869955"><ele>730.0</ele><time>2026-04-12T10:35:04Z</time></trkpt><trkpt lat="43.511747582078975" lon="11.974610694368026"><ele>730.0</ele><time>2026-04-12T10:35:05Z</time></trkpt><trkpt lat="43.51164677057932" lon="11.974576350074694"><ele>730.0</ele><time>2026-04-12T10:35:06Z</time></trkpt><trkpt lat="43.511542718461186" lon="11.974528518601756"><ele>730.0</ele><time>2026-04-12T10:35:07Z</time></trkpt><trkpt lat="43.51143844327547" lon="11.974445683479274"><ele>730.0</ele><time>2026-04-12T10:35:08Z</time></trkpt><trkpt lat="43.51134358733298" lon="11.974347229441873"><ele>730.0</ele><time>2026-04-12T10:35:09Z</time></trkpt><trkpt lat="43.51124884298978" lon="11.974256519562612"><ele>730.0</ele><time>2026-04-12T10:35:10Z</time></trkpt><trkpt lat="43.51115568728962" lon="11.974198728232173"><ele>730.3333333333334</ele><time>2026-04-12T10:35:11Z</time></trkpt><trkpt lat="43.5110720328952" lon="11.97419911594371"><ele>730.6666666666667</ele><time>2026-04-12T10:35:12Z</time></trkpt><trkpt lat="43.5109917194165" lon="11.974237579127799"><ele>731.0</ele><time>2026-04-12T10:35:13Z</time></trkpt><trkpt lat="43.510916084740806" lon="11.974284748216633"><ele>731.3333333333334</ele><time>2026-04-12T10:35:14Z</time></trkpt><trkpt lat="43.510849735133476" lon="11.974335397983742"><ele>731.6666666666666</ele><time>2026-04-12T10:35:15Z</time></trkpt><trkpt lat="43.5107876998737" lon="11.974380343957753"><ele>732.0</ele><time>2026-04-12T10:35:16Z</time></trkpt><trkpt lat="43.51072347112108" lon="11.974426324372379"><ele>732.0</ele><time>2026-04-12T10:35:17Z</time></trkpt><trkpt lat="43.51066791521844" lon="11.974492455179082"><ele>732.0</ele><time>2026-04-12T10:35:18Z</time></trkpt><trkpt lat="43.51062463945213" lon="11.974586907396203"><ele>732.0</ele><time>2026-04-12T10:35:18.999Z</time></trkpt><trkpt lat="43.510591351517334" lon="11.974699839120625"><ele>732.0</ele><time>2026-04-12T10:35:19.999Z</time></trkpt><trkpt lat="43.51056342072549" lon="11.974835719431711"><ele>732.0</ele><time>2026-04-12T10:35:20.999Z</time></trkpt><trkpt lat="43.51053294545208" lon="11.974981185917118"><ele>731.8</ele><time>2026-04-12T10:35:21.999Z</time></trkpt><trkpt lat="43.51047706508526" lon="11.975096455355592"><ele>731.6</ele><time>2026-04-12T10:35:22.999Z</time></trkpt><trkpt lat="43.510409827850964" lon="11.97515734683157"><ele>731.4</ele><time>2026-04-12T10:35:23.999Z</time></trkpt><trkpt lat="43.510323297850626" lon="11.975202460370209"><ele>731.1999999999999</ele><time>2026-04-12T10:35:24.999Z</time></trkpt><trkpt lat="43.51023454062274" lon="11.975252353865175"><ele>731.0</ele><time>2026-04-12T10:35:25.999Z</time></trkpt><trkpt lat="43.510162215627275" lon="11.97532714401406"><ele>729.1666666666666</ele><time>2026-04-12T10:35:26.999Z</time></trkpt><trkpt lat="43.51011985986446" lon="11.975436010624769"><ele>727.3333333333333</ele><time>2026-04-12T10:35:27.999Z</time></trkpt><trkpt lat="43.510084154260866" lon="11.975531753527397"><ele>725.5</ele><time>2026-04-12T10:35:28.999Z</time></trkpt><trkpt lat="43.510026433625235" lon="11.975575986517459"><ele>723.6666666666666</ele><time>2026-04-12T10:35:29.999Z</time></trkpt><trkpt lat="43.50993654251134" lon="11.975578246676893"><ele>721.8333333333334</ele><time>2026-04-12T10:35:30.999Z</time></trkpt><trkpt lat="43.50983076147333" lon="11.97555051157595"><ele>720.0</ele><time>2026-04-12T10:35:31.999Z</time></trkpt><trkpt lat="43.509714247647494" lon="11.975504330759613"><ele>720.0</ele><time>2026-04-12T10:35:32.999Z</time></trkpt><trkpt lat="43.50959493131209" lon="11.975440695969198"><ele>720.0</ele><time>2026-04-12T10:35:33.999Z</time></trkpt><trkpt lat="43.50949856413136" lon="11.97537951656352"><ele>720.0</ele><time>2026-04-12T10:35:34.999Z</time></trkpt><trkpt lat="43.50940691903421" lon="11.975297092229876"><ele>720.0</ele><time>2026-04-12T10:35:35.999Z</time></trkpt><trkpt lat="43.509319136084386" lon="11.9752028027111"><ele>720.6</ele><time>2026-04-12T10:35:36.999Z</time></trkpt><trkpt lat="43.509234291913586" lon="11.975121084165785"><ele>721.2</ele><time>2026-04-12T10:35:37.999Z</time></trkpt><trkpt lat="43.50912890188209" lon="11.97505159102047"><ele>721.8</ele><time>2026-04-12T10:35:38.999Z</time></trkpt><trkpt lat="43.50901501210459" lon="11.975004652596667"><ele>722.4</ele><time>2026-04-12T10:35:39.999Z</time></trkpt><trkpt lat="43.50890799741394" lon="11.9749709698143"><ele>723.0</ele><time>2026-04-12T10:35:40.999Z</time></trkpt><trkpt lat="43.508804315335304" lon="11.97497227814237"><ele>723.2</ele><time>2026-04-12T10:35:41.999Z</time></trkpt><trkpt lat="43.50870599906077" lon="11.975014395464141"><ele>723.4</ele><time>2026-04-12T10:35:42.999Z</time></trkpt><trkpt lat="43.508621222702985" lon="11.975069227843967"><ele>723.6</ele><time>2026-04-12T10:35:43.999Z</time></trkpt><trkpt lat="43.50855220869149" lon="11.97512027571464"><ele>723.8000000000001</ele><time>2026-04-12T10:35:44.999Z</time></trkpt><trkpt lat="43.508434317295716" lon="11.975205517962028"><ele>724.0</ele><time>2026-04-12T10:35:46.999Z</time></trkpt><trkpt lat="43.508352105619444" lon="11.97524577081407"><ele>724.0</ele><time>2026-04-12T10:35:47.999Z</time></trkpt><trkpt lat="43.50826752543984" lon="11.975242796207146"><ele>724.0</ele><time>2026-04-12T10:35:48.999Z</time></trkpt><trkpt lat="43.50818185766879" lon="11.975203827902128"><ele>724.0</ele><time>2026-04-12T10:35:49.999Z</time></trkpt><trkpt lat="43.50813290814143" lon="11.975131219742615"><ele>724.0</ele><time>2026-04-12T10:35:50.999Z</time></trkpt><trkpt lat="43.50804516904585" lon="11.975075467212376"><ele>724.0</ele><time>2026-04-12T10:35:51.999Z</time></trkpt><trkpt lat="43.50793980446547" lon="11.975017852499859"><ele>726.75</ele><time>2026-04-12T10:35:52.999Z</time></trkpt><trkpt lat="43.50782712618439" lon="11.974950194703283"><ele>729.5</ele><time>2026-04-12T10:35:53.999Z</time></trkpt><trkpt lat="43.50771458458735" lon="11.974879826945479"><ele>732.25</ele><time>2026-04-12T10:35:54.999Z</time></trkpt><trkpt lat="43.5076086583821" lon="11.974818430605952"><ele>735.0</ele><time>2026-04-12T10:35:55.999Z</time></trkpt><trkpt lat="43.50750178449349" lon="11.97473230856137"><ele>735.0</ele><time>2026-04-12T10:35:56.999Z</time></trkpt><trkpt lat="43.50741293371566" lon="11.974672580895616"><ele>735.0</ele><time>2026-04-12T10:35:57.999Z</time></trkpt><trkpt lat="43.507314870477664" lon="11.974643924714925"><ele>735.0</ele><time>2026-04-12T10:35:58.999Z</time></trkpt><trkpt lat="43.507209225183864" lon="11.974616826128178"><ele>735.0</ele><time>2026-04-12T10:35:59.999Z</time></trkpt><trkpt lat="43.50710141405337" lon="11.974581752883138"><ele>735.0</ele><time>2026-04-12T10:36:00.999Z</time></trkpt><trkpt lat="43.507013174497935" lon="11.9745737876054"><ele>736.1666666666666</ele><time>2026-04-12T10:36:01.999Z</time></trkpt><trkpt lat="43.506948437665166" lon="11.974601251112368"><ele>737.3333333333334</ele><time>2026-04-12T10:36:02.999Z</time></trkpt><trkpt lat="43.50685755708988" lon="11.974671129002466"><ele>738.5</ele><time>2026-04-12T10:36:03.999Z</time></trkpt><trkpt lat="43.50677492847821" lon="11.97474894825179"><ele>739.6666666666667</ele><time>2026-04-12T10:36:04.999Z</time></trkpt><trkpt lat="43.506727967917975" lon="11.974830556687655"><ele>740.8333333333334</ele><time>2026-04-12T10:36:05.999Z</time></trkpt><trkpt lat="43.50673241823567" lon="11.974939489007705"><ele>742.0</ele><time>2026-04-12T10:36:06.999Z</time></trkpt><trkpt lat="43.50673040544263" lon="11.975096342320128"><ele>743.75</ele><time>2026-04-12T10:36:07.999Z</time></trkpt><trkpt lat="43.506745798780464" lon="11.975248946158173"><ele>745.5</ele><time>2026-04-12T10:36:08.999Z</time></trkpt><trkpt lat="43.50673392159936" lon="11.975418327101963"><ele>747.25</ele><time>2026-04-12T10:36:09.999Z</time></trkpt><trkpt lat="43.50670839054289" lon="11.975585491992216"><ele>749.0</ele><time>2026-04-12T10:36:10.999Z</time></trkpt><trkpt lat="43.506676197559216" lon="11.975727217790041"><ele>750.0</ele><time>2026-04-12T10:36:11.999Z</time></trkpt><trkpt lat="43.50665841726718" lon="11.975859575433612"><ele>751.0</ele><time>2026-04-12T10:36:12.999Z</time></trkpt><trkpt lat="43.506633853073836" lon="11.975989981725618"><ele>752.0</ele><time>2026-04-12T10:36:13.999Z</time></trkpt><trkpt lat="43.506617538120665" lon="11.97608903038593"><ele>753.0</ele><time>2026-04-12T10:36:14.999Z</time></trkpt><trkpt lat="43.50655154010604" lon="11.976173816595521"><ele>754.0</ele><time>2026-04-12T10:36:16.999Z</time></trkpt><trkpt lat="43.50646771506992" lon="11.976201019158719"><ele>755.0</ele><time>2026-04-12T10:36:17.998Z</time></trkpt><trkpt lat="43.506382566753565" lon="11.976261212962273"><ele>755.0</ele><time>2026-04-12T10:36:18.998Z</time></trkpt><trkpt lat="43.50628594216275" lon="11.976328817791371"><ele>755.0</ele><time>2026-04-12T10:36:19.998Z</time></trkpt><trkpt lat="43.50619692446387" lon="11.976392028914482"><ele>755.0</ele><time>2026-04-12T10:36:20.998Z</time></trkpt><trkpt lat="43.5061064014353" lon="11.976456584059227"><ele>755.0</ele><time>2026-04-12T10:36:21.998Z</time></trkpt><trkpt lat="43.50601445311648" lon="11.976511257130156"><ele>755.0</ele><time>2026-04-12T10:36:22.998Z</time></trkpt><trkpt lat="43.50591692870366" lon="11.976610996378835"><ele>757.0</ele><time>2026-04-12T10:36:24.998Z</time></trkpt><trkpt lat="43.505886675914915" lon="11.976710770575924"><ele>759.0</ele><time>2026-04-12T10:36:25.998Z</time></trkpt><trkpt lat="43.50584938363291" lon="11.976837511932391"><ele>761.0</ele><time>2026-04-12T10:36:26.998Z</time></trkpt><trkpt lat="43.505810740807796" lon="11.976989192285423"><ele>763.0</ele><time>2026-04-12T10:36:27.998Z</time></trkpt><trkpt lat="43.50576797915948" lon="11.977131773336481"><ele>765.0</ele><time>2026-04-12T10:36:28.998Z</time></trkpt><trkpt lat="43.50570246901897" lon="11.97722722112533"><ele>765.0</ele><time>2026-04-12T10:36:29.998Z</time></trkpt><trkpt lat="43.505619469363026" lon="11.97728512501285"><ele>765.0</ele><time>2026-04-12T10:36:30.998Z</time></trkpt><trkpt lat="43.505528239639965" lon="11.977301578673035"><ele>765.0</ele><time>2026-04-12T10:36:31.998Z</time></trkpt><trkpt lat="43.50544269293045" lon="11.977340047414497"><ele>765.0</ele><time>2026-04-12T10:36:32.998Z</time></trkpt><trkpt lat="43.505364088337686" lon="11.9773956520903"><ele>765.0</ele><time>2026-04-12T10:36:33.998Z</time></trkpt><trkpt lat="43.50529426777677" lon="11.977477827295473"><ele>764.0</ele><time>2026-04-12T10:36:34.998Z</time></trkpt><trkpt lat="43.50524075370778" lon="11.977611070174056"><ele>763.0</ele><time>2026-04-12T10:36:35.998Z</time></trkpt><trkpt lat="43.50519455897375" lon="11.977769304948808"><ele>762.0</ele><time>2026-04-12T10:36:36.998Z</time></trkpt><trkpt lat="43.5051386154926" lon="11.977907066688003"><ele>761.0</ele><time>2026-04-12T10:36:37.998Z</time></trkpt><trkpt lat="43.50507045830786" lon="11.978009154173197"><ele>760.0</ele><time>2026-04-12T10:36:38.998Z</time></trkpt><trkpt lat="43.504998595468436" lon="11.97806788697643"><ele>760.0</ele><time>2026-04-12T10:36:39.998Z</time></trkpt><trkpt lat="43.504926032624375" lon="11.978078421187325"><ele>760.0</ele><time>2026-04-12T10:36:40.998Z</time></trkpt><trkpt lat="43.50485077720914" lon="11.97803592262025"><ele>760.0</ele><time>2026-04-12T10:36:41.998Z</time></trkpt><trkpt lat="43.504775933698035" lon="11.977937949804218"><ele>760.0</ele><time>2026-04-12T10:36:42.998Z</time></trkpt><trkpt lat="43.5046768812945" lon="11.97779931168119"><ele>760.0</ele><time>2026-04-12T10:36:43.998Z</time></trkpt><trkpt lat="43.50457377960803" lon="11.977663430540664"><ele>759.6</ele><time>2026-04-12T10:36:45Z</time></trkpt><trkpt lat="43.504482880095324" lon="11.977583543810296"><ele>759.2</ele><time>2026-04-12T10:36:46Z</time></trkpt><trkpt lat="43.504395268023615" lon="11.977532487371453"><ele>758.8</ele><time>2026-04-12T10:36:47Z</time></trkpt><trkpt lat="43.504286724312294" lon="11.977485391893978"><ele>758.4</ele><time>2026-04-12T10:36:48Z</time></trkpt><trkpt lat="43.50416573598542" lon="11.977429319042848"><ele>758.0</ele><time>2026-04-12T10:36:49Z</time></trkpt><trkpt lat="43.50405292079378" lon="11.977364351004319"><ele>758.0</ele><time>2026-04-12T10:36:50Z</time></trkpt><trkpt lat="43.50394766401287" lon="11.977283617060658"><ele>758.0</ele><time>2026-04-12T10:36:51Z</time></trkpt><trkpt lat="43.50384273444224" lon="11.977196798026378"><ele>758.0</ele><time>2026-04-12T10:36:52Z</time></trkpt><trkpt lat="43.50372761280898" lon="11.977115926259957"><ele>758.0</ele><time>2026-04-12T10:36:53Z</time></trkpt><trkpt lat="43.50361652875332" lon="11.977037718236105"><ele>759.5</ele><time>2026-04-12T10:36:54Z</time></trkpt><trkpt lat="43.503514538812134" lon="11.97697281284458"><ele>761.0</ele><time>2026-04-12T10:36:55Z</time></trkpt><trkpt lat="43.50342300369344" lon="11.976918560678993"><ele>762.5</ele><time>2026-04-12T10:36:56Z</time></trkpt><trkpt lat="43.50334497627978" lon="11.97689073563153"><ele>764.0</ele><time>2026-04-12T10:36:57Z</time></trkpt><trkpt lat="43.503275906947756" lon="11.976910106583569"><ele>765.5</ele><time>2026-04-12T10:36:58Z</time></trkpt><trkpt lat="43.503209648334916" lon="11.976950788700677"><ele>767.0</ele><time>2026-04-12T10:36:59Z</time></trkpt><trkpt lat="43.50312658787064" lon="11.977003725041042"><ele>767.0</ele><time>2026-04-12T10:37:00Z</time></trkpt><trkpt lat="43.503058516803286" lon="11.977029909977563"><ele>767.0</ele><time>2026-04-12T10:37:01Z</time></trkpt><trkpt lat="43.50298281214898" lon="11.976970779625224"><ele>767.0</ele><time>2026-04-12T10:37:02Z</time></trkpt><trkpt lat="43.5029436591861" lon="11.976868130573571"><ele>767.0</ele><time>2026-04-12T10:37:03Z</time></trkpt><trkpt lat="43.50289587280897" lon="11.976763371920796"><ele>767.0</ele><time>2026-04-12T10:37:04Z</time></trkpt><trkpt lat="43.502817989391815" lon="11.976647495599336"><ele>767.0</ele><time>2026-04-12T10:37:05Z</time></trkpt><trkpt lat="43.50271489797308" lon="11.97656327926085"><ele>765.4000000000001</ele><time>2026-04-12T10:37:06Z</time></trkpt><trkpt lat="43.5026147280438" lon="11.976489918579082"><ele>763.8000000000001</ele><time>2026-04-12T10:37:07Z</time></trkpt><trkpt lat="43.50251407269292" lon="11.976422384652958"><ele>762.2</ele><time>2026-04-12T10:37:08Z</time></trkpt><trkpt lat="43.502408052628326" lon="11.976388463187323"><ele>760.6</ele><time>2026-04-12T10:37:09Z</time></trkpt><trkpt lat="43.50230044359849" lon="11.976358262918778"><ele>759.0</ele><time>2026-04-12T10:37:10Z</time></trkpt><trkpt lat="43.5021764837808" lon="11.976330683422361"><ele>760.25</ele><time>2026-04-12T10:37:11Z</time></trkpt><trkpt lat="43.50204707487353" lon="11.976319229008507"><ele>761.5</ele><time>2026-04-12T10:37:12Z</time></trkpt><trkpt lat="43.501918080486696" lon="11.976308175748956"><ele>762.75</ele><time>2026-04-12T10:37:13Z</time></trkpt><trkpt lat="43.5017930405594" lon="11.976305549677637"><ele>764.0</ele><time>2026-04-12T10:37:14Z</time></trkpt><trkpt lat="43.501680664624494" lon="11.976314771454465"><ele>764.0</ele><time>2026-04-12T10:37:15Z</time></trkpt><trkpt lat="43.5015852688056" lon="11.97634639532418"><ele>764.0</ele><time>2026-04-12T10:37:16Z</time></trkpt><trkpt lat="43.50149423776737" lon="11.976371417984614"><ele>764.0</ele><time>2026-04-12T10:37:17Z</time></trkpt><trkpt lat="43.501410426531756" lon="11.976410495799668"><ele>764.0</ele><time>2026-04-12T10:37:18Z</time></trkpt><trkpt lat="43.50133288397628" lon="11.976490310762308"><ele>764.0</ele><time>2026-04-12T10:37:19Z</time></trkpt><trkpt lat="43.501262168432476" lon="11.97659204446832"><ele>766.0</ele><time>2026-04-12T10:37:20Z</time></trkpt><trkpt lat="43.50121077437073" lon="11.97668782771414"><ele>768.0</ele><time>2026-04-12T10:37:21Z</time></trkpt><trkpt lat="43.501171743486644" lon="11.976781946293377"><ele>770.0</ele><time>2026-04-12T10:37:22Z</time></trkpt><trkpt lat="43.50113761354253" lon="11.97695698541269"><ele>772.0</ele><time>2026-04-12T10:37:24Z</time></trkpt><trkpt lat="43.50115039448806" lon="11.977051601487892"><ele>774.0000000000001</ele><time>2026-04-12T10:37:25Z</time></trkpt><trkpt lat="43.501154460588474" lon="11.977146984104458"><ele>776.0</ele><time>2026-04-12T10:37:26Z</time></trkpt><trkpt lat="43.50107977259825" lon="11.977311117286717"><ele>776.0</ele><time>2026-04-12T10:37:28Z</time></trkpt><trkpt lat="43.500965106293314" lon="11.977293172613651"><ele>776.0</ele><time>2026-04-12T10:37:29.999Z</time></trkpt><trkpt lat="43.50089762683199" lon="11.97724817922859"><ele>776.0</ele><time>2026-04-12T10:37:30.999Z</time></trkpt><trkpt lat="43.500820831949824" lon="11.97721265363514"><ele>776.0</ele><time>2026-04-12T10:37:31.999Z</time></trkpt><trkpt lat="43.50073597856283" lon="11.977174783423134"><ele>776.0</ele><time>2026-04-12T10:37:32.999Z</time></trkpt><trkpt lat="43.500644239015834" lon="11.977135718449162"><ele>776.0</ele><time>2026-04-12T10:37:33.999Z</time></trkpt><trkpt lat="43.500542372628836" lon="11.977058594690421"><ele>776.0</ele><time>2026-04-12T10:37:34.999Z</time></trkpt><trkpt lat="43.50044313206422" lon="11.976993169811289"><ele>776.0</ele><time>2026-04-12T10:37:35.999Z</time></trkpt><trkpt lat="43.500355600365026" lon="11.976969183141005"><ele>776.0</ele><time>2026-04-12T10:37:36.999Z</time></trkpt><trkpt lat="43.500285168202446" lon="11.976963301405341"><ele>776.0</ele><time>2026-04-12T10:37:37.999Z</time></trkpt><trkpt lat="43.50021525648699" lon="11.976997999872662"><ele>776.1999999999999</ele><time>2026-04-12T10:37:38.999Z</time></trkpt><trkpt lat="43.500129387538834" lon="11.97705354549399"><ele>776.4</ele><time>2026-04-12T10:37:39.999Z</time></trkpt><trkpt lat="43.5000348891527" lon="11.97710332772913"><ele>776.6</ele><time>2026-04-12T10:37:40.999Z</time></trkpt><trkpt lat="43.499931883086596" lon="11.97713769096364"><ele>776.8</ele><time>2026-04-12T10:37:41.999Z</time></trkpt><trkpt lat="43.499827294316546" lon="11.977173923525294"><ele>777.0</ele><time>2026-04-12T10:37:42.999Z</time></trkpt><trkpt lat="43.499723774002454" lon="11.977205282680568"><ele>777.0</ele><time>2026-04-12T10:37:43.999Z</time></trkpt><trkpt lat="43.499631396636005" lon="11.97726421174036"><ele>777.0</ele><time>2026-04-12T10:37:44.999Z</time></trkpt><trkpt lat="43.499540074182775" lon="11.977337299102329"><ele>777.0</ele><time>2026-04-12T10:37:45.999Z</time></trkpt><trkpt lat="43.49947049241504" lon="11.97739702348327"><ele>777.0</ele><time>2026-04-12T10:37:46.999Z</time></trkpt><trkpt lat="43.499410058480564" lon="11.977441354591587"><ele>777.0</ele><time>2026-04-12T10:37:47.999Z</time></trkpt><trkpt lat="43.49934170111258" lon="11.97748429209215"><ele>777.0</ele><time>2026-04-12T10:37:48.999Z</time></trkpt><trkpt lat="43.499277335676645" lon="11.97751889133676"><ele>775.5</ele><time>2026-04-12T10:37:49.999Z</time></trkpt><trkpt lat="43.499216522332844" lon="11.977548860378246"><ele>774.0</ele><time>2026-04-12T10:37:50.999Z</time></trkpt><trkpt lat="43.49915573773216" lon="11.977586829924284"><ele>772.5</ele><time>2026-04-12T10:37:51.999Z</time></trkpt><trkpt lat="43.49909710582155" lon="11.977639218332115"><ele>771.0</ele><time>2026-04-12T10:37:52.999Z</time></trkpt><trkpt lat="43.49902924512621" lon="11.977700274829523"><ele>769.5</ele><time>2026-04-12T10:37:53.999Z</time></trkpt><trkpt lat="43.49895472601677" lon="11.977753404689675"><ele>768.0</ele><time>2026-04-12T10:37:54.999Z</time></trkpt><trkpt lat="43.49887197599829" lon="11.97781481185994"><ele>768.0</ele><time>2026-04-12T10:37:55.999Z</time></trkpt><trkpt lat="43.49879912473066" lon="11.977859769961862"><ele>768.0</ele><time>2026-04-12T10:37:56.999Z</time></trkpt><trkpt lat="43.49872559804926" lon="11.97787157198436"><ele>768.0</ele><time>2026-04-12T10:37:57.999Z</time></trkpt><trkpt lat="43.49863650667403" lon="11.97786579609835"><ele>768.0</ele><time>2026-04-12T10:37:58.999Z</time></trkpt><trkpt lat="43.49855177112948" lon="11.977860577501964"><ele>768.0</ele><time>2026-04-12T10:37:59.999Z</time></trkpt><trkpt lat="43.498461441983316" lon="11.977863145327342"><ele>768.0</ele><time>2026-04-12T10:38:00.999Z</time></trkpt><trkpt lat="43.49837801137375" lon="11.97788480995347"><ele>765.8333333333334</ele><time>2026-04-12T10:38:01.999Z</time></trkpt><trkpt lat="43.49830781217002" lon="11.977919159219569"><ele>763.6666666666666</ele><time>2026-04-12T10:38:02.999Z</time></trkpt><trkpt lat="43.498246616170206" lon="11.97795071673151"><ele>761.5</ele><time>2026-04-12T10:38:03.999Z</time></trkpt><trkpt lat="43.498185751924446" lon="11.977976417794771"><ele>759.3333333333333</ele><time>2026-04-12T10:38:04.999Z</time></trkpt><trkpt lat="43.498078310694176" lon="11.977968345844594"><ele>757.1666666666666</ele><time>2026-04-12T10:38:06.999Z</time></trkpt><trkpt lat="43.498006387346024" lon="11.977924073040052"><ele>755.0</ele><time>2026-04-12T10:38:07.999Z</time></trkpt><trkpt lat="43.49794856339688" lon="11.977876129830507"><ele>752.4</ele><time>2026-04-12T10:38:08.999Z</time></trkpt><trkpt lat="43.49787091627761" lon="11.977806100823294"><ele>749.8</ele><time>2026-04-12T10:38:09.999Z</time></trkpt><trkpt lat="43.497817863627944" lon="11.977714929481687"><ele>747.2</ele><time>2026-04-12T10:38:10.999Z</time></trkpt><trkpt lat="43.497722003559474" lon="11.977637901014035"><ele>744.6</ele><time>2026-04-12T10:38:12.999Z</time></trkpt><trkpt lat="43.497626339691465" lon="11.977666837860287"><ele>742.0</ele><time>2026-04-12T10:38:14.999Z</time></trkpt><trkpt lat="43.49754239731962" lon="11.977672317401007"><ele>742.0</ele><time>2026-04-12T10:38:16.999Z</time></trkpt><trkpt lat="43.49747795505919" lon="11.97771427490732"><ele>742.0</ele><time>2026-04-12T10:38:18.999Z</time></trkpt><trkpt lat="43.49744973649378" lon="11.97784855319336"><ele>742.0</ele><time>2026-04-12T10:38:20.999Z</time></trkpt><trkpt lat="43.49740846907425" lon="11.977955522596938"><ele>742.0</ele><time>2026-04-12T10:38:21.999Z</time></trkpt><trkpt lat="43.49735163458056" lon="11.978034518297202"><ele>742.0</ele><time>2026-04-12T10:38:22.999Z</time></trkpt><trkpt lat="43.49728197757168" lon="11.978077575850055"><ele>742.0</ele><time>2026-04-12T10:38:23.999Z</time></trkpt><trkpt lat="43.49719604330993" lon="11.978126892956999"><ele>742.0</ele><time>2026-04-12T10:38:24.999Z</time></trkpt><trkpt lat="43.49710652317754" lon="11.97814513283593"><ele>742.0</ele><time>2026-04-12T10:38:25.999Z</time></trkpt><trkpt lat="43.497000936288174" lon="11.978169784459277"><ele>742.0</ele><time>2026-04-12T10:38:26.999Z</time></trkpt><trkpt lat="43.496914834364496" lon="11.978182185203002"><ele>742.0</ele><time>2026-04-12T10:38:27.999Z</time></trkpt><trkpt lat="43.49683727033153" lon="11.978205833013476"><ele>742.0</ele><time>2026-04-12T10:38:28.999Z</time></trkpt><trkpt lat="43.496760360740524" lon="11.97824447906681"><ele>742.0</ele><time>2026-04-12T10:38:29.998Z</time></trkpt><trkpt lat="43.496693215982276" lon="11.978311946111008"><ele>740.2</ele><time>2026-04-12T10:38:30.998Z</time></trkpt><trkpt lat="43.496664979428346" lon="11.978417040332609"><ele>738.4000000000001</ele><time>2026-04-12T10:38:31.998Z</time></trkpt><trkpt lat="43.496670841663764" lon="11.978540502649208"><ele>736.5999999999999</ele><time>2026-04-12T10:38:32.998Z</time></trkpt><trkpt lat="43.49670119921888" lon="11.978683893692226"><ele>734.8</ele><time>2026-04-12T10:38:33.998Z</time></trkpt><trkpt lat="43.496753171365675" lon="11.978865402433984"><ele>733.0</ele><time>2026-04-12T10:38:34.998Z</time></trkpt><trkpt lat="43.49678698819355" lon="11.97903250249236"><ele>733.0</ele><time>2026-04-12T10:38:35.998Z</time></trkpt><trkpt lat="43.496783358313365" lon="11.979181437968528"><ele>733.0</ele><time>2026-04-12T10:38:36.998Z</time></trkpt><trkpt lat="43.49677091097065" lon="11.979334178969205"><ele>733.0</ele><time>2026-04-12T10:38:37.998Z</time></trkpt><trkpt lat="43.49677405679093" lon="11.979472719347955"><ele>733.0</ele><time>2026-04-12T10:38:38.998Z</time></trkpt><trkpt lat="43.4967902093772" lon="11.979590998663303"><ele>733.0</ele><time>2026-04-12T10:38:39.998Z</time></trkpt><trkpt lat="43.49684084004569" lon="11.979721517478742"><ele>732.5999999999999</ele><time>2026-04-12T10:38:40.998Z</time></trkpt><trkpt lat="43.496865292570384" lon="11.979847333957222"><ele>732.1999999999999</ele><time>2026-04-12T10:38:41.998Z</time></trkpt><trkpt lat="43.496862645135224" lon="11.979978004067192"><ele>731.8</ele><time>2026-04-12T10:38:42.998Z</time></trkpt><trkpt lat="43.496842890443936" lon="11.980113685980928"><ele>731.4</ele><time>2026-04-12T10:38:43.998Z</time></trkpt><trkpt lat="43.496810446927554" lon="11.98026549869746"><ele>731.0</ele><time>2026-04-12T10:38:44.998Z</time></trkpt><trkpt lat="43.4967818049415" lon="11.98042066736061"><ele>731.0</ele><time>2026-04-12T10:38:45.998Z</time></trkpt><trkpt lat="43.49674531594568" lon="11.980573138467905"><ele>731.0</ele><time>2026-04-12T10:38:46.998Z</time></trkpt><trkpt lat="43.496693951875734" lon="11.980692824101045"><ele>731.0</ele><time>2026-04-12T10:38:47.998Z</time></trkpt><trkpt lat="43.49665395755902" lon="11.980800653852517"><ele>731.0</ele><time>2026-04-12T10:38:48.998Z</time></trkpt><trkpt lat="43.49666113208211" lon="11.980894535076859"><ele>731.0</ele><time>2026-04-12T10:38:49.998Z</time></trkpt><trkpt lat="43.49670370287204" lon="11.981004742968434"><ele>733.0</ele><time>2026-04-12T10:38:51Z</time></trkpt><trkpt lat="43.49676588927825" lon="11.981125194971108"><ele>735.0</ele><time>2026-04-12T10:38:52Z</time></trkpt><trkpt lat="43.49684318514693" lon="11.981227906739083"><ele>737.0</ele><time>2026-04-12T10:38:53Z</time></trkpt><trkpt lat="43.49691208257046" lon="11.98132443438769"><ele>739.0</ele><time>2026-04-12T10:38:54Z</time></trkpt><trkpt lat="43.49693744522623" lon="11.981414360396474"><ele>741.0</ele><time>2026-04-12T10:38:55Z</time></trkpt><trkpt lat="43.496959962863656" lon="11.981522153518222"><ele>741.0</ele><time>2026-04-12T10:38:56Z</time></trkpt><trkpt lat="43.49694773348532" lon="11.981618537647257"><ele>741.0</ele><time>2026-04-12T10:39:06Z</time></trkpt><trkpt lat="43.496888329793855" lon="11.981580738521226"><ele>741.0</ele><time>2026-04-12T10:39:12Z</time></trkpt><trkpt lat="43.4968232046648" lon="11.981487053725992"><ele>741.0</ele><time>2026-04-12T10:39:14Z</time></trkpt><trkpt lat="43.4967613162209" lon="11.98146052446433"><ele>741.0</ele><time>2026-04-12T10:39:15Z</time></trkpt><trkpt lat="43.496636382494906" lon="11.9814339040989"><ele>741.0</ele><time>2026-04-12T10:39:17Z</time></trkpt><trkpt lat="43.49655230464394" lon="11.98137970254514"><ele>741.0</ele><time>2026-04-12T10:39:18Z</time></trkpt><trkpt lat="43.496483220889026" lon="11.981333262674463"><ele>741.0</ele><time>2026-04-12T10:39:19Z</time></trkpt><trkpt lat="43.49639136524305" lon="11.981334891716326"><ele>741.0</ele><time>2026-04-12T10:39:20Z</time></trkpt><trkpt lat="43.49628025928663" lon="11.981314237470711"><ele>741.0</ele><time>2026-04-12T10:39:21Z</time></trkpt><trkpt lat="43.49617509580595" lon="11.981259734191338"><ele>741.0</ele><time>2026-04-12T10:39:22Z</time></trkpt><trkpt lat="43.49607225948793" lon="11.981226606559888"><ele>742.8333333333334</ele><time>2026-04-12T10:39:23Z</time></trkpt><trkpt lat="43.49598349521644" lon="11.981230565403406"><ele>744.6666666666666</ele><time>2026-04-12T10:39:24Z</time></trkpt><trkpt lat="43.49590634333193" lon="11.981267614914193"><ele>746.5</ele><time>2026-04-12T10:39:25Z</time></trkpt><trkpt lat="43.49583536854653" lon="11.981311494492248"><ele>748.3333333333333</ele><time>2026-04-12T10:39:26Z</time></trkpt><trkpt lat="43.49575683187161" lon="11.981369918594687"><ele>750.1666666666666</ele><time>2026-04-12T10:39:27Z</time></trkpt><trkpt lat="43.49567628679286" lon="11.98142911456276"><ele>752.0</ele><time>2026-04-12T10:39:28Z</time></trkpt><trkpt lat="43.49560238442725" lon="11.98149431614941"><ele>752.0</ele><time>2026-04-12T10:39:29Z</time></trkpt><trkpt lat="43.49554388443199" lon="11.981568666262557"><ele>752.0</ele><time>2026-04-12T10:39:30Z</time></trkpt><trkpt lat="43.495490469418954" lon="11.98164161711023"><ele>752.0</ele><time>2026-04-12T10:39:31Z</time></trkpt><trkpt lat="43.49545463356649" lon="11.98171945564024"><ele>752.0</ele><time>2026-04-12T10:39:32Z</time></trkpt><trkpt lat="43.495405844469396" lon="11.981779339990554"><ele>752.0</ele><time>2026-04-12T10:39:33Z</time></trkpt><trkpt lat="43.495360192768054" lon="11.98188145675523"><ele>752.0</ele><time>2026-04-12T10:39:33.999Z</time></trkpt><trkpt lat="43.49532681110331" lon="11.982001078759122"><ele>753.0</ele><time>2026-04-12T10:39:34.999Z</time></trkpt><trkpt lat="43.495325252195684" lon="11.98212097032037"><ele>754.0</ele><time>2026-04-12T10:39:35.999Z</time></trkpt><trkpt lat="43.495343988662825" lon="11.982239213919527"><ele>755.0</ele><time>2026-04-12T10:39:36.999Z</time></trkpt><trkpt lat="43.495382711900916" lon="11.982359736835344"><ele>756.0</ele><time>2026-04-12T10:39:37.999Z</time></trkpt><trkpt lat="43.49542114241673" lon="11.982470494041392"><ele>757.0</ele><time>2026-04-12T10:39:38.999Z</time></trkpt><trkpt lat="43.49544943270499" lon="11.982595532371503"><ele>759.0</ele><time>2026-04-12T10:39:39.999Z</time></trkpt><trkpt lat="43.495450454649344" lon="11.982714273489572"><ele>761.0</ele><time>2026-04-12T10:39:40.999Z</time></trkpt><trkpt lat="43.49544373740147" lon="11.982819719980489"><ele>763.0</ele><time>2026-04-12T10:39:41.999Z</time></trkpt><trkpt lat="43.49543224867927" lon="11.982917611180799"><ele>765.0</ele><time>2026-04-12T10:39:42.999Z</time></trkpt><trkpt lat="43.49541939790012" lon="11.983011088492736"><ele>766.9999999999999</ele><time>2026-04-12T10:39:43.999Z</time></trkpt><trkpt lat="43.49541207363275" lon="11.983122600271175"><ele>769.0</ele><time>2026-04-12T10:39:44.999Z</time></trkpt><trkpt lat="43.49541878028721" lon="11.98326257807805"><ele>770.1666666666666</ele><time>2026-04-12T10:39:45.999Z</time></trkpt><trkpt lat="43.495417947185274" lon="11.983391173620035"><ele>771.3333333333333</ele><time>2026-04-12T10:39:46.999Z</time></trkpt><trkpt lat="43.49543895330472" lon="11.983474538702353"><ele>772.5</ele><time>2026-04-12T10:39:47.999Z</time></trkpt><trkpt lat="43.49547434494163" lon="11.983607890178362"><ele>773.6666666666667</ele><time>2026-04-12T10:39:48.999Z</time></trkpt><trkpt lat="43.49546399552516" lon="11.983732994906358"><ele>774.8333333333334</ele><time>2026-04-12T10:39:49.999Z</time></trkpt><trkpt lat="43.495417151096305" lon="11.983848701053164"><ele>776.0</ele><time>2026-04-12T10:39:50.999Z</time></trkpt><trkpt lat="43.49533982718418" lon="11.983920144251735"><ele>776.4</ele><time>2026-04-12T10:39:51.999Z</time></trkpt><trkpt lat="43.49525354078211" lon="11.983999704146024"><ele>776.8</ele><time>2026-04-12T10:39:52.999Z</time></trkpt><trkpt lat="43.495176260875475" lon="11.984111460386075"><ele>777.1999999999999</ele><time>2026-04-12T10:39:53.999Z</time></trkpt><trkpt lat="43.495080563528454" lon="11.98422303799158"><ele>777.5999999999999</ele><time>2026-04-12T10:39:54.999Z</time></trkpt><trkpt lat="43.49499680731982" lon="11.984317792730545"><ele>778.0</ele><time>2026-04-12T10:39:55.999Z</time></trkpt><trkpt lat="43.494935245107406" lon="11.984397210983493"><ele>778.8</ele><time>2026-04-12T10:39:56.999Z</time></trkpt><trkpt lat="43.49487051107896" lon="11.984471992596417"><ele>779.5999999999999</ele><time>2026-04-12T10:39:57.999Z</time></trkpt><trkpt lat="43.49481272985999" lon="11.984568445161617"><ele>780.4000000000001</ele><time>2026-04-12T10:39:58.999Z</time></trkpt><trkpt lat="43.49476369493718" lon="11.98465316386598"><ele>781.2</ele><time>2026-04-12T10:39:59.999Z</time></trkpt><trkpt lat="43.494674069659126" lon="11.984841952200712"><ele>782.0</ele><time>2026-04-12T10:40:01.999Z</time></trkpt><trkpt lat="43.49466245280001" lon="11.984947584908815"><ele>783.3333333333334</ele><time>2026-04-12T10:40:02.999Z</time></trkpt><trkpt lat="43.49464163997231" lon="11.985050028848633"><ele>784.6666666666667</ele><time>2026-04-12T10:40:03.999Z</time></trkpt><trkpt lat="43.494631622214996" lon="11.985178212336319"><ele>786.0</ele><time>2026-04-12T10:40:04.999Z</time></trkpt><trkpt lat="43.494629032351575" lon="11.98529957532894"><ele>787.3333333333333</ele><time>2026-04-12T10:40:05.999Z</time></trkpt><trkpt lat="43.49462372451807" lon="11.985421271466612"><ele>788.6666666666666</ele><time>2026-04-12T10:40:06.999Z</time></trkpt><trkpt lat="43.49460478626672" lon="11.985528886416212"><ele>790.0</ele><time>2026-04-12T10:40:07.999Z</time></trkpt><trkpt lat="43.494578962206305" lon="11.985631668676943"><ele>793.8</ele><time>2026-04-12T10:40:08.999Z</time></trkpt><trkpt lat="43.49454733238169" lon="11.985721509066334"><ele>797.6</ele><time>2026-04-12T10:40:09.999Z</time></trkpt><trkpt lat="43.4945055935632" lon="11.985827982097188"><ele>801.4000000000001</ele><time>2026-04-12T10:40:10.999Z</time></trkpt><trkpt lat="43.4944685488496" lon="11.985981929713136"><ele>805.2</ele><time>2026-04-12T10:40:12.999Z</time></trkpt><trkpt lat="43.49447605688456" lon="11.986101021874056"><ele>809.0</ele><time>2026-04-12T10:40:13.999Z</time></trkpt><trkpt lat="43.4944868510411" lon="11.986248107398797"><ele>810.2</ele><time>2026-04-12T10:40:14.999Z</time></trkpt><trkpt lat="43.49448965636567" lon="11.986402318039337"><ele>811.4000000000001</ele><time>2026-04-12T10:40:15.999Z</time></trkpt><trkpt lat="43.4944744120008" lon="11.986546858853036"><ele>812.6</ele><time>2026-04-12T10:40:16.999Z</time></trkpt><trkpt lat="43.494433386218795" lon="11.986685874944335"><ele>813.8</ele><time>2026-04-12T10:40:17.999Z</time></trkpt><trkpt lat="43.49441052423153" lon="11.986820269075842"><ele>815.0</ele><time>2026-04-12T10:40:18.999Z</time></trkpt><trkpt lat="43.49438904038156" lon="11.986954668992386"><ele>815.0</ele><time>2026-04-12T10:40:19.999Z</time></trkpt><trkpt lat="43.494342615640235" lon="11.987086293300056"><ele>815.0</ele><time>2026-04-12T10:40:20.999Z</time></trkpt><trkpt lat="43.49430573043249" lon="11.987226318437386"><ele>815.0</ele><time>2026-04-12T10:40:21.999Z</time></trkpt><trkpt lat="43.49425246059164" lon="11.987349465547414"><ele>815.0</ele><time>2026-04-12T10:40:22.999Z</time></trkpt><trkpt lat="43.49420356098578" lon="11.987419507554105"><ele>815.0</ele><time>2026-04-12T10:40:23.999Z</time></trkpt><trkpt lat="43.49414009544251" lon="11.987442758140588"><ele>815.0</ele><time>2026-04-12T10:40:24.999Z</time></trkpt><trkpt lat="43.49405638534021" lon="11.987441392718031"><ele>815.0</ele><time>2026-04-12T10:40:25.999Z</time></trkpt><trkpt lat="43.493944062985896" lon="11.987446859164478"><ele>815.0</ele><time>2026-04-12T10:40:26.999Z</time></trkpt><trkpt lat="43.493816332171484" lon="11.98745371996959"><ele>815.0</ele><time>2026-04-12T10:40:27.999Z</time></trkpt><trkpt lat="43.49369146629972" lon="11.987480711025336"><ele>817.75</ele><time>2026-04-12T10:40:28.999Z</time></trkpt><trkpt lat="43.49355640542448" lon="11.987514311144498"><ele>820.5</ele><time>2026-04-12T10:40:29.999Z</time></trkpt><trkpt lat="43.493430561586166" lon="11.98756336408886"><ele>823.25</ele><time>2026-04-12T10:40:30.999Z</time></trkpt><trkpt lat="43.4933031042451" lon="11.987623502736161"><ele>826.0</ele><time>2026-04-12T10:40:31.999Z</time></trkpt><trkpt lat="43.49319747807917" lon="11.987670089337847"><ele>826.0</ele><time>2026-04-12T10:40:32.999Z</time></trkpt><trkpt lat="43.49312386799011" lon="11.987696327573813"><ele>826.0</ele><time>2026-04-12T10:40:33.998Z</time></trkpt><trkpt lat="43.49304053957078" lon="11.987687659019842"><ele>826.0</ele><time>2026-04-12T10:40:34.998Z</time></trkpt><trkpt lat="43.49294646433107" lon="11.987647951036436"><ele>826.0</ele><time>2026-04-12T10:40:35.998Z</time></trkpt><trkpt lat="43.49282824599469" lon="11.987638329751364"><ele>826.0</ele><time>2026-04-12T10:40:36.998Z</time></trkpt><trkpt lat="43.492716110329575" lon="11.987651275296722"><ele>825.3333333333333</ele><time>2026-04-12T10:40:37.998Z</time></trkpt><trkpt lat="43.49261860005149" lon="11.98768828289519"><ele>824.6666666666666</ele><time>2026-04-12T10:40:38.998Z</time></trkpt><trkpt lat="43.492543085433894" lon="11.987750832003533"><ele>824.0</ele><time>2026-04-12T10:40:39.998Z</time></trkpt><trkpt lat="43.492493704149396" lon="11.987823091977498"><ele>823.3333333333333</ele><time>2026-04-12T10:40:40.998Z</time></trkpt><trkpt lat="43.49247990607056" lon="11.98790776835996"><ele>822.6666666666666</ele><time>2026-04-12T10:40:41.998Z</time></trkpt><trkpt lat="43.49249790818612" lon="11.988047538357796"><ele>822.0</ele><time>2026-04-12T10:40:42.998Z</time></trkpt><trkpt lat="43.49251846493965" lon="11.988220996151112"><ele>824.8</ele><time>2026-04-12T10:40:43.998Z</time></trkpt><trkpt lat="43.49249080399358" lon="11.988346200287502"><ele>827.6</ele><time>2026-04-12T10:40:44.998Z</time></trkpt><trkpt lat="43.49245334946451" lon="11.98847301436641"><ele>830.4</ele><time>2026-04-12T10:40:45.998Z</time></trkpt><trkpt lat="43.49241655243902" lon="11.988587793899047"><ele>833.1999999999999</ele><time>2026-04-12T10:40:46.998Z</time></trkpt><trkpt lat="43.49237265206591" lon="11.988721250630741"><ele>836.0</ele><time>2026-04-12T10:40:47.998Z</time></trkpt><trkpt lat="43.49231373961081" lon="11.988860209576155"><ele>836.0</ele><time>2026-04-12T10:40:48.998Z</time></trkpt><trkpt lat="43.492237073431646" lon="11.989001393856851"><ele>836.0</ele><time>2026-04-12T10:40:49.998Z</time></trkpt><trkpt lat="43.492168961105676" lon="11.989112227592111"><ele>836.0</ele><time>2026-04-12T10:40:50.998Z</time></trkpt><trkpt lat="43.49210397257991" lon="11.989163930157943"><ele>836.0</ele><time>2026-04-12T10:40:51.998Z</time></trkpt><trkpt lat="43.49203936896078" lon="11.989180204707699"><ele>836.0</ele><time>2026-04-12T10:40:52.998Z</time></trkpt><trkpt lat="43.49196331822071" lon="11.989217846277318"><ele>835.3333333333334</ele><time>2026-04-12T10:40:53.998Z</time></trkpt><trkpt lat="43.49185842377007" lon="11.989285922985934"><ele>834.6666666666667</ele><time>2026-04-12T10:40:54.998Z</time></trkpt><trkpt lat="43.491785351396025" lon="11.98935439497283"><ele>834.0</ele><time>2026-04-12T10:40:55.998Z</time></trkpt><trkpt lat="43.49172315434642" lon="11.989411940239641"><ele>833.3333333333333</ele><time>2026-04-12T10:40:57Z</time></trkpt><trkpt lat="43.49164976462501" lon="11.98946005425042"><ele>832.6666666666666</ele><time>2026-04-12T10:40:58Z</time></trkpt><trkpt lat="43.4915842221318" lon="11.989486287129493"><ele>832.0</ele><time>2026-04-12T10:40:59Z</time></trkpt><trkpt lat="43.491516153343724" lon="11.989507188082815"><ele>831.9999999999999</ele><time>2026-04-12T10:41:00Z</time></trkpt><trkpt lat="43.49144687315039" lon="11.989508099411117"><ele>832.0</ele><time>2026-04-12T10:41:01Z</time></trkpt><trkpt lat="43.49136573892852" lon="11.989491942677827"><ele>832.0</ele><time>2026-04-12T10:41:02Z</time></trkpt><trkpt lat="43.49130399186609" lon="11.989472196245824"><ele>832.0</ele><time>2026-04-12T10:41:03Z</time></trkpt><trkpt lat="43.491213690096515" lon="11.989456308855226"><ele>831.9999999999999</ele><time>2026-04-12T10:41:05Z</time></trkpt><trkpt lat="43.49110469201441" lon="11.98946822901036"><ele>832.0</ele><time>2026-04-12T10:41:07Z</time></trkpt><trkpt lat="43.49103313909235" lon="11.989476135170307"><ele>831.4000000000001</ele><time>2026-04-12T10:41:08Z</time></trkpt><trkpt lat="43.49093919883197" lon="11.989490962420128"><ele>830.8000000000001</ele><time>2026-04-12T10:41:09Z</time></trkpt><trkpt lat="43.49084874365375" lon="11.989517174322234"><ele>830.2</ele><time>2026-04-12T10:41:10Z</time></trkpt><trkpt lat="43.490762273432935" lon="11.989547047813355"><ele>829.6</ele><time>2026-04-12T10:41:11Z</time></trkpt><trkpt lat="43.49066033941555" lon="11.989551056778046"><ele>829.0</ele><time>2026-04-12T10:41:12Z</time></trkpt><trkpt lat="43.49057081948334" lon="11.989592269971165"><ele>828.9999999999999</ele><time>2026-04-12T10:41:13Z</time></trkpt><trkpt lat="43.49049707976752" lon="11.989637146909208"><ele>829.0</ele><time>2026-04-12T10:41:14Z</time></trkpt><trkpt lat="43.4904318619364" lon="11.989693129826007"><ele>829.0</ele><time>2026-04-12T10:41:15Z</time></trkpt><trkpt lat="43.49035204309608" lon="11.989711214705826"><ele>829.0</ele><time>2026-04-12T10:41:16Z</time></trkpt><trkpt lat="43.49028841720904" lon="11.989680183968296"><ele>828.9999999999999</ele><time>2026-04-12T10:41:17Z</time></trkpt><trkpt lat="43.49019017858891" lon="11.98964141781684"><ele>829.0</ele><time>2026-04-12T10:41:18Z</time></trkpt><trkpt lat="43.4901282534133" lon="11.989625399355706"><ele>828.8571428571429</ele><time>2026-04-12T10:41:19Z</time></trkpt><trkpt lat="43.49005684719117" lon="11.989586979261382"><ele>828.7142857142857</ele><time>2026-04-12T10:41:20Z</time></trkpt><trkpt lat="43.48999311690977" lon="11.989544069863829"><ele>828.5714285714287</ele><time>2026-04-12T10:41:21Z</time></trkpt><trkpt lat="43.48993561794164" lon="11.989499432742717"><ele>828.4285714285714</ele><time>2026-04-12T10:41:22Z</time></trkpt><trkpt lat="43.48985942436561" lon="11.989460920998747"><ele>828.2857142857143</ele><time>2026-04-12T10:41:23Z</time></trkpt><trkpt lat="43.489793464063446" lon="11.989436022130702"><ele>828.1428571428572</ele><time>2026-04-12T10:41:24Z</time></trkpt><trkpt lat="43.489723329023576" lon="11.989428308340786"><ele>828.0</ele><time>2026-04-12T10:41:25Z</time></trkpt><trkpt lat="43.48964431416915" lon="11.989460770893134"><ele>828.8333333333334</ele><time>2026-04-12T10:41:26Z</time></trkpt><trkpt lat="43.489552135010385" lon="11.989504502289408"><ele>829.6666666666667</ele><time>2026-04-12T10:41:27Z</time></trkpt><trkpt lat="43.48948614164284" lon="11.989560562076063"><ele>830.5</ele><time>2026-04-12T10:41:28Z</time></trkpt><trkpt lat="43.489379235036324" lon="11.989541252812632"><ele>831.3333333333334</ele><time>2026-04-12T10:41:30Z</time></trkpt><trkpt lat="43.489352806915434" lon="11.989428111418052"><ele>832.1666666666667</ele><time>2026-04-12T10:41:31Z</time></trkpt><trkpt lat="43.48934972813374" lon="11.989325497572517"><ele>833.0</ele><time>2026-04-12T10:41:32Z</time></trkpt><trkpt lat="43.489337766967516" lon="11.989239304201922"><ele>828.5</ele><time>2026-04-12T10:41:33Z</time></trkpt><trkpt lat="43.489239186539656" lon="11.989045892792277"><ele>824.0</ele><time>2026-04-12T10:41:35Z</time></trkpt><trkpt lat="43.48914630941756" lon="11.988953364451744"><ele>819.5</ele><time>2026-04-12T10:41:36Z</time></trkpt><trkpt lat="43.48905233577143" lon="11.988848489278075"><ele>815.0</ele><time>2026-04-12T10:41:37Z</time></trkpt><trkpt lat="43.488954489638665" lon="11.98875267470108"><ele>815.0</ele><time>2026-04-12T10:41:38Z</time></trkpt><trkpt lat="43.48886163545723" lon="11.98864906129896"><ele>815.0</ele><time>2026-04-12T10:41:39Z</time></trkpt><trkpt lat="43.488788746798136" lon="11.988536295291976"><ele>815.0</ele><time>2026-04-12T10:41:40Z</time></trkpt><trkpt lat="43.48869072541574" lon="11.988434109364652"><ele>815.0</ele><time>2026-04-12T10:41:42Z</time></trkpt><trkpt lat="43.48861774094833" lon="11.988449175104206"><ele>815.0</ele><time>2026-04-12T10:41:42.999Z</time></trkpt><trkpt lat="43.48851481324072" lon="11.98850028849173"><ele>817.0</ele><time>2026-04-12T10:41:43.999Z</time></trkpt><trkpt lat="43.48841025043798" lon="11.988561237860967"><ele>819.0</ele><time>2026-04-12T10:41:44.999Z</time></trkpt><trkpt lat="43.48831618218373" lon="11.988598039857665"><ele>821.0</ele><time>2026-04-12T10:41:45.999Z</time></trkpt><trkpt lat="43.48825433763358" lon="11.98861463817345"><ele>823.0</ele><time>2026-04-12T10:41:46.999Z</time></trkpt><trkpt lat="43.48813727647792" lon="11.988630518178576"><ele>825.0</ele><time>2026-04-12T10:41:48.999Z</time></trkpt><trkpt lat="43.48805934201607" lon="11.988662510062815"><ele>825.0</ele><time>2026-04-12T10:41:49.999Z</time></trkpt><trkpt lat="43.487939812229634" lon="11.988626634776251"><ele>825.0</ele><time>2026-04-12T10:41:51.999Z</time></trkpt><trkpt lat="43.48789276467931" lon="11.988562463342815"><ele>825.0</ele><time>2026-04-12T10:41:52.999Z</time></trkpt><trkpt lat="43.487839525275945" lon="11.988488703046494"><ele>825.0</ele><time>2026-04-12T10:41:53.999Z</time></trkpt><trkpt lat="43.48777782621841" lon="11.988397087831881"><ele>825.0</ele><time>2026-04-12T10:41:54.999Z</time></trkpt><trkpt lat="43.48772072163378" lon="11.988302001343675"><ele>825.0</ele><time>2026-04-12T10:41:55.999Z</time></trkpt><trkpt lat="43.487687350695744" lon="11.98822063455856"><ele>824.6666666666666</ele><time>2026-04-12T10:41:56.999Z</time></trkpt><trkpt lat="43.48763618171399" lon="11.988092965735719"><ele>824.3333333333333</ele><time>2026-04-12T10:41:57.999Z</time></trkpt><trkpt lat="43.487601373766736" lon="11.98796920321291"><ele>824.0</ele><time>2026-04-12T10:41:58.999Z</time></trkpt><trkpt lat="43.487581648354116" lon="11.987878772760622"><ele>823.6666666666666</ele><time>2026-04-12T10:41:59.999Z</time></trkpt><trkpt lat="43.48755732188652" lon="11.987789172908677"><ele>823.3333333333333</ele><time>2026-04-12T10:42:00.999Z</time></trkpt><trkpt lat="43.48753205264283" lon="11.987698713458267"><ele>823.0</ele><time>2026-04-12T10:42:01.999Z</time></trkpt><trkpt lat="43.48748663106546" lon="11.987584358388304"><ele>818.0</ele><time>2026-04-12T10:42:02.999Z</time></trkpt><trkpt lat="43.48740658295923" lon="11.987476787694767"><ele>813.0</ele><time>2026-04-12T10:42:03.999Z</time></trkpt><trkpt lat="43.48732889606567" lon="11.987398902312895"><ele>808.0</ele><time>2026-04-12T10:42:04.999Z</time></trkpt><trkpt lat="43.48726365575319" lon="11.987325882574106"><ele>803.0</ele><time>2026-04-12T10:42:05.999Z</time></trkpt><trkpt lat="43.48713986831177" lon="11.987179278619418"><ele>808.2</ele><time>2026-04-12T10:42:07.999Z</time></trkpt><trkpt lat="43.48708124408823" lon="11.987053228462324"><ele>813.4</ele><time>2026-04-12T10:42:08.999Z</time></trkpt><trkpt lat="43.48703660957325" lon="11.986973667436303"><ele>818.6</ele><time>2026-04-12T10:42:09.999Z</time></trkpt><trkpt lat="43.48694424954961" lon="11.986898749454461"><ele>823.8000000000001</ele><time>2026-04-12T10:42:11.999Z</time></trkpt><trkpt lat="43.48687206755269" lon="11.986889224340041"><ele>829.0</ele><time>2026-04-12T10:42:12.999Z</time></trkpt><trkpt lat="43.48681243810578" lon="11.986712656999265"><ele>826.8000000000001</ele><time>2026-04-12T10:42:14.999Z</time></trkpt><trkpt lat="43.48680277714831" lon="11.98655986148305"><ele>824.6</ele><time>2026-04-12T10:42:15.999Z</time></trkpt><trkpt lat="43.48678662702318" lon="11.986414288678688"><ele>822.4</ele><time>2026-04-12T10:42:16.999Z</time></trkpt><trkpt lat="43.486782040161074" lon="11.98626875387119"><ele>820.2</ele><time>2026-04-12T10:42:17.999Z</time></trkpt><trkpt lat="43.48678939667499" lon="11.986175217553582"><ele>818.0</ele><time>2026-04-12T10:42:18.999Z</time></trkpt><trkpt lat="43.48680190161926" lon="11.986089266325326"><ele>818.0</ele><time>2026-04-12T10:42:19.999Z</time></trkpt><trkpt lat="43.48680221290307" lon="11.985997519017618"><ele>818.0</ele><time>2026-04-12T10:42:20.999Z</time></trkpt><trkpt lat="43.48670613368074" lon="11.985873305023416"><ele>818.0</ele><time>2026-04-12T10:42:22.999Z</time></trkpt><trkpt lat="43.486628828902795" lon="11.985830935590728"><ele>818.0</ele><time>2026-04-12T10:42:23.999Z</time></trkpt><trkpt lat="43.48655654363935" lon="11.98581719395243"><ele>818.0</ele><time>2026-04-12T10:42:24.999Z</time></trkpt><trkpt lat="43.48646145340868" lon="11.985904331816084"><ele>818.0</ele><time>2026-04-12T10:42:26.999Z</time></trkpt><trkpt lat="43.48642038734257" lon="11.9859846055009"><ele>818.0</ele><time>2026-04-12T10:42:27.999Z</time></trkpt><trkpt lat="43.48637803735415" lon="11.986090853650783"><ele>818.0</ele><time>2026-04-12T10:42:28.999Z</time></trkpt><trkpt lat="43.48634002559671" lon="11.986220081341282"><ele>818.0</ele><time>2026-04-12T10:42:29.999Z</time></trkpt><trkpt lat="43.48629291397358" lon="11.98634246733126"><ele>818.0</ele><time>2026-04-12T10:42:30.999Z</time></trkpt><trkpt lat="43.48622989967595" lon="11.986475547265721"><ele>818.5000000000001</ele><time>2026-04-12T10:42:31.999Z</time></trkpt><trkpt lat="43.48616762356903" lon="11.986549268593317"><ele>819.0</ele><time>2026-04-12T10:42:32.999Z</time></trkpt><trkpt lat="43.48608277756921" lon="11.98660518359751"><ele>819.5</ele><time>2026-04-12T10:42:33.999Z</time></trkpt><trkpt lat="43.48600392911985" lon="11.98664250538034"><ele>820.0</ele><time>2026-04-12T10:42:34.999Z</time></trkpt><trkpt lat="43.48593414253636" lon="11.986699231165867"><ele>820.5000000000001</ele><time>2026-04-12T10:42:35.999Z</time></trkpt><trkpt lat="43.48587872502081" lon="11.986775350544937"><ele>821.0</ele><time>2026-04-12T10:42:36.999Z</time></trkpt><trkpt lat="43.48582644929583" lon="11.986878484687132"><ele>821.0</ele><time>2026-04-12T10:42:37.999Z</time></trkpt><trkpt lat="43.485790155191104" lon="11.987003278249029"><ele>821.0</ele><time>2026-04-12T10:42:38.999Z</time></trkpt><trkpt lat="43.48576177648484" lon="11.987119263566372"><ele>821.0</ele><time>2026-04-12T10:42:39.999Z</time></trkpt><trkpt lat="43.485715718577474" lon="11.98724096023582"><ele>821.0</ele><time>2026-04-12T10:42:40.999Z</time></trkpt><trkpt lat="43.48564439353164" lon="11.98736032729893"><ele>821.0</ele><time>2026-04-12T10:42:41.999Z</time></trkpt><trkpt lat="43.485568500732505" lon="11.987467767584745"><ele>822.3333333333334</ele><time>2026-04-12T10:42:42.999Z</time></trkpt><trkpt lat="43.48551459724044" lon="11.987558223420587"><ele>823.6666666666667</ele><time>2026-04-12T10:42:43.999Z</time></trkpt><trkpt lat="43.48547732063344" lon="11.987646424621772"><ele>825.0</ele><time>2026-04-12T10:42:44.998Z</time></trkpt><trkpt lat="43.485457153519825" lon="11.987751449561436"><ele>826.3333333333333</ele><time>2026-04-12T10:42:45.998Z</time></trkpt><trkpt lat="43.485467230855654" lon="11.987848837779527"><ele>827.6666666666666</ele><time>2026-04-12T10:42:46.998Z</time></trkpt><trkpt lat="43.48547433261488" lon="11.987984831083672"><ele>829.0</ele><time>2026-04-12T10:42:47.998Z</time></trkpt><trkpt lat="43.48547192509718" lon="11.98813393640109"><ele>829.0</ele><time>2026-04-12T10:42:48.998Z</time></trkpt><trkpt lat="43.485457108653506" lon="11.98829234776643"><ele>829.0</ele><time>2026-04-12T10:42:49.998Z</time></trkpt><trkpt lat="43.485437930042984" lon="11.988425569983542"><ele>829.0</ele><time>2026-04-12T10:42:50.998Z</time></trkpt><trkpt lat="43.48544291239253" lon="11.98855123867331"><ele>829.0</ele><time>2026-04-12T10:42:51.998Z</time></trkpt><trkpt lat="43.48547115601417" lon="11.988684439782752"><ele>829.0</ele><time>2026-04-12T10:42:52.998Z</time></trkpt><trkpt lat="43.485511929152665" lon="11.988830523032366"><ele>828.9999999999999</ele><time>2026-04-12T10:42:53.998Z</time></trkpt><trkpt lat="43.485536771486345" lon="11.988936903373203"><ele>829.0</ele><time>2026-04-12T10:42:54.998Z</time></trkpt><trkpt lat="43.485567543418796" lon="11.989036099980487"><ele>829.0</ele><time>2026-04-12T10:42:55.998Z</time></trkpt><trkpt lat="43.48554985881343" lon="11.989147171524882"><ele>829.0</ele><time>2026-04-12T10:42:56.998Z</time></trkpt><trkpt lat="43.48550371043678" lon="11.989228608002755"><ele>828.9999999999999</ele><time>2026-04-12T10:42:57.998Z</time></trkpt><trkpt lat="43.48544873103297" lon="11.989381314262298"><ele>829.0</ele><time>2026-04-12T10:42:59.998Z</time></trkpt><trkpt lat="43.48541857973183" lon="11.989462158457306"><ele>827.6</ele><time>2026-04-12T10:43:00.998Z</time></trkpt><trkpt lat="43.48534274189425" lon="11.989562666208007"><ele>826.2</ele><time>2026-04-12T10:43:01.998Z</time></trkpt><trkpt lat="43.48527802981737" lon="11.989638225921784"><ele>824.8000000000001</ele><time>2026-04-12T10:43:03Z</time></trkpt><trkpt lat="43.485199184270606" lon="11.989713787467936"><ele>823.4000000000001</ele><time>2026-04-12T10:43:04Z</time></trkpt><trkpt lat="43.485116470271684" lon="11.989771794619202"><ele>822.0</ele><time>2026-04-12T10:43:05Z</time></trkpt><trkpt lat="43.4850285852561" lon="11.989769122448934"><ele>822.0</ele><time>2026-04-12T10:43:06Z</time></trkpt><trkpt lat="43.484919374444544" lon="11.989765783342353"><ele>822.0</ele><time>2026-04-12T10:43:07Z</time></trkpt><trkpt lat="43.48482081573357" lon="11.989777113951138"><ele>822.0</ele><time>2026-04-12T10:43:08Z</time></trkpt><trkpt lat="43.48471908563412" lon="11.989781212677103"><ele>822.0</ele><time>2026-04-12T10:43:09Z</time></trkpt><trkpt lat="43.484619126156325" lon="11.989781487069456"><ele>822.0</ele><time>2026-04-12T10:43:10Z</time></trkpt><trkpt lat="43.48451712315596" lon="11.989786699348368"><ele>822.3333333333334</ele><time>2026-04-12T10:43:11Z</time></trkpt><trkpt lat="43.484405354313324" lon="11.989770650997484"><ele>822.6666666666667</ele><time>2026-04-12T10:43:12Z</time></trkpt><trkpt lat="43.48431809371934" lon="11.989772421306533"><ele>823.0</ele><time>2026-04-12T10:43:13Z</time></trkpt><trkpt lat="43.484251370548435" lon="11.989785623175951"><ele>823.3333333333334</ele><time>2026-04-12T10:43:14Z</time></trkpt><trkpt lat="43.48416280512919" lon="11.98978950240072"><ele>823.6666666666667</ele><time>2026-04-12T10:43:15Z</time></trkpt><trkpt lat="43.48407478996863" lon="11.989789547248414"><ele>824.0</ele><time>2026-04-12T10:43:16Z</time></trkpt><trkpt lat="43.48398135946206" lon="11.989788363080697"><ele>824.0000000000001</ele><time>2026-04-12T10:43:17Z</time></trkpt><trkpt lat="43.48388914295187" lon="11.989782202504085"><ele>824.0</ele><time>2026-04-12T10:43:18Z</time></trkpt><trkpt lat="43.48380565517657" lon="11.989773059634084"><ele>824.0</ele><time>2026-04-12T10:43:19Z</time></trkpt><trkpt lat="43.483741553492905" lon="11.989792207376228"><ele>824.0</ele><time>2026-04-12T10:43:20Z</time></trkpt><trkpt lat="43.48368162921068" lon="11.989841888279278"><ele>824.0000000000001</ele><time>2026-04-12T10:43:22Z</time></trkpt><trkpt lat="43.483608266151876" lon="11.98982562540324"><ele>824.0</ele><time>2026-04-12T10:43:25Z</time></trkpt><trkpt lat="43.48352417485367" lon="11.989789490782334"><ele>826.2</ele><time>2026-04-12T10:43:27Z</time></trkpt><trkpt lat="43.48341944919142" lon="11.989752638569714"><ele>828.4000000000001</ele><time>2026-04-12T10:43:29Z</time></trkpt><trkpt lat="43.48330729350267" lon="11.989735463130655"><ele>830.6</ele><time>2026-04-12T10:43:31Z</time></trkpt><trkpt lat="43.48321700303076" lon="11.989725003705107"><ele>832.8</ele><time>2026-04-12T10:43:33Z</time></trkpt><trkpt lat="43.48315189204969" lon="11.989721840727963"><ele>835.0</ele><time>2026-04-12T10:43:34Z</time></trkpt><trkpt lat="43.48302095901183" lon="11.989737082243643"><ele>834.9999999999999</ele><time>2026-04-12T10:43:36Z</time></trkpt><trkpt lat="43.48294344058946" lon="11.98976492890188"><ele>835.0</ele><time>2026-04-12T10:43:37Z</time></trkpt><trkpt lat="43.4828646815147" lon="11.98978620104277"><ele>835.0</ele><time>2026-04-12T10:43:38Z</time></trkpt><trkpt lat="43.48278194554903" lon="11.989796893850276"><ele>835.0</ele><time>2026-04-12T10:43:39Z</time></trkpt><trkpt lat="43.482692186410304" lon="11.989791503714168"><ele>834.9999999999999</ele><time>2026-04-12T10:43:40Z</time></trkpt><trkpt lat="43.482627289352436" lon="11.98978838384301"><ele>835.0</ele><time>2026-04-12T10:43:41Z</time></trkpt><trkpt lat="43.48253209937817" lon="11.98978987395311"><ele>837.8</ele><time>2026-04-12T10:43:43Z</time></trkpt><trkpt lat="43.48246812587949" lon="11.989760811236675"><ele>840.6</ele><time>2026-04-12T10:43:44Z</time></trkpt><trkpt lat="43.482360947955414" lon="11.98975922997881"><ele>843.4000000000001</ele><time>2026-04-12T10:43:45.999Z</time></trkpt><trkpt lat="43.48230011376342" lon="11.989866102372929"><ele>846.2</ele><time>2026-04-12T10:43:47.999Z</time></trkpt><trkpt lat="43.48225926298889" lon="11.990003011584724"><ele>849.0</ele><time>2026-04-12T10:43:49.999Z</time></trkpt><trkpt lat="43.48222618663764" lon="11.990140257134493"><ele>850.6666666666666</ele><time>2026-04-12T10:43:51.999Z</time></trkpt><trkpt lat="43.482190619991655" lon="11.990221773556272"><ele>852.3333333333333</ele><time>2026-04-12T10:43:52.999Z</time></trkpt><trkpt lat="43.482161392864526" lon="11.99030098411323"><ele>854.0</ele><time>2026-04-12T10:43:53.999Z</time></trkpt><trkpt lat="43.48212154600397" lon="11.990376883525826"><ele>855.6666666666666</ele><time>2026-04-12T10:43:54.999Z</time></trkpt><trkpt lat="43.48205933308352" lon="11.990442830579871"><ele>857.3333333333333</ele><time>2026-04-12T10:43:55.999Z</time></trkpt><trkpt lat="43.48196775469308" lon="11.990495960629636"><ele>859.0</ele><time>2026-04-12T10:43:56.999Z</time></trkpt><trkpt lat="43.4818936772147" lon="11.990556326892946"><ele>860.4000000000001</ele><time>2026-04-12T10:43:57.999Z</time></trkpt><trkpt lat="43.48181018696066" lon="11.99063784671555"><ele>861.8000000000001</ele><time>2026-04-12T10:43:58.999Z</time></trkpt><trkpt lat="43.48171474686713" lon="11.990733947905063"><ele>863.1999999999999</ele><time>2026-04-12T10:43:59.999Z</time></trkpt><trkpt lat="43.48160722611896" lon="11.990778307533652"><ele>864.5999999999999</ele><time>2026-04-12T10:44:00.999Z</time></trkpt><trkpt lat="43.481541818915304" lon="11.990830782358861"><ele>866.0</ele><time>2026-04-12T10:44:01.999Z</time></trkpt><trkpt lat="43.4814635714878" lon="11.990844016890502"><ele>866.0000000000001</ele><time>2026-04-12T10:44:02.999Z</time></trkpt><trkpt lat="43.481381025022145" lon="11.990852473236615"><ele>866.0</ele><time>2026-04-12T10:44:03.999Z</time></trkpt><trkpt lat="43.481295910443244" lon="11.990838343756792"><ele>866.0</ele><time>2026-04-12T10:44:04.999Z</time></trkpt><trkpt lat="43.481210164755936" lon="11.990834959464157"><ele>866.0</ele><time>2026-04-12T10:44:05.999Z</time></trkpt><trkpt lat="43.48112087124668" lon="11.990820628305077"><ele>866.0000000000001</ele><time>2026-04-12T10:44:06.999Z</time></trkpt><trkpt lat="43.48103921295144" lon="11.99086405982001"><ele>866.0</ele><time>2026-04-12T10:44:07.999Z</time></trkpt><trkpt lat="43.480956317997304" lon="11.990920463054735"><ele>867.0000000000001</ele><time>2026-04-12T10:44:08.999Z</time></trkpt><trkpt lat="43.480890618059874" lon="11.99098318018995"><ele>868.0</ele><time>2026-04-12T10:44:09.999Z</time></trkpt><trkpt lat="43.480818491162054" lon="11.991080543559429"><ele>869.0</ele><time>2026-04-12T10:44:10.999Z</time></trkpt><trkpt lat="43.48076341951198" lon="11.99118646336563"><ele>870.0</ele><time>2026-04-12T10:44:11.999Z</time></trkpt><trkpt lat="43.48072089567885" lon="11.991252959255293"><ele>871.0000000000001</ele><time>2026-04-12T10:44:12.999Z</time></trkpt><trkpt lat="43.48063662564168" lon="11.991261804068543"><ele>872.0</ele><time>2026-04-12T10:44:14.999Z</time></trkpt><trkpt lat="43.480569048033615" lon="11.991244246533594"><ele>872.0000000000001</ele><time>2026-04-12T10:44:16.999Z</time></trkpt><trkpt lat="43.48049379686192" lon="11.991254248695007"><ele>872.0</ele><time>2026-04-12T10:44:18.999Z</time></trkpt><trkpt lat="43.480407692812406" lon="11.991265130110278"><ele>872.0</ele><time>2026-04-12T10:44:20.999Z</time></trkpt><trkpt lat="43.480338895221834" lon="11.991269364488003"><ele>872.0</ele><time>2026-04-12T10:44:21.999Z</time></trkpt><trkpt lat="43.4802698231909" lon="11.991271004865123"><ele>872.0000000000001</ele><time>2026-04-12T10:44:22.999Z</time></trkpt><trkpt lat="43.48016264458468" lon="11.991249510440909"><ele>872.0</ele><time>2026-04-12T10:44:24.999Z</time></trkpt><trkpt lat="43.48006668538722" lon="11.99114969838165"><ele>873.1666666666667</ele><time>2026-04-12T10:44:26.999Z</time></trkpt><trkpt lat="43.47997201233771" lon="11.991131689130642"><ele>874.3333333333334</ele><time>2026-04-12T10:44:28.999Z</time></trkpt><trkpt lat="43.47990756806363" lon="11.991135825871469"><ele>875.5</ele><time>2026-04-12T10:44:29.999Z</time></trkpt><trkpt lat="43.479840490362754" lon="11.99113624754783"><ele>876.6666666666667</ele><time>2026-04-12T10:44:30.999Z</time></trkpt><trkpt lat="43.4797339968928" lon="11.991156212717497"><ele>877.8333333333334</ele><time>2026-04-12T10:44:31.999Z</time></trkpt><trkpt lat="43.47964143278012" lon="11.991238031297454"><ele>879.0</ele><time>2026-04-12T10:44:32.999Z</time></trkpt><trkpt lat="43.47954653691182" lon="11.991302478250926"><ele>881.6</ele><time>2026-04-12T10:44:33.999Z</time></trkpt><trkpt lat="43.47945866499698" lon="11.991334750218607"><ele>884.2</ele><time>2026-04-12T10:44:34.999Z</time></trkpt><trkpt lat="43.47936467875001" lon="11.991338503486496"><ele>886.8000000000001</ele><time>2026-04-12T10:44:35.999Z</time></trkpt><trkpt lat="43.47926460240429" lon="11.991323732420785"><ele>889.4000000000001</ele><time>2026-04-12T10:44:36.999Z</time></trkpt><trkpt lat="43.47916398988493" lon="11.991313934794247"><ele>892.0</ele><time>2026-04-12T10:44:37.999Z</time></trkpt><trkpt lat="43.479085005172834" lon="11.991286843284295"><ele>891.9999999999999</ele><time>2026-04-12T10:44:38.999Z</time></trkpt><trkpt lat="43.479010820213176" lon="11.991274399653355"><ele>892.0</ele><time>2026-04-12T10:44:39.999Z</time></trkpt><trkpt lat="43.478930899309375" lon="11.991278265344764"><ele>892.0</ele><time>2026-04-12T10:44:40.999Z</time></trkpt><trkpt lat="43.47885274696828" lon="11.991283664768439"><ele>892.0</ele><time>2026-04-12T10:44:41.999Z</time></trkpt><trkpt lat="43.478772061112785" lon="11.991279032020472"><ele>891.9999999999999</ele><time>2026-04-12T10:44:42.999Z</time></trkpt><trkpt lat="43.478696827400135" lon="11.991244744443684"><ele>892.0</ele><time>2026-04-12T10:44:43.999Z</time></trkpt><trkpt lat="43.47862064820456" lon="11.991179501003192"><ele>891.4000000000001</ele><time>2026-04-12T10:44:44.999Z</time></trkpt><trkpt lat="43.47853028323623" lon="11.991120581915288"><ele>890.8000000000001</ele><time>2026-04-12T10:44:45.999Z</time></trkpt><trkpt lat="43.478465241057535" lon="11.99109600277837"><ele>890.2</ele><time>2026-04-12T10:44:46.998Z</time></trkpt><trkpt lat="43.47835673700468" lon="11.991076793270867"><ele>889.6</ele><time>2026-04-12T10:44:48.998Z</time></trkpt><trkpt lat="43.478235556474175" lon="11.991084627628293"><ele>889.0</ele><time>2026-04-12T10:44:50.998Z</time></trkpt><trkpt lat="43.478121770121014" lon="11.990970400957535"><ele>889.0</ele><time>2026-04-12T10:44:52.998Z</time></trkpt><trkpt lat="43.478021991690866" lon="11.990890213067646"><ele>889.0</ele><time>2026-04-12T10:44:53.998Z</time></trkpt><trkpt lat="43.47791408704798" lon="11.99081948625269"><ele>889.0</ele><time>2026-04-12T10:44:54.998Z</time></trkpt><trkpt lat="43.47779998189271" lon="11.990761680808282"><ele>889.0</ele><time>2026-04-12T10:44:55.998Z</time></trkpt><trkpt lat="43.47769778773949" lon="11.990698706520345"><ele>891.6</ele><time>2026-04-12T10:44:56.998Z</time></trkpt><trkpt lat="43.47759088446192" lon="11.990640765645987"><ele>894.2</ele><time>2026-04-12T10:44:57.998Z</time></trkpt><trkpt lat="43.47750244834432" lon="11.990593973671032"><ele>896.8000000000001</ele><time>2026-04-12T10:44:58.998Z</time></trkpt><trkpt lat="43.47742976552278" lon="11.990556829104086"><ele>899.4000000000001</ele><time>2026-04-12T10:44:59.998Z</time></trkpt><trkpt lat="43.477349161837054" lon="11.990499276716614"><ele>902.0</ele><time>2026-04-12T10:45:00.998Z</time></trkpt><trkpt lat="43.47726533517728" lon="11.990430570213448"><ele>902.0</ele><time>2026-04-12T10:45:01.998Z</time></trkpt><trkpt lat="43.47715645163808" lon="11.990387947271934"><ele>902.0</ele><time>2026-04-12T10:45:02.998Z</time></trkpt><trkpt lat="43.47704898638639" lon="11.990327801544751"><ele>902.0</ele><time>2026-04-12T10:45:03.998Z</time></trkpt><trkpt lat="43.47695465706359" lon="11.990268537479784"><ele>902.0</ele><time>2026-04-12T10:45:04.998Z</time></trkpt><trkpt lat="43.47685485781481" lon="11.990212202499354"><ele>902.0</ele><time>2026-04-12T10:45:05.998Z</time></trkpt><trkpt lat="43.4767596669212" lon="11.990154602474847"><ele>901.4000000000001</ele><time>2026-04-12T10:45:06.998Z</time></trkpt><trkpt lat="43.47667110070763" lon="11.990081062867787"><ele>900.8000000000001</ele><time>2026-04-12T10:45:07.998Z</time></trkpt><trkpt lat="43.47658259379204" lon="11.99000414850212"><ele>900.2</ele><time>2026-04-12T10:45:09Z</time></trkpt><trkpt lat="43.47647557950018" lon="11.9899279792473"><ele>899.6</ele><time>2026-04-12T10:45:10Z</time></trkpt><trkpt lat="43.47639094080285" lon="11.989861344136864"><ele>899.0</ele><time>2026-04-12T10:45:11Z</time></trkpt><trkpt lat="43.47631245958079" lon="11.989758760280758"><ele>897.8000000000001</ele><time>2026-04-12T10:45:12Z</time></trkpt><trkpt lat="43.47624367871494" lon="11.989670582771891"><ele>896.6000000000001</ele><time>2026-04-12T10:45:13Z</time></trkpt><trkpt lat="43.47615881660809" lon="11.98958374870967"><ele>895.4</ele><time>2026-04-12T10:45:14Z</time></trkpt><trkpt lat="43.47606755629462" lon="11.989505258206506"><ele>894.2</ele><time>2026-04-12T10:45:15Z</time></trkpt><trkpt lat="43.47597129177668" lon="11.989422641804424"><ele>893.0</ele><time>2026-04-12T10:45:16Z</time></trkpt><trkpt lat="43.47586394623753" lon="11.989341323833472"><ele>893.0</ele><time>2026-04-12T10:45:17Z</time></trkpt><trkpt lat="43.47576532533963" lon="11.989283698992962"><ele>893.0</ele><time>2026-04-12T10:45:18Z</time></trkpt><trkpt lat="43.47567354041282" lon="11.989254939859906"><ele>893.0</ele><time>2026-04-12T10:45:19Z</time></trkpt><trkpt lat="43.475582846354285" lon="11.989204482344796"><ele>893.0</ele><time>2026-04-12T10:45:20Z</time></trkpt><trkpt lat="43.4754969863051" lon="11.989179082298545"><ele>893.0</ele><time>2026-04-12T10:45:21Z</time></trkpt><trkpt lat="43.4753965186431" lon="11.989195430848113"><ele>894.5</ele><time>2026-04-12T10:45:22Z</time></trkpt><trkpt lat="43.475299351231136" lon="11.98922171991173"><ele>896.0</ele><time>2026-04-12T10:45:23Z</time></trkpt><trkpt lat="43.47518472216001" lon="11.989222486576379"><ele>897.5</ele><time>2026-04-12T10:45:24Z</time></trkpt><trkpt lat="43.475059475334895" lon="11.989210288569694"><ele>899.0</ele><time>2026-04-12T10:45:25Z</time></trkpt><trkpt lat="43.47493401342094" lon="11.989172439142793"><ele>899.0</ele><time>2026-04-12T10:45:26Z</time></trkpt><trkpt lat="43.47484068941586" lon="11.989129722294457"><ele>899.0000000000001</ele><time>2026-04-12T10:45:27Z</time></trkpt><trkpt lat="43.47476314819441" lon="11.98908438588438"><ele>899.0000000000001</ele><time>2026-04-12T10:45:28Z</time></trkpt><trkpt lat="43.4746719114178" lon="11.989027204357814"><ele>899.0</ele><time>2026-04-12T10:45:29Z</time></trkpt><trkpt lat="43.474592402111675" lon="11.98896662526412"><ele>899.0</ele><time>2026-04-12T10:45:30Z</time></trkpt><trkpt lat="43.47450720516569" lon="11.988927822012693"><ele>898.2</ele><time>2026-04-12T10:45:31Z</time></trkpt><trkpt lat="43.47440027445476" lon="11.988936865264499"><ele>897.4000000000001</ele><time>2026-04-12T10:45:32Z</time></trkpt><trkpt lat="43.47428544458376" lon="11.988970734983974"><ele>896.6</ele><time>2026-04-12T10:45:33Z</time></trkpt><trkpt lat="43.47418810103823" lon="11.988933380522495"><ele>895.8</ele><time>2026-04-12T10:45:34Z</time></trkpt><trkpt lat="43.47413142475854" lon="11.988860575753412"><ele>895.0</ele><time>2026-04-12T10:45:35Z</time></trkpt><trkpt lat="43.474060601310995" lon="11.988800898561733"><ele>895.0</ele><time>2026-04-12T10:45:36Z</time></trkpt><trkpt lat="43.47394362346017" lon="11.988746917877899"><ele>895.0</ele><time>2026-04-12T10:45:37Z</time></trkpt><trkpt lat="43.47386337149475" lon="11.988726677516908"><ele>895.0</ele><time>2026-04-12T10:45:38Z</time></trkpt><trkpt lat="43.47378760016061" lon="11.988709902639929"><ele>895.0</ele><time>2026-04-12T10:45:39Z</time></trkpt><trkpt lat="43.47367951502638" lon="11.988609897998963"><ele>895.0</ele><time>2026-04-12T10:45:41Z</time></trkpt><trkpt lat="43.47366276425271" lon="11.988458192962252"><ele>894.6</ele><time>2026-04-12T10:45:43Z</time></trkpt><trkpt lat="43.47376863629382" lon="11.988331261169465"><ele>894.2</ele><time>2026-04-12T10:45:45Z</time></trkpt><trkpt lat="43.473829043919515" lon="11.988258190141417"><ele>893.8</ele><time>2026-04-12T10:45:46Z</time></trkpt><trkpt lat="43.473857496600935" lon="11.98816132236821"><ele>893.4</ele><time>2026-04-12T10:45:47Z</time></trkpt><trkpt lat="43.47385648579279" lon="11.988054921498398"><ele>893.0</ele><time>2026-04-12T10:45:48Z</time></trkpt><trkpt lat="43.47386581227591" lon="11.987928860920148"><ele>893.0</ele><time>2026-04-12T10:45:50Z</time></trkpt><trkpt lat="43.47380102504829" lon="11.987892917501323"><ele>893.0</ele><time>2026-04-12T10:45:53Z</time></trkpt><trkpt lat="43.47373312780352" lon="11.9878308656554"><ele>893.0</ele><time>2026-04-12T10:45:54.999Z</time></trkpt><trkpt lat="43.47365582716824" lon="11.98776026389885"><ele>893.0</ele><time>2026-04-12T10:45:56.999Z</time></trkpt><trkpt lat="43.47354409920293" lon="11.987742433621419"><ele>893.0</ele><time>2026-04-12T10:45:58.999Z</time></trkpt><trkpt lat="43.473401330320364" lon="11.987708392447042"><ele>891.8333333333334</ele><time>2026-04-12T10:46:00.999Z</time></trkpt><trkpt lat="43.47331998806704" lon="11.987683156923431"><ele>890.6666666666667</ele><time>2026-04-12T10:46:01.999Z</time></trkpt><trkpt lat="43.47324124392969" lon="11.987633568333276"><ele>889.5</ele><time>2026-04-12T10:46:02.999Z</time></trkpt><trkpt lat="43.47318124989601" lon="11.98760074834753"><ele>888.3333333333333</ele><time>2026-04-12T10:46:03.999Z</time></trkpt><trkpt lat="43.47306909088751" lon="11.987514784386677"><ele>887.1666666666666</ele><time>2026-04-12T10:46:05.999Z</time></trkpt><trkpt lat="43.473001923569996" lon="11.98744577619023"><ele>886.0</ele><time>2026-04-12T10:46:06.999Z</time></trkpt><trkpt lat="43.47294070791567" lon="11.987364805051904"><ele>880.9999999999999</ele><time>2026-04-12T10:46:07.999Z</time></trkpt><trkpt lat="43.472882899993294" lon="11.98725598603735"><ele>876.0</ele><time>2026-04-12T10:46:08.999Z</time></trkpt><trkpt lat="43.472835040855266" lon="11.987151168326761"><ele>871.0</ele><time>2026-04-12T10:46:09.999Z</time></trkpt><trkpt lat="43.47281634333325" lon="11.987065972523498"><ele>866.0</ele><time>2026-04-12T10:46:10.999Z</time></trkpt><trkpt lat="43.4727913305616" lon="11.986954029918074"><ele>860.9999999999999</ele><time>2026-04-12T10:46:11.999Z</time></trkpt><trkpt lat="43.47276715290335" lon="11.986852422733806"><ele>856.0</ele><time>2026-04-12T10:46:12.999Z</time></trkpt><trkpt lat="43.47270684578879" lon="11.986750502765153"><ele>858.0</ele><time>2026-04-12T10:46:13.999Z</time></trkpt><trkpt lat="43.47261194201976" lon="11.986660238076894"><ele>859.9999999999999</ele><time>2026-04-12T10:46:14.999Z</time></trkpt><trkpt lat="43.47252412093605" lon="11.986562506511756"><ele>861.9999999999999</ele><time>2026-04-12T10:46:15.999Z</time></trkpt><trkpt lat="43.472465751442535" lon="11.986471918686407"><ele>864.0</ele><time>2026-04-12T10:46:16.999Z</time></trkpt><trkpt lat="43.472414361621716" lon="11.986381780245598"><ele>866.0</ele><time>2026-04-12T10:46:17.999Z</time></trkpt><trkpt lat="43.47237321784791" lon="11.986300426807649"><ele>866.0</ele><time>2026-04-12T10:46:18.999Z</time></trkpt><trkpt lat="43.47234341501667" lon="11.986200229730779"><ele>865.9999999999999</ele><time>2026-04-12T10:46:19.999Z</time></trkpt><trkpt lat="43.472325545939206" lon="11.986063491495353"><ele>865.9999999999999</ele><time>2026-04-12T10:46:20.999Z</time></trkpt><trkpt lat="43.472310856788596" lon="11.985904962129595"><ele>866.0</ele><time>2026-04-12T10:46:21.999Z</time></trkpt><trkpt lat="43.47231466275965" lon="11.985751921057652"><ele>866.0</ele><time>2026-04-12T10:46:22.999Z</time></trkpt><trkpt lat="43.47232591034689" lon="11.985631362589821"><ele>867.0000000000001</ele><time>2026-04-12T10:46:23.999Z</time></trkpt><trkpt lat="43.47236218395923" lon="11.985527180780176"><ele>868.0</ele><time>2026-04-12T10:46:24.999Z</time></trkpt><trkpt lat="43.47242278667665" lon="11.985439646400955"><ele>869.0</ele><time>2026-04-12T10:46:25.999Z</time></trkpt><trkpt lat="43.47249310376501" lon="11.985370061481383"><ele>870.0</ele><time>2026-04-12T10:46:26.999Z</time></trkpt><trkpt lat="43.47255639845876" lon="11.985290795245286"><ele>871.0000000000001</ele><time>2026-04-12T10:46:27.999Z</time></trkpt><trkpt lat="43.472600283384246" lon="11.985200007705828"><ele>872.0</ele><time>2026-04-12T10:46:28.999Z</time></trkpt><trkpt lat="43.47264343809974" lon="11.985090335437521"><ele>871.6666666666667</ele><time>2026-04-12T10:46:29.999Z</time></trkpt><trkpt lat="43.47268157067739" lon="11.98497729497159"><ele>871.3333333333334</ele><time>2026-04-12T10:46:30.999Z</time></trkpt><trkpt lat="43.47269362213171" lon="11.98487905469168"><ele>871.0</ele><time>2026-04-12T10:46:31.999Z</time></trkpt><trkpt lat="43.47271045301859" lon="11.98475788337173"><ele>870.6666666666667</ele><time>2026-04-12T10:46:32.999Z</time></trkpt><trkpt lat="43.47272371707205" lon="11.984643613318172"><ele>870.3333333333334</ele><time>2026-04-12T10:46:33.999Z</time></trkpt><trkpt lat="43.472730377116584" lon="11.98451121285022"><ele>870.0</ele><time>2026-04-12T10:46:34.999Z</time></trkpt><trkpt lat="43.47272075811961" lon="11.98438333652469"><ele>870.0</ele><time>2026-04-12T10:46:35.999Z</time></trkpt><trkpt lat="43.47269537013763" lon="11.984254399509483"><ele>870.0</ele><time>2026-04-12T10:46:36.999Z</time></trkpt><trkpt lat="43.47265807521739" lon="11.984115183666601"><ele>870.0</ele><time>2026-04-12T10:46:37.999Z</time></trkpt><trkpt lat="43.47261885578963" lon="11.983974670604333"><ele>870.0</ele><time>2026-04-12T10:46:38.999Z</time></trkpt><trkpt lat="43.472583119485186" lon="11.983833054278808"><ele>870.0</ele><time>2026-04-12T10:46:39.999Z</time></trkpt><trkpt lat="43.472543826677715" lon="11.983702409549924"><ele>871.2</ele><time>2026-04-12T10:46:40.999Z</time></trkpt><trkpt lat="43.4725056742706" lon="11.983587023218963"><ele>872.4</ele><time>2026-04-12T10:46:41.999Z</time></trkpt><trkpt lat="43.47248334168529" lon="11.983470288923083"><ele>873.5999999999999</ele><time>2026-04-12T10:46:42.999Z</time></trkpt><trkpt lat="43.47244413245184" lon="11.98334096706807"><ele>874.8</ele><time>2026-04-12T10:46:43.999Z</time></trkpt><trkpt lat="43.47239590070701" lon="11.983218604521"><ele>876.0</ele><time>2026-04-12T10:46:44.999Z</time></trkpt><trkpt lat="43.47233988845821" lon="11.983102162214271"><ele>874.1999999999999</ele><time>2026-04-12T10:46:45.999Z</time></trkpt><trkpt lat="43.47229591948964" lon="11.982982632346427"><ele>872.3999999999999</ele><time>2026-04-12T10:46:46.999Z</time></trkpt><trkpt lat="43.47225155487701" lon="11.982857058283045"><ele>870.6</ele><time>2026-04-12T10:46:47.999Z</time></trkpt><trkpt lat="43.472198471715544" lon="11.982738493280367"><ele>868.8</ele><time>2026-04-12T10:46:48.999Z</time></trkpt><trkpt lat="43.472118722439205" lon="11.982638556845343"><ele>867.0</ele><time>2026-04-12T10:46:49.999Z</time></trkpt><trkpt lat="43.472021430513884" lon="11.982578742323643"><ele>867.0</ele><time>2026-04-12T10:46:50.999Z</time></trkpt><trkpt lat="43.47191961461816" lon="11.98253827657636"><ele>867.0</ele><time>2026-04-12T10:46:51.999Z</time></trkpt><trkpt lat="43.47178750459714" lon="11.982471060551536"><ele>867.0</ele><time>2026-04-12T10:46:52.999Z</time></trkpt><trkpt lat="43.47167059191243" lon="11.982430600651627"><ele>867.0</ele><time>2026-04-12T10:46:53.999Z</time></trkpt><trkpt lat="43.47154449194376" lon="11.982391829653226"><ele>870.0</ele><time>2026-04-12T10:46:54.999Z</time></trkpt><trkpt lat="43.47144005844276" lon="11.982351498184105"><ele>873.0</ele><time>2026-04-12T10:46:55.998Z</time></trkpt><trkpt lat="43.471355113744636" lon="11.982289796452221"><ele>876.0</ele><time>2026-04-12T10:46:56.998Z</time></trkpt><trkpt lat="43.47127875382637" lon="11.982182485310641"><ele>879.0</ele><time>2026-04-12T10:46:57.998Z</time></trkpt><trkpt lat="43.471199837870394" lon="11.982056977484039"><ele>882.0</ele><time>2026-04-12T10:46:58.998Z</time></trkpt><trkpt lat="43.47114288579227" lon="11.981947487363591"><ele>882.0</ele><time>2026-04-12T10:46:59.998Z</time></trkpt><trkpt lat="43.4710931738095" lon="11.98183619523872"><ele>882.0</ele><time>2026-04-12T10:47:00.998Z</time></trkpt><trkpt lat="43.4711855664621" lon="11.98173059271334"><ele>882.0</ele><time>2026-04-12T10:47:02.998Z</time></trkpt><trkpt lat="43.47127321577604" lon="11.981716400610988"><ele>882.0</ele><time>2026-04-12T10:47:03.998Z</time></trkpt><trkpt lat="43.471376722637885" lon="11.981736487674898"><ele>882.0</ele><time>2026-04-12T10:47:04.998Z</time></trkpt><trkpt lat="43.471472557957135" lon="11.981738858325999"><ele>882.8</ele><time>2026-04-12T10:47:05.998Z</time></trkpt><trkpt lat="43.47157108595636" lon="11.981736441336162"><ele>883.6</ele><time>2026-04-12T10:47:06.998Z</time></trkpt><trkpt lat="43.47167298807716" lon="11.981706823046776"><ele>884.3999999999999</ele><time>2026-04-12T10:47:07.998Z</time></trkpt><trkpt lat="43.471782239533134" lon="11.981655333313144"><ele>885.1999999999999</ele><time>2026-04-12T10:47:08.998Z</time></trkpt><trkpt lat="43.471887699553434" lon="11.981614966055064"><ele>886.0</ele><time>2026-04-12T10:47:09.998Z</time></trkpt><trkpt lat="43.47198585515128" lon="11.981573338293071"><ele>889.1999999999999</ele><time>2026-04-12T10:47:10.998Z</time></trkpt><trkpt lat="43.47208407444282" lon="11.98152523656601"><ele>892.3999999999999</ele><time>2026-04-12T10:47:11.998Z</time></trkpt><trkpt lat="43.47218164502036" lon="11.981466824364327"><ele>895.6</ele><time>2026-04-12T10:47:12.998Z</time></trkpt><trkpt lat="43.47227590133562" lon="11.98142697043781"><ele>898.8</ele><time>2026-04-12T10:47:13.998Z</time></trkpt><trkpt lat="43.47235580060198" lon="11.981443305869877"><ele>902.0</ele><time>2026-04-12T10:47:15Z</time></trkpt><trkpt lat="43.472410630173684" lon="11.981520215932303"><ele>904.3333333333334</ele><time>2026-04-12T10:47:16Z</time></trkpt><trkpt lat="43.47243545895347" lon="11.98161219096392"><ele>906.6666666666667</ele><time>2026-04-12T10:47:17Z</time></trkpt><trkpt lat="43.47252597711111" lon="11.98168187298338"><ele>909.0</ele><time>2026-04-12T10:47:19Z</time></trkpt><trkpt lat="43.472579709226515" lon="11.981619386728568"><ele>911.3333333333333</ele><time>2026-04-12T10:47:20Z</time></trkpt><trkpt lat="43.472610219030514" lon="11.981522894768784"><ele>913.6666666666666</ele><time>2026-04-12T10:47:21Z</time></trkpt><trkpt lat="43.47261796532084" lon="11.981424019428788"><ele>916.0</ele><time>2026-04-12T10:47:22Z</time></trkpt><trkpt lat="43.47260998051826" lon="11.981305935504647"><ele>916.0</ele><time>2026-04-12T10:47:23Z</time></trkpt><trkpt lat="43.47259707520788" lon="11.981185487850878"><ele>915.9999999999999</ele><time>2026-04-12T10:47:24Z</time></trkpt><trkpt lat="43.472590832828466" lon="11.981057862206647"><ele>915.9999999999999</ele><time>2026-04-12T10:47:25Z</time></trkpt><trkpt lat="43.47256948778542" lon="11.980949714385353"><ele>916.0</ele><time>2026-04-12T10:47:26Z</time></trkpt><trkpt lat="43.472533766662465" lon="11.980833297929244"><ele>916.0</ele><time>2026-04-12T10:47:27Z</time></trkpt><trkpt lat="43.47247244456954" lon="11.980720311920853"><ele>917.5999999999999</ele><time>2026-04-12T10:47:28Z</time></trkpt><trkpt lat="43.4724112777103" lon="11.980615952348854"><ele>919.1999999999999</ele><time>2026-04-12T10:47:29Z</time></trkpt><trkpt lat="43.47235183803339" lon="11.980519131406238"><ele>920.8000000000001</ele><time>2026-04-12T10:47:30Z</time></trkpt><trkpt lat="43.47226031305954" lon="11.98036665530801"><ele>922.4000000000001</ele><time>2026-04-12T10:47:32Z</time></trkpt><trkpt lat="43.472204167536106" lon="11.980278769341878"><ele>924.0</ele><time>2026-04-12T10:47:33Z</time></trkpt><trkpt lat="43.472130159043964" lon="11.98018345469392"><ele>923.5</ele><time>2026-04-12T10:47:34Z</time></trkpt><trkpt lat="43.47207452083122" lon="11.980131654751503"><ele>923.0</ele><time>2026-04-12T10:47:35Z</time></trkpt><trkpt lat="43.47199500085322" lon="11.980076251248635"><ele>922.5</ele><time>2026-04-12T10:47:36Z</time></trkpt><trkpt lat="43.471911238419" lon="11.980032242147958"><ele>922.0</ele><time>2026-04-12T10:47:37Z</time></trkpt><trkpt lat="43.47181796333519" lon="11.980005573103757"><ele>921.5</ele><time>2026-04-12T10:47:38Z</time></trkpt><trkpt lat="43.47172781292382" lon="11.97999370879793"><ele>921.0</ele><time>2026-04-12T10:47:39Z</time></trkpt><trkpt lat="43.471636214358114" lon="11.979983208293989"><ele>923.5999999999999</ele><time>2026-04-12T10:47:40Z</time></trkpt><trkpt lat="43.47154194839267" lon="11.979965498161576"><ele>926.1999999999999</ele><time>2026-04-12T10:47:41Z</time></trkpt><trkpt lat="43.471446779876416" lon="11.979961352053106"><ele>928.8000000000001</ele><time>2026-04-12T10:47:42Z</time></trkpt><trkpt lat="43.471356284972174" lon="11.979965655120585"><ele>931.4000000000001</ele><time>2026-04-12T10:47:43Z</time></trkpt><trkpt lat="43.471261364355854" lon="11.979964040540658"><ele>934.0</ele><time>2026-04-12T10:47:44Z</time></trkpt><trkpt lat="43.47116988698694" lon="11.979950880572591"><ele>936.2</ele><time>2026-04-12T10:47:45Z</time></trkpt><trkpt lat="43.4710769364178" lon="11.979945477036182"><ele>938.4000000000001</ele><time>2026-04-12T10:47:46Z</time></trkpt><trkpt lat="43.4709709127731" lon="11.979952037548546"><ele>940.6</ele><time>2026-04-12T10:47:47Z</time></trkpt><trkpt lat="43.470870003214706" lon="11.97995775578342"><ele>942.8</ele><time>2026-04-12T10:47:48Z</time></trkpt><trkpt lat="43.470768534704305" lon="11.979959066624515"><ele>945.0</ele><time>2026-04-12T10:47:49Z</time></trkpt><trkpt lat="43.47066264487812" lon="11.979973759107693"><ele>945.0</ele><time>2026-04-12T10:47:50Z</time></trkpt><trkpt lat="43.47056060555822" lon="11.979974726352477"><ele>945.0</ele><time>2026-04-12T10:47:51Z</time></trkpt><trkpt lat="43.47047404088155" lon="11.979933384610078"><ele>945.0</ele><time>2026-04-12T10:47:52Z</time></trkpt><trkpt lat="43.47040745144677" lon="11.979859709810977"><ele>945.0</ele><time>2026-04-12T10:47:53Z</time></trkpt><trkpt lat="43.47033820848375" lon="11.979776971985727"><ele>945.0</ele><time>2026-04-12T10:47:54Z</time></trkpt><trkpt lat="43.47026460987646" lon="11.979682666987667"><ele>945.1666666666666</ele><time>2026-04-12T10:47:55Z</time></trkpt><trkpt lat="43.470196470789034" lon="11.979581738428422"><ele>945.3333333333333</ele><time>2026-04-12T10:47:56Z</time></trkpt><trkpt lat="43.47014645537529" lon="11.979486836036958"><ele>945.5</ele><time>2026-04-12T10:47:57Z</time></trkpt><trkpt lat="43.47007873765102" lon="11.979396978714263"><ele>945.6666666666666</ele><time>2026-04-12T10:47:58.999Z</time></trkpt><trkpt lat="43.47001602892933" lon="11.979423935130338"><ele>945.8333333333333</ele><time>2026-04-12T10:48:01.999Z</time></trkpt><trkpt lat="43.469942134891696" lon="11.979386294477381"><ele>946.0</ele><time>2026-04-12T10:48:34.999Z</time></trkpt><trkpt lat="43.46987694565795" lon="11.97938668807202"><ele>945.9999999999999</ele><time>2026-04-12T10:48:36.999Z</time></trkpt><trkpt lat="43.46977397879561" lon="11.979341445165321"><ele>946.0</ele><time>2026-04-12T10:48:38.999Z</time></trkpt><trkpt lat="43.469709878856136" lon="11.979291434433161"><ele>946.0</ele><time>2026-04-12T10:48:39.999Z</time></trkpt><trkpt lat="43.469650586793456" lon="11.979258386850368"><ele>946.0</ele><time>2026-04-12T10:48:40.999Z</time></trkpt><trkpt lat="43.46954803756018" lon="11.979222451393886"><ele>945.9999999999999</ele><time>2026-04-12T10:48:42.999Z</time></trkpt><trkpt lat="43.469466821962534" lon="11.979184519936958"><ele>946.0</ele><time>2026-04-12T10:48:44.999Z</time></trkpt><trkpt lat="43.46938007509291" lon="11.979163543356844"><ele>946.1999999999999</ele><time>2026-04-12T10:48:46.999Z</time></trkpt><trkpt lat="43.469269352584654" lon="11.979138764872486"><ele>946.3999999999999</ele><time>2026-04-12T10:48:48.999Z</time></trkpt><trkpt lat="43.46914609862246" lon="11.979168747630691"><ele>946.6</ele><time>2026-04-12T10:48:50.999Z</time></trkpt><trkpt lat="43.4690799122717" lon="11.979223312665825"><ele>946.8</ele><time>2026-04-12T10:48:51.999Z</time></trkpt><trkpt lat="43.46900914749969" lon="11.979275076139531"><ele>947.0</ele><time>2026-04-12T10:48:52.999Z</time></trkpt><trkpt lat="43.46893920782119" lon="11.979302882817992"><ele>947.0</ele><time>2026-04-12T10:48:53.999Z</time></trkpt><trkpt lat="43.4688729918659" lon="11.979333881204303"><ele>947.0</ele><time>2026-04-12T10:48:55.999Z</time></trkpt><trkpt lat="43.46874287246206" lon="11.979403481043704"><ele>947.0</ele><time>2026-04-12T10:49:13.998Z</time></trkpt><trkpt lat="43.46865673009562" lon="11.979458018437676"><ele>947.0</ele><time>2026-04-12T10:49:14.998Z</time></trkpt><trkpt lat="43.468579144006426" lon="11.979525718233363"><ele>947.0</ele><time>2026-04-12T10:49:15.998Z</time></trkpt><trkpt lat="43.468523781280595" lon="11.979611552143593"><ele>948.6</ele><time>2026-04-12T10:49:16.998Z</time></trkpt><trkpt lat="43.468455615288825" lon="11.979703608835594"><ele>950.2</ele><time>2026-04-12T10:49:17.998Z</time></trkpt><trkpt lat="43.46838431252809" lon="11.979805074949592"><ele>951.8</ele><time>2026-04-12T10:49:18.998Z</time></trkpt><trkpt lat="43.468307064864874" lon="11.979917443899248"><ele>953.4</ele><time>2026-04-12T10:49:19.998Z</time></trkpt><trkpt lat="43.46822459549211" lon="11.980010129206335"><ele>955.0</ele><time>2026-04-12T10:49:21Z</time></trkpt><trkpt lat="43.46813631127248" lon="11.98009943825735"><ele>955.0</ele><time>2026-04-12T10:49:22Z</time></trkpt><trkpt lat="43.468041744620976" lon="11.980205092546019"><ele>955.0</ele><time>2026-04-12T10:49:23Z</time></trkpt><trkpt lat="43.4679505684611" lon="11.980324499890537"><ele>955.0</ele><time>2026-04-12T10:49:24Z</time></trkpt><trkpt lat="43.46785005841944" lon="11.980453101004262"><ele>955.0</ele><time>2026-04-12T10:49:25Z</time></trkpt><trkpt lat="43.46775349783071" lon="11.9805661310033"><ele>955.8333333333333</ele><time>2026-04-12T10:49:26Z</time></trkpt><trkpt lat="43.46767609438629" lon="11.980639020272356"><ele>956.6666666666666</ele><time>2026-04-12T10:49:27Z</time></trkpt><trkpt lat="43.46761391535283" lon="11.98067320313075"><ele>957.5</ele><time>2026-04-12T10:49:28Z</time></trkpt><trkpt lat="43.46749146263533" lon="11.980671495044648"><ele>958.3333333333333</ele><time>2026-04-12T10:49:30Z</time></trkpt><trkpt lat="43.46742102119325" lon="11.980641099267517"><ele>959.1666666666666</ele><time>2026-04-12T10:49:31Z</time></trkpt><trkpt lat="43.46733695794246" lon="11.980607121417526"><ele>960.0</ele><time>2026-04-12T10:49:32Z</time></trkpt><trkpt lat="43.46724611231008" lon="11.9805773357078"><ele>960.0</ele><time>2026-04-12T10:49:33Z</time></trkpt><trkpt lat="43.467181861078835" lon="11.980561132813294"><ele>960.0</ele><time>2026-04-12T10:49:34Z</time></trkpt><trkpt lat="43.467056782457306" lon="11.980579467048482"><ele>960.0</ele><time>2026-04-12T10:49:36Z</time></trkpt><trkpt lat="43.46699007423597" lon="11.980607742074541"><ele>960.0</ele><time>2026-04-12T10:49:37Z</time></trkpt><trkpt lat="43.4669177038224" lon="11.980643436684758"><ele>960.0</ele><time>2026-04-12T10:49:38Z</time></trkpt><trkpt lat="43.46684472294945" lon="11.980690049511345"><ele>960.0</ele><time>2026-04-12T10:49:39Z</time></trkpt><trkpt lat="43.46674452609393" lon="11.980770187846408"><ele>958.2</ele><time>2026-04-12T10:49:40Z</time></trkpt><trkpt lat="43.46664943863181" lon="11.980838125075726"><ele>956.4</ele><time>2026-04-12T10:49:41Z</time></trkpt><trkpt lat="43.46655699189541" lon="11.980887095949514"><ele>954.5999999999999</ele><time>2026-04-12T10:49:42Z</time></trkpt><trkpt lat="43.46646008745729" lon="11.980946126095255"><ele>952.8</ele><time>2026-04-12T10:49:43Z</time></trkpt><trkpt lat="43.46637673898886" lon="11.981003383617036"><ele>951.0</ele><time>2026-04-12T10:49:44Z</time></trkpt><trkpt lat="43.46625492922264" lon="11.981032267479387"><ele>949.8</ele><time>2026-04-12T10:49:46Z</time></trkpt><trkpt lat="43.46616712691157" lon="11.981020179196147"><ele>948.5999999999999</ele><time>2026-04-12T10:49:47Z</time></trkpt><trkpt lat="43.46606292139139" lon="11.981026325367038"><ele>947.4</ele><time>2026-04-12T10:49:48Z</time></trkpt><trkpt lat="43.46594818584735" lon="11.981041732896072"><ele>946.2</ele><time>2026-04-12T10:49:49Z</time></trkpt><trkpt lat="43.465840776623935" lon="11.9810525230305"><ele>945.0</ele><time>2026-04-12T10:49:50Z</time></trkpt><trkpt lat="43.46572681047929" lon="11.981044025652364"><ele>945.0</ele><time>2026-04-12T10:49:51Z</time></trkpt><trkpt lat="43.465615508250956" lon="11.98104347030756"><ele>945.0</ele><time>2026-04-12T10:49:52Z</time></trkpt><trkpt lat="43.46549680485166" lon="11.981051541512326"><ele>945.0</ele><time>2026-04-12T10:49:53Z</time></trkpt><trkpt lat="43.46538055041164" lon="11.98105069928827"><ele>945.0</ele><time>2026-04-12T10:49:54Z</time></trkpt><trkpt lat="43.46528382937989" lon="11.981032098608607"><ele>945.0</ele><time>2026-04-12T10:49:55Z</time></trkpt><trkpt lat="43.46518807873189" lon="11.980996596038098"><ele>944.0</ele><time>2026-04-12T10:49:56Z</time></trkpt><trkpt lat="43.46508212607272" lon="11.980952432725893"><ele>943.0</ele><time>2026-04-12T10:49:57Z</time></trkpt><trkpt lat="43.46496303402574" lon="11.98093217145496"><ele>942.0</ele><time>2026-04-12T10:49:58Z</time></trkpt><trkpt lat="43.46484808985313" lon="11.98090173801928"><ele>941.0</ele><time>2026-04-12T10:49:59Z</time></trkpt><trkpt lat="43.4647506023742" lon="11.980854134173939"><ele>940.1999999999999</ele><time>2026-04-12T10:50:00Z</time></trkpt><trkpt lat="43.464656873726184" lon="11.980812204506362"><ele>939.3999999999999</ele><time>2026-04-12T10:50:01Z</time></trkpt><trkpt lat="43.46456099665123" lon="11.980796413959881"><ele>938.6</ele><time>2026-04-12T10:50:02Z</time></trkpt><trkpt lat="43.46448405658161" lon="11.980799433266473"><ele>937.8</ele><time>2026-04-12T10:50:03Z</time></trkpt><trkpt lat="43.464409259353886" lon="11.980811213753766"><ele>937.0</ele><time>2026-04-12T10:50:04Z</time></trkpt><trkpt lat="43.4642916833432" lon="11.980835349453281"><ele>934.6</ele><time>2026-04-12T10:50:06Z</time></trkpt><trkpt lat="43.464227656163786" lon="11.980838338002679"><ele>932.2</ele><time>2026-04-12T10:50:06.999Z</time></trkpt><trkpt lat="43.464129355706326" lon="11.98089124796292"><ele>929.8</ele><time>2026-04-12T10:50:08.999Z</time></trkpt><trkpt lat="43.46405430399364" lon="11.980992152449677"><ele>927.4</ele><time>2026-04-12T10:50:10.999Z</time></trkpt><trkpt lat="43.4639159218054" lon="11.981021850381616"><ele>925.0</ele><time>2026-04-12T10:50:12.999Z</time></trkpt><trkpt lat="43.46381488321241" lon="11.981047524278932"><ele>920.8</ele><time>2026-04-12T10:50:13.999Z</time></trkpt><trkpt lat="43.463697432348894" lon="11.98106696365151"><ele>916.6</ele><time>2026-04-12T10:50:14.999Z</time></trkpt><trkpt lat="43.46359201329038" lon="11.98107555923931"><ele>912.4000000000001</ele><time>2026-04-12T10:50:15.999Z</time></trkpt><trkpt lat="43.46350790468003" lon="11.981093125767593"><ele>908.2</ele><time>2026-04-12T10:50:16.999Z</time></trkpt><trkpt lat="43.46341682557047" lon="11.98110796390968"><ele>904.0</ele><time>2026-04-12T10:50:17.999Z</time></trkpt><trkpt lat="43.46332992936815" lon="11.981109013163902"><ele>904.0</ele><time>2026-04-12T10:50:18.999Z</time></trkpt><trkpt lat="43.46323978322742" lon="11.981111078916122"><ele>904.0000000000001</ele><time>2026-04-12T10:50:19.999Z</time></trkpt><trkpt lat="43.46317069624209" lon="11.981115606054104"><ele>904.0000000000001</ele><time>2026-04-12T10:50:20.999Z</time></trkpt><trkpt lat="43.463057526025736" lon="11.981120233531168"><ele>904.0</ele><time>2026-04-12T10:50:22.999Z</time></trkpt><trkpt lat="43.46295955302596" lon="11.981036399493817"><ele>904.0</ele><time>2026-04-12T10:50:24.999Z</time></trkpt><trkpt lat="43.462901903165545" lon="11.980976722411777"><ele>899.4000000000001</ele><time>2026-04-12T10:50:25.999Z</time></trkpt><trkpt lat="43.462830186000666" lon="11.980933315067656"><ele>894.8000000000001</ele><time>2026-04-12T10:50:26.999Z</time></trkpt><trkpt lat="43.4627298644186" lon="11.980904155786833"><ele>890.1999999999999</ele><time>2026-04-12T10:50:28.999Z</time></trkpt><trkpt lat="43.46259910209199" lon="11.980976398519827"><ele>885.5999999999999</ele><time>2026-04-12T10:50:30.999Z</time></trkpt><trkpt lat="43.462529186779555" lon="11.980974158889012"><ele>881.0</ele><time>2026-04-12T10:50:31.999Z</time></trkpt><trkpt lat="43.46244876644413" lon="11.98090928692863"><ele>882.0000000000001</ele><time>2026-04-12T10:50:32.999Z</time></trkpt><trkpt lat="43.46237123433323" lon="11.980835512747817"><ele>883.0</ele><time>2026-04-12T10:50:33.999Z</time></trkpt><trkpt lat="43.462306781759175" lon="11.9807852453493"><ele>884.0</ele><time>2026-04-12T10:50:34.999Z</time></trkpt><trkpt lat="43.46222289313413" lon="11.980720342525641"><ele>885.0</ele><time>2026-04-12T10:50:35.999Z</time></trkpt><trkpt lat="43.46215848485689" lon="11.980688077867654"><ele>886.0000000000001</ele><time>2026-04-12T10:50:36.999Z</time></trkpt><trkpt lat="43.46208807192154" lon="11.980651205350524"><ele>887.0</ele><time>2026-04-12T10:50:37.999Z</time></trkpt><trkpt lat="43.46202796927648" lon="11.980618105511384"><ele>887.0000000000001</ele><time>2026-04-12T10:50:38.999Z</time></trkpt><trkpt lat="43.46192633556289" lon="11.980572202120747"><ele>887.0</ele><time>2026-04-12T10:50:40.999Z</time></trkpt><trkpt lat="43.46185792183759" lon="11.980573906529756"><ele>887.0</ele><time>2026-04-12T10:50:41.999Z</time></trkpt><trkpt lat="43.46178997435787" lon="11.98059480090221"><ele>887.0</ele><time>2026-04-12T10:50:42.999Z</time></trkpt><trkpt lat="43.461726537276924" lon="11.980623376727259"><ele>887.0000000000001</ele><time>2026-04-12T10:50:43.999Z</time></trkpt><trkpt lat="43.46165354748577" lon="11.980589319148962"><ele>887.0</ele><time>2026-04-12T10:50:45.999Z</time></trkpt><trkpt lat="43.46153941472711" lon="11.980582344773703"><ele>887.0</ele><time>2026-04-12T10:50:47.999Z</time></trkpt><trkpt lat="43.461449334391" lon="11.980622037125169"><ele>887.0</ele><time>2026-04-12T10:50:49.999Z</time></trkpt><trkpt lat="43.46139402012096" lon="11.980755227041689"><ele>887.0</ele><time>2026-04-12T10:50:51.999Z</time></trkpt><trkpt lat="43.46127789518725" lon="11.98084690651208"><ele>887.0</ele><time>2026-04-12T10:50:53.999Z</time></trkpt><trkpt lat="43.46119255743753" lon="11.980840125410802"><ele>887.0</ele><time>2026-04-12T10:50:54.999Z</time></trkpt><trkpt lat="43.46112528198919" lon="11.980836935176482"><ele>884.4000000000001</ele><time>2026-04-12T10:50:55.999Z</time></trkpt><trkpt lat="43.46102622734445" lon="11.980830909576964"><ele>881.8000000000001</ele><time>2026-04-12T10:50:57.999Z</time></trkpt><trkpt lat="43.46096431414795" lon="11.98081073048448"><ele>879.2</ele><time>2026-04-12T10:50:58.999Z</time></trkpt><trkpt lat="43.460854439105034" lon="11.980746689598593"><ele>876.6</ele><time>2026-04-12T10:51:00.999Z</time></trkpt><trkpt lat="43.46075325443548" lon="11.980735252820402"><ele>874.0</ele><time>2026-04-12T10:51:02.999Z</time></trkpt><trkpt lat="43.460650559294656" lon="11.980762311199129"><ele>873.9999999999999</ele><time>2026-04-12T10:51:04.999Z</time></trkpt><trkpt lat="43.46057204773325" lon="11.980826305851762"><ele>874.0</ele><time>2026-04-12T10:51:06.999Z</time></trkpt><trkpt lat="43.46049492550739" lon="11.980838052282042"><ele>874.0</ele><time>2026-04-12T10:51:08.998Z</time></trkpt><trkpt lat="43.46041536964371" lon="11.980809941425788"><ele>874.0</ele><time>2026-04-12T10:51:10.998Z</time></trkpt><trkpt lat="43.460330885166655" lon="11.980770476059966"><ele>873.9999999999999</ele><time>2026-04-12T10:51:12.998Z</time></trkpt><trkpt lat="43.46022792361931" lon="11.98081734711332"><ele>874.0</ele><time>2026-04-12T10:51:14.998Z</time></trkpt><trkpt lat="43.460117891221024" lon="11.980891934588556"><ele>869.2</ele><time>2026-04-12T10:51:16.998Z</time></trkpt><trkpt lat="43.459995843810326" lon="11.98089996333443"><ele>864.4000000000001</ele><time>2026-04-12T10:51:18.998Z</time></trkpt><trkpt lat="43.45988990231502" lon="11.980826539401155"><ele>859.6</ele><time>2026-04-12T10:51:20.998Z</time></trkpt><trkpt lat="43.4597773798854" lon="11.980905912485628"><ele>854.8</ele><time>2026-04-12T10:51:22.998Z</time></trkpt><trkpt lat="43.45972401448969" lon="11.980957526586009"><ele>850.0</ele><time>2026-04-12T10:51:23.998Z</time></trkpt><trkpt lat="43.45961600842914" lon="11.98104901548357"><ele>847.3333333333333</ele><time>2026-04-12T10:51:25.998Z</time></trkpt><trkpt lat="43.45956789699688" lon="11.98111152420043"><ele>844.6666666666666</ele><time>2026-04-12T10:51:27Z</time></trkpt><trkpt lat="43.45948234926678" lon="11.981182363073163"><ele>842.0</ele><time>2026-04-12T10:51:29Z</time></trkpt><trkpt lat="43.45942503905856" lon="11.981222803346089"><ele>839.3333333333333</ele><time>2026-04-12T10:51:30Z</time></trkpt><trkpt lat="43.45935440635464" lon="11.9812339054334"><ele>836.6666666666666</ele><time>2026-04-12T10:51:31Z</time></trkpt><trkpt lat="43.45926198219228" lon="11.98122608718871"><ele>834.0</ele><time>2026-04-12T10:51:32Z</time></trkpt><trkpt lat="43.45915096623024" lon="11.9812233669908"><ele>834.0</ele><time>2026-04-12T10:51:33Z</time></trkpt><trkpt lat="43.4590524068027" lon="11.98124665547384"><ele>834.0</ele><time>2026-04-12T10:51:34Z</time></trkpt><trkpt lat="43.45894377089453" lon="11.981268520590003"><ele>834.0</ele><time>2026-04-12T10:51:35Z</time></trkpt><trkpt lat="43.45883317168583" lon="11.981289492478513"><ele>834.0</ele><time>2026-04-12T10:51:36Z</time></trkpt><trkpt lat="43.45873178157518" lon="11.98133265419945"><ele>834.0</ele><time>2026-04-12T10:51:37Z</time></trkpt><trkpt lat="43.45861368195431" lon="11.981369647432006"><ele>833.6</ele><time>2026-04-12T10:51:38Z</time></trkpt><trkpt lat="43.45850555376014" lon="11.981395081718597"><ele>833.2</ele><time>2026-04-12T10:51:39Z</time></trkpt><trkpt lat="43.45840893275977" lon="11.981408441151752"><ele>832.8000000000001</ele><time>2026-04-12T10:51:40Z</time></trkpt><trkpt lat="43.45831666408789" lon="11.981442506421903"><ele>832.4000000000001</ele><time>2026-04-12T10:51:41Z</time></trkpt><trkpt lat="43.45823547657472" lon="11.981489758466974"><ele>832.0</ele><time>2026-04-12T10:51:42Z</time></trkpt><trkpt lat="43.45816872370701" lon="11.981534586172284"><ele>831.9999999999999</ele><time>2026-04-12T10:51:43Z</time></trkpt><trkpt lat="43.45808869129206" lon="11.981582083949553"><ele>832.0</ele><time>2026-04-12T10:51:44Z</time></trkpt><trkpt lat="43.458008209545376" lon="11.981636017321796"><ele>832.0</ele><time>2026-04-12T10:51:45Z</time></trkpt><trkpt lat="43.457929477144404" lon="11.981686178781487"><ele>832.0</ele><time>2026-04-12T10:51:46Z</time></trkpt><trkpt lat="43.457872083524656" lon="11.981756874211717"><ele>831.9999999999999</ele><time>2026-04-12T10:51:47Z</time></trkpt><trkpt lat="43.45782469717535" lon="11.98185076563291"><ele>832.0</ele><time>2026-04-12T10:51:48Z</time></trkpt><trkpt lat="43.45777884975472" lon="11.981936968141484"><ele>830.1666666666666</ele><time>2026-04-12T10:51:49Z</time></trkpt><trkpt lat="43.457722769887674" lon="11.982021879339591"><ele>828.3333333333333</ele><time>2026-04-12T10:51:50Z</time></trkpt><trkpt lat="43.457659425275324" lon="11.982085185495471"><ele>826.5</ele><time>2026-04-12T10:51:51Z</time></trkpt><trkpt lat="43.45758193697087" lon="11.982140757956467"><ele>824.6666666666667</ele><time>2026-04-12T10:51:52Z</time></trkpt><trkpt lat="43.45749713776078" lon="11.982197509781502"><ele>822.8333333333334</ele><time>2026-04-12T10:51:53Z</time></trkpt><trkpt lat="43.45741834728187" lon="11.982267972153466"><ele>821.0</ele><time>2026-04-12T10:51:54Z</time></trkpt><trkpt lat="43.4573470476226" lon="11.982326168261777"><ele>821.0</ele><time>2026-04-12T10:51:55Z</time></trkpt><trkpt lat="43.45726985630218" lon="11.982381592446602"><ele>821.0</ele><time>2026-04-12T10:51:56Z</time></trkpt><trkpt lat="43.4571913375877" lon="11.982421577201444"><ele>821.0</ele><time>2026-04-12T10:51:57Z</time></trkpt><trkpt lat="43.457077384085586" lon="11.982413988052556"><ele>821.0</ele><time>2026-04-12T10:51:58Z</time></trkpt><trkpt lat="43.456970621910244" lon="11.98240909336715"><ele>821.0</ele><time>2026-04-12T10:51:59Z</time></trkpt><trkpt lat="43.45689181853145" lon="11.982370225781954"><ele>819.3333333333334</ele><time>2026-04-12T10:52:00Z</time></trkpt><trkpt lat="43.45682301325539" lon="11.982319788318518"><ele>817.6666666666667</ele><time>2026-04-12T10:52:01Z</time></trkpt><trkpt lat="43.456713665412416" lon="11.982210841954112"><ele>816.0</ele><time>2026-04-12T10:52:03Z</time></trkpt><trkpt lat="43.45665049971655" lon="11.98216094283851"><ele>814.3333333333333</ele><time>2026-04-12T10:52:04Z</time></trkpt><trkpt lat="43.45657988942166" lon="11.982115538162772"><ele>812.6666666666666</ele><time>2026-04-12T10:52:06Z</time></trkpt><trkpt lat="43.45653568534802" lon="11.982048023274595"><ele>811.0</ele><time>2026-04-12T10:52:09Z</time></trkpt><trkpt lat="43.45647920437013" lon="11.981986986929236"><ele>811.0</ele><time>2026-04-12T10:52:11.999Z</time></trkpt><trkpt lat="43.45642356972759" lon="11.981902229020566"><ele>811.0</ele><time>2026-04-12T10:52:13.999Z</time></trkpt><trkpt lat="43.45633323906794" lon="11.981805334685866"><ele>811.0</ele><time>2026-04-12T10:52:15.999Z</time></trkpt><trkpt lat="43.45624698553556" lon="11.98172539658605"><ele>811.0</ele><time>2026-04-12T10:52:17.999Z</time></trkpt><trkpt lat="43.45616577022605" lon="11.981725872464164"><ele>811.0</ele><time>2026-04-12T10:52:19.999Z</time></trkpt><trkpt lat="43.45609747927824" lon="11.98164669877092"><ele>806.8</ele><time>2026-04-12T10:52:21.999Z</time></trkpt><trkpt lat="43.456028503938875" lon="11.981541688470433"><ele>802.5999999999999</ele><time>2026-04-12T10:52:23.999Z</time></trkpt><trkpt lat="43.45593894218596" lon="11.981464967681251"><ele>798.4</ele><time>2026-04-12T10:52:25.999Z</time></trkpt><trkpt lat="43.45585227841101" lon="11.981436740742325"><ele>794.2</ele><time>2026-04-12T10:52:27.999Z</time></trkpt><trkpt lat="43.455768632458835" lon="11.981307875465882"><ele>790.0</ele><time>2026-04-12T10:52:29.999Z</time></trkpt><trkpt lat="43.45573016095424" lon="11.981218998664888"><ele>789.9999999999999</ele><time>2026-04-12T10:52:30.999Z</time></trkpt><trkpt lat="43.45568490769014" lon="11.981142284532808"><ele>790.0</ele><time>2026-04-12T10:52:31.999Z</time></trkpt><trkpt lat="43.45562983679085" lon="11.981064692646104"><ele>790.0</ele><time>2026-04-12T10:52:32.999Z</time></trkpt><trkpt lat="43.45557586070944" lon="11.980968283279099"><ele>790.0</ele><time>2026-04-12T10:52:33.999Z</time></trkpt><trkpt lat="43.455515452794" lon="11.980809559497988"><ele>789.9999999999999</ele><time>2026-04-12T10:52:35.999Z</time></trkpt><trkpt lat="43.45547418474324" lon="11.980728234905564"><ele>790.0</ele><time>2026-04-12T10:52:36.999Z</time></trkpt><trkpt lat="43.45543819264116" lon="11.98065303806922"><ele>786.4285714285714</ele><time>2026-04-12T10:52:37.999Z</time></trkpt><trkpt lat="43.455396337094776" lon="11.980579156070826"><ele>782.8571428571429</ele><time>2026-04-12T10:52:38.999Z</time></trkpt><trkpt lat="43.45535040338889" lon="11.980509071287347"><ele>779.2857142857143</ele><time>2026-04-12T10:52:39.999Z</time></trkpt><trkpt lat="43.45530874743381" lon="11.98043679946343"><ele>775.7142857142858</ele><time>2026-04-12T10:52:40.999Z</time></trkpt><trkpt lat="43.455265453893645" lon="11.980349128398156"><ele>772.1428571428571</ele><time>2026-04-12T10:52:41.999Z</time></trkpt><trkpt lat="43.45521696435126" lon="11.980252054777885"><ele>768.5714285714287</ele><time>2026-04-12T10:52:42.999Z</time></trkpt><trkpt lat="43.455181900392944" lon="11.98017310944211"><ele>765.0</ele><time>2026-04-12T10:52:43.999Z</time></trkpt><trkpt lat="43.45514948142605" lon="11.980072446706087"><ele>764.5</ele><time>2026-04-12T10:52:44.999Z</time></trkpt><trkpt lat="43.45511489083998" lon="11.97998131449513"><ele>764.0</ele><time>2026-04-12T10:52:45.999Z</time></trkpt><trkpt lat="43.45507812789369" lon="11.979899634761694"><ele>763.5</ele><time>2026-04-12T10:52:46.999Z</time></trkpt><trkpt lat="43.455039457112576" lon="11.979823927315815"><ele>763.0</ele><time>2026-04-12T10:52:47.999Z</time></trkpt><trkpt lat="43.454997999153946" lon="11.97974522673262"><ele>762.5</ele><time>2026-04-12T10:52:48.999Z</time></trkpt><trkpt lat="43.45496951741112" lon="11.979662489832574"><ele>762.0</ele><time>2026-04-12T10:52:49.999Z</time></trkpt><trkpt lat="43.454976594305634" lon="11.979493378104962"><ele>762.0</ele><time>2026-04-12T10:52:51.999Z</time></trkpt><trkpt lat="43.45489565182116" lon="11.979379696015688"><ele>762.0</ele><time>2026-04-12T10:52:53.999Z</time></trkpt><trkpt lat="43.45483890214988" lon="11.979224161306176"><ele>762.0</ele><time>2026-04-12T10:52:55.999Z</time></trkpt><trkpt lat="43.45479065422846" lon="11.979081610435308"><ele>762.0</ele><time>2026-04-12T10:52:57.999Z</time></trkpt><trkpt lat="43.45477223204807" lon="11.978956118091817"><ele>762.0</ele><time>2026-04-12T10:52:59.999Z</time></trkpt><trkpt lat="43.45472542700155" lon="11.978882581788227"><ele>759.6</ele><time>2026-04-12T10:53:02.999Z</time></trkpt><trkpt lat="43.45468177534593" lon="11.978805598480385"><ele>757.2</ele><time>2026-04-12T10:53:05.999Z</time></trkpt><trkpt lat="43.45476810312544" lon="11.978759965855886"><ele>754.8</ele><time>2026-04-12T10:53:15.998Z</time></trkpt><trkpt lat="43.45487227439725" lon="11.978761452293854"><ele>752.4</ele><time>2026-04-12T10:53:17.998Z</time></trkpt><trkpt lat="43.454969551568375" lon="11.978772256575592"><ele>750.0</ele><time>2026-04-12T10:53:19.998Z</time></trkpt><trkpt lat="43.45505846302226" lon="11.978796235848135"><ele>750.0</ele><time>2026-04-12T10:53:21.998Z</time></trkpt><trkpt lat="43.45514505181224" lon="11.978721573952875"><ele>750.0</ele><time>2026-04-12T10:53:23.998Z</time></trkpt><trkpt lat="43.455194161287054" lon="11.978652099027006"><ele>750.0</ele><time>2026-04-12T10:53:24.998Z</time></trkpt><trkpt lat="43.455228280507214" lon="11.978579144245751"><ele>750.0</ele><time>2026-04-12T10:53:25.998Z</time></trkpt><trkpt lat="43.455250347221856" lon="11.978476012675007"><ele>750.0</ele><time>2026-04-12T10:53:26.998Z</time></trkpt><trkpt lat="43.4552804704583" lon="11.978389367782126"><ele>750.0</ele><time>2026-04-12T10:53:27.998Z</time></trkpt><trkpt lat="43.4553456463181" lon="11.978330940143259"><ele>750.4</ele><time>2026-04-12T10:53:29.998Z</time></trkpt><trkpt lat="43.455383995116705" lon="11.978240090141526"><ele>750.8</ele><time>2026-04-12T10:53:31.998Z</time></trkpt><trkpt lat="43.45544801886466" lon="11.978168714155077"><ele>751.2</ele><time>2026-04-12T10:53:33Z</time></trkpt><trkpt lat="43.4555304951747" lon="11.978170857242342"><ele>751.6</ele><time>2026-04-12T10:53:35Z</time></trkpt><trkpt lat="43.455622111723514" lon="11.978268779895998"><ele>752.0</ele><time>2026-04-12T10:53:37Z</time></trkpt><trkpt lat="43.45570919360635" lon="11.978373832825802"><ele>752.0</ele><time>2026-04-12T10:53:39Z</time></trkpt><trkpt lat="43.45577172557883" lon="11.978396116510684"><ele>752.0</ele><time>2026-04-12T10:53:40Z</time></trkpt><trkpt lat="43.455882336462466" lon="11.978314385533496"><ele>752.0</ele><time>2026-04-12T10:53:42Z</time></trkpt><trkpt lat="43.45599207815558" lon="11.978246195707724"><ele>752.0</ele><time>2026-04-12T10:53:44Z</time></trkpt><trkpt lat="43.456079992387586" lon="11.978232574875605"><ele>752.0</ele><time>2026-04-12T10:53:46Z</time></trkpt><trkpt lat="43.45607588547855" lon="11.978105031122"><ele>748.8333333333333</ele><time>2026-04-12T10:53:48Z</time></trkpt><trkpt lat="43.456041929805814" lon="11.978024484505681"><ele>745.6666666666666</ele><time>2026-04-12T10:53:49Z</time></trkpt><trkpt lat="43.45599328061643" lon="11.97788016909684"><ele>742.5</ele><time>2026-04-12T10:53:51Z</time></trkpt><trkpt lat="43.45598559156251" lon="11.977759262348187"><ele>739.3333333333334</ele><time>2026-04-12T10:53:52Z</time></trkpt><trkpt lat="43.45595482126519" lon="11.977640376335136"><ele>736.1666666666667</ele><time>2026-04-12T10:53:53Z</time></trkpt><trkpt lat="43.45593508281943" lon="11.97752481310506"><ele>733.0</ele><time>2026-04-12T10:53:54Z</time></trkpt><trkpt lat="43.45593892125779" lon="11.977435482867508"><ele>729.5999999999999</ele><time>2026-04-12T10:53:55Z</time></trkpt><trkpt lat="43.45597534450187" lon="11.977267549209012"><ele>726.1999999999999</ele><time>2026-04-12T10:53:57Z</time></trkpt><trkpt lat="43.456004222542425" lon="11.977139330637916"><ele>722.8</ele><time>2026-04-12T10:53:58Z</time></trkpt><trkpt lat="43.456014086372456" lon="11.977043135699603"><ele>719.4</ele><time>2026-04-12T10:53:59Z</time></trkpt><trkpt lat="43.45609707735535" lon="11.976930017271036"><ele>716.0</ele><time>2026-04-12T10:54:01Z</time></trkpt><trkpt lat="43.4561701598561" lon="11.976871223649853"><ele>716.0</ele><time>2026-04-12T10:54:02Z</time></trkpt><trkpt lat="43.45625638638455" lon="11.976824191139961"><ele>716.0</ele><time>2026-04-12T10:54:03Z</time></trkpt><trkpt lat="43.4563482252032" lon="11.976803544205824"><ele>716.0</ele><time>2026-04-12T10:54:04Z</time></trkpt><trkpt lat="43.45643823452105" lon="11.97677274464155"><ele>716.0</ele><time>2026-04-12T10:54:05Z</time></trkpt><trkpt lat="43.45650643894809" lon="11.976716382931091"><ele>716.0</ele><time>2026-04-12T10:54:06Z</time></trkpt><trkpt lat="43.456591558383735" lon="11.976639190869385"><ele>716.8333333333333</ele><time>2026-04-12T10:54:08Z</time></trkpt><trkpt lat="43.45658168253567" lon="11.976512531070126"><ele>717.6666666666666</ele><time>2026-04-12T10:54:10Z</time></trkpt><trkpt lat="43.45656408020871" lon="11.976420629353505"><ele>718.5</ele><time>2026-04-12T10:54:11Z</time></trkpt><trkpt lat="43.45657364350527" lon="11.976300194301917"><ele>719.3333333333334</ele><time>2026-04-12T10:54:12Z</time></trkpt><trkpt lat="43.456586837164615" lon="11.976196325340023"><ele>720.1666666666667</ele><time>2026-04-12T10:54:13Z</time></trkpt><trkpt lat="43.4566150343657" lon="11.976110665391616"><ele>721.0</ele><time>2026-04-12T10:54:14Z</time></trkpt><trkpt lat="43.456727250223786" lon="11.976026485840118"><ele>721.0</ele><time>2026-04-12T10:54:15.999Z</time></trkpt><trkpt lat="43.4567900896247" lon="11.975980822430081"><ele>721.0</ele><time>2026-04-12T10:54:16.999Z</time></trkpt><trkpt lat="43.45683411159481" lon="11.975905045143207"><ele>721.0</ele><time>2026-04-12T10:54:17.999Z</time></trkpt><trkpt lat="43.45685506304494" lon="11.975804660836141"><ele>721.0</ele><time>2026-04-12T10:54:18.999Z</time></trkpt><trkpt lat="43.45687610550371" lon="11.97569859008218"><ele>721.0</ele><time>2026-04-12T10:54:19.999Z</time></trkpt><trkpt lat="43.456916111059066" lon="11.975610323263867"><ele>721.0</ele><time>2026-04-12T10:54:20.999Z</time></trkpt><trkpt lat="43.456931759311686" lon="11.97551398363748"><ele>721.0</ele><time>2026-04-12T10:54:21.999Z</time></trkpt><trkpt lat="43.45696282852611" lon="11.975436148064889"><ele>718.4</ele><time>2026-04-12T10:54:22.999Z</time></trkpt><trkpt lat="43.456998251725054" lon="11.975362928495128"><ele>715.8</ele><time>2026-04-12T10:54:23.999Z</time></trkpt><trkpt lat="43.45701256427034" lon="11.975202607104212"><ele>713.1999999999999</ele><time>2026-04-12T10:54:25.999Z</time></trkpt><trkpt lat="43.45698443106064" lon="11.9751132689018"><ele>710.5999999999999</ele><time>2026-04-12T10:54:26.999Z</time></trkpt><trkpt lat="43.45690703003451" lon="11.974977434348634"><ele>708.0</ele><time>2026-04-12T10:54:28.999Z</time></trkpt><trkpt lat="43.45690389991293" lon="11.97487079598376"><ele>705.8</ele><time>2026-04-12T10:54:29.999Z</time></trkpt><trkpt lat="43.45684205524307" lon="11.974725238469569"><ele>703.5999999999999</ele><time>2026-04-12T10:54:31.999Z</time></trkpt><trkpt lat="43.456792592175546" lon="11.974663446490588"><ele>701.4000000000001</ele><time>2026-04-12T10:54:32.999Z</time></trkpt><trkpt lat="43.456672735818756" lon="11.974567005591183"><ele>699.2</ele><time>2026-04-12T10:54:34.999Z</time></trkpt><trkpt lat="43.45660391235413" lon="11.974526325252477"><ele>697.0</ele><time>2026-04-12T10:54:35.999Z</time></trkpt><trkpt lat="43.4565321740397" lon="11.974443066969627"><ele>697.0</ele><time>2026-04-12T10:54:36.999Z</time></trkpt><trkpt lat="43.45647876117939" lon="11.974340237374365"><ele>697.0</ele><time>2026-04-12T10:54:37.999Z</time></trkpt><trkpt lat="43.456448010002454" lon="11.97420503277624"><ele>697.0</ele><time>2026-04-12T10:54:38.999Z</time></trkpt><trkpt lat="43.45641835048615" lon="11.974075919185237"><ele>697.0</ele><time>2026-04-12T10:54:39.999Z</time></trkpt><trkpt lat="43.45636870286631" lon="11.973991098832668"><ele>697.0</ele><time>2026-04-12T10:54:40.999Z</time></trkpt><trkpt lat="43.45629324743791" lon="11.973886621539354"><ele>694.4000000000001</ele><time>2026-04-12T10:54:42.999Z</time></trkpt><trkpt lat="43.45625755431476" lon="11.973808993242086"><ele>691.8000000000001</ele><time>2026-04-12T10:54:43.999Z</time></trkpt><trkpt lat="43.456198897882196" lon="11.973712148870096"><ele>689.2</ele><time>2026-04-12T10:54:44.999Z</time></trkpt><trkpt lat="43.45612833148577" lon="11.97361203296112"><ele>686.6</ele><time>2026-04-12T10:54:45.999Z</time></trkpt><trkpt lat="43.45607444639461" lon="11.97349811291413"><ele>684.0</ele><time>2026-04-12T10:54:46.999Z</time></trkpt><trkpt lat="43.45604595092709" lon="11.973354433811688"><ele>684.0</ele><time>2026-04-12T10:54:47.999Z</time></trkpt><trkpt lat="43.45602851908537" lon="11.973254536819832"><ele>684.0</ele><time>2026-04-12T10:54:48.999Z</time></trkpt><trkpt lat="43.455976937763666" lon="11.973171560089568"><ele>684.0</ele><time>2026-04-12T10:54:49.999Z</time></trkpt><trkpt lat="43.45595125852575" lon="11.973082421720045"><ele>684.0</ele><time>2026-04-12T10:54:50.999Z</time></trkpt><trkpt lat="43.455949512041926" lon="11.972978532813652"><ele>684.0</ele><time>2026-04-12T10:54:51.999Z</time></trkpt><trkpt lat="43.45594496454003" lon="11.972871377695713"><ele>684.0</ele><time>2026-04-12T10:54:52.999Z</time></trkpt><trkpt lat="43.45592559018809" lon="11.972751466335266"><ele>684.0</ele><time>2026-04-12T10:54:53.999Z</time></trkpt><trkpt lat="43.45589161183902" lon="11.972654468060114"><ele>684.0</ele><time>2026-04-12T10:54:54.999Z</time></trkpt><trkpt lat="43.45588949914733" lon="11.972522653665589"><ele>684.0</ele><time>2026-04-12T10:54:55.999Z</time></trkpt><trkpt lat="43.45590255205705" lon="11.97238161911334"><ele>684.0</ele><time>2026-04-12T10:54:56.999Z</time></trkpt><trkpt lat="43.455927489761855" lon="11.97225234956415"><ele>684.0</ele><time>2026-04-12T10:54:57.999Z</time></trkpt><trkpt lat="43.45596452697395" lon="11.972166376871964"><ele>684.0</ele><time>2026-04-12T10:54:58.999Z</time></trkpt><trkpt lat="43.45597666176139" lon="11.972025161121314"><ele>684.1666666666666</ele><time>2026-04-12T10:55:00.999Z</time></trkpt><trkpt lat="43.45595328010992" lon="11.971929203471376"><ele>684.3333333333334</ele><time>2026-04-12T10:55:01.999Z</time></trkpt><trkpt lat="43.455917927946686" lon="11.971847901446653"><ele>684.5</ele><time>2026-04-12T10:55:02.999Z</time></trkpt><trkpt lat="43.45591666761136" lon="11.971750233678515"><ele>684.6666666666667</ele><time>2026-04-12T10:55:03.999Z</time></trkpt><trkpt lat="43.4560096200379" lon="11.971674332002143"><ele>684.8333333333334</ele><time>2026-04-12T10:55:12.999Z</time></trkpt><trkpt lat="43.456069125559836" lon="11.971557944790982"><ele>685.0</ele><time>2026-04-12T10:55:14.999Z</time></trkpt><trkpt lat="43.4561402190834" lon="11.971444868678013"><ele>683.8</ele><time>2026-04-12T10:55:16.998Z</time></trkpt><trkpt lat="43.45621024610141" lon="11.971435747113873"><ele>682.6</ele><time>2026-04-12T10:55:18.998Z</time></trkpt><trkpt lat="43.456308863426855" lon="11.971429989204518"><ele>681.4000000000001</ele><time>2026-04-12T10:55:21.998Z</time></trkpt><trkpt lat="43.45639644573498" lon="11.971460750770843"><ele>680.2</ele><time>2026-04-12T10:55:23.998Z</time></trkpt><trkpt lat="43.456515916394416" lon="11.971513265071492"><ele>679.0</ele><time>2026-04-12T10:55:25.998Z</time></trkpt><trkpt lat="43.456608134768864" lon="11.971587639133492"><ele>678.8333333333334</ele><time>2026-04-12T10:55:27.998Z</time></trkpt><trkpt lat="43.456727794321644" lon="11.971675776183028"><ele>678.6666666666667</ele><time>2026-04-12T10:55:29.998Z</time></trkpt><trkpt lat="43.45679329594341" lon="11.971698415393666"><ele>678.5</ele><time>2026-04-12T10:55:30.998Z</time></trkpt><trkpt lat="43.45686739091977" lon="11.971731865419976"><ele>678.3333333333334</ele><time>2026-04-12T10:55:31.998Z</time></trkpt><trkpt lat="43.456939597538494" lon="11.971760781356956"><ele>678.1666666666666</ele><time>2026-04-12T10:55:32.998Z</time></trkpt><trkpt lat="43.45700690324099" lon="11.971783756570325"><ele>678.0</ele><time>2026-04-12T10:55:33.998Z</time></trkpt><trkpt lat="43.45708069165833" lon="11.971812879572662"><ele>678.8</ele><time>2026-04-12T10:55:34.998Z</time></trkpt><trkpt lat="43.457157782918664" lon="11.97184812511725"><ele>679.5999999999999</ele><time>2026-04-12T10:55:35.998Z</time></trkpt><trkpt lat="43.45723333009002" lon="11.971897646355123"><ele>680.4000000000001</ele><time>2026-04-12T10:55:36.998Z</time></trkpt><trkpt lat="43.45731075294803" lon="11.97196092650556"><ele>681.2</ele><time>2026-04-12T10:55:37.998Z</time></trkpt><trkpt lat="43.457388190552024" lon="11.972076605434442"><ele>682.0</ele><time>2026-04-12T10:55:40Z</time></trkpt><trkpt lat="43.457422180088315" lon="11.972228286988022"><ele>682.0</ele><time>2026-04-12T10:55:42Z</time></trkpt><trkpt lat="43.4575514307013" lon="11.972269948098317"><ele>682.0</ele><time>2026-04-12T10:55:44Z</time></trkpt><trkpt lat="43.45762165535847" lon="11.97230079279947"><ele>682.0</ele><time>2026-04-12T10:55:45Z</time></trkpt><trkpt lat="43.45769948924191" lon="11.972352033733213"><ele>682.0</ele><time>2026-04-12T10:55:46Z</time></trkpt><trkpt lat="43.45778443342526" lon="11.972431671898697"><ele>682.0</ele><time>2026-04-12T10:55:48Z</time></trkpt><trkpt lat="43.45784443076408" lon="11.97249632790313"><ele>682.0</ele><time>2026-04-12T10:55:51Z</time></trkpt><trkpt lat="43.45790937874372" lon="11.972454463616781"><ele>682.0</ele><time>2026-04-12T10:55:54Z</time></trkpt><trkpt lat="43.457883809502285" lon="11.972369328047078"><ele>682.0</ele><time>2026-04-12T10:55:59Z</time></trkpt><trkpt lat="43.45787556096418" lon="11.972250715044444"><ele>682.0</ele><time>2026-04-12T10:56:04Z</time></trkpt><trkpt lat="43.457856688243375" lon="11.972150837922827"><ele>682.0</ele><time>2026-04-12T10:56:06Z</time></trkpt><trkpt lat="43.457841417761536" lon="11.972017581067059"><ele>682.0</ele><time>2026-04-12T10:56:08Z</time></trkpt><trkpt lat="43.457862301865305" lon="11.971912804753845"><ele>682.0</ele><time>2026-04-12T10:56:10Z</time></trkpt><trkpt lat="43.457911091947715" lon="11.971745494882503"><ele>682.0</ele><time>2026-04-12T10:56:12Z</time></trkpt><trkpt lat="43.45795740716712" lon="11.971661822019653"><ele>682.0</ele><time>2026-04-12T10:56:13Z</time></trkpt><trkpt lat="43.45800917835918" lon="11.9715774340583"><ele>682.0</ele><time>2026-04-12T10:56:14Z</time></trkpt><trkpt lat="43.45806196088161" lon="11.971506658274071"><ele>682.0</ele><time>2026-04-12T10:56:15Z</time></trkpt><trkpt lat="43.45813263604962" lon="11.971361205766085"><ele>680.3333333333334</ele><time>2026-04-12T10:56:17Z</time></trkpt><trkpt lat="43.45816285088831" lon="11.971282959267164"><ele>678.6666666666667</ele><time>2026-04-12T10:56:18Z</time></trkpt><trkpt lat="43.458172364398" lon="11.971193199962334"><ele>677.0</ele><time>2026-04-12T10:56:19Z</time></trkpt><trkpt lat="43.45815342879453" lon="11.97104262647573"><ele>675.3333333333334</ele><time>2026-04-12T10:56:21Z</time></trkpt><trkpt lat="43.45821375095134" lon="11.970915018495344"><ele>673.6666666666666</ele><time>2026-04-12T10:56:22.999Z</time></trkpt><trkpt lat="43.458303749158645" lon="11.970868293001269"><ele>672.0</ele><time>2026-04-12T10:56:24.999Z</time></trkpt><trkpt lat="43.45832746411792" lon="11.970957638245254"><ele>672.0</ele><time>2026-04-12T10:56:26.999Z</time></trkpt><trkpt lat="43.45836612041573" lon="11.971050023086747"><ele>672.0</ele><time>2026-04-12T10:56:27.999Z</time></trkpt><trkpt lat="43.45842173952967" lon="11.971115976288694"><ele>672.0</ele><time>2026-04-12T10:56:28.999Z</time></trkpt><trkpt lat="43.45852537552761" lon="11.971153915637522"><ele>672.0</ele><time>2026-04-12T10:56:30.999Z</time></trkpt><trkpt lat="43.45859846820999" lon="11.971127637470603"><ele>672.0</ele><time>2026-04-12T10:56:31.999Z</time></trkpt><trkpt lat="43.45867645250466" lon="11.971091865930264"><ele>672.0</ele><time>2026-04-12T10:56:32.999Z</time></trkpt><trkpt lat="43.458774746963364" lon="11.971016895806372"><ele>672.5</ele><time>2026-04-12T10:56:33.999Z</time></trkpt><trkpt lat="43.4588466624383" lon="11.970955884631232"><ele>673.0</ele><time>2026-04-12T10:56:34.999Z</time></trkpt><trkpt lat="43.458921915300294" lon="11.970916405127623"><ele>673.5</ele><time>2026-04-12T10:56:35.999Z</time></trkpt><trkpt lat="43.45900360194644" lon="11.970867006124083"><ele>674.0</ele><time>2026-04-12T10:56:37.999Z</time></trkpt><trkpt lat="43.45909758434758" lon="11.97097315027514"><ele>674.5</ele><time>2026-04-12T10:56:39.999Z</time></trkpt><trkpt lat="43.459138918867595" lon="11.97105279019142"><ele>675.0</ele><time>2026-04-12T10:56:40.999Z</time></trkpt><trkpt lat="43.45923104381394" lon="11.971104907405138"><ele>675.0</ele><time>2026-04-12T10:56:42.999Z</time></trkpt><trkpt lat="43.45932500477009" lon="11.971095335671327"><ele>675.0</ele><time>2026-04-12T10:56:44.999Z</time></trkpt><trkpt lat="43.45939970524105" lon="11.971043443052062"><ele>675.0</ele><time>2026-04-12T10:56:45.999Z</time></trkpt><trkpt lat="43.459493248447245" lon="11.971006271030548"><ele>675.0</ele><time>2026-04-12T10:56:46.999Z</time></trkpt><trkpt lat="43.45957330689079" lon="11.970961959270745"><ele>675.0</ele><time>2026-04-12T10:56:47.999Z</time></trkpt><trkpt lat="43.459639802811" lon="11.970878361768301"><ele>672.6666666666666</ele><time>2026-04-12T10:56:48.999Z</time></trkpt><trkpt lat="43.459704769079096" lon="11.970798842305985"><ele>670.3333333333334</ele><time>2026-04-12T10:56:49.999Z</time></trkpt><trkpt lat="43.459785960204655" lon="11.970739300084066"><ele>668.0</ele><time>2026-04-12T10:56:50.999Z</time></trkpt><trkpt lat="43.4598738040181" lon="11.970693546349358"><ele>665.6666666666667</ele><time>2026-04-12T10:56:51.999Z</time></trkpt><trkpt lat="43.459965516354885" lon="11.970679658589107"><ele>663.3333333333334</ele><time>2026-04-12T10:56:52.999Z</time></trkpt><trkpt lat="43.46004884069192" lon="11.970663777655714"><ele>661.0</ele><time>2026-04-12T10:56:53.999Z</time></trkpt><trkpt lat="43.460131518105094" lon="11.970643518735782"><ele>661.0</ele><time>2026-04-12T10:56:54.999Z</time></trkpt><trkpt lat="43.4602030515085" lon="11.970646825192393"><ele>661.0</ele><time>2026-04-12T10:56:55.999Z</time></trkpt><trkpt lat="43.460274303936174" lon="11.970641337794984"><ele>661.0</ele><time>2026-04-12T10:56:56.999Z</time></trkpt><trkpt lat="43.46035311463566" lon="11.970663592796013"><ele>661.0</ele><time>2026-04-12T10:56:57.999Z</time></trkpt><trkpt lat="43.46041378650388" lon="11.97072978594012"><ele>661.0</ele><time>2026-04-12T10:56:58.999Z</time></trkpt><trkpt lat="43.46047312354357" lon="11.970821650336312"><ele>661.0</ele><time>2026-04-12T10:56:59.999Z</time></trkpt><trkpt lat="43.460531891837384" lon="11.97086730537811"><ele>660.8</ele><time>2026-04-12T10:57:00.999Z</time></trkpt><trkpt lat="43.46064162290036" lon="11.970839815695445"><ele>660.5999999999999</ele><time>2026-04-12T10:57:02.999Z</time></trkpt><trkpt lat="43.460756166312905" lon="11.97083925471926"><ele>660.4</ele><time>2026-04-12T10:57:04.999Z</time></trkpt><trkpt lat="43.46081928234302" lon="11.970861331200231"><ele>660.2</ele><time>2026-04-12T10:57:05.999Z</time></trkpt><trkpt lat="43.46091771104294" lon="11.970879344959698"><ele>660.0</ele><time>2026-04-12T10:57:07.999Z</time></trkpt><trkpt lat="43.46102134782383" lon="11.970846737385262"><ele>660.0</ele><time>2026-04-12T10:57:09.999Z</time></trkpt><trkpt lat="43.46105901177505" lon="11.970774175781093"><ele>660.0</ele><time>2026-04-12T10:57:10.999Z</time></trkpt><trkpt lat="43.46112889333682" lon="11.970664993993275"><ele>660.0</ele><time>2026-04-12T10:57:12.999Z</time></trkpt><trkpt lat="43.461204632122914" lon="11.97065242358725"><ele>660.0</ele><time>2026-04-12T10:57:14.999Z</time></trkpt><trkpt lat="43.46127051976349" lon="11.970662042219669"><ele>660.0</ele><time>2026-04-12T10:57:35.998Z</time></trkpt><trkpt lat="43.461302932811186" lon="11.970584111604285"><ele>660.0</ele><time>2026-04-12T10:57:38.998Z</time></trkpt><trkpt lat="43.46128321802331" lon="11.970452102147899"><ele>660.0</ele><time>2026-04-12T10:57:40.998Z</time></trkpt><trkpt lat="43.461285887199544" lon="11.970353604482606"><ele>660.0</ele><time>2026-04-12T10:57:41.998Z</time></trkpt><trkpt lat="43.46130387081579" lon="11.970255229293576"><ele>660.0</ele><time>2026-04-12T10:57:42.998Z</time></trkpt><trkpt lat="43.46129377060822" lon="11.970158086112278"><ele>660.0</ele><time>2026-04-12T10:57:43.998Z</time></trkpt><trkpt lat="43.46125069461439" lon="11.970061668459229"><ele>660.0</ele><time>2026-04-12T10:57:45Z</time></trkpt><trkpt lat="43.46119779597549" lon="11.969970815064222"><ele>660.0</ele><time>2026-04-12T10:57:46Z</time></trkpt><trkpt lat="43.46120179755892" lon="11.969852393282489"><ele>658.0</ele><time>2026-04-12T10:57:48Z</time></trkpt><trkpt lat="43.46121497539948" lon="11.969728066229559"><ele>656.0</ele><time>2026-04-12T10:57:50Z</time></trkpt><trkpt lat="43.461132376931104" lon="11.969636101837603"><ele>654.0</ele><time>2026-04-12T10:57:52Z</time></trkpt><trkpt lat="43.461066667294425" lon="11.969608546234346"><ele>652.0</ele><time>2026-04-12T10:57:53Z</time></trkpt><trkpt lat="43.46101444060131" lon="11.969542815085244"><ele>650.0</ele><time>2026-04-12T10:57:54Z</time></trkpt><trkpt lat="43.46097594217395" lon="11.96940304238846"><ele>648.0</ele><time>2026-04-12T10:57:56Z</time></trkpt><trkpt lat="43.46096738560421" lon="11.969243238880159"><ele>650.0</ele><time>2026-04-12T10:57:58Z</time></trkpt><trkpt lat="43.460934308788985" lon="11.969135617557917"><ele>652.0</ele><time>2026-04-12T10:57:59Z</time></trkpt><trkpt lat="43.46090287340413" lon="11.969033783849424"><ele>654.0</ele><time>2026-04-12T10:58:00Z</time></trkpt><trkpt lat="43.46087783796429" lon="11.968942722455136"><ele>656.0</ele><time>2026-04-12T10:58:01Z</time></trkpt><trkpt lat="43.460870551355754" lon="11.96874353050593"><ele>658.0</ele><time>2026-04-12T10:58:03Z</time></trkpt><trkpt lat="43.46086267864784" lon="11.96861758090855"><ele>658.0</ele><time>2026-04-12T10:58:04Z</time></trkpt><trkpt lat="43.46084447998703" lon="11.968513986147236"><ele>658.0</ele><time>2026-04-12T10:58:05Z</time></trkpt><trkpt lat="43.46084306008401" lon="11.968411911564743"><ele>658.0</ele><time>2026-04-12T10:58:06Z</time></trkpt><trkpt lat="43.46085761227142" lon="11.968318261190271"><ele>658.0</ele><time>2026-04-12T10:58:07Z</time></trkpt><trkpt lat="43.46089874314932" lon="11.968172692371445"><ele>658.0</ele><time>2026-04-12T10:58:09Z</time></trkpt><trkpt lat="43.4609413124901" lon="11.968068978628361"><ele>658.0</ele><time>2026-04-12T10:58:10Z</time></trkpt><trkpt lat="43.46096551498097" lon="11.9679840346646"><ele>659.1666666666667</ele><time>2026-04-12T10:58:11Z</time></trkpt><trkpt lat="43.460957619799814" lon="11.967892634441318"><ele>660.3333333333334</ele><time>2026-04-12T10:58:12Z</time></trkpt><trkpt lat="43.46096797306946" lon="11.967778058651847"><ele>661.5</ele><time>2026-04-12T10:58:13Z</time></trkpt><trkpt lat="43.46101491666922" lon="11.967672186283785"><ele>662.6666666666666</ele><time>2026-04-12T10:58:14Z</time></trkpt><trkpt lat="43.46104060017165" lon="11.967561951073419"><ele>663.8333333333333</ele><time>2026-04-12T10:58:15Z</time></trkpt><trkpt lat="43.46103883691173" lon="11.96745069226265"><ele>665.0</ele><time>2026-04-12T10:58:16Z</time></trkpt><trkpt lat="43.461037953023975" lon="11.967362274403607"><ele>666.0</ele><time>2026-04-12T10:58:17Z</time></trkpt><trkpt lat="43.460950716582545" lon="11.967221627411893"><ele>667.0</ele><time>2026-04-12T10:58:19Z</time></trkpt><trkpt lat="43.460870136108795" lon="11.967128041133575"><ele>668.0</ele><time>2026-04-12T10:58:20Z</time></trkpt><trkpt lat="43.460814079428395" lon="11.96704297702821"><ele>669.0</ele><time>2026-04-12T10:58:21Z</time></trkpt><trkpt lat="43.46078934790472" lon="11.966953220708287"><ele>670.0</ele><time>2026-04-12T10:58:22Z</time></trkpt><trkpt lat="43.46080470784792" lon="11.966795922974693"><ele>670.0</ele><time>2026-04-12T10:58:24Z</time></trkpt><trkpt lat="43.46083083666995" lon="11.966699310971988"><ele>670.0</ele><time>2026-04-12T10:58:25Z</time></trkpt><trkpt lat="43.46086247434141" lon="11.966580737374526"><ele>670.0</ele><time>2026-04-12T10:58:26Z</time></trkpt><trkpt lat="43.46089803312087" lon="11.966462231857971"><ele>670.0</ele><time>2026-04-12T10:58:27Z</time></trkpt><trkpt lat="43.46090409176245" lon="11.966325525068074"><ele>670.0</ele><time>2026-04-12T10:58:28Z</time></trkpt><trkpt lat="43.46090175625921" lon="11.966168620959834"><ele>671.2</ele><time>2026-04-12T10:58:29Z</time></trkpt><trkpt lat="43.46090982941161" lon="11.966045544649196"><ele>672.4</ele><time>2026-04-12T10:58:29.999Z</time></trkpt><trkpt lat="43.46091724372452" lon="11.9659456600278"><ele>673.5999999999999</ele><time>2026-04-12T10:58:30.999Z</time></trkpt><trkpt lat="43.46092106701449" lon="11.96581928366674"><ele>674.8</ele><time>2026-04-12T10:58:31.999Z</time></trkpt><trkpt lat="43.46093672977153" lon="11.965697474534846"><ele>676.0</ele><time>2026-04-12T10:58:32.999Z</time></trkpt><trkpt lat="43.46086483670726" lon="11.965587535670563"><ele>676.3333333333334</ele><time>2026-04-12T10:58:34.999Z</time></trkpt><trkpt lat="43.4608029598535" lon="11.965528823574006"><ele>676.6666666666667</ele><time>2026-04-12T10:59:35.998Z</time></trkpt><trkpt lat="43.46078263037408" lon="11.965405386284834"><ele>677.0</ele><time>2026-04-12T10:59:37.998Z</time></trkpt><trkpt lat="43.46079016731031" lon="11.965255328821122"><ele>677.3333333333334</ele><time>2026-04-12T10:59:39.998Z</time></trkpt><trkpt lat="43.46082591363181" lon="11.965179717100368"><ele>677.6666666666666</ele><time>2026-04-12T10:59:40.998Z</time></trkpt><trkpt lat="43.46087151720065" lon="11.965115688325788"><ele>678.0</ele><time>2026-04-12T10:59:41.998Z</time></trkpt><trkpt lat="43.46091643188762" lon="11.965050864902723"><ele>678.8</ele><time>2026-04-12T10:59:42.998Z</time></trkpt><trkpt lat="43.460966671543794" lon="11.964900141907853"><ele>679.5999999999999</ele><time>2026-04-12T10:59:44.998Z</time></trkpt><trkpt lat="43.4609875794949" lon="11.96473987226139"><ele>680.4000000000001</ele><time>2026-04-12T10:59:46.998Z</time></trkpt><trkpt lat="43.460974053895725" lon="11.964645166433261"><ele>681.2</ele><time>2026-04-12T10:59:47.998Z</time></trkpt><trkpt lat="43.460948462118964" lon="11.964548133211197"><ele>682.0</ele><time>2026-04-12T10:59:48.998Z</time></trkpt><trkpt lat="43.46091762721574" lon="11.964461114396478"><ele>682.0</ele><time>2026-04-12T10:59:49.998Z</time></trkpt><trkpt lat="43.46088109168482" lon="11.96436782694315"><ele>682.0</ele><time>2026-04-12T10:59:51Z</time></trkpt><trkpt lat="43.46085320179602" lon="11.964262107666752"><ele>682.0</ele><time>2026-04-12T10:59:52Z</time></trkpt><trkpt lat="43.460808690719126" lon="11.96415770791666"><ele>682.0</ele><time>2026-04-12T10:59:53Z</time></trkpt><trkpt lat="43.46077303553138" lon="11.964077852285156"><ele>682.0</ele><time>2026-04-12T10:59:54Z</time></trkpt><trkpt lat="43.46071474590231" lon="11.964020665302558"><ele>682.0</ele><time>2026-04-12T10:59:55Z</time></trkpt><trkpt lat="43.46067240217227" lon="11.963955528282938"><ele>683.5714285714286</ele><time>2026-04-12T10:59:56Z</time></trkpt><trkpt lat="43.46066231067966" lon="11.963866836119074"><ele>685.1428571428571</ele><time>2026-04-12T10:59:57Z</time></trkpt><trkpt lat="43.460660831281686" lon="11.963778191928393"><ele>686.7142857142858</ele><time>2026-04-12T10:59:58Z</time></trkpt><trkpt lat="43.46068833898108" lon="11.963697207842408"><ele>688.2857142857142</ele><time>2026-04-12T10:59:59Z</time></trkpt><trkpt lat="43.46073367839408" lon="11.963609286178514"><ele>689.8571428571429</ele><time>2026-04-12T11:00:00Z</time></trkpt><trkpt lat="43.46079747267491" lon="11.963556293284942"><ele>691.4285714285714</ele><time>2026-04-12T11:00:01Z</time></trkpt><trkpt lat="43.46087217976071" lon="11.963512903171246"><ele>693.0</ele><time>2026-04-12T11:00:02Z</time></trkpt><trkpt lat="43.46095444853305" lon="11.963474554637914"><ele>693.0</ele><time>2026-04-12T11:00:03Z</time></trkpt><trkpt lat="43.461031091929016" lon="11.963416289203384"><ele>693.0</ele><time>2026-04-12T11:00:04Z</time></trkpt><trkpt lat="43.46110705596847" lon="11.963370748157882"><ele>693.0</ele><time>2026-04-12T11:00:05Z</time></trkpt><trkpt lat="43.46118330830024" lon="11.963340064306797"><ele>693.0</ele><time>2026-04-12T11:00:06Z</time></trkpt><trkpt lat="43.461253471250416" lon="11.963307606677734"><ele>693.0</ele><time>2026-04-12T11:00:07Z</time></trkpt><trkpt lat="43.461303018012046" lon="11.963253368783612"><ele>693.0</ele><time>2026-04-12T11:00:08Z</time></trkpt><trkpt lat="43.46130376061931" lon="11.963068026439878"><ele>692.6666666666666</ele><time>2026-04-12T11:00:10Z</time></trkpt><trkpt lat="43.461264398275965" lon="11.962944348050064"><ele>692.3333333333334</ele><time>2026-04-12T11:00:11Z</time></trkpt><trkpt lat="43.46121524185405" lon="11.962831368518614"><ele>692.0</ele><time>2026-04-12T11:00:12Z</time></trkpt><trkpt lat="43.461169967152856" lon="11.96273025723561"><ele>691.6666666666667</ele><time>2026-04-12T11:00:13Z</time></trkpt><trkpt lat="43.461100892356185" lon="11.96263501449457"><ele>691.3333333333334</ele><time>2026-04-12T11:00:14Z</time></trkpt><trkpt lat="43.46104443361167" lon="11.962574712895739"><ele>691.0</ele><time>2026-04-12T11:00:15Z</time></trkpt><trkpt lat="43.460980769342264" lon="11.962517887279787"><ele>690.4</ele><time>2026-04-12T11:00:16Z</time></trkpt><trkpt lat="43.46095002460074" lon="11.96237881479797"><ele>689.8</ele><time>2026-04-12T11:00:18Z</time></trkpt><trkpt lat="43.4609337955754" lon="11.962212467218476"><ele>689.1999999999999</ele><time>2026-04-12T11:00:20Z</time></trkpt><trkpt lat="43.4609140606683" lon="11.962119420452117"><ele>688.5999999999999</ele><time>2026-04-12T11:00:21Z</time></trkpt><trkpt lat="43.46088421456607" lon="11.96196259826503"><ele>688.0</ele><time>2026-04-12T11:00:23Z</time></trkpt><trkpt lat="43.46082153995315" lon="11.961828639640034"><ele>688.0</ele><time>2026-04-12T11:00:25Z</time></trkpt><trkpt lat="43.46071523589702" lon="11.961783235889607"><ele>688.0</ele><time>2026-04-12T11:00:27Z</time></trkpt><trkpt lat="43.46061598913472" lon="11.961790573679504"><ele>688.0</ele><time>2026-04-12T11:00:29Z</time></trkpt><trkpt lat="43.46049758567117" lon="11.961792597256716"><ele>688.0</ele><time>2026-04-12T11:00:31Z</time></trkpt><trkpt lat="43.460433522508296" lon="11.961786114974428"><ele>688.0</ele><time>2026-04-12T11:00:32Z</time></trkpt><trkpt lat="43.46036616317964" lon="11.961776842757905"><ele>686.8</ele><time>2026-04-12T11:00:33Z</time></trkpt><trkpt lat="43.46026186669075" lon="11.961779517339561"><ele>685.5999999999999</ele><time>2026-04-12T11:00:34.999Z</time></trkpt><trkpt lat="43.46016226155355" lon="11.961745449853401"><ele>684.4000000000001</ele><time>2026-04-12T11:00:36.999Z</time></trkpt><trkpt lat="43.46009270095419" lon="11.961706970590914"><ele>683.2</ele><time>2026-04-12T11:00:37.999Z</time></trkpt><trkpt lat="43.46002482565244" lon="11.961651692858334"><ele>682.0</ele><time>2026-04-12T11:00:38.999Z</time></trkpt><trkpt lat="43.45993760895857" lon="11.961555716193084"><ele>682.0</ele><time>2026-04-12T11:00:40.999Z</time></trkpt><trkpt lat="43.459881914388596" lon="11.961468898994498"><ele>682.0</ele><time>2026-04-12T11:00:42.999Z</time></trkpt><trkpt lat="43.45985125847649" lon="11.96135725185134"><ele>682.0</ele><time>2026-04-12T11:00:45.999Z</time></trkpt><trkpt lat="43.45981124982455" lon="11.961275313472822"><ele>682.0</ele><time>2026-04-12T11:00:50.999Z</time></trkpt><trkpt lat="43.459756922924996" lon="11.961229479199192"><ele>682.0</ele><time>2026-04-12T11:00:52.999Z</time></trkpt><trkpt lat="43.45969156324479" lon="11.961171049051506"><ele>682.0</ele><time>2026-04-12T11:00:54.999Z</time></trkpt><trkpt lat="43.45961313682017" lon="11.961072100454349"><ele>680.4000000000001</ele><time>2026-04-12T11:00:56.999Z</time></trkpt><trkpt lat="43.45960037592039" lon="11.960951953598427"><ele>678.8000000000001</ele><time>2026-04-12T11:00:58.999Z</time></trkpt><trkpt lat="43.45954467949066" lon="11.960813939011503"><ele>677.2</ele><time>2026-04-12T11:01:00.999Z</time></trkpt><trkpt lat="43.459444645754836" lon="11.960848647587623"><ele>675.6</ele><time>2026-04-12T11:01:02.999Z</time></trkpt><trkpt lat="43.45931635652088" lon="11.96088546612492"><ele>674.0</ele><time>2026-04-12T11:01:04.999Z</time></trkpt><trkpt lat="43.459242379617066" lon="11.960887258997213"><ele>677.6</ele><time>2026-04-12T11:01:05.999Z</time></trkpt><trkpt lat="43.45918270111908" lon="11.960855910518015"><ele>681.2</ele><time>2026-04-12T11:01:06.999Z</time></trkpt><trkpt lat="43.45910894077894" lon="11.960747751837832"><ele>684.8000000000001</ele><time>2026-04-12T11:01:08.999Z</time></trkpt><trkpt lat="43.45907460696493" lon="11.960589528245213"><ele>688.4000000000001</ele><time>2026-04-12T11:01:10.999Z</time></trkpt><trkpt lat="43.4590445152199" lon="11.96050939831353"><ele>692.0</ele><time>2026-04-12T11:01:11.999Z</time></trkpt><trkpt lat="43.458953183101045" lon="11.960373415196209"><ele>692.0</ele><time>2026-04-12T11:01:13.999Z</time></trkpt><trkpt lat="43.45890076600794" lon="11.96028805650873"><ele>692.0</ele><time>2026-04-12T11:01:14.999Z</time></trkpt><trkpt lat="43.45883461982844" lon="11.960201187114876"><ele>692.0</ele><time>2026-04-12T11:01:15.999Z</time></trkpt><trkpt lat="43.458756484271056" lon="11.960135676584414"><ele>692.0</ele><time>2026-04-12T11:01:16.999Z</time></trkpt><trkpt lat="43.45868591576214" lon="11.960081738061676"><ele>692.0</ele><time>2026-04-12T11:01:17.999Z</time></trkpt><trkpt lat="43.45861743149845" lon="11.960027947608499"><ele>692.0</ele><time>2026-04-12T11:01:18.999Z</time></trkpt><trkpt lat="43.45857687096121" lon="11.959946303657915"><ele>691.3333333333333</ele><time>2026-04-12T11:01:19.999Z</time></trkpt><trkpt lat="43.458540752515894" lon="11.959849528736772"><ele>690.6666666666666</ele><time>2026-04-12T11:01:20.999Z</time></trkpt><trkpt lat="43.45850585208476" lon="11.959745562566475"><ele>690.0</ele><time>2026-04-12T11:01:21.999Z</time></trkpt><trkpt lat="43.45846777936233" lon="11.95965281225343"><ele>689.3333333333334</ele><time>2026-04-12T11:01:22.999Z</time></trkpt><trkpt lat="43.45841068642719" lon="11.959552856131284"><ele>688.6666666666667</ele><time>2026-04-12T11:01:23.999Z</time></trkpt><trkpt lat="43.45835017440126" lon="11.959447958154813"><ele>688.0</ele><time>2026-04-12T11:01:24.999Z</time></trkpt><trkpt lat="43.458280066586184" lon="11.959344458428136"><ele>688.0</ele><time>2026-04-12T11:01:25.999Z</time></trkpt><trkpt lat="43.45822758910244" lon="11.959236971343865"><ele>688.0</ele><time>2026-04-12T11:01:26.999Z</time></trkpt><trkpt lat="43.45817091190791" lon="11.959140601503147"><ele>688.0</ele><time>2026-04-12T11:01:27.999Z</time></trkpt><trkpt lat="43.458117577039374" lon="11.959035689998421"><ele>688.0</ele><time>2026-04-12T11:01:28.999Z</time></trkpt><trkpt lat="43.45807817602545" lon="11.958935636246014"><ele>688.0</ele><time>2026-04-12T11:01:29.999Z</time></trkpt><trkpt lat="43.458024162885636" lon="11.95884600140819"><ele>688.0</ele><time>2026-04-12T11:01:30.999Z</time></trkpt><trkpt lat="43.457978850120604" lon="11.95876973733213"><ele>687.0</ele><time>2026-04-12T11:01:31.999Z</time></trkpt><trkpt lat="43.45791006070823" lon="11.958713714448143"><ele>686.0</ele><time>2026-04-12T11:01:32.999Z</time></trkpt><trkpt lat="43.45783865089914" lon="11.958658753594607"><ele>685.0</ele><time>2026-04-12T11:01:33.998Z</time></trkpt><trkpt lat="43.4577717231663" lon="11.958575781216497"><ele>684.0</ele><time>2026-04-12T11:01:34.998Z</time></trkpt><trkpt lat="43.45770703244989" lon="11.958493338784994"><ele>683.0</ele><time>2026-04-12T11:01:35.998Z</time></trkpt><trkpt lat="43.4576314857696" lon="11.958408592815411"><ele>682.0</ele><time>2026-04-12T11:01:36.998Z</time></trkpt><trkpt lat="43.45756457108506" lon="11.958305208960237"><ele>684.4000000000001</ele><time>2026-04-12T11:01:37.998Z</time></trkpt><trkpt lat="43.45751500868202" lon="11.958189596094698"><ele>686.8000000000001</ele><time>2026-04-12T11:01:38.998Z</time></trkpt><trkpt lat="43.45746854621876" lon="11.958072684613317"><ele>689.2</ele><time>2026-04-12T11:01:39.998Z</time></trkpt><trkpt lat="43.45740853388047" lon="11.957958707733455"><ele>691.6</ele><time>2026-04-12T11:01:40.998Z</time></trkpt><trkpt lat="43.45735238470485" lon="11.957839225631922"><ele>694.0</ele><time>2026-04-12T11:01:41.998Z</time></trkpt><trkpt lat="43.45729140696973" lon="11.957722020736322"><ele>694.0</ele><time>2026-04-12T11:01:42.998Z</time></trkpt><trkpt lat="43.457235148014625" lon="11.957612308439572"><ele>694.0</ele><time>2026-04-12T11:01:43.998Z</time></trkpt><trkpt lat="43.457177367712596" lon="11.957505917818516"><ele>694.0</ele><time>2026-04-12T11:01:44.998Z</time></trkpt><trkpt lat="43.45711983132087" lon="11.95738018285079"><ele>694.0</ele><time>2026-04-12T11:01:45.998Z</time></trkpt><trkpt lat="43.45706201065161" lon="11.957278944509756"><ele>694.0</ele><time>2026-04-12T11:01:46.998Z</time></trkpt><trkpt lat="43.45699968591931" lon="11.957161126481267"><ele>694.8000000000001</ele><time>2026-04-12T11:01:47.998Z</time></trkpt><trkpt lat="43.456932143113605" lon="11.957053432814915"><ele>695.6</ele><time>2026-04-12T11:01:48.998Z</time></trkpt><trkpt lat="43.456867570894595" lon="11.956940826826184"><ele>696.4</ele><time>2026-04-12T11:01:49.998Z</time></trkpt><trkpt lat="43.4568056594705" lon="11.95681918662843"><ele>697.2</ele><time>2026-04-12T11:01:50.998Z</time></trkpt><trkpt lat="43.4567580379894" lon="11.956712521844347"><ele>698.0</ele><time>2026-04-12T11:01:51.998Z</time></trkpt><trkpt lat="43.456707687793696" lon="11.956636302452257"><ele>698.0</ele><time>2026-04-12T11:01:52.998Z</time></trkpt><trkpt lat="43.4566445156215" lon="11.956594259776576"><ele>698.0</ele><time>2026-04-12T11:01:53.998Z</time></trkpt><trkpt lat="43.45655779434348" lon="11.956550848241934"><ele>698.0</ele><time>2026-04-12T11:01:54.998Z</time></trkpt><trkpt lat="43.456475370948546" lon="11.956523455177207"><ele>698.0</ele><time>2026-04-12T11:01:55.998Z</time></trkpt><trkpt lat="43.456382468276104" lon="11.956520103117303"><ele>698.0</ele><time>2026-04-12T11:01:57Z</time></trkpt><trkpt lat="43.45628692595166" lon="11.956534060834082"><ele>698.0</ele><time>2026-04-12T11:01:58Z</time></trkpt><trkpt lat="43.45618569775584" lon="11.956566276826292"><ele>698.1666666666666</ele><time>2026-04-12T11:01:59Z</time></trkpt><trkpt lat="43.45609286463649" lon="11.956590648909675"><ele>698.3333333333333</ele><time>2026-04-12T11:02:00Z</time></trkpt><trkpt lat="43.45601164998514" lon="11.956601162752525"><ele>698.5</ele><time>2026-04-12T11:02:01Z</time></trkpt><trkpt lat="43.455941514088046" lon="11.95660425953883"><ele>698.6666666666666</ele><time>2026-04-12T11:02:02Z</time></trkpt><trkpt lat="43.45587348819985" lon="11.95661619716073"><ele>698.8333333333334</ele><time>2026-04-12T11:02:03Z</time></trkpt><trkpt lat="43.45577328590334" lon="11.956522750576525"><ele>699.0</ele><time>2026-04-12T11:02:05Z</time></trkpt><trkpt lat="43.45571311325409" lon="11.956432197040385"><ele>699.0</ele><time>2026-04-12T11:02:06Z</time></trkpt><trkpt lat="43.45563954884218" lon="11.956349402677972"><ele>699.0</ele><time>2026-04-12T11:02:07Z</time></trkpt><trkpt lat="43.45558281566398" lon="11.956300384996458"><ele>699.0</ele><time>2026-04-12T11:02:08Z</time></trkpt><trkpt lat="43.45552850555058" lon="11.956251218386043"><ele>699.0</ele><time>2026-04-12T11:02:09Z</time></trkpt><trkpt lat="43.45546739229829" lon="11.956182291900321"><ele>699.0</ele><time>2026-04-12T11:02:10Z</time></trkpt><trkpt lat="43.45540072795906" lon="11.956120961398147"><ele>699.0</ele><time>2026-04-12T11:02:11Z</time></trkpt><trkpt lat="43.45535441195294" lon="11.955988975030959"><ele>697.6666666666666</ele><time>2026-04-12T11:02:13Z</time></trkpt><trkpt lat="43.4553792740027" lon="11.955899080417604"><ele>696.3333333333334</ele><time>2026-04-12T11:02:14Z</time></trkpt><trkpt lat="43.455399434130605" lon="11.955810988808981"><ele>695.0</ele><time>2026-04-12T11:02:15Z</time></trkpt><trkpt lat="43.45541170417152" lon="11.955659910985428"><ele>693.6666666666667</ele><time>2026-04-12T11:02:17Z</time></trkpt><trkpt lat="43.45535071022476" lon="11.955546723145272"><ele>692.3333333333334</ele><time>2026-04-12T11:02:19Z</time></trkpt><trkpt lat="43.45533686957351" lon="11.95545673898227"><ele>691.0</ele><time>2026-04-12T11:02:21Z</time></trkpt><trkpt lat="43.45530260028981" lon="11.955307075703661"><ele>691.0</ele><time>2026-04-12T11:02:23Z</time></trkpt><trkpt lat="43.455200639614134" lon="11.955300522771052"><ele>691.0</ele><time>2026-04-12T11:02:25Z</time></trkpt><trkpt lat="43.45513843107075" lon="11.955315139826373"><ele>691.0</ele><time>2026-04-12T11:02:26Z</time></trkpt><trkpt lat="43.45506863375637" lon="11.955358789031518"><ele>691.0</ele><time>2026-04-12T11:02:27Z</time></trkpt><trkpt lat="43.45497926832357" lon="11.955398613315532"><ele>691.0</ele><time>2026-04-12T11:02:29Z</time></trkpt><trkpt lat="43.45489750534587" lon="11.955414530629671"><ele>691.0</ele><time>2026-04-12T11:02:30Z</time></trkpt><trkpt lat="43.45480909798429" lon="11.955422796890788"><ele>691.0</ele><time>2026-04-12T11:02:31Z</time></trkpt><trkpt lat="43.45473267826758" lon="11.95544633248672"><ele>691.0</ele><time>2026-04-12T11:02:32Z</time></trkpt><trkpt lat="43.45466700897146" lon="11.955457218507838"><ele>691.0</ele><time>2026-04-12T11:02:33Z</time></trkpt><trkpt lat="43.4545957689192" lon="11.955431357601299"><ele>691.0</ele><time>2026-04-12T11:02:34Z</time></trkpt><trkpt lat="43.45451833008423" lon="11.955383637801987"><ele>691.0</ele><time>2026-04-12T11:02:35Z</time></trkpt><trkpt lat="43.454424205238425" lon="11.955322496067069"><ele>691.0</ele><time>2026-04-12T11:02:36Z</time></trkpt><trkpt lat="43.45434696102297" lon="11.955270843336208"><ele>688.8333333333334</ele><time>2026-04-12T11:02:37Z</time></trkpt><trkpt lat="43.45427787293067" lon="11.955208476521602"><ele>686.6666666666667</ele><time>2026-04-12T11:02:38Z</time></trkpt><trkpt lat="43.454201355999956" lon="11.95514569993699"><ele>684.5</ele><time>2026-04-12T11:02:39Z</time></trkpt><trkpt lat="43.4541311469932" lon="11.955116669737174"><ele>682.3333333333334</ele><time>2026-04-12T11:02:40Z</time></trkpt><trkpt lat="43.454014892119886" lon="11.95509960510665"><ele>680.1666666666666</ele><time>2026-04-12T11:02:41.999Z</time></trkpt><trkpt lat="43.45394436049515" lon="11.955087587941756"><ele>678.0</ele><time>2026-04-12T11:02:42.999Z</time></trkpt><trkpt lat="43.45386325732418" lon="11.955098139154526"><ele>677.6666666666666</ele><time>2026-04-12T11:02:43.999Z</time></trkpt><trkpt lat="43.45378722741245" lon="11.95512980127317"><ele>677.3333333333334</ele><time>2026-04-12T11:02:44.999Z</time></trkpt><trkpt lat="43.453688612057206" lon="11.9551343595984"><ele>677.0</ele><time>2026-04-12T11:02:45.999Z</time></trkpt><trkpt lat="43.453591007594305" lon="11.95513471490953"><ele>676.6666666666667</ele><time>2026-04-12T11:02:46.999Z</time></trkpt><trkpt lat="43.453495829685565" lon="11.955123931725767"><ele>676.3333333333334</ele><time>2026-04-12T11:02:47.999Z</time></trkpt><trkpt lat="43.45342454470781" lon="11.955131173874264"><ele>676.0</ele><time>2026-04-12T11:02:48.999Z</time></trkpt><trkpt lat="43.453325432074216" lon="11.95501106449134"><ele>676.0</ele><time>2026-04-12T11:02:50.999Z</time></trkpt><trkpt lat="43.45327025574124" lon="11.954965618161534"><ele>676.0</ele><time>2026-04-12T11:02:51.999Z</time></trkpt><trkpt lat="43.453206201554316" lon="11.954901720922393"><ele>676.0</ele><time>2026-04-12T11:02:53.999Z</time></trkpt><trkpt lat="43.453154039642676" lon="11.954850670127476"><ele>676.0</ele><time>2026-04-12T11:02:55.999Z</time></trkpt><trkpt lat="43.45305719756414" lon="11.954792322475889"><ele>676.0</ele><time>2026-04-12T11:02:57.999Z</time></trkpt><trkpt lat="43.45300704628389" lon="11.954738669787957"><ele>676.0</ele><time>2026-04-12T11:02:58.999Z</time></trkpt><trkpt lat="43.45296118963446" lon="11.954602550973881"><ele>673.0</ele><time>2026-04-12T11:03:00.999Z</time></trkpt><trkpt lat="43.45286388443545" lon="11.954508556513925"><ele>670.0</ele><time>2026-04-12T11:03:02.999Z</time></trkpt><trkpt lat="43.452800908775785" lon="11.954478758263551"><ele>667.0</ele><time>2026-04-12T11:03:03.999Z</time></trkpt><trkpt lat="43.452703093538744" lon="11.95437211631432"><ele>664.0</ele><time>2026-04-12T11:03:05.999Z</time></trkpt><trkpt lat="43.45262935478351" lon="11.95429597673159"><ele>661.0</ele><time>2026-04-12T11:03:06.999Z</time></trkpt><trkpt lat="43.452570404486465" lon="11.954215521086844"><ele>662.0</ele><time>2026-04-12T11:03:07.999Z</time></trkpt><trkpt lat="43.452500649818724" lon="11.954134441877809"><ele>663.0</ele><time>2026-04-12T11:03:09.999Z</time></trkpt><trkpt lat="43.45240280361187" lon="11.95413160342457"><ele>664.0</ele><time>2026-04-12T11:03:28.999Z</time></trkpt><trkpt lat="43.45227222796022" lon="11.95412673797926"><ele>665.0</ele><time>2026-04-12T11:03:30.999Z</time></trkpt><trkpt lat="43.45217908694801" lon="11.9541452241599"><ele>666.0</ele><time>2026-04-12T11:03:31.999Z</time></trkpt><trkpt lat="43.45208136556062" lon="11.954137136174738"><ele>666.0</ele><time>2026-04-12T11:03:32.999Z</time></trkpt><trkpt lat="43.45198153494894" lon="11.954128013119263"><ele>666.0</ele><time>2026-04-12T11:03:33.999Z</time></trkpt><trkpt lat="43.4519072433909" lon="11.954106544945635"><ele>666.0</ele><time>2026-04-12T11:03:34.999Z</time></trkpt><trkpt lat="43.45178360313151" lon="11.95403894039432"><ele>666.0</ele><time>2026-04-12T11:03:36.999Z</time></trkpt><trkpt lat="43.45170429095255" lon="11.953936578107118"><ele>666.0</ele><time>2026-04-12T11:03:37.999Z</time></trkpt><trkpt lat="43.45163188062516" lon="11.953840734604656"><ele>666.0</ele><time>2026-04-12T11:03:38.999Z</time></trkpt><trkpt lat="43.45157411012703" lon="11.953787776558498"><ele>666.0</ele><time>2026-04-12T11:03:39.999Z</time></trkpt><trkpt lat="43.451505721752156" lon="11.953791417848803"><ele>666.0</ele><time>2026-04-12T11:03:40.999Z</time></trkpt><trkpt lat="43.45142406241111" lon="11.953821335359876"><ele>666.0</ele><time>2026-04-12T11:03:41.999Z</time></trkpt><trkpt lat="43.45133269978681" lon="11.953859755608983"><ele>666.0</ele><time>2026-04-12T11:03:42.999Z</time></trkpt><trkpt lat="43.45122320128022" lon="11.953874601794107"><ele>666.0</ele><time>2026-04-12T11:03:43.998Z</time></trkpt><trkpt lat="43.45110804108611" lon="11.953883123986408"><ele>667.5999999999999</ele><time>2026-04-12T11:03:44.998Z</time></trkpt><trkpt lat="43.45101924084315" lon="11.953856945371164"><ele>669.2</ele><time>2026-04-12T11:03:45.998Z</time></trkpt><trkpt lat="43.450933630811015" lon="11.953831768419791"><ele>670.8</ele><time>2026-04-12T11:03:46.998Z</time></trkpt><trkpt lat="43.4508622259257" lon="11.953801005269353"><ele>672.4000000000001</ele><time>2026-04-12T11:03:47.998Z</time></trkpt><trkpt lat="43.45075611579139" lon="11.953775528448409"><ele>674.0</ele><time>2026-04-12T11:03:48.998Z</time></trkpt><trkpt lat="43.4506693064312" lon="11.953746624483296"><ele>674.0</ele><time>2026-04-12T11:03:49.998Z</time></trkpt><trkpt lat="43.450596193036496" lon="11.953710689361673"><ele>674.0</ele><time>2026-04-12T11:03:50.998Z</time></trkpt><trkpt lat="43.450529495927285" lon="11.953670446192634"><ele>674.0</ele><time>2026-04-12T11:03:51.998Z</time></trkpt><trkpt lat="43.45045301160223" lon="11.953600655655402"><ele>674.0</ele><time>2026-04-12T11:03:52.998Z</time></trkpt><trkpt lat="43.45037734223476" lon="11.953488000837577"><ele>674.0</ele><time>2026-04-12T11:03:53.998Z</time></trkpt><trkpt lat="43.450315968159764" lon="11.953392742041803"><ele>674.0</ele><time>2026-04-12T11:03:54.998Z</time></trkpt><trkpt lat="43.45025675259187" lon="11.953293408695036"><ele>676.8000000000001</ele><time>2026-04-12T11:03:55.998Z</time></trkpt><trkpt lat="43.45017956746497" lon="11.953208069636544"><ele>679.6</ele><time>2026-04-12T11:03:56.998Z</time></trkpt><trkpt lat="43.450091557931266" lon="11.9531426573129"><ele>682.4</ele><time>2026-04-12T11:03:57.998Z</time></trkpt><trkpt lat="43.449998494645875" lon="11.953062487032543"><ele>685.2</ele><time>2026-04-12T11:03:58.998Z</time></trkpt><trkpt lat="43.44990592061465" lon="11.952985905045384"><ele>688.0</ele><time>2026-04-12T11:03:59.998Z</time></trkpt><trkpt lat="43.44981444526166" lon="11.952910677875543"><ele>688.0</ele><time>2026-04-12T11:04:00.998Z</time></trkpt><trkpt lat="43.44975072471747" lon="11.952848494373688"><ele>688.0</ele><time>2026-04-12T11:04:01.998Z</time></trkpt><trkpt lat="43.449687373403336" lon="11.95278743534231"><ele>688.0</ele><time>2026-04-12T11:04:03Z</time></trkpt><trkpt lat="43.44962170083917" lon="11.952757342633175"><ele>688.0</ele><time>2026-04-12T11:04:04Z</time></trkpt><trkpt lat="43.44954716539673" lon="11.952739007787452"><ele>688.0</ele><time>2026-04-12T11:04:05Z</time></trkpt><trkpt lat="43.44943997120962" lon="11.952685552792323"><ele>688.0</ele><time>2026-04-12T11:04:07Z</time></trkpt><trkpt lat="43.44935239928274" lon="11.952742131067836"><ele>686.3333333333334</ele><time>2026-04-12T11:04:09Z</time></trkpt><trkpt lat="43.449296235443" lon="11.952796212441637"><ele>684.6666666666667</ele><time>2026-04-12T11:04:10Z</time></trkpt><trkpt lat="43.4491933014287" lon="11.952863273974726"><ele>683.0</ele><time>2026-04-12T11:04:12Z</time></trkpt><trkpt lat="43.44909837231963" lon="11.95293750280259"><ele>681.3333333333334</ele><time>2026-04-12T11:04:14Z</time></trkpt><trkpt lat="43.44904191934278" lon="11.95298219607298"><ele>679.6666666666666</ele><time>2026-04-12T11:04:15Z</time></trkpt><trkpt lat="43.44897179802001" lon="11.953016567853386"><ele>678.0</ele><time>2026-04-12T11:04:16Z</time></trkpt><trkpt lat="43.448914382552545" lon="11.953053982204821"><ele>678.0</ele><time>2026-04-12T11:04:17Z</time></trkpt><trkpt lat="43.44882643614813" lon="11.953146369938793"><ele>678.0</ele><time>2026-04-12T11:04:19Z</time></trkpt><trkpt lat="43.44877161858114" lon="11.953279923826868"><ele>678.0</ele><time>2026-04-12T11:04:21Z</time></trkpt><trkpt lat="43.44873611424305" lon="11.953421673045352"><ele>678.0</ele><time>2026-04-12T11:04:23Z</time></trkpt><trkpt lat="43.448726116033164" lon="11.953551124451945"><ele>678.0</ele><time>2026-04-12T11:04:25Z</time></trkpt><trkpt lat="43.44867448768027" lon="11.953634606212956"><ele>673.4</ele><time>2026-04-12T11:04:27Z</time></trkpt><trkpt lat="43.44855223745866" lon="11.953580737942456"><ele>668.8</ele><time>2026-04-12T11:04:29Z</time></trkpt><trkpt lat="43.44843572156451" lon="11.953636087215482"><ele>664.2</ele><time>2026-04-12T11:04:31Z</time></trkpt><trkpt lat="43.44835079247364" lon="11.953666490955902"><ele>659.6</ele><time>2026-04-12T11:04:32Z</time></trkpt><trkpt lat="43.44828894373889" lon="11.953685363270937"><ele>655.0</ele><time>2026-04-12T11:04:33Z</time></trkpt><trkpt lat="43.448221022939" lon="11.953781024192226"><ele>655.0</ele><time>2026-04-12T11:04:35Z</time></trkpt><trkpt lat="43.4482423490171" lon="11.953874464181595"><ele>655.0</ele><time>2026-04-12T11:04:36Z</time></trkpt><trkpt lat="43.44825950755681" lon="11.953960968623301"><ele>655.0</ele><time>2026-04-12T11:04:37Z</time></trkpt><trkpt lat="43.448215081760885" lon="11.95406391421859"><ele>655.0</ele><time>2026-04-12T11:04:39Z</time></trkpt><trkpt lat="43.44812179874365" lon="11.95412364012234"><ele>655.0</ele><time>2026-04-12T11:04:41Z</time></trkpt><trkpt lat="43.44804807468715" lon="11.954092655201004"><ele>655.0</ele><time>2026-04-12T11:04:42Z</time></trkpt><trkpt lat="43.44795020580122" lon="11.954040380855778"><ele>654.6</ele><time>2026-04-12T11:04:43Z</time></trkpt><trkpt lat="43.44787014806346" lon="11.95398422244892"><ele>654.2</ele><time>2026-04-12T11:04:43.999Z</time></trkpt><trkpt lat="43.447784169522635" lon="11.953908964218078"><ele>653.8</ele><time>2026-04-12T11:04:44.999Z</time></trkpt><trkpt lat="43.44769653151395" lon="11.953852606114989"><ele>653.4</ele><time>2026-04-12T11:04:45.999Z</time></trkpt><trkpt lat="43.44760583076189" lon="11.95383117845122"><ele>653.0</ele><time>2026-04-12T11:04:46.999Z</time></trkpt><trkpt lat="43.44750847379949" lon="11.953830681531374"><ele>653.0</ele><time>2026-04-12T11:04:47.999Z</time></trkpt><trkpt lat="43.44741692912262" lon="11.953850882016557"><ele>653.0</ele><time>2026-04-12T11:04:48.999Z</time></trkpt><trkpt lat="43.44733818620735" lon="11.953870419812365"><ele>653.0</ele><time>2026-04-12T11:04:49.999Z</time></trkpt><trkpt lat="43.44723466317264" lon="11.953861115388278"><ele>653.0</ele><time>2026-04-12T11:04:51.999Z</time></trkpt><trkpt lat="43.447164394915106" lon="11.953845518807178"><ele>653.0</ele><time>2026-04-12T11:04:53.999Z</time></trkpt><trkpt lat="43.44706401374126" lon="11.953952598419296"><ele>653.5</ele><time>2026-04-12T11:04:55.999Z</time></trkpt><trkpt lat="43.44701484592529" lon="11.95401855806779"><ele>654.0</ele><time>2026-04-12T11:04:56.999Z</time></trkpt><trkpt lat="43.446961432726866" lon="11.954079489316292"><ele>654.5</ele><time>2026-04-12T11:04:57.999Z</time></trkpt><trkpt lat="43.44686898229782" lon="11.95413053367969"><ele>655.0</ele><time>2026-04-12T11:04:58.999Z</time></trkpt><trkpt lat="43.44678726059359" lon="11.954143254751637"><ele>655.5</ele><time>2026-04-12T11:04:59.999Z</time></trkpt><trkpt lat="43.446702021855884" lon="11.954166420863752"><ele>656.0</ele><time>2026-04-12T11:05:00.999Z</time></trkpt><trkpt lat="43.44661779888001" lon="11.95420831456647"><ele>657.1666666666666</ele><time>2026-04-12T11:05:01.999Z</time></trkpt><trkpt lat="43.4465257379899" lon="11.954233042412106"><ele>658.3333333333333</ele><time>2026-04-12T11:05:02.999Z</time></trkpt><trkpt lat="43.44644676492772" lon="11.954276077765247"><ele>659.5</ele><time>2026-04-12T11:05:03.999Z</time></trkpt><trkpt lat="43.446376878989355" lon="11.954332209498283"><ele>660.6666666666666</ele><time>2026-04-12T11:05:04.999Z</time></trkpt><trkpt lat="43.44631193471642" lon="11.954418314172232"><ele>661.8333333333334</ele><time>2026-04-12T11:05:05.999Z</time></trkpt><trkpt lat="43.446257174909434" lon="11.954512289541782"><ele>663.0</ele><time>2026-04-12T11:05:06.999Z</time></trkpt><trkpt lat="43.44620068718228" lon="11.954603474582937"><ele>663.6666666666666</ele><time>2026-04-12T11:05:07.999Z</time></trkpt><trkpt lat="43.44613771024043" lon="11.95467872384177"><ele>664.3333333333334</ele><time>2026-04-12T11:05:08.999Z</time></trkpt><trkpt lat="43.44606080407906" lon="11.954697218390606"><ele>665.0</ele><time>2026-04-12T11:05:09.999Z</time></trkpt><trkpt lat="43.44597409665911" lon="11.954688288727155"><ele>665.6666666666667</ele><time>2026-04-12T11:05:10.999Z</time></trkpt><trkpt lat="43.4458853316664" lon="11.95466188598865"><ele>666.3333333333334</ele><time>2026-04-12T11:05:11.999Z</time></trkpt><trkpt lat="43.445800999377326" lon="11.954641209716398"><ele>667.0</ele><time>2026-04-12T11:05:12.999Z</time></trkpt><trkpt lat="43.44571925622063" lon="11.954619510907866"><ele>667.0</ele><time>2026-04-12T11:05:13.999Z</time></trkpt><trkpt lat="43.44564320545141" lon="11.954607667794845"><ele>667.0</ele><time>2026-04-12T11:05:14.999Z</time></trkpt><trkpt lat="43.44555859456664" lon="11.954596142051747"><ele>667.0</ele><time>2026-04-12T11:05:15.999Z</time></trkpt><trkpt lat="43.44545851735372" lon="11.954599853776337"><ele>667.0</ele><time>2026-04-12T11:05:16.999Z</time></trkpt><trkpt lat="43.44537364341804" lon="11.954612139276225"><ele>667.0</ele><time>2026-04-12T11:05:17.999Z</time></trkpt><trkpt lat="43.44528522745917" lon="11.954624302951132"><ele>667.0</ele><time>2026-04-12T11:05:18.999Z</time></trkpt><trkpt lat="43.44519238182538" lon="11.95470628520277"><ele>665.6</ele><time>2026-04-12T11:05:20.999Z</time></trkpt><trkpt lat="43.44508563858774" lon="11.954783590997486"><ele>664.2</ele><time>2026-04-12T11:05:22.999Z</time></trkpt><trkpt lat="43.444991016237175" lon="11.954773736041407"><ele>662.8</ele><time>2026-04-12T11:05:23.999Z</time></trkpt><trkpt lat="43.4448815465868" lon="11.95478275386786"><ele>661.4</ele><time>2026-04-12T11:05:24.999Z</time></trkpt><trkpt lat="43.44478008910366" lon="11.954793228226714"><ele>660.0</ele><time>2026-04-12T11:05:25.999Z</time></trkpt><trkpt lat="43.44470318296201" lon="11.954808654718319"><ele>660.0</ele><time>2026-04-12T11:05:26.999Z</time></trkpt><trkpt lat="43.44463580135248" lon="11.95483021047049"><ele>660.0</ele><time>2026-04-12T11:05:27.999Z</time></trkpt><trkpt lat="43.44457163912763" lon="11.954888048974574"><ele>660.0</ele><time>2026-04-12T11:07:19.999Z</time></trkpt><trkpt lat="43.44448505887623" lon="11.954970900504215"><ele>660.0</ele><time>2026-04-12T11:07:21.999Z</time></trkpt><trkpt lat="43.444425325709" lon="11.955042033730878"><ele>660.0</ele><time>2026-04-12T11:07:22.999Z</time></trkpt><trkpt lat="43.444360920700326" lon="11.955125804168402"><ele>660.0</ele><time>2026-04-12T11:07:23.999Z</time></trkpt><trkpt lat="43.44431898139789" lon="11.9552082204101"><ele>659.4</ele><time>2026-04-12T11:07:24.999Z</time></trkpt><trkpt lat="43.44427169888918" lon="11.955273970705969"><ele>658.8</ele><time>2026-04-12T11:07:25.999Z</time></trkpt><trkpt lat="43.4441823935706" lon="11.955381981806985"><ele>658.2</ele><time>2026-04-12T11:07:27.999Z</time></trkpt><trkpt lat="43.44410966483036" lon="11.955530376437492"><ele>657.6</ele><time>2026-04-12T11:07:29.999Z</time></trkpt><trkpt lat="43.44401828780054" lon="11.955659485443427"><ele>657.0</ele><time>2026-04-12T11:07:31.999Z</time></trkpt><trkpt lat="43.44395037684982" lon="11.955751126140274"><ele>655.6</ele><time>2026-04-12T11:07:33.999Z</time></trkpt><trkpt lat="43.44390635950472" lon="11.955887797401365"><ele>654.2</ele><time>2026-04-12T11:07:35.999Z</time></trkpt><trkpt lat="43.44387444333338" lon="11.955970458235813"><ele>652.8</ele><time>2026-04-12T11:07:36.999Z</time></trkpt><trkpt lat="43.44381529669072" lon="11.956117805140208"><ele>651.4</ele><time>2026-04-12T11:07:38.999Z</time></trkpt><trkpt lat="43.44378539680912" lon="11.956255248050553"><ele>650.0</ele><time>2026-04-12T11:07:40.999Z</time></trkpt><trkpt lat="43.44373851007769" lon="11.956421709157997"><ele>650.0</ele><time>2026-04-12T11:07:43.999Z</time></trkpt><trkpt lat="43.443661851757554" lon="11.956463601190668"><ele>650.0</ele><time>2026-04-12T11:07:45.999Z</time></trkpt><trkpt lat="43.44359985532265" lon="11.956437295113012"><ele>650.0</ele><time>2026-04-12T11:07:48.999Z</time></trkpt><trkpt lat="43.44360174226139" lon="11.956343091268867"><ele>650.0</ele><time>2026-04-12T11:07:50.999Z</time></trkpt><trkpt lat="43.44361008864667" lon="11.956246190901501"><ele>650.0</ele><time>2026-04-12T11:07:52.999Z</time></trkpt><trkpt lat="43.44361109343229" lon="11.9561325567186"><ele>650.0</ele><time>2026-04-12T11:07:54.999Z</time></trkpt><trkpt lat="43.44360026326902" lon="11.955966139264751"><ele>650.0</ele><time>2026-04-12T11:07:56.998Z</time></trkpt><trkpt lat="43.443589558266765" lon="11.955873190272456"><ele>650.0</ele><time>2026-04-12T11:07:57.998Z</time></trkpt><trkpt lat="43.44359234902096" lon="11.955774552998221"><ele>650.0</ele><time>2026-04-12T11:07:58.998Z</time></trkpt><trkpt lat="43.443536468051704" lon="11.955638800318768"><ele>650.0</ele><time>2026-04-12T11:08:00.998Z</time></trkpt><trkpt lat="43.443567607826374" lon="11.955529276069115"><ele>650.0</ele><time>2026-04-12T11:08:02.998Z</time></trkpt><trkpt lat="43.44360578415286" lon="11.955437883835469"><ele>650.0</ele><time>2026-04-12T11:08:04.998Z</time></trkpt><trkpt lat="43.44361137252245" lon="11.955306521394503"><ele>653.0</ele><time>2026-04-12T11:08:06.998Z</time></trkpt><trkpt lat="43.44363341590995" lon="11.955223650338693"><ele>656.0</ele><time>2026-04-12T11:08:07.998Z</time></trkpt><trkpt lat="43.44365769295696" lon="11.955125709104353"><ele>659.0</ele><time>2026-04-12T11:08:08.998Z</time></trkpt><trkpt lat="43.44367992331989" lon="11.955019013439047"><ele>662.0</ele><time>2026-04-12T11:08:09.998Z</time></trkpt><trkpt lat="43.44368570024362" lon="11.954908892457315"><ele>665.0</ele><time>2026-04-12T11:08:10.998Z</time></trkpt><trkpt lat="43.44369466374348" lon="11.954793854845578"><ele>668.0</ele><time>2026-04-12T11:08:11.998Z</time></trkpt><trkpt lat="43.443718558718615" lon="11.954696421144561"><ele>669.0</ele><time>2026-04-12T11:08:12.998Z</time></trkpt><trkpt lat="43.443729764995666" lon="11.954575488821185"><ele>670.0</ele><time>2026-04-12T11:08:13.998Z</time></trkpt><trkpt lat="43.443768631345975" lon="11.954483966355838"><ele>671.0</ele><time>2026-04-12T11:08:15Z</time></trkpt><trkpt lat="43.443822415120366" lon="11.954384414558016"><ele>672.0</ele><time>2026-04-12T11:08:16Z</time></trkpt><trkpt lat="43.443877503500424" lon="11.954274226534531"><ele>673.0</ele><time>2026-04-12T11:08:17Z</time></trkpt><trkpt lat="43.4438848190186" lon="11.954181599924652"><ele>674.0</ele><time>2026-04-12T11:08:18Z</time></trkpt><trkpt lat="43.44391174415754" lon="11.954069281263685"><ele>676.8333333333333</ele><time>2026-04-12T11:08:19Z</time></trkpt><trkpt lat="43.44394140031306" lon="11.953975769175443"><ele>679.6666666666666</ele><time>2026-04-12T11:08:20Z</time></trkpt><trkpt lat="43.4439739570378" lon="11.953874617156417"><ele>682.5</ele><time>2026-04-12T11:08:21Z</time></trkpt><trkpt lat="43.44399447091751" lon="11.953791958951328"><ele>685.3333333333334</ele><time>2026-04-12T11:08:22Z</time></trkpt><trkpt lat="43.44396860633035" lon="11.953617915976203"><ele>688.1666666666667</ele><time>2026-04-12T11:08:24Z</time></trkpt><trkpt lat="43.44395594480338" lon="11.953524107887878"><ele>691.0</ele><time>2026-04-12T11:08:25Z</time></trkpt><trkpt lat="43.44392507199123" lon="11.953413133569502"><ele>692.5</ele><time>2026-04-12T11:08:27Z</time></trkpt><trkpt lat="43.443888865251864" lon="11.953290824310278"><ele>694.0</ele><time>2026-04-12T11:08:29Z</time></trkpt><trkpt lat="43.44385253604194" lon="11.953207979662709"><ele>695.5</ele><time>2026-04-12T11:08:30Z</time></trkpt><trkpt lat="43.44380910027234" lon="11.95314085548019"><ele>697.0</ele><time>2026-04-12T11:08:31Z</time></trkpt><trkpt lat="43.44377067349091" lon="11.953070263062516"><ele>698.5</ele><time>2026-04-12T11:08:32Z</time></trkpt><trkpt lat="43.443680852928196" lon="11.952989211263526"><ele>700.0</ele><time>2026-04-12T11:08:34Z</time></trkpt><trkpt lat="43.443583622276655" lon="11.952902296664769"><ele>700.0</ele><time>2026-04-12T11:08:36Z</time></trkpt><trkpt lat="43.4435003912026" lon="11.952826834381387"><ele>700.0</ele><time>2026-04-12T11:08:38Z</time></trkpt><trkpt lat="43.443439127842026" lon="11.952782268307505"><ele>700.0</ele><time>2026-04-12T11:08:39Z</time></trkpt><trkpt lat="43.44335282446374" lon="11.952720927020613"><ele>700.0</ele><time>2026-04-12T11:08:40Z</time></trkpt><trkpt lat="43.44327672916672" lon="11.952689403526863"><ele>700.0</ele><time>2026-04-12T11:08:41Z</time></trkpt><trkpt lat="43.44319209573016" lon="11.952685869294685"><ele>700.0</ele><time>2026-04-12T11:08:42Z</time></trkpt><trkpt lat="43.44311746691648" lon="11.952672315766279"><ele>700.0</ele><time>2026-04-12T11:08:43Z</time></trkpt><trkpt lat="43.44306440518339" lon="11.952625647995959"><ele>700.0</ele><time>2026-04-12T11:08:44Z</time></trkpt><trkpt lat="43.44299174427566" lon="11.952569793604455"><ele>700.0</ele><time>2026-04-12T11:08:45Z</time></trkpt><trkpt lat="43.44291335140456" lon="11.95251901490346"><ele>700.0</ele><time>2026-04-12T11:08:46Z</time></trkpt><trkpt lat="43.44282049150762" lon="11.952448596208638"><ele>700.0</ele><time>2026-04-12T11:08:47Z</time></trkpt><trkpt lat="43.4427430897452" lon="11.952402286870262"><ele>700.0</ele><time>2026-04-12T11:08:48Z</time></trkpt><trkpt lat="43.44265875841942" lon="11.952365316208429"><ele>702.2</ele><time>2026-04-12T11:08:49Z</time></trkpt><trkpt lat="43.44256010889017" lon="11.95231425498333"><ele>704.4</ele><time>2026-04-12T11:08:50Z</time></trkpt><trkpt lat="43.44246107271342" lon="11.952246966149339"><ele>706.5999999999999</ele><time>2026-04-12T11:08:51Z</time></trkpt><trkpt lat="43.4423779973843" lon="11.952185235301368"><ele>708.8</ele><time>2026-04-12T11:08:52Z</time></trkpt><trkpt lat="43.442289202580355" lon="11.952125685910882"><ele>711.0</ele><time>2026-04-12T11:08:53Z</time></trkpt><trkpt lat="43.4421891845394" lon="11.95204765160779"><ele>708.0</ele><time>2026-04-12T11:08:54Z</time></trkpt><trkpt lat="43.44207720939087" lon="11.951970988321557"><ele>705.0</ele><time>2026-04-12T11:08:55Z</time></trkpt><trkpt lat="43.44196274376417" lon="11.951907355647615"><ele>702.0</ele><time>2026-04-12T11:08:56Z</time></trkpt><trkpt lat="43.44184811945273" lon="11.951834146440035"><ele>699.0</ele><time>2026-04-12T11:08:56.999Z</time></trkpt><trkpt lat="43.44173876007767" lon="11.951764053516763"><ele>699.0</ele><time>2026-04-12T11:08:57.999Z</time></trkpt><trkpt lat="43.44165893153821" lon="11.951708524787525"><ele>699.0</ele><time>2026-04-12T11:08:58.999Z</time></trkpt><trkpt lat="43.4416002002594" lon="11.951657549976316"><ele>699.0</ele><time>2026-04-12T11:08:59.999Z</time></trkpt><trkpt lat="43.44154039483649" lon="11.951520379397268"><ele>699.0</ele><time>2026-04-12T11:09:01.999Z</time></trkpt><trkpt lat="43.44144682389603" lon="11.951509267192526"><ele>699.0</ele><time>2026-04-12T11:09:03.999Z</time></trkpt><trkpt lat="43.4413782815778" lon="11.951419186333126"><ele>699.8000000000001</ele><time>2026-04-12T11:09:05.999Z</time></trkpt><trkpt lat="43.44131233909941" lon="11.951282258655496"><ele>700.6</ele><time>2026-04-12T11:09:07.999Z</time></trkpt><trkpt lat="43.441272767993205" lon="11.951180316004871"><ele>701.4</ele><time>2026-04-12T11:09:08.999Z</time></trkpt><trkpt lat="43.44124880565821" lon="11.951057817286218"><ele>702.2</ele><time>2026-04-12T11:09:09.999Z</time></trkpt><trkpt lat="43.44119244957656" lon="11.950913888480532"><ele>703.0</ele><time>2026-04-12T11:09:10.999Z</time></trkpt><trkpt lat="43.4411183404145" lon="11.950810321533176"><ele>705.8333333333334</ele><time>2026-04-12T11:09:11.999Z</time></trkpt><trkpt lat="43.44104302736906" lon="11.950717557421973"><ele>708.6666666666667</ele><time>2026-04-12T11:09:12.999Z</time></trkpt><trkpt lat="43.44099116834101" lon="11.950645611225772"><ele>711.5</ele><time>2026-04-12T11:09:13.999Z</time></trkpt><trkpt lat="43.440935313942475" lon="11.950591529936851"><ele>714.3333333333334</ele><time>2026-04-12T11:09:14.999Z</time></trkpt><trkpt lat="43.44086952613288" lon="11.950564777677068"><ele>717.1666666666666</ele><time>2026-04-12T11:09:15.999Z</time></trkpt><trkpt lat="43.44079232193912" lon="11.95053407957586"><ele>720.0</ele><time>2026-04-12T11:09:16.999Z</time></trkpt><trkpt lat="43.44070657866989" lon="11.950520198400906"><ele>720.0</ele><time>2026-04-12T11:09:17.999Z</time></trkpt><trkpt lat="43.44056658493228" lon="11.950520209665175"><ele>720.0</ele><time>2026-04-12T11:09:19.999Z</time></trkpt><trkpt lat="43.440478313046604" lon="11.95047635047078"><ele>720.0</ele><time>2026-04-12T11:09:20.999Z</time></trkpt><trkpt lat="43.44036648301882" lon="11.95040038222117"><ele>720.0</ele><time>2026-04-12T11:09:22.999Z</time></trkpt><trkpt lat="43.4402797586661" lon="11.950320114533023"><ele>718.6666666666666</ele><time>2026-04-12T11:09:23.999Z</time></trkpt><trkpt lat="43.4402024335388" lon="11.950250256262134"><ele>717.3333333333334</ele><time>2026-04-12T11:09:24.999Z</time></trkpt><trkpt lat="43.4401416648536" lon="11.950204513341909"><ele>716.0</ele><time>2026-04-12T11:09:25.999Z</time></trkpt><trkpt lat="43.44007870396067" lon="11.950153688226766"><ele>714.6666666666667</ele><time>2026-04-12T11:09:26.999Z</time></trkpt><trkpt lat="43.440000937083276" lon="11.95009108924715"><ele>713.3333333333334</ele><time>2026-04-12T11:09:27.999Z</time></trkpt><trkpt lat="43.43991686803995" lon="11.950024323736539"><ele>712.0</ele><time>2026-04-12T11:09:28.999Z</time></trkpt><trkpt lat="43.43982980433314" lon="11.949965973474749"><ele>713.5</ele><time>2026-04-12T11:09:29.999Z</time></trkpt><trkpt lat="43.43973789978411" lon="11.949899761542355"><ele>715.0</ele><time>2026-04-12T11:09:30.999Z</time></trkpt><trkpt lat="43.43965920783218" lon="11.949835989011449"><ele>716.5</ele><time>2026-04-12T11:09:31.999Z</time></trkpt><trkpt lat="43.43959836082447" lon="11.949794087756148"><ele>718.0</ele><time>2026-04-12T11:09:32.999Z</time></trkpt><trkpt lat="43.439528724796304" lon="11.949736745217075"><ele>719.5</ele><time>2026-04-12T11:09:33.999Z</time></trkpt><trkpt lat="43.439452570463175" lon="11.94968217131356"><ele>721.0</ele><time>2026-04-12T11:09:34.999Z</time></trkpt><trkpt lat="43.43938163399917" lon="11.949632147671503"><ele>721.0</ele><time>2026-04-12T11:09:35.999Z</time></trkpt><trkpt lat="43.43928656944351" lon="11.949570676077938"><ele>721.0</ele><time>2026-04-12T11:09:36.999Z</time></trkpt><trkpt lat="43.439182251691214" lon="11.949502969755148"><ele>721.0</ele><time>2026-04-12T11:09:37.999Z</time></trkpt><trkpt lat="43.43909923919398" lon="11.949443982263562"><ele>721.0</ele><time>2026-04-12T11:09:38.999Z</time></trkpt><trkpt lat="43.43901795691597" lon="11.949380852225541"><ele>721.0</ele><time>2026-04-12T11:09:39.999Z</time></trkpt><trkpt lat="43.43894610651223" lon="11.94932030368544"><ele>721.0</ele><time>2026-04-12T11:09:40.999Z</time></trkpt><trkpt lat="43.43887064263532" lon="11.949273801520858"><ele>721.0</ele><time>2026-04-12T11:09:41.999Z</time></trkpt><trkpt lat="43.438802570358654" lon="11.949234147944502"><ele>721.0</ele><time>2026-04-12T11:09:42.999Z</time></trkpt><trkpt lat="43.43873340597027" lon="11.94918964682599"><ele>721.0</ele><time>2026-04-12T11:09:43.999Z</time></trkpt><trkpt lat="43.438658374081875" lon="11.94913548406481"><ele>721.0</ele><time>2026-04-12T11:09:44.999Z</time></trkpt><trkpt lat="43.438585703259655" lon="11.949044660923246"><ele>721.0</ele><time>2026-04-12T11:09:45.999Z</time></trkpt><trkpt lat="43.438509421439576" lon="11.948958697829697"><ele>720.4</ele><time>2026-04-12T11:09:46.999Z</time></trkpt><trkpt lat="43.43842562666471" lon="11.948899701897162"><ele>719.8</ele><time>2026-04-12T11:09:47.999Z</time></trkpt><trkpt lat="43.43835821076133" lon="11.948840605612975"><ele>719.1999999999999</ele><time>2026-04-12T11:09:48.999Z</time></trkpt><trkpt lat="43.43829001896201" lon="11.948765375411654"><ele>718.5999999999999</ele><time>2026-04-12T11:09:49.999Z</time></trkpt><trkpt lat="43.43821641001225" lon="11.948679173095785"><ele>718.0</ele><time>2026-04-12T11:09:50.999Z</time></trkpt><trkpt lat="43.4381512394423" lon="11.94857420165645"><ele>718.0</ele><time>2026-04-12T11:09:51.999Z</time></trkpt><trkpt lat="43.43808366689123" lon="11.948486094458703"><ele>718.0</ele><time>2026-04-12T11:09:52.999Z</time></trkpt><trkpt lat="43.438020413766246" lon="11.948404403874605"><ele>718.0</ele><time>2026-04-12T11:09:53.999Z</time></trkpt><trkpt lat="43.43797010640577" lon="11.948350202103118"><ele>718.0</ele><time>2026-04-12T11:09:54.999Z</time></trkpt><trkpt lat="43.43791132961388" lon="11.948272943660466"><ele>718.0</ele><time>2026-04-12T11:09:55.999Z</time></trkpt><trkpt lat="43.43784759850373" lon="11.94820436202267"><ele>718.0</ele><time>2026-04-12T11:09:56.999Z</time></trkpt><trkpt lat="43.43776632084729" lon="11.948171626309236"><ele>715.3333333333334</ele><time>2026-04-12T11:09:57.999Z</time></trkpt><trkpt lat="43.43770975137073" lon="11.948124287846092"><ele>712.6666666666667</ele><time>2026-04-12T11:09:58.999Z</time></trkpt><trkpt lat="43.43766378620038" lon="11.948042279658136"><ele>710.0</ele><time>2026-04-12T11:09:59.998Z</time></trkpt><trkpt lat="43.4376142452836" lon="11.9479644553532"><ele>707.3333333333334</ele><time>2026-04-12T11:10:00.998Z</time></trkpt><trkpt lat="43.43757302513779" lon="11.947896005269772"><ele>704.6666666666666</ele><time>2026-04-12T11:10:01.998Z</time></trkpt><trkpt lat="43.437480253704656" lon="11.94782354515014"><ele>702.0</ele><time>2026-04-12T11:10:03.998Z</time></trkpt><trkpt lat="43.437390552983764" lon="11.947750489729442"><ele>702.0</ele><time>2026-04-12T11:10:05.998Z</time></trkpt><trkpt lat="43.437267841352515" lon="11.947695686516017"><ele>702.0</ele><time>2026-04-12T11:10:07.998Z</time></trkpt><trkpt lat="43.43717688187535" lon="11.947756504033618"><ele>702.0</ele><time>2026-04-12T11:10:09.998Z</time></trkpt><trkpt lat="43.43706733722369" lon="11.947725355098049"><ele>702.0</ele><time>2026-04-12T11:10:11.998Z</time></trkpt><trkpt lat="43.43696862587615" lon="11.94769633200014"><ele>702.0</ele><time>2026-04-12T11:10:13.998Z</time></trkpt><trkpt lat="43.436916193522435" lon="11.947624262207075"><ele>698.6666666666666</ele><time>2026-04-12T11:10:14.998Z</time></trkpt><trkpt lat="43.43687985129091" lon="11.947541213244191"><ele>695.3333333333334</ele><time>2026-04-12T11:10:15.998Z</time></trkpt><trkpt lat="43.43685303518772" lon="11.947455612174716"><ele>692.0</ele><time>2026-04-12T11:10:16.998Z</time></trkpt><trkpt lat="43.43683156035509" lon="11.947342914978135"><ele>688.6666666666667</ele><time>2026-04-12T11:10:17.998Z</time></trkpt><trkpt lat="43.43680929430046" lon="11.947249468758516"><ele>685.3333333333334</ele><time>2026-04-12T11:10:18.998Z</time></trkpt><trkpt lat="43.43676809485104" lon="11.947108139473924"><ele>682.0</ele><time>2026-04-12T11:10:21Z</time></trkpt><trkpt lat="43.43673967195255" lon="11.946968591436455"><ele>682.0</ele><time>2026-04-12T11:10:23Z</time></trkpt><trkpt lat="43.43669061009346" lon="11.946829947578488"><ele>682.0</ele><time>2026-04-12T11:10:25Z</time></trkpt><trkpt lat="43.43664415345281" lon="11.946762514781382"><ele>682.0</ele><time>2026-04-12T11:10:26Z</time></trkpt><trkpt lat="43.4365616740863" lon="11.946606834703632"><ele>682.0</ele><time>2026-04-12T11:10:28Z</time></trkpt><trkpt lat="43.43652529451565" lon="11.946510480505138"><ele>682.0</ele><time>2026-04-12T11:10:29Z</time></trkpt><trkpt lat="43.43649202193135" lon="11.94643088236473"><ele>681.0</ele><time>2026-04-12T11:10:30Z</time></trkpt><trkpt lat="43.43643356680469" lon="11.946322717184671"><ele>680.0</ele><time>2026-04-12T11:10:32Z</time></trkpt><trkpt lat="43.43637307852556" lon="11.946204866609342"><ele>679.0</ele><time>2026-04-12T11:10:34Z</time></trkpt><trkpt lat="43.436345085720134" lon="11.946070398530368"><ele>678.0</ele><time>2026-04-12T11:10:36Z</time></trkpt><trkpt lat="43.43633457233554" lon="11.94593721069422"><ele>677.0</ele><time>2026-04-12T11:10:38Z</time></trkpt><trkpt lat="43.43628368535962" lon="11.94583516511088"><ele>673.5</ele><time>2026-04-12T11:10:40Z</time></trkpt><trkpt lat="43.436214770021984" lon="11.945742181163308"><ele>670.0</ele><time>2026-04-12T11:10:42Z</time></trkpt><trkpt lat="43.43614283076015" lon="11.94564637221227"><ele>666.5</ele><time>2026-04-12T11:10:44Z</time></trkpt><trkpt lat="43.43608738123704" lon="11.945583260957408"><ele>663.0</ele><time>2026-04-12T11:10:45Z</time></trkpt><trkpt lat="43.43600753550723" lon="11.945534512074836"><ele>659.5</ele><time>2026-04-12T11:10:46Z</time></trkpt><trkpt lat="43.43592786366537" lon="11.945500463469074"><ele>656.0</ele><time>2026-04-12T11:10:47Z</time></trkpt><trkpt lat="43.43586365594736" lon="11.94547145701225"><ele>656.0</ele><time>2026-04-12T11:10:48Z</time></trkpt><trkpt lat="43.43578949319178" lon="11.945445141932842"><ele>656.0</ele><time>2026-04-12T11:10:49Z</time></trkpt><trkpt lat="43.43567312265594" lon="11.945382503011437"><ele>656.0</ele><time>2026-04-12T11:10:51Z</time></trkpt><trkpt lat="43.4356005900404" lon="11.94534323232011"><ele>656.0</ele><time>2026-04-12T11:10:52Z</time></trkpt><trkpt lat="43.43553455627332" lon="11.945269146782314"><ele>656.0</ele><time>2026-04-12T11:10:53Z</time></trkpt><trkpt lat="43.43549658955942" lon="11.94518997579237"><ele>656.0</ele><time>2026-04-12T11:10:54Z</time></trkpt><trkpt lat="43.4354460302333" lon="11.945101568117812"><ele>656.0</ele><time>2026-04-12T11:10:56Z</time></trkpt><trkpt lat="43.435432908173375" lon="11.945188764129469"><ele>656.0</ele><time>2026-04-12T11:11:16.999Z</time></trkpt><trkpt lat="43.43550268158862" lon="11.945304881830605"><ele>656.0</ele><time>2026-04-12T11:11:18.999Z</time></trkpt><trkpt lat="43.4355351424466" lon="11.94541848053493"><ele>656.0</ele><time>2026-04-12T11:11:19.999Z</time></trkpt><trkpt lat="43.43555465667199" lon="11.945563981195871"><ele>656.0</ele><time>2026-04-12T11:11:20.999Z</time></trkpt><trkpt lat="43.43555888156549" lon="11.945710461747261"><ele>656.0</ele><time>2026-04-12T11:11:21.999Z</time></trkpt><trkpt lat="43.4355502236799" lon="11.94582670590627"><ele>656.0</ele><time>2026-04-12T11:11:22.999Z</time></trkpt><trkpt lat="43.435568433407084" lon="11.946018454476079"><ele>656.0</ele><time>2026-04-12T11:11:24.999Z</time></trkpt><trkpt lat="43.43556035436004" lon="11.946169001043526"><ele>656.0</ele><time>2026-04-12T11:11:25.999Z</time></trkpt><trkpt lat="43.4355562823241" lon="11.946323533094134"><ele>656.0</ele><time>2026-04-12T11:11:26.999Z</time></trkpt><trkpt lat="43.43554468100389" lon="11.946482952128989"><ele>657.0</ele><time>2026-04-12T11:11:27.999Z</time></trkpt><trkpt lat="43.43553063683342" lon="11.946619202901273"><ele>658.0</ele><time>2026-04-12T11:11:28.999Z</time></trkpt><trkpt lat="43.43552534500138" lon="11.946754334312725"><ele>659.0</ele><time>2026-04-12T11:11:29.999Z</time></trkpt><trkpt lat="43.43549817872443" lon="11.94689407915077"><ele>660.0</ele><time>2026-04-12T11:11:30.999Z</time></trkpt><trkpt lat="43.43545923038689" lon="11.94702804931425"><ele>661.0</ele><time>2026-04-12T11:11:31.999Z</time></trkpt><trkpt lat="43.435426322836705" lon="11.94717434712648"><ele>658.1999999999999</ele><time>2026-04-12T11:11:32.999Z</time></trkpt><trkpt lat="43.43542697826581" lon="11.947318281208748"><ele>655.4</ele><time>2026-04-12T11:11:33.999Z</time></trkpt><trkpt lat="43.43544647294403" lon="11.947462870520184"><ele>652.6</ele><time>2026-04-12T11:11:34.999Z</time></trkpt><trkpt lat="43.435438573984094" lon="11.94762052664497"><ele>649.8</ele><time>2026-04-12T11:11:35.999Z</time></trkpt><trkpt lat="43.43543475079259" lon="11.947744378761806"><ele>647.0</ele><time>2026-04-12T11:11:36.999Z</time></trkpt><trkpt lat="43.435433738130804" lon="11.947871292125923"><ele>647.0</ele><time>2026-04-12T11:11:37.999Z</time></trkpt><trkpt lat="43.435457505771694" lon="11.947980262059009"><ele>647.0</ele><time>2026-04-12T11:11:38.999Z</time></trkpt><trkpt lat="43.435495761390825" lon="11.94810849282029"><ele>647.0</ele><time>2026-04-12T11:11:39.999Z</time></trkpt><trkpt lat="43.435510644228245" lon="11.948244231595911"><ele>647.0</ele><time>2026-04-12T11:11:40.999Z</time></trkpt><trkpt lat="43.435506271359344" lon="11.948377529468008"><ele>647.0</ele><time>2026-04-12T11:11:41.999Z</time></trkpt><trkpt lat="43.435499387842114" lon="11.948494829619168"><ele>648.8</ele><time>2026-04-12T11:11:42.999Z</time></trkpt><trkpt lat="43.435497029888175" lon="11.948607975444386"><ele>650.6</ele><time>2026-04-12T11:11:43.999Z</time></trkpt><trkpt lat="43.43551107643845" lon="11.948726709827179"><ele>652.4</ele><time>2026-04-12T11:11:44.999Z</time></trkpt><trkpt lat="43.435529369960854" lon="11.948860564686582"><ele>654.1999999999999</ele><time>2026-04-12T11:11:45.999Z</time></trkpt><trkpt lat="43.43553813219444" lon="11.949003760751882"><ele>656.0</ele><time>2026-04-12T11:11:46.999Z</time></trkpt><trkpt lat="43.43554744431564" lon="11.949153354364698"><ele>656.8</ele><time>2026-04-12T11:11:47.999Z</time></trkpt><trkpt lat="43.435554380417805" lon="11.949299935890275"><ele>657.5999999999999</ele><time>2026-04-12T11:11:48.999Z</time></trkpt><trkpt lat="43.43554175075588" lon="11.949447948156838"><ele>658.4</ele><time>2026-04-12T11:11:49.999Z</time></trkpt><trkpt lat="43.435508782712105" lon="11.949595567585893"><ele>659.2</ele><time>2026-04-12T11:11:50.999Z</time></trkpt><trkpt lat="43.435506458233824" lon="11.949737467269872"><ele>660.0</ele><time>2026-04-12T11:11:51.999Z</time></trkpt><trkpt lat="43.43551157078695" lon="11.949876185070615"><ele>660.0</ele><time>2026-04-12T11:11:52.999Z</time></trkpt><trkpt lat="43.43548570663546" lon="11.950010782178673"><ele>660.0</ele><time>2026-04-12T11:11:53.999Z</time></trkpt><trkpt lat="43.43543527476422" lon="11.950165277728795"><ele>660.0</ele><time>2026-04-12T11:11:54.999Z</time></trkpt><trkpt lat="43.435398261798625" lon="11.950317456159501"><ele>660.0</ele><time>2026-04-12T11:11:55.999Z</time></trkpt><trkpt lat="43.435354678583785" lon="11.95042435940206"><ele>660.0</ele><time>2026-04-12T11:11:56.999Z</time></trkpt><trkpt lat="43.435320783242695" lon="11.95057569383389"><ele>660.2</ele><time>2026-04-12T11:11:57.999Z</time></trkpt><trkpt lat="43.43527669752796" lon="11.950698163783297"><ele>660.4</ele><time>2026-04-12T11:11:58.999Z</time></trkpt><trkpt lat="43.43522276845732" lon="11.950803806043824"><ele>660.5999999999999</ele><time>2026-04-12T11:11:59.999Z</time></trkpt><trkpt lat="43.43510139213812" lon="11.950869961270925"><ele>660.8</ele><time>2026-04-12T11:12:01.999Z</time></trkpt><trkpt lat="43.435005904917425" lon="11.950879240564452"><ele>661.0</ele><time>2026-04-12T11:12:02.999Z</time></trkpt><trkpt lat="43.434932383725474" lon="11.95092043441066"><ele>661.0</ele><time>2026-04-12T11:12:03.999Z</time></trkpt><trkpt lat="43.43489337123467" lon="11.951013058502184"><ele>661.0</ele><time>2026-04-12T11:12:04.999Z</time></trkpt><trkpt lat="43.43486401955564" lon="11.951123331003473"><ele>661.0</ele><time>2026-04-12T11:12:05.999Z</time></trkpt><trkpt lat="43.43484028432702" lon="11.951246579463085"><ele>661.0</ele><time>2026-04-12T11:12:06.999Z</time></trkpt><trkpt lat="43.434840968834386" lon="11.951334019871304"><ele>661.0</ele><time>2026-04-12T11:12:07.999Z</time></trkpt><trkpt lat="43.43484740257932" lon="11.951471974965079"><ele>661.0</ele><time>2026-04-12T11:12:08.999Z</time></trkpt><trkpt lat="43.43483314894228" lon="11.951617411454196"><ele>661.8</ele><time>2026-04-12T11:12:09.999Z</time></trkpt><trkpt lat="43.4348318973475" lon="11.951906750500186"><ele>662.5999999999999</ele><time>2026-04-12T11:12:11.998Z</time></trkpt><trkpt lat="43.434821592466314" lon="11.952018009446906"><ele>663.4</ele><time>2026-04-12T11:12:12.998Z</time></trkpt><trkpt lat="43.43482101407667" lon="11.952117892784852"><ele>664.2</ele><time>2026-04-12T11:12:13.998Z</time></trkpt><trkpt lat="43.43480672294311" lon="11.952231256359523"><ele>665.0</ele><time>2026-04-12T11:12:14.998Z</time></trkpt><trkpt lat="43.434806818013605" lon="11.95238286501536"><ele>665.0</ele><time>2026-04-12T11:12:15.998Z</time></trkpt><trkpt lat="43.43480401003491" lon="11.952494906429338"><ele>665.0</ele><time>2026-04-12T11:12:16.998Z</time></trkpt><trkpt lat="43.43479793476485" lon="11.952624105838536"><ele>665.0</ele><time>2026-04-12T11:12:17.998Z</time></trkpt><trkpt lat="43.43476932400485" lon="11.952730061518622"><ele>665.0</ele><time>2026-04-12T11:12:18.998Z</time></trkpt><trkpt lat="43.434707936556535" lon="11.952805925436511"><ele>665.0</ele><time>2026-04-12T11:12:19.998Z</time></trkpt><trkpt lat="43.434628270403074" lon="11.952819127514381"><ele>665.0</ele><time>2026-04-12T11:12:20.998Z</time></trkpt><trkpt lat="43.43451837595692" lon="11.95283769713186"><ele>663.8333333333333</ele><time>2026-04-12T11:12:21.998Z</time></trkpt><trkpt lat="43.43444044592067" lon="11.9528962848526"><ele>662.6666666666666</ele><time>2026-04-12T11:12:22.998Z</time></trkpt><trkpt lat="43.43437210335666" lon="11.952964143383243"><ele>661.5</ele><time>2026-04-12T11:12:23.998Z</time></trkpt><trkpt lat="43.43430798556946" lon="11.953050770909126"><ele>660.3333333333334</ele><time>2026-04-12T11:12:24.998Z</time></trkpt><trkpt lat="43.43424507439054" lon="11.953144180315652"><ele>659.1666666666667</ele><time>2026-04-12T11:12:25.998Z</time></trkpt><trkpt lat="43.43418534759117" lon="11.953237347824714"><ele>658.0</ele><time>2026-04-12T11:12:27Z</time></trkpt><trkpt lat="43.43411097265854" lon="11.953316931151418"><ele>659.5</ele><time>2026-04-12T11:12:28Z</time></trkpt><trkpt lat="43.43404772268581" lon="11.953392228214918"><ele>661.0</ele><time>2026-04-12T11:12:29Z</time></trkpt><trkpt lat="43.43398281574377" lon="11.953446362469244"><ele>662.5</ele><time>2026-04-12T11:12:30Z</time></trkpt><trkpt lat="43.43390378322818" lon="11.9534739034896"><ele>664.0</ele><time>2026-04-12T11:12:31Z</time></trkpt><trkpt lat="43.433841369763186" lon="11.95353949661145"><ele>665.5</ele><time>2026-04-12T11:12:32Z</time></trkpt><trkpt lat="43.43379252954616" lon="11.953641822384094"><ele>667.0</ele><time>2026-04-12T11:12:33Z</time></trkpt><trkpt lat="43.43376572934266" lon="11.953763065545344"><ele>662.8</ele><time>2026-04-12T11:12:34Z</time></trkpt><trkpt lat="43.43375107048265" lon="11.953914515106794"><ele>658.6</ele><time>2026-04-12T11:12:35Z</time></trkpt><trkpt lat="43.43375535054584" lon="11.954070083962351"><ele>654.4</ele><time>2026-04-12T11:12:36Z</time></trkpt><trkpt lat="43.4337447463245" lon="11.954215397553057"><ele>650.1999999999999</ele><time>2026-04-12T11:12:37Z</time></trkpt><trkpt lat="43.4337486731364" lon="11.954347916336806"><ele>646.0</ele><time>2026-04-12T11:12:38Z</time></trkpt><trkpt lat="43.43378657542624" lon="11.954479427425241"><ele>648.0</ele><time>2026-04-12T11:12:39Z</time></trkpt><trkpt lat="43.433831085753816" lon="11.95465641066748"><ele>650.0</ele><time>2026-04-12T11:12:40Z</time></trkpt><trkpt lat="43.43386526914144" lon="11.954797649145616"><ele>652.0</ele><time>2026-04-12T11:12:41Z</time></trkpt><trkpt lat="43.433886505193016" lon="11.954935541043227"><ele>654.0</ele><time>2026-04-12T11:12:42Z</time></trkpt><trkpt lat="43.433902868565" lon="11.955083375282383"><ele>654.0</ele><time>2026-04-12T11:12:43Z</time></trkpt><trkpt lat="43.433902789809" lon="11.955214178839425"><ele>654.0</ele><time>2026-04-12T11:12:44Z</time></trkpt><trkpt lat="43.433878059096074" lon="11.955326614238507"><ele>654.0</ele><time>2026-04-12T11:12:45Z</time></trkpt><trkpt lat="43.433858296110486" lon="11.955454935018633"><ele>654.0</ele><time>2026-04-12T11:12:46Z</time></trkpt><trkpt lat="43.433850493601966" lon="11.95560481062543"><ele>654.0</ele><time>2026-04-12T11:12:47Z</time></trkpt><trkpt lat="43.43386193497057" lon="11.955738570272654"><ele>651.6</ele><time>2026-04-12T11:12:48Z</time></trkpt><trkpt lat="43.43386177815406" lon="11.955884801170955"><ele>649.2</ele><time>2026-04-12T11:12:49Z</time></trkpt><trkpt lat="43.43385490663678" lon="11.9560252622119"><ele>646.8000000000001</ele><time>2026-04-12T11:12:50Z</time></trkpt><trkpt lat="43.43385131991022" lon="11.956158687187065"><ele>644.4000000000001</ele><time>2026-04-12T11:12:51Z</time></trkpt><trkpt lat="43.43383588366723" lon="11.956282531458243"><ele>642.0</ele><time>2026-04-12T11:12:52Z</time></trkpt><trkpt lat="43.43382857791084" lon="11.95641455085829"><ele>642.0</ele><time>2026-04-12T11:12:53Z</time></trkpt><trkpt lat="43.433838971504784" lon="11.956545823648698"><ele>642.0</ele><time>2026-04-12T11:12:54Z</time></trkpt><trkpt lat="43.43386760787395" lon="11.956677374628011"><ele>642.0</ele><time>2026-04-12T11:12:55Z</time></trkpt><trkpt lat="43.43389418733694" lon="11.956812339013451"><ele>642.0</ele><time>2026-04-12T11:12:56Z</time></trkpt><trkpt lat="43.433951887566714" lon="11.956934454797096"><ele>642.0</ele><time>2026-04-12T11:12:57Z</time></trkpt><trkpt lat="43.4340265630461" lon="11.957070121088956"><ele>639.2</ele><time>2026-04-12T11:12:58Z</time></trkpt><trkpt lat="43.43407069677385" lon="11.957180221785903"><ele>636.4000000000001</ele><time>2026-04-12T11:12:59Z</time></trkpt><trkpt lat="43.43411547739265" lon="11.957277973379789"><ele>633.5999999999999</ele><time>2026-04-12T11:13:00Z</time></trkpt><trkpt lat="43.43417238550433" lon="11.957376944798126"><ele>630.8</ele><time>2026-04-12T11:13:01Z</time></trkpt><trkpt lat="43.434245387561816" lon="11.95747752119796"><ele>628.0</ele><time>2026-04-12T11:13:02Z</time></trkpt><trkpt lat="43.43433859118712" lon="11.9575924249946"><ele>626.0</ele><time>2026-04-12T11:13:03Z</time></trkpt><trkpt lat="43.434400435553435" lon="11.957703405573813"><ele>624.0</ele><time>2026-04-12T11:13:04Z</time></trkpt><trkpt lat="43.434452505798504" lon="11.957774237728804"><ele>622.0</ele><time>2026-04-12T11:13:05Z</time></trkpt><trkpt lat="43.43450378541109" lon="11.957841708775813"><ele>620.0</ele><time>2026-04-12T11:13:06Z</time></trkpt><trkpt lat="43.434553408185174" lon="11.957896939706764"><ele>618.0</ele><time>2026-04-12T11:13:07Z</time></trkpt><trkpt lat="43.43468338296289" lon="11.957953469334"><ele>616.0</ele><time>2026-04-12T11:13:09Z</time></trkpt><trkpt lat="43.43478127541349" lon="11.957967680326101"><ele>615.5</ele><time>2026-04-12T11:13:10Z</time></trkpt><trkpt lat="43.434864332087656" lon="11.9579766785459"><ele>615.0</ele><time>2026-04-12T11:13:11Z</time></trkpt><trkpt lat="43.43494574643573" lon="11.957995156017796"><ele>614.5</ele><time>2026-04-12T11:13:12Z</time></trkpt><trkpt lat="43.435024249539" lon="11.958007798954227"><ele>614.0</ele><time>2026-04-12T11:13:13Z</time></trkpt><trkpt lat="43.435099883545966" lon="11.95806222574969"><ele>613.5</ele><time>2026-04-12T11:13:14Z</time></trkpt><trkpt lat="43.43516931685821" lon="11.958109317194518"><ele>613.0</ele><time>2026-04-12T11:13:15Z</time></trkpt><trkpt lat="43.43524144236408" lon="11.958184564089757"><ele>613.0</ele><time>2026-04-12T11:13:15.999Z</time></trkpt><trkpt lat="43.43529742667599" lon="11.958272107098518"><ele>613.0</ele><time>2026-04-12T11:13:16.999Z</time></trkpt><trkpt lat="43.435353738079286" lon="11.958362189448074"><ele>613.0</ele><time>2026-04-12T11:13:17.999Z</time></trkpt><trkpt lat="43.43541139246753" lon="11.958428359992663"><ele>613.0</ele><time>2026-04-12T11:13:18.999Z</time></trkpt><trkpt lat="43.43550035588172" lon="11.958452300756553"><ele>613.0</ele><time>2026-04-12T11:13:20.999Z</time></trkpt><trkpt lat="43.4355431341778" lon="11.958385739951177"><ele>613.0</ele><time>2026-04-12T11:13:21.999Z</time></trkpt><trkpt lat="43.435622275409145" lon="11.958307859220758"><ele>609.3333333333334</ele><time>2026-04-12T11:13:23.999Z</time></trkpt><trkpt lat="43.43566264873075" lon="11.958378789001104"><ele>605.6666666666667</ele><time>2026-04-12T11:13:24.999Z</time></trkpt><trkpt lat="43.43566736985436" lon="11.958498243367393"><ele>602.0</ele><time>2026-04-12T11:13:25.999Z</time></trkpt><trkpt lat="43.43566001792489" lon="11.958638096430017"><ele>598.3333333333334</ele><time>2026-04-12T11:13:26.999Z</time></trkpt><trkpt lat="43.435660337947134" lon="11.958739442835276"><ele>594.6666666666666</ele><time>2026-04-12T11:13:27.999Z</time></trkpt><trkpt lat="43.43565639784612" lon="11.958829686442492"><ele>591.0</ele><time>2026-04-12T11:13:28.999Z</time></trkpt><trkpt lat="43.43566019770982" lon="11.958925529259396"><ele>591.0</ele><time>2026-04-12T11:13:29.999Z</time></trkpt><trkpt lat="43.43567370625442" lon="11.959039662830662"><ele>591.0</ele><time>2026-04-12T11:13:30.999Z</time></trkpt><trkpt lat="43.435689974419795" lon="11.959143531134805"><ele>591.0</ele><time>2026-04-12T11:13:31.999Z</time></trkpt><trkpt lat="43.43570134251018" lon="11.95923914079907"><ele>591.0</ele><time>2026-04-12T11:13:32.999Z</time></trkpt><trkpt lat="43.43567195834589" lon="11.959345586453829"><ele>591.0</ele><time>2026-04-12T11:13:34.999Z</time></trkpt><trkpt lat="43.43558811677234" lon="11.95933966794073"><ele>591.0</ele><time>2026-04-12T11:13:36.999Z</time></trkpt><trkpt lat="43.43552313344777" lon="11.959346914958482"><ele>591.2</ele><time>2026-04-12T11:13:39.999Z</time></trkpt><trkpt lat="43.435427877442095" lon="11.959312424910124"><ele>591.4000000000001</ele><time>2026-04-12T11:13:47.999Z</time></trkpt><trkpt lat="43.43536294244209" lon="11.959258232995536"><ele>591.6</ele><time>2026-04-12T11:13:48.999Z</time></trkpt><trkpt lat="43.43527484690756" lon="11.959205553375856"><ele>591.8000000000001</ele><time>2026-04-12T11:13:49.999Z</time></trkpt><trkpt lat="43.43518261833358" lon="11.959200187812474"><ele>592.0</ele><time>2026-04-12T11:13:50.999Z</time></trkpt><trkpt lat="43.435079338860746" lon="11.959184958416715"><ele>592.0</ele><time>2026-04-12T11:13:51.999Z</time></trkpt><trkpt lat="43.4349764484447" lon="11.959171825203628"><ele>592.0</ele><time>2026-04-12T11:13:52.999Z</time></trkpt><trkpt lat="43.43487997177922" lon="11.959168028374947"><ele>592.0</ele><time>2026-04-12T11:13:53.999Z</time></trkpt><trkpt lat="43.434790587872676" lon="11.95917820617768"><ele>592.0</ele><time>2026-04-12T11:13:54.999Z</time></trkpt><trkpt lat="43.43469427655509" lon="11.95919310320657"><ele>592.0</ele><time>2026-04-12T11:13:55.999Z</time></trkpt><trkpt lat="43.434597305376485" lon="11.95922295419979"><ele>590.0</ele><time>2026-04-12T11:13:56.999Z</time></trkpt><trkpt lat="43.434530660742084" lon="11.959253825139314"><ele>588.0</ele><time>2026-04-12T11:13:57.999Z</time></trkpt><trkpt lat="43.43442724320392" lon="11.959295381187886"><ele>586.0</ele><time>2026-04-12T11:13:59.999Z</time></trkpt><trkpt lat="43.43436722200494" lon="11.959502967694359"><ele>584.0</ele><time>2026-04-12T11:14:01.999Z</time></trkpt><trkpt lat="43.43430803434808" lon="11.95966722279444"><ele>584.0</ele><time>2026-04-12T11:14:02.999Z</time></trkpt><trkpt lat="43.43428632573049" lon="11.959815848297957"><ele>584.0</ele><time>2026-04-12T11:14:03.999Z</time></trkpt><trkpt lat="43.43424626320006" lon="11.959952685046067"><ele>584.0</ele><time>2026-04-12T11:14:04.999Z</time></trkpt><trkpt lat="43.43420587278198" lon="11.960098938184156"><ele>584.0</ele><time>2026-04-12T11:14:05.999Z</time></trkpt><trkpt lat="43.43417149676256" lon="11.960202064445701"><ele>584.0</ele><time>2026-04-12T11:14:06.999Z</time></trkpt><trkpt lat="43.43411009199044" lon="11.96030928356584"><ele>582.0</ele><time>2026-04-12T11:14:07.999Z</time></trkpt><trkpt lat="43.43404870535538" lon="11.960407444845616"><ele>580.0</ele><time>2026-04-12T11:14:08.999Z</time></trkpt><trkpt lat="43.434024401848454" lon="11.96049654031188"><ele>578.0</ele><time>2026-04-12T11:14:09.999Z</time></trkpt><trkpt lat="43.43403702720035" lon="11.960600479989516"><ele>576.0</ele><time>2026-04-12T11:14:10.999Z</time></trkpt><trkpt lat="43.434032726160794" lon="11.96069954432572"><ele>574.0</ele><time>2026-04-12T11:14:11.999Z</time></trkpt><trkpt lat="43.43399696119913" lon="11.960815166031017"><ele>572.0</ele><time>2026-04-12T11:14:12.999Z</time></trkpt><trkpt lat="43.43394220382317" lon="11.960935142969912"><ele>573.0</ele><time>2026-04-12T11:14:13.999Z</time></trkpt><trkpt lat="43.433857366454106" lon="11.96103887890853"><ele>574.0</ele><time>2026-04-12T11:14:14.999Z</time></trkpt><trkpt lat="43.43377334723518" lon="11.961136757086441"><ele>575.0</ele><time>2026-04-12T11:14:15.999Z</time></trkpt><trkpt lat="43.433693966081876" lon="11.961209895082959"><ele>576.0</ele><time>2026-04-12T11:14:16.999Z</time></trkpt><trkpt lat="43.43361073231167" lon="11.961266277875774"><ele>577.0</ele><time>2026-04-12T11:14:17.999Z</time></trkpt><trkpt lat="43.43353892488139" lon="11.961316791045627"><ele>577.0</ele><time>2026-04-12T11:14:18.998Z</time></trkpt><trkpt lat="43.43349697296915" lon="11.96139650762561"><ele>577.0</ele><time>2026-04-12T11:14:19.998Z</time></trkpt><trkpt lat="43.43350414294257" lon="11.961489364806145"><ele>577.0</ele><time>2026-04-12T11:14:20.998Z</time></trkpt><trkpt lat="43.433535967103076" lon="11.961593009577278"><ele>577.0</ele><time>2026-04-12T11:14:21.998Z</time></trkpt><trkpt lat="43.43358556142936" lon="11.961698578015065"><ele>577.0</ele><time>2026-04-12T11:14:22.998Z</time></trkpt><trkpt lat="43.433595134334816" lon="11.96184195900742"><ele>577.0</ele><time>2026-04-12T11:14:24.998Z</time></trkpt><trkpt lat="43.43356728192799" lon="11.961955460026589"><ele>574.5</ele><time>2026-04-12T11:14:25.998Z</time></trkpt><trkpt lat="43.43355892494493" lon="11.962057667338442"><ele>572.0</ele><time>2026-04-12T11:14:26.998Z</time></trkpt><trkpt lat="43.433539247352634" lon="11.96214137704457"><ele>569.5</ele><time>2026-04-12T11:14:27.998Z</time></trkpt><trkpt lat="43.433477497091985" lon="11.962204426628947"><ele>567.0</ele><time>2026-04-12T11:14:28.998Z</time></trkpt><trkpt lat="43.43339980535047" lon="11.962251821409428"><ele>564.5</ele><time>2026-04-12T11:14:29.998Z</time></trkpt><trkpt lat="43.433324323893125" lon="11.962317494681061"><ele>562.0</ele><time>2026-04-12T11:14:30.998Z</time></trkpt><trkpt lat="43.43326843643068" lon="11.962379032108"><ele>562.0</ele><time>2026-04-12T11:14:31.998Z</time></trkpt><trkpt lat="43.433214967830644" lon="11.962458094758258"><ele>562.0</ele><time>2026-04-12T11:14:33Z</time></trkpt><trkpt lat="43.43317093970234" lon="11.962552953558651"><ele>562.0</ele><time>2026-04-12T11:14:34Z</time></trkpt><trkpt lat="43.433134454382675" lon="11.962663418725029"><ele>562.0</ele><time>2026-04-12T11:14:35Z</time></trkpt><trkpt lat="43.433093571688595" lon="11.962754145444006"><ele>562.0</ele><time>2026-04-12T11:14:36Z</time></trkpt><trkpt lat="43.433040118576606" lon="11.96286654208221"><ele>562.0</ele><time>2026-04-12T11:14:37Z</time></trkpt><trkpt lat="43.433003394377344" lon="11.96294427022758"><ele>558.3333333333334</ele><time>2026-04-12T11:14:38Z</time></trkpt><trkpt lat="43.43296877352706" lon="11.963024302706692"><ele>554.6666666666667</ele><time>2026-04-12T11:14:39Z</time></trkpt><trkpt lat="43.43293704598142" lon="11.963106732735962"><ele>551.0</ele><time>2026-04-12T11:14:40Z</time></trkpt><trkpt lat="43.43291128522794" lon="11.963187337332547"><ele>547.3333333333334</ele><time>2026-04-12T11:14:41Z</time></trkpt><trkpt lat="43.43289435596887" lon="11.963284707088206"><ele>543.6666666666666</ele><time>2026-04-12T11:14:42Z</time></trkpt><trkpt lat="43.432893346580926" lon="11.963382972769308"><ele>540.0</ele><time>2026-04-12T11:14:43Z</time></trkpt><trkpt lat="43.43290272931729" lon="11.963534735601971"><ele>539.2</ele><time>2026-04-12T11:14:45Z</time></trkpt><trkpt lat="43.432801708100016" lon="11.963631467851886"><ele>538.4</ele><time>2026-04-12T11:14:47Z</time></trkpt><trkpt lat="43.43272048271655" lon="11.963736050320533"><ele>537.6</ele><time>2026-04-12T11:14:49Z</time></trkpt><trkpt lat="43.43269343203578" lon="11.96387373363136"><ele>536.8</ele><time>2026-04-12T11:14:50Z</time></trkpt><trkpt lat="43.432663864341684" lon="11.964014066086374"><ele>536.0</ele><time>2026-04-12T11:14:51Z</time></trkpt><trkpt lat="43.432635402923474" lon="11.964146121653286"><ele>536.5</ele><time>2026-04-12T11:14:52Z</time></trkpt><trkpt lat="43.432625106393736" lon="11.9642606448356"><ele>537.0</ele><time>2026-04-12T11:14:53Z</time></trkpt><trkpt lat="43.43264400862029" lon="11.964361293555424"><ele>537.5</ele><time>2026-04-12T11:14:54Z</time></trkpt><trkpt lat="43.432677847870956" lon="11.964467192158786"><ele>538.0</ele><time>2026-04-12T11:14:55Z</time></trkpt><trkpt lat="43.43270558689493" lon="11.964566463780335"><ele>538.5</ele><time>2026-04-12T11:14:56Z</time></trkpt><trkpt lat="43.43277479747308" lon="11.96469129271373"><ele>539.0</ele><time>2026-04-12T11:14:58Z</time></trkpt><trkpt lat="43.432851105212045" lon="11.964713917115715"><ele>539.0</ele><time>2026-04-12T11:14:59Z</time></trkpt><trkpt lat="43.43289698726144" lon="11.964776274640405"><ele>539.0</ele><time>2026-04-12T11:15:00Z</time></trkpt><trkpt lat="43.432907914475685" lon="11.964872317595692"><ele>539.0</ele><time>2026-04-12T11:15:01Z</time></trkpt><trkpt lat="43.43290824426202" lon="11.965000069154732"><ele>539.0</ele><time>2026-04-12T11:15:02Z</time></trkpt><trkpt lat="43.43290667797171" lon="11.965134882215605"><ele>539.0</ele><time>2026-04-12T11:15:03Z</time></trkpt><trkpt lat="43.43292470704866" lon="11.965233782379164"><ele>539.0</ele><time>2026-04-12T11:15:04Z</time></trkpt><trkpt lat="43.433049730944816" lon="11.965278108653996"><ele>539.1666666666666</ele><time>2026-04-12T11:15:06Z</time></trkpt><trkpt lat="43.4331371977486" lon="11.96527771445664"><ele>539.3333333333333</ele><time>2026-04-12T11:15:07Z</time></trkpt><trkpt lat="43.43322035832686" lon="11.96530720096385"><ele>539.5</ele><time>2026-04-12T11:15:08Z</time></trkpt><trkpt lat="43.43327513423936" lon="11.9653714862531"><ele>539.6666666666666</ele><time>2026-04-12T11:15:09Z</time></trkpt><trkpt lat="43.433315407753945" lon="11.965438653039122"><ele>539.8333333333334</ele><time>2026-04-12T11:15:10Z</time></trkpt><trkpt lat="43.43336354340584" lon="11.965496359391167"><ele>540.0</ele><time>2026-04-12T11:15:11Z</time></trkpt><trkpt lat="43.433399859936486" lon="11.965615441238803"><ele>540.0</ele><time>2026-04-12T11:15:13Z</time></trkpt><trkpt lat="43.433377232008596" lon="11.965716521768359"><ele>540.0</ele><time>2026-04-12T11:15:14Z</time></trkpt><trkpt lat="43.43332449340001" lon="11.965817652439394"><ele>540.0</ele><time>2026-04-12T11:15:15Z</time></trkpt><trkpt lat="43.43327747398433" lon="11.965899185998401"><ele>540.0</ele><time>2026-04-12T11:15:16Z</time></trkpt><trkpt lat="43.4332765674612" lon="11.965994643721174"><ele>540.0</ele><time>2026-04-12T11:15:17Z</time></trkpt><trkpt lat="43.43331171466419" lon="11.966079871420954"><ele>540.0</ele><time>2026-04-12T11:15:18Z</time></trkpt><trkpt lat="43.43339541950167" lon="11.966189913836319"><ele>542.2</ele><time>2026-04-12T11:15:19Z</time></trkpt><trkpt lat="43.43346777438963" lon="11.966290839987833"><ele>544.4</ele><time>2026-04-12T11:15:20Z</time></trkpt><trkpt lat="43.43354393773301" lon="11.966352376543092"><ele>546.6</ele><time>2026-04-12T11:15:20.999Z</time></trkpt><trkpt lat="43.43363581689886" lon="11.966376971844113"><ele>548.8</ele><time>2026-04-12T11:15:21.999Z</time></trkpt><trkpt lat="43.433697490608274" lon="11.966449216748531"><ele>551.0</ele><time>2026-04-12T11:15:22.999Z</time></trkpt><trkpt lat="43.43376400721254" lon="11.966558369609388"><ele>545.8</ele><time>2026-04-12T11:15:23.999Z</time></trkpt><trkpt lat="43.43384513201424" lon="11.96667004938983"><ele>540.6</ele><time>2026-04-12T11:15:24.999Z</time></trkpt><trkpt lat="43.43390031139545" lon="11.966763099957213"><ele>535.4</ele><time>2026-04-12T11:15:25.999Z</time></trkpt><trkpt lat="43.433942424701215" lon="11.966894052711876"><ele>530.2</ele><time>2026-04-12T11:15:26.999Z</time></trkpt><trkpt lat="43.43396490580314" lon="11.966996309817656"><ele>525.0</ele><time>2026-04-12T11:15:27.999Z</time></trkpt><trkpt lat="43.4339664111853" lon="11.967123436849047"><ele>524.8</ele><time>2026-04-12T11:15:28.999Z</time></trkpt><trkpt lat="43.433963620774705" lon="11.96727330860804"><ele>524.6</ele><time>2026-04-12T11:15:29.999Z</time></trkpt><trkpt lat="43.43398978676852" lon="11.967409258927265"><ele>524.4</ele><time>2026-04-12T11:15:30.999Z</time></trkpt><trkpt lat="43.434012137034294" lon="11.96757044697352"><ele>524.2</ele><time>2026-04-12T11:15:31.999Z</time></trkpt><trkpt lat="43.4340149188385" lon="11.967673181670595"><ele>524.0</ele><time>2026-04-12T11:15:32.999Z</time></trkpt><trkpt lat="43.43397282848809" lon="11.967863440031037"><ele>524.0</ele><time>2026-04-12T11:15:34.999Z</time></trkpt><trkpt lat="43.43393438955752" lon="11.967987034868068"><ele>524.0</ele><time>2026-04-12T11:15:35.999Z</time></trkpt><trkpt lat="43.43391032807655" lon="11.968120618245651"><ele>524.0</ele><time>2026-04-12T11:15:36.999Z</time></trkpt><trkpt lat="43.43390193344104" lon="11.968226291937427"><ele>524.0</ele><time>2026-04-12T11:15:37.999Z</time></trkpt><trkpt lat="43.43389512378352" lon="11.968327918848154"><ele>524.0</ele><time>2026-04-12T11:15:38.999Z</time></trkpt><trkpt lat="43.4339026913062" lon="11.96842759423331"><ele>524.0</ele><time>2026-04-12T11:15:39.999Z</time></trkpt><trkpt lat="43.43391627517803" lon="11.96851532930684"><ele>523.1666666666666</ele><time>2026-04-12T11:15:40.999Z</time></trkpt><trkpt lat="43.43383988063045" lon="11.968572784107199"><ele>522.3333333333333</ele><time>2026-04-12T11:15:43.999Z</time></trkpt><trkpt lat="43.43376586043093" lon="11.968547002903533"><ele>521.5</ele><time>2026-04-12T11:15:45.999Z</time></trkpt><trkpt lat="43.4337046003363" lon="11.96857591723181"><ele>520.6666666666666</ele><time>2026-04-12T11:15:47.999Z</time></trkpt><trkpt lat="43.43364279780373" lon="11.968597703305965"><ele>519.8333333333334</ele><time>2026-04-12T11:15:50.999Z</time></trkpt><trkpt lat="43.433566337235604" lon="11.968626223576829"><ele>519.0</ele><time>2026-04-12T11:15:52.999Z</time></trkpt><trkpt lat="43.43346484374809" lon="11.968637900371212"><ele>519.0</ele><time>2026-04-12T11:15:54.999Z</time></trkpt><trkpt lat="43.43335987172694" lon="11.968641099618516"><ele>519.0</ele><time>2026-04-12T11:15:56.999Z</time></trkpt><trkpt lat="43.433237533911935" lon="11.968643418761488"><ele>519.0</ele><time>2026-04-12T11:15:58.999Z</time></trkpt><trkpt lat="43.43317447650871" lon="11.968643637140332"><ele>519.0</ele><time>2026-04-12T11:15:59.999Z</time></trkpt><trkpt lat="43.43311195276816" lon="11.968630686874535"><ele>519.0</ele><time>2026-04-12T11:16:00.999Z</time></trkpt><trkpt lat="43.43303309873333" lon="11.968618201197707"><ele>519.0</ele><time>2026-04-12T11:16:01.999Z</time></trkpt><trkpt lat="43.43296123855222" lon="11.968605625375933"><ele>518.5714285714286</ele><time>2026-04-12T11:16:02.999Z</time></trkpt><trkpt lat="43.43289463528542" lon="11.968600537515924"><ele>518.1428571428571</ele><time>2026-04-12T11:16:03.999Z</time></trkpt><trkpt lat="43.43281859290607" lon="11.968596555681431"><ele>517.7142857142857</ele><time>2026-04-12T11:16:04.999Z</time></trkpt><trkpt lat="43.43273279205193" lon="11.968593268806194"><ele>517.2857142857142</ele><time>2026-04-12T11:16:05.999Z</time></trkpt><trkpt lat="43.43266553521142" lon="11.9685952063187"><ele>516.8571428571429</ele><time>2026-04-12T11:16:06.999Z</time></trkpt><trkpt lat="43.4325987467854" lon="11.968602577296007"><ele>516.4285714285713</ele><time>2026-04-12T11:16:07.999Z</time></trkpt><trkpt lat="43.43253314893427" lon="11.968632103408062"><ele>516.0</ele><time>2026-04-12T11:16:08.999Z</time></trkpt><trkpt lat="43.432482845239925" lon="11.96868913361936"><ele>516.0</ele><time>2026-04-12T11:16:09.999Z</time></trkpt><trkpt lat="43.432451008677134" lon="11.968792293228836"><ele>516.0</ele><time>2026-04-12T11:16:10.999Z</time></trkpt><trkpt lat="43.432427926238226" lon="11.968932215515617"><ele>516.0</ele><time>2026-04-12T11:16:11.999Z</time></trkpt><trkpt lat="43.432396925736654" lon="11.969077576908617"><ele>516.0</ele><time>2026-04-12T11:16:12.999Z</time></trkpt><trkpt lat="43.43235379199402" lon="11.969209379918436"><ele>516.0</ele><time>2026-04-12T11:16:13.999Z</time></trkpt><trkpt lat="43.43230351404499" lon="11.969346305811584"><ele>516.6</ele><time>2026-04-12T11:16:14.999Z</time></trkpt><trkpt lat="43.43225531375994" lon="11.969464079907677"><ele>517.2</ele><time>2026-04-12T11:16:15.999Z</time></trkpt><trkpt lat="43.43220985643238" lon="11.969563466703802"><ele>517.8</ele><time>2026-04-12T11:16:16.999Z</time></trkpt><trkpt lat="43.43215647833183" lon="11.969665102282924"><ele>518.4</ele><time>2026-04-12T11:16:17.999Z</time></trkpt><trkpt lat="43.43208238926585" lon="11.96976229870696"><ele>519.0</ele><time>2026-04-12T11:16:18.999Z</time></trkpt><trkpt lat="43.432001506225" lon="11.969836579763852"><ele>516.4</ele><time>2026-04-12T11:16:19.999Z</time></trkpt><trkpt lat="43.43190230053318" lon="11.969913584925367"><ele>513.8</ele><time>2026-04-12T11:16:20.999Z</time></trkpt><trkpt lat="43.43181224711193" lon="11.969986307207083"><ele>511.20000000000005</ele><time>2026-04-12T11:16:21.999Z</time></trkpt><trkpt lat="43.431718485166236" lon="11.970064992687746"><ele>508.6</ele><time>2026-04-12T11:16:22.999Z</time></trkpt><trkpt lat="43.431628219497185" lon="11.970141645768775"><ele>506.0</ele><time>2026-04-12T11:16:23.998Z</time></trkpt><trkpt lat="43.43154460891742" lon="11.970203433417606"><ele>505.8</ele><time>2026-04-12T11:16:24.998Z</time></trkpt><trkpt lat="43.43146806865153" lon="11.970259094891684"><ele>505.6</ele><time>2026-04-12T11:16:25.998Z</time></trkpt><trkpt lat="43.43139005488146" lon="11.970323174101878"><ele>505.4</ele><time>2026-04-12T11:16:26.998Z</time></trkpt><trkpt lat="43.431309594192086" lon="11.970404588080937"><ele>505.2</ele><time>2026-04-12T11:16:27.998Z</time></trkpt><trkpt lat="43.43123078625803" lon="11.970487670974189"><ele>505.0</ele><time>2026-04-12T11:16:28.998Z</time></trkpt><trkpt lat="43.431151474236685" lon="11.97056321781721"><ele>502.8</ele><time>2026-04-12T11:16:29.998Z</time></trkpt><trkpt lat="43.43107745608296" lon="11.970631716141469"><ele>500.6</ele><time>2026-04-12T11:16:30.998Z</time></trkpt><trkpt lat="43.431003341292424" lon="11.970692207835977"><ele>498.4</ele><time>2026-04-12T11:16:31.998Z</time></trkpt><trkpt lat="43.43092047566743" lon="11.970726482481696"><ele>496.2</ele><time>2026-04-12T11:16:32.998Z</time></trkpt><trkpt lat="43.430842481359136" lon="11.97073955361783"><ele>494.0</ele><time>2026-04-12T11:16:33.998Z</time></trkpt><trkpt lat="43.430749590930446" lon="11.970871315094422"><ele>491.79999999999995</ele><time>2026-04-12T11:16:35.998Z</time></trkpt><trkpt lat="43.43072427744525" lon="11.970981824118946"><ele>489.59999999999997</ele><time>2026-04-12T11:16:36.998Z</time></trkpt><trkpt lat="43.430689156365595" lon="11.971057215788703"><ele>487.4</ele><time>2026-04-12T11:16:37.998Z</time></trkpt><trkpt lat="43.43056366811549" lon="11.971059212259991"><ele>485.2</ele><time>2026-04-12T11:16:40Z</time></trkpt><trkpt lat="43.43048422350037" lon="11.970984210694759"><ele>483.0</ele><time>2026-04-12T11:16:41Z</time></trkpt><trkpt lat="43.430407955015454" lon="11.970905019649958"><ele>481.79999999999995</ele><time>2026-04-12T11:16:42Z</time></trkpt><trkpt lat="43.43032013056859" lon="11.970864479133997"><ele>480.59999999999997</ele><time>2026-04-12T11:16:43Z</time></trkpt><trkpt lat="43.43022326716648" lon="11.97086662744322"><ele>479.40000000000003</ele><time>2026-04-12T11:16:44Z</time></trkpt><trkpt lat="43.430125702169946" lon="11.970902266983451"><ele>478.20000000000005</ele><time>2026-04-12T11:16:45Z</time></trkpt><trkpt lat="43.430019476381865" lon="11.97096336823375"><ele>477.0</ele><time>2026-04-12T11:16:46Z</time></trkpt><trkpt lat="43.42989424791708" lon="11.971047494548957"><ele>477.0</ele><time>2026-04-12T11:16:47Z</time></trkpt><trkpt lat="43.42975698969726" lon="11.971148122017155"><ele>477.0</ele><time>2026-04-12T11:16:48Z</time></trkpt><trkpt lat="43.429611103749885" lon="11.971233719265026"><ele>477.0</ele><time>2026-04-12T11:16:49Z</time></trkpt><trkpt lat="43.429459084753844" lon="11.971301208349779"><ele>477.75</ele><time>2026-04-12T11:16:50Z</time></trkpt><trkpt lat="43.429312262691255" lon="11.971361964619708"><ele>478.5</ele><time>2026-04-12T11:16:51Z</time></trkpt><trkpt lat="43.42917753751466" lon="11.97142112031578"><ele>479.25</ele><time>2026-04-12T11:16:52Z</time></trkpt><trkpt lat="43.42904578077674" lon="11.971488447356135"><ele>480.0</ele><time>2026-04-12T11:16:53Z</time></trkpt><trkpt lat="43.428911927958715" lon="11.971558508280571"><ele>479.75</ele><time>2026-04-12T11:16:54Z</time></trkpt><trkpt lat="43.42879708818263" lon="11.97164139247986"><ele>479.5</ele><time>2026-04-12T11:16:55Z</time></trkpt><trkpt lat="43.4286805915638" lon="11.97171690974617"><ele>479.25</ele><time>2026-04-12T11:16:56Z</time></trkpt><trkpt lat="43.428569570881365" lon="11.971793864524013"><ele>479.0</ele><time>2026-04-12T11:16:57Z</time></trkpt><trkpt lat="43.42846266835932" lon="11.971845883477165"><ele>482.0</ele><time>2026-04-12T11:16:58Z</time></trkpt><trkpt lat="43.428350185870684" lon="11.971868531053353"><ele>485.0</ele><time>2026-04-12T11:16:59Z</time></trkpt><trkpt lat="43.42822466895491" lon="11.971860350552035"><ele>488.0</ele><time>2026-04-12T11:17:00Z</time></trkpt><trkpt lat="43.42809763056715" lon="11.97184514753392"><ele>491.0</ele><time>2026-04-12T11:17:01Z</time></trkpt><trkpt lat="43.4279829643437" lon="11.971843658593496"><ele>491.20000000000005</ele><time>2026-04-12T11:17:02Z</time></trkpt><trkpt lat="43.42787952672851" lon="11.971854616703629"><ele>491.40000000000003</ele><time>2026-04-12T11:17:03Z</time></trkpt><trkpt lat="43.42777538239049" lon="11.971875549727509"><ele>491.6</ele><time>2026-04-12T11:17:04Z</time></trkpt><trkpt lat="43.4276685558145" lon="11.971936017807506"><ele>491.8</ele><time>2026-04-12T11:17:05Z</time></trkpt><trkpt lat="43.42755337404173" lon="11.971992390780779"><ele>492.0</ele><time>2026-04-12T11:17:06Z</time></trkpt><trkpt lat="43.4274314209713" lon="11.972018139515093"><ele>492.0</ele><time>2026-04-12T11:17:07Z</time></trkpt><trkpt lat="43.427308538033664" lon="11.972020475667637"><ele>492.0</ele><time>2026-04-12T11:17:08Z</time></trkpt><trkpt lat="43.42719389650022" lon="11.97204726297715"><ele>492.0</ele><time>2026-04-12T11:17:09Z</time></trkpt><trkpt lat="43.427075911087535" lon="11.972070684785471"><ele>492.0</ele><time>2026-04-12T11:17:10Z</time></trkpt><trkpt lat="43.42696086156132" lon="11.972090549110824"><ele>490.6</ele><time>2026-04-12T11:17:11Z</time></trkpt><trkpt lat="43.426862759630666" lon="11.972082271255141"><ele>489.20000000000005</ele><time>2026-04-12T11:17:12Z</time></trkpt><trkpt lat="43.4267692290936" lon="11.972038118300032"><ele>487.8</ele><time>2026-04-12T11:17:13Z</time></trkpt><trkpt lat="43.42668070885524" lon="11.971958218612858"><ele>486.4</ele><time>2026-04-12T11:17:14Z</time></trkpt><trkpt lat="43.42659282089026" lon="11.971870731473023"><ele>485.0</ele><time>2026-04-12T11:17:15Z</time></trkpt><trkpt lat="43.42649830259627" lon="11.971812905102608"><ele>485.0</ele><time>2026-04-12T11:17:16Z</time></trkpt><trkpt lat="43.426390278516216" lon="11.97176573880204"><ele>485.0</ele><time>2026-04-12T11:17:17Z</time></trkpt><trkpt lat="43.42628301760221" lon="11.971729913425904"><ele>485.0</ele><time>2026-04-12T11:17:18Z</time></trkpt><trkpt lat="43.42618500715355" lon="11.97168489864302"><ele>485.0</ele><time>2026-04-12T11:17:19Z</time></trkpt><trkpt lat="43.42609256004647" lon="11.971633189463878"><ele>485.0</ele><time>2026-04-12T11:17:20Z</time></trkpt><trkpt lat="43.426007696708645" lon="11.971564600544934"><ele>480.6</ele><time>2026-04-12T11:17:21Z</time></trkpt><trkpt lat="43.42594011884066" lon="11.971464563432288"><ele>476.2</ele><time>2026-04-12T11:17:22Z</time></trkpt><trkpt lat="43.42587235337654" lon="11.971356907507952"><ele>471.79999999999995</ele><time>2026-04-12T11:17:23Z</time></trkpt><trkpt lat="43.425795507950404" lon="11.971266244536382"><ele>467.4</ele><time>2026-04-12T11:17:24Z</time></trkpt><trkpt lat="43.42570276832117" lon="11.97120588476207"><ele>463.0</ele><time>2026-04-12T11:17:24.999Z</time></trkpt><trkpt lat="43.42560767093998" lon="11.971158223548956"><ele>463.0</ele><time>2026-04-12T11:17:25.999Z</time></trkpt><trkpt lat="43.425521462677956" lon="11.971110774126272"><ele>462.99999999999994</ele><time>2026-04-12T11:17:26.999Z</time></trkpt><trkpt lat="43.42543262186974" lon="11.971072401675055"><ele>462.99999999999994</ele><time>2026-04-12T11:17:27.999Z</time></trkpt><trkpt lat="43.425349824054265" lon="11.971024123088961"><ele>463.0</ele><time>2026-04-12T11:17:28.999Z</time></trkpt><trkpt lat="43.425266114202046" lon="11.970943926645493"><ele>463.0</ele><time>2026-04-12T11:17:29.999Z</time></trkpt><trkpt lat="43.425195324744706" lon="11.970827384310375"><ele>460.1666666666667</ele><time>2026-04-12T11:17:30.999Z</time></trkpt><trkpt lat="43.42515890872278" lon="11.97071392942701"><ele>457.33333333333337</ele><time>2026-04-12T11:17:31.999Z</time></trkpt><trkpt lat="43.425133324876825" lon="11.970617816064106"><ele>454.5</ele><time>2026-04-12T11:17:32.999Z</time></trkpt><trkpt lat="43.42504953558413" lon="11.97059292145741"><ele>451.66666666666663</ele><time>2026-04-12T11:17:34.999Z</time></trkpt><trkpt lat="43.424986870135676" lon="11.970662923349508"><ele>448.8333333333333</ele><time>2026-04-12T11:17:35.999Z</time></trkpt><trkpt lat="43.424947293871526" lon="11.97075728984423"><ele>446.0</ele><time>2026-04-12T11:17:36.999Z</time></trkpt><trkpt lat="43.42490541764823" lon="11.970866455164488"><ele>445.49999999999994</ele><time>2026-04-12T11:17:38.999Z</time></trkpt><trkpt lat="43.424776412182624" lon="11.970803394712016"><ele>445.0</ele><time>2026-04-12T11:17:40.999Z</time></trkpt><trkpt lat="43.4247069311169" lon="11.970765952319196"><ele>444.5</ele><time>2026-04-12T11:17:41.999Z</time></trkpt><trkpt lat="43.42463657066574" lon="11.970775891134458"><ele>444.0</ele><time>2026-04-12T11:17:42.999Z</time></trkpt><trkpt lat="43.424577303484206" lon="11.970841524788112"><ele>443.49999999999994</ele><time>2026-04-12T11:17:43.999Z</time></trkpt><trkpt lat="43.424524257693896" lon="11.970924232492496"><ele>443.0</ele><time>2026-04-12T11:17:44.999Z</time></trkpt><trkpt lat="43.424454845074834" lon="11.970951348265551"><ele>440.49999999999994</ele><time>2026-04-12T11:17:45.999Z</time></trkpt><trkpt lat="43.42437201710506" lon="11.970925043910222"><ele>438.0</ele><time>2026-04-12T11:17:46.999Z</time></trkpt><trkpt lat="43.42429116213318" lon="11.970884567590568"><ele>435.5</ele><time>2026-04-12T11:17:47.999Z</time></trkpt><trkpt lat="43.424208430284715" lon="11.970845371044302"><ele>433.0</ele><time>2026-04-12T11:17:48.999Z</time></trkpt><trkpt lat="43.42412644741722" lon="11.97081734886798"><ele>430.49999999999994</ele><time>2026-04-12T11:17:49.999Z</time></trkpt><trkpt lat="43.42404439557265" lon="11.970815808013988"><ele>428.0</ele><time>2026-04-12T11:17:50.999Z</time></trkpt><trkpt lat="43.423958771221436" lon="11.970836283919168"><ele>427.99999999999994</ele><time>2026-04-12T11:17:51.999Z</time></trkpt><trkpt lat="43.42388530485205" lon="11.97088183106988"><ele>428.0</ele><time>2026-04-12T11:17:52.999Z</time></trkpt><trkpt lat="43.42382159495931" lon="11.970956698010195"><ele>428.0</ele><time>2026-04-12T11:17:53.999Z</time></trkpt><trkpt lat="43.423776742169366" lon="11.971061444062054"><ele>428.0</ele><time>2026-04-12T11:17:54.999Z</time></trkpt><trkpt lat="43.42374044972452" lon="11.971158893048537"><ele>427.99999999999994</ele><time>2026-04-12T11:17:55.999Z</time></trkpt><trkpt lat="43.423692194543506" lon="11.971259755311381"><ele>428.0</ele><time>2026-04-12T11:17:56.999Z</time></trkpt><trkpt lat="43.423653238872625" lon="11.971329863525845"><ele>425.49999999999994</ele><time>2026-04-12T11:17:57.999Z</time></trkpt><trkpt lat="43.42354534809138" lon="11.971383171787755"><ele>423.0</ele><time>2026-04-12T11:17:59.999Z</time></trkpt><trkpt lat="43.423448592892804" lon="11.971302118993675"><ele>420.5</ele><time>2026-04-12T11:18:01.999Z</time></trkpt><trkpt lat="43.42343383364178" lon="11.971214249053864"><ele>418.0</ele><time>2026-04-12T11:18:02.999Z</time></trkpt><trkpt lat="43.423431732538994" lon="11.971123963054872"><ele>415.49999999999994</ele><time>2026-04-12T11:18:03.999Z</time></trkpt><trkpt lat="43.423425432335875" lon="11.971010634784125"><ele>413.0</ele><time>2026-04-12T11:18:04.999Z</time></trkpt><trkpt lat="43.42341059542697" lon="11.970895872277536"><ele>412.66666666666663</ele><time>2026-04-12T11:18:05.999Z</time></trkpt><trkpt lat="43.423393642913105" lon="11.970778413709567"><ele>412.3333333333333</ele><time>2026-04-12T11:18:06.999Z</time></trkpt><trkpt lat="43.42337545236783" lon="11.970669746042635"><ele>412.0</ele><time>2026-04-12T11:18:07.999Z</time></trkpt><trkpt lat="43.42335731426867" lon="11.97056970633463"><ele>411.66666666666663</ele><time>2026-04-12T11:18:08.999Z</time></trkpt><trkpt lat="43.42333518127269" lon="11.97047866748674"><ele>411.3333333333333</ele><time>2026-04-12T11:18:09.999Z</time></trkpt><trkpt lat="43.42324020291771" lon="11.97037938701511"><ele>411.0</ele><time>2026-04-12T11:18:11.999Z</time></trkpt><trkpt lat="43.42316271621615" lon="11.970377991097754"><ele>411.0</ele><time>2026-04-12T11:18:12.999Z</time></trkpt><trkpt lat="43.42309748646095" lon="11.970418062779606"><ele>411.0</ele><time>2026-04-12T11:18:13.999Z</time></trkpt><trkpt lat="43.423029942144666" lon="11.970454113727383"><ele>411.0</ele><time>2026-04-12T11:18:14.999Z</time></trkpt><trkpt lat="43.42293911079207" lon="11.970480803755885"><ele>411.0</ele><time>2026-04-12T11:18:15.999Z</time></trkpt><trkpt lat="43.42285595529964" lon="11.970539095905298"><ele>411.0</ele><time>2026-04-12T11:18:16.999Z</time></trkpt><trkpt lat="43.422792032896076" lon="11.970628661244435"><ele>411.0</ele><time>2026-04-12T11:18:17.999Z</time></trkpt><trkpt lat="43.42274224392197" lon="11.970740274862226"><ele>410.0</ele><time>2026-04-12T11:18:18.999Z</time></trkpt><trkpt lat="43.42270141902613" lon="11.970859010186022"><ele>409.0</ele><time>2026-04-12T11:18:19.999Z</time></trkpt><trkpt lat="43.42266872944332" lon="11.97098537161769"><ele>408.0</ele><time>2026-04-12T11:18:20.999Z</time></trkpt><trkpt lat="43.422643403715156" lon="11.9711055338998"><ele>407.0</ele><time>2026-04-12T11:18:21.999Z</time></trkpt><trkpt lat="43.42261989206874" lon="11.97123442306834"><ele>406.0</ele><time>2026-04-12T11:18:22.999Z</time></trkpt><trkpt lat="43.42259293176238" lon="11.971374823199783"><ele>406.0</ele><time>2026-04-12T11:18:23.999Z</time></trkpt><trkpt lat="43.42256553188874" lon="11.971522169005143"><ele>406.0</ele><time>2026-04-12T11:18:24.999Z</time></trkpt><trkpt lat="43.42254007384564" lon="11.971674628139436"><ele>406.0</ele><time>2026-04-12T11:18:25.999Z</time></trkpt><trkpt lat="43.422520658515936" lon="11.97183116074891"><ele>406.0</ele><time>2026-04-12T11:18:26.999Z</time></trkpt><trkpt lat="43.422502355544495" lon="11.97198185718848"><ele>405.6666666666667</ele><time>2026-04-12T11:18:27.998Z</time></trkpt><trkpt lat="43.42248299559869" lon="11.972108793029754"><ele>405.33333333333337</ele><time>2026-04-12T11:18:28.998Z</time></trkpt><trkpt lat="43.42245913278926" lon="11.972218953261972"><ele>405.0</ele><time>2026-04-12T11:18:29.998Z</time></trkpt><trkpt lat="43.42243018497671" lon="11.972311284354602"><ele>404.66666666666663</ele><time>2026-04-12T11:18:30.998Z</time></trkpt><trkpt lat="43.42237501950639" lon="11.972373762580261"><ele>404.3333333333333</ele><time>2026-04-12T11:18:31.998Z</time></trkpt><trkpt lat="43.42230054611168" lon="11.972400338964938"><ele>404.0</ele><time>2026-04-12T11:18:32.998Z</time></trkpt><trkpt lat="43.42221367369335" lon="11.972409335314484"><ele>404.6</ele><time>2026-04-12T11:18:33.998Z</time></trkpt><trkpt lat="43.42211420680484" lon="11.972428667618734"><ele>405.2</ele><time>2026-04-12T11:18:34.998Z</time></trkpt><trkpt lat="43.42200983184812" lon="11.972457939261174"><ele>405.8</ele><time>2026-04-12T11:18:35.998Z</time></trkpt><trkpt lat="43.421900121326004" lon="11.9724942939674"><ele>406.40000000000003</ele><time>2026-04-12T11:18:36.998Z</time></trkpt><trkpt lat="43.42180421649285" lon="11.972531333551885"><ele>407.0</ele><time>2026-04-12T11:18:37.998Z</time></trkpt><trkpt lat="43.421723419382445" lon="11.972556833376393"><ele>407.14285714285717</ele><time>2026-04-12T11:18:38.998Z</time></trkpt><trkpt lat="43.421659723733235" lon="11.972578167539973"><ele>407.2857142857143</ele><time>2026-04-12T11:18:39.998Z</time></trkpt><trkpt lat="43.42158587947577" lon="11.972630492973186"><ele>407.42857142857144</ele><time>2026-04-12T11:18:41.998Z</time></trkpt><trkpt lat="43.4215524967072" lon="11.972724525623049"><ele>407.57142857142856</ele><time>2026-04-12T11:19:03Z</time></trkpt><trkpt lat="43.42154451611625" lon="11.97281467683324"><ele>407.7142857142857</ele><time>2026-04-12T11:19:04Z</time></trkpt><trkpt lat="43.421542791716874" lon="11.972914606660899"><ele>407.8571428571429</ele><time>2026-04-12T11:19:05Z</time></trkpt><trkpt lat="43.42154926798636" lon="11.97302385654933"><ele>408.0</ele><time>2026-04-12T11:19:06Z</time></trkpt><trkpt lat="43.421562042218284" lon="11.973136483742234"><ele>408.0</ele><time>2026-04-12T11:19:07Z</time></trkpt><trkpt lat="43.42156453550764" lon="11.973247243876287"><ele>408.0</ele><time>2026-04-12T11:19:08Z</time></trkpt><trkpt lat="43.42156785164256" lon="11.973360265968184"><ele>408.0</ele><time>2026-04-12T11:19:09Z</time></trkpt><trkpt lat="43.42157148769493" lon="11.973459769975436"><ele>408.0</ele><time>2026-04-12T11:19:10Z</time></trkpt><trkpt lat="43.421577150942646" lon="11.973568543344667"><ele>408.0</ele><time>2026-04-12T11:19:11Z</time></trkpt><trkpt lat="43.42158457322995" lon="11.97366811994432"><ele>408.0</ele><time>2026-04-12T11:19:12Z</time></trkpt><trkpt lat="43.42159311324389" lon="11.973762748988351"><ele>407.59999999999997</ele><time>2026-04-12T11:19:13Z</time></trkpt><trkpt lat="43.42160646995778" lon="11.973851477756266"><ele>407.2</ele><time>2026-04-12T11:19:14Z</time></trkpt><trkpt lat="43.42161034086242" lon="11.974003219008457"><ele>406.8</ele><time>2026-04-12T11:19:16Z</time></trkpt><trkpt lat="43.42151740209828" lon="11.974095068239848"><ele>406.4</ele><time>2026-04-12T11:19:18Z</time></trkpt><trkpt lat="43.421427404691784" lon="11.974110294549037"><ele>406.0</ele><time>2026-04-12T11:19:19Z</time></trkpt><trkpt lat="43.42132695359531" lon="11.974107603632369"><ele>406.5</ele><time>2026-04-12T11:19:20Z</time></trkpt><trkpt lat="43.42122567126532" lon="11.974106234131218"><ele>407.0</ele><time>2026-04-12T11:19:21Z</time></trkpt><trkpt lat="43.42109003420715" lon="11.974123250036566"><ele>407.5</ele><time>2026-04-12T11:19:22Z</time></trkpt><trkpt lat="43.42098122378959" lon="11.974129017378315"><ele>408.0</ele><time>2026-04-12T11:19:23Z</time></trkpt><trkpt lat="43.42087351865874" lon="11.974129677690815"><ele>408.0</ele><time>2026-04-12T11:19:24Z</time></trkpt><trkpt lat="43.42079001602232" lon="11.974144043017189"><ele>408.0</ele><time>2026-04-12T11:19:25Z</time></trkpt><trkpt lat="43.42067024759146" lon="11.974150200144344"><ele>408.0</ele><time>2026-04-12T11:19:26Z</time></trkpt><trkpt lat="43.42054200374401" lon="11.974149869354024"><ele>408.0</ele><time>2026-04-12T11:19:27Z</time></trkpt><trkpt lat="43.42043452787692" lon="11.974153623901545"><ele>408.0</ele><time>2026-04-12T11:19:28Z</time></trkpt><trkpt lat="43.420318261810166" lon="11.974142988206205"><ele>407.5</ele><time>2026-04-12T11:19:29Z</time></trkpt><trkpt lat="43.420211166775324" lon="11.974102328468705"><ele>407.0</ele><time>2026-04-12T11:19:30Z</time></trkpt><trkpt lat="43.42011265620583" lon="11.974010004798975"><ele>406.5</ele><time>2026-04-12T11:19:31Z</time></trkpt><trkpt lat="43.420019219461274" lon="11.97387396053442"><ele>406.0</ele><time>2026-04-12T11:19:31.999Z</time></trkpt><trkpt lat="43.419921949785405" lon="11.973737166278285"><ele>406.0</ele><time>2026-04-12T11:19:32.999Z</time></trkpt><trkpt lat="43.41982655267725" lon="11.97360910834543"><ele>406.0</ele><time>2026-04-12T11:19:33.999Z</time></trkpt><trkpt lat="43.41973204806406" lon="11.973491710532024"><ele>406.0</ele><time>2026-04-12T11:19:34.999Z</time></trkpt><trkpt lat="43.41963599295693" lon="11.973384945899516"><ele>406.0</ele><time>2026-04-12T11:19:35.999Z</time></trkpt><trkpt lat="43.41953327811767" lon="11.973291023687295"><ele>407.75</ele><time>2026-04-12T11:19:36.999Z</time></trkpt><trkpt lat="43.41942578657319" lon="11.973218154102915"><ele>409.5</ele><time>2026-04-12T11:19:37.999Z</time></trkpt><trkpt lat="43.419311922566976" lon="11.973138269760126"><ele>411.25</ele><time>2026-04-12T11:19:38.999Z</time></trkpt><trkpt lat="43.4191885631825" lon="11.973061155926263"><ele>413.0</ele><time>2026-04-12T11:19:39.999Z</time></trkpt><trkpt lat="43.419049559230366" lon="11.972994635885971"><ele>413.0</ele><time>2026-04-12T11:19:40.999Z</time></trkpt><trkpt lat="43.41890814478219" lon="11.972938416384588"><ele>413.0</ele><time>2026-04-12T11:19:41.999Z</time></trkpt><trkpt lat="43.418759996378924" lon="11.972897168416559"><ele>413.0</ele><time>2026-04-12T11:19:42.999Z</time></trkpt><trkpt lat="43.41861175716874" lon="11.972862067794681"><ele>413.0</ele><time>2026-04-12T11:19:43.999Z</time></trkpt><trkpt lat="43.418460379056555" lon="11.972837901374028"><ele>411.66666666666663</ele><time>2026-04-12T11:19:44.999Z</time></trkpt><trkpt lat="43.41830758001005" lon="11.97282145677177"><ele>410.33333333333337</ele><time>2026-04-12T11:19:45.999Z</time></trkpt><trkpt lat="43.418152627579325" lon="11.972835362095378"><ele>409.0</ele><time>2026-04-12T11:19:46.999Z</time></trkpt><trkpt lat="43.41799102830545" lon="11.972900531480224"><ele>409.33333333333337</ele><time>2026-04-12T11:19:47.999Z</time></trkpt><trkpt lat="43.417840523505824" lon="11.972939883729392"><ele>409.66666666666663</ele><time>2026-04-12T11:19:48.999Z</time></trkpt><trkpt lat="43.41768608542377" lon="11.972974411080516"><ele>410.0</ele><time>2026-04-12T11:19:49.999Z</time></trkpt><trkpt lat="43.41753740962601" lon="11.9730038362594"><ele>410.0</ele><time>2026-04-12T11:19:50.999Z</time></trkpt><trkpt lat="43.4173884326866" lon="11.973034012680301"><ele>410.0</ele><time>2026-04-12T11:19:51.999Z</time></trkpt><trkpt lat="43.41723360310739" lon="11.973060671083967"><ele>410.0</ele><time>2026-04-12T11:19:52.999Z</time></trkpt><trkpt lat="43.417078049764676" lon="11.973073872105886"><ele>410.66666666666663</ele><time>2026-04-12T11:19:53.999Z</time></trkpt><trkpt lat="43.41692368467062" lon="11.973107736667632"><ele>411.33333333333337</ele><time>2026-04-12T11:19:54.999Z</time></trkpt><trkpt lat="43.416768051364244" lon="11.973132741823795"><ele>412.0</ele><time>2026-04-12T11:19:55.999Z</time></trkpt><trkpt lat="43.41662549861791" lon="11.973156438536476"><ele>412.0</ele><time>2026-04-12T11:19:56.999Z</time></trkpt><trkpt lat="43.41648736869381" lon="11.973146365098765"><ele>412.0</ele><time>2026-04-12T11:19:57.999Z</time></trkpt><trkpt lat="43.41634398891585" lon="11.973095548916122"><ele>412.0</ele><time>2026-04-12T11:19:58.999Z</time></trkpt><trkpt lat="43.416206954785025" lon="11.973018346642533"><ele>412.0</ele><time>2026-04-12T11:19:59.999Z</time></trkpt><trkpt lat="43.41607357044465" lon="11.972923008552991"><ele>410.6666666666667</ele><time>2026-04-12T11:20:00.999Z</time></trkpt><trkpt lat="43.415943896109766" lon="11.972820763406476"><ele>409.33333333333337</ele><time>2026-04-12T11:20:01.999Z</time></trkpt><trkpt lat="43.415818952490035" lon="11.972686401473446"><ele>408.0</ele><time>2026-04-12T11:20:02.999Z</time></trkpt><trkpt lat="43.415701448738254" lon="11.972536730816097"><ele>408.33333333333337</ele><time>2026-04-12T11:20:03.999Z</time></trkpt><trkpt lat="43.415592069861255" lon="11.972385416086137"><ele>408.6666666666667</ele><time>2026-04-12T11:20:04.999Z</time></trkpt><trkpt lat="43.41548757902771" lon="11.972227427905125"><ele>409.0</ele><time>2026-04-12T11:20:05.999Z</time></trkpt><trkpt lat="43.41539089158196" lon="11.972057808084422"><ele>409.0</ele><time>2026-04-12T11:20:06.999Z</time></trkpt><trkpt lat="43.41530136466207" lon="11.97188817629041"><ele>409.0</ele><time>2026-04-12T11:20:07.999Z</time></trkpt><trkpt lat="43.41521585336143" lon="11.971711898730096"><ele>409.0</ele><time>2026-04-12T11:20:08.999Z</time></trkpt><trkpt lat="43.41513191097156" lon="11.971537708474278"><ele>410.6666666666667</ele><time>2026-04-12T11:20:09.999Z</time></trkpt><trkpt lat="43.41504874840838" lon="11.971366527112446"><ele>412.33333333333337</ele><time>2026-04-12T11:20:10.999Z</time></trkpt><trkpt lat="43.414972672731516" lon="11.971150054004218"><ele>414.0</ele><time>2026-04-12T11:20:11.999Z</time></trkpt><trkpt lat="43.41491978019654" lon="11.970919463923195"><ele>415.33333333333337</ele><time>2026-04-12T11:20:12.999Z</time></trkpt><trkpt lat="43.41488337876876" lon="11.970677195574353"><ele>416.6666666666667</ele><time>2026-04-12T11:20:13.999Z</time></trkpt><trkpt lat="43.41484399520055" lon="11.970439478752766"><ele>418.0</ele><time>2026-04-12T11:20:14.999Z</time></trkpt><trkpt lat="43.41479046034027" lon="11.970214009917921"><ele>416.6666666666667</ele><time>2026-04-12T11:20:15.999Z</time></trkpt><trkpt lat="43.41471640260029" lon="11.969995951646913"><ele>415.33333333333337</ele><time>2026-04-12T11:20:16.999Z</time></trkpt><trkpt lat="43.414630427306" lon="11.96979952446862"><ele>414.0</ele><time>2026-04-12T11:20:17.999Z</time></trkpt><trkpt lat="43.4145268959491" lon="11.969622162985408"><ele>414.0</ele><time>2026-04-12T11:20:18.999Z</time></trkpt><trkpt lat="43.41441208792675" lon="11.969470854885996"><ele>414.0</ele><time>2026-04-12T11:20:19.999Z</time></trkpt><trkpt lat="43.4142839239118" lon="11.969325616861063"><ele>414.0</ele><time>2026-04-12T11:20:20.999Z</time></trkpt><trkpt lat="43.414154372032804" lon="11.969184645353963"><ele>414.66666666666663</ele><time>2026-04-12T11:20:21.999Z</time></trkpt><trkpt lat="43.41402548840091" lon="11.969061982717156"><ele>415.3333333333333</ele><time>2026-04-12T11:20:22.999Z</time></trkpt><trkpt lat="43.41389627900369" lon="11.968958883757434"><ele>416.0</ele><time>2026-04-12T11:20:23.999Z</time></trkpt><trkpt lat="43.41375511136634" lon="11.96887515323752"><ele>416.0</ele><time>2026-04-12T11:20:24.999Z</time></trkpt><trkpt lat="43.41358923132191" lon="11.968835919770909"><ele>416.0</ele><time>2026-04-12T11:20:25.999Z</time></trkpt><trkpt lat="43.413430039913955" lon="11.968820840654532"><ele>416.0</ele><time>2026-04-12T11:20:26.999Z</time></trkpt><trkpt lat="43.413261030640854" lon="11.968781672079981"><ele>416.0</ele><time>2026-04-12T11:20:27.999Z</time></trkpt><trkpt lat="43.41310658286007" lon="11.968710149048972"><ele>416.0</ele><time>2026-04-12T11:20:28.999Z</time></trkpt><trkpt lat="43.41296088253778" lon="11.968609496454842"><ele>416.0</ele><time>2026-04-12T11:20:29.999Z</time></trkpt><trkpt lat="43.41283213342692" lon="11.968505105283088"><ele>416.5</ele><time>2026-04-12T11:20:30.999Z</time></trkpt><trkpt lat="43.412714926450505" lon="11.968403898508923"><ele>417.0</ele><time>2026-04-12T11:20:31.999Z</time></trkpt><trkpt lat="43.412605864649606" lon="11.968298003210512"><ele>417.5</ele><time>2026-04-12T11:20:32.999Z</time></trkpt><trkpt lat="43.41253222759993" lon="11.968209707000637"><ele>418.0</ele><time>2026-04-12T11:20:33.999Z</time></trkpt><trkpt lat="43.41245638531484" lon="11.968105358967238"><ele>418.00000000000006</ele><time>2026-04-12T11:20:35.998Z</time></trkpt><trkpt lat="43.41242348397644" lon="11.96799153616441"><ele>418.0</ele><time>2026-04-12T11:20:37.998Z</time></trkpt><trkpt lat="43.412487013500844" lon="11.968042089204957"><ele>418.0</ele><time>2026-04-12T11:20:49.998Z</time></trkpt><trkpt lat="43.41256604387948" lon="11.968088869227861"><ele>418.0</ele><time>2026-04-12T11:20:52Z</time></trkpt><trkpt lat="43.41263372826018" lon="11.968140586535371"><ele>418.00000000000006</ele><time>2026-04-12T11:20:53Z</time></trkpt><trkpt lat="43.41269792197787" lon="11.968171381246925"><ele>418.0</ele><time>2026-04-12T11:20:54Z</time></trkpt><trkpt lat="43.41276703954806" lon="11.968188863893872"><ele>418.0</ele><time>2026-04-12T11:20:55Z</time></trkpt><trkpt lat="43.41283910355527" lon="11.968197972420214"><ele>418.0</ele><time>2026-04-12T11:20:56Z</time></trkpt><trkpt lat="43.412905326930115" lon="11.96820765494655"><ele>418.0</ele><time>2026-04-12T11:20:57Z</time></trkpt><trkpt lat="43.41296272083522" lon="11.968120434960996"><ele>418.0</ele><time>2026-04-12T11:20:59Z</time></trkpt><trkpt lat="43.41296977778741" lon="11.968013201831747"><ele>418.0</ele><time>2026-04-12T11:21:01Z</time></trkpt><trkpt lat="43.41292099421168" lon="11.967956398691577"><ele>418.0</ele><time>2026-04-12T11:21:02Z</time></trkpt><trkpt lat="43.412869806227896" lon="11.967896368006679"><ele>418.0</ele><time>2026-04-12T11:21:03Z</time></trkpt><trkpt lat="43.41283989322596" lon="11.967803484428094"><ele>418.0</ele><time>2026-04-12T11:21:04Z</time></trkpt><trkpt lat="43.41282594515622" lon="11.967688048649826"><ele>418.0</ele><time>2026-04-12T11:21:05Z</time></trkpt><trkpt lat="43.412848033315065" lon="11.967515773061383"><ele>418.0</ele><time>2026-04-12T11:21:07Z</time></trkpt><trkpt lat="43.41289438273081" lon="11.96738265135447"><ele>418.0</ele><time>2026-04-12T11:21:09Z</time></trkpt><trkpt lat="43.4129258445123" lon="11.967295228818049"><ele>418.0</ele><time>2026-04-12T11:21:10Z</time></trkpt><trkpt lat="43.41295204290348" lon="11.967209675770073"><ele>421.83333333333337</ele><time>2026-04-12T11:21:11Z</time></trkpt><trkpt lat="43.41298983055197" lon="11.967098332654066"><ele>425.6666666666667</ele><time>2026-04-12T11:21:12Z</time></trkpt><trkpt lat="43.41305217256027" lon="11.967007943724377"><ele>429.5</ele><time>2026-04-12T11:21:13Z</time></trkpt><trkpt lat="43.413129616779415" lon="11.966943035757268"><ele>433.33333333333337</ele><time>2026-04-12T11:21:14Z</time></trkpt><trkpt lat="43.41319138113028" lon="11.966868986038433"><ele>437.1666666666667</ele><time>2026-04-12T11:21:15Z</time></trkpt><trkpt lat="43.413218977515946" lon="11.96678613397237"><ele>441.0</ele><time>2026-04-12T11:21:16Z</time></trkpt><trkpt lat="43.41327894776499" lon="11.966632909184089"><ele>441.6666666666667</ele><time>2026-04-12T11:21:18Z</time></trkpt><trkpt lat="43.41334838555094" lon="11.966592912678465"><ele>442.33333333333337</ele><time>2026-04-12T11:21:19Z</time></trkpt><trkpt lat="43.413435968523686" lon="11.966580491453824"><ele>443.0</ele><time>2026-04-12T11:21:20Z</time></trkpt><trkpt lat="43.413522143454514" lon="11.966575562809982"><ele>443.6666666666667</ele><time>2026-04-12T11:21:21Z</time></trkpt><trkpt lat="43.41358369809125" lon="11.966549193233332"><ele>444.33333333333337</ele><time>2026-04-12T11:21:22Z</time></trkpt><trkpt lat="43.41366707004086" lon="11.966525743931943"><ele>445.0</ele><time>2026-04-12T11:21:23Z</time></trkpt><trkpt lat="43.41374646820932" lon="11.966521705406093"><ele>445.6</ele><time>2026-04-12T11:21:24Z</time></trkpt><trkpt lat="43.41382984282113" lon="11.966525658920133"><ele>446.2</ele><time>2026-04-12T11:21:25Z</time></trkpt><trkpt lat="43.413893675268454" lon="11.966394936723379"><ele>446.79999999999995</ele><time>2026-04-12T11:21:27Z</time></trkpt><trkpt lat="43.41390045997376" lon="11.966297615952174"><ele>447.4</ele><time>2026-04-12T11:21:28Z</time></trkpt><trkpt lat="43.413935420535715" lon="11.96618005247311"><ele>448.0</ele><time>2026-04-12T11:21:29Z</time></trkpt><trkpt lat="43.4140064245928" lon="11.966067073970402"><ele>448.0</ele><time>2026-04-12T11:21:30Z</time></trkpt><trkpt lat="43.41407529479319" lon="11.965969025786789"><ele>447.99999999999994</ele><time>2026-04-12T11:21:31Z</time></trkpt><trkpt lat="43.41413956263347" lon="11.965887269662261"><ele>447.99999999999994</ele><time>2026-04-12T11:21:32Z</time></trkpt><trkpt lat="43.41415950071103" lon="11.965740059641213"><ele>448.0</ele><time>2026-04-12T11:21:34Z</time></trkpt><trkpt lat="43.41412105915758" lon="11.96564778941216"><ele>448.0</ele><time>2026-04-12T11:21:35Z</time></trkpt><trkpt lat="43.41409949830787" lon="11.965543244313771"><ele>448.83333333333337</ele><time>2026-04-12T11:21:36Z</time></trkpt><trkpt lat="43.41407239665811" lon="11.965424799346017"><ele>449.6666666666667</ele><time>2026-04-12T11:21:36.999Z</time></trkpt><trkpt lat="43.41401558141073" lon="11.965330551978948"><ele>450.5</ele><time>2026-04-12T11:21:37.999Z</time></trkpt><trkpt lat="43.413950673299205" lon="11.965271313921432"><ele>451.33333333333337</ele><time>2026-04-12T11:21:38.999Z</time></trkpt><trkpt lat="43.41388486788314" lon="11.965242917106254"><ele>452.1666666666667</ele><time>2026-04-12T11:21:39.999Z</time></trkpt><trkpt lat="43.4138208966178" lon="11.965186078683066"><ele>453.0</ele><time>2026-04-12T11:21:40.999Z</time></trkpt><trkpt lat="43.41376074325745" lon="11.965108257349476"><ele>455.4</ele><time>2026-04-12T11:21:41.999Z</time></trkpt><trkpt lat="43.4137511144221" lon="11.964963150174649"><ele>457.79999999999995</ele><time>2026-04-12T11:21:43.999Z</time></trkpt><trkpt lat="43.41379968394234" lon="11.964889079467984"><ele>460.2</ele><time>2026-04-12T11:21:44.999Z</time></trkpt><trkpt lat="43.413862521032335" lon="11.964831976078127"><ele>462.6</ele><time>2026-04-12T11:21:45.999Z</time></trkpt><trkpt lat="43.41394614591516" lon="11.964790106150923"><ele>465.0</ele><time>2026-04-12T11:21:46.999Z</time></trkpt><trkpt lat="43.4140152970766" lon="11.964668944912026"><ele>465.0</ele><time>2026-04-12T11:21:48.999Z</time></trkpt><trkpt lat="43.41401975865744" lon="11.964551499893005"><ele>465.0</ele><time>2026-04-12T11:21:49.999Z</time></trkpt><trkpt lat="43.41398297325843" lon="11.964409436660182"><ele>465.0</ele><time>2026-04-12T11:21:51.999Z</time></trkpt><trkpt lat="43.413927848617035" lon="11.96436727677983"><ele>465.0</ele><time>2026-04-12T11:21:52.999Z</time></trkpt><trkpt lat="43.41387212517648" lon="11.96429672483477"><ele>465.0</ele><time>2026-04-12T11:21:53.999Z</time></trkpt><trkpt lat="43.4138138732524" lon="11.964227648767706"><ele>465.0</ele><time>2026-04-12T11:21:54.999Z</time></trkpt><trkpt lat="43.41378251010292" lon="11.964130817687304"><ele>466.3333333333333</ele><time>2026-04-12T11:21:55.999Z</time></trkpt><trkpt lat="43.41373904673682" lon="11.964035362255032"><ele>467.66666666666663</ele><time>2026-04-12T11:21:56.999Z</time></trkpt><trkpt lat="43.413728079714524" lon="11.963934437360486"><ele>469.0</ele><time>2026-04-12T11:21:57.999Z</time></trkpt><trkpt lat="43.4137591476619" lon="11.96383695265606"><ele>470.3333333333333</ele><time>2026-04-12T11:21:58.999Z</time></trkpt><trkpt lat="43.41382696533345" lon="11.963744046121851"><ele>471.66666666666663</ele><time>2026-04-12T11:21:59.999Z</time></trkpt><trkpt lat="43.41390106846024" lon="11.963640937264051"><ele>473.0</ele><time>2026-04-12T11:22:00.999Z</time></trkpt><trkpt lat="43.41394399935872" lon="11.963520616288521"><ele>474.59999999999997</ele><time>2026-04-12T11:22:01.999Z</time></trkpt><trkpt lat="43.413988181471254" lon="11.963371436306744"><ele>476.19999999999993</ele><time>2026-04-12T11:22:02.999Z</time></trkpt><trkpt lat="43.41403379048339" lon="11.963252570787649"><ele>477.8</ele><time>2026-04-12T11:22:03.999Z</time></trkpt><trkpt lat="43.41405653466313" lon="11.963148756916873"><ele>479.4</ele><time>2026-04-12T11:22:04.999Z</time></trkpt><trkpt lat="43.414052677509645" lon="11.963022629391679"><ele>481.0</ele><time>2026-04-12T11:22:05.999Z</time></trkpt><trkpt lat="43.41406190089297" lon="11.962889896859133"><ele>482.6</ele><time>2026-04-12T11:22:06.999Z</time></trkpt><trkpt lat="43.41410280610275" lon="11.962781366900039"><ele>484.20000000000005</ele><time>2026-04-12T11:22:07.999Z</time></trkpt><trkpt lat="43.41417880171989" lon="11.962693463484536"><ele>485.79999999999995</ele><time>2026-04-12T11:22:08.999Z</time></trkpt><trkpt lat="43.414253557485765" lon="11.96259847567683"><ele>487.4</ele><time>2026-04-12T11:22:09.999Z</time></trkpt><trkpt lat="43.414292036974416" lon="11.962498750030266"><ele>489.0</ele><time>2026-04-12T11:22:10.999Z</time></trkpt><trkpt lat="43.41435574513627" lon="11.962415521904147"><ele>489.3333333333333</ele><time>2026-04-12T11:22:11.999Z</time></trkpt><trkpt lat="43.41442285675373" lon="11.962384337804322"><ele>489.66666666666663</ele><time>2026-04-12T11:22:12.999Z</time></trkpt><trkpt lat="43.41452050562062" lon="11.96249337343145"><ele>490.0</ele><time>2026-04-12T11:22:14.999Z</time></trkpt><trkpt lat="43.414582430194244" lon="11.962525757395788"><ele>490.3333333333333</ele><time>2026-04-12T11:22:15.999Z</time></trkpt><trkpt lat="43.41465035189087" lon="11.962502370185067"><ele>490.66666666666663</ele><time>2026-04-12T11:22:16.999Z</time></trkpt><trkpt lat="43.41470770606857" lon="11.962423942144982"><ele>491.0</ele><time>2026-04-12T11:22:17.999Z</time></trkpt><trkpt lat="43.41473747907681" lon="11.962344980696592"><ele>493.3333333333333</ele><time>2026-04-12T11:22:18.999Z</time></trkpt><trkpt lat="43.41482034209586" lon="11.962319370872422"><ele>495.66666666666663</ele><time>2026-04-12T11:22:20.999Z</time></trkpt><trkpt lat="43.41488793051239" lon="11.962352339596118"><ele>498.0</ele><time>2026-04-12T11:22:21.999Z</time></trkpt><trkpt lat="43.41494766164944" lon="11.962320276790656"><ele>500.33333333333337</ele><time>2026-04-12T11:22:22.999Z</time></trkpt><trkpt lat="43.41502377510933" lon="11.962208974426462"><ele>502.6666666666667</ele><time>2026-04-12T11:22:24.999Z</time></trkpt><trkpt lat="43.415106554817484" lon="11.962264848223853"><ele>505.0</ele><time>2026-04-12T11:22:26.999Z</time></trkpt><trkpt lat="43.41521533363469" lon="11.962351414935616"><ele>505.00000000000006</ele><time>2026-04-12T11:22:28.999Z</time></trkpt><trkpt lat="43.415299809005326" lon="11.96235845846598"><ele>505.0</ele><time>2026-04-12T11:22:29.999Z</time></trkpt><trkpt lat="43.415401257850505" lon="11.96234684150182"><ele>505.0</ele><time>2026-04-12T11:22:30.999Z</time></trkpt><trkpt lat="43.41548650478901" lon="11.962333314343454"><ele>505.0</ele><time>2026-04-12T11:22:31.999Z</time></trkpt><trkpt lat="43.41555979747464" lon="11.962303683490221"><ele>505.00000000000006</ele><time>2026-04-12T11:22:32.999Z</time></trkpt><trkpt lat="43.41562807634613" lon="11.962278452731303"><ele>505.0</ele><time>2026-04-12T11:22:33.999Z</time></trkpt><trkpt lat="43.415668351829474" lon="11.962122920322283"><ele>507.00000000000006</ele><time>2026-04-12T11:22:35.999Z</time></trkpt><trkpt lat="43.415694955826815" lon="11.962022624765602"><ele>509.0</ele><time>2026-04-12T11:22:36.999Z</time></trkpt><trkpt lat="43.41575783222149" lon="11.961950149473449"><ele>511.0</ele><time>2026-04-12T11:22:37.999Z</time></trkpt><trkpt lat="43.415836838965994" lon="11.961890211609639"><ele>513.0</ele><time>2026-04-12T11:22:38.999Z</time></trkpt><trkpt lat="43.41592028389573" lon="11.961836248407677"><ele>515.0</ele><time>2026-04-12T11:22:39.998Z</time></trkpt><trkpt lat="43.41600338523166" lon="11.961783349531208"><ele>517.0</ele><time>2026-04-12T11:22:40.998Z</time></trkpt><trkpt lat="43.41609735433128" lon="11.961753069149653"><ele>517.0</ele><time>2026-04-12T11:22:41.998Z</time></trkpt><trkpt lat="43.41617294425848" lon="11.96172231375813"><ele>517.0</ele><time>2026-04-12T11:22:42.998Z</time></trkpt><trkpt lat="43.41624500018606" lon="11.96167456197945"><ele>517.0</ele><time>2026-04-12T11:22:43.998Z</time></trkpt><trkpt lat="43.416306823059244" lon="11.961608542996867"><ele>517.0</ele><time>2026-04-12T11:22:44.998Z</time></trkpt><trkpt lat="43.41636115328055" lon="11.961543557991048"><ele>517.0</ele><time>2026-04-12T11:22:45.998Z</time></trkpt><trkpt lat="43.41640138961151" lon="11.9614449621362"><ele>517.0</ele><time>2026-04-12T11:22:46.998Z</time></trkpt><trkpt lat="43.41644468189954" lon="11.961341424303678"><ele>520.0</ele><time>2026-04-12T11:22:47.998Z</time></trkpt><trkpt lat="43.416499990061745" lon="11.961245792481112"><ele>523.0</ele><time>2026-04-12T11:22:48.998Z</time></trkpt><trkpt lat="43.41656737522142" lon="11.961191863586073"><ele>526.0</ele><time>2026-04-12T11:22:49.998Z</time></trkpt><trkpt lat="43.416639765025025" lon="11.961116357657962"><ele>529.0</ele><time>2026-04-12T11:22:50.998Z</time></trkpt><trkpt lat="43.416728775432794" lon="11.961027951990815"><ele>532.0</ele><time>2026-04-12T11:22:51.998Z</time></trkpt><trkpt lat="43.41682984645372" lon="11.960972931292618"><ele>532.0</ele><time>2026-04-12T11:22:52.998Z</time></trkpt><trkpt lat="43.41689224817233" lon="11.960923701059423"><ele>532.0</ele><time>2026-04-12T11:22:53.998Z</time></trkpt><trkpt lat="43.41700382156086" lon="11.960845700587372"><ele>532.0</ele><time>2026-04-12T11:22:55.998Z</time></trkpt><trkpt lat="43.41707962010434" lon="11.960815128118716"><ele>532.0</ele><time>2026-04-12T11:22:57Z</time></trkpt><trkpt lat="43.41716111652533" lon="11.960810489487415"><ele>532.0</ele><time>2026-04-12T11:22:58Z</time></trkpt><trkpt lat="43.417249740319626" lon="11.960929675868401"><ele>535.2</ele><time>2026-04-12T11:23:00Z</time></trkpt><trkpt lat="43.4172837978498" lon="11.96102958879146"><ele>538.4000000000001</ele><time>2026-04-12T11:23:01Z</time></trkpt><trkpt lat="43.41732567863445" lon="11.96116380897256"><ele>541.5999999999999</ele><time>2026-04-12T11:23:02Z</time></trkpt><trkpt lat="43.41735987451529" lon="11.961302014316052"><ele>544.8</ele><time>2026-04-12T11:23:03Z</time></trkpt><trkpt lat="43.417405749131305" lon="11.961448347683213"><ele>548.0</ele><time>2026-04-12T11:23:04Z</time></trkpt><trkpt lat="43.41744556394358" lon="11.961578887253829"><ele>548.0</ele><time>2026-04-12T11:23:05Z</time></trkpt><trkpt lat="43.41749334856813" lon="11.961661799556246"><ele>548.0</ele><time>2026-04-12T11:23:06Z</time></trkpt><trkpt lat="43.41756899293663" lon="11.961736596622645"><ele>548.0</ele><time>2026-04-12T11:23:07Z</time></trkpt><trkpt lat="43.41765310067997" lon="11.961782230076043"><ele>548.0</ele><time>2026-04-12T11:23:08Z</time></trkpt><trkpt lat="43.417756382680416" lon="11.961789355028683"><ele>548.0</ele><time>2026-04-12T11:23:09Z</time></trkpt><trkpt lat="43.41785673709337" lon="11.961783657403046"><ele>545.8</ele><time>2026-04-12T11:23:10Z</time></trkpt><trkpt lat="43.41796738488058" lon="11.96180555330373"><ele>543.5999999999999</ele><time>2026-04-12T11:23:11Z</time></trkpt><trkpt lat="43.41807106740377" lon="11.961815245642883"><ele>541.4000000000001</ele><time>2026-04-12T11:23:12Z</time></trkpt><trkpt lat="43.41817623025774" lon="11.961799711842655"><ele>539.2</ele><time>2026-04-12T11:23:13Z</time></trkpt><trkpt lat="43.4182913637128" lon="11.96180439494285"><ele>537.0</ele><time>2026-04-12T11:23:14Z</time></trkpt><trkpt lat="43.41840915972913" lon="11.961773148326165"><ele>537.0</ele><time>2026-04-12T11:23:15Z</time></trkpt><trkpt lat="43.41851510752108" lon="11.961752809680508"><ele>537.0</ele><time>2026-04-12T11:23:16Z</time></trkpt><trkpt lat="43.418632440522835" lon="11.961783819737699"><ele>537.0</ele><time>2026-04-12T11:23:17Z</time></trkpt><trkpt lat="43.41874182571245" lon="11.961805126751013"><ele>537.0</ele><time>2026-04-12T11:23:18Z</time></trkpt><trkpt lat="43.41883493830052" lon="11.961799408888123"><ele>537.0</ele><time>2026-04-12T11:23:19Z</time></trkpt><trkpt lat="43.418923744947534" lon="11.96178310571228"><ele>537.4</ele><time>2026-04-12T11:23:20Z</time></trkpt><trkpt lat="43.418997909690326" lon="11.961749627826554"><ele>537.8000000000001</ele><time>2026-04-12T11:23:21Z</time></trkpt><trkpt lat="43.41905737722897" lon="11.961689708929198"><ele>538.2</ele><time>2026-04-12T11:23:22Z</time></trkpt><trkpt lat="43.41911836163692" lon="11.96158484004937"><ele>538.6</ele><time>2026-04-12T11:23:23Z</time></trkpt><trkpt lat="43.419190655992935" lon="11.961480950140045"><ele>539.0</ele><time>2026-04-12T11:23:24Z</time></trkpt><trkpt lat="43.41927573414403" lon="11.9614032325233"><ele>542.3333333333333</ele><time>2026-04-12T11:23:25Z</time></trkpt><trkpt lat="43.4193523630571" lon="11.96133323709374"><ele>545.6666666666666</ele><time>2026-04-12T11:23:27Z</time></trkpt><trkpt lat="43.419410818740815" lon="11.961266472324233"><ele>549.0</ele><time>2026-04-12T11:23:57.999Z</time></trkpt><trkpt lat="43.419372489941125" lon="11.961188318699808"><ele>552.3333333333334</ele><time>2026-04-12T11:24:00.999Z</time></trkpt><trkpt lat="43.41933411845035" lon="11.961286548518832"><ele>555.6666666666667</ele><time>2026-04-12T11:24:02.999Z</time></trkpt><trkpt lat="43.41924552133354" lon="11.96134085975122"><ele>559.0</ele><time>2026-04-12T11:24:07.999Z</time></trkpt><trkpt lat="43.41910680630948" lon="11.96139275118072"><ele>559.0</ele><time>2026-04-12T11:24:09.999Z</time></trkpt><trkpt lat="43.41902921953987" lon="11.961412075318114"><ele>559.0</ele><time>2026-04-12T11:24:10.999Z</time></trkpt><trkpt lat="43.41895790209045" lon="11.961433545107418"><ele>559.0</ele><time>2026-04-12T11:24:11.999Z</time></trkpt><trkpt lat="43.41886809039349" lon="11.961437159007025"><ele>559.0</ele><time>2026-04-12T11:24:12.999Z</time></trkpt><trkpt lat="43.4187827779815" lon="11.961414351066123"><ele>559.0</ele><time>2026-04-12T11:24:13.999Z</time></trkpt><trkpt lat="43.418702528917876" lon="11.961401617066288"><ele>559.0</ele><time>2026-04-12T11:24:14.999Z</time></trkpt><trkpt lat="43.41860689124267" lon="11.961374841950102"><ele>559.8</ele><time>2026-04-12T11:24:15.999Z</time></trkpt><trkpt lat="43.418513122457895" lon="11.96131432903259"><ele>560.5999999999999</ele><time>2026-04-12T11:24:16.999Z</time></trkpt><trkpt lat="43.418425111608265" lon="11.961230278627564"><ele>561.4</ele><time>2026-04-12T11:24:17.999Z</time></trkpt><trkpt lat="43.41835850788804" lon="11.961137279686186"><ele>562.1999999999999</ele><time>2026-04-12T11:24:18.999Z</time></trkpt><trkpt lat="43.41829913838065" lon="11.961041794872209"><ele>563.0</ele><time>2026-04-12T11:24:19.999Z</time></trkpt><trkpt lat="43.41824121894777" lon="11.960939009619638"><ele>563.0</ele><time>2026-04-12T11:24:20.999Z</time></trkpt><trkpt lat="43.41819205445528" lon="11.960845812731533"><ele>568.0</ele><time>2026-04-12T11:24:21.999Z</time></trkpt><trkpt lat="43.418150333892044" lon="11.960777553121792"><ele>568.0</ele><time>2026-04-12T11:24:22.999Z</time></trkpt><trkpt lat="43.418085625345284" lon="11.960658385805619"><ele>568.0</ele><time>2026-04-12T11:24:24.999Z</time></trkpt><trkpt lat="43.41804747023829" lon="11.96057740405203"><ele>568.0</ele><time>2026-04-12T11:24:26.999Z</time></trkpt><trkpt lat="43.417993580215125" lon="11.960529678570362"><ele>568.0</ele><time>2026-04-12T11:24:32.999Z</time></trkpt></trkseg></trk></gpx>